<?xml version="1.0" encoding="UTF-8" standalone="no" ?>
<gpx xmlns="http://www.topografix.com/GPX/1/1" xmlns:xsi="http://www.w3.org/2001/XMLSchema-instance" xsi:schemaLocation="http://www.topografix.com/GPX/1/1 http://www.topografix.com/GPX/1/1/gpx.xsd" version="1.1" creator="VisuGPX - https://www.visugpx.com">
  <metadata>
    <name>2016-06-19 08h21 Sortie Ventoux et Gorges de la Nesque</name>
    <desc><![CDATA[2016-06-19 08h21 Sortie Ventoux et Gorges de la Nesque]]></desc>
  </metadata>
  <trk>
    <name><![CDATA[2016-06-19 08:21 Sortie Ventoux et Gorges de la Nesque]]></name>
    <trkseg>
      <trkpt lat="43.61992" lon="3.83805">
        <ele>77.52</ele>
        <time>2016-06-19T06:21:29Z</time>
      </trkpt>
      <trkpt lat="43.61988" lon="3.83802">
        <ele>84.73</ele>
        <time>2016-06-19T06:21:58Z</time>
      </trkpt>
      <trkpt lat="43.61982" lon="3.83794">
        <ele>84.73</ele>
        <time>2016-06-19T06:22:01Z</time>
      </trkpt>
      <trkpt lat="43.61976" lon="3.83789">
        <ele>84.25</ele>
        <time>2016-06-19T06:22:02Z</time>
      </trkpt>
      <trkpt lat="43.6197" lon="3.83785">
        <ele>84.25</ele>
        <time>2016-06-19T06:22:03Z</time>
      </trkpt>
      <trkpt lat="43.61963" lon="3.83783">
        <ele>84.25</ele>
        <time>2016-06-19T06:22:04Z</time>
      </trkpt>
      <trkpt lat="43.61956" lon="3.83786">
        <ele>84.25</ele>
        <time>2016-06-19T06:22:05Z</time>
      </trkpt>
      <trkpt lat="43.61948" lon="3.83792">
        <ele>84.73</ele>
        <time>2016-06-19T06:22:06Z</time>
      </trkpt>
      <trkpt lat="43.6194" lon="3.83802">
        <ele>84.73</ele>
        <time>2016-06-19T06:22:07Z</time>
      </trkpt>
      <trkpt lat="43.61843" lon="3.83892">
        <ele>86.18</ele>
        <time>2016-06-19T06:22:16Z</time>
      </trkpt>
      <trkpt lat="43.61795" lon="3.83933">
        <ele>86.18</ele>
        <time>2016-06-19T06:22:22Z</time>
      </trkpt>
      <trkpt lat="43.6179" lon="3.83942">
        <ele>86.66</ele>
        <time>2016-06-19T06:22:23Z</time>
      </trkpt>
      <trkpt lat="43.61779" lon="3.83961">
        <ele>87.14</ele>
        <time>2016-06-19T06:22:25Z</time>
      </trkpt>
      <trkpt lat="43.61769" lon="3.8397">
        <ele>86.66</ele>
        <time>2016-06-19T06:22:26Z</time>
      </trkpt>
      <trkpt lat="43.61757" lon="3.83978">
        <ele>87.14</ele>
        <time>2016-06-19T06:22:27Z</time>
      </trkpt>
      <trkpt lat="43.61653" lon="3.84067">
        <ele>89.54</ele>
        <time>2016-06-19T06:22:37Z</time>
      </trkpt>
      <trkpt lat="43.61631" lon="3.84092">
        <ele>89.54</ele>
        <time>2016-06-19T06:22:44Z</time>
      </trkpt>
      <trkpt lat="43.61625" lon="3.84101">
        <ele>87.14</ele>
        <time>2016-06-19T06:23:22Z</time>
      </trkpt>
      <trkpt lat="43.61623" lon="3.84108">
        <ele>86.66</ele>
        <time>2016-06-19T06:23:23Z</time>
      </trkpt>
      <trkpt lat="43.61623" lon="3.84116">
        <ele>86.66</ele>
        <time>2016-06-19T06:23:24Z</time>
      </trkpt>
      <trkpt lat="43.61625" lon="3.84125">
        <ele>86.66</ele>
        <time>2016-06-19T06:23:25Z</time>
      </trkpt>
      <trkpt lat="43.61629" lon="3.84134">
        <ele>86.66</ele>
        <time>2016-06-19T06:23:26Z</time>
      </trkpt>
      <trkpt lat="43.61634" lon="3.84144">
        <ele>86.18</ele>
        <time>2016-06-19T06:23:27Z</time>
      </trkpt>
      <trkpt lat="43.61642" lon="3.84155">
        <ele>85.69</ele>
        <time>2016-06-19T06:23:28Z</time>
      </trkpt>
      <trkpt lat="43.61651" lon="3.84167">
        <ele>85.21</ele>
        <time>2016-06-19T06:23:29Z</time>
      </trkpt>
      <trkpt lat="43.61661" lon="3.84181">
        <ele>85.21</ele>
        <time>2016-06-19T06:23:30Z</time>
      </trkpt>
      <trkpt lat="43.61766" lon="3.84338">
        <ele>73.68</ele>
        <time>2016-06-19T06:23:40Z</time>
      </trkpt>
      <trkpt lat="43.61839" lon="3.84487">
        <ele>65.03</ele>
        <time>2016-06-19T06:23:48Z</time>
      </trkpt>
      <trkpt lat="43.61896" lon="3.84774">
        <ele>65.03</ele>
        <time>2016-06-19T06:24:00Z</time>
      </trkpt>
      <trkpt lat="43.61963" lon="3.84935">
        <ele>64.55</ele>
        <time>2016-06-19T06:24:07Z</time>
      </trkpt>
      <trkpt lat="43.61997" lon="3.8502">
        <ele>59.26</ele>
        <time>2016-06-19T06:24:11Z</time>
      </trkpt>
      <trkpt lat="43.62001" lon="3.85041">
        <ele>58.3</ele>
        <time>2016-06-19T06:24:12Z</time>
      </trkpt>
      <trkpt lat="43.62004" lon="3.85064">
        <ele>57.82</ele>
        <time>2016-06-19T06:24:13Z</time>
      </trkpt>
      <trkpt lat="43.62005" lon="3.85089">
        <ele>56.86</ele>
        <time>2016-06-19T06:24:14Z</time>
      </trkpt>
      <trkpt lat="43.62005" lon="3.85114">
        <ele>55.89</ele>
        <time>2016-06-19T06:24:15Z</time>
      </trkpt>
      <trkpt lat="43.62013" lon="3.85417">
        <ele>46.28</ele>
        <time>2016-06-19T06:24:26Z</time>
      </trkpt>
      <trkpt lat="43.62042" lon="3.85637">
        <ele>43.4</ele>
        <time>2016-06-19T06:24:34Z</time>
      </trkpt>
      <trkpt lat="43.62071" lon="3.85792">
        <ele>40.51</ele>
        <time>2016-06-19T06:24:41Z</time>
      </trkpt>
      <trkpt lat="43.62077" lon="3.8581">
        <ele>40.51</ele>
        <time>2016-06-19T06:24:42Z</time>
      </trkpt>
      <trkpt lat="43.62085" lon="3.85824">
        <ele>40.03</ele>
        <time>2016-06-19T06:24:43Z</time>
      </trkpt>
      <trkpt lat="43.62096" lon="3.85837">
        <ele>39.55</ele>
        <time>2016-06-19T06:24:44Z</time>
      </trkpt>
      <trkpt lat="43.62109" lon="3.85849">
        <ele>39.55</ele>
        <time>2016-06-19T06:24:45Z</time>
      </trkpt>
      <trkpt lat="43.62123" lon="3.85862">
        <ele>39.55</ele>
        <time>2016-06-19T06:24:46Z</time>
      </trkpt>
      <trkpt lat="43.62235" lon="3.86009">
        <ele>41.47</ele>
        <time>2016-06-19T06:24:55Z</time>
      </trkpt>
      <trkpt lat="43.62363" lon="3.8619">
        <ele>42.44</ele>
        <time>2016-06-19T06:25:06Z</time>
      </trkpt>
      <trkpt lat="43.62379" lon="3.86205">
        <ele>42.44</ele>
        <time>2016-06-19T06:25:11Z</time>
      </trkpt>
      <trkpt lat="43.62396" lon="3.86225">
        <ele>43.4</ele>
        <time>2016-06-19T06:25:49Z</time>
      </trkpt>
      <trkpt lat="43.62456" lon="3.86315">
        <ele>44.84</ele>
        <time>2016-06-19T06:25:55Z</time>
      </trkpt>
      <trkpt lat="43.62557" lon="3.86471">
        <ele>48.2</ele>
        <time>2016-06-19T06:26:03Z</time>
      </trkpt>
      <trkpt lat="43.62636" lon="3.86642">
        <ele>48.2</ele>
        <time>2016-06-19T06:26:11Z</time>
      </trkpt>
      <trkpt lat="43.62682" lon="3.86902">
        <ele>52.05</ele>
        <time>2016-06-19T06:26:21Z</time>
      </trkpt>
      <trkpt lat="43.62701" lon="3.87137">
        <ele>51.57</ele>
        <time>2016-06-19T06:26:30Z</time>
      </trkpt>
      <trkpt lat="43.62692" lon="3.87381">
        <ele>49.16</ele>
        <time>2016-06-19T06:26:39Z</time>
      </trkpt>
      <trkpt lat="43.62676" lon="3.8747">
        <ele>48.68</ele>
        <time>2016-06-19T06:26:44Z</time>
      </trkpt>
      <trkpt lat="43.62675" lon="3.8747">
        <ele>49.16</ele>
        <time>2016-06-19T06:26:45Z</time>
      </trkpt>
      <trkpt lat="43.6268" lon="3.87466">
        <ele>45.8</ele>
        <time>2016-06-19T06:26:53Z</time>
      </trkpt>
      <trkpt lat="43.62684" lon="3.87472">
        <ele>46.76</ele>
        <time>2016-06-19T06:27:14Z</time>
      </trkpt>
      <trkpt lat="43.62686" lon="3.8748">
        <ele>46.76</ele>
        <time>2016-06-19T06:27:15Z</time>
      </trkpt>
      <trkpt lat="43.62659" lon="3.8756">
        <ele>46.28</ele>
        <time>2016-06-19T06:27:20Z</time>
      </trkpt>
      <trkpt lat="43.62621" lon="3.877">
        <ele>49.65</ele>
        <time>2016-06-19T06:27:28Z</time>
      </trkpt>
      <trkpt lat="43.6262" lon="3.87712">
        <ele>50.13</ele>
        <time>2016-06-19T06:27:33Z</time>
      </trkpt>
      <trkpt lat="43.62616" lon="3.8772">
        <ele>50.13</ele>
        <time>2016-06-19T06:27:40Z</time>
      </trkpt>
      <trkpt lat="43.6261" lon="3.87733">
        <ele>50.13</ele>
        <time>2016-06-19T06:27:41Z</time>
      </trkpt>
      <trkpt lat="43.62604" lon="3.87747">
        <ele>50.13</ele>
        <time>2016-06-19T06:27:42Z</time>
      </trkpt>
      <trkpt lat="43.62574" lon="3.87864">
        <ele>50.13</ele>
        <time>2016-06-19T06:27:49Z</time>
      </trkpt>
      <trkpt lat="43.62565" lon="3.8789">
        <ele>50.13</ele>
        <time>2016-06-19T06:27:54Z</time>
      </trkpt>
      <trkpt lat="43.62561" lon="3.87924">
        <ele>49.65</ele>
        <time>2016-06-19T06:27:58Z</time>
      </trkpt>
      <trkpt lat="43.62561" lon="3.87941">
        <ele>49.16</ele>
        <time>2016-06-19T06:27:59Z</time>
      </trkpt>
      <trkpt lat="43.62563" lon="3.87961">
        <ele>48.68</ele>
        <time>2016-06-19T06:28:00Z</time>
      </trkpt>
      <trkpt lat="43.62582" lon="3.88116">
        <ele>44.84</ele>
        <time>2016-06-19T06:28:08Z</time>
      </trkpt>
      <trkpt lat="43.62597" lon="3.88212">
        <ele>41.95</ele>
        <time>2016-06-19T06:28:16Z</time>
      </trkpt>
      <trkpt lat="43.62599" lon="3.88225">
        <ele>40.99</ele>
        <time>2016-06-19T06:28:22Z</time>
      </trkpt>
      <trkpt lat="43.62613" lon="3.88305">
        <ele>40.99</ele>
        <time>2016-06-19T06:28:27Z</time>
      </trkpt>
      <trkpt lat="43.62626" lon="3.88505">
        <ele>42.44</ele>
        <time>2016-06-19T06:28:35Z</time>
      </trkpt>
      <trkpt lat="43.62643" lon="3.88818">
        <ele>34.74</ele>
        <time>2016-06-19T06:28:46Z</time>
      </trkpt>
      <trkpt lat="43.62717" lon="3.89119">
        <ele>31.38</ele>
        <time>2016-06-19T06:28:57Z</time>
      </trkpt>
      <trkpt lat="43.62728" lon="3.89167">
        <ele>30.42</ele>
        <time>2016-06-19T06:28:59Z</time>
      </trkpt>
      <trkpt lat="43.62737" lon="3.89189">
        <ele>30.42</ele>
        <time>2016-06-19T06:29:00Z</time>
      </trkpt>
      <trkpt lat="43.62748" lon="3.89211">
        <ele>29.94</ele>
        <time>2016-06-19T06:29:01Z</time>
      </trkpt>
      <trkpt lat="43.62832" lon="3.89369">
        <ele>29.46</ele>
        <time>2016-06-19T06:29:07Z</time>
      </trkpt>
      <trkpt lat="43.62882" lon="3.89472">
        <ele>29.94</ele>
        <time>2016-06-19T06:29:11Z</time>
      </trkpt>
      <trkpt lat="43.62887" lon="3.89494">
        <ele>29.94</ele>
        <time>2016-06-19T06:29:12Z</time>
      </trkpt>
      <trkpt lat="43.62889" lon="3.89516">
        <ele>29.46</ele>
        <time>2016-06-19T06:29:13Z</time>
      </trkpt>
      <trkpt lat="43.62885" lon="3.89535">
        <ele>29.46</ele>
        <time>2016-06-19T06:29:14Z</time>
      </trkpt>
      <trkpt lat="43.62879" lon="3.89551">
        <ele>28.98</ele>
        <time>2016-06-19T06:29:15Z</time>
      </trkpt>
      <trkpt lat="43.62873" lon="3.89567">
        <ele>28.5</ele>
        <time>2016-06-19T06:29:16Z</time>
      </trkpt>
      <trkpt lat="43.62859" lon="3.89583">
        <ele>28.5</ele>
        <time>2016-06-19T06:29:17Z</time>
      </trkpt>
      <trkpt lat="43.62847" lon="3.89601">
        <ele>28.5</ele>
        <time>2016-06-19T06:29:18Z</time>
      </trkpt>
      <trkpt lat="43.62807" lon="3.89663">
        <ele>28.98</ele>
        <time>2016-06-19T06:29:22Z</time>
      </trkpt>
      <trkpt lat="43.628" lon="3.8967">
        <ele>29.46</ele>
        <time>2016-06-19T06:29:23Z</time>
      </trkpt>
      <trkpt lat="43.62792" lon="3.89676">
        <ele>28.98</ele>
        <time>2016-06-19T06:29:24Z</time>
      </trkpt>
      <trkpt lat="43.62784" lon="3.89683">
        <ele>29.46</ele>
        <time>2016-06-19T06:29:25Z</time>
      </trkpt>
      <trkpt lat="43.62779" lon="3.89692">
        <ele>29.94</ele>
        <time>2016-06-19T06:29:26Z</time>
      </trkpt>
      <trkpt lat="43.62777" lon="3.89701">
        <ele>29.46</ele>
        <time>2016-06-19T06:29:27Z</time>
      </trkpt>
      <trkpt lat="43.62779" lon="3.89711">
        <ele>29.46</ele>
        <time>2016-06-19T06:29:28Z</time>
      </trkpt>
      <trkpt lat="43.62783" lon="3.8972">
        <ele>29.46</ele>
        <time>2016-06-19T06:29:29Z</time>
      </trkpt>
      <trkpt lat="43.6279" lon="3.89725">
        <ele>29.46</ele>
        <time>2016-06-19T06:29:30Z</time>
      </trkpt>
      <trkpt lat="43.62797" lon="3.8973">
        <ele>29.46</ele>
        <time>2016-06-19T06:29:31Z</time>
      </trkpt>
      <trkpt lat="43.62804" lon="3.89736">
        <ele>29.46</ele>
        <time>2016-06-19T06:29:32Z</time>
      </trkpt>
      <trkpt lat="43.62811" lon="3.89746">
        <ele>29.46</ele>
        <time>2016-06-19T06:29:33Z</time>
      </trkpt>
      <trkpt lat="43.62816" lon="3.89758">
        <ele>29.46</ele>
        <time>2016-06-19T06:29:34Z</time>
      </trkpt>
      <trkpt lat="43.6282" lon="3.89771">
        <ele>29.46</ele>
        <time>2016-06-19T06:29:35Z</time>
      </trkpt>
      <trkpt lat="43.62824" lon="3.8978">
        <ele>29.46</ele>
        <time>2016-06-19T06:29:36Z</time>
      </trkpt>
      <trkpt lat="43.6283" lon="3.89788">
        <ele>29.46</ele>
        <time>2016-06-19T06:29:37Z</time>
      </trkpt>
      <trkpt lat="43.62838" lon="3.89797">
        <ele>29.46</ele>
        <time>2016-06-19T06:29:38Z</time>
      </trkpt>
      <trkpt lat="43.62847" lon="3.89807">
        <ele>29.46</ele>
        <time>2016-06-19T06:29:39Z</time>
      </trkpt>
      <trkpt lat="43.62873" lon="3.89833">
        <ele>29.46</ele>
        <time>2016-06-19T06:29:42Z</time>
      </trkpt>
      <trkpt lat="43.62883" lon="3.89838">
        <ele>29.46</ele>
        <time>2016-06-19T06:29:43Z</time>
      </trkpt>
      <trkpt lat="43.62894" lon="3.89842">
        <ele>29.46</ele>
        <time>2016-06-19T06:29:44Z</time>
      </trkpt>
      <trkpt lat="43.62906" lon="3.89846">
        <ele>29.94</ele>
        <time>2016-06-19T06:29:45Z</time>
      </trkpt>
      <trkpt lat="43.62917" lon="3.89851">
        <ele>29.94</ele>
        <time>2016-06-19T06:29:46Z</time>
      </trkpt>
      <trkpt lat="43.62928" lon="3.89861">
        <ele>29.94</ele>
        <time>2016-06-19T06:29:47Z</time>
      </trkpt>
      <trkpt lat="43.62937" lon="3.89873">
        <ele>30.42</ele>
        <time>2016-06-19T06:29:48Z</time>
      </trkpt>
      <trkpt lat="43.62945" lon="3.8989">
        <ele>31.38</ele>
        <time>2016-06-19T06:29:49Z</time>
      </trkpt>
      <trkpt lat="43.62951" lon="3.89909">
        <ele>31.86</ele>
        <time>2016-06-19T06:29:50Z</time>
      </trkpt>
      <trkpt lat="43.62955" lon="3.8993">
        <ele>31.86</ele>
        <time>2016-06-19T06:29:51Z</time>
      </trkpt>
      <trkpt lat="43.62959" lon="3.89952">
        <ele>31.86</ele>
        <time>2016-06-19T06:29:52Z</time>
      </trkpt>
      <trkpt lat="43.62994" lon="3.90174">
        <ele>33.3</ele>
        <time>2016-06-19T06:30:01Z</time>
      </trkpt>
      <trkpt lat="43.63059" lon="3.90506">
        <ele>34.26</ele>
        <time>2016-06-19T06:30:15Z</time>
      </trkpt>
      <trkpt lat="43.63114" lon="3.9079">
        <ele>35.71</ele>
        <time>2016-06-19T06:30:27Z</time>
      </trkpt>
      <trkpt lat="43.63119" lon="3.90824">
        <ele>35.71</ele>
        <time>2016-06-19T06:30:29Z</time>
      </trkpt>
      <trkpt lat="43.63122" lon="3.90854">
        <ele>35.71</ele>
        <time>2016-06-19T06:30:31Z</time>
      </trkpt>
      <trkpt lat="43.63126" lon="3.90868">
        <ele>35.71</ele>
        <time>2016-06-19T06:30:32Z</time>
      </trkpt>
      <trkpt lat="43.63155" lon="3.90995">
        <ele>37.15</ele>
        <time>2016-06-19T06:30:38Z</time>
      </trkpt>
      <trkpt lat="43.63209" lon="3.91265">
        <ele>39.55</ele>
        <time>2016-06-19T06:30:49Z</time>
      </trkpt>
      <trkpt lat="43.63266" lon="3.91544">
        <ele>41.95</ele>
        <time>2016-06-19T06:31:01Z</time>
      </trkpt>
      <trkpt lat="43.63283" lon="3.91646">
        <ele>41.47</ele>
        <time>2016-06-19T06:31:08Z</time>
      </trkpt>
      <trkpt lat="43.63286" lon="3.9166">
        <ele>41.47</ele>
        <time>2016-06-19T06:31:09Z</time>
      </trkpt>
      <trkpt lat="43.6329" lon="3.91676">
        <ele>41.47</ele>
        <time>2016-06-19T06:31:10Z</time>
      </trkpt>
      <trkpt lat="43.63336" lon="3.91895">
        <ele>42.44</ele>
        <time>2016-06-19T06:31:23Z</time>
      </trkpt>
      <trkpt lat="43.63386" lon="3.9213">
        <ele>44.36</ele>
        <time>2016-06-19T06:31:38Z</time>
      </trkpt>
      <trkpt lat="43.63387" lon="3.9214">
        <ele>44.36</ele>
        <time>2016-06-19T06:31:39Z</time>
      </trkpt>
      <trkpt lat="43.63387" lon="3.92148">
        <ele>43.88</ele>
        <time>2016-06-19T06:31:40Z</time>
      </trkpt>
      <trkpt lat="43.63388" lon="3.92156">
        <ele>43.88</ele>
        <time>2016-06-19T06:31:41Z</time>
      </trkpt>
      <trkpt lat="43.63391" lon="3.92162">
        <ele>43.88</ele>
        <time>2016-06-19T06:31:42Z</time>
      </trkpt>
      <trkpt lat="43.63394" lon="3.92165">
        <ele>43.88</ele>
        <time>2016-06-19T06:31:43Z</time>
      </trkpt>
      <trkpt lat="43.63396" lon="3.92166">
        <ele>43.4</ele>
        <time>2016-06-19T06:31:44Z</time>
      </trkpt>
      <trkpt lat="43.63407" lon="3.92168">
        <ele>43.4</ele>
        <time>2016-06-19T06:31:49Z</time>
      </trkpt>
      <trkpt lat="43.63413" lon="3.92174">
        <ele>43.4</ele>
        <time>2016-06-19T06:31:50Z</time>
      </trkpt>
      <trkpt lat="43.6342" lon="3.92185">
        <ele>43.4</ele>
        <time>2016-06-19T06:31:51Z</time>
      </trkpt>
      <trkpt lat="43.63426" lon="3.92199">
        <ele>43.88</ele>
        <time>2016-06-19T06:31:52Z</time>
      </trkpt>
      <trkpt lat="43.63432" lon="3.92215">
        <ele>43.88</ele>
        <time>2016-06-19T06:31:53Z</time>
      </trkpt>
      <trkpt lat="43.63486" lon="3.9237">
        <ele>44.36</ele>
        <time>2016-06-19T06:32:00Z</time>
      </trkpt>
      <trkpt lat="43.63593" lon="3.92609">
        <ele>42.44</ele>
        <time>2016-06-19T06:32:10Z</time>
      </trkpt>
      <trkpt lat="43.63626" lon="3.92689">
        <ele>42.44</ele>
        <time>2016-06-19T06:32:16Z</time>
      </trkpt>
      <trkpt lat="43.63631" lon="3.92697">
        <ele>42.44</ele>
        <time>2016-06-19T06:32:17Z</time>
      </trkpt>
      <trkpt lat="43.63644" lon="3.92713">
        <ele>41.95</ele>
        <time>2016-06-19T06:32:19Z</time>
      </trkpt>
      <trkpt lat="43.6371" lon="3.92855">
        <ele>41.47</ele>
        <time>2016-06-19T06:32:29Z</time>
      </trkpt>
      <trkpt lat="43.63787" lon="3.93024">
        <ele>40.99</ele>
        <time>2016-06-19T06:32:40Z</time>
      </trkpt>
      <trkpt lat="43.63802" lon="3.93048">
        <ele>41.47</ele>
        <time>2016-06-19T06:32:42Z</time>
      </trkpt>
      <trkpt lat="43.63807" lon="3.93061">
        <ele>41.47</ele>
        <time>2016-06-19T06:32:43Z</time>
      </trkpt>
      <trkpt lat="43.6381" lon="3.93075">
        <ele>41.47</ele>
        <time>2016-06-19T06:32:44Z</time>
      </trkpt>
      <trkpt lat="43.63811" lon="3.9309">
        <ele>41.95</ele>
        <time>2016-06-19T06:32:45Z</time>
      </trkpt>
      <trkpt lat="43.63813" lon="3.93105">
        <ele>41.95</ele>
        <time>2016-06-19T06:32:46Z</time>
      </trkpt>
      <trkpt lat="43.63817" lon="3.9312">
        <ele>42.44</ele>
        <time>2016-06-19T06:32:47Z</time>
      </trkpt>
      <trkpt lat="43.63824" lon="3.93133">
        <ele>42.44</ele>
        <time>2016-06-19T06:32:48Z</time>
      </trkpt>
      <trkpt lat="43.63831" lon="3.93147">
        <ele>41.95</ele>
        <time>2016-06-19T06:32:49Z</time>
      </trkpt>
      <trkpt lat="43.63837" lon="3.93165">
        <ele>41.95</ele>
        <time>2016-06-19T06:32:50Z</time>
      </trkpt>
      <trkpt lat="43.6384" lon="3.93187">
        <ele>41.47</ele>
        <time>2016-06-19T06:32:51Z</time>
      </trkpt>
      <trkpt lat="43.63843" lon="3.93211">
        <ele>41.47</ele>
        <time>2016-06-19T06:32:52Z</time>
      </trkpt>
      <trkpt lat="43.63848" lon="3.93237">
        <ele>40.99</ele>
        <time>2016-06-19T06:32:53Z</time>
      </trkpt>
      <trkpt lat="43.63855" lon="3.93264">
        <ele>40.99</ele>
        <time>2016-06-19T06:32:54Z</time>
      </trkpt>
      <trkpt lat="43.63864" lon="3.9329">
        <ele>40.51</ele>
        <time>2016-06-19T06:32:55Z</time>
      </trkpt>
      <trkpt lat="43.6389" lon="3.93379">
        <ele>40.03</ele>
        <time>2016-06-19T06:32:59Z</time>
      </trkpt>
      <trkpt lat="43.63897" lon="3.93414">
        <ele>40.51</ele>
        <time>2016-06-19T06:33:01Z</time>
      </trkpt>
      <trkpt lat="43.63904" lon="3.93432">
        <ele>40.03</ele>
        <time>2016-06-19T06:33:02Z</time>
      </trkpt>
      <trkpt lat="43.63911" lon="3.93452">
        <ele>40.03</ele>
        <time>2016-06-19T06:33:03Z</time>
      </trkpt>
      <trkpt lat="43.63958" lon="3.93592">
        <ele>40.03</ele>
        <time>2016-06-19T06:33:08Z</time>
      </trkpt>
      <trkpt lat="43.6413" lon="3.94113">
        <ele>40.51</ele>
        <time>2016-06-19T06:33:24Z</time>
      </trkpt>
      <trkpt lat="43.64172" lon="3.94277">
        <ele>40.51</ele>
        <time>2016-06-19T06:33:30Z</time>
      </trkpt>
      <trkpt lat="43.64177" lon="3.94298">
        <ele>40.51</ele>
        <time>2016-06-19T06:33:31Z</time>
      </trkpt>
      <trkpt lat="43.64183" lon="3.94333">
        <ele>40.51</ele>
        <time>2016-06-19T06:33:33Z</time>
      </trkpt>
      <trkpt lat="43.64189" lon="3.94342">
        <ele>40.51</ele>
        <time>2016-06-19T06:33:34Z</time>
      </trkpt>
      <trkpt lat="43.64197" lon="3.94353">
        <ele>40.03</ele>
        <time>2016-06-19T06:33:35Z</time>
      </trkpt>
      <trkpt lat="43.64205" lon="3.94367">
        <ele>40.03</ele>
        <time>2016-06-19T06:33:36Z</time>
      </trkpt>
      <trkpt lat="43.64212" lon="3.94387">
        <ele>40.03</ele>
        <time>2016-06-19T06:33:37Z</time>
      </trkpt>
      <trkpt lat="43.64218" lon="3.94409">
        <ele>40.03</ele>
        <time>2016-06-19T06:33:38Z</time>
      </trkpt>
      <trkpt lat="43.6426" lon="3.94556">
        <ele>40.03</ele>
        <time>2016-06-19T06:33:43Z</time>
      </trkpt>
      <trkpt lat="43.64359" lon="3.94891">
        <ele>38.59</ele>
        <time>2016-06-19T06:33:53Z</time>
      </trkpt>
      <trkpt lat="43.64425" lon="3.95095">
        <ele>38.59</ele>
        <time>2016-06-19T06:34:01Z</time>
      </trkpt>
      <trkpt lat="43.64438" lon="3.95115">
        <ele>39.07</ele>
        <time>2016-06-19T06:34:02Z</time>
      </trkpt>
      <trkpt lat="43.64452" lon="3.95134">
        <ele>39.07</ele>
        <time>2016-06-19T06:34:03Z</time>
      </trkpt>
      <trkpt lat="43.64468" lon="3.95151">
        <ele>39.07</ele>
        <time>2016-06-19T06:34:04Z</time>
      </trkpt>
      <trkpt lat="43.64486" lon="3.95168">
        <ele>39.07</ele>
        <time>2016-06-19T06:34:05Z</time>
      </trkpt>
      <trkpt lat="43.64504" lon="3.95185">
        <ele>39.07</ele>
        <time>2016-06-19T06:34:06Z</time>
      </trkpt>
      <trkpt lat="43.64759" lon="3.95424">
        <ele>41.47</ele>
        <time>2016-06-19T06:34:20Z</time>
      </trkpt>
      <trkpt lat="43.64874" lon="3.95582">
        <ele>43.88</ele>
        <time>2016-06-19T06:34:26Z</time>
      </trkpt>
      <trkpt lat="43.6503" lon="3.95817">
        <ele>46.28</ele>
        <time>2016-06-19T06:34:34Z</time>
      </trkpt>
      <trkpt lat="43.65196" lon="3.96106">
        <ele>47.24</ele>
        <time>2016-06-19T06:34:44Z</time>
      </trkpt>
      <trkpt lat="43.65217" lon="3.96146">
        <ele>47.24</ele>
        <time>2016-06-19T06:34:46Z</time>
      </trkpt>
      <trkpt lat="43.65223" lon="3.96163">
        <ele>47.24</ele>
        <time>2016-06-19T06:34:47Z</time>
      </trkpt>
      <trkpt lat="43.65231" lon="3.96191">
        <ele>47.72</ele>
        <time>2016-06-19T06:34:49Z</time>
      </trkpt>
      <trkpt lat="43.65238" lon="3.96201">
        <ele>47.72</ele>
        <time>2016-06-19T06:34:50Z</time>
      </trkpt>
      <trkpt lat="43.65248" lon="3.9621">
        <ele>47.24</ele>
        <time>2016-06-19T06:34:51Z</time>
      </trkpt>
      <trkpt lat="43.65259" lon="3.96218">
        <ele>47.24</ele>
        <time>2016-06-19T06:34:52Z</time>
      </trkpt>
      <trkpt lat="43.6527" lon="3.96235">
        <ele>47.72</ele>
        <time>2016-06-19T06:34:53Z</time>
      </trkpt>
      <trkpt lat="43.65282" lon="3.96256">
        <ele>47.72</ele>
        <time>2016-06-19T06:34:54Z</time>
      </trkpt>
      <trkpt lat="43.65377" lon="3.96465">
        <ele>48.68</ele>
        <time>2016-06-19T06:35:02Z</time>
      </trkpt>
      <trkpt lat="43.65382" lon="3.96494">
        <ele>48.2</ele>
        <time>2016-06-19T06:35:03Z</time>
      </trkpt>
      <trkpt lat="43.65386" lon="3.96522">
        <ele>47.72</ele>
        <time>2016-06-19T06:35:04Z</time>
      </trkpt>
      <trkpt lat="43.65387" lon="3.96548">
        <ele>47.24</ele>
        <time>2016-06-19T06:35:05Z</time>
      </trkpt>
      <trkpt lat="43.65387" lon="3.96573">
        <ele>46.76</ele>
        <time>2016-06-19T06:35:06Z</time>
      </trkpt>
      <trkpt lat="43.65387" lon="3.96597">
        <ele>46.28</ele>
        <time>2016-06-19T06:35:07Z</time>
      </trkpt>
      <trkpt lat="43.65383" lon="3.96769">
        <ele>43.4</ele>
        <time>2016-06-19T06:35:16Z</time>
      </trkpt>
      <trkpt lat="43.65382" lon="3.9679">
        <ele>43.88</ele>
        <time>2016-06-19T06:35:22Z</time>
      </trkpt>
      <trkpt lat="43.65382" lon="3.96822">
        <ele>42.92</ele>
        <time>2016-06-19T06:35:44Z</time>
      </trkpt>
      <trkpt lat="43.65375" lon="3.96945">
        <ele>41.95</ele>
        <time>2016-06-19T06:35:52Z</time>
      </trkpt>
      <trkpt lat="43.65344" lon="3.9709">
        <ele>41.95</ele>
        <time>2016-06-19T06:35:58Z</time>
      </trkpt>
      <trkpt lat="43.65261" lon="3.97342">
        <ele>41.95</ele>
        <time>2016-06-19T06:36:06Z</time>
      </trkpt>
      <trkpt lat="43.65236" lon="3.97497">
        <ele>40.51</ele>
        <time>2016-06-19T06:36:11Z</time>
      </trkpt>
      <trkpt lat="43.65225" lon="3.97535">
        <ele>39.55</ele>
        <time>2016-06-19T06:36:13Z</time>
      </trkpt>
      <trkpt lat="43.65217" lon="3.9755">
        <ele>39.55</ele>
        <time>2016-06-19T06:36:14Z</time>
      </trkpt>
      <trkpt lat="43.65209" lon="3.97565">
        <ele>39.07</ele>
        <time>2016-06-19T06:36:15Z</time>
      </trkpt>
      <trkpt lat="43.65203" lon="3.97582">
        <ele>39.07</ele>
        <time>2016-06-19T06:36:16Z</time>
      </trkpt>
      <trkpt lat="43.65201" lon="3.97599">
        <ele>38.59</ele>
        <time>2016-06-19T06:36:17Z</time>
      </trkpt>
      <trkpt lat="43.65203" lon="3.97619">
        <ele>39.07</ele>
        <time>2016-06-19T06:36:18Z</time>
      </trkpt>
      <trkpt lat="43.65208" lon="3.97636">
        <ele>39.55</ele>
        <time>2016-06-19T06:36:19Z</time>
      </trkpt>
      <trkpt lat="43.65218" lon="3.9765">
        <ele>39.07</ele>
        <time>2016-06-19T06:36:20Z</time>
      </trkpt>
      <trkpt lat="43.65229" lon="3.97665">
        <ele>39.55</ele>
        <time>2016-06-19T06:36:21Z</time>
      </trkpt>
      <trkpt lat="43.6524" lon="3.97682">
        <ele>39.55</ele>
        <time>2016-06-19T06:36:22Z</time>
      </trkpt>
      <trkpt lat="43.65249" lon="3.97704">
        <ele>39.55</ele>
        <time>2016-06-19T06:36:23Z</time>
      </trkpt>
      <trkpt lat="43.65254" lon="3.97732">
        <ele>39.55</ele>
        <time>2016-06-19T06:36:24Z</time>
      </trkpt>
      <trkpt lat="43.65258" lon="3.9776">
        <ele>39.55</ele>
        <time>2016-06-19T06:36:25Z</time>
      </trkpt>
      <trkpt lat="43.65262" lon="3.97791">
        <ele>39.07</ele>
        <time>2016-06-19T06:36:26Z</time>
      </trkpt>
      <trkpt lat="43.65302" lon="3.98043">
        <ele>38.59</ele>
        <time>2016-06-19T06:36:33Z</time>
      </trkpt>
      <trkpt lat="43.65397" lon="3.98426">
        <ele>38.59</ele>
        <time>2016-06-19T06:36:43Z</time>
      </trkpt>
      <trkpt lat="43.65485" lon="3.98838">
        <ele>40.51</ele>
        <time>2016-06-19T06:36:54Z</time>
      </trkpt>
      <trkpt lat="43.65496" lon="3.98968">
        <ele>42.92</ele>
        <time>2016-06-19T06:36:59Z</time>
      </trkpt>
      <trkpt lat="43.65497" lon="3.98985">
        <ele>43.4</ele>
        <time>2016-06-19T06:37:00Z</time>
      </trkpt>
      <trkpt lat="43.65495" lon="3.99001">
        <ele>43.4</ele>
        <time>2016-06-19T06:37:01Z</time>
      </trkpt>
      <trkpt lat="43.65491" lon="3.99017">
        <ele>43.4</ele>
        <time>2016-06-19T06:37:02Z</time>
      </trkpt>
      <trkpt lat="43.65487" lon="3.99033">
        <ele>43.4</ele>
        <time>2016-06-19T06:37:03Z</time>
      </trkpt>
      <trkpt lat="43.65485" lon="3.99048">
        <ele>43.88</ele>
        <time>2016-06-19T06:37:04Z</time>
      </trkpt>
      <trkpt lat="43.65482" lon="3.99067">
        <ele>43.88</ele>
        <time>2016-06-19T06:37:05Z</time>
      </trkpt>
      <trkpt lat="43.65476" lon="3.99089">
        <ele>43.88</ele>
        <time>2016-06-19T06:37:06Z</time>
      </trkpt>
      <trkpt lat="43.6547" lon="3.99115">
        <ele>44.36</ele>
        <time>2016-06-19T06:37:07Z</time>
      </trkpt>
      <trkpt lat="43.65432" lon="3.99312">
        <ele>46.28</ele>
        <time>2016-06-19T06:37:13Z</time>
      </trkpt>
      <trkpt lat="43.65401" lon="3.99473">
        <ele>44.84</ele>
        <time>2016-06-19T06:37:19Z</time>
      </trkpt>
      <trkpt lat="43.65395" lon="3.99489">
        <ele>44.84</ele>
        <time>2016-06-19T06:37:20Z</time>
      </trkpt>
      <trkpt lat="43.65386" lon="3.99519">
        <ele>44.36</ele>
        <time>2016-06-19T06:37:22Z</time>
      </trkpt>
      <trkpt lat="43.65386" lon="3.99533">
        <ele>43.88</ele>
        <time>2016-06-19T06:37:23Z</time>
      </trkpt>
      <trkpt lat="43.65392" lon="3.99548">
        <ele>43.88</ele>
        <time>2016-06-19T06:37:24Z</time>
      </trkpt>
      <trkpt lat="43.65399" lon="3.99568">
        <ele>43.4</ele>
        <time>2016-06-19T06:37:25Z</time>
      </trkpt>
      <trkpt lat="43.65404" lon="3.99593">
        <ele>42.92</ele>
        <time>2016-06-19T06:37:26Z</time>
      </trkpt>
      <trkpt lat="43.65408" lon="3.99622">
        <ele>42.44</ele>
        <time>2016-06-19T06:37:27Z</time>
      </trkpt>
      <trkpt lat="43.65431" lon="3.99815">
        <ele>38.11</ele>
        <time>2016-06-19T06:37:32Z</time>
      </trkpt>
      <trkpt lat="43.6545" lon="3.99977">
        <ele>32.82</ele>
        <time>2016-06-19T06:37:37Z</time>
      </trkpt>
      <trkpt lat="43.65449" lon="3.99995">
        <ele>31.86</ele>
        <time>2016-06-19T06:37:38Z</time>
      </trkpt>
      <trkpt lat="43.65447" lon="4.00009">
        <ele>30.9</ele>
        <time>2016-06-19T06:37:39Z</time>
      </trkpt>
      <trkpt lat="43.65441" lon="4.00019">
        <ele>30.42</ele>
        <time>2016-06-19T06:37:40Z</time>
      </trkpt>
      <trkpt lat="43.65433" lon="4.00028">
        <ele>29.46</ele>
        <time>2016-06-19T06:37:41Z</time>
      </trkpt>
      <trkpt lat="43.65423" lon="4.00038">
        <ele>29.46</ele>
        <time>2016-06-19T06:37:42Z</time>
      </trkpt>
      <trkpt lat="43.65414" lon="4.00051">
        <ele>28.98</ele>
        <time>2016-06-19T06:37:43Z</time>
      </trkpt>
      <trkpt lat="43.65408" lon="4.00069">
        <ele>28.98</ele>
        <time>2016-06-19T06:37:44Z</time>
      </trkpt>
      <trkpt lat="43.65408" lon="4.00087">
        <ele>28.5</ele>
        <time>2016-06-19T06:37:45Z</time>
      </trkpt>
      <trkpt lat="43.65412" lon="4.00105">
        <ele>28.02</ele>
        <time>2016-06-19T06:37:46Z</time>
      </trkpt>
      <trkpt lat="43.65417" lon="4.00121">
        <ele>27.53</ele>
        <time>2016-06-19T06:37:47Z</time>
      </trkpt>
      <trkpt lat="43.65427" lon="4.00133">
        <ele>27.53</ele>
        <time>2016-06-19T06:37:48Z</time>
      </trkpt>
      <trkpt lat="43.65443" lon="4.0014">
        <ele>28.5</ele>
        <time>2016-06-19T06:37:49Z</time>
      </trkpt>
      <trkpt lat="43.65457" lon="4.0014">
        <ele>28.02</ele>
        <time>2016-06-19T06:37:50Z</time>
      </trkpt>
      <trkpt lat="43.65474" lon="4.00137">
        <ele>28.5</ele>
        <time>2016-06-19T06:37:51Z</time>
      </trkpt>
      <trkpt lat="43.65489" lon="4.0013">
        <ele>28.5</ele>
        <time>2016-06-19T06:37:52Z</time>
      </trkpt>
      <trkpt lat="43.65501" lon="4.00119">
        <ele>28.5</ele>
        <time>2016-06-19T06:37:53Z</time>
      </trkpt>
      <trkpt lat="43.6551" lon="4.00105">
        <ele>28.5</ele>
        <time>2016-06-19T06:37:54Z</time>
      </trkpt>
      <trkpt lat="43.65515" lon="4.00089">
        <ele>28.5</ele>
        <time>2016-06-19T06:37:55Z</time>
      </trkpt>
      <trkpt lat="43.65518" lon="4.00073">
        <ele>28.98</ele>
        <time>2016-06-19T06:37:56Z</time>
      </trkpt>
      <trkpt lat="43.6552" lon="4.00058">
        <ele>28.98</ele>
        <time>2016-06-19T06:37:57Z</time>
      </trkpt>
      <trkpt lat="43.65523" lon="4.00043">
        <ele>28.98</ele>
        <time>2016-06-19T06:37:58Z</time>
      </trkpt>
      <trkpt lat="43.65529" lon="4.00032">
        <ele>29.94</ele>
        <time>2016-06-19T06:37:59Z</time>
      </trkpt>
      <trkpt lat="43.65535" lon="4.00023">
        <ele>30.42</ele>
        <time>2016-06-19T06:38:00Z</time>
      </trkpt>
      <trkpt lat="43.65541" lon="4.00018">
        <ele>30.42</ele>
        <time>2016-06-19T06:38:01Z</time>
      </trkpt>
      <trkpt lat="43.65545" lon="4.00012">
        <ele>30.9</ele>
        <time>2016-06-19T06:38:02Z</time>
      </trkpt>
      <trkpt lat="43.65546" lon="4.00006">
        <ele>30.42</ele>
        <time>2016-06-19T06:38:03Z</time>
      </trkpt>
      <trkpt lat="43.65541" lon="3.99999">
        <ele>30.42</ele>
        <time>2016-06-19T06:38:05Z</time>
      </trkpt>
      <trkpt lat="43.65535" lon="4">
        <ele>30.9</ele>
        <time>2016-06-19T06:38:06Z</time>
      </trkpt>
      <trkpt lat="43.6553" lon="4.00003">
        <ele>30.9</ele>
        <time>2016-06-19T06:38:07Z</time>
      </trkpt>
      <trkpt lat="43.65526" lon="4.00005">
        <ele>31.38</ele>
        <time>2016-06-19T06:38:08Z</time>
      </trkpt>
      <trkpt lat="43.65522" lon="4.00005">
        <ele>31.38</ele>
        <time>2016-06-19T06:38:09Z</time>
      </trkpt>
      <trkpt lat="43.6552" lon="4.00003">
        <ele>31.38</ele>
        <time>2016-06-19T06:38:10Z</time>
      </trkpt>
      <trkpt lat="43.6552" lon="4.00002">
        <ele>30.9</ele>
        <time>2016-06-19T06:38:11Z</time>
      </trkpt>
      <trkpt lat="43.65518" lon="4.00001">
        <ele>26.57</ele>
        <time>2016-06-19T06:38:26Z</time>
      </trkpt>
      <trkpt lat="43.65517" lon="4.00003">
        <ele>41.47</ele>
        <time>2016-06-19T06:40:43Z</time>
      </trkpt>
      <trkpt lat="43.65516" lon="4.00002">
        <ele>35.71</ele>
        <time>2016-06-19T06:41:37Z</time>
      </trkpt>
      <trkpt lat="43.65515" lon="3.99999">
        <ele>29.94</ele>
        <time>2016-06-19T06:41:42Z</time>
      </trkpt>
      <trkpt lat="43.65537" lon="3.99975">
        <ele>31.38</ele>
        <time>2016-06-19T06:41:51Z</time>
      </trkpt>
      <trkpt lat="43.65545" lon="3.99969">
        <ele>30.9</ele>
        <time>2016-06-19T06:41:54Z</time>
      </trkpt>
      <trkpt lat="43.65548" lon="3.99959">
        <ele>32.34</ele>
        <time>2016-06-19T06:42:03Z</time>
      </trkpt>
      <trkpt lat="43.65549" lon="3.99958">
        <ele>37.63</ele>
        <time>2016-06-19T06:43:51Z</time>
      </trkpt>
      <trkpt lat="43.65548" lon="3.99958">
        <ele>35.23</ele>
        <time>2016-06-19T07:01:34Z</time>
      </trkpt>
      <trkpt lat="43.65549" lon="3.99957">
        <ele>35.71</ele>
        <time>2016-06-19T07:02:10Z</time>
      </trkpt>
      <trkpt lat="43.6554" lon="3.99945">
        <ele>35.23</ele>
        <time>2016-06-19T07:02:17Z</time>
      </trkpt>
      <trkpt lat="43.65533" lon="3.99951">
        <ele>34.74</ele>
        <time>2016-06-19T07:02:20Z</time>
      </trkpt>
      <trkpt lat="43.65527" lon="3.99957">
        <ele>34.74</ele>
        <time>2016-06-19T07:02:36Z</time>
      </trkpt>
      <trkpt lat="43.65526" lon="3.99958">
        <ele>35.71</ele>
        <time>2016-06-19T07:02:46Z</time>
      </trkpt>
      <trkpt lat="43.65528" lon="3.99976">
        <ele>35.71</ele>
        <time>2016-06-19T07:02:51Z</time>
      </trkpt>
      <trkpt lat="43.6554" lon="4.0001">
        <ele>35.23</ele>
        <time>2016-06-19T07:02:58Z</time>
      </trkpt>
      <trkpt lat="43.65537" lon="4.00017">
        <ele>35.23</ele>
        <time>2016-06-19T07:03:00Z</time>
      </trkpt>
      <trkpt lat="43.65533" lon="4.00021">
        <ele>34.74</ele>
        <time>2016-06-19T07:03:01Z</time>
      </trkpt>
      <trkpt lat="43.65524" lon="4.00028">
        <ele>34.74</ele>
        <time>2016-06-19T07:03:03Z</time>
      </trkpt>
      <trkpt lat="43.6552" lon="4.00031">
        <ele>34.74</ele>
        <time>2016-06-19T07:03:04Z</time>
      </trkpt>
      <trkpt lat="43.65516" lon="4.00032">
        <ele>34.74</ele>
        <time>2016-06-19T07:03:05Z</time>
      </trkpt>
      <trkpt lat="43.65513" lon="4.00032">
        <ele>35.23</ele>
        <time>2016-06-19T07:03:06Z</time>
      </trkpt>
      <trkpt lat="43.65511" lon="4.00032">
        <ele>35.23</ele>
        <time>2016-06-19T07:03:07Z</time>
      </trkpt>
      <trkpt lat="43.65509" lon="4.00032">
        <ele>34.74</ele>
        <time>2016-06-19T07:03:22Z</time>
      </trkpt>
      <trkpt lat="43.65506" lon="4.00031">
        <ele>34.74</ele>
        <time>2016-06-19T07:03:23Z</time>
      </trkpt>
      <trkpt lat="43.655" lon="4.00027">
        <ele>35.23</ele>
        <time>2016-06-19T07:03:24Z</time>
      </trkpt>
      <trkpt lat="43.65478" lon="4.0001">
        <ele>35.71</ele>
        <time>2016-06-19T07:03:27Z</time>
      </trkpt>
      <trkpt lat="43.65472" lon="4.00003">
        <ele>35.71</ele>
        <time>2016-06-19T07:03:28Z</time>
      </trkpt>
      <trkpt lat="43.65462" lon="3.99981">
        <ele>36.19</ele>
        <time>2016-06-19T07:03:30Z</time>
      </trkpt>
      <trkpt lat="43.6546" lon="3.99966">
        <ele>36.19</ele>
        <time>2016-06-19T07:03:31Z</time>
      </trkpt>
      <trkpt lat="43.65459" lon="3.9995">
        <ele>36.19</ele>
        <time>2016-06-19T07:03:32Z</time>
      </trkpt>
      <trkpt lat="43.6544" lon="3.99784">
        <ele>39.55</ele>
        <time>2016-06-19T07:03:40Z</time>
      </trkpt>
      <trkpt lat="43.65412" lon="3.99575">
        <ele>43.88</ele>
        <time>2016-06-19T07:03:50Z</time>
      </trkpt>
      <trkpt lat="43.65412" lon="3.99559">
        <ele>44.36</ele>
        <time>2016-06-19T07:03:51Z</time>
      </trkpt>
      <trkpt lat="43.65415" lon="3.99545">
        <ele>44.84</ele>
        <time>2016-06-19T07:03:52Z</time>
      </trkpt>
      <trkpt lat="43.6542" lon="3.99533">
        <ele>44.84</ele>
        <time>2016-06-19T07:03:53Z</time>
      </trkpt>
      <trkpt lat="43.65425" lon="3.99522">
        <ele>44.84</ele>
        <time>2016-06-19T07:03:54Z</time>
      </trkpt>
      <trkpt lat="43.65426" lon="3.9951">
        <ele>44.84</ele>
        <time>2016-06-19T07:03:55Z</time>
      </trkpt>
      <trkpt lat="43.65424" lon="3.99499">
        <ele>44.84</ele>
        <time>2016-06-19T07:03:56Z</time>
      </trkpt>
      <trkpt lat="43.65419" lon="3.99491">
        <ele>44.84</ele>
        <time>2016-06-19T07:03:57Z</time>
      </trkpt>
      <trkpt lat="43.65411" lon="3.99485">
        <ele>44.36</ele>
        <time>2016-06-19T07:03:58Z</time>
      </trkpt>
      <trkpt lat="43.654" lon="3.99485">
        <ele>44.36</ele>
        <time>2016-06-19T07:03:59Z</time>
      </trkpt>
      <trkpt lat="43.65391" lon="3.99487">
        <ele>44.36</ele>
        <time>2016-06-19T07:04:00Z</time>
      </trkpt>
      <trkpt lat="43.65381" lon="3.99487">
        <ele>43.88</ele>
        <time>2016-06-19T07:04:01Z</time>
      </trkpt>
      <trkpt lat="43.65371" lon="3.99483">
        <ele>43.4</ele>
        <time>2016-06-19T07:04:02Z</time>
      </trkpt>
      <trkpt lat="43.65363" lon="3.99474">
        <ele>42.92</ele>
        <time>2016-06-19T07:04:03Z</time>
      </trkpt>
      <trkpt lat="43.65354" lon="3.99462">
        <ele>42.44</ele>
        <time>2016-06-19T07:04:04Z</time>
      </trkpt>
      <trkpt lat="43.65348" lon="3.99448">
        <ele>42.44</ele>
        <time>2016-06-19T07:04:05Z</time>
      </trkpt>
      <trkpt lat="43.65345" lon="3.99431">
        <ele>41.47</ele>
        <time>2016-06-19T07:04:06Z</time>
      </trkpt>
      <trkpt lat="43.65344" lon="3.99413">
        <ele>40.99</ele>
        <time>2016-06-19T07:04:07Z</time>
      </trkpt>
      <trkpt lat="43.65343" lon="3.99393">
        <ele>40.51</ele>
        <time>2016-06-19T07:04:08Z</time>
      </trkpt>
      <trkpt lat="43.65343" lon="3.99315">
        <ele>38.59</ele>
        <time>2016-06-19T07:04:12Z</time>
      </trkpt>
      <trkpt lat="43.65347" lon="3.99296">
        <ele>38.11</ele>
        <time>2016-06-19T07:04:13Z</time>
      </trkpt>
      <trkpt lat="43.65355" lon="3.99281">
        <ele>38.11</ele>
        <time>2016-06-19T07:04:14Z</time>
      </trkpt>
      <trkpt lat="43.65366" lon="3.99271">
        <ele>37.63</ele>
        <time>2016-06-19T07:04:15Z</time>
      </trkpt>
      <trkpt lat="43.65378" lon="3.99266">
        <ele>37.63</ele>
        <time>2016-06-19T07:04:16Z</time>
      </trkpt>
      <trkpt lat="43.65392" lon="3.99266">
        <ele>37.15</ele>
        <time>2016-06-19T07:04:17Z</time>
      </trkpt>
      <trkpt lat="43.65409" lon="3.99279">
        <ele>36.67</ele>
        <time>2016-06-19T07:04:18Z</time>
      </trkpt>
      <trkpt lat="43.65423" lon="3.99295">
        <ele>37.15</ele>
        <time>2016-06-19T07:04:19Z</time>
      </trkpt>
      <trkpt lat="43.65437" lon="3.99312">
        <ele>36.67</ele>
        <time>2016-06-19T07:04:20Z</time>
      </trkpt>
      <trkpt lat="43.6545" lon="3.9933">
        <ele>36.19</ele>
        <time>2016-06-19T07:04:21Z</time>
      </trkpt>
      <trkpt lat="43.65463" lon="3.99349">
        <ele>35.71</ele>
        <time>2016-06-19T07:04:22Z</time>
      </trkpt>
      <trkpt lat="43.65537" lon="3.99467">
        <ele>38.11</ele>
        <time>2016-06-19T07:04:29Z</time>
      </trkpt>
      <trkpt lat="43.6562" lon="3.99585">
        <ele>39.55</ele>
        <time>2016-06-19T07:04:35Z</time>
      </trkpt>
      <trkpt lat="43.6584" lon="3.99864">
        <ele>41.95</ele>
        <time>2016-06-19T07:04:49Z</time>
      </trkpt>
      <trkpt lat="43.66071" lon="4.00107">
        <ele>43.4</ele>
        <time>2016-06-19T07:05:01Z</time>
      </trkpt>
      <trkpt lat="43.66428" lon="4.00479">
        <ele>42.44</ele>
        <time>2016-06-19T07:05:19Z</time>
      </trkpt>
      <trkpt lat="43.66703" lon="4.0078">
        <ele>40.51</ele>
        <time>2016-06-19T07:05:33Z</time>
      </trkpt>
      <trkpt lat="43.66942" lon="4.01092">
        <ele>39.55</ele>
        <time>2016-06-19T07:05:46Z</time>
      </trkpt>
      <trkpt lat="43.67124" lon="4.01405">
        <ele>38.11</ele>
        <time>2016-06-19T07:05:58Z</time>
      </trkpt>
      <trkpt lat="43.67344" lon="4.01884">
        <ele>36.19</ele>
        <time>2016-06-19T07:06:15Z</time>
      </trkpt>
      <trkpt lat="43.67503" lon="4.0237">
        <ele>35.23</ele>
        <time>2016-06-19T07:06:31Z</time>
      </trkpt>
      <trkpt lat="43.67675" lon="4.02937">
        <ele>34.74</ele>
        <time>2016-06-19T07:06:49Z</time>
      </trkpt>
      <trkpt lat="43.6787" lon="4.03562">
        <ele>35.71</ele>
        <time>2016-06-19T07:07:08Z</time>
      </trkpt>
      <trkpt lat="43.67991" lon="4.0391">
        <ele>36.19</ele>
        <time>2016-06-19T07:07:18Z</time>
      </trkpt>
      <trkpt lat="43.68174" lon="4.04313">
        <ele>37.63</ele>
        <time>2016-06-19T07:07:30Z</time>
      </trkpt>
      <trkpt lat="43.68395" lon="4.04735">
        <ele>39.07</ele>
        <time>2016-06-19T07:07:43Z</time>
      </trkpt>
      <trkpt lat="43.68636" lon="4.05249">
        <ele>40.51</ele>
        <time>2016-06-19T07:07:58Z</time>
      </trkpt>
      <trkpt lat="43.68804" lon="4.05737">
        <ele>38.11</ele>
        <time>2016-06-19T07:08:11Z</time>
      </trkpt>
      <trkpt lat="43.68921" lon="4.06247">
        <ele>36.19</ele>
        <time>2016-06-19T07:08:24Z</time>
      </trkpt>
      <trkpt lat="43.69051" lon="4.06963">
        <ele>32.82</ele>
        <time>2016-06-19T07:08:42Z</time>
      </trkpt>
      <trkpt lat="43.69167" lon="4.07432">
        <ele>33.3</ele>
        <time>2016-06-19T07:08:54Z</time>
      </trkpt>
      <trkpt lat="43.69339" lon="4.07994">
        <ele>34.74</ele>
        <time>2016-06-19T07:09:09Z</time>
      </trkpt>
      <trkpt lat="43.69575" lon="4.08787">
        <ele>31.86</ele>
        <time>2016-06-19T07:09:30Z</time>
      </trkpt>
      <trkpt lat="43.69647" lon="4.09185">
        <ele>29.94</ele>
        <time>2016-06-19T07:09:40Z</time>
      </trkpt>
      <trkpt lat="43.69668" lon="4.09454">
        <ele>29.94</ele>
        <time>2016-06-19T07:09:47Z</time>
      </trkpt>
      <trkpt lat="43.69696" lon="4.10088">
        <ele>34.74</ele>
        <time>2016-06-19T07:10:03Z</time>
      </trkpt>
      <trkpt lat="43.69749" lon="4.10488">
        <ele>38.11</ele>
        <time>2016-06-19T07:10:14Z</time>
      </trkpt>
      <trkpt lat="43.69848" lon="4.10861">
        <ele>39.55</ele>
        <time>2016-06-19T07:10:25Z</time>
      </trkpt>
      <trkpt lat="43.69982" lon="4.11186">
        <ele>40.99</ele>
        <time>2016-06-19T07:10:35Z</time>
      </trkpt>
      <trkpt lat="43.70155" lon="4.11485">
        <ele>42.92</ele>
        <time>2016-06-19T07:10:45Z</time>
      </trkpt>
      <trkpt lat="43.70383" lon="4.11797">
        <ele>44.84</ele>
        <time>2016-06-19T07:10:56Z</time>
      </trkpt>
      <trkpt lat="43.70526" lon="4.1198">
        <ele>45.8</ele>
        <time>2016-06-19T07:11:03Z</time>
      </trkpt>
      <trkpt lat="43.70731" lon="4.12259">
        <ele>48.2</ele>
        <time>2016-06-19T07:11:13Z</time>
      </trkpt>
      <trkpt lat="43.70969" lon="4.12627">
        <ele>47.72</ele>
        <time>2016-06-19T07:11:26Z</time>
      </trkpt>
      <trkpt lat="43.71133" lon="4.1291">
        <ele>44.84</ele>
        <time>2016-06-19T07:11:37Z</time>
      </trkpt>
      <trkpt lat="43.71211" lon="4.13066">
        <ele>43.88</ele>
        <time>2016-06-19T07:11:45Z</time>
      </trkpt>
      <trkpt lat="43.7127" lon="4.13166">
        <ele>43.4</ele>
        <time>2016-06-19T07:11:53Z</time>
      </trkpt>
      <trkpt lat="43.71275" lon="4.13174">
        <ele>43.4</ele>
        <time>2016-06-19T07:11:54Z</time>
      </trkpt>
      <trkpt lat="43.71277" lon="4.13182">
        <ele>42.92</ele>
        <time>2016-06-19T07:11:55Z</time>
      </trkpt>
      <trkpt lat="43.71278" lon="4.1319">
        <ele>42.44</ele>
        <time>2016-06-19T07:11:56Z</time>
      </trkpt>
      <trkpt lat="43.71277" lon="4.13198">
        <ele>42.44</ele>
        <time>2016-06-19T07:11:57Z</time>
      </trkpt>
      <trkpt lat="43.71276" lon="4.13207">
        <ele>42.44</ele>
        <time>2016-06-19T07:11:58Z</time>
      </trkpt>
      <trkpt lat="43.71273" lon="4.13231">
        <ele>41.95</ele>
        <time>2016-06-19T07:12:01Z</time>
      </trkpt>
      <trkpt lat="43.71271" lon="4.13237">
        <ele>41.47</ele>
        <time>2016-06-19T07:12:02Z</time>
      </trkpt>
      <trkpt lat="43.71269" lon="4.13242">
        <ele>41.47</ele>
        <time>2016-06-19T07:12:03Z</time>
      </trkpt>
      <trkpt lat="43.71269" lon="4.13248">
        <ele>41.47</ele>
        <time>2016-06-19T07:12:04Z</time>
      </trkpt>
      <trkpt lat="43.7127" lon="4.13254">
        <ele>41.47</ele>
        <time>2016-06-19T07:12:05Z</time>
      </trkpt>
      <trkpt lat="43.71272" lon="4.1326">
        <ele>41.47</ele>
        <time>2016-06-19T07:12:06Z</time>
      </trkpt>
      <trkpt lat="43.71275" lon="4.13265">
        <ele>41.47</ele>
        <time>2016-06-19T07:12:07Z</time>
      </trkpt>
      <trkpt lat="43.71278" lon="4.1327">
        <ele>41.47</ele>
        <time>2016-06-19T07:12:08Z</time>
      </trkpt>
      <trkpt lat="43.7128" lon="4.13274">
        <ele>41.95</ele>
        <time>2016-06-19T07:12:09Z</time>
      </trkpt>
      <trkpt lat="43.71286" lon="4.13283">
        <ele>44.36</ele>
        <time>2016-06-19T07:12:17Z</time>
      </trkpt>
      <trkpt lat="43.71284" lon="4.1328">
        <ele>45.32</ele>
        <time>2016-06-19T07:12:54Z</time>
      </trkpt>
      <trkpt lat="43.71281" lon="4.13275">
        <ele>31.86</ele>
        <time>2016-06-19T07:30:57Z</time>
      </trkpt>
      <trkpt lat="43.71285" lon="4.13276">
        <ele>46.28</ele>
        <time>2016-06-19T07:32:49Z</time>
      </trkpt>
      <trkpt lat="43.71302" lon="4.13276">
        <ele>44.84</ele>
        <time>2016-06-19T07:32:56Z</time>
      </trkpt>
      <trkpt lat="43.71312" lon="4.1327">
        <ele>43.88</ele>
        <time>2016-06-19T07:32:59Z</time>
      </trkpt>
      <trkpt lat="43.71317" lon="4.13274">
        <ele>43.88</ele>
        <time>2016-06-19T07:33:00Z</time>
      </trkpt>
      <trkpt lat="43.71321" lon="4.1328">
        <ele>43.4</ele>
        <time>2016-06-19T07:33:01Z</time>
      </trkpt>
      <trkpt lat="43.7135" lon="4.13332">
        <ele>40.99</ele>
        <time>2016-06-19T07:33:08Z</time>
      </trkpt>
      <trkpt lat="43.71354" lon="4.13341">
        <ele>40.51</ele>
        <time>2016-06-19T07:33:09Z</time>
      </trkpt>
      <trkpt lat="43.71355" lon="4.13351">
        <ele>40.51</ele>
        <time>2016-06-19T07:33:10Z</time>
      </trkpt>
      <trkpt lat="43.71355" lon="4.13361">
        <ele>40.03</ele>
        <time>2016-06-19T07:33:11Z</time>
      </trkpt>
      <trkpt lat="43.71355" lon="4.13371">
        <ele>40.03</ele>
        <time>2016-06-19T07:33:12Z</time>
      </trkpt>
      <trkpt lat="43.71356" lon="4.13381">
        <ele>40.03</ele>
        <time>2016-06-19T07:33:13Z</time>
      </trkpt>
      <trkpt lat="43.7136" lon="4.1339">
        <ele>39.55</ele>
        <time>2016-06-19T07:33:14Z</time>
      </trkpt>
      <trkpt lat="43.71367" lon="4.13396">
        <ele>39.55</ele>
        <time>2016-06-19T07:33:15Z</time>
      </trkpt>
      <trkpt lat="43.71375" lon="4.13398">
        <ele>39.55</ele>
        <time>2016-06-19T07:33:16Z</time>
      </trkpt>
      <trkpt lat="43.71384" lon="4.134">
        <ele>39.55</ele>
        <time>2016-06-19T07:33:17Z</time>
      </trkpt>
      <trkpt lat="43.71394" lon="4.13402">
        <ele>39.55</ele>
        <time>2016-06-19T07:33:18Z</time>
      </trkpt>
      <trkpt lat="43.71404" lon="4.13405">
        <ele>39.55</ele>
        <time>2016-06-19T07:33:19Z</time>
      </trkpt>
      <trkpt lat="43.71413" lon="4.1341">
        <ele>39.55</ele>
        <time>2016-06-19T07:33:20Z</time>
      </trkpt>
      <trkpt lat="43.71422" lon="4.13416">
        <ele>39.07</ele>
        <time>2016-06-19T07:33:21Z</time>
      </trkpt>
      <trkpt lat="43.71431" lon="4.13424">
        <ele>39.07</ele>
        <time>2016-06-19T07:33:22Z</time>
      </trkpt>
      <trkpt lat="43.71439" lon="4.13432">
        <ele>38.59</ele>
        <time>2016-06-19T07:33:23Z</time>
      </trkpt>
      <trkpt lat="43.71536" lon="4.13552">
        <ele>33.78</ele>
        <time>2016-06-19T07:33:33Z</time>
      </trkpt>
      <trkpt lat="43.71621" lon="4.13685">
        <ele>30.42</ele>
        <time>2016-06-19T07:33:39Z</time>
      </trkpt>
      <trkpt lat="43.71837" lon="4.14039">
        <ele>24.65</ele>
        <time>2016-06-19T07:33:53Z</time>
      </trkpt>
      <trkpt lat="43.72047" lon="4.14398">
        <ele>23.21</ele>
        <time>2016-06-19T07:34:05Z</time>
      </trkpt>
      <trkpt lat="43.72216" lon="4.14774">
        <ele>22.73</ele>
        <time>2016-06-19T07:34:16Z</time>
      </trkpt>
      <trkpt lat="43.72333" lon="4.15157">
        <ele>22.73</ele>
        <time>2016-06-19T07:34:26Z</time>
      </trkpt>
      <trkpt lat="43.72404" lon="4.15555">
        <ele>23.21</ele>
        <time>2016-06-19T07:34:36Z</time>
      </trkpt>
      <trkpt lat="43.72436" lon="4.15984">
        <ele>24.17</ele>
        <time>2016-06-19T07:34:47Z</time>
      </trkpt>
      <trkpt lat="43.72436" lon="4.16459">
        <ele>29.94</ele>
        <time>2016-06-19T07:34:59Z</time>
      </trkpt>
      <trkpt lat="43.72459" lon="4.169">
        <ele>41.47</ele>
        <time>2016-06-19T07:35:11Z</time>
      </trkpt>
      <trkpt lat="43.72514" lon="4.17431">
        <ele>44.36</ele>
        <time>2016-06-19T07:35:25Z</time>
      </trkpt>
      <trkpt lat="43.72588" lon="4.17851">
        <ele>39.55</ele>
        <time>2016-06-19T07:35:37Z</time>
      </trkpt>
      <trkpt lat="43.72613" lon="4.17975">
        <ele>37.63</ele>
        <time>2016-06-19T07:35:42Z</time>
      </trkpt>
      <trkpt lat="43.72615" lon="4.17995">
        <ele>37.63</ele>
        <time>2016-06-19T07:35:43Z</time>
      </trkpt>
      <trkpt lat="43.72615" lon="4.18014">
        <ele>37.63</ele>
        <time>2016-06-19T07:35:44Z</time>
      </trkpt>
      <trkpt lat="43.72613" lon="4.18032">
        <ele>37.63</ele>
        <time>2016-06-19T07:35:45Z</time>
      </trkpt>
      <trkpt lat="43.72612" lon="4.18049">
        <ele>37.15</ele>
        <time>2016-06-19T07:35:46Z</time>
      </trkpt>
      <trkpt lat="43.7261" lon="4.18119">
        <ele>35.23</ele>
        <time>2016-06-19T07:35:52Z</time>
      </trkpt>
      <trkpt lat="43.72609" lon="4.18134">
        <ele>34.26</ele>
        <time>2016-06-19T07:36:01Z</time>
      </trkpt>
      <trkpt lat="43.72611" lon="4.18157">
        <ele>33.78</ele>
        <time>2016-06-19T07:36:10Z</time>
      </trkpt>
      <trkpt lat="43.7261" lon="4.1818">
        <ele>31.38</ele>
        <time>2016-06-19T07:36:22Z</time>
      </trkpt>
      <trkpt lat="43.72612" lon="4.18196">
        <ele>31.86</ele>
        <time>2016-06-19T07:36:24Z</time>
      </trkpt>
      <trkpt lat="43.72614" lon="4.18201">
        <ele>31.86</ele>
        <time>2016-06-19T07:36:25Z</time>
      </trkpt>
      <trkpt lat="43.72619" lon="4.18219">
        <ele>31.86</ele>
        <time>2016-06-19T07:36:28Z</time>
      </trkpt>
      <trkpt lat="43.72622" lon="4.18234">
        <ele>31.86</ele>
        <time>2016-06-19T07:36:30Z</time>
      </trkpt>
      <trkpt lat="43.72624" lon="4.1824">
        <ele>31.86</ele>
        <time>2016-06-19T07:36:31Z</time>
      </trkpt>
      <trkpt lat="43.72628" lon="4.1825">
        <ele>32.34</ele>
        <time>2016-06-19T07:36:39Z</time>
      </trkpt>
      <trkpt lat="43.7263" lon="4.18247">
        <ele>38.59</ele>
        <time>2016-06-19T07:39:41Z</time>
      </trkpt>
      <trkpt lat="43.72634" lon="4.18253">
        <ele>37.63</ele>
        <time>2016-06-19T07:39:46Z</time>
      </trkpt>
      <trkpt lat="43.72637" lon="4.1826">
        <ele>37.15</ele>
        <time>2016-06-19T07:39:47Z</time>
      </trkpt>
      <trkpt lat="43.72662" lon="4.18325">
        <ele>36.19</ele>
        <time>2016-06-19T07:39:52Z</time>
      </trkpt>
      <trkpt lat="43.72741" lon="4.18488">
        <ele>33.78</ele>
        <time>2016-06-19T07:40:00Z</time>
      </trkpt>
      <trkpt lat="43.72861" lon="4.18731">
        <ele>28.5</ele>
        <time>2016-06-19T07:40:09Z</time>
      </trkpt>
      <trkpt lat="43.73002" lon="4.18963">
        <ele>29.94</ele>
        <time>2016-06-19T07:40:17Z</time>
      </trkpt>
      <trkpt lat="43.73189" lon="4.19176">
        <ele>37.15</ele>
        <time>2016-06-19T07:40:26Z</time>
      </trkpt>
      <trkpt lat="43.73388" lon="4.19328">
        <ele>46.28</ele>
        <time>2016-06-19T07:40:35Z</time>
      </trkpt>
      <trkpt lat="43.73601" lon="4.19429">
        <ele>53.49</ele>
        <time>2016-06-19T07:40:43Z</time>
      </trkpt>
      <trkpt lat="43.73964" lon="4.19593">
        <ele>58.78</ele>
        <time>2016-06-19T07:40:56Z</time>
      </trkpt>
      <trkpt lat="43.74223" lon="4.19784">
        <ele>60.22</ele>
        <time>2016-06-19T07:41:06Z</time>
      </trkpt>
      <trkpt lat="43.74477" lon="4.20046">
        <ele>55.41</ele>
        <time>2016-06-19T07:41:17Z</time>
      </trkpt>
      <trkpt lat="43.74679" lon="4.20337">
        <ele>44.84</ele>
        <time>2016-06-19T07:41:27Z</time>
      </trkpt>
      <trkpt lat="43.7485" lon="4.20676">
        <ele>34.74</ele>
        <time>2016-06-19T07:41:37Z</time>
      </trkpt>
      <trkpt lat="43.74993" lon="4.21071">
        <ele>32.34</ele>
        <time>2016-06-19T07:41:48Z</time>
      </trkpt>
      <trkpt lat="43.75076" lon="4.21469">
        <ele>37.63</ele>
        <time>2016-06-19T07:41:58Z</time>
      </trkpt>
      <trkpt lat="43.7511" lon="4.21859">
        <ele>43.88</ele>
        <time>2016-06-19T07:42:07Z</time>
      </trkpt>
      <trkpt lat="43.75096" lon="4.22242">
        <ele>45.8</ele>
        <time>2016-06-19T07:42:16Z</time>
      </trkpt>
      <trkpt lat="43.75027" lon="4.22779">
        <ele>46.76</ele>
        <time>2016-06-19T07:42:29Z</time>
      </trkpt>
      <trkpt lat="43.74915" lon="4.23591">
        <ele>44.84</ele>
        <time>2016-06-19T07:42:49Z</time>
      </trkpt>
      <trkpt lat="43.74831" lon="4.24229">
        <ele>39.55</ele>
        <time>2016-06-19T07:43:05Z</time>
      </trkpt>
      <trkpt lat="43.74824" lon="4.24551">
        <ele>38.11</ele>
        <time>2016-06-19T07:43:13Z</time>
      </trkpt>
      <trkpt lat="43.74863" lon="4.24863">
        <ele>37.63</ele>
        <time>2016-06-19T07:43:21Z</time>
      </trkpt>
      <trkpt lat="43.74958" lon="4.2519">
        <ele>37.15</ele>
        <time>2016-06-19T07:43:30Z</time>
      </trkpt>
      <trkpt lat="43.75103" lon="4.25485">
        <ele>36.19</ele>
        <time>2016-06-19T07:43:39Z</time>
      </trkpt>
      <trkpt lat="43.7529" lon="4.25728">
        <ele>38.11</ele>
        <time>2016-06-19T07:43:48Z</time>
      </trkpt>
      <trkpt lat="43.75637" lon="4.26044">
        <ele>36.19</ele>
        <time>2016-06-19T07:44:03Z</time>
      </trkpt>
      <trkpt lat="43.75858" lon="4.26242">
        <ele>39.07</ele>
        <time>2016-06-19T07:44:13Z</time>
      </trkpt>
      <trkpt lat="43.76156" lon="4.26499">
        <ele>47.24</ele>
        <time>2016-06-19T07:44:26Z</time>
      </trkpt>
      <trkpt lat="43.76445" lon="4.26686">
        <ele>49.65</ele>
        <time>2016-06-19T07:44:37Z</time>
      </trkpt>
      <trkpt lat="43.76642" lon="4.26859">
        <ele>47.24</ele>
        <time>2016-06-19T07:44:45Z</time>
      </trkpt>
      <trkpt lat="43.76813" lon="4.27087">
        <ele>41.95</ele>
        <time>2016-06-19T07:44:53Z</time>
      </trkpt>
      <trkpt lat="43.76943" lon="4.27358">
        <ele>37.15</ele>
        <time>2016-06-19T07:45:01Z</time>
      </trkpt>
      <trkpt lat="43.77064" lon="4.2767">
        <ele>34.26</ele>
        <time>2016-06-19T07:45:10Z</time>
      </trkpt>
      <trkpt lat="43.77243" lon="4.28034">
        <ele>34.26</ele>
        <time>2016-06-19T07:45:21Z</time>
      </trkpt>
      <trkpt lat="43.77447" lon="4.28343">
        <ele>35.23</ele>
        <time>2016-06-19T07:45:31Z</time>
      </trkpt>
      <trkpt lat="43.77674" lon="4.28593">
        <ele>36.67</ele>
        <time>2016-06-19T07:45:41Z</time>
      </trkpt>
      <trkpt lat="43.78024" lon="4.28909">
        <ele>40.51</ele>
        <time>2016-06-19T07:45:56Z</time>
      </trkpt>
      <trkpt lat="43.78267" lon="4.29181">
        <ele>37.15</ele>
        <time>2016-06-19T07:46:07Z</time>
      </trkpt>
      <trkpt lat="43.78481" lon="4.295">
        <ele>38.11</ele>
        <time>2016-06-19T07:46:18Z</time>
      </trkpt>
      <trkpt lat="43.78726" lon="4.2983">
        <ele>45.32</ele>
        <time>2016-06-19T07:46:30Z</time>
      </trkpt>
      <trkpt lat="43.79071" lon="4.30189">
        <ele>50.13</ele>
        <time>2016-06-19T07:46:45Z</time>
      </trkpt>
      <trkpt lat="43.79358" lon="4.30471">
        <ele>55.41</ele>
        <time>2016-06-19T07:46:57Z</time>
      </trkpt>
      <trkpt lat="43.7965" lon="4.30709">
        <ele>51.09</ele>
        <time>2016-06-19T07:47:09Z</time>
      </trkpt>
      <trkpt lat="43.79901" lon="4.30939">
        <ele>40.51</ele>
        <time>2016-06-19T07:47:20Z</time>
      </trkpt>
      <trkpt lat="43.80054" lon="4.31167">
        <ele>38.11</ele>
        <time>2016-06-19T07:47:28Z</time>
      </trkpt>
      <trkpt lat="43.80172" lon="4.31444">
        <ele>41.95</ele>
        <time>2016-06-19T07:47:36Z</time>
      </trkpt>
      <trkpt lat="43.80247" lon="4.3175">
        <ele>44.84</ele>
        <time>2016-06-19T07:47:44Z</time>
      </trkpt>
      <trkpt lat="43.80377" lon="4.32443">
        <ele>40.99</ele>
        <time>2016-06-19T07:48:02Z</time>
      </trkpt>
      <trkpt lat="43.80517" lon="4.33">
        <ele>37.15</ele>
        <time>2016-06-19T07:48:17Z</time>
      </trkpt>
      <trkpt lat="43.80686" lon="4.33517">
        <ele>37.15</ele>
        <time>2016-06-19T07:48:31Z</time>
      </trkpt>
      <trkpt lat="43.80886" lon="4.34108">
        <ele>39.07</ele>
        <time>2016-06-19T07:48:48Z</time>
      </trkpt>
      <trkpt lat="43.81038" lon="4.34659">
        <ele>40.03</ele>
        <time>2016-06-19T07:49:03Z</time>
      </trkpt>
      <trkpt lat="43.81174" lon="4.35193">
        <ele>39.55</ele>
        <time>2016-06-19T07:49:17Z</time>
      </trkpt>
      <trkpt lat="43.81382" lon="4.35954">
        <ele>42.92</ele>
        <time>2016-06-19T07:49:37Z</time>
      </trkpt>
      <trkpt lat="43.8152" lon="4.36396">
        <ele>43.4</ele>
        <time>2016-06-19T07:49:49Z</time>
      </trkpt>
      <trkpt lat="43.81764" lon="4.37063">
        <ele>43.88</ele>
        <time>2016-06-19T07:50:08Z</time>
      </trkpt>
      <trkpt lat="43.81977" lon="4.37568">
        <ele>45.32</ele>
        <time>2016-06-19T07:50:23Z</time>
      </trkpt>
      <trkpt lat="43.82259" lon="4.38159">
        <ele>44.36</ele>
        <time>2016-06-19T07:50:41Z</time>
      </trkpt>
      <trkpt lat="43.82572" lon="4.38754">
        <ele>42.44</ele>
        <time>2016-06-19T07:51:00Z</time>
      </trkpt>
      <trkpt lat="43.82863" lon="4.39299">
        <ele>40.99</ele>
        <time>2016-06-19T07:51:18Z</time>
      </trkpt>
      <trkpt lat="43.83056" lon="4.39681">
        <ele>41.95</ele>
        <time>2016-06-19T07:51:30Z</time>
      </trkpt>
      <trkpt lat="43.83267" lon="4.40132">
        <ele>43.4</ele>
        <time>2016-06-19T07:51:44Z</time>
      </trkpt>
      <trkpt lat="43.83536" lon="4.40732">
        <ele>48.2</ele>
        <time>2016-06-19T07:52:02Z</time>
      </trkpt>
      <trkpt lat="43.83718" lon="4.41037">
        <ele>50.13</ele>
        <time>2016-06-19T07:52:12Z</time>
      </trkpt>
      <trkpt lat="43.83932" lon="4.41303">
        <ele>52.05</ele>
        <time>2016-06-19T07:52:22Z</time>
      </trkpt>
      <trkpt lat="43.84173" lon="4.41505">
        <ele>58.3</ele>
        <time>2016-06-19T07:52:32Z</time>
      </trkpt>
      <trkpt lat="43.84476" lon="4.41683">
        <ele>63.1</ele>
        <time>2016-06-19T07:52:44Z</time>
      </trkpt>
      <trkpt lat="43.84869" lon="4.41921">
        <ele>57.34</ele>
        <time>2016-06-19T07:53:00Z</time>
      </trkpt>
      <trkpt lat="43.85143" lon="4.42165">
        <ele>55.41</ele>
        <time>2016-06-19T07:53:12Z</time>
      </trkpt>
      <trkpt lat="43.8549" lon="4.42481">
        <ele>54.45</ele>
        <time>2016-06-19T07:53:28Z</time>
      </trkpt>
      <trkpt lat="43.85803" lon="4.42767">
        <ele>53.49</ele>
        <time>2016-06-19T07:53:42Z</time>
      </trkpt>
      <trkpt lat="43.86241" lon="4.43168">
        <ele>53.97</ele>
        <time>2016-06-19T07:54:01Z</time>
      </trkpt>
      <trkpt lat="43.86651" lon="4.4355">
        <ele>59.74</ele>
        <time>2016-06-19T07:54:19Z</time>
      </trkpt>
      <trkpt lat="43.86905" lon="4.43846">
        <ele>63.58</ele>
        <time>2016-06-19T07:54:31Z</time>
      </trkpt>
      <trkpt lat="43.87124" lon="4.44189">
        <ele>66.95</ele>
        <time>2016-06-19T07:54:43Z</time>
      </trkpt>
      <trkpt lat="43.87296" lon="4.44538">
        <ele>69.35</ele>
        <time>2016-06-19T07:54:54Z</time>
      </trkpt>
      <trkpt lat="43.87502" lon="4.45041">
        <ele>70.79</ele>
        <time>2016-06-19T07:55:09Z</time>
      </trkpt>
      <trkpt lat="43.87729" lon="4.4558">
        <ele>72.72</ele>
        <time>2016-06-19T07:55:25Z</time>
      </trkpt>
      <trkpt lat="43.87927" lon="4.46108">
        <ele>74.16</ele>
        <time>2016-06-19T07:55:40Z</time>
      </trkpt>
      <trkpt lat="43.88013" lon="4.46492">
        <ele>76.56</ele>
        <time>2016-06-19T07:55:50Z</time>
      </trkpt>
      <trkpt lat="43.8806" lon="4.46934">
        <ele>81.85</ele>
        <time>2016-06-19T07:56:01Z</time>
      </trkpt>
      <trkpt lat="43.88096" lon="4.47542">
        <ele>86.66</ele>
        <time>2016-06-19T07:56:16Z</time>
      </trkpt>
      <trkpt lat="43.88156" lon="4.47949">
        <ele>87.62</ele>
        <time>2016-06-19T07:56:26Z</time>
      </trkpt>
      <trkpt lat="43.88269" lon="4.48466">
        <ele>89.54</ele>
        <time>2016-06-19T07:56:39Z</time>
      </trkpt>
      <trkpt lat="43.88391" lon="4.48881">
        <ele>90.5</ele>
        <time>2016-06-19T07:56:50Z</time>
      </trkpt>
      <trkpt lat="43.88572" lon="4.4939">
        <ele>92.42</ele>
        <time>2016-06-19T07:57:04Z</time>
      </trkpt>
      <trkpt lat="43.88804" lon="4.49917">
        <ele>94.35</ele>
        <time>2016-06-19T07:57:19Z</time>
      </trkpt>
      <trkpt lat="43.8901" lon="4.50303">
        <ele>96.27</ele>
        <time>2016-06-19T07:57:31Z</time>
      </trkpt>
      <trkpt lat="43.8928" lon="4.50726">
        <ele>97.23</ele>
        <time>2016-06-19T07:57:45Z</time>
      </trkpt>
      <trkpt lat="43.89587" lon="4.51146">
        <ele>97.23</ele>
        <time>2016-06-19T07:58:00Z</time>
      </trkpt>
      <trkpt lat="43.89772" lon="4.51452">
        <ele>95.79</ele>
        <time>2016-06-19T07:58:10Z</time>
      </trkpt>
      <trkpt lat="43.89918" lon="4.51796">
        <ele>94.35</ele>
        <time>2016-06-19T07:58:20Z</time>
      </trkpt>
      <trkpt lat="43.90032" lon="4.52196">
        <ele>93.39</ele>
        <time>2016-06-19T07:58:31Z</time>
      </trkpt>
      <trkpt lat="43.90114" lon="4.52661">
        <ele>95.31</ele>
        <time>2016-06-19T07:58:43Z</time>
      </trkpt>
      <trkpt lat="43.90187" lon="4.53277">
        <ele>94.83</ele>
        <time>2016-06-19T07:58:59Z</time>
      </trkpt>
      <trkpt lat="43.90276" lon="4.54054">
        <ele>88.58</ele>
        <time>2016-06-19T07:59:19Z</time>
      </trkpt>
      <trkpt lat="43.90342" lon="4.54618">
        <ele>83.29</ele>
        <time>2016-06-19T07:59:34Z</time>
      </trkpt>
      <trkpt lat="43.90435" lon="4.55169">
        <ele>70.79</ele>
        <time>2016-06-19T07:59:48Z</time>
      </trkpt>
      <trkpt lat="43.90523" lon="4.55505">
        <ele>60.7</ele>
        <time>2016-06-19T07:59:57Z</time>
      </trkpt>
      <trkpt lat="43.90676" lon="4.55935">
        <ele>47.24</ele>
        <time>2016-06-19T08:00:09Z</time>
      </trkpt>
      <trkpt lat="43.9089" lon="4.5639">
        <ele>40.03</ele>
        <time>2016-06-19T08:00:23Z</time>
      </trkpt>
      <trkpt lat="43.91154" lon="4.56831">
        <ele>35.23</ele>
        <time>2016-06-19T08:00:37Z</time>
      </trkpt>
      <trkpt lat="43.91469" lon="4.5726">
        <ele>31.38</ele>
        <time>2016-06-19T08:00:52Z</time>
      </trkpt>
      <trkpt lat="43.91766" lon="4.57647">
        <ele>31.38</ele>
        <time>2016-06-19T08:01:06Z</time>
      </trkpt>
      <trkpt lat="43.91913" lon="4.57877">
        <ele>31.86</ele>
        <time>2016-06-19T08:01:14Z</time>
      </trkpt>
      <trkpt lat="43.92156" lon="4.58263">
        <ele>32.34</ele>
        <time>2016-06-19T08:01:28Z</time>
      </trkpt>
      <trkpt lat="43.92453" lon="4.58729">
        <ele>35.71</ele>
        <time>2016-06-19T08:01:44Z</time>
      </trkpt>
      <trkpt lat="43.92557" lon="4.58893">
        <ele>38.11</ele>
        <time>2016-06-19T08:01:50Z</time>
      </trkpt>
      <trkpt lat="43.92825" lon="4.59303">
        <ele>43.4</ele>
        <time>2016-06-19T08:02:04Z</time>
      </trkpt>
      <trkpt lat="43.93055" lon="4.59574">
        <ele>48.68</ele>
        <time>2016-06-19T08:02:15Z</time>
      </trkpt>
      <trkpt lat="43.93289" lon="4.59832">
        <ele>53.01</ele>
        <time>2016-06-19T08:02:27Z</time>
      </trkpt>
      <trkpt lat="43.93303" lon="4.59856">
        <ele>53.49</ele>
        <time>2016-06-19T08:02:28Z</time>
      </trkpt>
      <trkpt lat="43.93311" lon="4.59881">
        <ele>53.49</ele>
        <time>2016-06-19T08:02:29Z</time>
      </trkpt>
      <trkpt lat="43.93314" lon="4.59908">
        <ele>53.49</ele>
        <time>2016-06-19T08:02:30Z</time>
      </trkpt>
      <trkpt lat="43.93315" lon="4.59937">
        <ele>53.97</ele>
        <time>2016-06-19T08:02:31Z</time>
      </trkpt>
      <trkpt lat="43.93314" lon="4.59962">
        <ele>54.93</ele>
        <time>2016-06-19T08:02:32Z</time>
      </trkpt>
      <trkpt lat="43.93314" lon="4.59987">
        <ele>55.41</ele>
        <time>2016-06-19T08:02:33Z</time>
      </trkpt>
      <trkpt lat="43.93316" lon="4.60009">
        <ele>55.89</ele>
        <time>2016-06-19T08:02:34Z</time>
      </trkpt>
      <trkpt lat="43.93322" lon="4.6003">
        <ele>56.86</ele>
        <time>2016-06-19T08:02:35Z</time>
      </trkpt>
      <trkpt lat="43.93331" lon="4.60049">
        <ele>57.34</ele>
        <time>2016-06-19T08:02:36Z</time>
      </trkpt>
      <trkpt lat="43.93345" lon="4.60064">
        <ele>57.82</ele>
        <time>2016-06-19T08:02:37Z</time>
      </trkpt>
      <trkpt lat="43.93363" lon="4.60074">
        <ele>58.78</ele>
        <time>2016-06-19T08:02:38Z</time>
      </trkpt>
      <trkpt lat="43.93383" lon="4.60078">
        <ele>59.74</ele>
        <time>2016-06-19T08:02:39Z</time>
      </trkpt>
      <trkpt lat="43.93404" lon="4.60075">
        <ele>61.18</ele>
        <time>2016-06-19T08:02:40Z</time>
      </trkpt>
      <trkpt lat="43.93425" lon="4.60064">
        <ele>62.14</ele>
        <time>2016-06-19T08:02:41Z</time>
      </trkpt>
      <trkpt lat="43.93442" lon="4.60053">
        <ele>63.1</ele>
        <time>2016-06-19T08:02:42Z</time>
      </trkpt>
      <trkpt lat="43.93458" lon="4.60041">
        <ele>63.58</ele>
        <time>2016-06-19T08:02:43Z</time>
      </trkpt>
      <trkpt lat="43.93472" lon="4.60031">
        <ele>64.07</ele>
        <time>2016-06-19T08:02:44Z</time>
      </trkpt>
      <trkpt lat="43.9366" lon="4.59912">
        <ele>59.74</ele>
        <time>2016-06-19T08:02:57Z</time>
      </trkpt>
      <trkpt lat="43.93732" lon="4.59866">
        <ele>58.78</ele>
        <time>2016-06-19T08:03:05Z</time>
      </trkpt>
      <trkpt lat="43.93745" lon="4.59859">
        <ele>59.26</ele>
        <time>2016-06-19T08:03:12Z</time>
      </trkpt>
      <trkpt lat="43.93749" lon="4.59859">
        <ele>59.74</ele>
        <time>2016-06-19T08:03:23Z</time>
      </trkpt>
      <trkpt lat="43.93757" lon="4.59856">
        <ele>55.89</ele>
        <time>2016-06-19T08:03:39Z</time>
      </trkpt>
      <trkpt lat="43.93773" lon="4.59845">
        <ele>56.86</ele>
        <time>2016-06-19T08:03:42Z</time>
      </trkpt>
      <trkpt lat="43.93778" lon="4.59844">
        <ele>56.86</ele>
        <time>2016-06-19T08:03:43Z</time>
      </trkpt>
      <trkpt lat="43.938" lon="4.59842">
        <ele>56.86</ele>
        <time>2016-06-19T08:03:46Z</time>
      </trkpt>
      <trkpt lat="43.93809" lon="4.59838">
        <ele>56.86</ele>
        <time>2016-06-19T08:03:47Z</time>
      </trkpt>
      <trkpt lat="43.93819" lon="4.59831">
        <ele>56.86</ele>
        <time>2016-06-19T08:03:48Z</time>
      </trkpt>
      <trkpt lat="43.93879" lon="4.59783">
        <ele>57.82</ele>
        <time>2016-06-19T08:03:55Z</time>
      </trkpt>
      <trkpt lat="43.93883" lon="4.5978">
        <ele>57.82</ele>
        <time>2016-06-19T08:03:56Z</time>
      </trkpt>
      <trkpt lat="43.93885" lon="4.59776">
        <ele>57.82</ele>
        <time>2016-06-19T08:03:57Z</time>
      </trkpt>
      <trkpt lat="43.93885" lon="4.59774">
        <ele>57.82</ele>
        <time>2016-06-19T08:03:58Z</time>
      </trkpt>
      <trkpt lat="43.93884" lon="4.59774">
        <ele>56.86</ele>
        <time>2016-06-19T08:04:15Z</time>
      </trkpt>
      <trkpt lat="43.93883" lon="4.59775">
        <ele>56.86</ele>
        <time>2016-06-19T08:04:31Z</time>
      </trkpt>
      <trkpt lat="43.93885" lon="4.59776">
        <ele>56.86</ele>
        <time>2016-06-19T08:10:04Z</time>
      </trkpt>
      <trkpt lat="43.93885" lon="4.59775">
        <ele>56.86</ele>
        <time>2016-06-19T08:10:10Z</time>
      </trkpt>
      <trkpt lat="43.9389" lon="4.59764">
        <ele>56.86</ele>
        <time>2016-06-19T08:10:13Z</time>
      </trkpt>
      <trkpt lat="43.93898" lon="4.59755">
        <ele>56.86</ele>
        <time>2016-06-19T08:10:14Z</time>
      </trkpt>
      <trkpt lat="43.93908" lon="4.59748">
        <ele>56.86</ele>
        <time>2016-06-19T08:10:15Z</time>
      </trkpt>
      <trkpt lat="43.93939" lon="4.59732">
        <ele>56.86</ele>
        <time>2016-06-19T08:10:18Z</time>
      </trkpt>
      <trkpt lat="43.93949" lon="4.59731">
        <ele>57.34</ele>
        <time>2016-06-19T08:10:19Z</time>
      </trkpt>
      <trkpt lat="43.93959" lon="4.59737">
        <ele>57.34</ele>
        <time>2016-06-19T08:10:20Z</time>
      </trkpt>
      <trkpt lat="43.9397" lon="4.59744">
        <ele>57.34</ele>
        <time>2016-06-19T08:10:21Z</time>
      </trkpt>
      <trkpt lat="43.9398" lon="4.59756">
        <ele>57.34</ele>
        <time>2016-06-19T08:10:22Z</time>
      </trkpt>
      <trkpt lat="43.93987" lon="4.59772">
        <ele>57.34</ele>
        <time>2016-06-19T08:10:23Z</time>
      </trkpt>
      <trkpt lat="43.9399" lon="4.59791">
        <ele>57.34</ele>
        <time>2016-06-19T08:10:24Z</time>
      </trkpt>
      <trkpt lat="43.93992" lon="4.59813">
        <ele>57.82</ele>
        <time>2016-06-19T08:10:25Z</time>
      </trkpt>
      <trkpt lat="43.93993" lon="4.59836">
        <ele>58.78</ele>
        <time>2016-06-19T08:10:26Z</time>
      </trkpt>
      <trkpt lat="43.94006" lon="4.60088">
        <ele>67.91</ele>
        <time>2016-06-19T08:10:36Z</time>
      </trkpt>
      <trkpt lat="43.94021" lon="4.60484">
        <ele>80.89</ele>
        <time>2016-06-19T08:10:50Z</time>
      </trkpt>
      <trkpt lat="43.94036" lon="4.60932">
        <ele>94.83</ele>
        <time>2016-06-19T08:11:04Z</time>
      </trkpt>
      <trkpt lat="43.94047" lon="4.6116">
        <ele>101.08</ele>
        <time>2016-06-19T08:11:12Z</time>
      </trkpt>
      <trkpt lat="43.94089" lon="4.61486">
        <ele>103.48</ele>
        <time>2016-06-19T08:11:24Z</time>
      </trkpt>
      <trkpt lat="43.94164" lon="4.61672">
        <ele>102.52</ele>
        <time>2016-06-19T08:11:31Z</time>
      </trkpt>
      <trkpt lat="43.94266" lon="4.61949">
        <ele>107.32</ele>
        <time>2016-06-19T08:11:40Z</time>
      </trkpt>
      <trkpt lat="43.94442" lon="4.62453">
        <ele>134.72</ele>
        <time>2016-06-19T08:11:56Z</time>
      </trkpt>
      <trkpt lat="43.94548" lon="4.62606">
        <ele>143.85</ele>
        <time>2016-06-19T08:12:02Z</time>
      </trkpt>
      <trkpt lat="43.9472" lon="4.62793">
        <ele>155.87</ele>
        <time>2016-06-19T08:12:11Z</time>
      </trkpt>
      <trkpt lat="43.94799" lon="4.62967">
        <ele>157.79</ele>
        <time>2016-06-19T08:12:17Z</time>
      </trkpt>
      <trkpt lat="43.94932" lon="4.63351">
        <ele>156.35</ele>
        <time>2016-06-19T08:12:30Z</time>
      </trkpt>
      <trkpt lat="43.95021" lon="4.63622">
        <ele>155.87</ele>
        <time>2016-06-19T08:12:40Z</time>
      </trkpt>
      <trkpt lat="43.95027" lon="4.63656">
        <ele>155.87</ele>
        <time>2016-06-19T08:12:42Z</time>
      </trkpt>
      <trkpt lat="43.95026" lon="4.63671">
        <ele>155.87</ele>
        <time>2016-06-19T08:12:43Z</time>
      </trkpt>
      <trkpt lat="43.95025" lon="4.63685">
        <ele>155.39</ele>
        <time>2016-06-19T08:12:44Z</time>
      </trkpt>
      <trkpt lat="43.95027" lon="4.63697">
        <ele>155.39</ele>
        <time>2016-06-19T08:12:45Z</time>
      </trkpt>
      <trkpt lat="43.95034" lon="4.63706">
        <ele>155.39</ele>
        <time>2016-06-19T08:12:46Z</time>
      </trkpt>
      <trkpt lat="43.95042" lon="4.63714">
        <ele>155.39</ele>
        <time>2016-06-19T08:12:47Z</time>
      </trkpt>
      <trkpt lat="43.95051" lon="4.63724">
        <ele>155.39</ele>
        <time>2016-06-19T08:12:48Z</time>
      </trkpt>
      <trkpt lat="43.95058" lon="4.63738">
        <ele>155.39</ele>
        <time>2016-06-19T08:12:49Z</time>
      </trkpt>
      <trkpt lat="43.95066" lon="4.63755">
        <ele>155.39</ele>
        <time>2016-06-19T08:12:50Z</time>
      </trkpt>
      <trkpt lat="43.95073" lon="4.63773">
        <ele>155.39</ele>
        <time>2016-06-19T08:12:51Z</time>
      </trkpt>
      <trkpt lat="43.95144" lon="4.63972">
        <ele>156.83</ele>
        <time>2016-06-19T08:13:00Z</time>
      </trkpt>
      <trkpt lat="43.95253" lon="4.64289">
        <ele>157.79</ele>
        <time>2016-06-19T08:13:11Z</time>
      </trkpt>
      <trkpt lat="43.95441" lon="4.64834">
        <ele>156.83</ele>
        <time>2016-06-19T08:13:29Z</time>
      </trkpt>
      <trkpt lat="43.9557" lon="4.65206">
        <ele>155.87</ele>
        <time>2016-06-19T08:13:42Z</time>
      </trkpt>
      <trkpt lat="43.95612" lon="4.65387">
        <ele>155.39</ele>
        <time>2016-06-19T08:13:49Z</time>
      </trkpt>
      <trkpt lat="43.95612" lon="4.65408">
        <ele>155.39</ele>
        <time>2016-06-19T08:13:50Z</time>
      </trkpt>
      <trkpt lat="43.95608" lon="4.65422">
        <ele>155.39</ele>
        <time>2016-06-19T08:13:51Z</time>
      </trkpt>
      <trkpt lat="43.95602" lon="4.65435">
        <ele>154.91</ele>
        <time>2016-06-19T08:13:52Z</time>
      </trkpt>
      <trkpt lat="43.95593" lon="4.65446">
        <ele>154.91</ele>
        <time>2016-06-19T08:13:53Z</time>
      </trkpt>
      <trkpt lat="43.95585" lon="4.65459">
        <ele>154.91</ele>
        <time>2016-06-19T08:13:54Z</time>
      </trkpt>
      <trkpt lat="43.95581" lon="4.65474">
        <ele>154.43</ele>
        <time>2016-06-19T08:13:55Z</time>
      </trkpt>
      <trkpt lat="43.95581" lon="4.6549">
        <ele>154.91</ele>
        <time>2016-06-19T08:13:56Z</time>
      </trkpt>
      <trkpt lat="43.95583" lon="4.65507">
        <ele>154.91</ele>
        <time>2016-06-19T08:13:57Z</time>
      </trkpt>
      <trkpt lat="43.95583" lon="4.65525">
        <ele>154.91</ele>
        <time>2016-06-19T08:13:58Z</time>
      </trkpt>
      <trkpt lat="43.95579" lon="4.65544">
        <ele>154.91</ele>
        <time>2016-06-19T08:13:59Z</time>
      </trkpt>
      <trkpt lat="43.95573" lon="4.65565">
        <ele>155.39</ele>
        <time>2016-06-19T08:14:00Z</time>
      </trkpt>
      <trkpt lat="43.95566" lon="4.65587">
        <ele>155.87</ele>
        <time>2016-06-19T08:14:01Z</time>
      </trkpt>
      <trkpt lat="43.95484" lon="4.65824">
        <ele>155.87</ele>
        <time>2016-06-19T08:14:11Z</time>
      </trkpt>
      <trkpt lat="43.95371" lon="4.66147">
        <ele>155.39</ele>
        <time>2016-06-19T08:14:22Z</time>
      </trkpt>
      <trkpt lat="43.95195" lon="4.66644">
        <ele>152.51</ele>
        <time>2016-06-19T08:14:38Z</time>
      </trkpt>
      <trkpt lat="43.95078" lon="4.66988">
        <ele>149.14</ele>
        <time>2016-06-19T08:14:50Z</time>
      </trkpt>
      <trkpt lat="43.95049" lon="4.67098">
        <ele>147.22</ele>
        <time>2016-06-19T08:14:54Z</time>
      </trkpt>
      <trkpt lat="43.95047" lon="4.67129">
        <ele>146.26</ele>
        <time>2016-06-19T08:14:55Z</time>
      </trkpt>
      <trkpt lat="43.95047" lon="4.67158">
        <ele>144.82</ele>
        <time>2016-06-19T08:14:56Z</time>
      </trkpt>
      <trkpt lat="43.95049" lon="4.67187">
        <ele>143.37</ele>
        <time>2016-06-19T08:14:57Z</time>
      </trkpt>
      <trkpt lat="43.95052" lon="4.67215">
        <ele>142.41</ele>
        <time>2016-06-19T08:14:58Z</time>
      </trkpt>
      <trkpt lat="43.95055" lon="4.67299">
        <ele>138.57</ele>
        <time>2016-06-19T08:15:01Z</time>
      </trkpt>
      <trkpt lat="43.95052" lon="4.67328">
        <ele>137.61</ele>
        <time>2016-06-19T08:15:02Z</time>
      </trkpt>
      <trkpt lat="43.95046" lon="4.67356">
        <ele>136.16</ele>
        <time>2016-06-19T08:15:03Z</time>
      </trkpt>
      <trkpt lat="43.95038" lon="4.67383">
        <ele>134.72</ele>
        <time>2016-06-19T08:15:04Z</time>
      </trkpt>
      <trkpt lat="43.95027" lon="4.6741">
        <ele>133.28</ele>
        <time>2016-06-19T08:15:05Z</time>
      </trkpt>
      <trkpt lat="43.95013" lon="4.67435">
        <ele>131.36</ele>
        <time>2016-06-19T08:15:06Z</time>
      </trkpt>
      <trkpt lat="43.94997" lon="4.67458">
        <ele>129.92</ele>
        <time>2016-06-19T08:15:07Z</time>
      </trkpt>
      <trkpt lat="43.94979" lon="4.67478">
        <ele>127.99</ele>
        <time>2016-06-19T08:15:08Z</time>
      </trkpt>
      <trkpt lat="43.9496" lon="4.67496">
        <ele>126.55</ele>
        <time>2016-06-19T08:15:09Z</time>
      </trkpt>
      <trkpt lat="43.94941" lon="4.67512">
        <ele>125.59</ele>
        <time>2016-06-19T08:15:10Z</time>
      </trkpt>
      <trkpt lat="43.94733" lon="4.67688">
        <ele>108.77</ele>
        <time>2016-06-19T08:15:21Z</time>
      </trkpt>
      <trkpt lat="43.94664" lon="4.67804">
        <ele>101.56</ele>
        <time>2016-06-19T08:15:26Z</time>
      </trkpt>
      <trkpt lat="43.94655" lon="4.67832">
        <ele>100.11</ele>
        <time>2016-06-19T08:15:27Z</time>
      </trkpt>
      <trkpt lat="43.94647" lon="4.67861">
        <ele>98.19</ele>
        <time>2016-06-19T08:15:28Z</time>
      </trkpt>
      <trkpt lat="43.94641" lon="4.67891">
        <ele>96.75</ele>
        <time>2016-06-19T08:15:29Z</time>
      </trkpt>
      <trkpt lat="43.94637" lon="4.67922">
        <ele>95.31</ele>
        <time>2016-06-19T08:15:30Z</time>
      </trkpt>
      <trkpt lat="43.94635" lon="4.67953">
        <ele>94.35</ele>
        <time>2016-06-19T08:15:31Z</time>
      </trkpt>
      <trkpt lat="43.94634" lon="4.67984">
        <ele>92.9</ele>
        <time>2016-06-19T08:15:32Z</time>
      </trkpt>
      <trkpt lat="43.94636" lon="4.68014">
        <ele>91.46</ele>
        <time>2016-06-19T08:15:33Z</time>
      </trkpt>
      <trkpt lat="43.94638" lon="4.68042">
        <ele>90.5</ele>
        <time>2016-06-19T08:15:34Z</time>
      </trkpt>
      <trkpt lat="43.94642" lon="4.6807">
        <ele>89.54</ele>
        <time>2016-06-19T08:15:35Z</time>
      </trkpt>
      <trkpt lat="43.94669" lon="4.68253">
        <ele>80.89</ele>
        <time>2016-06-19T08:15:43Z</time>
      </trkpt>
      <trkpt lat="43.94688" lon="4.68382">
        <ele>76.08</ele>
        <time>2016-06-19T08:15:51Z</time>
      </trkpt>
      <trkpt lat="43.94688" lon="4.68394">
        <ele>76.56</ele>
        <time>2016-06-19T08:15:52Z</time>
      </trkpt>
      <trkpt lat="43.94686" lon="4.68416">
        <ele>76.56</ele>
        <time>2016-06-19T08:15:54Z</time>
      </trkpt>
      <trkpt lat="43.94688" lon="4.68427">
        <ele>76.08</ele>
        <time>2016-06-19T08:15:55Z</time>
      </trkpt>
      <trkpt lat="43.94692" lon="4.68437">
        <ele>76.56</ele>
        <time>2016-06-19T08:15:56Z</time>
      </trkpt>
      <trkpt lat="43.94697" lon="4.68448">
        <ele>76.56</ele>
        <time>2016-06-19T08:15:57Z</time>
      </trkpt>
      <trkpt lat="43.94701" lon="4.68461">
        <ele>76.56</ele>
        <time>2016-06-19T08:15:58Z</time>
      </trkpt>
      <trkpt lat="43.94704" lon="4.68475">
        <ele>76.56</ele>
        <time>2016-06-19T08:15:59Z</time>
      </trkpt>
      <trkpt lat="43.94707" lon="4.68491">
        <ele>76.56</ele>
        <time>2016-06-19T08:16:00Z</time>
      </trkpt>
      <trkpt lat="43.94735" lon="4.68675">
        <ele>75.6</ele>
        <time>2016-06-19T08:16:09Z</time>
      </trkpt>
      <trkpt lat="43.9478" lon="4.68984">
        <ele>74.16</ele>
        <time>2016-06-19T08:16:23Z</time>
      </trkpt>
      <trkpt lat="43.94823" lon="4.69281">
        <ele>74.16</ele>
        <time>2016-06-19T08:16:36Z</time>
      </trkpt>
      <trkpt lat="43.94893" lon="4.69772">
        <ele>73.2</ele>
        <time>2016-06-19T08:16:55Z</time>
      </trkpt>
      <trkpt lat="43.94943" lon="4.70113">
        <ele>67.91</ele>
        <time>2016-06-19T08:17:06Z</time>
      </trkpt>
      <trkpt lat="43.95028" lon="4.70708">
        <ele>62.14</ele>
        <time>2016-06-19T08:17:26Z</time>
      </trkpt>
      <trkpt lat="43.95056" lon="4.70903">
        <ele>61.18</ele>
        <time>2016-06-19T08:17:34Z</time>
      </trkpt>
      <trkpt lat="43.95098" lon="4.71101">
        <ele>61.66</ele>
        <time>2016-06-19T08:17:44Z</time>
      </trkpt>
      <trkpt lat="43.95106" lon="4.71117">
        <ele>62.14</ele>
        <time>2016-06-19T08:17:45Z</time>
      </trkpt>
      <trkpt lat="43.95116" lon="4.71132">
        <ele>62.14</ele>
        <time>2016-06-19T08:17:46Z</time>
      </trkpt>
      <trkpt lat="43.95125" lon="4.71145">
        <ele>62.62</ele>
        <time>2016-06-19T08:17:47Z</time>
      </trkpt>
      <trkpt lat="43.95135" lon="4.71156">
        <ele>62.62</ele>
        <time>2016-06-19T08:17:48Z</time>
      </trkpt>
      <trkpt lat="43.95258" lon="4.7132">
        <ele>65.51</ele>
        <time>2016-06-19T08:18:00Z</time>
      </trkpt>
      <trkpt lat="43.95354" lon="4.7152">
        <ele>68.87</ele>
        <time>2016-06-19T08:18:10Z</time>
      </trkpt>
      <trkpt lat="43.95524" lon="4.71879">
        <ele>73.2</ele>
        <time>2016-06-19T08:18:27Z</time>
      </trkpt>
      <trkpt lat="43.95714" lon="4.72281">
        <ele>72.72</ele>
        <time>2016-06-19T08:18:45Z</time>
      </trkpt>
      <trkpt lat="43.95899" lon="4.72684">
        <ele>70.79</ele>
        <time>2016-06-19T08:19:02Z</time>
      </trkpt>
      <trkpt lat="43.95906" lon="4.7271">
        <ele>70.79</ele>
        <time>2016-06-19T08:19:03Z</time>
      </trkpt>
      <trkpt lat="43.95911" lon="4.72736">
        <ele>70.79</ele>
        <time>2016-06-19T08:19:04Z</time>
      </trkpt>
      <trkpt lat="43.95914" lon="4.72763">
        <ele>70.79</ele>
        <time>2016-06-19T08:19:05Z</time>
      </trkpt>
      <trkpt lat="43.95915" lon="4.72791">
        <ele>70.31</ele>
        <time>2016-06-19T08:19:06Z</time>
      </trkpt>
      <trkpt lat="43.95915" lon="4.72819">
        <ele>69.83</ele>
        <time>2016-06-19T08:19:07Z</time>
      </trkpt>
      <trkpt lat="43.95914" lon="4.72846">
        <ele>69.35</ele>
        <time>2016-06-19T08:19:08Z</time>
      </trkpt>
      <trkpt lat="43.95911" lon="4.72874">
        <ele>68.87</ele>
        <time>2016-06-19T08:19:09Z</time>
      </trkpt>
      <trkpt lat="43.95888" lon="4.73091">
        <ele>66.47</ele>
        <time>2016-06-19T08:19:18Z</time>
      </trkpt>
      <trkpt lat="43.95874" lon="4.73337">
        <ele>67.43</ele>
        <time>2016-06-19T08:19:30Z</time>
      </trkpt>
      <trkpt lat="43.95874" lon="4.73398">
        <ele>67.91</ele>
        <time>2016-06-19T08:19:36Z</time>
      </trkpt>
      <trkpt lat="43.95873" lon="4.73417">
        <ele>68.39</ele>
        <time>2016-06-19T08:19:39Z</time>
      </trkpt>
      <trkpt lat="43.95871" lon="4.73426">
        <ele>68.39</ele>
        <time>2016-06-19T08:19:40Z</time>
      </trkpt>
      <trkpt lat="43.95866" lon="4.73432">
        <ele>68.39</ele>
        <time>2016-06-19T08:19:41Z</time>
      </trkpt>
      <trkpt lat="43.95858" lon="4.7343">
        <ele>68.39</ele>
        <time>2016-06-19T08:19:42Z</time>
      </trkpt>
      <trkpt lat="43.95852" lon="4.73429">
        <ele>67.91</ele>
        <time>2016-06-19T08:19:43Z</time>
      </trkpt>
      <trkpt lat="43.95848" lon="4.7343">
        <ele>67.91</ele>
        <time>2016-06-19T08:19:44Z</time>
      </trkpt>
      <trkpt lat="43.95845" lon="4.73433">
        <ele>67.91</ele>
        <time>2016-06-19T08:19:45Z</time>
      </trkpt>
      <trkpt lat="43.95843" lon="4.73437">
        <ele>67.91</ele>
        <time>2016-06-19T08:19:46Z</time>
      </trkpt>
      <trkpt lat="43.95843" lon="4.73441">
        <ele>67.43</ele>
        <time>2016-06-19T08:19:47Z</time>
      </trkpt>
      <trkpt lat="43.95844" lon="4.73444">
        <ele>67.43</ele>
        <time>2016-06-19T08:19:48Z</time>
      </trkpt>
      <trkpt lat="43.95844" lon="4.73443">
        <ele>67.91</ele>
        <time>2016-06-19T08:20:04Z</time>
      </trkpt>
      <trkpt lat="43.95848" lon="4.73445">
        <ele>68.39</ele>
        <time>2016-06-19T08:20:40Z</time>
      </trkpt>
      <trkpt lat="43.95849" lon="4.73445">
        <ele>68.39</ele>
        <time>2016-06-19T08:20:41Z</time>
      </trkpt>
      <trkpt lat="43.95858" lon="4.7345">
        <ele>68.87</ele>
        <time>2016-06-19T08:20:44Z</time>
      </trkpt>
      <trkpt lat="43.95863" lon="4.73457">
        <ele>68.87</ele>
        <time>2016-06-19T08:20:45Z</time>
      </trkpt>
      <trkpt lat="43.95865" lon="4.73468">
        <ele>68.87</ele>
        <time>2016-06-19T08:20:46Z</time>
      </trkpt>
      <trkpt lat="43.95865" lon="4.7348">
        <ele>68.87</ele>
        <time>2016-06-19T08:20:47Z</time>
      </trkpt>
      <trkpt lat="43.95863" lon="4.73493">
        <ele>68.87</ele>
        <time>2016-06-19T08:20:48Z</time>
      </trkpt>
      <trkpt lat="43.9586" lon="4.73506">
        <ele>68.87</ele>
        <time>2016-06-19T08:20:49Z</time>
      </trkpt>
      <trkpt lat="43.95833" lon="4.73663">
        <ele>69.83</ele>
        <time>2016-06-19T08:20:58Z</time>
      </trkpt>
      <trkpt lat="43.95801" lon="4.73882">
        <ele>75.12</ele>
        <time>2016-06-19T08:21:07Z</time>
      </trkpt>
      <trkpt lat="43.95793" lon="4.74124">
        <ele>83.77</ele>
        <time>2016-06-19T08:21:16Z</time>
      </trkpt>
      <trkpt lat="43.95826" lon="4.7438">
        <ele>88.58</ele>
        <time>2016-06-19T08:21:25Z</time>
      </trkpt>
      <trkpt lat="43.95825" lon="4.74578">
        <ele>87.62</ele>
        <time>2016-06-19T08:21:34Z</time>
      </trkpt>
      <trkpt lat="43.95824" lon="4.74605">
        <ele>86.66</ele>
        <time>2016-06-19T08:21:39Z</time>
      </trkpt>
      <trkpt lat="43.95821" lon="4.74613">
        <ele>86.66</ele>
        <time>2016-06-19T08:21:40Z</time>
      </trkpt>
      <trkpt lat="43.95817" lon="4.74624">
        <ele>86.66</ele>
        <time>2016-06-19T08:21:41Z</time>
      </trkpt>
      <trkpt lat="43.95813" lon="4.74639">
        <ele>86.18</ele>
        <time>2016-06-19T08:21:42Z</time>
      </trkpt>
      <trkpt lat="43.95811" lon="4.74655">
        <ele>86.18</ele>
        <time>2016-06-19T08:21:43Z</time>
      </trkpt>
      <trkpt lat="43.95813" lon="4.7467">
        <ele>86.18</ele>
        <time>2016-06-19T08:21:44Z</time>
      </trkpt>
      <trkpt lat="43.95816" lon="4.74684">
        <ele>86.18</ele>
        <time>2016-06-19T08:21:45Z</time>
      </trkpt>
      <trkpt lat="43.95818" lon="4.747">
        <ele>86.18</ele>
        <time>2016-06-19T08:21:46Z</time>
      </trkpt>
      <trkpt lat="43.95817" lon="4.74718">
        <ele>85.69</ele>
        <time>2016-06-19T08:21:47Z</time>
      </trkpt>
      <trkpt lat="43.95813" lon="4.74738">
        <ele>85.69</ele>
        <time>2016-06-19T08:21:48Z</time>
      </trkpt>
      <trkpt lat="43.95809" lon="4.7476">
        <ele>84.73</ele>
        <time>2016-06-19T08:21:49Z</time>
      </trkpt>
      <trkpt lat="43.95805" lon="4.74783">
        <ele>84.73</ele>
        <time>2016-06-19T08:21:50Z</time>
      </trkpt>
      <trkpt lat="43.95802" lon="4.74809">
        <ele>84.73</ele>
        <time>2016-06-19T08:21:51Z</time>
      </trkpt>
      <trkpt lat="43.95784" lon="4.75079">
        <ele>82.33</ele>
        <time>2016-06-19T08:22:00Z</time>
      </trkpt>
      <trkpt lat="43.95738" lon="4.75318">
        <ele>78</ele>
        <time>2016-06-19T08:22:08Z</time>
      </trkpt>
      <trkpt lat="43.9566" lon="4.75474">
        <ele>72.24</ele>
        <time>2016-06-19T08:22:14Z</time>
      </trkpt>
      <trkpt lat="43.95529" lon="4.75608">
        <ele>62.62</ele>
        <time>2016-06-19T08:22:21Z</time>
      </trkpt>
      <trkpt lat="43.95262" lon="4.75776">
        <ele>44.36</ele>
        <time>2016-06-19T08:22:33Z</time>
      </trkpt>
      <trkpt lat="43.9512" lon="4.759">
        <ele>33.3</ele>
        <time>2016-06-19T08:22:40Z</time>
      </trkpt>
      <trkpt lat="43.95021" lon="4.76088">
        <ele>24.17</ele>
        <time>2016-06-19T08:22:47Z</time>
      </trkpt>
      <trkpt lat="43.94979" lon="4.76283">
        <ele>20.32</ele>
        <time>2016-06-19T08:22:53Z</time>
      </trkpt>
      <trkpt lat="43.94977" lon="4.76528">
        <ele>17.92</ele>
        <time>2016-06-19T08:23:00Z</time>
      </trkpt>
      <trkpt lat="43.94962" lon="4.76903">
        <ele>18.88</ele>
        <time>2016-06-19T08:23:11Z</time>
      </trkpt>
      <trkpt lat="43.94904" lon="4.77161">
        <ele>18.4</ele>
        <time>2016-06-19T08:23:19Z</time>
      </trkpt>
      <trkpt lat="43.94804" lon="4.77518">
        <ele>18.88</ele>
        <time>2016-06-19T08:23:31Z</time>
      </trkpt>
      <trkpt lat="43.94793" lon="4.77738">
        <ele>18.88</ele>
        <time>2016-06-19T08:23:38Z</time>
      </trkpt>
      <trkpt lat="43.94837" lon="4.77923">
        <ele>18.4</ele>
        <time>2016-06-19T08:23:44Z</time>
      </trkpt>
      <trkpt lat="43.94934" lon="4.78139">
        <ele>21.29</ele>
        <time>2016-06-19T08:23:52Z</time>
      </trkpt>
      <trkpt lat="43.94962" lon="4.78312">
        <ele>21.29</ele>
        <time>2016-06-19T08:23:58Z</time>
      </trkpt>
      <trkpt lat="43.94937" lon="4.78487">
        <ele>20.81</ele>
        <time>2016-06-19T08:24:04Z</time>
      </trkpt>
      <trkpt lat="43.94857" lon="4.78676">
        <ele>22.73</ele>
        <time>2016-06-19T08:24:11Z</time>
      </trkpt>
      <trkpt lat="43.94634" lon="4.79113">
        <ele>26.57</ele>
        <time>2016-06-19T08:24:28Z</time>
      </trkpt>
      <trkpt lat="43.94456" lon="4.79469">
        <ele>27.53</ele>
        <time>2016-06-19T08:24:43Z</time>
      </trkpt>
      <trkpt lat="43.94364" lon="4.79646">
        <ele>26.57</ele>
        <time>2016-06-19T08:24:53Z</time>
      </trkpt>
      <trkpt lat="43.94356" lon="4.79654">
        <ele>26.57</ele>
        <time>2016-06-19T08:24:54Z</time>
      </trkpt>
      <trkpt lat="43.94347" lon="4.79658">
        <ele>26.09</ele>
        <time>2016-06-19T08:24:55Z</time>
      </trkpt>
      <trkpt lat="43.94336" lon="4.79654">
        <ele>26.09</ele>
        <time>2016-06-19T08:24:56Z</time>
      </trkpt>
      <trkpt lat="43.94327" lon="4.79646">
        <ele>25.61</ele>
        <time>2016-06-19T08:24:57Z</time>
      </trkpt>
      <trkpt lat="43.9432" lon="4.79635">
        <ele>25.61</ele>
        <time>2016-06-19T08:24:58Z</time>
      </trkpt>
      <trkpt lat="43.94316" lon="4.79624">
        <ele>25.61</ele>
        <time>2016-06-19T08:24:59Z</time>
      </trkpt>
      <trkpt lat="43.94315" lon="4.79611">
        <ele>25.13</ele>
        <time>2016-06-19T08:25:00Z</time>
      </trkpt>
      <trkpt lat="43.94316" lon="4.79598">
        <ele>24.65</ele>
        <time>2016-06-19T08:25:01Z</time>
      </trkpt>
      <trkpt lat="43.94319" lon="4.79585">
        <ele>24.65</ele>
        <time>2016-06-19T08:25:02Z</time>
      </trkpt>
      <trkpt lat="43.94325" lon="4.79574">
        <ele>24.17</ele>
        <time>2016-06-19T08:25:03Z</time>
      </trkpt>
      <trkpt lat="43.94336" lon="4.79572">
        <ele>24.17</ele>
        <time>2016-06-19T08:25:04Z</time>
      </trkpt>
      <trkpt lat="43.94349" lon="4.79571">
        <ele>23.69</ele>
        <time>2016-06-19T08:25:05Z</time>
      </trkpt>
      <trkpt lat="43.94361" lon="4.79574">
        <ele>23.69</ele>
        <time>2016-06-19T08:25:06Z</time>
      </trkpt>
      <trkpt lat="43.9437" lon="4.79586">
        <ele>23.21</ele>
        <time>2016-06-19T08:25:07Z</time>
      </trkpt>
      <trkpt lat="43.94379" lon="4.79599">
        <ele>23.21</ele>
        <time>2016-06-19T08:25:08Z</time>
      </trkpt>
      <trkpt lat="43.94387" lon="4.79612">
        <ele>23.21</ele>
        <time>2016-06-19T08:25:09Z</time>
      </trkpt>
      <trkpt lat="43.94414" lon="4.79646">
        <ele>22.73</ele>
        <time>2016-06-19T08:25:12Z</time>
      </trkpt>
      <trkpt lat="43.94501" lon="4.79755">
        <ele>21.29</ele>
        <time>2016-06-19T08:25:21Z</time>
      </trkpt>
      <trkpt lat="43.94545" lon="4.79802">
        <ele>21.77</ele>
        <time>2016-06-19T08:25:25Z</time>
      </trkpt>
      <trkpt lat="43.94558" lon="4.79807">
        <ele>22.25</ele>
        <time>2016-06-19T08:25:26Z</time>
      </trkpt>
      <trkpt lat="43.94596" lon="4.79828">
        <ele>23.69</ele>
        <time>2016-06-19T08:25:29Z</time>
      </trkpt>
      <trkpt lat="43.94608" lon="4.79837">
        <ele>23.21</ele>
        <time>2016-06-19T08:25:30Z</time>
      </trkpt>
      <trkpt lat="43.94618" lon="4.79847">
        <ele>23.21</ele>
        <time>2016-06-19T08:25:31Z</time>
      </trkpt>
      <trkpt lat="43.94739" lon="4.79982">
        <ele>22.25</ele>
        <time>2016-06-19T08:25:44Z</time>
      </trkpt>
      <trkpt lat="43.9491" lon="4.80129">
        <ele>20.81</ele>
        <time>2016-06-19T08:26:00Z</time>
      </trkpt>
      <trkpt lat="43.94969" lon="4.80168">
        <ele>20.81</ele>
        <time>2016-06-19T08:26:06Z</time>
      </trkpt>
      <trkpt lat="43.94978" lon="4.80165">
        <ele>20.81</ele>
        <time>2016-06-19T08:26:07Z</time>
      </trkpt>
      <trkpt lat="43.94988" lon="4.80157">
        <ele>20.81</ele>
        <time>2016-06-19T08:26:08Z</time>
      </trkpt>
      <trkpt lat="43.94997" lon="4.80148">
        <ele>20.32</ele>
        <time>2016-06-19T08:26:09Z</time>
      </trkpt>
      <trkpt lat="43.95007" lon="4.80141">
        <ele>20.32</ele>
        <time>2016-06-19T08:26:10Z</time>
      </trkpt>
      <trkpt lat="43.95019" lon="4.80138">
        <ele>19.84</ele>
        <time>2016-06-19T08:26:11Z</time>
      </trkpt>
      <trkpt lat="43.9503" lon="4.8014">
        <ele>19.84</ele>
        <time>2016-06-19T08:26:12Z</time>
      </trkpt>
      <trkpt lat="43.95042" lon="4.80147">
        <ele>19.84</ele>
        <time>2016-06-19T08:26:13Z</time>
      </trkpt>
      <trkpt lat="43.95053" lon="4.80154">
        <ele>19.84</ele>
        <time>2016-06-19T08:26:14Z</time>
      </trkpt>
      <trkpt lat="43.95126" lon="4.80201">
        <ele>18.4</ele>
        <time>2016-06-19T08:26:20Z</time>
      </trkpt>
      <trkpt lat="43.95136" lon="4.80211">
        <ele>18.4</ele>
        <time>2016-06-19T08:26:21Z</time>
      </trkpt>
      <trkpt lat="43.95145" lon="4.80222">
        <ele>18.4</ele>
        <time>2016-06-19T08:26:22Z</time>
      </trkpt>
      <trkpt lat="43.95175" lon="4.80264">
        <ele>18.88</ele>
        <time>2016-06-19T08:26:26Z</time>
      </trkpt>
      <trkpt lat="43.95179" lon="4.80276">
        <ele>18.88</ele>
        <time>2016-06-19T08:26:27Z</time>
      </trkpt>
      <trkpt lat="43.95181" lon="4.8029">
        <ele>18.88</ele>
        <time>2016-06-19T08:26:28Z</time>
      </trkpt>
      <trkpt lat="43.95181" lon="4.80304">
        <ele>18.88</ele>
        <time>2016-06-19T08:26:29Z</time>
      </trkpt>
      <trkpt lat="43.95181" lon="4.80317">
        <ele>19.36</ele>
        <time>2016-06-19T08:26:30Z</time>
      </trkpt>
      <trkpt lat="43.95182" lon="4.80342">
        <ele>19.36</ele>
        <time>2016-06-19T08:26:32Z</time>
      </trkpt>
      <trkpt lat="43.95186" lon="4.80354">
        <ele>19.36</ele>
        <time>2016-06-19T08:26:33Z</time>
      </trkpt>
      <trkpt lat="43.95191" lon="4.80364">
        <ele>19.36</ele>
        <time>2016-06-19T08:26:34Z</time>
      </trkpt>
      <trkpt lat="43.95198" lon="4.80374">
        <ele>18.88</ele>
        <time>2016-06-19T08:26:35Z</time>
      </trkpt>
      <trkpt lat="43.95205" lon="4.80383">
        <ele>19.36</ele>
        <time>2016-06-19T08:26:36Z</time>
      </trkpt>
      <trkpt lat="43.95233" lon="4.80415">
        <ele>20.32</ele>
        <time>2016-06-19T08:26:42Z</time>
      </trkpt>
      <trkpt lat="43.95273" lon="4.80462">
        <ele>21.29</ele>
        <time>2016-06-19T08:26:52Z</time>
      </trkpt>
      <trkpt lat="43.95327" lon="4.80549">
        <ele>20.32</ele>
        <time>2016-06-19T08:27:01Z</time>
      </trkpt>
      <trkpt lat="43.95332" lon="4.80562">
        <ele>20.32</ele>
        <time>2016-06-19T08:27:02Z</time>
      </trkpt>
      <trkpt lat="43.95336" lon="4.80576">
        <ele>20.32</ele>
        <time>2016-06-19T08:27:03Z</time>
      </trkpt>
      <trkpt lat="43.95374" lon="4.80768">
        <ele>19.84</ele>
        <time>2016-06-19T08:27:15Z</time>
      </trkpt>
      <trkpt lat="43.95364" lon="4.80931">
        <ele>17.92</ele>
        <time>2016-06-19T08:27:24Z</time>
      </trkpt>
      <trkpt lat="43.95356" lon="4.81083">
        <ele>16.96</ele>
        <time>2016-06-19T08:27:33Z</time>
      </trkpt>
      <trkpt lat="43.95357" lon="4.81222">
        <ele>18.4</ele>
        <time>2016-06-19T08:27:43Z</time>
      </trkpt>
      <trkpt lat="43.95343" lon="4.81328">
        <ele>18.4</ele>
        <time>2016-06-19T08:27:52Z</time>
      </trkpt>
      <trkpt lat="43.95335" lon="4.8136">
        <ele>18.4</ele>
        <time>2016-06-19T08:27:59Z</time>
      </trkpt>
      <trkpt lat="43.95306" lon="4.81479">
        <ele>17.44</ele>
        <time>2016-06-19T08:28:10Z</time>
      </trkpt>
      <trkpt lat="43.95264" lon="4.81628">
        <ele>12.63</ele>
        <time>2016-06-19T08:28:23Z</time>
      </trkpt>
      <trkpt lat="43.95262" lon="4.81648">
        <ele>12.15</ele>
        <time>2016-06-19T08:28:25Z</time>
      </trkpt>
      <trkpt lat="43.95268" lon="4.8166">
        <ele>11.67</ele>
        <time>2016-06-19T08:28:26Z</time>
      </trkpt>
      <trkpt lat="43.95272" lon="4.81673">
        <ele>12.15</ele>
        <time>2016-06-19T08:28:27Z</time>
      </trkpt>
      <trkpt lat="43.95305" lon="4.8183">
        <ele>16.96</ele>
        <time>2016-06-19T08:28:37Z</time>
      </trkpt>
      <trkpt lat="43.95308" lon="4.81847">
        <ele>16.96</ele>
        <time>2016-06-19T08:28:38Z</time>
      </trkpt>
      <trkpt lat="43.9531" lon="4.81864">
        <ele>16.96</ele>
        <time>2016-06-19T08:28:39Z</time>
      </trkpt>
      <trkpt lat="43.9532" lon="4.81974">
        <ele>18.4</ele>
        <time>2016-06-19T08:28:45Z</time>
      </trkpt>
      <trkpt lat="43.95325" lon="4.81991">
        <ele>18.88</ele>
        <time>2016-06-19T08:28:46Z</time>
      </trkpt>
      <trkpt lat="43.95331" lon="4.82008">
        <ele>18.88</ele>
        <time>2016-06-19T08:28:47Z</time>
      </trkpt>
      <trkpt lat="43.95433" lon="4.82264">
        <ele>19.84</ele>
        <time>2016-06-19T08:29:01Z</time>
      </trkpt>
      <trkpt lat="43.95528" lon="4.82417">
        <ele>22.25</ele>
        <time>2016-06-19T08:29:10Z</time>
      </trkpt>
      <trkpt lat="43.95718" lon="4.82655">
        <ele>23.21</ele>
        <time>2016-06-19T08:29:25Z</time>
      </trkpt>
      <trkpt lat="43.95867" lon="4.82871">
        <ele>23.69</ele>
        <time>2016-06-19T08:29:37Z</time>
      </trkpt>
      <trkpt lat="43.95911" lon="4.83053">
        <ele>24.17</ele>
        <time>2016-06-19T08:29:44Z</time>
      </trkpt>
      <trkpt lat="43.95907" lon="4.83264">
        <ele>23.69</ele>
        <time>2016-06-19T08:29:51Z</time>
      </trkpt>
      <trkpt lat="43.95881" lon="4.83698">
        <ele>22.73</ele>
        <time>2016-06-19T08:30:05Z</time>
      </trkpt>
      <trkpt lat="43.95874" lon="4.8401">
        <ele>22.73</ele>
        <time>2016-06-19T08:30:16Z</time>
      </trkpt>
      <trkpt lat="43.95869" lon="4.84123">
        <ele>22.73</ele>
        <time>2016-06-19T08:30:21Z</time>
      </trkpt>
      <trkpt lat="43.95864" lon="4.84143">
        <ele>22.73</ele>
        <time>2016-06-19T08:30:22Z</time>
      </trkpt>
      <trkpt lat="43.95833" lon="4.84276">
        <ele>20.32</ele>
        <time>2016-06-19T08:30:28Z</time>
      </trkpt>
      <trkpt lat="43.95836" lon="4.84299">
        <ele>19.36</ele>
        <time>2016-06-19T08:30:29Z</time>
      </trkpt>
      <trkpt lat="43.95839" lon="4.84323">
        <ele>19.84</ele>
        <time>2016-06-19T08:30:30Z</time>
      </trkpt>
      <trkpt lat="43.95844" lon="4.84347">
        <ele>19.84</ele>
        <time>2016-06-19T08:30:31Z</time>
      </trkpt>
      <trkpt lat="43.9585" lon="4.84371">
        <ele>19.84</ele>
        <time>2016-06-19T08:30:32Z</time>
      </trkpt>
      <trkpt lat="43.95857" lon="4.84395">
        <ele>19.84</ele>
        <time>2016-06-19T08:30:33Z</time>
      </trkpt>
      <trkpt lat="43.95866" lon="4.84418">
        <ele>19.84</ele>
        <time>2016-06-19T08:30:34Z</time>
      </trkpt>
      <trkpt lat="43.95875" lon="4.84441">
        <ele>20.32</ele>
        <time>2016-06-19T08:30:35Z</time>
      </trkpt>
      <trkpt lat="43.96028" lon="4.84798">
        <ele>21.29</ele>
        <time>2016-06-19T08:30:51Z</time>
      </trkpt>
      <trkpt lat="43.96148" lon="4.84965">
        <ele>21.77</ele>
        <time>2016-06-19T08:30:59Z</time>
      </trkpt>
      <trkpt lat="43.9631" lon="4.85128">
        <ele>21.77</ele>
        <time>2016-06-19T08:31:09Z</time>
      </trkpt>
      <trkpt lat="43.96582" lon="4.85363">
        <ele>24.17</ele>
        <time>2016-06-19T08:31:24Z</time>
      </trkpt>
      <trkpt lat="43.96819" lon="4.85499">
        <ele>23.69</ele>
        <time>2016-06-19T08:31:36Z</time>
      </trkpt>
      <trkpt lat="43.97095" lon="4.85644">
        <ele>24.65</ele>
        <time>2016-06-19T08:31:52Z</time>
      </trkpt>
      <trkpt lat="43.97246" lon="4.85734">
        <ele>22.73</ele>
        <time>2016-06-19T08:32:02Z</time>
      </trkpt>
      <trkpt lat="43.97283" lon="4.85783">
        <ele>22.73</ele>
        <time>2016-06-19T08:32:05Z</time>
      </trkpt>
      <trkpt lat="43.97293" lon="4.85802">
        <ele>22.73</ele>
        <time>2016-06-19T08:32:06Z</time>
      </trkpt>
      <trkpt lat="43.97319" lon="4.85866">
        <ele>22.73</ele>
        <time>2016-06-19T08:32:09Z</time>
      </trkpt>
      <trkpt lat="43.97326" lon="4.8589">
        <ele>23.69</ele>
        <time>2016-06-19T08:32:10Z</time>
      </trkpt>
      <trkpt lat="43.97331" lon="4.85915">
        <ele>24.17</ele>
        <time>2016-06-19T08:32:11Z</time>
      </trkpt>
      <trkpt lat="43.97336" lon="4.85941">
        <ele>24.65</ele>
        <time>2016-06-19T08:32:12Z</time>
      </trkpt>
      <trkpt lat="43.97339" lon="4.85968">
        <ele>25.13</ele>
        <time>2016-06-19T08:32:13Z</time>
      </trkpt>
      <trkpt lat="43.97364" lon="4.86297">
        <ele>30.9</ele>
        <time>2016-06-19T08:32:25Z</time>
      </trkpt>
      <trkpt lat="43.97411" lon="4.86649">
        <ele>27.05</ele>
        <time>2016-06-19T08:32:38Z</time>
      </trkpt>
      <trkpt lat="43.97484" lon="4.86955">
        <ele>27.05</ele>
        <time>2016-06-19T08:32:49Z</time>
      </trkpt>
      <trkpt lat="43.97602" lon="4.87423">
        <ele>27.05</ele>
        <time>2016-06-19T08:33:05Z</time>
      </trkpt>
      <trkpt lat="43.97681" lon="4.87599">
        <ele>28.5</ele>
        <time>2016-06-19T08:33:12Z</time>
      </trkpt>
      <trkpt lat="43.97909" lon="4.8802">
        <ele>29.94</ele>
        <time>2016-06-19T08:33:30Z</time>
      </trkpt>
      <trkpt lat="43.98197" lon="4.88497">
        <ele>32.34</ele>
        <time>2016-06-19T08:33:51Z</time>
      </trkpt>
      <trkpt lat="43.98354" lon="4.88741">
        <ele>38.11</ele>
        <time>2016-06-19T08:34:03Z</time>
      </trkpt>
      <trkpt lat="43.98479" lon="4.88927">
        <ele>35.23</ele>
        <time>2016-06-19T08:34:12Z</time>
      </trkpt>
      <trkpt lat="43.98675" lon="4.89265">
        <ele>35.23</ele>
        <time>2016-06-19T08:34:26Z</time>
      </trkpt>
      <trkpt lat="43.9874" lon="4.89516">
        <ele>32.82</ele>
        <time>2016-06-19T08:34:34Z</time>
      </trkpt>
      <trkpt lat="43.98841" lon="4.89917">
        <ele>31.86</ele>
        <time>2016-06-19T08:34:47Z</time>
      </trkpt>
      <trkpt lat="43.98923" lon="4.90244">
        <ele>31.86</ele>
        <time>2016-06-19T08:34:58Z</time>
      </trkpt>
      <trkpt lat="43.99015" lon="4.90537">
        <ele>31.38</ele>
        <time>2016-06-19T08:35:08Z</time>
      </trkpt>
      <trkpt lat="43.99133" lon="4.90803">
        <ele>30.9</ele>
        <time>2016-06-19T08:35:18Z</time>
      </trkpt>
      <trkpt lat="43.99285" lon="4.91145">
        <ele>30.9</ele>
        <time>2016-06-19T08:35:31Z</time>
      </trkpt>
      <trkpt lat="43.99325" lon="4.91394">
        <ele>30.42</ele>
        <time>2016-06-19T08:35:39Z</time>
      </trkpt>
      <trkpt lat="43.99312" lon="4.91625">
        <ele>30.42</ele>
        <time>2016-06-19T08:35:46Z</time>
      </trkpt>
      <trkpt lat="43.99254" lon="4.91931">
        <ele>29.94</ele>
        <time>2016-06-19T08:35:55Z</time>
      </trkpt>
      <trkpt lat="43.99252" lon="4.92172">
        <ele>30.9</ele>
        <time>2016-06-19T08:36:02Z</time>
      </trkpt>
      <trkpt lat="43.99299" lon="4.9243">
        <ele>31.38</ele>
        <time>2016-06-19T08:36:10Z</time>
      </trkpt>
      <trkpt lat="43.99402" lon="4.92914">
        <ele>31.38</ele>
        <time>2016-06-19T08:36:25Z</time>
      </trkpt>
      <trkpt lat="43.99523" lon="4.93464">
        <ele>30.42</ele>
        <time>2016-06-19T08:36:42Z</time>
      </trkpt>
      <trkpt lat="43.99649" lon="4.93882">
        <ele>31.38</ele>
        <time>2016-06-19T08:36:55Z</time>
      </trkpt>
      <trkpt lat="43.99763" lon="4.9406">
        <ele>33.78</ele>
        <time>2016-06-19T08:37:02Z</time>
      </trkpt>
      <trkpt lat="43.9991" lon="4.94181">
        <ele>33.3</ele>
        <time>2016-06-19T08:37:09Z</time>
      </trkpt>
      <trkpt lat="44.00078" lon="4.94238">
        <ele>33.3</ele>
        <time>2016-06-19T08:37:16Z</time>
      </trkpt>
      <trkpt lat="44.00254" lon="4.94223">
        <ele>33.78</ele>
        <time>2016-06-19T08:37:23Z</time>
      </trkpt>
      <trkpt lat="44.00565" lon="4.94126">
        <ele>35.23</ele>
        <time>2016-06-19T08:37:36Z</time>
      </trkpt>
      <trkpt lat="44.00681" lon="4.94101">
        <ele>35.23</ele>
        <time>2016-06-19T08:37:41Z</time>
      </trkpt>
      <trkpt lat="44.00705" lon="4.94104">
        <ele>34.74</ele>
        <time>2016-06-19T08:37:42Z</time>
      </trkpt>
      <trkpt lat="44.00727" lon="4.9411">
        <ele>34.74</ele>
        <time>2016-06-19T08:37:43Z</time>
      </trkpt>
      <trkpt lat="44.0075" lon="4.94118">
        <ele>34.26</ele>
        <time>2016-06-19T08:37:44Z</time>
      </trkpt>
      <trkpt lat="44.00772" lon="4.9413">
        <ele>34.26</ele>
        <time>2016-06-19T08:37:45Z</time>
      </trkpt>
      <trkpt lat="44.00792" lon="4.94145">
        <ele>34.26</ele>
        <time>2016-06-19T08:37:46Z</time>
      </trkpt>
      <trkpt lat="44.00812" lon="4.94163">
        <ele>33.78</ele>
        <time>2016-06-19T08:37:47Z</time>
      </trkpt>
      <trkpt lat="44.00831" lon="4.94184">
        <ele>33.3</ele>
        <time>2016-06-19T08:37:48Z</time>
      </trkpt>
      <trkpt lat="44.00848" lon="4.94207">
        <ele>32.34</ele>
        <time>2016-06-19T08:37:49Z</time>
      </trkpt>
      <trkpt lat="44.00865" lon="4.94233">
        <ele>31.86</ele>
        <time>2016-06-19T08:37:50Z</time>
      </trkpt>
      <trkpt lat="44.0088" lon="4.94261">
        <ele>31.38</ele>
        <time>2016-06-19T08:37:51Z</time>
      </trkpt>
      <trkpt lat="44.00894" lon="4.94291">
        <ele>30.9</ele>
        <time>2016-06-19T08:37:52Z</time>
      </trkpt>
      <trkpt lat="44.00905" lon="4.94323">
        <ele>31.86</ele>
        <time>2016-06-19T08:37:53Z</time>
      </trkpt>
      <trkpt lat="44.00916" lon="4.94355">
        <ele>31.86</ele>
        <time>2016-06-19T08:37:54Z</time>
      </trkpt>
      <trkpt lat="44.0103" lon="4.94697">
        <ele>33.3</ele>
        <time>2016-06-19T08:38:05Z</time>
      </trkpt>
      <trkpt lat="44.01167" lon="4.95076">
        <ele>32.82</ele>
        <time>2016-06-19T08:38:17Z</time>
      </trkpt>
      <trkpt lat="44.01348" lon="4.9552">
        <ele>36.19</ele>
        <time>2016-06-19T08:38:32Z</time>
      </trkpt>
      <trkpt lat="44.01528" lon="4.95905">
        <ele>33.3</ele>
        <time>2016-06-19T08:38:46Z</time>
      </trkpt>
      <trkpt lat="44.01638" lon="4.96023">
        <ele>31.86</ele>
        <time>2016-06-19T08:38:52Z</time>
      </trkpt>
      <trkpt lat="44.01862" lon="4.96169">
        <ele>30.9</ele>
        <time>2016-06-19T08:39:03Z</time>
      </trkpt>
      <trkpt lat="44.02095" lon="4.96349">
        <ele>30.9</ele>
        <time>2016-06-19T08:39:15Z</time>
      </trkpt>
      <trkpt lat="44.02352" lon="4.96544">
        <ele>31.86</ele>
        <time>2016-06-19T08:39:29Z</time>
      </trkpt>
      <trkpt lat="44.02534" lon="4.96683">
        <ele>31.38</ele>
        <time>2016-06-19T08:39:40Z</time>
      </trkpt>
      <trkpt lat="44.02662" lon="4.96784">
        <ele>31.86</ele>
        <time>2016-06-19T08:39:50Z</time>
      </trkpt>
      <trkpt lat="44.02668" lon="4.96795">
        <ele>32.34</ele>
        <time>2016-06-19T08:39:51Z</time>
      </trkpt>
      <trkpt lat="44.02681" lon="4.9682">
        <ele>32.34</ele>
        <time>2016-06-19T08:39:53Z</time>
      </trkpt>
      <trkpt lat="44.02689" lon="4.96826">
        <ele>32.34</ele>
        <time>2016-06-19T08:39:54Z</time>
      </trkpt>
      <trkpt lat="44.02699" lon="4.96829">
        <ele>32.34</ele>
        <time>2016-06-19T08:39:55Z</time>
      </trkpt>
      <trkpt lat="44.02709" lon="4.96826">
        <ele>31.86</ele>
        <time>2016-06-19T08:39:56Z</time>
      </trkpt>
      <trkpt lat="44.02721" lon="4.96822">
        <ele>31.86</ele>
        <time>2016-06-19T08:39:57Z</time>
      </trkpt>
      <trkpt lat="44.02734" lon="4.9682">
        <ele>31.86</ele>
        <time>2016-06-19T08:39:58Z</time>
      </trkpt>
      <trkpt lat="44.02746" lon="4.96822">
        <ele>31.86</ele>
        <time>2016-06-19T08:39:59Z</time>
      </trkpt>
      <trkpt lat="44.02759" lon="4.96826">
        <ele>32.82</ele>
        <time>2016-06-19T08:40:00Z</time>
      </trkpt>
      <trkpt lat="44.02846" lon="4.96825">
        <ele>36.67</ele>
        <time>2016-06-19T08:40:06Z</time>
      </trkpt>
      <trkpt lat="44.03" lon="4.96771">
        <ele>38.11</ele>
        <time>2016-06-19T08:40:15Z</time>
      </trkpt>
      <trkpt lat="44.03178" lon="4.96767">
        <ele>32.82</ele>
        <time>2016-06-19T08:40:24Z</time>
      </trkpt>
      <trkpt lat="44.0334" lon="4.9683">
        <ele>33.3</ele>
        <time>2016-06-19T08:40:32Z</time>
      </trkpt>
      <trkpt lat="44.03552" lon="4.96979">
        <ele>35.23</ele>
        <time>2016-06-19T08:40:43Z</time>
      </trkpt>
      <trkpt lat="44.03817" lon="4.97195">
        <ele>37.63</ele>
        <time>2016-06-19T08:40:56Z</time>
      </trkpt>
      <trkpt lat="44.04038" lon="4.97446">
        <ele>44.36</ele>
        <time>2016-06-19T08:41:08Z</time>
      </trkpt>
      <trkpt lat="44.04232" lon="4.9774">
        <ele>37.63</ele>
        <time>2016-06-19T08:41:20Z</time>
      </trkpt>
      <trkpt lat="44.04391" lon="4.98073">
        <ele>37.63</ele>
        <time>2016-06-19T08:41:32Z</time>
      </trkpt>
      <trkpt lat="44.04512" lon="4.98435">
        <ele>38.11</ele>
        <time>2016-06-19T08:41:44Z</time>
      </trkpt>
      <trkpt lat="44.04591" lon="4.98802">
        <ele>38.59</ele>
        <time>2016-06-19T08:41:55Z</time>
      </trkpt>
      <trkpt lat="44.04631" lon="4.99205">
        <ele>39.07</ele>
        <time>2016-06-19T08:42:07Z</time>
      </trkpt>
      <trkpt lat="44.04627" lon="4.99611">
        <ele>48.68</ele>
        <time>2016-06-19T08:42:19Z</time>
      </trkpt>
      <trkpt lat="44.04582" lon="5.0008">
        <ele>55.89</ele>
        <time>2016-06-19T08:42:33Z</time>
      </trkpt>
      <trkpt lat="44.04526" lon="5.00634">
        <ele>64.55</ele>
        <time>2016-06-19T08:42:49Z</time>
      </trkpt>
      <trkpt lat="44.04476" lon="5.01149">
        <ele>66.95</ele>
        <time>2016-06-19T08:43:04Z</time>
      </trkpt>
      <trkpt lat="44.04478" lon="5.01487">
        <ele>66.95</ele>
        <time>2016-06-19T08:43:14Z</time>
      </trkpt>
      <trkpt lat="44.04524" lon="5.01804">
        <ele>62.14</ele>
        <time>2016-06-19T08:43:24Z</time>
      </trkpt>
      <trkpt lat="44.04606" lon="5.02115">
        <ele>62.62</ele>
        <time>2016-06-19T08:43:35Z</time>
      </trkpt>
      <trkpt lat="44.04642" lon="5.02319">
        <ele>64.07</ele>
        <time>2016-06-19T08:43:44Z</time>
      </trkpt>
      <trkpt lat="44.04643" lon="5.02394">
        <ele>65.51</ele>
        <time>2016-06-19T08:43:49Z</time>
      </trkpt>
      <trkpt lat="44.04641" lon="5.02403">
        <ele>65.51</ele>
        <time>2016-06-19T08:43:50Z</time>
      </trkpt>
      <trkpt lat="44.04638" lon="5.02412">
        <ele>65.99</ele>
        <time>2016-06-19T08:43:51Z</time>
      </trkpt>
      <trkpt lat="44.0463" lon="5.02434">
        <ele>66.47</ele>
        <time>2016-06-19T08:43:53Z</time>
      </trkpt>
      <trkpt lat="44.04631" lon="5.02442">
        <ele>66.47</ele>
        <time>2016-06-19T08:43:54Z</time>
      </trkpt>
      <trkpt lat="44.04635" lon="5.02451">
        <ele>66.47</ele>
        <time>2016-06-19T08:43:55Z</time>
      </trkpt>
      <trkpt lat="44.04643" lon="5.02457">
        <ele>66.47</ele>
        <time>2016-06-19T08:43:56Z</time>
      </trkpt>
      <trkpt lat="44.04654" lon="5.02459">
        <ele>66.47</ele>
        <time>2016-06-19T08:43:57Z</time>
      </trkpt>
      <trkpt lat="44.04665" lon="5.02462">
        <ele>66.47</ele>
        <time>2016-06-19T08:43:58Z</time>
      </trkpt>
      <trkpt lat="44.04677" lon="5.02469">
        <ele>65.99</ele>
        <time>2016-06-19T08:43:59Z</time>
      </trkpt>
      <trkpt lat="44.04687" lon="5.02481">
        <ele>65.99</ele>
        <time>2016-06-19T08:44:00Z</time>
      </trkpt>
      <trkpt lat="44.04763" lon="5.02613">
        <ele>67.43</ele>
        <time>2016-06-19T08:44:08Z</time>
      </trkpt>
      <trkpt lat="44.04812" lon="5.02706">
        <ele>70.31</ele>
        <time>2016-06-19T08:44:15Z</time>
      </trkpt>
      <trkpt lat="44.0484" lon="5.02745">
        <ele>71.76</ele>
        <time>2016-06-19T08:44:23Z</time>
      </trkpt>
      <trkpt lat="44.04883" lon="5.0279">
        <ele>73.2</ele>
        <time>2016-06-19T08:44:29Z</time>
      </trkpt>
      <trkpt lat="44.04989" lon="5.0288">
        <ele>74.64</ele>
        <time>2016-06-19T08:44:37Z</time>
      </trkpt>
      <trkpt lat="44.05133" lon="5.02946">
        <ele>75.6</ele>
        <time>2016-06-19T08:44:45Z</time>
      </trkpt>
      <trkpt lat="44.05347" lon="5.02983">
        <ele>74.64</ele>
        <time>2016-06-19T08:44:55Z</time>
      </trkpt>
      <trkpt lat="44.05555" lon="5.03045">
        <ele>73.68</ele>
        <time>2016-06-19T08:45:05Z</time>
      </trkpt>
      <trkpt lat="44.05664" lon="5.03159">
        <ele>73.68</ele>
        <time>2016-06-19T08:45:11Z</time>
      </trkpt>
      <trkpt lat="44.05736" lon="5.03333">
        <ele>74.16</ele>
        <time>2016-06-19T08:45:17Z</time>
      </trkpt>
      <trkpt lat="44.0582" lon="5.03648">
        <ele>75.12</ele>
        <time>2016-06-19T08:45:27Z</time>
      </trkpt>
      <trkpt lat="44.05909" lon="5.03776">
        <ele>77.04</ele>
        <time>2016-06-19T08:45:33Z</time>
      </trkpt>
      <trkpt lat="44.05927" lon="5.0379">
        <ele>77.04</ele>
        <time>2016-06-19T08:45:34Z</time>
      </trkpt>
      <trkpt lat="44.06025" lon="5.03852">
        <ele>78.97</ele>
        <time>2016-06-19T08:45:41Z</time>
      </trkpt>
      <trkpt lat="44.06032" lon="5.03861">
        <ele>79.45</ele>
        <time>2016-06-19T08:45:42Z</time>
      </trkpt>
      <trkpt lat="44.06038" lon="5.03873">
        <ele>79.45</ele>
        <time>2016-06-19T08:45:43Z</time>
      </trkpt>
      <trkpt lat="44.06043" lon="5.03885">
        <ele>79.45</ele>
        <time>2016-06-19T08:45:44Z</time>
      </trkpt>
      <trkpt lat="44.0605" lon="5.03894">
        <ele>79.93</ele>
        <time>2016-06-19T08:45:45Z</time>
      </trkpt>
      <trkpt lat="44.0606" lon="5.03898">
        <ele>79.93</ele>
        <time>2016-06-19T08:45:46Z</time>
      </trkpt>
      <trkpt lat="44.06071" lon="5.03903">
        <ele>79.93</ele>
        <time>2016-06-19T08:45:47Z</time>
      </trkpt>
      <trkpt lat="44.06084" lon="5.03909">
        <ele>79.45</ele>
        <time>2016-06-19T08:45:48Z</time>
      </trkpt>
      <trkpt lat="44.06097" lon="5.03917">
        <ele>79.93</ele>
        <time>2016-06-19T08:45:49Z</time>
      </trkpt>
      <trkpt lat="44.06111" lon="5.03929">
        <ele>79.93</ele>
        <time>2016-06-19T08:45:50Z</time>
      </trkpt>
      <trkpt lat="44.06125" lon="5.03943">
        <ele>80.41</ele>
        <time>2016-06-19T08:45:51Z</time>
      </trkpt>
      <trkpt lat="44.06297" lon="5.04094">
        <ele>86.66</ele>
        <time>2016-06-19T08:46:02Z</time>
      </trkpt>
      <trkpt lat="44.06494" lon="5.04288">
        <ele>91.46</ele>
        <time>2016-06-19T08:46:14Z</time>
      </trkpt>
      <trkpt lat="44.06624" lon="5.04495">
        <ele>92.42</ele>
        <time>2016-06-19T08:46:23Z</time>
      </trkpt>
      <trkpt lat="44.06712" lon="5.04717">
        <ele>96.27</ele>
        <time>2016-06-19T08:46:31Z</time>
      </trkpt>
      <trkpt lat="44.06788" lon="5.04995">
        <ele>102.52</ele>
        <time>2016-06-19T08:46:41Z</time>
      </trkpt>
      <trkpt lat="44.06815" lon="5.0519">
        <ele>106.84</ele>
        <time>2016-06-19T08:46:49Z</time>
      </trkpt>
      <trkpt lat="44.06817" lon="5.05235">
        <ele>108.29</ele>
        <time>2016-06-19T08:46:52Z</time>
      </trkpt>
      <trkpt lat="44.06811" lon="5.05241">
        <ele>108.29</ele>
        <time>2016-06-19T08:46:53Z</time>
      </trkpt>
      <trkpt lat="44.06803" lon="5.05247">
        <ele>108.77</ele>
        <time>2016-06-19T08:46:54Z</time>
      </trkpt>
      <trkpt lat="44.06796" lon="5.05255">
        <ele>109.25</ele>
        <time>2016-06-19T08:46:55Z</time>
      </trkpt>
      <trkpt lat="44.06793" lon="5.05266">
        <ele>108.77</ele>
        <time>2016-06-19T08:46:56Z</time>
      </trkpt>
      <trkpt lat="44.06793" lon="5.05277">
        <ele>107.81</ele>
        <time>2016-06-19T08:46:57Z</time>
      </trkpt>
      <trkpt lat="44.06796" lon="5.0529">
        <ele>107.81</ele>
        <time>2016-06-19T08:46:58Z</time>
      </trkpt>
      <trkpt lat="44.06802" lon="5.05301">
        <ele>108.29</ele>
        <time>2016-06-19T08:46:59Z</time>
      </trkpt>
      <trkpt lat="44.06811" lon="5.05307">
        <ele>107.81</ele>
        <time>2016-06-19T08:47:00Z</time>
      </trkpt>
      <trkpt lat="44.0682" lon="5.0531">
        <ele>108.29</ele>
        <time>2016-06-19T08:47:01Z</time>
      </trkpt>
      <trkpt lat="44.0683" lon="5.0531">
        <ele>108.29</ele>
        <time>2016-06-19T08:47:02Z</time>
      </trkpt>
      <trkpt lat="44.06842" lon="5.05311">
        <ele>108.29</ele>
        <time>2016-06-19T08:47:03Z</time>
      </trkpt>
      <trkpt lat="44.06854" lon="5.05317">
        <ele>108.29</ele>
        <time>2016-06-19T08:47:04Z</time>
      </trkpt>
      <trkpt lat="44.06864" lon="5.05326">
        <ele>108.29</ele>
        <time>2016-06-19T08:47:05Z</time>
      </trkpt>
      <trkpt lat="44.06874" lon="5.05338">
        <ele>108.29</ele>
        <time>2016-06-19T08:47:06Z</time>
      </trkpt>
      <trkpt lat="44.06884" lon="5.0535">
        <ele>108.77</ele>
        <time>2016-06-19T08:47:07Z</time>
      </trkpt>
      <trkpt lat="44.06989" lon="5.05477">
        <ele>109.25</ele>
        <time>2016-06-19T08:47:18Z</time>
      </trkpt>
      <trkpt lat="44.07068" lon="5.05574">
        <ele>109.73</ele>
        <time>2016-06-19T08:47:27Z</time>
      </trkpt>
      <trkpt lat="44.07207" lon="5.05739">
        <ele>109.73</ele>
        <time>2016-06-19T08:47:40Z</time>
      </trkpt>
      <trkpt lat="44.07354" lon="5.05859">
        <ele>109.73</ele>
        <time>2016-06-19T08:47:51Z</time>
      </trkpt>
      <trkpt lat="44.07565" lon="5.05978">
        <ele>110.21</ele>
        <time>2016-06-19T08:48:05Z</time>
      </trkpt>
      <trkpt lat="44.07647" lon="5.06046">
        <ele>110.69</ele>
        <time>2016-06-19T08:48:11Z</time>
      </trkpt>
      <trkpt lat="44.07659" lon="5.06061">
        <ele>110.21</ele>
        <time>2016-06-19T08:48:12Z</time>
      </trkpt>
      <trkpt lat="44.07669" lon="5.06079">
        <ele>110.21</ele>
        <time>2016-06-19T08:48:13Z</time>
      </trkpt>
      <trkpt lat="44.07678" lon="5.06098">
        <ele>110.21</ele>
        <time>2016-06-19T08:48:14Z</time>
      </trkpt>
      <trkpt lat="44.07686" lon="5.06119">
        <ele>110.69</ele>
        <time>2016-06-19T08:48:15Z</time>
      </trkpt>
      <trkpt lat="44.07693" lon="5.06141">
        <ele>110.69</ele>
        <time>2016-06-19T08:48:16Z</time>
      </trkpt>
      <trkpt lat="44.07761" lon="5.06412">
        <ele>110.69</ele>
        <time>2016-06-19T08:48:28Z</time>
      </trkpt>
      <trkpt lat="44.07816" lon="5.06552">
        <ele>106.84</ele>
        <time>2016-06-19T08:48:35Z</time>
      </trkpt>
      <trkpt lat="44.07895" lon="5.06648">
        <ele>105.4</ele>
        <time>2016-06-19T08:48:42Z</time>
      </trkpt>
      <trkpt lat="44.07974" lon="5.06712">
        <ele>106.84</ele>
        <time>2016-06-19T08:48:51Z</time>
      </trkpt>
      <trkpt lat="44.08054" lon="5.06764">
        <ele>108.29</ele>
        <time>2016-06-19T08:49:00Z</time>
      </trkpt>
      <trkpt lat="44.0816" lon="5.0685">
        <ele>109.73</ele>
        <time>2016-06-19T08:49:12Z</time>
      </trkpt>
      <trkpt lat="44.08229" lon="5.06929">
        <ele>109.73</ele>
        <time>2016-06-19T08:49:21Z</time>
      </trkpt>
      <trkpt lat="44.08262" lon="5.06962">
        <ele>109.73</ele>
        <time>2016-06-19T08:49:27Z</time>
      </trkpt>
      <trkpt lat="44.0827" lon="5.06967">
        <ele>109.73</ele>
        <time>2016-06-19T08:49:28Z</time>
      </trkpt>
      <trkpt lat="44.08373" lon="5.0703">
        <ele>107.32</ele>
        <time>2016-06-19T08:49:38Z</time>
      </trkpt>
      <trkpt lat="44.08518" lon="5.07109">
        <ele>107.32</ele>
        <time>2016-06-19T08:49:50Z</time>
      </trkpt>
      <trkpt lat="44.08608" lon="5.07161">
        <ele>107.81</ele>
        <time>2016-06-19T08:49:56Z</time>
      </trkpt>
      <trkpt lat="44.08621" lon="5.07174">
        <ele>107.81</ele>
        <time>2016-06-19T08:49:57Z</time>
      </trkpt>
      <trkpt lat="44.08729" lon="5.07295">
        <ele>108.77</ele>
        <time>2016-06-19T08:50:06Z</time>
      </trkpt>
      <trkpt lat="44.08743" lon="5.07305">
        <ele>108.77</ele>
        <time>2016-06-19T08:50:07Z</time>
      </trkpt>
      <trkpt lat="44.08759" lon="5.07313">
        <ele>108.77</ele>
        <time>2016-06-19T08:50:08Z</time>
      </trkpt>
      <trkpt lat="44.08776" lon="5.07319">
        <ele>108.77</ele>
        <time>2016-06-19T08:50:09Z</time>
      </trkpt>
      <trkpt lat="44.08974" lon="5.0736">
        <ele>109.73</ele>
        <time>2016-06-19T08:50:20Z</time>
      </trkpt>
      <trkpt lat="44.09166" lon="5.07412">
        <ele>112.13</ele>
        <time>2016-06-19T08:50:31Z</time>
      </trkpt>
      <trkpt lat="44.09422" lon="5.07527">
        <ele>115.98</ele>
        <time>2016-06-19T08:50:46Z</time>
      </trkpt>
      <trkpt lat="44.09702" lon="5.07636">
        <ele>125.11</ele>
        <time>2016-06-19T08:51:03Z</time>
      </trkpt>
      <trkpt lat="44.09885" lon="5.07702">
        <ele>131.84</ele>
        <time>2016-06-19T08:51:14Z</time>
      </trkpt>
      <trkpt lat="44.09901" lon="5.07703">
        <ele>132.32</ele>
        <time>2016-06-19T08:51:15Z</time>
      </trkpt>
      <trkpt lat="44.10146" lon="5.0769">
        <ele>138.09</ele>
        <time>2016-06-19T08:51:30Z</time>
      </trkpt>
      <trkpt lat="44.10288" lon="5.07681">
        <ele>138.57</ele>
        <time>2016-06-19T08:51:40Z</time>
      </trkpt>
      <trkpt lat="44.10308" lon="5.07686">
        <ele>139.05</ele>
        <time>2016-06-19T08:51:42Z</time>
      </trkpt>
      <trkpt lat="44.10315" lon="5.07691">
        <ele>139.05</ele>
        <time>2016-06-19T08:51:43Z</time>
      </trkpt>
      <trkpt lat="44.10322" lon="5.07699">
        <ele>139.53</ele>
        <time>2016-06-19T08:51:44Z</time>
      </trkpt>
      <trkpt lat="44.10328" lon="5.07708">
        <ele>139.05</ele>
        <time>2016-06-19T08:51:45Z</time>
      </trkpt>
      <trkpt lat="44.10335" lon="5.07715">
        <ele>139.05</ele>
        <time>2016-06-19T08:51:46Z</time>
      </trkpt>
      <trkpt lat="44.10342" lon="5.07718">
        <ele>139.05</ele>
        <time>2016-06-19T08:51:47Z</time>
      </trkpt>
      <trkpt lat="44.10349" lon="5.07715">
        <ele>139.05</ele>
        <time>2016-06-19T08:51:48Z</time>
      </trkpt>
      <trkpt lat="44.10357" lon="5.0771">
        <ele>138.57</ele>
        <time>2016-06-19T08:51:49Z</time>
      </trkpt>
      <trkpt lat="44.10365" lon="5.07704">
        <ele>139.05</ele>
        <time>2016-06-19T08:51:50Z</time>
      </trkpt>
      <trkpt lat="44.10373" lon="5.077">
        <ele>139.05</ele>
        <time>2016-06-19T08:51:51Z</time>
      </trkpt>
      <trkpt lat="44.10384" lon="5.07701">
        <ele>138.57</ele>
        <time>2016-06-19T08:51:52Z</time>
      </trkpt>
      <trkpt lat="44.10395" lon="5.07704">
        <ele>139.05</ele>
        <time>2016-06-19T08:51:53Z</time>
      </trkpt>
      <trkpt lat="44.10513" lon="5.07734">
        <ele>139.53</ele>
        <time>2016-06-19T08:52:02Z</time>
      </trkpt>
      <trkpt lat="44.10628" lon="5.07749">
        <ele>140.49</ele>
        <time>2016-06-19T08:52:08Z</time>
      </trkpt>
      <trkpt lat="44.10792" lon="5.07805">
        <ele>142.41</ele>
        <time>2016-06-19T08:52:16Z</time>
      </trkpt>
      <trkpt lat="44.10971" lon="5.07893">
        <ele>145.3</ele>
        <time>2016-06-19T08:52:26Z</time>
      </trkpt>
      <trkpt lat="44.11154" lon="5.0799">
        <ele>149.62</ele>
        <time>2016-06-19T08:52:38Z</time>
      </trkpt>
      <trkpt lat="44.11254" lon="5.08047">
        <ele>152.51</ele>
        <time>2016-06-19T08:52:44Z</time>
      </trkpt>
      <trkpt lat="44.1137" lon="5.08156">
        <ele>156.35</ele>
        <time>2016-06-19T08:52:53Z</time>
      </trkpt>
      <trkpt lat="44.11459" lon="5.08232">
        <ele>158.75</ele>
        <time>2016-06-19T08:52:58Z</time>
      </trkpt>
      <trkpt lat="44.11555" lon="5.08324">
        <ele>161.64</ele>
        <time>2016-06-19T08:53:04Z</time>
      </trkpt>
      <trkpt lat="44.11717" lon="5.08465">
        <ele>166.45</ele>
        <time>2016-06-19T08:53:16Z</time>
      </trkpt>
      <trkpt lat="44.11877" lon="5.08578">
        <ele>171.73</ele>
        <time>2016-06-19T08:53:28Z</time>
      </trkpt>
      <trkpt lat="44.12059" lon="5.0871">
        <ele>178.46</ele>
        <time>2016-06-19T08:53:42Z</time>
      </trkpt>
      <trkpt lat="44.1216" lon="5.08817">
        <ele>181.83</ele>
        <time>2016-06-19T08:53:50Z</time>
      </trkpt>
      <trkpt lat="44.12258" lon="5.08919">
        <ele>185.67</ele>
        <time>2016-06-19T08:53:57Z</time>
      </trkpt>
      <trkpt lat="44.12351" lon="5.09032">
        <ele>189.04</ele>
        <time>2016-06-19T08:54:02Z</time>
      </trkpt>
      <trkpt lat="44.12422" lon="5.09092">
        <ele>192.4</ele>
        <time>2016-06-19T08:54:06Z</time>
      </trkpt>
      <trkpt lat="44.1244" lon="5.091">
        <ele>192.88</ele>
        <time>2016-06-19T08:54:07Z</time>
      </trkpt>
      <trkpt lat="44.12459" lon="5.09106">
        <ele>193.84</ele>
        <time>2016-06-19T08:54:08Z</time>
      </trkpt>
      <trkpt lat="44.12628" lon="5.09124">
        <ele>201.05</ele>
        <time>2016-06-19T08:54:17Z</time>
      </trkpt>
      <trkpt lat="44.12815" lon="5.09129">
        <ele>210.67</ele>
        <time>2016-06-19T08:54:28Z</time>
      </trkpt>
      <trkpt lat="44.12879" lon="5.09148">
        <ele>214.03</ele>
        <time>2016-06-19T08:54:33Z</time>
      </trkpt>
      <trkpt lat="44.1289" lon="5.09155">
        <ele>214.51</ele>
        <time>2016-06-19T08:54:34Z</time>
      </trkpt>
      <trkpt lat="44.12899" lon="5.09166">
        <ele>214.51</ele>
        <time>2016-06-19T08:54:35Z</time>
      </trkpt>
      <trkpt lat="44.12908" lon="5.0918">
        <ele>214.51</ele>
        <time>2016-06-19T08:54:36Z</time>
      </trkpt>
      <trkpt lat="44.12913" lon="5.09197">
        <ele>214.51</ele>
        <time>2016-06-19T08:54:37Z</time>
      </trkpt>
      <trkpt lat="44.12915" lon="5.09217">
        <ele>214.51</ele>
        <time>2016-06-19T08:54:38Z</time>
      </trkpt>
      <trkpt lat="44.12916" lon="5.09241">
        <ele>214.99</ele>
        <time>2016-06-19T08:54:39Z</time>
      </trkpt>
      <trkpt lat="44.12916" lon="5.09266">
        <ele>214.51</ele>
        <time>2016-06-19T08:54:40Z</time>
      </trkpt>
      <trkpt lat="44.12915" lon="5.09292">
        <ele>214.51</ele>
        <time>2016-06-19T08:54:41Z</time>
      </trkpt>
      <trkpt lat="44.1291" lon="5.09449">
        <ele>214.03</ele>
        <time>2016-06-19T08:54:47Z</time>
      </trkpt>
      <trkpt lat="44.12905" lon="5.09474">
        <ele>214.03</ele>
        <time>2016-06-19T08:54:48Z</time>
      </trkpt>
      <trkpt lat="44.12847" lon="5.09675">
        <ele>217.4</ele>
        <time>2016-06-19T08:54:55Z</time>
      </trkpt>
      <trkpt lat="44.12813" lon="5.09808">
        <ele>221.24</ele>
        <time>2016-06-19T08:55:00Z</time>
      </trkpt>
      <trkpt lat="44.12815" lon="5.09834">
        <ele>221.72</ele>
        <time>2016-06-19T08:55:01Z</time>
      </trkpt>
      <trkpt lat="44.12823" lon="5.0986">
        <ele>222.68</ele>
        <time>2016-06-19T08:55:02Z</time>
      </trkpt>
      <trkpt lat="44.12831" lon="5.09887">
        <ele>223.64</ele>
        <time>2016-06-19T08:55:03Z</time>
      </trkpt>
      <trkpt lat="44.12841" lon="5.09913">
        <ele>224.61</ele>
        <time>2016-06-19T08:55:04Z</time>
      </trkpt>
      <trkpt lat="44.12864" lon="5.09979">
        <ele>226.53</ele>
        <time>2016-06-19T08:55:07Z</time>
      </trkpt>
      <trkpt lat="44.12873" lon="5.09993">
        <ele>227.49</ele>
        <time>2016-06-19T08:55:08Z</time>
      </trkpt>
      <trkpt lat="44.12885" lon="5.10003">
        <ele>227.97</ele>
        <time>2016-06-19T08:55:09Z</time>
      </trkpt>
      <trkpt lat="44.12895" lon="5.10012">
        <ele>228.45</ele>
        <time>2016-06-19T08:55:10Z</time>
      </trkpt>
      <trkpt lat="44.12909" lon="5.1002">
        <ele>228.93</ele>
        <time>2016-06-19T08:55:11Z</time>
      </trkpt>
      <trkpt lat="44.12923" lon="5.10029">
        <ele>230.37</ele>
        <time>2016-06-19T08:55:12Z</time>
      </trkpt>
      <trkpt lat="44.12931" lon="5.10043">
        <ele>230.37</ele>
        <time>2016-06-19T08:55:13Z</time>
      </trkpt>
      <trkpt lat="44.12937" lon="5.10058">
        <ele>230.85</ele>
        <time>2016-06-19T08:55:14Z</time>
      </trkpt>
      <trkpt lat="44.12941" lon="5.10074">
        <ele>231.81</ele>
        <time>2016-06-19T08:55:15Z</time>
      </trkpt>
      <trkpt lat="44.12947" lon="5.10087">
        <ele>231.81</ele>
        <time>2016-06-19T08:55:16Z</time>
      </trkpt>
      <trkpt lat="44.12956" lon="5.10095">
        <ele>232.3</ele>
        <time>2016-06-19T08:55:17Z</time>
      </trkpt>
      <trkpt lat="44.12964" lon="5.101">
        <ele>233.26</ele>
        <time>2016-06-19T08:55:18Z</time>
      </trkpt>
      <trkpt lat="44.12979" lon="5.10099">
        <ele>234.7</ele>
        <time>2016-06-19T08:55:19Z</time>
      </trkpt>
      <trkpt lat="44.12991" lon="5.10097">
        <ele>235.18</ele>
        <time>2016-06-19T08:55:20Z</time>
      </trkpt>
      <trkpt lat="44.13001" lon="5.10098">
        <ele>236.14</ele>
        <time>2016-06-19T08:55:21Z</time>
      </trkpt>
      <trkpt lat="44.13011" lon="5.10102">
        <ele>236.62</ele>
        <time>2016-06-19T08:55:22Z</time>
      </trkpt>
      <trkpt lat="44.13019" lon="5.1011">
        <ele>237.1</ele>
        <time>2016-06-19T08:55:23Z</time>
      </trkpt>
      <trkpt lat="44.13024" lon="5.10122">
        <ele>236.62</ele>
        <time>2016-06-19T08:55:24Z</time>
      </trkpt>
      <trkpt lat="44.13026" lon="5.10136">
        <ele>236.62</ele>
        <time>2016-06-19T08:55:25Z</time>
      </trkpt>
      <trkpt lat="44.13026" lon="5.1015">
        <ele>236.62</ele>
        <time>2016-06-19T08:55:26Z</time>
      </trkpt>
      <trkpt lat="44.13025" lon="5.10162">
        <ele>236.62</ele>
        <time>2016-06-19T08:55:27Z</time>
      </trkpt>
      <trkpt lat="44.13026" lon="5.10173">
        <ele>236.62</ele>
        <time>2016-06-19T08:55:28Z</time>
      </trkpt>
      <trkpt lat="44.13028" lon="5.10183">
        <ele>236.62</ele>
        <time>2016-06-19T08:55:29Z</time>
      </trkpt>
      <trkpt lat="44.13032" lon="5.10192">
        <ele>237.1</ele>
        <time>2016-06-19T08:55:30Z</time>
      </trkpt>
      <trkpt lat="44.13038" lon="5.10196">
        <ele>237.1</ele>
        <time>2016-06-19T08:55:31Z</time>
      </trkpt>
      <trkpt lat="44.13047" lon="5.10196">
        <ele>237.1</ele>
        <time>2016-06-19T08:55:32Z</time>
      </trkpt>
      <trkpt lat="44.13056" lon="5.10194">
        <ele>236.62</ele>
        <time>2016-06-19T08:55:33Z</time>
      </trkpt>
      <trkpt lat="44.13068" lon="5.10187">
        <ele>237.1</ele>
        <time>2016-06-19T08:55:34Z</time>
      </trkpt>
      <trkpt lat="44.1308" lon="5.10183">
        <ele>237.58</ele>
        <time>2016-06-19T08:55:35Z</time>
      </trkpt>
      <trkpt lat="44.13114" lon="5.1017">
        <ele>239.99</ele>
        <time>2016-06-19T08:55:38Z</time>
      </trkpt>
      <trkpt lat="44.13128" lon="5.10169">
        <ele>240.47</ele>
        <time>2016-06-19T08:55:39Z</time>
      </trkpt>
      <trkpt lat="44.13141" lon="5.1017">
        <ele>241.43</ele>
        <time>2016-06-19T08:55:40Z</time>
      </trkpt>
      <trkpt lat="44.13232" lon="5.10189">
        <ele>244.79</ele>
        <time>2016-06-19T08:55:46Z</time>
      </trkpt>
      <trkpt lat="44.13248" lon="5.10198">
        <ele>245.75</ele>
        <time>2016-06-19T08:55:47Z</time>
      </trkpt>
      <trkpt lat="44.13368" lon="5.10302">
        <ele>251.52</ele>
        <time>2016-06-19T08:55:54Z</time>
      </trkpt>
      <trkpt lat="44.13412" lon="5.10351">
        <ele>254.89</ele>
        <time>2016-06-19T08:55:57Z</time>
      </trkpt>
      <trkpt lat="44.13424" lon="5.10359">
        <ele>255.85</ele>
        <time>2016-06-19T08:55:58Z</time>
      </trkpt>
      <trkpt lat="44.13436" lon="5.10359">
        <ele>256.33</ele>
        <time>2016-06-19T08:55:59Z</time>
      </trkpt>
      <trkpt lat="44.13449" lon="5.10349">
        <ele>257.29</ele>
        <time>2016-06-19T08:56:00Z</time>
      </trkpt>
      <trkpt lat="44.13462" lon="5.10336">
        <ele>258.25</ele>
        <time>2016-06-19T08:56:01Z</time>
      </trkpt>
      <trkpt lat="44.13475" lon="5.10319">
        <ele>259.69</ele>
        <time>2016-06-19T08:56:02Z</time>
      </trkpt>
      <trkpt lat="44.13489" lon="5.10308">
        <ele>260.65</ele>
        <time>2016-06-19T08:56:03Z</time>
      </trkpt>
      <trkpt lat="44.13507" lon="5.10305">
        <ele>261.62</ele>
        <time>2016-06-19T08:56:04Z</time>
      </trkpt>
      <trkpt lat="44.13525" lon="5.10312">
        <ele>262.1</ele>
        <time>2016-06-19T08:56:05Z</time>
      </trkpt>
      <trkpt lat="44.13544" lon="5.10323">
        <ele>262.1</ele>
        <time>2016-06-19T08:56:06Z</time>
      </trkpt>
      <trkpt lat="44.13563" lon="5.10333">
        <ele>262.58</ele>
        <time>2016-06-19T08:56:07Z</time>
      </trkpt>
      <trkpt lat="44.13581" lon="5.10336">
        <ele>263.54</ele>
        <time>2016-06-19T08:56:08Z</time>
      </trkpt>
      <trkpt lat="44.13601" lon="5.10334">
        <ele>264.02</ele>
        <time>2016-06-19T08:56:09Z</time>
      </trkpt>
      <trkpt lat="44.13619" lon="5.1033">
        <ele>264.5</ele>
        <time>2016-06-19T08:56:10Z</time>
      </trkpt>
      <trkpt lat="44.13829" lon="5.10311">
        <ele>274.59</ele>
        <time>2016-06-19T08:56:21Z</time>
      </trkpt>
      <trkpt lat="44.13878" lon="5.10317">
        <ele>271.71</ele>
        <time>2016-06-19T08:56:24Z</time>
      </trkpt>
      <trkpt lat="44.13895" lon="5.10334">
        <ele>271.71</ele>
        <time>2016-06-19T08:56:25Z</time>
      </trkpt>
      <trkpt lat="44.13913" lon="5.10353">
        <ele>272.19</ele>
        <time>2016-06-19T08:56:26Z</time>
      </trkpt>
      <trkpt lat="44.14007" lon="5.10449">
        <ele>276.52</ele>
        <time>2016-06-19T08:56:31Z</time>
      </trkpt>
      <trkpt lat="44.14028" lon="5.1046">
        <ele>277</ele>
        <time>2016-06-19T08:56:32Z</time>
      </trkpt>
      <trkpt lat="44.1405" lon="5.10468">
        <ele>277.96</ele>
        <time>2016-06-19T08:56:33Z</time>
      </trkpt>
      <trkpt lat="44.14074" lon="5.10473">
        <ele>278.92</ele>
        <time>2016-06-19T08:56:34Z</time>
      </trkpt>
      <trkpt lat="44.14099" lon="5.10475">
        <ele>279.4</ele>
        <time>2016-06-19T08:56:35Z</time>
      </trkpt>
      <trkpt lat="44.14123" lon="5.10473">
        <ele>280.36</ele>
        <time>2016-06-19T08:56:36Z</time>
      </trkpt>
      <trkpt lat="44.1425" lon="5.10471">
        <ele>285.17</ele>
        <time>2016-06-19T08:56:42Z</time>
      </trkpt>
      <trkpt lat="44.14265" lon="5.1048">
        <ele>286.13</ele>
        <time>2016-06-19T08:56:43Z</time>
      </trkpt>
      <trkpt lat="44.14277" lon="5.1049">
        <ele>286.61</ele>
        <time>2016-06-19T08:56:44Z</time>
      </trkpt>
      <trkpt lat="44.14287" lon="5.10502">
        <ele>286.61</ele>
        <time>2016-06-19T08:56:45Z</time>
      </trkpt>
      <trkpt lat="44.14297" lon="5.10513">
        <ele>287.09</ele>
        <time>2016-06-19T08:56:46Z</time>
      </trkpt>
      <trkpt lat="44.14307" lon="5.10521">
        <ele>287.57</ele>
        <time>2016-06-19T08:56:47Z</time>
      </trkpt>
      <trkpt lat="44.14317" lon="5.10527">
        <ele>287.57</ele>
        <time>2016-06-19T08:56:48Z</time>
      </trkpt>
      <trkpt lat="44.14327" lon="5.1053">
        <ele>288.05</ele>
        <time>2016-06-19T08:56:49Z</time>
      </trkpt>
      <trkpt lat="44.14338" lon="5.10533">
        <ele>288.53</ele>
        <time>2016-06-19T08:56:50Z</time>
      </trkpt>
      <trkpt lat="44.14349" lon="5.10535">
        <ele>289.01</ele>
        <time>2016-06-19T08:56:51Z</time>
      </trkpt>
      <trkpt lat="44.14458" lon="5.10579">
        <ele>291.9</ele>
        <time>2016-06-19T08:57:00Z</time>
      </trkpt>
      <trkpt lat="44.14471" lon="5.10589">
        <ele>292.38</ele>
        <time>2016-06-19T08:57:01Z</time>
      </trkpt>
      <trkpt lat="44.14498" lon="5.10612">
        <ele>293.82</ele>
        <time>2016-06-19T08:57:03Z</time>
      </trkpt>
      <trkpt lat="44.14513" lon="5.10619">
        <ele>294.3</ele>
        <time>2016-06-19T08:57:04Z</time>
      </trkpt>
      <trkpt lat="44.14528" lon="5.10623">
        <ele>294.78</ele>
        <time>2016-06-19T08:57:05Z</time>
      </trkpt>
      <trkpt lat="44.14565" lon="5.1063">
        <ele>295.74</ele>
        <time>2016-06-19T08:57:07Z</time>
      </trkpt>
      <trkpt lat="44.14583" lon="5.10639">
        <ele>296.22</ele>
        <time>2016-06-19T08:57:08Z</time>
      </trkpt>
      <trkpt lat="44.14758" lon="5.10748">
        <ele>299.59</ele>
        <time>2016-06-19T08:57:18Z</time>
      </trkpt>
      <trkpt lat="44.14797" lon="5.10777">
        <ele>300.55</ele>
        <time>2016-06-19T08:57:21Z</time>
      </trkpt>
      <trkpt lat="44.14809" lon="5.1079">
        <ele>300.55</ele>
        <time>2016-06-19T08:57:22Z</time>
      </trkpt>
      <trkpt lat="44.14818" lon="5.10806">
        <ele>301.03</ele>
        <time>2016-06-19T08:57:23Z</time>
      </trkpt>
      <trkpt lat="44.14826" lon="5.1082">
        <ele>301.51</ele>
        <time>2016-06-19T08:57:24Z</time>
      </trkpt>
      <trkpt lat="44.14835" lon="5.10831">
        <ele>301.51</ele>
        <time>2016-06-19T08:57:25Z</time>
      </trkpt>
      <trkpt lat="44.14844" lon="5.10839">
        <ele>301.99</ele>
        <time>2016-06-19T08:57:26Z</time>
      </trkpt>
      <trkpt lat="44.14856" lon="5.10841">
        <ele>301.99</ele>
        <time>2016-06-19T08:57:27Z</time>
      </trkpt>
      <trkpt lat="44.1487" lon="5.1084">
        <ele>301.99</ele>
        <time>2016-06-19T08:57:28Z</time>
      </trkpt>
      <trkpt lat="44.14884" lon="5.1084">
        <ele>302.47</ele>
        <time>2016-06-19T08:57:29Z</time>
      </trkpt>
      <trkpt lat="44.14958" lon="5.10843">
        <ele>305.36</ele>
        <time>2016-06-19T08:57:35Z</time>
      </trkpt>
      <trkpt lat="44.14969" lon="5.10849">
        <ele>305.36</ele>
        <time>2016-06-19T08:57:36Z</time>
      </trkpt>
      <trkpt lat="44.14978" lon="5.10858">
        <ele>305.84</ele>
        <time>2016-06-19T08:57:37Z</time>
      </trkpt>
      <trkpt lat="44.14986" lon="5.1087">
        <ele>306.32</ele>
        <time>2016-06-19T08:57:38Z</time>
      </trkpt>
      <trkpt lat="44.14992" lon="5.10883">
        <ele>306.32</ele>
        <time>2016-06-19T08:57:39Z</time>
      </trkpt>
      <trkpt lat="44.14997" lon="5.10897">
        <ele>306.8</ele>
        <time>2016-06-19T08:57:40Z</time>
      </trkpt>
      <trkpt lat="44.15001" lon="5.10908">
        <ele>307.28</ele>
        <time>2016-06-19T08:57:41Z</time>
      </trkpt>
      <trkpt lat="44.15018" lon="5.10955">
        <ele>308.24</ele>
        <time>2016-06-19T08:57:48Z</time>
      </trkpt>
      <trkpt lat="44.15019" lon="5.10958">
        <ele>308.24</ele>
        <time>2016-06-19T08:57:59Z</time>
      </trkpt>
      <trkpt lat="44.15031" lon="5.10987">
        <ele>308.72</ele>
        <time>2016-06-19T08:58:29Z</time>
      </trkpt>
      <trkpt lat="44.15059" lon="5.11062">
        <ele>311.12</ele>
        <time>2016-06-19T08:58:41Z</time>
      </trkpt>
      <trkpt lat="44.15073" lon="5.11103">
        <ele>312.57</ele>
        <time>2016-06-19T08:58:46Z</time>
      </trkpt>
      <trkpt lat="44.15084" lon="5.11213">
        <ele>315.93</ele>
        <time>2016-06-19T08:58:53Z</time>
      </trkpt>
      <trkpt lat="44.15087" lon="5.11231">
        <ele>316.41</ele>
        <time>2016-06-19T08:58:54Z</time>
      </trkpt>
      <trkpt lat="44.15093" lon="5.11248">
        <ele>316.89</ele>
        <time>2016-06-19T08:58:55Z</time>
      </trkpt>
      <trkpt lat="44.15101" lon="5.11264">
        <ele>317.37</ele>
        <time>2016-06-19T08:58:56Z</time>
      </trkpt>
      <trkpt lat="44.1511" lon="5.11278">
        <ele>317.85</ele>
        <time>2016-06-19T08:58:57Z</time>
      </trkpt>
      <trkpt lat="44.15121" lon="5.1129">
        <ele>318.33</ele>
        <time>2016-06-19T08:58:58Z</time>
      </trkpt>
      <trkpt lat="44.15132" lon="5.11301">
        <ele>318.81</ele>
        <time>2016-06-19T08:58:59Z</time>
      </trkpt>
      <trkpt lat="44.15154" lon="5.11322">
        <ele>320.26</ele>
        <time>2016-06-19T08:59:01Z</time>
      </trkpt>
      <trkpt lat="44.15164" lon="5.11336">
        <ele>320.74</ele>
        <time>2016-06-19T08:59:02Z</time>
      </trkpt>
      <trkpt lat="44.15171" lon="5.11352">
        <ele>321.22</ele>
        <time>2016-06-19T08:59:03Z</time>
      </trkpt>
      <trkpt lat="44.15177" lon="5.1137">
        <ele>321.7</ele>
        <time>2016-06-19T08:59:04Z</time>
      </trkpt>
      <trkpt lat="44.1518" lon="5.11389">
        <ele>322.18</ele>
        <time>2016-06-19T08:59:05Z</time>
      </trkpt>
      <trkpt lat="44.15179" lon="5.11408">
        <ele>322.66</ele>
        <time>2016-06-19T08:59:06Z</time>
      </trkpt>
      <trkpt lat="44.15177" lon="5.11428">
        <ele>323.62</ele>
        <time>2016-06-19T08:59:07Z</time>
      </trkpt>
      <trkpt lat="44.1517" lon="5.11448">
        <ele>324.1</ele>
        <time>2016-06-19T08:59:08Z</time>
      </trkpt>
      <trkpt lat="44.15164" lon="5.11468">
        <ele>324.58</ele>
        <time>2016-06-19T08:59:09Z</time>
      </trkpt>
      <trkpt lat="44.15159" lon="5.11488">
        <ele>325.06</ele>
        <time>2016-06-19T08:59:10Z</time>
      </trkpt>
      <trkpt lat="44.15155" lon="5.1151">
        <ele>326.02</ele>
        <time>2016-06-19T08:59:11Z</time>
      </trkpt>
      <trkpt lat="44.15152" lon="5.11532">
        <ele>326.5</ele>
        <time>2016-06-19T08:59:12Z</time>
      </trkpt>
      <trkpt lat="44.1515" lon="5.11555">
        <ele>327.47</ele>
        <time>2016-06-19T08:59:13Z</time>
      </trkpt>
      <trkpt lat="44.1515" lon="5.11579">
        <ele>327.95</ele>
        <time>2016-06-19T08:59:14Z</time>
      </trkpt>
      <trkpt lat="44.15152" lon="5.11605">
        <ele>328.43</ele>
        <time>2016-06-19T08:59:15Z</time>
      </trkpt>
      <trkpt lat="44.15156" lon="5.11633">
        <ele>329.39</ele>
        <time>2016-06-19T08:59:16Z</time>
      </trkpt>
      <trkpt lat="44.15163" lon="5.11667">
        <ele>329.87</ele>
        <time>2016-06-19T08:59:17Z</time>
      </trkpt>
      <trkpt lat="44.15172" lon="5.11701">
        <ele>330.35</ele>
        <time>2016-06-19T08:59:18Z</time>
      </trkpt>
      <trkpt lat="44.1523" lon="5.11996">
        <ele>339</ele>
        <time>2016-06-19T08:59:26Z</time>
      </trkpt>
      <trkpt lat="44.15297" lon="5.12323">
        <ele>352.46</ele>
        <time>2016-06-19T08:59:36Z</time>
      </trkpt>
      <trkpt lat="44.15309" lon="5.1235">
        <ele>353.9</ele>
        <time>2016-06-19T08:59:37Z</time>
      </trkpt>
      <trkpt lat="44.15434" lon="5.12575">
        <ele>365.92</ele>
        <time>2016-06-19T08:59:46Z</time>
      </trkpt>
      <trkpt lat="44.15442" lon="5.12603">
        <ele>366.88</ele>
        <time>2016-06-19T08:59:47Z</time>
      </trkpt>
      <trkpt lat="44.15446" lon="5.12635">
        <ele>368.32</ele>
        <time>2016-06-19T08:59:48Z</time>
      </trkpt>
      <trkpt lat="44.15448" lon="5.12669">
        <ele>369.76</ele>
        <time>2016-06-19T08:59:49Z</time>
      </trkpt>
      <trkpt lat="44.1545" lon="5.12704">
        <ele>371.21</ele>
        <time>2016-06-19T08:59:50Z</time>
      </trkpt>
      <trkpt lat="44.15458" lon="5.12873">
        <ele>377.45</ele>
        <time>2016-06-19T08:59:56Z</time>
      </trkpt>
      <trkpt lat="44.15462" lon="5.12932">
        <ele>379.86</ele>
        <time>2016-06-19T08:59:59Z</time>
      </trkpt>
      <trkpt lat="44.15466" lon="5.12948">
        <ele>380.34</ele>
        <time>2016-06-19T09:00:00Z</time>
      </trkpt>
      <trkpt lat="44.15473" lon="5.1296">
        <ele>381.3</ele>
        <time>2016-06-19T09:00:01Z</time>
      </trkpt>
      <trkpt lat="44.15484" lon="5.12968">
        <ele>381.78</ele>
        <time>2016-06-19T09:00:02Z</time>
      </trkpt>
      <trkpt lat="44.15494" lon="5.12971">
        <ele>381.78</ele>
        <time>2016-06-19T09:00:03Z</time>
      </trkpt>
      <trkpt lat="44.15507" lon="5.12968">
        <ele>381.78</ele>
        <time>2016-06-19T09:00:04Z</time>
      </trkpt>
      <trkpt lat="44.15524" lon="5.1296">
        <ele>382.74</ele>
        <time>2016-06-19T09:00:05Z</time>
      </trkpt>
      <trkpt lat="44.1554" lon="5.12951">
        <ele>383.7</ele>
        <time>2016-06-19T09:00:06Z</time>
      </trkpt>
      <trkpt lat="44.15561" lon="5.12938">
        <ele>384.18</ele>
        <time>2016-06-19T09:00:07Z</time>
      </trkpt>
      <trkpt lat="44.15583" lon="5.12924">
        <ele>385.15</ele>
        <time>2016-06-19T09:00:08Z</time>
      </trkpt>
      <trkpt lat="44.15755" lon="5.1282">
        <ele>391.87</ele>
        <time>2016-06-19T09:00:16Z</time>
      </trkpt>
      <trkpt lat="44.15773" lon="5.12799">
        <ele>392.84</ele>
        <time>2016-06-19T09:00:17Z</time>
      </trkpt>
      <trkpt lat="44.1579" lon="5.12778">
        <ele>393.32</ele>
        <time>2016-06-19T09:00:18Z</time>
      </trkpt>
      <trkpt lat="44.15888" lon="5.12648">
        <ele>400.53</ele>
        <time>2016-06-19T09:00:25Z</time>
      </trkpt>
      <trkpt lat="44.15948" lon="5.12577">
        <ele>403.41</ele>
        <time>2016-06-19T09:00:30Z</time>
      </trkpt>
      <trkpt lat="44.15962" lon="5.12572">
        <ele>403.89</ele>
        <time>2016-06-19T09:00:31Z</time>
      </trkpt>
      <trkpt lat="44.15976" lon="5.12571">
        <ele>404.37</ele>
        <time>2016-06-19T09:00:32Z</time>
      </trkpt>
      <trkpt lat="44.15991" lon="5.12574">
        <ele>404.85</ele>
        <time>2016-06-19T09:00:33Z</time>
      </trkpt>
      <trkpt lat="44.16006" lon="5.12584">
        <ele>405.33</ele>
        <time>2016-06-19T09:00:34Z</time>
      </trkpt>
      <trkpt lat="44.1602" lon="5.12597">
        <ele>406.29</ele>
        <time>2016-06-19T09:00:35Z</time>
      </trkpt>
      <trkpt lat="44.16033" lon="5.12611">
        <ele>406.77</ele>
        <time>2016-06-19T09:00:36Z</time>
      </trkpt>
      <trkpt lat="44.16088" lon="5.12669">
        <ele>408.22</ele>
        <time>2016-06-19T09:00:40Z</time>
      </trkpt>
      <trkpt lat="44.161" lon="5.12687">
        <ele>408.22</ele>
        <time>2016-06-19T09:00:41Z</time>
      </trkpt>
      <trkpt lat="44.16111" lon="5.12708">
        <ele>407.74</ele>
        <time>2016-06-19T09:00:42Z</time>
      </trkpt>
      <trkpt lat="44.16121" lon="5.12731">
        <ele>407.26</ele>
        <time>2016-06-19T09:00:43Z</time>
      </trkpt>
      <trkpt lat="44.1613" lon="5.12755">
        <ele>406.29</ele>
        <time>2016-06-19T09:00:44Z</time>
      </trkpt>
      <trkpt lat="44.16137" lon="5.12779">
        <ele>405.81</ele>
        <time>2016-06-19T09:00:45Z</time>
      </trkpt>
      <trkpt lat="44.16161" lon="5.12844">
        <ele>404.37</ele>
        <time>2016-06-19T09:00:48Z</time>
      </trkpt>
      <trkpt lat="44.16173" lon="5.12862">
        <ele>403.89</ele>
        <time>2016-06-19T09:00:49Z</time>
      </trkpt>
      <trkpt lat="44.16186" lon="5.12879">
        <ele>403.41</ele>
        <time>2016-06-19T09:00:50Z</time>
      </trkpt>
      <trkpt lat="44.16298" lon="5.1299">
        <ele>401.97</ele>
        <time>2016-06-19T09:00:58Z</time>
      </trkpt>
      <trkpt lat="44.16318" lon="5.12993">
        <ele>401.49</ele>
        <time>2016-06-19T09:01:00Z</time>
      </trkpt>
      <trkpt lat="44.16327" lon="5.12993">
        <ele>401.49</ele>
        <time>2016-06-19T09:01:01Z</time>
      </trkpt>
      <trkpt lat="44.16339" lon="5.12988">
        <ele>401.49</ele>
        <time>2016-06-19T09:01:02Z</time>
      </trkpt>
      <trkpt lat="44.1635" lon="5.12978">
        <ele>401.01</ele>
        <time>2016-06-19T09:01:03Z</time>
      </trkpt>
      <trkpt lat="44.16359" lon="5.12967">
        <ele>400.53</ele>
        <time>2016-06-19T09:01:04Z</time>
      </trkpt>
      <trkpt lat="44.16367" lon="5.12955">
        <ele>400.53</ele>
        <time>2016-06-19T09:01:05Z</time>
      </trkpt>
      <trkpt lat="44.16373" lon="5.12943">
        <ele>400.05</ele>
        <time>2016-06-19T09:01:06Z</time>
      </trkpt>
      <trkpt lat="44.16378" lon="5.1293">
        <ele>399.57</ele>
        <time>2016-06-19T09:01:07Z</time>
      </trkpt>
      <trkpt lat="44.16382" lon="5.12917">
        <ele>399.08</ele>
        <time>2016-06-19T09:01:08Z</time>
      </trkpt>
      <trkpt lat="44.16446" lon="5.12764">
        <ele>395.72</ele>
        <time>2016-06-19T09:01:18Z</time>
      </trkpt>
      <trkpt lat="44.16533" lon="5.12667">
        <ele>392.84</ele>
        <time>2016-06-19T09:01:27Z</time>
      </trkpt>
      <trkpt lat="44.16635" lon="5.12626">
        <ele>389.95</ele>
        <time>2016-06-19T09:01:36Z</time>
      </trkpt>
      <trkpt lat="44.16769" lon="5.12586">
        <ele>386.11</ele>
        <time>2016-06-19T09:01:46Z</time>
      </trkpt>
      <trkpt lat="44.16966" lon="5.12532">
        <ele>381.3</ele>
        <time>2016-06-19T09:01:55Z</time>
      </trkpt>
      <trkpt lat="44.17083" lon="5.12518">
        <ele>376.97</ele>
        <time>2016-06-19T09:02:02Z</time>
      </trkpt>
      <trkpt lat="44.17096" lon="5.12519">
        <ele>376.01</ele>
        <time>2016-06-19T09:02:03Z</time>
      </trkpt>
      <trkpt lat="44.1711" lon="5.12524">
        <ele>375.05</ele>
        <time>2016-06-19T09:02:04Z</time>
      </trkpt>
      <trkpt lat="44.17123" lon="5.12536">
        <ele>375.05</ele>
        <time>2016-06-19T09:02:05Z</time>
      </trkpt>
      <trkpt lat="44.17131" lon="5.12552">
        <ele>373.61</ele>
        <time>2016-06-19T09:02:06Z</time>
      </trkpt>
      <trkpt lat="44.17134" lon="5.12572">
        <ele>372.65</ele>
        <time>2016-06-19T09:02:07Z</time>
      </trkpt>
      <trkpt lat="44.17132" lon="5.12588">
        <ele>372.17</ele>
        <time>2016-06-19T09:02:08Z</time>
      </trkpt>
      <trkpt lat="44.17127" lon="5.12605">
        <ele>371.69</ele>
        <time>2016-06-19T09:02:09Z</time>
      </trkpt>
      <trkpt lat="44.17117" lon="5.12621">
        <ele>370.24</ele>
        <time>2016-06-19T09:02:10Z</time>
      </trkpt>
      <trkpt lat="44.171" lon="5.12638">
        <ele>370.73</ele>
        <time>2016-06-19T09:02:11Z</time>
      </trkpt>
      <trkpt lat="44.17084" lon="5.12651">
        <ele>369.76</ele>
        <time>2016-06-19T09:02:12Z</time>
      </trkpt>
      <trkpt lat="44.17066" lon="5.12664">
        <ele>369.76</ele>
        <time>2016-06-19T09:02:13Z</time>
      </trkpt>
      <trkpt lat="44.17049" lon="5.12676">
        <ele>369.76</ele>
        <time>2016-06-19T09:02:14Z</time>
      </trkpt>
      <trkpt lat="44.16963" lon="5.12745">
        <ele>366.88</ele>
        <time>2016-06-19T09:02:20Z</time>
      </trkpt>
      <trkpt lat="44.16951" lon="5.12761">
        <ele>365.92</ele>
        <time>2016-06-19T09:02:21Z</time>
      </trkpt>
      <trkpt lat="44.16941" lon="5.1278">
        <ele>364.96</ele>
        <time>2016-06-19T09:02:22Z</time>
      </trkpt>
      <trkpt lat="44.16933" lon="5.12801">
        <ele>364.48</ele>
        <time>2016-06-19T09:02:23Z</time>
      </trkpt>
      <trkpt lat="44.16927" lon="5.12822">
        <ele>363.52</ele>
        <time>2016-06-19T09:02:24Z</time>
      </trkpt>
      <trkpt lat="44.16923" lon="5.12841">
        <ele>363.04</ele>
        <time>2016-06-19T09:02:25Z</time>
      </trkpt>
      <trkpt lat="44.16896" lon="5.12964">
        <ele>358.71</ele>
        <time>2016-06-19T09:02:33Z</time>
      </trkpt>
      <trkpt lat="44.16876" lon="5.13053">
        <ele>355.34</ele>
        <time>2016-06-19T09:02:41Z</time>
      </trkpt>
      <trkpt lat="44.16876" lon="5.13068">
        <ele>354.86</ele>
        <time>2016-06-19T09:02:42Z</time>
      </trkpt>
      <trkpt lat="44.16879" lon="5.13082">
        <ele>354.38</ele>
        <time>2016-06-19T09:02:43Z</time>
      </trkpt>
      <trkpt lat="44.16884" lon="5.13095">
        <ele>353.9</ele>
        <time>2016-06-19T09:02:44Z</time>
      </trkpt>
      <trkpt lat="44.16892" lon="5.13107">
        <ele>353.9</ele>
        <time>2016-06-19T09:02:45Z</time>
      </trkpt>
      <trkpt lat="44.16901" lon="5.13115">
        <ele>352.94</ele>
        <time>2016-06-19T09:02:46Z</time>
      </trkpt>
      <trkpt lat="44.16912" lon="5.13121">
        <ele>352.46</ele>
        <time>2016-06-19T09:02:47Z</time>
      </trkpt>
      <trkpt lat="44.16923" lon="5.13126">
        <ele>352.46</ele>
        <time>2016-06-19T09:02:48Z</time>
      </trkpt>
      <trkpt lat="44.17025" lon="5.13167">
        <ele>348.13</ele>
        <time>2016-06-19T09:02:57Z</time>
      </trkpt>
      <trkpt lat="44.17143" lon="5.1321">
        <ele>346.69</ele>
        <time>2016-06-19T09:03:09Z</time>
      </trkpt>
      <trkpt lat="44.17154" lon="5.13213">
        <ele>345.73</ele>
        <time>2016-06-19T09:03:11Z</time>
      </trkpt>
      <trkpt lat="44.17159" lon="5.13215">
        <ele>345.25</ele>
        <time>2016-06-19T09:03:12Z</time>
      </trkpt>
      <trkpt lat="44.17186" lon="5.13231">
        <ele>344.29</ele>
        <time>2016-06-19T09:03:16Z</time>
      </trkpt>
      <trkpt lat="44.17192" lon="5.13239">
        <ele>342.85</ele>
        <time>2016-06-19T09:03:17Z</time>
      </trkpt>
      <trkpt lat="44.17197" lon="5.13248">
        <ele>341.89</ele>
        <time>2016-06-19T09:03:18Z</time>
      </trkpt>
      <trkpt lat="44.17202" lon="5.13259">
        <ele>341.41</ele>
        <time>2016-06-19T09:03:19Z</time>
      </trkpt>
      <trkpt lat="44.17205" lon="5.1327">
        <ele>340.92</ele>
        <time>2016-06-19T09:03:20Z</time>
      </trkpt>
      <trkpt lat="44.17207" lon="5.13281">
        <ele>339.96</ele>
        <time>2016-06-19T09:03:21Z</time>
      </trkpt>
      <trkpt lat="44.17209" lon="5.13293">
        <ele>339.48</ele>
        <time>2016-06-19T09:03:22Z</time>
      </trkpt>
      <trkpt lat="44.17224" lon="5.13326">
        <ele>337.08</ele>
        <time>2016-06-19T09:03:26Z</time>
      </trkpt>
      <trkpt lat="44.17229" lon="5.13332">
        <ele>337.08</ele>
        <time>2016-06-19T09:03:27Z</time>
      </trkpt>
      <trkpt lat="44.17233" lon="5.13337">
        <ele>336.6</ele>
        <time>2016-06-19T09:03:28Z</time>
      </trkpt>
      <trkpt lat="44.17252" lon="5.13356">
        <ele>335.64</ele>
        <time>2016-06-19T09:03:32Z</time>
      </trkpt>
      <trkpt lat="44.17268" lon="5.13364">
        <ele>336.12</ele>
        <time>2016-06-19T09:03:35Z</time>
      </trkpt>
      <trkpt lat="44.17274" lon="5.13363">
        <ele>336.6</ele>
        <time>2016-06-19T09:03:36Z</time>
      </trkpt>
      <trkpt lat="44.17285" lon="5.13362">
        <ele>335.16</ele>
        <time>2016-06-19T09:03:38Z</time>
      </trkpt>
      <trkpt lat="44.1729" lon="5.13361">
        <ele>334.68</ele>
        <time>2016-06-19T09:03:39Z</time>
      </trkpt>
      <trkpt lat="44.17308" lon="5.1336">
        <ele>333.23</ele>
        <time>2016-06-19T09:03:42Z</time>
      </trkpt>
      <trkpt lat="44.17313" lon="5.13361">
        <ele>333.23</ele>
        <time>2016-06-19T09:03:43Z</time>
      </trkpt>
      <trkpt lat="44.17329" lon="5.13364">
        <ele>335.16</ele>
        <time>2016-06-19T09:03:47Z</time>
      </trkpt>
      <trkpt lat="44.17337" lon="5.13361">
        <ele>335.16</ele>
        <time>2016-06-19T09:03:49Z</time>
      </trkpt>
      <trkpt lat="44.17342" lon="5.1336">
        <ele>335.64</ele>
        <time>2016-06-19T09:03:50Z</time>
      </trkpt>
      <trkpt lat="44.17347" lon="5.13357">
        <ele>336.12</ele>
        <time>2016-06-19T09:03:51Z</time>
      </trkpt>
      <trkpt lat="44.17351" lon="5.13353">
        <ele>335.64</ele>
        <time>2016-06-19T09:03:52Z</time>
      </trkpt>
      <trkpt lat="44.17355" lon="5.1335">
        <ele>335.64</ele>
        <time>2016-06-19T09:03:53Z</time>
      </trkpt>
      <trkpt lat="44.17423" lon="5.13286">
        <ele>331.31</ele>
        <time>2016-06-19T09:04:09Z</time>
      </trkpt>
      <trkpt lat="44.17484" lon="5.13225">
        <ele>327.47</ele>
        <time>2016-06-19T09:04:23Z</time>
      </trkpt>
      <trkpt lat="44.17501" lon="5.13208">
        <ele>326.99</ele>
        <time>2016-06-19T09:04:27Z</time>
      </trkpt>
      <trkpt lat="44.17505" lon="5.13207">
        <ele>326.5</ele>
        <time>2016-06-19T09:04:28Z</time>
      </trkpt>
      <trkpt lat="44.17509" lon="5.13208">
        <ele>326.02</ele>
        <time>2016-06-19T09:04:29Z</time>
      </trkpt>
      <trkpt lat="44.17511" lon="5.13211">
        <ele>326.02</ele>
        <time>2016-06-19T09:04:30Z</time>
      </trkpt>
      <trkpt lat="44.17512" lon="5.13215">
        <ele>326.02</ele>
        <time>2016-06-19T09:04:31Z</time>
      </trkpt>
      <trkpt lat="44.17512" lon="5.1322">
        <ele>326.02</ele>
        <time>2016-06-19T09:04:32Z</time>
      </trkpt>
      <trkpt lat="44.17511" lon="5.13225">
        <ele>326.02</ele>
        <time>2016-06-19T09:04:33Z</time>
      </trkpt>
      <trkpt lat="44.17508" lon="5.13228">
        <ele>326.02</ele>
        <time>2016-06-19T09:04:34Z</time>
      </trkpt>
      <trkpt lat="44.17504" lon="5.1323">
        <ele>326.02</ele>
        <time>2016-06-19T09:04:35Z</time>
      </trkpt>
      <trkpt lat="44.175" lon="5.1323">
        <ele>326.02</ele>
        <time>2016-06-19T09:04:36Z</time>
      </trkpt>
      <trkpt lat="44.17496" lon="5.1323">
        <ele>326.02</ele>
        <time>2016-06-19T09:04:37Z</time>
      </trkpt>
      <trkpt lat="44.17493" lon="5.13231">
        <ele>326.02</ele>
        <time>2016-06-19T09:04:38Z</time>
      </trkpt>
      <trkpt lat="44.17491" lon="5.13233">
        <ele>326.02</ele>
        <time>2016-06-19T09:04:39Z</time>
      </trkpt>
      <trkpt lat="44.1749" lon="5.13234">
        <ele>325.54</ele>
        <time>2016-06-19T09:04:40Z</time>
      </trkpt>
      <trkpt lat="44.17488" lon="5.13237">
        <ele>325.06</ele>
        <time>2016-06-19T09:04:42Z</time>
      </trkpt>
      <trkpt lat="44.17488" lon="5.13239">
        <ele>325.06</ele>
        <time>2016-06-19T09:04:43Z</time>
      </trkpt>
      <trkpt lat="44.17488" lon="5.13241">
        <ele>324.1</ele>
        <time>2016-06-19T09:04:57Z</time>
      </trkpt>
      <trkpt lat="44.17488" lon="5.13242">
        <ele>323.14</ele>
        <time>2016-06-19T09:05:01Z</time>
      </trkpt>
      <trkpt lat="44.17458" lon="5.13277">
        <ele>332.27</ele>
        <time>2016-06-19T09:20:29Z</time>
      </trkpt>
      <trkpt lat="44.17458" lon="5.1328">
        <ele>334.68</ele>
        <time>2016-06-19T09:20:57Z</time>
      </trkpt>
      <trkpt lat="44.17457" lon="5.13278">
        <ele>331.79</ele>
        <time>2016-06-19T09:21:28Z</time>
      </trkpt>
      <trkpt lat="44.17456" lon="5.1328">
        <ele>336.6</ele>
        <time>2016-06-19T09:21:56Z</time>
      </trkpt>
      <trkpt lat="44.17458" lon="5.13283">
        <ele>335.16</ele>
        <time>2016-06-19T09:22:25Z</time>
      </trkpt>
      <trkpt lat="44.1746" lon="5.13279">
        <ele>335.16</ele>
        <time>2016-06-19T09:23:14Z</time>
      </trkpt>
      <trkpt lat="44.17464" lon="5.1328">
        <ele>334.2</ele>
        <time>2016-06-19T09:23:51Z</time>
      </trkpt>
      <trkpt lat="44.17456" lon="5.13271">
        <ele>342.85</ele>
        <time>2016-06-19T09:24:35Z</time>
      </trkpt>
      <trkpt lat="44.17455" lon="5.13272">
        <ele>342.37</ele>
        <time>2016-06-19T09:24:56Z</time>
      </trkpt>
      <trkpt lat="44.17459" lon="5.13281">
        <ele>333.71</ele>
        <time>2016-06-19T09:25:08Z</time>
      </trkpt>
      <trkpt lat="44.17461" lon="5.13285">
        <ele>333.71</ele>
        <time>2016-06-19T09:25:20Z</time>
      </trkpt>
      <trkpt lat="44.1746" lon="5.13286">
        <ele>334.2</ele>
        <time>2016-06-19T09:25:38Z</time>
      </trkpt>
      <trkpt lat="44.17458" lon="5.13284">
        <ele>334.2</ele>
        <time>2016-06-19T09:26:06Z</time>
      </trkpt>
      <trkpt lat="44.17492" lon="5.13246">
        <ele>320.74</ele>
        <time>2016-06-19T09:43:42Z</time>
      </trkpt>
      <trkpt lat="44.17491" lon="5.13243">
        <ele>323.14</ele>
        <time>2016-06-19T09:44:12Z</time>
      </trkpt>
      <trkpt lat="44.1749" lon="5.13242">
        <ele>326.02</ele>
        <time>2016-06-19T09:44:39Z</time>
      </trkpt>
      <trkpt lat="44.17485" lon="5.13251">
        <ele>326.5</ele>
        <time>2016-06-19T09:44:43Z</time>
      </trkpt>
      <trkpt lat="44.17462" lon="5.13274">
        <ele>328.43</ele>
        <time>2016-06-19T09:44:58Z</time>
      </trkpt>
      <trkpt lat="44.17437" lon="5.13301">
        <ele>327.95</ele>
        <time>2016-06-19T09:45:12Z</time>
      </trkpt>
      <trkpt lat="44.17426" lon="5.13313">
        <ele>326.99</ele>
        <time>2016-06-19T09:45:19Z</time>
      </trkpt>
      <trkpt lat="44.17411" lon="5.13313">
        <ele>326.5</ele>
        <time>2016-06-19T09:45:30Z</time>
      </trkpt>
      <trkpt lat="44.1741" lon="5.13313">
        <ele>327.47</ele>
        <time>2016-06-19T09:45:38Z</time>
      </trkpt>
      <trkpt lat="44.17404" lon="5.13313">
        <ele>327.47</ele>
        <time>2016-06-19T09:45:40Z</time>
      </trkpt>
      <trkpt lat="44.174" lon="5.13315">
        <ele>327.95</ele>
        <time>2016-06-19T09:45:41Z</time>
      </trkpt>
      <trkpt lat="44.17396" lon="5.13318">
        <ele>328.43</ele>
        <time>2016-06-19T09:45:42Z</time>
      </trkpt>
      <trkpt lat="44.17392" lon="5.13322">
        <ele>328.91</ele>
        <time>2016-06-19T09:45:43Z</time>
      </trkpt>
      <trkpt lat="44.17343" lon="5.1337">
        <ele>331.31</ele>
        <time>2016-06-19T09:45:53Z</time>
      </trkpt>
      <trkpt lat="44.17338" lon="5.13373">
        <ele>331.31</ele>
        <time>2016-06-19T09:45:54Z</time>
      </trkpt>
      <trkpt lat="44.17333" lon="5.13375">
        <ele>331.31</ele>
        <time>2016-06-19T09:45:55Z</time>
      </trkpt>
      <trkpt lat="44.17328" lon="5.13377">
        <ele>332.27</ele>
        <time>2016-06-19T09:45:56Z</time>
      </trkpt>
      <trkpt lat="44.17322" lon="5.13378">
        <ele>334.2</ele>
        <time>2016-06-19T09:45:57Z</time>
      </trkpt>
      <trkpt lat="44.17318" lon="5.13381">
        <ele>335.64</ele>
        <time>2016-06-19T09:45:58Z</time>
      </trkpt>
      <trkpt lat="44.17312" lon="5.13384">
        <ele>335.64</ele>
        <time>2016-06-19T09:45:59Z</time>
      </trkpt>
      <trkpt lat="44.17308" lon="5.13389">
        <ele>336.6</ele>
        <time>2016-06-19T09:46:00Z</time>
      </trkpt>
      <trkpt lat="44.17307" lon="5.13397">
        <ele>336.6</ele>
        <time>2016-06-19T09:46:01Z</time>
      </trkpt>
      <trkpt lat="44.17307" lon="5.13406">
        <ele>337.08</ele>
        <time>2016-06-19T09:46:02Z</time>
      </trkpt>
      <trkpt lat="44.17307" lon="5.13413">
        <ele>337.56</ele>
        <time>2016-06-19T09:46:03Z</time>
      </trkpt>
      <trkpt lat="44.17308" lon="5.13418">
        <ele>337.08</ele>
        <time>2016-06-19T09:46:04Z</time>
      </trkpt>
      <trkpt lat="44.17309" lon="5.13422">
        <ele>336.6</ele>
        <time>2016-06-19T09:46:05Z</time>
      </trkpt>
      <trkpt lat="44.17315" lon="5.13449">
        <ele>345.25</ele>
        <time>2016-06-19T09:46:17Z</time>
      </trkpt>
      <trkpt lat="44.1731" lon="5.13467">
        <ele>342.85</ele>
        <time>2016-06-19T09:46:33Z</time>
      </trkpt>
      <trkpt lat="44.17312" lon="5.13508">
        <ele>344.77</ele>
        <time>2016-06-19T09:46:37Z</time>
      </trkpt>
      <trkpt lat="44.17313" lon="5.13518">
        <ele>345.25</ele>
        <time>2016-06-19T09:46:38Z</time>
      </trkpt>
      <trkpt lat="44.17314" lon="5.1353">
        <ele>345.25</ele>
        <time>2016-06-19T09:46:39Z</time>
      </trkpt>
      <trkpt lat="44.17314" lon="5.13541">
        <ele>345.25</ele>
        <time>2016-06-19T09:46:40Z</time>
      </trkpt>
      <trkpt lat="44.17314" lon="5.13553">
        <ele>346.21</ele>
        <time>2016-06-19T09:46:41Z</time>
      </trkpt>
      <trkpt lat="44.17313" lon="5.13563">
        <ele>347.17</ele>
        <time>2016-06-19T09:46:42Z</time>
      </trkpt>
      <trkpt lat="44.17294" lon="5.13665">
        <ele>351.02</ele>
        <time>2016-06-19T09:46:49Z</time>
      </trkpt>
      <trkpt lat="44.17281" lon="5.13705">
        <ele>351.5</ele>
        <time>2016-06-19T09:46:52Z</time>
      </trkpt>
      <trkpt lat="44.17275" lon="5.13716">
        <ele>351.98</ele>
        <time>2016-06-19T09:46:53Z</time>
      </trkpt>
      <trkpt lat="44.17266" lon="5.13726">
        <ele>351.98</ele>
        <time>2016-06-19T09:46:54Z</time>
      </trkpt>
      <trkpt lat="44.1718" lon="5.13809">
        <ele>357.75</ele>
        <time>2016-06-19T09:47:02Z</time>
      </trkpt>
      <trkpt lat="44.17171" lon="5.13821">
        <ele>358.71</ele>
        <time>2016-06-19T09:47:03Z</time>
      </trkpt>
      <trkpt lat="44.17163" lon="5.13836">
        <ele>359.67</ele>
        <time>2016-06-19T09:47:04Z</time>
      </trkpt>
      <trkpt lat="44.17157" lon="5.13852">
        <ele>361.11</ele>
        <time>2016-06-19T09:47:05Z</time>
      </trkpt>
      <trkpt lat="44.17151" lon="5.13868">
        <ele>362.07</ele>
        <time>2016-06-19T09:47:06Z</time>
      </trkpt>
      <trkpt lat="44.17131" lon="5.13915">
        <ele>365.44</ele>
        <time>2016-06-19T09:47:09Z</time>
      </trkpt>
      <trkpt lat="44.17121" lon="5.13929">
        <ele>365.92</ele>
        <time>2016-06-19T09:47:10Z</time>
      </trkpt>
      <trkpt lat="44.17109" lon="5.13941">
        <ele>366.88</ele>
        <time>2016-06-19T09:47:11Z</time>
      </trkpt>
      <trkpt lat="44.17088" lon="5.13964">
        <ele>368.32</ele>
        <time>2016-06-19T09:47:13Z</time>
      </trkpt>
      <trkpt lat="44.17079" lon="5.13979">
        <ele>368.8</ele>
        <time>2016-06-19T09:47:14Z</time>
      </trkpt>
      <trkpt lat="44.17073" lon="5.13995">
        <ele>369.28</ele>
        <time>2016-06-19T09:47:15Z</time>
      </trkpt>
      <trkpt lat="44.17069" lon="5.14012">
        <ele>369.76</ele>
        <time>2016-06-19T09:47:16Z</time>
      </trkpt>
      <trkpt lat="44.17064" lon="5.14029">
        <ele>370.73</ele>
        <time>2016-06-19T09:47:17Z</time>
      </trkpt>
      <trkpt lat="44.17057" lon="5.14046">
        <ele>371.69</ele>
        <time>2016-06-19T09:47:18Z</time>
      </trkpt>
      <trkpt lat="44.17049" lon="5.14061">
        <ele>372.65</ele>
        <time>2016-06-19T09:47:19Z</time>
      </trkpt>
      <trkpt lat="44.17039" lon="5.14075">
        <ele>373.61</ele>
        <time>2016-06-19T09:47:20Z</time>
      </trkpt>
      <trkpt lat="44.17028" lon="5.14088">
        <ele>374.09</ele>
        <time>2016-06-19T09:47:21Z</time>
      </trkpt>
      <trkpt lat="44.17008" lon="5.14118">
        <ele>376.49</ele>
        <time>2016-06-19T09:47:23Z</time>
      </trkpt>
      <trkpt lat="44.16999" lon="5.14135">
        <ele>377.94</ele>
        <time>2016-06-19T09:47:24Z</time>
      </trkpt>
      <trkpt lat="44.16979" lon="5.1417">
        <ele>380.34</ele>
        <time>2016-06-19T09:47:26Z</time>
      </trkpt>
      <trkpt lat="44.16967" lon="5.14186">
        <ele>381.3</ele>
        <time>2016-06-19T09:47:27Z</time>
      </trkpt>
      <trkpt lat="44.16858" lon="5.14369">
        <ele>391.39</ele>
        <time>2016-06-19T09:47:38Z</time>
      </trkpt>
      <trkpt lat="44.16853" lon="5.14389">
        <ele>392.36</ele>
        <time>2016-06-19T09:47:39Z</time>
      </trkpt>
      <trkpt lat="44.16848" lon="5.1441">
        <ele>393.32</ele>
        <time>2016-06-19T09:47:40Z</time>
      </trkpt>
      <trkpt lat="44.16845" lon="5.14431">
        <ele>394.76</ele>
        <time>2016-06-19T09:47:41Z</time>
      </trkpt>
      <trkpt lat="44.16804" lon="5.14621">
        <ele>400.05</ele>
        <time>2016-06-19T09:47:49Z</time>
      </trkpt>
      <trkpt lat="44.16735" lon="5.14846">
        <ele>405.33</ele>
        <time>2016-06-19T09:47:59Z</time>
      </trkpt>
      <trkpt lat="44.16725" lon="5.14861">
        <ele>405.33</ele>
        <time>2016-06-19T09:48:00Z</time>
      </trkpt>
      <trkpt lat="44.16714" lon="5.14869">
        <ele>405.33</ele>
        <time>2016-06-19T09:48:01Z</time>
      </trkpt>
      <trkpt lat="44.167" lon="5.14873">
        <ele>405.33</ele>
        <time>2016-06-19T09:48:02Z</time>
      </trkpt>
      <trkpt lat="44.16687" lon="5.14874">
        <ele>405.33</ele>
        <time>2016-06-19T09:48:03Z</time>
      </trkpt>
      <trkpt lat="44.16675" lon="5.14869">
        <ele>404.85</ele>
        <time>2016-06-19T09:48:04Z</time>
      </trkpt>
      <trkpt lat="44.16663" lon="5.14862">
        <ele>404.85</ele>
        <time>2016-06-19T09:48:05Z</time>
      </trkpt>
      <trkpt lat="44.16653" lon="5.14846">
        <ele>404.85</ele>
        <time>2016-06-19T09:48:06Z</time>
      </trkpt>
      <trkpt lat="44.16641" lon="5.14827">
        <ele>403.89</ele>
        <time>2016-06-19T09:48:07Z</time>
      </trkpt>
      <trkpt lat="44.16635" lon="5.1481">
        <ele>404.37</ele>
        <time>2016-06-19T09:48:08Z</time>
      </trkpt>
      <trkpt lat="44.16629" lon="5.14793">
        <ele>403.89</ele>
        <time>2016-06-19T09:48:09Z</time>
      </trkpt>
      <trkpt lat="44.16623" lon="5.14773">
        <ele>405.81</ele>
        <time>2016-06-19T09:48:10Z</time>
      </trkpt>
      <trkpt lat="44.16616" lon="5.14757">
        <ele>406.29</ele>
        <time>2016-06-19T09:48:11Z</time>
      </trkpt>
      <trkpt lat="44.16588" lon="5.14728">
        <ele>407.26</ele>
        <time>2016-06-19T09:48:14Z</time>
      </trkpt>
      <trkpt lat="44.16575" lon="5.14724">
        <ele>408.7</ele>
        <time>2016-06-19T09:48:15Z</time>
      </trkpt>
      <trkpt lat="44.16546" lon="5.14696">
        <ele>413.02</ele>
        <time>2016-06-19T09:48:18Z</time>
      </trkpt>
      <trkpt lat="44.16543" lon="5.14681">
        <ele>413.5</ele>
        <time>2016-06-19T09:48:19Z</time>
      </trkpt>
      <trkpt lat="44.16539" lon="5.14663">
        <ele>414.47</ele>
        <time>2016-06-19T09:48:20Z</time>
      </trkpt>
      <trkpt lat="44.16539" lon="5.14643">
        <ele>415.43</ele>
        <time>2016-06-19T09:48:21Z</time>
      </trkpt>
      <trkpt lat="44.16542" lon="5.1462">
        <ele>416.39</ele>
        <time>2016-06-19T09:48:22Z</time>
      </trkpt>
      <trkpt lat="44.16546" lon="5.14598">
        <ele>417.83</ele>
        <time>2016-06-19T09:48:23Z</time>
      </trkpt>
      <trkpt lat="44.16551" lon="5.14576">
        <ele>420.71</ele>
        <time>2016-06-19T09:48:24Z</time>
      </trkpt>
      <trkpt lat="44.16553" lon="5.14558">
        <ele>422.16</ele>
        <time>2016-06-19T09:48:25Z</time>
      </trkpt>
      <trkpt lat="44.16553" lon="5.14542">
        <ele>424.08</ele>
        <time>2016-06-19T09:48:26Z</time>
      </trkpt>
      <trkpt lat="44.16552" lon="5.14528">
        <ele>424.56</ele>
        <time>2016-06-19T09:48:27Z</time>
      </trkpt>
      <trkpt lat="44.16546" lon="5.14518">
        <ele>425.52</ele>
        <time>2016-06-19T09:48:28Z</time>
      </trkpt>
      <trkpt lat="44.16538" lon="5.14511">
        <ele>426.96</ele>
        <time>2016-06-19T09:48:29Z</time>
      </trkpt>
      <trkpt lat="44.16526" lon="5.14504">
        <ele>427.44</ele>
        <time>2016-06-19T09:48:30Z</time>
      </trkpt>
      <trkpt lat="44.16518" lon="5.14494">
        <ele>429.37</ele>
        <time>2016-06-19T09:48:31Z</time>
      </trkpt>
      <trkpt lat="44.16508" lon="5.14482">
        <ele>430.33</ele>
        <time>2016-06-19T09:48:32Z</time>
      </trkpt>
      <trkpt lat="44.165" lon="5.14465">
        <ele>432.25</ele>
        <time>2016-06-19T09:48:33Z</time>
      </trkpt>
      <trkpt lat="44.16493" lon="5.14447">
        <ele>434.17</ele>
        <time>2016-06-19T09:48:34Z</time>
      </trkpt>
      <trkpt lat="44.16494" lon="5.14431">
        <ele>435.13</ele>
        <time>2016-06-19T09:48:35Z</time>
      </trkpt>
      <trkpt lat="44.16496" lon="5.14415">
        <ele>436.1</ele>
        <time>2016-06-19T09:48:36Z</time>
      </trkpt>
      <trkpt lat="44.165" lon="5.14399">
        <ele>437.06</ele>
        <time>2016-06-19T09:48:37Z</time>
      </trkpt>
      <trkpt lat="44.16502" lon="5.14381">
        <ele>438.5</ele>
        <time>2016-06-19T09:48:38Z</time>
      </trkpt>
      <trkpt lat="44.16502" lon="5.14366">
        <ele>439.46</ele>
        <time>2016-06-19T09:48:39Z</time>
      </trkpt>
      <trkpt lat="44.16501" lon="5.14351">
        <ele>440.42</ele>
        <time>2016-06-19T09:48:40Z</time>
      </trkpt>
      <trkpt lat="44.16497" lon="5.14341">
        <ele>441.86</ele>
        <time>2016-06-19T09:48:41Z</time>
      </trkpt>
      <trkpt lat="44.16458" lon="5.14239">
        <ele>450.52</ele>
        <time>2016-06-19T09:48:48Z</time>
      </trkpt>
      <trkpt lat="44.16441" lon="5.14226">
        <ele>451.96</ele>
        <time>2016-06-19T09:48:49Z</time>
      </trkpt>
      <trkpt lat="44.16425" lon="5.14208">
        <ele>452.44</ele>
        <time>2016-06-19T09:48:50Z</time>
      </trkpt>
      <trkpt lat="44.16411" lon="5.1419">
        <ele>454.36</ele>
        <time>2016-06-19T09:48:51Z</time>
      </trkpt>
      <trkpt lat="44.164" lon="5.14173">
        <ele>455.32</ele>
        <time>2016-06-19T09:48:52Z</time>
      </trkpt>
      <trkpt lat="44.16354" lon="5.14126">
        <ele>459.17</ele>
        <time>2016-06-19T09:48:56Z</time>
      </trkpt>
      <trkpt lat="44.16342" lon="5.14119">
        <ele>458.21</ele>
        <time>2016-06-19T09:48:57Z</time>
      </trkpt>
      <trkpt lat="44.1633" lon="5.14115">
        <ele>458.69</ele>
        <time>2016-06-19T09:48:58Z</time>
      </trkpt>
      <trkpt lat="44.16318" lon="5.14114">
        <ele>459.65</ele>
        <time>2016-06-19T09:48:59Z</time>
      </trkpt>
      <trkpt lat="44.16302" lon="5.14118">
        <ele>461.09</ele>
        <time>2016-06-19T09:49:00Z</time>
      </trkpt>
      <trkpt lat="44.16284" lon="5.14118">
        <ele>462.05</ele>
        <time>2016-06-19T09:49:01Z</time>
      </trkpt>
      <trkpt lat="44.16214" lon="5.1412">
        <ele>465.9</ele>
        <time>2016-06-19T09:49:04Z</time>
      </trkpt>
      <trkpt lat="44.1606" lon="5.14148">
        <ele>479.35</ele>
        <time>2016-06-19T09:49:11Z</time>
      </trkpt>
      <trkpt lat="44.16021" lon="5.14168">
        <ele>483.68</ele>
        <time>2016-06-19T09:49:13Z</time>
      </trkpt>
      <trkpt lat="44.16003" lon="5.14185">
        <ele>486.56</ele>
        <time>2016-06-19T09:49:14Z</time>
      </trkpt>
      <trkpt lat="44.15989" lon="5.14206">
        <ele>488.01</ele>
        <time>2016-06-19T09:49:15Z</time>
      </trkpt>
      <trkpt lat="44.15977" lon="5.14228">
        <ele>489.93</ele>
        <time>2016-06-19T09:49:16Z</time>
      </trkpt>
      <trkpt lat="44.1597" lon="5.14252">
        <ele>491.85</ele>
        <time>2016-06-19T09:49:17Z</time>
      </trkpt>
      <trkpt lat="44.15967" lon="5.14274">
        <ele>493.29</ele>
        <time>2016-06-19T09:49:18Z</time>
      </trkpt>
      <trkpt lat="44.15967" lon="5.14297">
        <ele>492.33</ele>
        <time>2016-06-19T09:49:19Z</time>
      </trkpt>
      <trkpt lat="44.1597" lon="5.14319">
        <ele>492.81</ele>
        <time>2016-06-19T09:49:20Z</time>
      </trkpt>
      <trkpt lat="44.15984" lon="5.14341">
        <ele>497.62</ele>
        <time>2016-06-19T09:49:21Z</time>
      </trkpt>
      <trkpt lat="44.15999" lon="5.14359">
        <ele>500.98</ele>
        <time>2016-06-19T09:49:22Z</time>
      </trkpt>
      <trkpt lat="44.16012" lon="5.14379">
        <ele>500.98</ele>
        <time>2016-06-19T09:49:23Z</time>
      </trkpt>
      <trkpt lat="44.16033" lon="5.14398">
        <ele>506.27</ele>
        <time>2016-06-19T09:49:24Z</time>
      </trkpt>
      <trkpt lat="44.16054" lon="5.14417">
        <ele>510.12</ele>
        <time>2016-06-19T09:49:25Z</time>
      </trkpt>
      <trkpt lat="44.16073" lon="5.14436">
        <ele>513</ele>
        <time>2016-06-19T09:49:26Z</time>
      </trkpt>
      <trkpt lat="44.1609" lon="5.14454">
        <ele>515.4</ele>
        <time>2016-06-19T09:49:27Z</time>
      </trkpt>
      <trkpt lat="44.16125" lon="5.1453">
        <ele>525.98</ele>
        <time>2016-06-19T09:49:31Z</time>
      </trkpt>
      <trkpt lat="44.16127" lon="5.14551">
        <ele>528.38</ele>
        <time>2016-06-19T09:49:32Z</time>
      </trkpt>
      <trkpt lat="44.16131" lon="5.14571">
        <ele>530.79</ele>
        <time>2016-06-19T09:49:33Z</time>
      </trkpt>
      <trkpt lat="44.16137" lon="5.1459">
        <ele>532.23</ele>
        <time>2016-06-19T09:49:34Z</time>
      </trkpt>
      <trkpt lat="44.16142" lon="5.1461">
        <ele>534.15</ele>
        <time>2016-06-19T09:49:35Z</time>
      </trkpt>
      <trkpt lat="44.16147" lon="5.14652">
        <ele>538.48</ele>
        <time>2016-06-19T09:49:37Z</time>
      </trkpt>
      <trkpt lat="44.16149" lon="5.14697">
        <ele>542.32</ele>
        <time>2016-06-19T09:49:40Z</time>
      </trkpt>
      <trkpt lat="44.16145" lon="5.14708">
        <ele>543.76</ele>
        <time>2016-06-19T09:49:41Z</time>
      </trkpt>
      <trkpt lat="44.16138" lon="5.14715">
        <ele>544.72</ele>
        <time>2016-06-19T09:49:42Z</time>
      </trkpt>
      <trkpt lat="44.16122" lon="5.14705">
        <ele>549.05</ele>
        <time>2016-06-19T09:49:43Z</time>
      </trkpt>
      <trkpt lat="44.16109" lon="5.14697">
        <ele>550.97</ele>
        <time>2016-06-19T09:49:44Z</time>
      </trkpt>
      <trkpt lat="44.16094" lon="5.14687">
        <ele>552.41</ele>
        <time>2016-06-19T09:49:45Z</time>
      </trkpt>
      <trkpt lat="44.16079" lon="5.14685">
        <ele>552.41</ele>
        <time>2016-06-19T09:49:46Z</time>
      </trkpt>
      <trkpt lat="44.16047" lon="5.14698">
        <ele>556.26</ele>
        <time>2016-06-19T09:49:49Z</time>
      </trkpt>
      <trkpt lat="44.16042" lon="5.14711">
        <ele>557.7</ele>
        <time>2016-06-19T09:49:50Z</time>
      </trkpt>
      <trkpt lat="44.16037" lon="5.1473">
        <ele>558.66</ele>
        <time>2016-06-19T09:49:51Z</time>
      </trkpt>
      <trkpt lat="44.16032" lon="5.1475">
        <ele>559.62</ele>
        <time>2016-06-19T09:49:52Z</time>
      </trkpt>
      <trkpt lat="44.16026" lon="5.14766">
        <ele>560.59</ele>
        <time>2016-06-19T09:49:53Z</time>
      </trkpt>
      <trkpt lat="44.1599" lon="5.14879">
        <ele>567.8</ele>
        <time>2016-06-19T09:49:59Z</time>
      </trkpt>
      <trkpt lat="44.15983" lon="5.14919">
        <ele>571.16</ele>
        <time>2016-06-19T09:50:02Z</time>
      </trkpt>
      <trkpt lat="44.15961" lon="5.14904">
        <ele>577.41</ele>
        <time>2016-06-19T09:50:04Z</time>
      </trkpt>
      <trkpt lat="44.15948" lon="5.14899">
        <ele>578.37</ele>
        <time>2016-06-19T09:50:05Z</time>
      </trkpt>
      <trkpt lat="44.15934" lon="5.14889">
        <ele>578.85</ele>
        <time>2016-06-19T09:50:06Z</time>
      </trkpt>
      <trkpt lat="44.1592" lon="5.14873">
        <ele>580.29</ele>
        <time>2016-06-19T09:50:07Z</time>
      </trkpt>
      <trkpt lat="44.1591" lon="5.14854">
        <ele>581.25</ele>
        <time>2016-06-19T09:50:08Z</time>
      </trkpt>
      <trkpt lat="44.15906" lon="5.14832">
        <ele>581.25</ele>
        <time>2016-06-19T09:50:09Z</time>
      </trkpt>
      <trkpt lat="44.15901" lon="5.14812">
        <ele>581.73</ele>
        <time>2016-06-19T09:50:10Z</time>
      </trkpt>
      <trkpt lat="44.15893" lon="5.14793">
        <ele>582.22</ele>
        <time>2016-06-19T09:50:11Z</time>
      </trkpt>
      <trkpt lat="44.15883" lon="5.14778">
        <ele>584.14</ele>
        <time>2016-06-19T09:50:12Z</time>
      </trkpt>
      <trkpt lat="44.15871" lon="5.14765">
        <ele>585.1</ele>
        <time>2016-06-19T09:50:13Z</time>
      </trkpt>
      <trkpt lat="44.15855" lon="5.14756">
        <ele>586.54</ele>
        <time>2016-06-19T09:50:14Z</time>
      </trkpt>
      <trkpt lat="44.15833" lon="5.14752">
        <ele>587.5</ele>
        <time>2016-06-19T09:50:15Z</time>
      </trkpt>
      <trkpt lat="44.15811" lon="5.14747">
        <ele>590.39</ele>
        <time>2016-06-19T09:50:16Z</time>
      </trkpt>
      <trkpt lat="44.15789" lon="5.1474">
        <ele>592.79</ele>
        <time>2016-06-19T09:50:17Z</time>
      </trkpt>
      <trkpt lat="44.15768" lon="5.14731">
        <ele>595.67</ele>
        <time>2016-06-19T09:50:18Z</time>
      </trkpt>
      <trkpt lat="44.15689" lon="5.14702">
        <ele>603.85</ele>
        <time>2016-06-19T09:50:22Z</time>
      </trkpt>
      <trkpt lat="44.15671" lon="5.14705">
        <ele>605.29</ele>
        <time>2016-06-19T09:50:23Z</time>
      </trkpt>
      <trkpt lat="44.15653" lon="5.14711">
        <ele>607.69</ele>
        <time>2016-06-19T09:50:24Z</time>
      </trkpt>
      <trkpt lat="44.15635" lon="5.14718">
        <ele>609.13</ele>
        <time>2016-06-19T09:50:25Z</time>
      </trkpt>
      <trkpt lat="44.15619" lon="5.14723">
        <ele>611.54</ele>
        <time>2016-06-19T09:50:26Z</time>
      </trkpt>
      <trkpt lat="44.15588" lon="5.14751">
        <ele>615.38</ele>
        <time>2016-06-19T09:50:29Z</time>
      </trkpt>
      <trkpt lat="44.15586" lon="5.14765">
        <ele>614.9</ele>
        <time>2016-06-19T09:50:30Z</time>
      </trkpt>
      <trkpt lat="44.15592" lon="5.14781">
        <ele>614.42</ele>
        <time>2016-06-19T09:50:31Z</time>
      </trkpt>
      <trkpt lat="44.156" lon="5.14793">
        <ele>614.9</ele>
        <time>2016-06-19T09:50:32Z</time>
      </trkpt>
      <trkpt lat="44.15611" lon="5.14807">
        <ele>615.38</ele>
        <time>2016-06-19T09:50:33Z</time>
      </trkpt>
      <trkpt lat="44.15628" lon="5.14822">
        <ele>620.19</ele>
        <time>2016-06-19T09:50:34Z</time>
      </trkpt>
      <trkpt lat="44.15647" lon="5.14835">
        <ele>621.63</ele>
        <time>2016-06-19T09:50:35Z</time>
      </trkpt>
      <trkpt lat="44.15664" lon="5.14852">
        <ele>623.07</ele>
        <time>2016-06-19T09:50:36Z</time>
      </trkpt>
      <trkpt lat="44.1568" lon="5.14872">
        <ele>624.51</ele>
        <time>2016-06-19T09:50:37Z</time>
      </trkpt>
      <trkpt lat="44.15695" lon="5.14894">
        <ele>626.44</ele>
        <time>2016-06-19T09:50:38Z</time>
      </trkpt>
      <trkpt lat="44.15708" lon="5.14921">
        <ele>628.36</ele>
        <time>2016-06-19T09:50:39Z</time>
      </trkpt>
      <trkpt lat="44.1572" lon="5.1495">
        <ele>630.76</ele>
        <time>2016-06-19T09:50:40Z</time>
      </trkpt>
      <trkpt lat="44.15727" lon="5.14982">
        <ele>633.17</ele>
        <time>2016-06-19T09:50:41Z</time>
      </trkpt>
      <trkpt lat="44.1573" lon="5.15013">
        <ele>635.09</ele>
        <time>2016-06-19T09:50:42Z</time>
      </trkpt>
      <trkpt lat="44.15727" lon="5.15042">
        <ele>637.49</ele>
        <time>2016-06-19T09:50:43Z</time>
      </trkpt>
      <trkpt lat="44.15724" lon="5.15071">
        <ele>639.89</ele>
        <time>2016-06-19T09:50:44Z</time>
      </trkpt>
      <trkpt lat="44.15725" lon="5.151">
        <ele>641.82</ele>
        <time>2016-06-19T09:50:45Z</time>
      </trkpt>
      <trkpt lat="44.15729" lon="5.1513">
        <ele>644.22</ele>
        <time>2016-06-19T09:50:46Z</time>
      </trkpt>
      <trkpt lat="44.15736" lon="5.15159">
        <ele>646.62</ele>
        <time>2016-06-19T09:50:47Z</time>
      </trkpt>
      <trkpt lat="44.15744" lon="5.15189">
        <ele>648.55</ele>
        <time>2016-06-19T09:50:48Z</time>
      </trkpt>
      <trkpt lat="44.15754" lon="5.15218">
        <ele>650.95</ele>
        <time>2016-06-19T09:50:49Z</time>
      </trkpt>
      <trkpt lat="44.15766" lon="5.15244">
        <ele>653.35</ele>
        <time>2016-06-19T09:50:50Z</time>
      </trkpt>
      <trkpt lat="44.15782" lon="5.15268">
        <ele>655.28</ele>
        <time>2016-06-19T09:50:51Z</time>
      </trkpt>
      <trkpt lat="44.15799" lon="5.15292">
        <ele>657.68</ele>
        <time>2016-06-19T09:50:52Z</time>
      </trkpt>
      <trkpt lat="44.15818" lon="5.15314">
        <ele>660.08</ele>
        <time>2016-06-19T09:50:53Z</time>
      </trkpt>
      <trkpt lat="44.15833" lon="5.15337">
        <ele>662.01</ele>
        <time>2016-06-19T09:50:54Z</time>
      </trkpt>
      <trkpt lat="44.15847" lon="5.15357">
        <ele>664.41</ele>
        <time>2016-06-19T09:50:55Z</time>
      </trkpt>
      <trkpt lat="44.15858" lon="5.15378">
        <ele>666.33</ele>
        <time>2016-06-19T09:50:56Z</time>
      </trkpt>
      <trkpt lat="44.15868" lon="5.15396">
        <ele>668.73</ele>
        <time>2016-06-19T09:50:57Z</time>
      </trkpt>
      <trkpt lat="44.15881" lon="5.15405">
        <ele>670.66</ele>
        <time>2016-06-19T09:50:58Z</time>
      </trkpt>
      <trkpt lat="44.15894" lon="5.1541">
        <ele>672.58</ele>
        <time>2016-06-19T09:50:59Z</time>
      </trkpt>
      <trkpt lat="44.15908" lon="5.15408">
        <ele>674.02</ele>
        <time>2016-06-19T09:51:00Z</time>
      </trkpt>
      <trkpt lat="44.15926" lon="5.15408">
        <ele>677.39</ele>
        <time>2016-06-19T09:51:01Z</time>
      </trkpt>
      <trkpt lat="44.15946" lon="5.15402">
        <ele>678.83</ele>
        <time>2016-06-19T09:51:02Z</time>
      </trkpt>
      <trkpt lat="44.15964" lon="5.15403">
        <ele>680.75</ele>
        <time>2016-06-19T09:51:03Z</time>
      </trkpt>
      <trkpt lat="44.16082" lon="5.15436">
        <ele>687.96</ele>
        <time>2016-06-19T09:51:09Z</time>
      </trkpt>
      <trkpt lat="44.161" lon="5.15454">
        <ele>689.4</ele>
        <time>2016-06-19T09:51:10Z</time>
      </trkpt>
      <trkpt lat="44.16117" lon="5.1547">
        <ele>691.33</ele>
        <time>2016-06-19T09:51:11Z</time>
      </trkpt>
      <trkpt lat="44.16176" lon="5.15525">
        <ele>696.61</ele>
        <time>2016-06-19T09:51:15Z</time>
      </trkpt>
      <trkpt lat="44.16187" lon="5.15539">
        <ele>698.53</ele>
        <time>2016-06-19T09:51:16Z</time>
      </trkpt>
      <trkpt lat="44.16199" lon="5.15562">
        <ele>700.46</ele>
        <time>2016-06-19T09:51:17Z</time>
      </trkpt>
      <trkpt lat="44.1623" lon="5.15647">
        <ele>703.82</ele>
        <time>2016-06-19T09:51:20Z</time>
      </trkpt>
      <trkpt lat="44.16237" lon="5.1568">
        <ele>705.75</ele>
        <time>2016-06-19T09:51:21Z</time>
      </trkpt>
      <trkpt lat="44.16241" lon="5.15716">
        <ele>706.71</ele>
        <time>2016-06-19T09:51:22Z</time>
      </trkpt>
      <trkpt lat="44.16243" lon="5.15752">
        <ele>707.19</ele>
        <time>2016-06-19T09:51:23Z</time>
      </trkpt>
      <trkpt lat="44.16245" lon="5.15784">
        <ele>708.15</ele>
        <time>2016-06-19T09:51:24Z</time>
      </trkpt>
      <trkpt lat="44.16272" lon="5.15899">
        <ele>710.55</ele>
        <time>2016-06-19T09:51:29Z</time>
      </trkpt>
      <trkpt lat="44.16287" lon="5.15913">
        <ele>711.03</ele>
        <time>2016-06-19T09:51:30Z</time>
      </trkpt>
      <trkpt lat="44.16304" lon="5.15922">
        <ele>711.51</ele>
        <time>2016-06-19T09:51:31Z</time>
      </trkpt>
      <trkpt lat="44.16322" lon="5.1593">
        <ele>711.99</ele>
        <time>2016-06-19T09:51:32Z</time>
      </trkpt>
      <trkpt lat="44.16342" lon="5.15934">
        <ele>711.51</ele>
        <time>2016-06-19T09:51:33Z</time>
      </trkpt>
      <trkpt lat="44.16363" lon="5.15936">
        <ele>711.51</ele>
        <time>2016-06-19T09:51:34Z</time>
      </trkpt>
      <trkpt lat="44.16384" lon="5.1594">
        <ele>711.99</ele>
        <time>2016-06-19T09:51:35Z</time>
      </trkpt>
      <trkpt lat="44.16405" lon="5.15947">
        <ele>711.99</ele>
        <time>2016-06-19T09:51:36Z</time>
      </trkpt>
      <trkpt lat="44.16424" lon="5.15962">
        <ele>712.47</ele>
        <time>2016-06-19T09:51:37Z</time>
      </trkpt>
      <trkpt lat="44.16441" lon="5.15983">
        <ele>713.92</ele>
        <time>2016-06-19T09:51:38Z</time>
      </trkpt>
      <trkpt lat="44.16454" lon="5.1601">
        <ele>714.88</ele>
        <time>2016-06-19T09:51:39Z</time>
      </trkpt>
      <trkpt lat="44.16467" lon="5.16039">
        <ele>716.32</ele>
        <time>2016-06-19T09:51:40Z</time>
      </trkpt>
      <trkpt lat="44.16479" lon="5.16067">
        <ele>715.84</ele>
        <time>2016-06-19T09:51:41Z</time>
      </trkpt>
      <trkpt lat="44.16485" lon="5.16102">
        <ele>716.32</ele>
        <time>2016-06-19T09:51:42Z</time>
      </trkpt>
      <trkpt lat="44.16491" lon="5.16137">
        <ele>718.72</ele>
        <time>2016-06-19T09:51:43Z</time>
      </trkpt>
      <trkpt lat="44.16494" lon="5.16172">
        <ele>720.65</ele>
        <time>2016-06-19T09:51:44Z</time>
      </trkpt>
      <trkpt lat="44.16498" lon="5.16203">
        <ele>723.05</ele>
        <time>2016-06-19T09:51:45Z</time>
      </trkpt>
      <trkpt lat="44.16527" lon="5.16283">
        <ele>726.41</ele>
        <time>2016-06-19T09:51:48Z</time>
      </trkpt>
      <trkpt lat="44.16544" lon="5.16308">
        <ele>728.82</ele>
        <time>2016-06-19T09:51:49Z</time>
      </trkpt>
      <trkpt lat="44.16586" lon="5.16401">
        <ele>736.51</ele>
        <time>2016-06-19T09:51:52Z</time>
      </trkpt>
      <trkpt lat="44.16593" lon="5.16438">
        <ele>737.95</ele>
        <time>2016-06-19T09:51:53Z</time>
      </trkpt>
      <trkpt lat="44.16598" lon="5.16477">
        <ele>740.35</ele>
        <time>2016-06-19T09:51:54Z</time>
      </trkpt>
      <trkpt lat="44.16602" lon="5.16517">
        <ele>741.79</ele>
        <time>2016-06-19T09:51:55Z</time>
      </trkpt>
      <trkpt lat="44.16605" lon="5.16556">
        <ele>744.68</ele>
        <time>2016-06-19T09:51:56Z</time>
      </trkpt>
      <trkpt lat="44.16662" lon="5.16793">
        <ele>757.18</ele>
        <time>2016-06-19T09:52:03Z</time>
      </trkpt>
      <trkpt lat="44.16678" lon="5.16823">
        <ele>758.62</ele>
        <time>2016-06-19T09:52:04Z</time>
      </trkpt>
      <trkpt lat="44.16734" lon="5.1701">
        <ele>767.27</ele>
        <time>2016-06-19T09:52:10Z</time>
      </trkpt>
      <trkpt lat="44.1673" lon="5.17047">
        <ele>768.23</ele>
        <time>2016-06-19T09:52:11Z</time>
      </trkpt>
      <trkpt lat="44.16726" lon="5.17081">
        <ele>769.19</ele>
        <time>2016-06-19T09:52:12Z</time>
      </trkpt>
      <trkpt lat="44.16716" lon="5.1744">
        <ele>791.78</ele>
        <time>2016-06-19T09:52:22Z</time>
      </trkpt>
      <trkpt lat="44.16739" lon="5.17618">
        <ele>800.44</ele>
        <time>2016-06-19T09:52:28Z</time>
      </trkpt>
      <trkpt lat="44.16754" lon="5.17728">
        <ele>805.72</ele>
        <time>2016-06-19T09:52:32Z</time>
      </trkpt>
      <trkpt lat="44.1675" lon="5.17755">
        <ele>807.64</ele>
        <time>2016-06-19T09:52:33Z</time>
      </trkpt>
      <trkpt lat="44.16745" lon="5.1778">
        <ele>809.57</ele>
        <time>2016-06-19T09:52:34Z</time>
      </trkpt>
      <trkpt lat="44.16735" lon="5.178">
        <ele>811.49</ele>
        <time>2016-06-19T09:52:35Z</time>
      </trkpt>
      <trkpt lat="44.16725" lon="5.17821">
        <ele>813.41</ele>
        <time>2016-06-19T09:52:36Z</time>
      </trkpt>
      <trkpt lat="44.16712" lon="5.17838">
        <ele>815.82</ele>
        <time>2016-06-19T09:52:37Z</time>
      </trkpt>
      <trkpt lat="44.16702" lon="5.17859">
        <ele>817.74</ele>
        <time>2016-06-19T09:52:38Z</time>
      </trkpt>
      <trkpt lat="44.16672" lon="5.18019">
        <ele>831.68</ele>
        <time>2016-06-19T09:52:45Z</time>
      </trkpt>
      <trkpt lat="44.16673" lon="5.18042">
        <ele>833.6</ele>
        <time>2016-06-19T09:52:46Z</time>
      </trkpt>
      <trkpt lat="44.16678" lon="5.18064">
        <ele>835.52</ele>
        <time>2016-06-19T09:52:47Z</time>
      </trkpt>
      <trkpt lat="44.16686" lon="5.18085">
        <ele>838.41</ele>
        <time>2016-06-19T09:52:48Z</time>
      </trkpt>
      <trkpt lat="44.16696" lon="5.18105">
        <ele>839.85</ele>
        <time>2016-06-19T09:52:49Z</time>
      </trkpt>
      <trkpt lat="44.16706" lon="5.18125">
        <ele>841.29</ele>
        <time>2016-06-19T09:52:50Z</time>
      </trkpt>
      <trkpt lat="44.16787" lon="5.18342">
        <ele>852.35</ele>
        <time>2016-06-19T09:52:59Z</time>
      </trkpt>
      <trkpt lat="44.16833" lon="5.18561">
        <ele>862.44</ele>
        <time>2016-06-19T09:53:07Z</time>
      </trkpt>
      <trkpt lat="44.16843" lon="5.1858">
        <ele>863.4</ele>
        <time>2016-06-19T09:53:08Z</time>
      </trkpt>
      <trkpt lat="44.16856" lon="5.18598">
        <ele>864.84</ele>
        <time>2016-06-19T09:53:09Z</time>
      </trkpt>
      <trkpt lat="44.16891" lon="5.1865">
        <ele>867.25</ele>
        <time>2016-06-19T09:53:12Z</time>
      </trkpt>
      <trkpt lat="44.16898" lon="5.18669">
        <ele>868.21</ele>
        <time>2016-06-19T09:53:13Z</time>
      </trkpt>
      <trkpt lat="44.16901" lon="5.18692">
        <ele>868.69</ele>
        <time>2016-06-19T09:53:14Z</time>
      </trkpt>
      <trkpt lat="44.16899" lon="5.18713">
        <ele>870.13</ele>
        <time>2016-06-19T09:53:15Z</time>
      </trkpt>
      <trkpt lat="44.16892" lon="5.18737">
        <ele>871.09</ele>
        <time>2016-06-19T09:53:16Z</time>
      </trkpt>
      <trkpt lat="44.16882" lon="5.18759">
        <ele>872.05</ele>
        <time>2016-06-19T09:53:17Z</time>
      </trkpt>
      <trkpt lat="44.1687" lon="5.18784">
        <ele>873.5</ele>
        <time>2016-06-19T09:53:18Z</time>
      </trkpt>
      <trkpt lat="44.16857" lon="5.18809">
        <ele>874.94</ele>
        <time>2016-06-19T09:53:19Z</time>
      </trkpt>
      <trkpt lat="44.16846" lon="5.18832">
        <ele>876.38</ele>
        <time>2016-06-19T09:53:20Z</time>
      </trkpt>
      <trkpt lat="44.16819" lon="5.18888">
        <ele>880.22</ele>
        <time>2016-06-19T09:53:23Z</time>
      </trkpt>
      <trkpt lat="44.16815" lon="5.18907">
        <ele>881.19</ele>
        <time>2016-06-19T09:53:24Z</time>
      </trkpt>
      <trkpt lat="44.16816" lon="5.18925">
        <ele>881.67</ele>
        <time>2016-06-19T09:53:25Z</time>
      </trkpt>
      <trkpt lat="44.16822" lon="5.18944">
        <ele>882.63</ele>
        <time>2016-06-19T09:53:26Z</time>
      </trkpt>
      <trkpt lat="44.16835" lon="5.18963">
        <ele>883.11</ele>
        <time>2016-06-19T09:53:27Z</time>
      </trkpt>
      <trkpt lat="44.1685" lon="5.18981">
        <ele>883.59</ele>
        <time>2016-06-19T09:53:28Z</time>
      </trkpt>
      <trkpt lat="44.1687" lon="5.19002">
        <ele>885.51</ele>
        <time>2016-06-19T09:53:29Z</time>
      </trkpt>
      <trkpt lat="44.16892" lon="5.19021">
        <ele>886.47</ele>
        <time>2016-06-19T09:53:30Z</time>
      </trkpt>
      <trkpt lat="44.1691" lon="5.1904">
        <ele>886.95</ele>
        <time>2016-06-19T09:53:31Z</time>
      </trkpt>
      <trkpt lat="44.16935" lon="5.19071">
        <ele>888.88</ele>
        <time>2016-06-19T09:53:33Z</time>
      </trkpt>
      <trkpt lat="44.1694" lon="5.19088">
        <ele>889.84</ele>
        <time>2016-06-19T09:53:34Z</time>
      </trkpt>
      <trkpt lat="44.1694" lon="5.19104">
        <ele>891.76</ele>
        <time>2016-06-19T09:53:35Z</time>
      </trkpt>
      <trkpt lat="44.16933" lon="5.19122">
        <ele>892.24</ele>
        <time>2016-06-19T09:53:36Z</time>
      </trkpt>
      <trkpt lat="44.16921" lon="5.19138">
        <ele>892.72</ele>
        <time>2016-06-19T09:53:37Z</time>
      </trkpt>
      <trkpt lat="44.16905" lon="5.19152">
        <ele>893.68</ele>
        <time>2016-06-19T09:53:38Z</time>
      </trkpt>
      <trkpt lat="44.16884" lon="5.19158">
        <ele>898.49</ele>
        <time>2016-06-19T09:53:39Z</time>
      </trkpt>
      <trkpt lat="44.16863" lon="5.19171">
        <ele>898.01</ele>
        <time>2016-06-19T09:53:40Z</time>
      </trkpt>
      <trkpt lat="44.1684" lon="5.19179">
        <ele>897.53</ele>
        <time>2016-06-19T09:53:41Z</time>
      </trkpt>
      <trkpt lat="44.16814" lon="5.19184">
        <ele>898.49</ele>
        <time>2016-06-19T09:53:42Z</time>
      </trkpt>
      <trkpt lat="44.16788" lon="5.19187">
        <ele>899.93</ele>
        <time>2016-06-19T09:53:43Z</time>
      </trkpt>
      <trkpt lat="44.16764" lon="5.1919">
        <ele>902.33</ele>
        <time>2016-06-19T09:53:44Z</time>
      </trkpt>
      <trkpt lat="44.16723" lon="5.19206">
        <ele>904.74</ele>
        <time>2016-06-19T09:53:46Z</time>
      </trkpt>
      <trkpt lat="44.16705" lon="5.19223">
        <ele>906.18</ele>
        <time>2016-06-19T09:53:47Z</time>
      </trkpt>
      <trkpt lat="44.1669" lon="5.19247">
        <ele>907.62</ele>
        <time>2016-06-19T09:53:48Z</time>
      </trkpt>
      <trkpt lat="44.16678" lon="5.19277">
        <ele>909.54</ele>
        <time>2016-06-19T09:53:49Z</time>
      </trkpt>
      <trkpt lat="44.16666" lon="5.19308">
        <ele>910.99</ele>
        <time>2016-06-19T09:53:50Z</time>
      </trkpt>
      <trkpt lat="44.16656" lon="5.19339">
        <ele>912.43</ele>
        <time>2016-06-19T09:53:51Z</time>
      </trkpt>
      <trkpt lat="44.16648" lon="5.19367">
        <ele>913.39</ele>
        <time>2016-06-19T09:53:52Z</time>
      </trkpt>
      <trkpt lat="44.16641" lon="5.19414">
        <ele>915.31</ele>
        <time>2016-06-19T09:53:54Z</time>
      </trkpt>
      <trkpt lat="44.16645" lon="5.19439">
        <ele>915.31</ele>
        <time>2016-06-19T09:53:55Z</time>
      </trkpt>
      <trkpt lat="44.16654" lon="5.19456">
        <ele>915.31</ele>
        <time>2016-06-19T09:53:56Z</time>
      </trkpt>
      <trkpt lat="44.16665" lon="5.1947">
        <ele>915.31</ele>
        <time>2016-06-19T09:53:57Z</time>
      </trkpt>
      <trkpt lat="44.16681" lon="5.19481">
        <ele>915.31</ele>
        <time>2016-06-19T09:53:58Z</time>
      </trkpt>
      <trkpt lat="44.16696" lon="5.19497">
        <ele>916.27</ele>
        <time>2016-06-19T09:53:59Z</time>
      </trkpt>
      <trkpt lat="44.16724" lon="5.1951">
        <ele>920.6</ele>
        <time>2016-06-19T09:54:00Z</time>
      </trkpt>
      <trkpt lat="44.16752" lon="5.19519">
        <ele>919.16</ele>
        <time>2016-06-19T09:54:01Z</time>
      </trkpt>
      <trkpt lat="44.16779" lon="5.19528">
        <ele>919.16</ele>
        <time>2016-06-19T09:54:02Z</time>
      </trkpt>
      <trkpt lat="44.1681" lon="5.19536">
        <ele>920.12</ele>
        <time>2016-06-19T09:54:03Z</time>
      </trkpt>
      <trkpt lat="44.16839" lon="5.19546">
        <ele>923</ele>
        <time>2016-06-19T09:54:04Z</time>
      </trkpt>
      <trkpt lat="44.1696" lon="5.19604">
        <ele>931.17</ele>
        <time>2016-06-19T09:54:10Z</time>
      </trkpt>
      <trkpt lat="44.1697" lon="5.19618">
        <ele>931.65</ele>
        <time>2016-06-19T09:54:11Z</time>
      </trkpt>
      <trkpt lat="44.1698" lon="5.19634">
        <ele>932.62</ele>
        <time>2016-06-19T09:54:12Z</time>
      </trkpt>
      <trkpt lat="44.16983" lon="5.19656">
        <ele>933.1</ele>
        <time>2016-06-19T09:54:13Z</time>
      </trkpt>
      <trkpt lat="44.16981" lon="5.1968">
        <ele>934.54</ele>
        <time>2016-06-19T09:54:14Z</time>
      </trkpt>
      <trkpt lat="44.16976" lon="5.19703">
        <ele>935.98</ele>
        <time>2016-06-19T09:54:15Z</time>
      </trkpt>
      <trkpt lat="44.16966" lon="5.19724">
        <ele>936.46</ele>
        <time>2016-06-19T09:54:16Z</time>
      </trkpt>
      <trkpt lat="44.16953" lon="5.19746">
        <ele>936.94</ele>
        <time>2016-06-19T09:54:17Z</time>
      </trkpt>
      <trkpt lat="44.16936" lon="5.1977">
        <ele>938.38</ele>
        <time>2016-06-19T09:54:18Z</time>
      </trkpt>
      <trkpt lat="44.16916" lon="5.19795">
        <ele>939.83</ele>
        <time>2016-06-19T09:54:19Z</time>
      </trkpt>
      <trkpt lat="44.16899" lon="5.19819">
        <ele>942.23</ele>
        <time>2016-06-19T09:54:20Z</time>
      </trkpt>
      <trkpt lat="44.16855" lon="5.19914">
        <ele>948.48</ele>
        <time>2016-06-19T09:54:24Z</time>
      </trkpt>
      <trkpt lat="44.16858" lon="5.19944">
        <ele>949.44</ele>
        <time>2016-06-19T09:54:25Z</time>
      </trkpt>
      <trkpt lat="44.16863" lon="5.19973">
        <ele>950.88</ele>
        <time>2016-06-19T09:54:26Z</time>
      </trkpt>
      <trkpt lat="44.16873" lon="5.20002">
        <ele>952.8</ele>
        <time>2016-06-19T09:54:27Z</time>
      </trkpt>
      <trkpt lat="44.16887" lon="5.2003">
        <ele>956.17</ele>
        <time>2016-06-19T09:54:28Z</time>
      </trkpt>
      <trkpt lat="44.16903" lon="5.20055">
        <ele>957.61</ele>
        <time>2016-06-19T09:54:29Z</time>
      </trkpt>
      <trkpt lat="44.16921" lon="5.20078">
        <ele>960.98</ele>
        <time>2016-06-19T09:54:30Z</time>
      </trkpt>
      <trkpt lat="44.16938" lon="5.20097">
        <ele>962.42</ele>
        <time>2016-06-19T09:54:31Z</time>
      </trkpt>
      <trkpt lat="44.16961" lon="5.20108">
        <ele>964.82</ele>
        <time>2016-06-19T09:54:32Z</time>
      </trkpt>
      <trkpt lat="44.16983" lon="5.20119">
        <ele>966.74</ele>
        <time>2016-06-19T09:54:33Z</time>
      </trkpt>
      <trkpt lat="44.17006" lon="5.20129">
        <ele>967.7</ele>
        <time>2016-06-19T09:54:34Z</time>
      </trkpt>
      <trkpt lat="44.17073" lon="5.20169">
        <ele>975.39</ele>
        <time>2016-06-19T09:54:38Z</time>
      </trkpt>
      <trkpt lat="44.17084" lon="5.20187">
        <ele>976.84</ele>
        <time>2016-06-19T09:54:39Z</time>
      </trkpt>
      <trkpt lat="44.17093" lon="5.20208">
        <ele>978.28</ele>
        <time>2016-06-19T09:54:40Z</time>
      </trkpt>
      <trkpt lat="44.17098" lon="5.20231">
        <ele>978.76</ele>
        <time>2016-06-19T09:54:41Z</time>
      </trkpt>
      <trkpt lat="44.171" lon="5.20257">
        <ele>980.2</ele>
        <time>2016-06-19T09:54:42Z</time>
      </trkpt>
      <trkpt lat="44.17098" lon="5.20285">
        <ele>982.12</ele>
        <time>2016-06-19T09:54:43Z</time>
      </trkpt>
      <trkpt lat="44.17091" lon="5.20312">
        <ele>985.01</ele>
        <time>2016-06-19T09:54:44Z</time>
      </trkpt>
      <trkpt lat="44.17083" lon="5.2034">
        <ele>987.41</ele>
        <time>2016-06-19T09:54:45Z</time>
      </trkpt>
      <trkpt lat="44.17073" lon="5.20366">
        <ele>990.3</ele>
        <time>2016-06-19T09:54:46Z</time>
      </trkpt>
      <trkpt lat="44.1706" lon="5.20447">
        <ele>997.51</ele>
        <time>2016-06-19T09:54:49Z</time>
      </trkpt>
      <trkpt lat="44.17063" lon="5.20475">
        <ele>999.43</ele>
        <time>2016-06-19T09:54:50Z</time>
      </trkpt>
      <trkpt lat="44.17072" lon="5.20503">
        <ele>1000.87</ele>
        <time>2016-06-19T09:54:51Z</time>
      </trkpt>
      <trkpt lat="44.17089" lon="5.2053">
        <ele>1005.2</ele>
        <time>2016-06-19T09:54:52Z</time>
      </trkpt>
      <trkpt lat="44.17108" lon="5.20559">
        <ele>1008.56</ele>
        <time>2016-06-19T09:54:53Z</time>
      </trkpt>
      <trkpt lat="44.17123" lon="5.20591">
        <ele>1012.89</ele>
        <time>2016-06-19T09:54:54Z</time>
      </trkpt>
      <trkpt lat="44.17201" lon="5.2084">
        <ele>1036.92</ele>
        <time>2016-06-19T09:55:01Z</time>
      </trkpt>
      <trkpt lat="44.17247" lon="5.21081">
        <ele>1057.59</ele>
        <time>2016-06-19T09:55:08Z</time>
      </trkpt>
      <trkpt lat="44.17274" lon="5.21291">
        <ele>1074.41</ele>
        <time>2016-06-19T09:55:14Z</time>
      </trkpt>
      <trkpt lat="44.17306" lon="5.21417">
        <ele>1086.43</ele>
        <time>2016-06-19T09:55:19Z</time>
      </trkpt>
      <trkpt lat="44.17353" lon="5.21573">
        <ele>1101.81</ele>
        <time>2016-06-19T09:55:28Z</time>
      </trkpt>
      <trkpt lat="44.17387" lon="5.21694">
        <ele>1110.94</ele>
        <time>2016-06-19T09:55:33Z</time>
      </trkpt>
      <trkpt lat="44.17388" lon="5.21718">
        <ele>1112.38</ele>
        <time>2016-06-19T09:55:34Z</time>
      </trkpt>
      <trkpt lat="44.17383" lon="5.21742">
        <ele>1113.82</ele>
        <time>2016-06-19T09:55:35Z</time>
      </trkpt>
      <trkpt lat="44.17373" lon="5.21765">
        <ele>1115.27</ele>
        <time>2016-06-19T09:55:36Z</time>
      </trkpt>
      <trkpt lat="44.17361" lon="5.21785">
        <ele>1117.67</ele>
        <time>2016-06-19T09:55:37Z</time>
      </trkpt>
      <trkpt lat="44.17348" lon="5.21803">
        <ele>1120.07</ele>
        <time>2016-06-19T09:55:38Z</time>
      </trkpt>
      <trkpt lat="44.17338" lon="5.21822">
        <ele>1122</ele>
        <time>2016-06-19T09:55:39Z</time>
      </trkpt>
      <trkpt lat="44.17329" lon="5.21842">
        <ele>1123.92</ele>
        <time>2016-06-19T09:55:40Z</time>
      </trkpt>
      <trkpt lat="44.17322" lon="5.21865">
        <ele>1125.84</ele>
        <time>2016-06-19T09:55:41Z</time>
      </trkpt>
      <trkpt lat="44.17317" lon="5.21891">
        <ele>1128.24</ele>
        <time>2016-06-19T09:55:42Z</time>
      </trkpt>
      <trkpt lat="44.17313" lon="5.21918">
        <ele>1130.65</ele>
        <time>2016-06-19T09:55:43Z</time>
      </trkpt>
      <trkpt lat="44.17311" lon="5.21943">
        <ele>1133.05</ele>
        <time>2016-06-19T09:55:44Z</time>
      </trkpt>
      <trkpt lat="44.17312" lon="5.21965">
        <ele>1134.97</ele>
        <time>2016-06-19T09:55:45Z</time>
      </trkpt>
      <trkpt lat="44.1731" lon="5.22031">
        <ele>1140.74</ele>
        <time>2016-06-19T09:55:49Z</time>
      </trkpt>
      <trkpt lat="44.17312" lon="5.22046">
        <ele>1142.66</ele>
        <time>2016-06-19T09:55:50Z</time>
      </trkpt>
      <trkpt lat="44.17316" lon="5.2206">
        <ele>1143.63</ele>
        <time>2016-06-19T09:55:51Z</time>
      </trkpt>
      <trkpt lat="44.17323" lon="5.22073">
        <ele>1145.07</ele>
        <time>2016-06-19T09:55:52Z</time>
      </trkpt>
      <trkpt lat="44.17331" lon="5.22085">
        <ele>1146.99</ele>
        <time>2016-06-19T09:55:53Z</time>
      </trkpt>
      <trkpt lat="44.17338" lon="5.22098">
        <ele>1147.95</ele>
        <time>2016-06-19T09:55:54Z</time>
      </trkpt>
      <trkpt lat="44.17343" lon="5.2211">
        <ele>1148.91</ele>
        <time>2016-06-19T09:55:55Z</time>
      </trkpt>
      <trkpt lat="44.17345" lon="5.22123">
        <ele>1150.35</ele>
        <time>2016-06-19T09:55:56Z</time>
      </trkpt>
      <trkpt lat="44.17345" lon="5.22137">
        <ele>1151.8</ele>
        <time>2016-06-19T09:55:57Z</time>
      </trkpt>
      <trkpt lat="44.17342" lon="5.2215">
        <ele>1152.76</ele>
        <time>2016-06-19T09:55:58Z</time>
      </trkpt>
      <trkpt lat="44.17337" lon="5.22162">
        <ele>1154.2</ele>
        <time>2016-06-19T09:55:59Z</time>
      </trkpt>
      <trkpt lat="44.17331" lon="5.22171">
        <ele>1155.16</ele>
        <time>2016-06-19T09:56:00Z</time>
      </trkpt>
      <trkpt lat="44.17323" lon="5.22179">
        <ele>1156.6</ele>
        <time>2016-06-19T09:56:01Z</time>
      </trkpt>
      <trkpt lat="44.1731" lon="5.22176">
        <ele>1158.05</ele>
        <time>2016-06-19T09:56:02Z</time>
      </trkpt>
      <trkpt lat="44.17295" lon="5.22176">
        <ele>1159.01</ele>
        <time>2016-06-19T09:56:03Z</time>
      </trkpt>
      <trkpt lat="44.17276" lon="5.22173">
        <ele>1160.45</ele>
        <time>2016-06-19T09:56:04Z</time>
      </trkpt>
      <trkpt lat="44.17259" lon="5.22171">
        <ele>1160.45</ele>
        <time>2016-06-19T09:56:05Z</time>
      </trkpt>
      <trkpt lat="44.17235" lon="5.22156">
        <ele>1162.85</ele>
        <time>2016-06-19T09:56:06Z</time>
      </trkpt>
      <trkpt lat="44.17216" lon="5.22144">
        <ele>1164.77</ele>
        <time>2016-06-19T09:56:07Z</time>
      </trkpt>
      <trkpt lat="44.17202" lon="5.22135">
        <ele>1166.7</ele>
        <time>2016-06-19T09:56:08Z</time>
      </trkpt>
      <trkpt lat="44.1719" lon="5.22125">
        <ele>1168.14</ele>
        <time>2016-06-19T09:56:09Z</time>
      </trkpt>
      <trkpt lat="44.17168" lon="5.22106">
        <ele>1170.54</ele>
        <time>2016-06-19T09:56:11Z</time>
      </trkpt>
      <trkpt lat="44.17159" lon="5.22095">
        <ele>1171.98</ele>
        <time>2016-06-19T09:56:12Z</time>
      </trkpt>
      <trkpt lat="44.17153" lon="5.22084">
        <ele>1172.95</ele>
        <time>2016-06-19T09:56:13Z</time>
      </trkpt>
      <trkpt lat="44.17147" lon="5.22073">
        <ele>1174.39</ele>
        <time>2016-06-19T09:56:14Z</time>
      </trkpt>
      <trkpt lat="44.17142" lon="5.22063">
        <ele>1175.35</ele>
        <time>2016-06-19T09:56:15Z</time>
      </trkpt>
      <trkpt lat="44.17138" lon="5.22056">
        <ele>1176.79</ele>
        <time>2016-06-19T09:56:16Z</time>
      </trkpt>
      <trkpt lat="44.17133" lon="5.22051">
        <ele>1177.75</ele>
        <time>2016-06-19T09:56:17Z</time>
      </trkpt>
      <trkpt lat="44.17128" lon="5.22049">
        <ele>1178.71</ele>
        <time>2016-06-19T09:56:18Z</time>
      </trkpt>
      <trkpt lat="44.17124" lon="5.22053">
        <ele>1179.19</ele>
        <time>2016-06-19T09:56:19Z</time>
      </trkpt>
      <trkpt lat="44.17119" lon="5.22057">
        <ele>1179.19</ele>
        <time>2016-06-19T09:56:20Z</time>
      </trkpt>
      <trkpt lat="44.17116" lon="5.22065">
        <ele>1178.23</ele>
        <time>2016-06-19T09:56:21Z</time>
      </trkpt>
      <trkpt lat="44.17125" lon="5.22085">
        <ele>1178.23</ele>
        <time>2016-06-19T09:56:22Z</time>
      </trkpt>
      <trkpt lat="44.17131" lon="5.22101">
        <ele>1178.71</ele>
        <time>2016-06-19T09:56:23Z</time>
      </trkpt>
      <trkpt lat="44.1714" lon="5.2212">
        <ele>1179.67</ele>
        <time>2016-06-19T09:56:24Z</time>
      </trkpt>
      <trkpt lat="44.17194" lon="5.2226">
        <ele>1188.33</ele>
        <time>2016-06-19T09:56:29Z</time>
      </trkpt>
      <trkpt lat="44.17288" lon="5.22503">
        <ele>1210.92</ele>
        <time>2016-06-19T09:56:36Z</time>
      </trkpt>
      <trkpt lat="44.17299" lon="5.22537">
        <ele>1214.28</ele>
        <time>2016-06-19T09:56:37Z</time>
      </trkpt>
      <trkpt lat="44.17307" lon="5.22569">
        <ele>1217.65</ele>
        <time>2016-06-19T09:56:38Z</time>
      </trkpt>
      <trkpt lat="44.17361" lon="5.22787">
        <ele>1240.24</ele>
        <time>2016-06-19T09:56:45Z</time>
      </trkpt>
      <trkpt lat="44.17422" lon="5.22924">
        <ele>1256.58</ele>
        <time>2016-06-19T09:56:51Z</time>
      </trkpt>
      <trkpt lat="44.17472" lon="5.2302">
        <ele>1269.08</ele>
        <time>2016-06-19T09:56:57Z</time>
      </trkpt>
      <trkpt lat="44.17519" lon="5.23114">
        <ele>1279.17</ele>
        <time>2016-06-19T09:57:02Z</time>
      </trkpt>
      <trkpt lat="44.17528" lon="5.23139">
        <ele>1281.57</ele>
        <time>2016-06-19T09:57:03Z</time>
      </trkpt>
      <trkpt lat="44.17538" lon="5.23166">
        <ele>1284.46</ele>
        <time>2016-06-19T09:57:04Z</time>
      </trkpt>
      <trkpt lat="44.17545" lon="5.23197">
        <ele>1286.86</ele>
        <time>2016-06-19T09:57:05Z</time>
      </trkpt>
      <trkpt lat="44.17552" lon="5.23229">
        <ele>1289.27</ele>
        <time>2016-06-19T09:57:06Z</time>
      </trkpt>
      <trkpt lat="44.17558" lon="5.2326">
        <ele>1291.67</ele>
        <time>2016-06-19T09:57:07Z</time>
      </trkpt>
      <trkpt lat="44.17568" lon="5.23315">
        <ele>1296.48</ele>
        <time>2016-06-19T09:57:09Z</time>
      </trkpt>
      <trkpt lat="44.1757" lon="5.23343">
        <ele>1299.36</ele>
        <time>2016-06-19T09:57:10Z</time>
      </trkpt>
      <trkpt lat="44.17571" lon="5.23458">
        <ele>1309.45</ele>
        <time>2016-06-19T09:57:14Z</time>
      </trkpt>
      <trkpt lat="44.17568" lon="5.23485">
        <ele>1311.86</ele>
        <time>2016-06-19T09:57:15Z</time>
      </trkpt>
      <trkpt lat="44.17561" lon="5.23511">
        <ele>1314.26</ele>
        <time>2016-06-19T09:57:16Z</time>
      </trkpt>
      <trkpt lat="44.17549" lon="5.2356">
        <ele>1319.07</ele>
        <time>2016-06-19T09:57:18Z</time>
      </trkpt>
      <trkpt lat="44.17548" lon="5.23582">
        <ele>1321.47</ele>
        <time>2016-06-19T09:57:19Z</time>
      </trkpt>
      <trkpt lat="44.17553" lon="5.23603">
        <ele>1323.87</ele>
        <time>2016-06-19T09:57:20Z</time>
      </trkpt>
      <trkpt lat="44.17562" lon="5.23625">
        <ele>1325.8</ele>
        <time>2016-06-19T09:57:21Z</time>
      </trkpt>
      <trkpt lat="44.17576" lon="5.23646">
        <ele>1328.2</ele>
        <time>2016-06-19T09:57:22Z</time>
      </trkpt>
      <trkpt lat="44.17594" lon="5.23669">
        <ele>1331.08</ele>
        <time>2016-06-19T09:57:23Z</time>
      </trkpt>
      <trkpt lat="44.17613" lon="5.23696">
        <ele>1333.49</ele>
        <time>2016-06-19T09:57:24Z</time>
      </trkpt>
      <trkpt lat="44.17685" lon="5.23842">
        <ele>1346.94</ele>
        <time>2016-06-19T09:57:29Z</time>
      </trkpt>
      <trkpt lat="44.17691" lon="5.23869">
        <ele>1348.87</ele>
        <time>2016-06-19T09:57:30Z</time>
      </trkpt>
      <trkpt lat="44.17693" lon="5.23893">
        <ele>1351.27</ele>
        <time>2016-06-19T09:57:31Z</time>
      </trkpt>
      <trkpt lat="44.1769" lon="5.23917">
        <ele>1353.19</ele>
        <time>2016-06-19T09:57:32Z</time>
      </trkpt>
      <trkpt lat="44.17684" lon="5.23941">
        <ele>1355.6</ele>
        <time>2016-06-19T09:57:33Z</time>
      </trkpt>
      <trkpt lat="44.17674" lon="5.23964">
        <ele>1357.52</ele>
        <time>2016-06-19T09:57:34Z</time>
      </trkpt>
      <trkpt lat="44.17664" lon="5.23989">
        <ele>1358</ele>
        <time>2016-06-19T09:57:35Z</time>
      </trkpt>
      <trkpt lat="44.17645" lon="5.24058">
        <ele>1363.29</ele>
        <time>2016-06-19T09:57:38Z</time>
      </trkpt>
      <trkpt lat="44.17645" lon="5.24077">
        <ele>1365.21</ele>
        <time>2016-06-19T09:57:39Z</time>
      </trkpt>
      <trkpt lat="44.1765" lon="5.24093">
        <ele>1366.65</ele>
        <time>2016-06-19T09:57:40Z</time>
      </trkpt>
      <trkpt lat="44.17658" lon="5.24111">
        <ele>1367.61</ele>
        <time>2016-06-19T09:57:41Z</time>
      </trkpt>
      <trkpt lat="44.17676" lon="5.24124">
        <ele>1369.54</ele>
        <time>2016-06-19T09:57:42Z</time>
      </trkpt>
      <trkpt lat="44.17698" lon="5.24142">
        <ele>1371.46</ele>
        <time>2016-06-19T09:57:43Z</time>
      </trkpt>
      <trkpt lat="44.1772" lon="5.24162">
        <ele>1372.42</ele>
        <time>2016-06-19T09:57:44Z</time>
      </trkpt>
      <trkpt lat="44.17744" lon="5.24185">
        <ele>1372.9</ele>
        <time>2016-06-19T09:57:45Z</time>
      </trkpt>
      <trkpt lat="44.17801" lon="5.2428">
        <ele>1376.75</ele>
        <time>2016-06-19T09:57:48Z</time>
      </trkpt>
      <trkpt lat="44.17816" lon="5.24316">
        <ele>1378.67</ele>
        <time>2016-06-19T09:57:49Z</time>
      </trkpt>
      <trkpt lat="44.17828" lon="5.24353">
        <ele>1380.11</ele>
        <time>2016-06-19T09:57:50Z</time>
      </trkpt>
      <trkpt lat="44.17838" lon="5.24388">
        <ele>1381.55</ele>
        <time>2016-06-19T09:57:51Z</time>
      </trkpt>
      <trkpt lat="44.17846" lon="5.24424">
        <ele>1382.99</ele>
        <time>2016-06-19T09:57:52Z</time>
      </trkpt>
      <trkpt lat="44.17851" lon="5.24459">
        <ele>1384.44</ele>
        <time>2016-06-19T09:57:53Z</time>
      </trkpt>
      <trkpt lat="44.17852" lon="5.24492">
        <ele>1385.88</ele>
        <time>2016-06-19T09:57:54Z</time>
      </trkpt>
      <trkpt lat="44.17853" lon="5.24521">
        <ele>1387.32</ele>
        <time>2016-06-19T09:57:55Z</time>
      </trkpt>
      <trkpt lat="44.17873" lon="5.24582">
        <ele>1389.24</ele>
        <time>2016-06-19T09:57:58Z</time>
      </trkpt>
      <trkpt lat="44.17887" lon="5.246">
        <ele>1390.2</ele>
        <time>2016-06-19T09:57:59Z</time>
      </trkpt>
      <trkpt lat="44.17904" lon="5.24619">
        <ele>1392.13</ele>
        <time>2016-06-19T09:58:00Z</time>
      </trkpt>
      <trkpt lat="44.17926" lon="5.24639">
        <ele>1394.05</ele>
        <time>2016-06-19T09:58:01Z</time>
      </trkpt>
      <trkpt lat="44.17946" lon="5.24664">
        <ele>1396.45</ele>
        <time>2016-06-19T09:58:02Z</time>
      </trkpt>
      <trkpt lat="44.18034" lon="5.24836">
        <ele>1407.51</ele>
        <time>2016-06-19T09:58:08Z</time>
      </trkpt>
      <trkpt lat="44.18057" lon="5.24934">
        <ele>1411.83</ele>
        <time>2016-06-19T09:58:11Z</time>
      </trkpt>
      <trkpt lat="44.18059" lon="5.24966">
        <ele>1412.79</ele>
        <time>2016-06-19T09:58:12Z</time>
      </trkpt>
      <trkpt lat="44.18058" lon="5.24998">
        <ele>1414.24</ele>
        <time>2016-06-19T09:58:13Z</time>
      </trkpt>
      <trkpt lat="44.18054" lon="5.25033">
        <ele>1415.2</ele>
        <time>2016-06-19T09:58:14Z</time>
      </trkpt>
      <trkpt lat="44.18049" lon="5.25069">
        <ele>1416.16</ele>
        <time>2016-06-19T09:58:15Z</time>
      </trkpt>
      <trkpt lat="44.18023" lon="5.25174">
        <ele>1420</ele>
        <time>2016-06-19T09:58:19Z</time>
      </trkpt>
      <trkpt lat="44.18011" lon="5.2519">
        <ele>1420.97</ele>
        <time>2016-06-19T09:58:20Z</time>
      </trkpt>
      <trkpt lat="44.17999" lon="5.25203">
        <ele>1421.93</ele>
        <time>2016-06-19T09:58:21Z</time>
      </trkpt>
      <trkpt lat="44.17976" lon="5.25288">
        <ele>1424.33</ele>
        <time>2016-06-19T09:58:25Z</time>
      </trkpt>
      <trkpt lat="44.17977" lon="5.25318">
        <ele>1424.33</ele>
        <time>2016-06-19T09:58:26Z</time>
      </trkpt>
      <trkpt lat="44.17982" lon="5.25348">
        <ele>1425.29</ele>
        <time>2016-06-19T09:58:27Z</time>
      </trkpt>
      <trkpt lat="44.17989" lon="5.25374">
        <ele>1425.77</ele>
        <time>2016-06-19T09:58:28Z</time>
      </trkpt>
      <trkpt lat="44.17996" lon="5.25398">
        <ele>1425.29</ele>
        <time>2016-06-19T09:58:29Z</time>
      </trkpt>
      <trkpt lat="44.18029" lon="5.25472">
        <ele>1425.77</ele>
        <time>2016-06-19T09:58:33Z</time>
      </trkpt>
      <trkpt lat="44.18044" lon="5.2548">
        <ele>1426.25</ele>
        <time>2016-06-19T09:58:34Z</time>
      </trkpt>
      <trkpt lat="44.18057" lon="5.25486">
        <ele>1426.25</ele>
        <time>2016-06-19T09:58:35Z</time>
      </trkpt>
      <trkpt lat="44.18069" lon="5.2549">
        <ele>1426.73</ele>
        <time>2016-06-19T09:58:36Z</time>
      </trkpt>
      <trkpt lat="44.1808" lon="5.25494">
        <ele>1426.73</ele>
        <time>2016-06-19T09:58:37Z</time>
      </trkpt>
      <trkpt lat="44.18097" lon="5.25502">
        <ele>1426.73</ele>
        <time>2016-06-19T09:58:39Z</time>
      </trkpt>
      <trkpt lat="44.18103" lon="5.25509">
        <ele>1426.73</ele>
        <time>2016-06-19T09:58:40Z</time>
      </trkpt>
      <trkpt lat="44.18107" lon="5.25518">
        <ele>1426.25</ele>
        <time>2016-06-19T09:58:41Z</time>
      </trkpt>
      <trkpt lat="44.18108" lon="5.25526">
        <ele>1426.73</ele>
        <time>2016-06-19T09:58:42Z</time>
      </trkpt>
      <trkpt lat="44.18111" lon="5.25533">
        <ele>1426.73</ele>
        <time>2016-06-19T09:58:43Z</time>
      </trkpt>
      <trkpt lat="44.18115" lon="5.25535">
        <ele>1426.73</ele>
        <time>2016-06-19T09:58:44Z</time>
      </trkpt>
      <trkpt lat="44.18119" lon="5.25533">
        <ele>1426.73</ele>
        <time>2016-06-19T09:58:45Z</time>
      </trkpt>
      <trkpt lat="44.18122" lon="5.25529">
        <ele>1426.73</ele>
        <time>2016-06-19T09:58:46Z</time>
      </trkpt>
      <trkpt lat="44.18122" lon="5.25524">
        <ele>1426.73</ele>
        <time>2016-06-19T09:58:47Z</time>
      </trkpt>
      <trkpt lat="44.18122" lon="5.25522">
        <ele>1426.73</ele>
        <time>2016-06-19T09:58:48Z</time>
      </trkpt>
      <trkpt lat="44.18119" lon="5.25518">
        <ele>1427.21</ele>
        <time>2016-06-19T09:59:01Z</time>
      </trkpt>
      <trkpt lat="44.18115" lon="5.25514">
        <ele>1427.21</ele>
        <time>2016-06-19T09:59:10Z</time>
      </trkpt>
      <trkpt lat="44.18112" lon="5.25515">
        <ele>1427.7</ele>
        <time>2016-06-19T09:59:11Z</time>
      </trkpt>
      <trkpt lat="44.18109" lon="5.25518">
        <ele>1427.7</ele>
        <time>2016-06-19T09:59:12Z</time>
      </trkpt>
      <trkpt lat="44.18107" lon="5.25525">
        <ele>1427.7</ele>
        <time>2016-06-19T09:59:13Z</time>
      </trkpt>
      <trkpt lat="44.18107" lon="5.25534">
        <ele>1428.18</ele>
        <time>2016-06-19T09:59:14Z</time>
      </trkpt>
      <trkpt lat="44.18107" lon="5.25544">
        <ele>1428.66</ele>
        <time>2016-06-19T09:59:15Z</time>
      </trkpt>
      <trkpt lat="44.18108" lon="5.25554">
        <ele>1429.14</ele>
        <time>2016-06-19T09:59:16Z</time>
      </trkpt>
      <trkpt lat="44.18114" lon="5.25679">
        <ele>1433.94</ele>
        <time>2016-06-19T09:59:24Z</time>
      </trkpt>
      <trkpt lat="44.18112" lon="5.25831">
        <ele>1438.27</ele>
        <time>2016-06-19T09:59:31Z</time>
      </trkpt>
      <trkpt lat="44.1811" lon="5.25841">
        <ele>1438.75</ele>
        <time>2016-06-19T09:59:32Z</time>
      </trkpt>
      <trkpt lat="44.18106" lon="5.25846">
        <ele>1439.23</ele>
        <time>2016-06-19T09:59:33Z</time>
      </trkpt>
      <trkpt lat="44.18101" lon="5.25846">
        <ele>1439.71</ele>
        <time>2016-06-19T09:59:34Z</time>
      </trkpt>
      <trkpt lat="44.18092" lon="5.25824">
        <ele>1440.19</ele>
        <time>2016-06-19T09:59:36Z</time>
      </trkpt>
      <trkpt lat="44.1809" lon="5.25806">
        <ele>1440.67</ele>
        <time>2016-06-19T09:59:37Z</time>
      </trkpt>
      <trkpt lat="44.1809" lon="5.25785">
        <ele>1440.67</ele>
        <time>2016-06-19T09:59:38Z</time>
      </trkpt>
      <trkpt lat="44.1809" lon="5.25762">
        <ele>1441.15</ele>
        <time>2016-06-19T09:59:39Z</time>
      </trkpt>
      <trkpt lat="44.18091" lon="5.25615">
        <ele>1438.27</ele>
        <time>2016-06-19T09:59:45Z</time>
      </trkpt>
      <trkpt lat="44.18087" lon="5.25592">
        <ele>1438.27</ele>
        <time>2016-06-19T09:59:46Z</time>
      </trkpt>
      <trkpt lat="44.1808" lon="5.25571">
        <ele>1437.79</ele>
        <time>2016-06-19T09:59:47Z</time>
      </trkpt>
      <trkpt lat="44.1807" lon="5.25553">
        <ele>1437.31</ele>
        <time>2016-06-19T09:59:48Z</time>
      </trkpt>
      <trkpt lat="44.18055" lon="5.2554">
        <ele>1437.79</ele>
        <time>2016-06-19T09:59:49Z</time>
      </trkpt>
      <trkpt lat="44.18038" lon="5.25527">
        <ele>1438.27</ele>
        <time>2016-06-19T09:59:50Z</time>
      </trkpt>
      <trkpt lat="44.18017" lon="5.25517">
        <ele>1440.19</ele>
        <time>2016-06-19T09:59:51Z</time>
      </trkpt>
      <trkpt lat="44.17997" lon="5.25507">
        <ele>1441.63</ele>
        <time>2016-06-19T09:59:52Z</time>
      </trkpt>
      <trkpt lat="44.17982" lon="5.25498">
        <ele>1442.6</ele>
        <time>2016-06-19T09:59:53Z</time>
      </trkpt>
      <trkpt lat="44.17951" lon="5.25453">
        <ele>1445.48</ele>
        <time>2016-06-19T09:59:56Z</time>
      </trkpt>
      <trkpt lat="44.17947" lon="5.25432">
        <ele>1446.44</ele>
        <time>2016-06-19T09:59:57Z</time>
      </trkpt>
      <trkpt lat="44.17942" lon="5.25408">
        <ele>1448.36</ele>
        <time>2016-06-19T09:59:58Z</time>
      </trkpt>
      <trkpt lat="44.17909" lon="5.25262">
        <ele>1459.9</ele>
        <time>2016-06-19T10:00:03Z</time>
      </trkpt>
      <trkpt lat="44.17886" lon="5.25178">
        <ele>1469.03</ele>
        <time>2016-06-19T10:00:07Z</time>
      </trkpt>
      <trkpt lat="44.17887" lon="5.25159">
        <ele>1470.47</ele>
        <time>2016-06-19T10:00:08Z</time>
      </trkpt>
      <trkpt lat="44.1789" lon="5.25141">
        <ele>1472.4</ele>
        <time>2016-06-19T10:00:09Z</time>
      </trkpt>
      <trkpt lat="44.17896" lon="5.25101">
        <ele>1476.24</ele>
        <time>2016-06-19T10:00:11Z</time>
      </trkpt>
      <trkpt lat="44.17896" lon="5.2508">
        <ele>1478.16</ele>
        <time>2016-06-19T10:00:12Z</time>
      </trkpt>
      <trkpt lat="44.17894" lon="5.2506">
        <ele>1480.09</ele>
        <time>2016-06-19T10:00:13Z</time>
      </trkpt>
      <trkpt lat="44.17888" lon="5.25039">
        <ele>1482.49</ele>
        <time>2016-06-19T10:00:14Z</time>
      </trkpt>
      <trkpt lat="44.17878" lon="5.25018">
        <ele>1484.89</ele>
        <time>2016-06-19T10:00:15Z</time>
      </trkpt>
      <trkpt lat="44.17867" lon="5.24996">
        <ele>1487.78</ele>
        <time>2016-06-19T10:00:16Z</time>
      </trkpt>
      <trkpt lat="44.17857" lon="5.24973">
        <ele>1490.18</ele>
        <time>2016-06-19T10:00:17Z</time>
      </trkpt>
      <trkpt lat="44.17755" lon="5.24802">
        <ele>1510.37</ele>
        <time>2016-06-19T10:00:25Z</time>
      </trkpt>
      <trkpt lat="44.17675" lon="5.24685">
        <ele>1526.71</ele>
        <time>2016-06-19T10:00:31Z</time>
      </trkpt>
      <trkpt lat="44.1767" lon="5.2467">
        <ele>1528.63</ele>
        <time>2016-06-19T10:00:32Z</time>
      </trkpt>
      <trkpt lat="44.17664" lon="5.24658">
        <ele>1531.52</ele>
        <time>2016-06-19T10:00:33Z</time>
      </trkpt>
      <trkpt lat="44.17661" lon="5.24663">
        <ele>1532.96</ele>
        <time>2016-06-19T10:00:35Z</time>
      </trkpt>
      <trkpt lat="44.17667" lon="5.24696">
        <ele>1537.29</ele>
        <time>2016-06-19T10:00:38Z</time>
      </trkpt>
      <trkpt lat="44.17679" lon="5.24716">
        <ele>1538.73</ele>
        <time>2016-06-19T10:00:39Z</time>
      </trkpt>
      <trkpt lat="44.17687" lon="5.24741">
        <ele>1538.73</ele>
        <time>2016-06-19T10:00:40Z</time>
      </trkpt>
      <trkpt lat="44.17695" lon="5.24767">
        <ele>1540.17</ele>
        <time>2016-06-19T10:00:41Z</time>
      </trkpt>
      <trkpt lat="44.17733" lon="5.2492">
        <ele>1546.42</ele>
        <time>2016-06-19T10:00:46Z</time>
      </trkpt>
      <trkpt lat="44.17764" lon="5.25186">
        <ele>1557.47</ele>
        <time>2016-06-19T10:00:54Z</time>
      </trkpt>
      <trkpt lat="44.17781" lon="5.25492">
        <ele>1568.53</ele>
        <time>2016-06-19T10:01:03Z</time>
      </trkpt>
      <trkpt lat="44.17783" lon="5.25625">
        <ele>1574.78</ele>
        <time>2016-06-19T10:01:09Z</time>
      </trkpt>
      <trkpt lat="44.17799" lon="5.25766">
        <ele>1581.03</ele>
        <time>2016-06-19T10:01:16Z</time>
      </trkpt>
      <trkpt lat="44.17782" lon="5.25872">
        <ele>1586.31</ele>
        <time>2016-06-19T10:01:21Z</time>
      </trkpt>
      <trkpt lat="44.17773" lon="5.25897">
        <ele>1588.72</ele>
        <time>2016-06-19T10:01:23Z</time>
      </trkpt>
      <trkpt lat="44.17771" lon="5.25909">
        <ele>1589.68</ele>
        <time>2016-06-19T10:01:24Z</time>
      </trkpt>
      <trkpt lat="44.17772" lon="5.25921">
        <ele>1590.64</ele>
        <time>2016-06-19T10:01:25Z</time>
      </trkpt>
      <trkpt lat="44.17775" lon="5.25933">
        <ele>1591.6</ele>
        <time>2016-06-19T10:01:26Z</time>
      </trkpt>
      <trkpt lat="44.17778" lon="5.25946">
        <ele>1592.56</ele>
        <time>2016-06-19T10:01:27Z</time>
      </trkpt>
      <trkpt lat="44.17782" lon="5.25959">
        <ele>1593.52</ele>
        <time>2016-06-19T10:01:28Z</time>
      </trkpt>
      <trkpt lat="44.17784" lon="5.25971">
        <ele>1594.48</ele>
        <time>2016-06-19T10:01:29Z</time>
      </trkpt>
      <trkpt lat="44.17789" lon="5.26058">
        <ele>1600.73</ele>
        <time>2016-06-19T10:01:37Z</time>
      </trkpt>
      <trkpt lat="44.17789" lon="5.26078">
        <ele>1602.17</ele>
        <time>2016-06-19T10:01:45Z</time>
      </trkpt>
      <trkpt lat="44.17788" lon="5.26133">
        <ele>1605.54</ele>
        <time>2016-06-19T10:01:55Z</time>
      </trkpt>
      <trkpt lat="44.17783" lon="5.26256">
        <ele>1613.71</ele>
        <time>2016-06-19T10:02:03Z</time>
      </trkpt>
      <trkpt lat="44.17786" lon="5.26417">
        <ele>1624.77</ele>
        <time>2016-06-19T10:02:11Z</time>
      </trkpt>
      <trkpt lat="44.17774" lon="5.26554">
        <ele>1634.86</ele>
        <time>2016-06-19T10:02:19Z</time>
      </trkpt>
      <trkpt lat="44.17769" lon="5.26572">
        <ele>1635.82</ele>
        <time>2016-06-19T10:02:20Z</time>
      </trkpt>
      <trkpt lat="44.17764" lon="5.26592">
        <ele>1637.26</ele>
        <time>2016-06-19T10:02:21Z</time>
      </trkpt>
      <trkpt lat="44.1776" lon="5.26613">
        <ele>1638.7</ele>
        <time>2016-06-19T10:02:22Z</time>
      </trkpt>
      <trkpt lat="44.1776" lon="5.26635">
        <ele>1639.67</ele>
        <time>2016-06-19T10:02:23Z</time>
      </trkpt>
      <trkpt lat="44.17763" lon="5.26657">
        <ele>1641.11</ele>
        <time>2016-06-19T10:02:24Z</time>
      </trkpt>
      <trkpt lat="44.17765" lon="5.26677">
        <ele>1642.55</ele>
        <time>2016-06-19T10:02:25Z</time>
      </trkpt>
      <trkpt lat="44.17769" lon="5.26761">
        <ele>1647.84</ele>
        <time>2016-06-19T10:02:30Z</time>
      </trkpt>
      <trkpt lat="44.17764" lon="5.26884">
        <ele>1653.6</ele>
        <time>2016-06-19T10:02:34Z</time>
      </trkpt>
      <trkpt lat="44.1773" lon="5.2716">
        <ele>1672.83</ele>
        <time>2016-06-19T10:02:42Z</time>
      </trkpt>
      <trkpt lat="44.17719" lon="5.27237">
        <ele>1678.6</ele>
        <time>2016-06-19T10:02:45Z</time>
      </trkpt>
      <trkpt lat="44.17714" lon="5.27254">
        <ele>1680.04</ele>
        <time>2016-06-19T10:02:46Z</time>
      </trkpt>
      <trkpt lat="44.17705" lon="5.27267">
        <ele>1681.48</ele>
        <time>2016-06-19T10:02:47Z</time>
      </trkpt>
      <trkpt lat="44.17694" lon="5.27282">
        <ele>1683.41</ele>
        <time>2016-06-19T10:02:48Z</time>
      </trkpt>
      <trkpt lat="44.17681" lon="5.27294">
        <ele>1685.33</ele>
        <time>2016-06-19T10:02:49Z</time>
      </trkpt>
      <trkpt lat="44.17665" lon="5.27306">
        <ele>1687.25</ele>
        <time>2016-06-19T10:02:50Z</time>
      </trkpt>
      <trkpt lat="44.17614" lon="5.27393">
        <ele>1694.94</ele>
        <time>2016-06-19T10:02:55Z</time>
      </trkpt>
      <trkpt lat="44.17609" lon="5.27408">
        <ele>1696.38</ele>
        <time>2016-06-19T10:02:56Z</time>
      </trkpt>
      <trkpt lat="44.17607" lon="5.27422">
        <ele>1697.34</ele>
        <time>2016-06-19T10:02:57Z</time>
      </trkpt>
      <trkpt lat="44.17611" lon="5.27435">
        <ele>1698.31</ele>
        <time>2016-06-19T10:02:58Z</time>
      </trkpt>
      <trkpt lat="44.1762" lon="5.27445">
        <ele>1699.27</ele>
        <time>2016-06-19T10:02:59Z</time>
      </trkpt>
      <trkpt lat="44.17634" lon="5.27451">
        <ele>1700.71</ele>
        <time>2016-06-19T10:03:00Z</time>
      </trkpt>
      <trkpt lat="44.1765" lon="5.27457">
        <ele>1701.67</ele>
        <time>2016-06-19T10:03:01Z</time>
      </trkpt>
      <trkpt lat="44.17667" lon="5.27465">
        <ele>1703.11</ele>
        <time>2016-06-19T10:03:02Z</time>
      </trkpt>
      <trkpt lat="44.17683" lon="5.27474">
        <ele>1705.04</ele>
        <time>2016-06-19T10:03:03Z</time>
      </trkpt>
      <trkpt lat="44.17697" lon="5.27486">
        <ele>1706</ele>
        <time>2016-06-19T10:03:04Z</time>
      </trkpt>
      <trkpt lat="44.17711" lon="5.27504">
        <ele>1707.92</ele>
        <time>2016-06-19T10:03:05Z</time>
      </trkpt>
      <trkpt lat="44.17724" lon="5.27525">
        <ele>1709.84</ele>
        <time>2016-06-19T10:03:06Z</time>
      </trkpt>
      <trkpt lat="44.17736" lon="5.27548">
        <ele>1712.25</ele>
        <time>2016-06-19T10:03:07Z</time>
      </trkpt>
      <trkpt lat="44.17746" lon="5.27573">
        <ele>1714.17</ele>
        <time>2016-06-19T10:03:08Z</time>
      </trkpt>
      <trkpt lat="44.17755" lon="5.27598">
        <ele>1716.57</ele>
        <time>2016-06-19T10:03:09Z</time>
      </trkpt>
      <trkpt lat="44.17763" lon="5.27624">
        <ele>1718.49</ele>
        <time>2016-06-19T10:03:10Z</time>
      </trkpt>
      <trkpt lat="44.17769" lon="5.27651">
        <ele>1720.42</ele>
        <time>2016-06-19T10:03:11Z</time>
      </trkpt>
      <trkpt lat="44.17773" lon="5.27681">
        <ele>1722.82</ele>
        <time>2016-06-19T10:03:12Z</time>
      </trkpt>
      <trkpt lat="44.17771" lon="5.27874">
        <ele>1737.72</ele>
        <time>2016-06-19T10:03:18Z</time>
      </trkpt>
      <trkpt lat="44.17761" lon="5.27993">
        <ele>1748.78</ele>
        <time>2016-06-19T10:03:23Z</time>
      </trkpt>
      <trkpt lat="44.17758" lon="5.28036">
        <ele>1754.06</ele>
        <time>2016-06-19T10:03:27Z</time>
      </trkpt>
      <trkpt lat="44.17755" lon="5.28042">
        <ele>1755.5</ele>
        <time>2016-06-19T10:03:28Z</time>
      </trkpt>
      <trkpt lat="44.17744" lon="5.28031">
        <ele>1757.91</ele>
        <time>2016-06-19T10:03:30Z</time>
      </trkpt>
      <trkpt lat="44.17742" lon="5.28018">
        <ele>1758.87</ele>
        <time>2016-06-19T10:03:31Z</time>
      </trkpt>
      <trkpt lat="44.17743" lon="5.28002">
        <ele>1759.83</ele>
        <time>2016-06-19T10:03:32Z</time>
      </trkpt>
      <trkpt lat="44.17745" lon="5.27984">
        <ele>1760.79</ele>
        <time>2016-06-19T10:03:33Z</time>
      </trkpt>
      <trkpt lat="44.17745" lon="5.27964">
        <ele>1761.75</ele>
        <time>2016-06-19T10:03:34Z</time>
      </trkpt>
      <trkpt lat="44.17744" lon="5.27944">
        <ele>1762.71</ele>
        <time>2016-06-19T10:03:35Z</time>
      </trkpt>
      <trkpt lat="44.17742" lon="5.27925">
        <ele>1763.68</ele>
        <time>2016-06-19T10:03:36Z</time>
      </trkpt>
      <trkpt lat="44.17738" lon="5.27907">
        <ele>1765.12</ele>
        <time>2016-06-19T10:03:37Z</time>
      </trkpt>
      <trkpt lat="44.17735" lon="5.27889">
        <ele>1766.08</ele>
        <time>2016-06-19T10:03:38Z</time>
      </trkpt>
      <trkpt lat="44.17686" lon="5.27745">
        <ele>1777.61</ele>
        <time>2016-06-19T10:03:45Z</time>
      </trkpt>
      <trkpt lat="44.17667" lon="5.27703">
        <ele>1780.98</ele>
        <time>2016-06-19T10:03:47Z</time>
      </trkpt>
      <trkpt lat="44.17655" lon="5.27685">
        <ele>1781.94</ele>
        <time>2016-06-19T10:03:48Z</time>
      </trkpt>
      <trkpt lat="44.17642" lon="5.27669">
        <ele>1782.9</ele>
        <time>2016-06-19T10:03:49Z</time>
      </trkpt>
      <trkpt lat="44.17628" lon="5.27656">
        <ele>1784.82</ele>
        <time>2016-06-19T10:03:50Z</time>
      </trkpt>
      <trkpt lat="44.17612" lon="5.27645">
        <ele>1787.23</ele>
        <time>2016-06-19T10:03:51Z</time>
      </trkpt>
      <trkpt lat="44.17596" lon="5.27635">
        <ele>1789.15</ele>
        <time>2016-06-19T10:03:52Z</time>
      </trkpt>
      <trkpt lat="44.17519" lon="5.27605">
        <ele>1799.24</ele>
        <time>2016-06-19T10:03:58Z</time>
      </trkpt>
      <trkpt lat="44.17493" lon="5.276">
        <ele>1802.61</ele>
        <time>2016-06-19T10:04:00Z</time>
      </trkpt>
      <trkpt lat="44.17477" lon="5.27594">
        <ele>1804.05</ele>
        <time>2016-06-19T10:04:01Z</time>
      </trkpt>
      <trkpt lat="44.1746" lon="5.27582">
        <ele>1805.49</ele>
        <time>2016-06-19T10:04:02Z</time>
      </trkpt>
      <trkpt lat="44.17445" lon="5.27565">
        <ele>1807.42</ele>
        <time>2016-06-19T10:04:03Z</time>
      </trkpt>
      <trkpt lat="44.1743" lon="5.27546">
        <ele>1808.86</ele>
        <time>2016-06-19T10:04:04Z</time>
      </trkpt>
      <trkpt lat="44.17416" lon="5.27528">
        <ele>1810.78</ele>
        <time>2016-06-19T10:04:05Z</time>
      </trkpt>
      <trkpt lat="44.17386" lon="5.27481">
        <ele>1816.07</ele>
        <time>2016-06-19T10:04:08Z</time>
      </trkpt>
      <trkpt lat="44.17381" lon="5.27462">
        <ele>1817.51</ele>
        <time>2016-06-19T10:04:09Z</time>
      </trkpt>
      <trkpt lat="44.17378" lon="5.27439">
        <ele>1818.47</ele>
        <time>2016-06-19T10:04:10Z</time>
      </trkpt>
      <trkpt lat="44.17378" lon="5.27414">
        <ele>1820.39</ele>
        <time>2016-06-19T10:04:11Z</time>
      </trkpt>
      <trkpt lat="44.1738" lon="5.27386">
        <ele>1821.84</ele>
        <time>2016-06-19T10:04:12Z</time>
      </trkpt>
      <trkpt lat="44.1738" lon="5.27358">
        <ele>1823.28</ele>
        <time>2016-06-19T10:04:13Z</time>
      </trkpt>
      <trkpt lat="44.17381" lon="5.27331">
        <ele>1824.24</ele>
        <time>2016-06-19T10:04:14Z</time>
      </trkpt>
      <trkpt lat="44.17383" lon="5.27309">
        <ele>1825.68</ele>
        <time>2016-06-19T10:04:15Z</time>
      </trkpt>
      <trkpt lat="44.17386" lon="5.2729">
        <ele>1827.12</ele>
        <time>2016-06-19T10:04:16Z</time>
      </trkpt>
      <trkpt lat="44.17389" lon="5.27259">
        <ele>1828.56</ele>
        <time>2016-06-19T10:04:18Z</time>
      </trkpt>
      <trkpt lat="44.17385" lon="5.27246">
        <ele>1829.05</ele>
        <time>2016-06-19T10:04:19Z</time>
      </trkpt>
      <trkpt lat="44.17378" lon="5.27238">
        <ele>1829.53</ele>
        <time>2016-06-19T10:04:20Z</time>
      </trkpt>
      <trkpt lat="44.17368" lon="5.27235">
        <ele>1830.01</ele>
        <time>2016-06-19T10:04:21Z</time>
      </trkpt>
      <trkpt lat="44.17358" lon="5.27238">
        <ele>1830.49</ele>
        <time>2016-06-19T10:04:22Z</time>
      </trkpt>
      <trkpt lat="44.17349" lon="5.27248">
        <ele>1830.97</ele>
        <time>2016-06-19T10:04:23Z</time>
      </trkpt>
      <trkpt lat="44.17344" lon="5.27261">
        <ele>1831.45</ele>
        <time>2016-06-19T10:04:24Z</time>
      </trkpt>
      <trkpt lat="44.17343" lon="5.27278">
        <ele>1831.93</ele>
        <time>2016-06-19T10:04:25Z</time>
      </trkpt>
      <trkpt lat="44.17344" lon="5.27297">
        <ele>1832.41</ele>
        <time>2016-06-19T10:04:26Z</time>
      </trkpt>
      <trkpt lat="44.17347" lon="5.2732">
        <ele>1833.85</ele>
        <time>2016-06-19T10:04:27Z</time>
      </trkpt>
      <trkpt lat="44.17349" lon="5.27346">
        <ele>1834.81</ele>
        <time>2016-06-19T10:04:28Z</time>
      </trkpt>
      <trkpt lat="44.17351" lon="5.27509">
        <ele>1842.98</ele>
        <time>2016-06-19T10:04:34Z</time>
      </trkpt>
      <trkpt lat="44.17353" lon="5.27534">
        <ele>1844.43</ele>
        <time>2016-06-19T10:04:35Z</time>
      </trkpt>
      <trkpt lat="44.17358" lon="5.27558">
        <ele>1845.87</ele>
        <time>2016-06-19T10:04:36Z</time>
      </trkpt>
      <trkpt lat="44.17367" lon="5.27583">
        <ele>1847.31</ele>
        <time>2016-06-19T10:04:37Z</time>
      </trkpt>
      <trkpt lat="44.17377" lon="5.27607">
        <ele>1849.23</ele>
        <time>2016-06-19T10:04:38Z</time>
      </trkpt>
      <trkpt lat="44.17388" lon="5.27631">
        <ele>1851.16</ele>
        <time>2016-06-19T10:04:39Z</time>
      </trkpt>
      <trkpt lat="44.17408" lon="5.27675">
        <ele>1854.52</ele>
        <time>2016-06-19T10:04:41Z</time>
      </trkpt>
      <trkpt lat="44.17421" lon="5.27694">
        <ele>1856.92</ele>
        <time>2016-06-19T10:04:42Z</time>
      </trkpt>
      <trkpt lat="44.17435" lon="5.27711">
        <ele>1858.85</ele>
        <time>2016-06-19T10:04:43Z</time>
      </trkpt>
      <trkpt lat="44.17449" lon="5.27726">
        <ele>1860.77</ele>
        <time>2016-06-19T10:04:44Z</time>
      </trkpt>
      <trkpt lat="44.17464" lon="5.2774">
        <ele>1862.21</ele>
        <time>2016-06-19T10:04:45Z</time>
      </trkpt>
      <trkpt lat="44.17491" lon="5.27773">
        <ele>1865.58</ele>
        <time>2016-06-19T10:04:47Z</time>
      </trkpt>
      <trkpt lat="44.17503" lon="5.27793">
        <ele>1867.5</ele>
        <time>2016-06-19T10:04:48Z</time>
      </trkpt>
      <trkpt lat="44.17512" lon="5.27814">
        <ele>1869.42</ele>
        <time>2016-06-19T10:04:49Z</time>
      </trkpt>
      <trkpt lat="44.17518" lon="5.27835">
        <ele>1871.34</ele>
        <time>2016-06-19T10:04:50Z</time>
      </trkpt>
      <trkpt lat="44.17523" lon="5.27856">
        <ele>1872.79</ele>
        <time>2016-06-19T10:04:51Z</time>
      </trkpt>
      <trkpt lat="44.17525" lon="5.27878">
        <ele>1874.23</ele>
        <time>2016-06-19T10:04:52Z</time>
      </trkpt>
      <trkpt lat="44.17527" lon="5.27901">
        <ele>1876.15</ele>
        <time>2016-06-19T10:04:53Z</time>
      </trkpt>
      <trkpt lat="44.17526" lon="5.27926">
        <ele>1877.59</ele>
        <time>2016-06-19T10:04:54Z</time>
      </trkpt>
      <trkpt lat="44.17524" lon="5.27951">
        <ele>1879.03</ele>
        <time>2016-06-19T10:04:55Z</time>
      </trkpt>
      <trkpt lat="44.17521" lon="5.27974">
        <ele>1880.48</ele>
        <time>2016-06-19T10:04:56Z</time>
      </trkpt>
      <trkpt lat="44.17508" lon="5.28034">
        <ele>1886.24</ele>
        <time>2016-06-19T10:05:00Z</time>
      </trkpt>
      <trkpt lat="44.17504" lon="5.28043">
        <ele>1887.21</ele>
        <time>2016-06-19T10:05:01Z</time>
      </trkpt>
      <trkpt lat="44.175" lon="5.28049">
        <ele>1887.69</ele>
        <time>2016-06-19T10:05:02Z</time>
      </trkpt>
      <trkpt lat="44.17496" lon="5.28053">
        <ele>1888.17</ele>
        <time>2016-06-19T10:05:03Z</time>
      </trkpt>
      <trkpt lat="44.17493" lon="5.28057">
        <ele>1888.65</ele>
        <time>2016-06-19T10:05:04Z</time>
      </trkpt>
      <trkpt lat="44.17493" lon="5.28061">
        <ele>1889.13</ele>
        <time>2016-06-19T10:05:05Z</time>
      </trkpt>
      <trkpt lat="44.17495" lon="5.28062">
        <ele>1889.13</ele>
        <time>2016-06-19T10:05:06Z</time>
      </trkpt>
      <trkpt lat="44.17497" lon="5.28061">
        <ele>1888.65</ele>
        <time>2016-06-19T10:05:07Z</time>
      </trkpt>
      <trkpt lat="44.17497" lon="5.28057">
        <ele>1888.65</ele>
        <time>2016-06-19T10:05:19Z</time>
      </trkpt>
      <trkpt lat="44.17498" lon="5.28049">
        <ele>1889.13</ele>
        <time>2016-06-19T10:07:43Z</time>
      </trkpt>
      <trkpt lat="44.17496" lon="5.28047">
        <ele>1888.65</ele>
        <time>2016-06-19T10:07:44Z</time>
      </trkpt>
      <trkpt lat="44.17494" lon="5.28046">
        <ele>1888.65</ele>
        <time>2016-06-19T10:07:45Z</time>
      </trkpt>
      <trkpt lat="44.17492" lon="5.28046">
        <ele>1888.65</ele>
        <time>2016-06-19T10:07:46Z</time>
      </trkpt>
      <trkpt lat="44.17482" lon="5.28042">
        <ele>1889.13</ele>
        <time>2016-06-19T10:07:50Z</time>
      </trkpt>
      <trkpt lat="44.17477" lon="5.28037">
        <ele>1889.13</ele>
        <time>2016-06-19T10:07:51Z</time>
      </trkpt>
      <trkpt lat="44.17474" lon="5.28031">
        <ele>1889.13</ele>
        <time>2016-06-19T10:07:52Z</time>
      </trkpt>
      <trkpt lat="44.17471" lon="5.28025">
        <ele>1889.13</ele>
        <time>2016-06-19T10:07:53Z</time>
      </trkpt>
      <trkpt lat="44.17469" lon="5.28019">
        <ele>1889.13</ele>
        <time>2016-06-19T10:07:54Z</time>
      </trkpt>
      <trkpt lat="44.17467" lon="5.28015">
        <ele>1889.61</ele>
        <time>2016-06-19T10:07:55Z</time>
      </trkpt>
      <trkpt lat="44.17465" lon="5.28012">
        <ele>1889.61</ele>
        <time>2016-06-19T10:07:56Z</time>
      </trkpt>
      <trkpt lat="44.17457" lon="5.27994">
        <ele>1890.57</ele>
        <time>2016-06-19T10:08:00Z</time>
      </trkpt>
      <trkpt lat="44.17408" lon="5.27939">
        <ele>1897.78</ele>
        <time>2016-06-19T10:08:12Z</time>
      </trkpt>
      <trkpt lat="44.17363" lon="5.27888">
        <ele>1904.03</ele>
        <time>2016-06-19T10:08:20Z</time>
      </trkpt>
      <trkpt lat="44.1736" lon="5.27881">
        <ele>1904.99</ele>
        <time>2016-06-19T10:08:21Z</time>
      </trkpt>
      <trkpt lat="44.17358" lon="5.27874">
        <ele>1904.99</ele>
        <time>2016-06-19T10:08:22Z</time>
      </trkpt>
      <trkpt lat="44.17354" lon="5.27856">
        <ele>1905.95</ele>
        <time>2016-06-19T10:08:29Z</time>
      </trkpt>
      <trkpt lat="44.17358" lon="5.27826">
        <ele>1906.43</ele>
        <time>2016-06-19T10:08:40Z</time>
      </trkpt>
      <trkpt lat="44.17358" lon="5.27824">
        <ele>1906.43</ele>
        <time>2016-06-19T10:08:41Z</time>
      </trkpt>
      <trkpt lat="44.17357" lon="5.27824">
        <ele>1906.43</ele>
        <time>2016-06-19T10:08:51Z</time>
      </trkpt>
      <trkpt lat="44.17358" lon="5.27826">
        <ele>1904.51</ele>
        <time>2016-06-19T10:09:31Z</time>
      </trkpt>
      <trkpt lat="44.17359" lon="5.27827">
        <ele>1906.43</ele>
        <time>2016-06-19T10:10:18Z</time>
      </trkpt>
      <trkpt lat="44.17358" lon="5.27827">
        <ele>1904.99</ele>
        <time>2016-06-19T10:13:42Z</time>
      </trkpt>
      <trkpt lat="44.17358" lon="5.27826">
        <ele>1902.11</ele>
        <time>2016-06-19T10:16:02Z</time>
      </trkpt>
      <trkpt lat="44.17356" lon="5.27826">
        <ele>1904.51</ele>
        <time>2016-06-19T10:18:04Z</time>
      </trkpt>
      <trkpt lat="44.17354" lon="5.27821">
        <ele>1903.07</ele>
        <time>2016-06-19T10:18:48Z</time>
      </trkpt>
      <trkpt lat="44.17354" lon="5.27818">
        <ele>1903.07</ele>
        <time>2016-06-19T10:18:49Z</time>
      </trkpt>
      <trkpt lat="44.17357" lon="5.2775">
        <ele>1897.78</ele>
        <time>2016-06-19T10:19:02Z</time>
      </trkpt>
      <trkpt lat="44.17358" lon="5.27712">
        <ele>1893.93</ele>
        <time>2016-06-19T10:19:07Z</time>
      </trkpt>
      <trkpt lat="44.17356" lon="5.27706">
        <ele>1892.97</ele>
        <time>2016-06-19T10:19:08Z</time>
      </trkpt>
      <trkpt lat="44.17353" lon="5.27702">
        <ele>1892.01</ele>
        <time>2016-06-19T10:19:09Z</time>
      </trkpt>
      <trkpt lat="44.17349" lon="5.27699">
        <ele>1891.53</ele>
        <time>2016-06-19T10:19:10Z</time>
      </trkpt>
      <trkpt lat="44.17344" lon="5.27699">
        <ele>1891.53</ele>
        <time>2016-06-19T10:19:11Z</time>
      </trkpt>
      <trkpt lat="44.1734" lon="5.27702">
        <ele>1890.57</ele>
        <time>2016-06-19T10:19:12Z</time>
      </trkpt>
      <trkpt lat="44.17337" lon="5.27708">
        <ele>1889.61</ele>
        <time>2016-06-19T10:19:13Z</time>
      </trkpt>
      <trkpt lat="44.17335" lon="5.27716">
        <ele>1889.61</ele>
        <time>2016-06-19T10:19:14Z</time>
      </trkpt>
      <trkpt lat="44.17333" lon="5.27726">
        <ele>1889.61</ele>
        <time>2016-06-19T10:19:15Z</time>
      </trkpt>
      <trkpt lat="44.17329" lon="5.27737">
        <ele>1889.13</ele>
        <time>2016-06-19T10:19:16Z</time>
      </trkpt>
      <trkpt lat="44.17325" lon="5.27749">
        <ele>1888.65</ele>
        <time>2016-06-19T10:19:17Z</time>
      </trkpt>
      <trkpt lat="44.17321" lon="5.2776">
        <ele>1888.17</ele>
        <time>2016-06-19T10:19:18Z</time>
      </trkpt>
      <trkpt lat="44.17302" lon="5.27809">
        <ele>1884.8</ele>
        <time>2016-06-19T10:19:22Z</time>
      </trkpt>
      <trkpt lat="44.17299" lon="5.27824">
        <ele>1884.32</ele>
        <time>2016-06-19T10:19:23Z</time>
      </trkpt>
      <trkpt lat="44.17297" lon="5.27839">
        <ele>1883.36</ele>
        <time>2016-06-19T10:19:24Z</time>
      </trkpt>
      <trkpt lat="44.17296" lon="5.27855">
        <ele>1882.4</ele>
        <time>2016-06-19T10:19:25Z</time>
      </trkpt>
      <trkpt lat="44.17296" lon="5.27871">
        <ele>1880.96</ele>
        <time>2016-06-19T10:19:26Z</time>
      </trkpt>
      <trkpt lat="44.17297" lon="5.27888">
        <ele>1880</ele>
        <time>2016-06-19T10:19:27Z</time>
      </trkpt>
      <trkpt lat="44.17299" lon="5.27905">
        <ele>1878.55</ele>
        <time>2016-06-19T10:19:28Z</time>
      </trkpt>
      <trkpt lat="44.17302" lon="5.27921">
        <ele>1877.11</ele>
        <time>2016-06-19T10:19:29Z</time>
      </trkpt>
      <trkpt lat="44.17308" lon="5.27937">
        <ele>1875.67</ele>
        <time>2016-06-19T10:19:30Z</time>
      </trkpt>
      <trkpt lat="44.17314" lon="5.27951">
        <ele>1874.23</ele>
        <time>2016-06-19T10:19:31Z</time>
      </trkpt>
      <trkpt lat="44.17322" lon="5.27966">
        <ele>1872.79</ele>
        <time>2016-06-19T10:19:32Z</time>
      </trkpt>
      <trkpt lat="44.17372" lon="5.2807">
        <ele>1862.21</ele>
        <time>2016-06-19T10:19:38Z</time>
      </trkpt>
      <trkpt lat="44.17379" lon="5.28092">
        <ele>1860.77</ele>
        <time>2016-06-19T10:19:39Z</time>
      </trkpt>
      <trkpt lat="44.17385" lon="5.28116">
        <ele>1858.85</ele>
        <time>2016-06-19T10:19:40Z</time>
      </trkpt>
      <trkpt lat="44.17425" lon="5.28329">
        <ele>1840.58</ele>
        <time>2016-06-19T10:19:49Z</time>
      </trkpt>
      <trkpt lat="44.17426" lon="5.2835">
        <ele>1838.66</ele>
        <time>2016-06-19T10:19:50Z</time>
      </trkpt>
      <trkpt lat="44.17422" lon="5.28367">
        <ele>1836.26</ele>
        <time>2016-06-19T10:19:51Z</time>
      </trkpt>
      <trkpt lat="44.17415" lon="5.2838">
        <ele>1834.33</ele>
        <time>2016-06-19T10:19:52Z</time>
      </trkpt>
      <trkpt lat="44.17405" lon="5.28388">
        <ele>1832.41</ele>
        <time>2016-06-19T10:19:53Z</time>
      </trkpt>
      <trkpt lat="44.17394" lon="5.28394">
        <ele>1830.97</ele>
        <time>2016-06-19T10:19:54Z</time>
      </trkpt>
      <trkpt lat="44.17378" lon="5.28397">
        <ele>1829.53</ele>
        <time>2016-06-19T10:19:55Z</time>
      </trkpt>
      <trkpt lat="44.17359" lon="5.28399">
        <ele>1827.6</ele>
        <time>2016-06-19T10:19:56Z</time>
      </trkpt>
      <trkpt lat="44.1734" lon="5.28402">
        <ele>1825.68</ele>
        <time>2016-06-19T10:19:57Z</time>
      </trkpt>
      <trkpt lat="44.17132" lon="5.28435">
        <ele>1803.09</ele>
        <time>2016-06-19T10:20:08Z</time>
      </trkpt>
      <trkpt lat="44.17114" lon="5.28446">
        <ele>1801.17</ele>
        <time>2016-06-19T10:20:09Z</time>
      </trkpt>
      <trkpt lat="44.17098" lon="5.2846">
        <ele>1798.76</ele>
        <time>2016-06-19T10:20:10Z</time>
      </trkpt>
      <trkpt lat="44.17084" lon="5.28477">
        <ele>1796.84</ele>
        <time>2016-06-19T10:20:11Z</time>
      </trkpt>
      <trkpt lat="44.17072" lon="5.28496">
        <ele>1794.44</ele>
        <time>2016-06-19T10:20:12Z</time>
      </trkpt>
      <trkpt lat="44.17058" lon="5.28515">
        <ele>1792.52</ele>
        <time>2016-06-19T10:20:13Z</time>
      </trkpt>
      <trkpt lat="44.17044" lon="5.28532">
        <ele>1790.11</ele>
        <time>2016-06-19T10:20:14Z</time>
      </trkpt>
      <trkpt lat="44.17027" lon="5.28547">
        <ele>1788.19</ele>
        <time>2016-06-19T10:20:15Z</time>
      </trkpt>
      <trkpt lat="44.1701" lon="5.28561">
        <ele>1785.79</ele>
        <time>2016-06-19T10:20:16Z</time>
      </trkpt>
      <trkpt lat="44.16914" lon="5.28682">
        <ele>1772.33</ele>
        <time>2016-06-19T10:20:23Z</time>
      </trkpt>
      <trkpt lat="44.16862" lon="5.28857">
        <ele>1760.31</ele>
        <time>2016-06-19T10:20:30Z</time>
      </trkpt>
      <trkpt lat="44.16857" lon="5.28952">
        <ele>1754.54</ele>
        <time>2016-06-19T10:20:34Z</time>
      </trkpt>
      <trkpt lat="44.16861" lon="5.28974">
        <ele>1752.62</ele>
        <time>2016-06-19T10:20:35Z</time>
      </trkpt>
      <trkpt lat="44.1687" lon="5.28994">
        <ele>1751.18</ele>
        <time>2016-06-19T10:20:36Z</time>
      </trkpt>
      <trkpt lat="44.1688" lon="5.29012">
        <ele>1749.74</ele>
        <time>2016-06-19T10:20:37Z</time>
      </trkpt>
      <trkpt lat="44.16892" lon="5.29027">
        <ele>1748.29</ele>
        <time>2016-06-19T10:20:38Z</time>
      </trkpt>
      <trkpt lat="44.16905" lon="5.2904">
        <ele>1747.33</ele>
        <time>2016-06-19T10:20:39Z</time>
      </trkpt>
      <trkpt lat="44.16918" lon="5.29052">
        <ele>1745.89</ele>
        <time>2016-06-19T10:20:40Z</time>
      </trkpt>
      <trkpt lat="44.16939" lon="5.29075">
        <ele>1743.97</ele>
        <time>2016-06-19T10:20:42Z</time>
      </trkpt>
      <trkpt lat="44.16946" lon="5.29088">
        <ele>1742.53</ele>
        <time>2016-06-19T10:20:43Z</time>
      </trkpt>
      <trkpt lat="44.16947" lon="5.29102">
        <ele>1741.57</ele>
        <time>2016-06-19T10:20:44Z</time>
      </trkpt>
      <trkpt lat="44.16942" lon="5.29115">
        <ele>1740.12</ele>
        <time>2016-06-19T10:20:45Z</time>
      </trkpt>
      <trkpt lat="44.16934" lon="5.29123">
        <ele>1739.16</ele>
        <time>2016-06-19T10:20:46Z</time>
      </trkpt>
      <trkpt lat="44.16924" lon="5.2913">
        <ele>1737.72</ele>
        <time>2016-06-19T10:20:47Z</time>
      </trkpt>
      <trkpt lat="44.16909" lon="5.29135">
        <ele>1737.24</ele>
        <time>2016-06-19T10:20:48Z</time>
      </trkpt>
      <trkpt lat="44.1689" lon="5.29141">
        <ele>1736.28</ele>
        <time>2016-06-19T10:20:49Z</time>
      </trkpt>
      <trkpt lat="44.16871" lon="5.29147">
        <ele>1734.36</ele>
        <time>2016-06-19T10:20:50Z</time>
      </trkpt>
      <trkpt lat="44.16746" lon="5.29202">
        <ele>1719.94</ele>
        <time>2016-06-19T10:20:57Z</time>
      </trkpt>
      <trkpt lat="44.16734" lon="5.29215">
        <ele>1718.01</ele>
        <time>2016-06-19T10:20:58Z</time>
      </trkpt>
      <trkpt lat="44.16724" lon="5.29231">
        <ele>1716.57</ele>
        <time>2016-06-19T10:20:59Z</time>
      </trkpt>
      <trkpt lat="44.16715" lon="5.29249">
        <ele>1714.65</ele>
        <time>2016-06-19T10:21:00Z</time>
      </trkpt>
      <trkpt lat="44.16708" lon="5.29268">
        <ele>1712.25</ele>
        <time>2016-06-19T10:21:01Z</time>
      </trkpt>
      <trkpt lat="44.16703" lon="5.29289">
        <ele>1710.32</ele>
        <time>2016-06-19T10:21:02Z</time>
      </trkpt>
      <trkpt lat="44.16702" lon="5.29312">
        <ele>1707.92</ele>
        <time>2016-06-19T10:21:03Z</time>
      </trkpt>
      <trkpt lat="44.16704" lon="5.29336">
        <ele>1706.48</ele>
        <time>2016-06-19T10:21:04Z</time>
      </trkpt>
      <trkpt lat="44.16709" lon="5.29361">
        <ele>1705.04</ele>
        <time>2016-06-19T10:21:05Z</time>
      </trkpt>
      <trkpt lat="44.16718" lon="5.29385">
        <ele>1704.07</ele>
        <time>2016-06-19T10:21:06Z</time>
      </trkpt>
      <trkpt lat="44.16729" lon="5.29408">
        <ele>1702.15</ele>
        <time>2016-06-19T10:21:07Z</time>
      </trkpt>
      <trkpt lat="44.1674" lon="5.29429">
        <ele>1700.71</ele>
        <time>2016-06-19T10:21:08Z</time>
      </trkpt>
      <trkpt lat="44.16759" lon="5.29472">
        <ele>1698.31</ele>
        <time>2016-06-19T10:21:10Z</time>
      </trkpt>
      <trkpt lat="44.16767" lon="5.29496">
        <ele>1696.86</ele>
        <time>2016-06-19T10:21:11Z</time>
      </trkpt>
      <trkpt lat="44.16768" lon="5.29519">
        <ele>1695.42</ele>
        <time>2016-06-19T10:21:12Z</time>
      </trkpt>
      <trkpt lat="44.16765" lon="5.29539">
        <ele>1693.98</ele>
        <time>2016-06-19T10:21:13Z</time>
      </trkpt>
      <trkpt lat="44.1676" lon="5.29558">
        <ele>1693.02</ele>
        <time>2016-06-19T10:21:14Z</time>
      </trkpt>
      <trkpt lat="44.16751" lon="5.29574">
        <ele>1692.54</ele>
        <time>2016-06-19T10:21:15Z</time>
      </trkpt>
      <trkpt lat="44.16739" lon="5.29587">
        <ele>1691.1</ele>
        <time>2016-06-19T10:21:16Z</time>
      </trkpt>
      <trkpt lat="44.16724" lon="5.29601">
        <ele>1690.14</ele>
        <time>2016-06-19T10:21:17Z</time>
      </trkpt>
      <trkpt lat="44.16705" lon="5.29614">
        <ele>1688.69</ele>
        <time>2016-06-19T10:21:18Z</time>
      </trkpt>
      <trkpt lat="44.16685" lon="5.29627">
        <ele>1686.29</ele>
        <time>2016-06-19T10:21:19Z</time>
      </trkpt>
      <trkpt lat="44.16665" lon="5.29638">
        <ele>1684.37</ele>
        <time>2016-06-19T10:21:20Z</time>
      </trkpt>
      <trkpt lat="44.16644" lon="5.29649">
        <ele>1682.93</ele>
        <time>2016-06-19T10:21:21Z</time>
      </trkpt>
      <trkpt lat="44.16565" lon="5.29698">
        <ele>1674.75</ele>
        <time>2016-06-19T10:21:26Z</time>
      </trkpt>
      <trkpt lat="44.16555" lon="5.29708">
        <ele>1673.31</ele>
        <time>2016-06-19T10:21:27Z</time>
      </trkpt>
      <trkpt lat="44.16547" lon="5.2972">
        <ele>1671.87</ele>
        <time>2016-06-19T10:21:28Z</time>
      </trkpt>
      <trkpt lat="44.1654" lon="5.29733">
        <ele>1670.91</ele>
        <time>2016-06-19T10:21:29Z</time>
      </trkpt>
      <trkpt lat="44.16535" lon="5.29747">
        <ele>1669.95</ele>
        <time>2016-06-19T10:21:30Z</time>
      </trkpt>
      <trkpt lat="44.16531" lon="5.29762">
        <ele>1668.99</ele>
        <time>2016-06-19T10:21:31Z</time>
      </trkpt>
      <trkpt lat="44.16527" lon="5.29778">
        <ele>1668.51</ele>
        <time>2016-06-19T10:21:32Z</time>
      </trkpt>
      <trkpt lat="44.16503" lon="5.29897">
        <ele>1662.74</ele>
        <time>2016-06-19T10:21:37Z</time>
      </trkpt>
      <trkpt lat="44.16424" lon="5.301">
        <ele>1649.28</ele>
        <time>2016-06-19T10:21:45Z</time>
      </trkpt>
      <trkpt lat="44.16397" lon="5.30178">
        <ele>1644.47</ele>
        <time>2016-06-19T10:21:48Z</time>
      </trkpt>
      <trkpt lat="44.16384" lon="5.302">
        <ele>1643.03</ele>
        <time>2016-06-19T10:21:49Z</time>
      </trkpt>
      <trkpt lat="44.16368" lon="5.30218">
        <ele>1641.11</ele>
        <time>2016-06-19T10:21:50Z</time>
      </trkpt>
      <trkpt lat="44.16351" lon="5.30233">
        <ele>1639.67</ele>
        <time>2016-06-19T10:21:51Z</time>
      </trkpt>
      <trkpt lat="44.16334" lon="5.30246">
        <ele>1637.74</ele>
        <time>2016-06-19T10:21:52Z</time>
      </trkpt>
      <trkpt lat="44.16318" lon="5.30253">
        <ele>1636.3</ele>
        <time>2016-06-19T10:21:53Z</time>
      </trkpt>
      <trkpt lat="44.16303" lon="5.30254">
        <ele>1634.86</ele>
        <time>2016-06-19T10:21:54Z</time>
      </trkpt>
      <trkpt lat="44.16289" lon="5.30251">
        <ele>1633.42</ele>
        <time>2016-06-19T10:21:55Z</time>
      </trkpt>
      <trkpt lat="44.16277" lon="5.30239">
        <ele>1631.98</ele>
        <time>2016-06-19T10:21:56Z</time>
      </trkpt>
      <trkpt lat="44.16265" lon="5.30221">
        <ele>1631.01</ele>
        <time>2016-06-19T10:21:57Z</time>
      </trkpt>
      <trkpt lat="44.16252" lon="5.302">
        <ele>1631.98</ele>
        <time>2016-06-19T10:21:58Z</time>
      </trkpt>
      <trkpt lat="44.1624" lon="5.30175">
        <ele>1631.98</ele>
        <time>2016-06-19T10:21:59Z</time>
      </trkpt>
      <trkpt lat="44.16228" lon="5.3015">
        <ele>1630.05</ele>
        <time>2016-06-19T10:22:00Z</time>
      </trkpt>
      <trkpt lat="44.16194" lon="5.30086">
        <ele>1625.25</ele>
        <time>2016-06-19T10:22:03Z</time>
      </trkpt>
      <trkpt lat="44.16184" lon="5.30074">
        <ele>1623.32</ele>
        <time>2016-06-19T10:22:04Z</time>
      </trkpt>
      <trkpt lat="44.16171" lon="5.3007">
        <ele>1621.4</ele>
        <time>2016-06-19T10:22:05Z</time>
      </trkpt>
      <trkpt lat="44.16156" lon="5.30073">
        <ele>1619</ele>
        <time>2016-06-19T10:22:06Z</time>
      </trkpt>
      <trkpt lat="44.16138" lon="5.30083">
        <ele>1617.56</ele>
        <time>2016-06-19T10:22:07Z</time>
      </trkpt>
      <trkpt lat="44.16119" lon="5.30098">
        <ele>1615.63</ele>
        <time>2016-06-19T10:22:08Z</time>
      </trkpt>
      <trkpt lat="44.16101" lon="5.30114">
        <ele>1613.23</ele>
        <time>2016-06-19T10:22:09Z</time>
      </trkpt>
      <trkpt lat="44.16084" lon="5.30133">
        <ele>1611.31</ele>
        <time>2016-06-19T10:22:10Z</time>
      </trkpt>
      <trkpt lat="44.16068" lon="5.30155">
        <ele>1609.38</ele>
        <time>2016-06-19T10:22:11Z</time>
      </trkpt>
      <trkpt lat="44.16055" lon="5.30181">
        <ele>1607.46</ele>
        <time>2016-06-19T10:22:12Z</time>
      </trkpt>
      <trkpt lat="44.16043" lon="5.3021">
        <ele>1605.54</ele>
        <time>2016-06-19T10:22:13Z</time>
      </trkpt>
      <trkpt lat="44.16031" lon="5.3024">
        <ele>1603.62</ele>
        <time>2016-06-19T10:22:14Z</time>
      </trkpt>
      <trkpt lat="44.1597" lon="5.30458">
        <ele>1590.16</ele>
        <time>2016-06-19T10:22:21Z</time>
      </trkpt>
      <trkpt lat="44.15958" lon="5.30549">
        <ele>1583.91</ele>
        <time>2016-06-19T10:22:24Z</time>
      </trkpt>
      <trkpt lat="44.15963" lon="5.30581">
        <ele>1582.47</ele>
        <time>2016-06-19T10:22:25Z</time>
      </trkpt>
      <trkpt lat="44.15969" lon="5.30613">
        <ele>1580.54</ele>
        <time>2016-06-19T10:22:26Z</time>
      </trkpt>
      <trkpt lat="44.15976" lon="5.30644">
        <ele>1578.62</ele>
        <time>2016-06-19T10:22:27Z</time>
      </trkpt>
      <trkpt lat="44.15983" lon="5.30675">
        <ele>1576.7</ele>
        <time>2016-06-19T10:22:28Z</time>
      </trkpt>
      <trkpt lat="44.16" lon="5.30729">
        <ele>1573.33</ele>
        <time>2016-06-19T10:22:30Z</time>
      </trkpt>
      <trkpt lat="44.16009" lon="5.30753">
        <ele>1571.89</ele>
        <time>2016-06-19T10:22:31Z</time>
      </trkpt>
      <trkpt lat="44.16027" lon="5.3079">
        <ele>1569.01</ele>
        <time>2016-06-19T10:22:33Z</time>
      </trkpt>
      <trkpt lat="44.16031" lon="5.30804">
        <ele>1567.09</ele>
        <time>2016-06-19T10:22:34Z</time>
      </trkpt>
      <trkpt lat="44.16028" lon="5.30815">
        <ele>1565.64</ele>
        <time>2016-06-19T10:22:35Z</time>
      </trkpt>
      <trkpt lat="44.1602" lon="5.30823">
        <ele>1564.68</ele>
        <time>2016-06-19T10:22:36Z</time>
      </trkpt>
      <trkpt lat="44.1601" lon="5.30826">
        <ele>1562.76</ele>
        <time>2016-06-19T10:22:37Z</time>
      </trkpt>
      <trkpt lat="44.15997" lon="5.30828">
        <ele>1560.84</ele>
        <time>2016-06-19T10:22:38Z</time>
      </trkpt>
      <trkpt lat="44.15981" lon="5.30826">
        <ele>1559.88</ele>
        <time>2016-06-19T10:22:39Z</time>
      </trkpt>
      <trkpt lat="44.15961" lon="5.30822">
        <ele>1559.4</ele>
        <time>2016-06-19T10:22:40Z</time>
      </trkpt>
      <trkpt lat="44.1594" lon="5.30816">
        <ele>1557.95</ele>
        <time>2016-06-19T10:22:41Z</time>
      </trkpt>
      <trkpt lat="44.15919" lon="5.30812">
        <ele>1557.47</ele>
        <time>2016-06-19T10:22:42Z</time>
      </trkpt>
      <trkpt lat="44.15898" lon="5.30812">
        <ele>1556.51</ele>
        <time>2016-06-19T10:22:43Z</time>
      </trkpt>
      <trkpt lat="44.15878" lon="5.30815">
        <ele>1555.55</ele>
        <time>2016-06-19T10:22:44Z</time>
      </trkpt>
      <trkpt lat="44.1586" lon="5.30821">
        <ele>1554.59</ele>
        <time>2016-06-19T10:22:45Z</time>
      </trkpt>
      <trkpt lat="44.15842" lon="5.30829">
        <ele>1553.15</ele>
        <time>2016-06-19T10:22:46Z</time>
      </trkpt>
      <trkpt lat="44.15825" lon="5.30839">
        <ele>1551.71</ele>
        <time>2016-06-19T10:22:47Z</time>
      </trkpt>
      <trkpt lat="44.15809" lon="5.30852">
        <ele>1550.26</ele>
        <time>2016-06-19T10:22:48Z</time>
      </trkpt>
      <trkpt lat="44.15795" lon="5.30868">
        <ele>1548.82</ele>
        <time>2016-06-19T10:22:49Z</time>
      </trkpt>
      <trkpt lat="44.15782" lon="5.30888">
        <ele>1547.38</ele>
        <time>2016-06-19T10:22:50Z</time>
      </trkpt>
      <trkpt lat="44.15771" lon="5.30912">
        <ele>1545.94</ele>
        <time>2016-06-19T10:22:51Z</time>
      </trkpt>
      <trkpt lat="44.15761" lon="5.30937">
        <ele>1544.01</ele>
        <time>2016-06-19T10:22:52Z</time>
      </trkpt>
      <trkpt lat="44.15753" lon="5.30963">
        <ele>1542.57</ele>
        <time>2016-06-19T10:22:53Z</time>
      </trkpt>
      <trkpt lat="44.15747" lon="5.3099">
        <ele>1540.65</ele>
        <time>2016-06-19T10:22:54Z</time>
      </trkpt>
      <trkpt lat="44.15742" lon="5.31017">
        <ele>1539.69</ele>
        <time>2016-06-19T10:22:55Z</time>
      </trkpt>
      <trkpt lat="44.15739" lon="5.31045">
        <ele>1538.25</ele>
        <time>2016-06-19T10:22:56Z</time>
      </trkpt>
      <trkpt lat="44.15738" lon="5.31072">
        <ele>1536.8</ele>
        <time>2016-06-19T10:22:57Z</time>
      </trkpt>
      <trkpt lat="44.1574" lon="5.311">
        <ele>1534.88</ele>
        <time>2016-06-19T10:22:58Z</time>
      </trkpt>
      <trkpt lat="44.15744" lon="5.31128">
        <ele>1533.44</ele>
        <time>2016-06-19T10:22:59Z</time>
      </trkpt>
      <trkpt lat="44.15751" lon="5.31156">
        <ele>1531.52</ele>
        <time>2016-06-19T10:23:00Z</time>
      </trkpt>
      <trkpt lat="44.15761" lon="5.31182">
        <ele>1530.08</ele>
        <time>2016-06-19T10:23:01Z</time>
      </trkpt>
      <trkpt lat="44.1577" lon="5.31207">
        <ele>1528.15</ele>
        <time>2016-06-19T10:23:02Z</time>
      </trkpt>
      <trkpt lat="44.15777" lon="5.31232">
        <ele>1526.23</ele>
        <time>2016-06-19T10:23:03Z</time>
      </trkpt>
      <trkpt lat="44.15781" lon="5.31257">
        <ele>1524.31</ele>
        <time>2016-06-19T10:23:04Z</time>
      </trkpt>
      <trkpt lat="44.15783" lon="5.31282">
        <ele>1522.87</ele>
        <time>2016-06-19T10:23:05Z</time>
      </trkpt>
      <trkpt lat="44.15784" lon="5.31322">
        <ele>1519.98</ele>
        <time>2016-06-19T10:23:07Z</time>
      </trkpt>
      <trkpt lat="44.1578" lon="5.31335">
        <ele>1518.54</ele>
        <time>2016-06-19T10:23:08Z</time>
      </trkpt>
      <trkpt lat="44.15772" lon="5.31343">
        <ele>1517.58</ele>
        <time>2016-06-19T10:23:09Z</time>
      </trkpt>
      <trkpt lat="44.15763" lon="5.31348">
        <ele>1515.66</ele>
        <time>2016-06-19T10:23:10Z</time>
      </trkpt>
      <trkpt lat="44.15752" lon="5.31346">
        <ele>1513.73</ele>
        <time>2016-06-19T10:23:11Z</time>
      </trkpt>
      <trkpt lat="44.1574" lon="5.31339">
        <ele>1512.77</ele>
        <time>2016-06-19T10:23:12Z</time>
      </trkpt>
      <trkpt lat="44.15724" lon="5.31328">
        <ele>1511.33</ele>
        <time>2016-06-19T10:23:13Z</time>
      </trkpt>
      <trkpt lat="44.15704" lon="5.31315">
        <ele>1510.37</ele>
        <time>2016-06-19T10:23:14Z</time>
      </trkpt>
      <trkpt lat="44.15595" lon="5.31256">
        <ele>1506.52</ele>
        <time>2016-06-19T10:23:19Z</time>
      </trkpt>
      <trkpt lat="44.15543" lon="5.3122">
        <ele>1504.6</ele>
        <time>2016-06-19T10:23:22Z</time>
      </trkpt>
      <trkpt lat="44.1553" lon="5.31216">
        <ele>1504.12</ele>
        <time>2016-06-19T10:23:23Z</time>
      </trkpt>
      <trkpt lat="44.15516" lon="5.31219">
        <ele>1503.64</ele>
        <time>2016-06-19T10:23:24Z</time>
      </trkpt>
      <trkpt lat="44.15503" lon="5.31229">
        <ele>1502.68</ele>
        <time>2016-06-19T10:23:25Z</time>
      </trkpt>
      <trkpt lat="44.15494" lon="5.31244">
        <ele>1501.72</ele>
        <time>2016-06-19T10:23:26Z</time>
      </trkpt>
      <trkpt lat="44.15484" lon="5.31264">
        <ele>1499.79</ele>
        <time>2016-06-19T10:23:27Z</time>
      </trkpt>
      <trkpt lat="44.15478" lon="5.31285">
        <ele>1498.35</ele>
        <time>2016-06-19T10:23:28Z</time>
      </trkpt>
      <trkpt lat="44.15479" lon="5.31312">
        <ele>1498.83</ele>
        <time>2016-06-19T10:23:29Z</time>
      </trkpt>
      <trkpt lat="44.15479" lon="5.3134">
        <ele>1498.35</ele>
        <time>2016-06-19T10:23:30Z</time>
      </trkpt>
      <trkpt lat="44.15478" lon="5.31366">
        <ele>1497.87</ele>
        <time>2016-06-19T10:23:31Z</time>
      </trkpt>
      <trkpt lat="44.15482" lon="5.31489">
        <ele>1492.58</ele>
        <time>2016-06-19T10:23:36Z</time>
      </trkpt>
      <trkpt lat="44.15489" lon="5.31505">
        <ele>1491.62</ele>
        <time>2016-06-19T10:23:37Z</time>
      </trkpt>
      <trkpt lat="44.15495" lon="5.31518">
        <ele>1491.14</ele>
        <time>2016-06-19T10:23:38Z</time>
      </trkpt>
      <trkpt lat="44.15499" lon="5.3153">
        <ele>1490.66</ele>
        <time>2016-06-19T10:23:39Z</time>
      </trkpt>
      <trkpt lat="44.15498" lon="5.3154">
        <ele>1489.7</ele>
        <time>2016-06-19T10:23:40Z</time>
      </trkpt>
      <trkpt lat="44.15491" lon="5.31544">
        <ele>1488.74</ele>
        <time>2016-06-19T10:23:41Z</time>
      </trkpt>
      <trkpt lat="44.15482" lon="5.31545">
        <ele>1486.82</ele>
        <time>2016-06-19T10:23:42Z</time>
      </trkpt>
      <trkpt lat="44.15467" lon="5.31536">
        <ele>1485.85</ele>
        <time>2016-06-19T10:23:43Z</time>
      </trkpt>
      <trkpt lat="44.15453" lon="5.31526">
        <ele>1485.37</ele>
        <time>2016-06-19T10:23:44Z</time>
      </trkpt>
      <trkpt lat="44.15438" lon="5.31515">
        <ele>1484.89</ele>
        <time>2016-06-19T10:23:45Z</time>
      </trkpt>
      <trkpt lat="44.1531" lon="5.31438">
        <ele>1475.28</ele>
        <time>2016-06-19T10:23:54Z</time>
      </trkpt>
      <trkpt lat="44.153" lon="5.3143">
        <ele>1474.32</ele>
        <time>2016-06-19T10:23:55Z</time>
      </trkpt>
      <trkpt lat="44.15291" lon="5.31422">
        <ele>1473.36</ele>
        <time>2016-06-19T10:23:56Z</time>
      </trkpt>
      <trkpt lat="44.15284" lon="5.31413">
        <ele>1472.88</ele>
        <time>2016-06-19T10:23:57Z</time>
      </trkpt>
      <trkpt lat="44.15256" lon="5.31379">
        <ele>1469.51</ele>
        <time>2016-06-19T10:24:02Z</time>
      </trkpt>
      <trkpt lat="44.15248" lon="5.31374">
        <ele>1468.55</ele>
        <time>2016-06-19T10:24:03Z</time>
      </trkpt>
      <trkpt lat="44.15238" lon="5.31367">
        <ele>1467.59</ele>
        <time>2016-06-19T10:24:04Z</time>
      </trkpt>
      <trkpt lat="44.15225" lon="5.31361">
        <ele>1466.63</ele>
        <time>2016-06-19T10:24:05Z</time>
      </trkpt>
      <trkpt lat="44.1521" lon="5.31356">
        <ele>1465.19</ele>
        <time>2016-06-19T10:24:06Z</time>
      </trkpt>
      <trkpt lat="44.15195" lon="5.31351">
        <ele>1463.74</ele>
        <time>2016-06-19T10:24:07Z</time>
      </trkpt>
      <trkpt lat="44.15165" lon="5.31345">
        <ele>1461.34</ele>
        <time>2016-06-19T10:24:09Z</time>
      </trkpt>
      <trkpt lat="44.1515" lon="5.31349">
        <ele>1460.38</ele>
        <time>2016-06-19T10:24:10Z</time>
      </trkpt>
      <trkpt lat="44.15136" lon="5.31356">
        <ele>1458.94</ele>
        <time>2016-06-19T10:24:11Z</time>
      </trkpt>
      <trkpt lat="44.15123" lon="5.31366">
        <ele>1457.98</ele>
        <time>2016-06-19T10:24:12Z</time>
      </trkpt>
      <trkpt lat="44.15113" lon="5.31377">
        <ele>1456.53</ele>
        <time>2016-06-19T10:24:13Z</time>
      </trkpt>
      <trkpt lat="44.15103" lon="5.31389">
        <ele>1455.57</ele>
        <time>2016-06-19T10:24:14Z</time>
      </trkpt>
      <trkpt lat="44.15096" lon="5.31401">
        <ele>1454.13</ele>
        <time>2016-06-19T10:24:15Z</time>
      </trkpt>
      <trkpt lat="44.1509" lon="5.31414">
        <ele>1452.69</ele>
        <time>2016-06-19T10:24:16Z</time>
      </trkpt>
      <trkpt lat="44.15086" lon="5.31426">
        <ele>1451.25</ele>
        <time>2016-06-19T10:24:17Z</time>
      </trkpt>
      <trkpt lat="44.15087" lon="5.31438">
        <ele>1449.81</ele>
        <time>2016-06-19T10:24:18Z</time>
      </trkpt>
      <trkpt lat="44.15089" lon="5.3145">
        <ele>1449.81</ele>
        <time>2016-06-19T10:24:19Z</time>
      </trkpt>
      <trkpt lat="44.15094" lon="5.31461">
        <ele>1449.32</ele>
        <time>2016-06-19T10:24:20Z</time>
      </trkpt>
      <trkpt lat="44.15101" lon="5.31473">
        <ele>1448.36</ele>
        <time>2016-06-19T10:24:21Z</time>
      </trkpt>
      <trkpt lat="44.15109" lon="5.31486">
        <ele>1447.4</ele>
        <time>2016-06-19T10:24:22Z</time>
      </trkpt>
      <trkpt lat="44.15117" lon="5.31503">
        <ele>1445.96</ele>
        <time>2016-06-19T10:24:23Z</time>
      </trkpt>
      <trkpt lat="44.15124" lon="5.31523">
        <ele>1445</ele>
        <time>2016-06-19T10:24:24Z</time>
      </trkpt>
      <trkpt lat="44.15129" lon="5.31544">
        <ele>1444.04</ele>
        <time>2016-06-19T10:24:25Z</time>
      </trkpt>
      <trkpt lat="44.15183" lon="5.31713">
        <ele>1433.94</ele>
        <time>2016-06-19T10:24:33Z</time>
      </trkpt>
      <trkpt lat="44.15225" lon="5.31854">
        <ele>1424.33</ele>
        <time>2016-06-19T10:24:42Z</time>
      </trkpt>
      <trkpt lat="44.15225" lon="5.31864">
        <ele>1423.85</ele>
        <time>2016-06-19T10:24:43Z</time>
      </trkpt>
      <trkpt lat="44.15222" lon="5.31873">
        <ele>1422.89</ele>
        <time>2016-06-19T10:24:44Z</time>
      </trkpt>
      <trkpt lat="44.15218" lon="5.3188">
        <ele>1422.41</ele>
        <time>2016-06-19T10:24:45Z</time>
      </trkpt>
      <trkpt lat="44.15215" lon="5.31885">
        <ele>1421.93</ele>
        <time>2016-06-19T10:24:46Z</time>
      </trkpt>
      <trkpt lat="44.15212" lon="5.31888">
        <ele>1421.45</ele>
        <time>2016-06-19T10:24:47Z</time>
      </trkpt>
      <trkpt lat="44.15192" lon="5.31894">
        <ele>1421.93</ele>
        <time>2016-06-19T10:24:55Z</time>
      </trkpt>
      <trkpt lat="44.15187" lon="5.31894">
        <ele>1421.93</ele>
        <time>2016-06-19T10:24:56Z</time>
      </trkpt>
      <trkpt lat="44.15181" lon="5.31893">
        <ele>1421.93</ele>
        <time>2016-06-19T10:24:57Z</time>
      </trkpt>
      <trkpt lat="44.15175" lon="5.31889">
        <ele>1421.93</ele>
        <time>2016-06-19T10:24:58Z</time>
      </trkpt>
      <trkpt lat="44.15123" lon="5.31846">
        <ele>1419.52</ele>
        <time>2016-06-19T10:25:08Z</time>
      </trkpt>
      <trkpt lat="44.15072" lon="5.3181">
        <ele>1419.04</ele>
        <time>2016-06-19T10:25:14Z</time>
      </trkpt>
      <trkpt lat="44.14964" lon="5.31769">
        <ele>1419.04</ele>
        <time>2016-06-19T10:25:19Z</time>
      </trkpt>
      <trkpt lat="44.14936" lon="5.31764">
        <ele>1420</ele>
        <time>2016-06-19T10:25:21Z</time>
      </trkpt>
      <trkpt lat="44.14924" lon="5.31771">
        <ele>1420</ele>
        <time>2016-06-19T10:25:22Z</time>
      </trkpt>
      <trkpt lat="44.14916" lon="5.31786">
        <ele>1420</ele>
        <time>2016-06-19T10:25:23Z</time>
      </trkpt>
      <trkpt lat="44.14908" lon="5.31805">
        <ele>1419.52</ele>
        <time>2016-06-19T10:25:24Z</time>
      </trkpt>
      <trkpt lat="44.14902" lon="5.31829">
        <ele>1419.52</ele>
        <time>2016-06-19T10:25:25Z</time>
      </trkpt>
      <trkpt lat="44.14897" lon="5.31851">
        <ele>1420</ele>
        <time>2016-06-19T10:25:26Z</time>
      </trkpt>
      <trkpt lat="44.14894" lon="5.31873">
        <ele>1420</ele>
        <time>2016-06-19T10:25:27Z</time>
      </trkpt>
      <trkpt lat="44.14892" lon="5.31891">
        <ele>1420</ele>
        <time>2016-06-19T10:25:28Z</time>
      </trkpt>
      <trkpt lat="44.14892" lon="5.31904">
        <ele>1420</ele>
        <time>2016-06-19T10:25:29Z</time>
      </trkpt>
      <trkpt lat="44.14892" lon="5.31916">
        <ele>1419.52</ele>
        <time>2016-06-19T10:25:31Z</time>
      </trkpt>
      <trkpt lat="44.14893" lon="5.31918">
        <ele>1419.52</ele>
        <time>2016-06-19T10:25:32Z</time>
      </trkpt>
      <trkpt lat="44.14898" lon="5.31917">
        <ele>1418.56</ele>
        <time>2016-06-19T10:25:45Z</time>
      </trkpt>
      <trkpt lat="44.14901" lon="5.31919">
        <ele>1416.64</ele>
        <time>2016-06-19T10:26:20Z</time>
      </trkpt>
      <trkpt lat="44.14899" lon="5.31927">
        <ele>1416.16</ele>
        <time>2016-06-19T10:26:21Z</time>
      </trkpt>
      <trkpt lat="44.14899" lon="5.31942">
        <ele>1416.16</ele>
        <time>2016-06-19T10:26:22Z</time>
      </trkpt>
      <trkpt lat="44.14895" lon="5.32041">
        <ele>1415.2</ele>
        <time>2016-06-19T10:26:26Z</time>
      </trkpt>
      <trkpt lat="44.14889" lon="5.32072">
        <ele>1415.2</ele>
        <time>2016-06-19T10:26:27Z</time>
      </trkpt>
      <trkpt lat="44.14882" lon="5.32103">
        <ele>1415.2</ele>
        <time>2016-06-19T10:26:28Z</time>
      </trkpt>
      <trkpt lat="44.14873" lon="5.32134">
        <ele>1414.72</ele>
        <time>2016-06-19T10:26:29Z</time>
      </trkpt>
      <trkpt lat="44.14861" lon="5.32161">
        <ele>1414.72</ele>
        <time>2016-06-19T10:26:30Z</time>
      </trkpt>
      <trkpt lat="44.1485" lon="5.32186">
        <ele>1414.72</ele>
        <time>2016-06-19T10:26:31Z</time>
      </trkpt>
      <trkpt lat="44.14839" lon="5.3221">
        <ele>1414.24</ele>
        <time>2016-06-19T10:26:32Z</time>
      </trkpt>
      <trkpt lat="44.14827" lon="5.32256">
        <ele>1413.76</ele>
        <time>2016-06-19T10:26:34Z</time>
      </trkpt>
      <trkpt lat="44.14827" lon="5.32278">
        <ele>1413.76</ele>
        <time>2016-06-19T10:26:35Z</time>
      </trkpt>
      <trkpt lat="44.14828" lon="5.323">
        <ele>1413.28</ele>
        <time>2016-06-19T10:26:36Z</time>
      </trkpt>
      <trkpt lat="44.14839" lon="5.32322">
        <ele>1411.83</ele>
        <time>2016-06-19T10:26:37Z</time>
      </trkpt>
      <trkpt lat="44.1485" lon="5.32342">
        <ele>1411.83</ele>
        <time>2016-06-19T10:26:38Z</time>
      </trkpt>
      <trkpt lat="44.14869" lon="5.32354">
        <ele>1412.31</ele>
        <time>2016-06-19T10:26:39Z</time>
      </trkpt>
      <trkpt lat="44.14886" lon="5.32366">
        <ele>1412.31</ele>
        <time>2016-06-19T10:26:40Z</time>
      </trkpt>
      <trkpt lat="44.14908" lon="5.32375">
        <ele>1412.79</ele>
        <time>2016-06-19T10:26:41Z</time>
      </trkpt>
      <trkpt lat="44.1493" lon="5.32388">
        <ele>1412.31</ele>
        <time>2016-06-19T10:26:42Z</time>
      </trkpt>
      <trkpt lat="44.14953" lon="5.32404">
        <ele>1412.31</ele>
        <time>2016-06-19T10:26:43Z</time>
      </trkpt>
      <trkpt lat="44.14975" lon="5.32423">
        <ele>1411.83</ele>
        <time>2016-06-19T10:26:44Z</time>
      </trkpt>
      <trkpt lat="44.15107" lon="5.32557">
        <ele>1410.87</ele>
        <time>2016-06-19T10:26:50Z</time>
      </trkpt>
      <trkpt lat="44.15187" lon="5.32682">
        <ele>1410.39</ele>
        <time>2016-06-19T10:26:55Z</time>
      </trkpt>
      <trkpt lat="44.15205" lon="5.32695">
        <ele>1410.39</ele>
        <time>2016-06-19T10:26:56Z</time>
      </trkpt>
      <trkpt lat="44.15226" lon="5.32706">
        <ele>1409.91</ele>
        <time>2016-06-19T10:26:57Z</time>
      </trkpt>
      <trkpt lat="44.15247" lon="5.32716">
        <ele>1409.91</ele>
        <time>2016-06-19T10:26:58Z</time>
      </trkpt>
      <trkpt lat="44.15339" lon="5.32767">
        <ele>1407.99</ele>
        <time>2016-06-19T10:27:04Z</time>
      </trkpt>
      <trkpt lat="44.15325" lon="5.32791">
        <ele>1408.95</ele>
        <time>2016-06-19T10:27:07Z</time>
      </trkpt>
      <trkpt lat="44.15311" lon="5.32795">
        <ele>1408.95</ele>
        <time>2016-06-19T10:27:08Z</time>
      </trkpt>
      <trkpt lat="44.15292" lon="5.32795">
        <ele>1408.95</ele>
        <time>2016-06-19T10:27:09Z</time>
      </trkpt>
      <trkpt lat="44.15269" lon="5.32795">
        <ele>1409.43</ele>
        <time>2016-06-19T10:27:10Z</time>
      </trkpt>
      <trkpt lat="44.15245" lon="5.32794">
        <ele>1409.43</ele>
        <time>2016-06-19T10:27:11Z</time>
      </trkpt>
      <trkpt lat="44.15218" lon="5.32792">
        <ele>1407.99</ele>
        <time>2016-06-19T10:27:12Z</time>
      </trkpt>
      <trkpt lat="44.15189" lon="5.32788">
        <ele>1407.99</ele>
        <time>2016-06-19T10:27:13Z</time>
      </trkpt>
      <trkpt lat="44.1516" lon="5.32784">
        <ele>1407.99</ele>
        <time>2016-06-19T10:27:14Z</time>
      </trkpt>
      <trkpt lat="44.15133" lon="5.32779">
        <ele>1407.99</ele>
        <time>2016-06-19T10:27:15Z</time>
      </trkpt>
      <trkpt lat="44.14963" lon="5.3271">
        <ele>1406.07</ele>
        <time>2016-06-19T10:27:22Z</time>
      </trkpt>
      <trkpt lat="44.14903" lon="5.32679">
        <ele>1405.58</ele>
        <time>2016-06-19T10:27:26Z</time>
      </trkpt>
      <trkpt lat="44.14891" lon="5.32677">
        <ele>1405.58</ele>
        <time>2016-06-19T10:27:27Z</time>
      </trkpt>
      <trkpt lat="44.14883" lon="5.32681">
        <ele>1405.1</ele>
        <time>2016-06-19T10:27:28Z</time>
      </trkpt>
      <trkpt lat="44.14876" lon="5.32692">
        <ele>1404.14</ele>
        <time>2016-06-19T10:27:29Z</time>
      </trkpt>
      <trkpt lat="44.1487" lon="5.32704">
        <ele>1403.66</ele>
        <time>2016-06-19T10:27:30Z</time>
      </trkpt>
      <trkpt lat="44.1487" lon="5.32721">
        <ele>1403.66</ele>
        <time>2016-06-19T10:27:31Z</time>
      </trkpt>
      <trkpt lat="44.14872" lon="5.32739">
        <ele>1402.7</ele>
        <time>2016-06-19T10:27:32Z</time>
      </trkpt>
      <trkpt lat="44.14876" lon="5.32755">
        <ele>1402.7</ele>
        <time>2016-06-19T10:27:33Z</time>
      </trkpt>
      <trkpt lat="44.1488" lon="5.32768">
        <ele>1403.18</ele>
        <time>2016-06-19T10:27:34Z</time>
      </trkpt>
      <trkpt lat="44.14886" lon="5.32781">
        <ele>1403.66</ele>
        <time>2016-06-19T10:27:35Z</time>
      </trkpt>
      <trkpt lat="44.1489" lon="5.32792">
        <ele>1403.66</ele>
        <time>2016-06-19T10:27:36Z</time>
      </trkpt>
      <trkpt lat="44.149" lon="5.32828">
        <ele>1404.62</ele>
        <time>2016-06-19T10:27:40Z</time>
      </trkpt>
      <trkpt lat="44.14901" lon="5.3284">
        <ele>1404.14</ele>
        <time>2016-06-19T10:27:41Z</time>
      </trkpt>
      <trkpt lat="44.149" lon="5.32853">
        <ele>1403.66</ele>
        <time>2016-06-19T10:27:42Z</time>
      </trkpt>
      <trkpt lat="44.14896" lon="5.32941">
        <ele>1402.22</ele>
        <time>2016-06-19T10:27:49Z</time>
      </trkpt>
      <trkpt lat="44.14889" lon="5.32997">
        <ele>1401.26</ele>
        <time>2016-06-19T10:27:54Z</time>
      </trkpt>
      <trkpt lat="44.1489" lon="5.33012">
        <ele>1401.26</ele>
        <time>2016-06-19T10:27:55Z</time>
      </trkpt>
      <trkpt lat="44.14894" lon="5.33033">
        <ele>1400.78</ele>
        <time>2016-06-19T10:27:56Z</time>
      </trkpt>
      <trkpt lat="44.149" lon="5.33059">
        <ele>1400.78</ele>
        <time>2016-06-19T10:27:57Z</time>
      </trkpt>
      <trkpt lat="44.14906" lon="5.33087">
        <ele>1400.78</ele>
        <time>2016-06-19T10:27:58Z</time>
      </trkpt>
      <trkpt lat="44.14913" lon="5.33114">
        <ele>1400.3</ele>
        <time>2016-06-19T10:27:59Z</time>
      </trkpt>
      <trkpt lat="44.14946" lon="5.33235">
        <ele>1399.34</ele>
        <time>2016-06-19T10:28:04Z</time>
      </trkpt>
      <trkpt lat="44.14944" lon="5.33252">
        <ele>1398.86</ele>
        <time>2016-06-19T10:28:05Z</time>
      </trkpt>
      <trkpt lat="44.1494" lon="5.33268">
        <ele>1398.37</ele>
        <time>2016-06-19T10:28:06Z</time>
      </trkpt>
      <trkpt lat="44.14904" lon="5.33277">
        <ele>1395.97</ele>
        <time>2016-06-19T10:28:09Z</time>
      </trkpt>
      <trkpt lat="44.14893" lon="5.33279">
        <ele>1395.97</ele>
        <time>2016-06-19T10:28:10Z</time>
      </trkpt>
      <trkpt lat="44.14887" lon="5.3329">
        <ele>1396.45</ele>
        <time>2016-06-19T10:28:11Z</time>
      </trkpt>
      <trkpt lat="44.14882" lon="5.33298">
        <ele>1396.93</ele>
        <time>2016-06-19T10:28:12Z</time>
      </trkpt>
      <trkpt lat="44.14882" lon="5.33313">
        <ele>1395.49</ele>
        <time>2016-06-19T10:28:13Z</time>
      </trkpt>
      <trkpt lat="44.14885" lon="5.3333">
        <ele>1394.53</ele>
        <time>2016-06-19T10:28:14Z</time>
      </trkpt>
      <trkpt lat="44.14892" lon="5.3335">
        <ele>1394.05</ele>
        <time>2016-06-19T10:28:15Z</time>
      </trkpt>
      <trkpt lat="44.14905" lon="5.33369">
        <ele>1393.09</ele>
        <time>2016-06-19T10:28:16Z</time>
      </trkpt>
      <trkpt lat="44.1492" lon="5.3338">
        <ele>1394.05</ele>
        <time>2016-06-19T10:28:17Z</time>
      </trkpt>
      <trkpt lat="44.14933" lon="5.33392">
        <ele>1395.01</ele>
        <time>2016-06-19T10:28:18Z</time>
      </trkpt>
      <trkpt lat="44.14941" lon="5.33405">
        <ele>1397.41</ele>
        <time>2016-06-19T10:28:19Z</time>
      </trkpt>
      <trkpt lat="44.14942" lon="5.33417">
        <ele>1398.86</ele>
        <time>2016-06-19T10:28:20Z</time>
      </trkpt>
      <trkpt lat="44.14937" lon="5.33425">
        <ele>1397.41</ele>
        <time>2016-06-19T10:28:21Z</time>
      </trkpt>
      <trkpt lat="44.14926" lon="5.33427">
        <ele>1396.93</ele>
        <time>2016-06-19T10:28:22Z</time>
      </trkpt>
      <trkpt lat="44.14907" lon="5.33418">
        <ele>1397.41</ele>
        <time>2016-06-19T10:28:23Z</time>
      </trkpt>
      <trkpt lat="44.14889" lon="5.33412">
        <ele>1397.89</ele>
        <time>2016-06-19T10:28:24Z</time>
      </trkpt>
      <trkpt lat="44.1487" lon="5.33406">
        <ele>1397.41</ele>
        <time>2016-06-19T10:28:25Z</time>
      </trkpt>
      <trkpt lat="44.14825" lon="5.33406">
        <ele>1396.45</ele>
        <time>2016-06-19T10:28:27Z</time>
      </trkpt>
      <trkpt lat="44.148" lon="5.33412">
        <ele>1395.97</ele>
        <time>2016-06-19T10:28:28Z</time>
      </trkpt>
      <trkpt lat="44.14773" lon="5.3342">
        <ele>1394.53</ele>
        <time>2016-06-19T10:28:29Z</time>
      </trkpt>
      <trkpt lat="44.14601" lon="5.33445">
        <ele>1385.4</ele>
        <time>2016-06-19T10:28:35Z</time>
      </trkpt>
      <trkpt lat="44.14532" lon="5.33446">
        <ele>1377.23</ele>
        <time>2016-06-19T10:28:39Z</time>
      </trkpt>
      <trkpt lat="44.14521" lon="5.33459">
        <ele>1374.82</ele>
        <time>2016-06-19T10:28:40Z</time>
      </trkpt>
      <trkpt lat="44.14512" lon="5.33481">
        <ele>1372.42</ele>
        <time>2016-06-19T10:28:41Z</time>
      </trkpt>
      <trkpt lat="44.14503" lon="5.33508">
        <ele>1371.46</ele>
        <time>2016-06-19T10:28:42Z</time>
      </trkpt>
      <trkpt lat="44.14495" lon="5.33537">
        <ele>1370.5</ele>
        <time>2016-06-19T10:28:43Z</time>
      </trkpt>
      <trkpt lat="44.14487" lon="5.33567">
        <ele>1370.5</ele>
        <time>2016-06-19T10:28:44Z</time>
      </trkpt>
      <trkpt lat="44.14462" lon="5.337">
        <ele>1366.65</ele>
        <time>2016-06-19T10:28:49Z</time>
      </trkpt>
      <trkpt lat="44.14467" lon="5.33721">
        <ele>1365.69</ele>
        <time>2016-06-19T10:28:50Z</time>
      </trkpt>
      <trkpt lat="44.14475" lon="5.3374">
        <ele>1365.21</ele>
        <time>2016-06-19T10:28:51Z</time>
      </trkpt>
      <trkpt lat="44.14486" lon="5.33755">
        <ele>1364.25</ele>
        <time>2016-06-19T10:28:52Z</time>
      </trkpt>
      <trkpt lat="44.14497" lon="5.33766">
        <ele>1363.77</ele>
        <time>2016-06-19T10:28:53Z</time>
      </trkpt>
      <trkpt lat="44.14511" lon="5.33777">
        <ele>1363.77</ele>
        <time>2016-06-19T10:28:54Z</time>
      </trkpt>
      <trkpt lat="44.14529" lon="5.3379">
        <ele>1363.29</ele>
        <time>2016-06-19T10:28:55Z</time>
      </trkpt>
      <trkpt lat="44.14548" lon="5.338">
        <ele>1363.77</ele>
        <time>2016-06-19T10:28:56Z</time>
      </trkpt>
      <trkpt lat="44.14567" lon="5.3381">
        <ele>1365.21</ele>
        <time>2016-06-19T10:28:57Z</time>
      </trkpt>
      <trkpt lat="44.14624" lon="5.33843">
        <ele>1365.21</ele>
        <time>2016-06-19T10:29:02Z</time>
      </trkpt>
      <trkpt lat="44.14621" lon="5.33861">
        <ele>1364.25</ele>
        <time>2016-06-19T10:29:04Z</time>
      </trkpt>
      <trkpt lat="44.14611" lon="5.33868">
        <ele>1363.77</ele>
        <time>2016-06-19T10:29:05Z</time>
      </trkpt>
      <trkpt lat="44.14599" lon="5.33871">
        <ele>1363.29</ele>
        <time>2016-06-19T10:29:06Z</time>
      </trkpt>
      <trkpt lat="44.14586" lon="5.33873">
        <ele>1363.29</ele>
        <time>2016-06-19T10:29:07Z</time>
      </trkpt>
      <trkpt lat="44.14572" lon="5.33874">
        <ele>1362.81</ele>
        <time>2016-06-19T10:29:08Z</time>
      </trkpt>
      <trkpt lat="44.14555" lon="5.33874">
        <ele>1361.36</ele>
        <time>2016-06-19T10:29:09Z</time>
      </trkpt>
      <trkpt lat="44.14538" lon="5.33876">
        <ele>1359.44</ele>
        <time>2016-06-19T10:29:10Z</time>
      </trkpt>
      <trkpt lat="44.1452" lon="5.33882">
        <ele>1358</ele>
        <time>2016-06-19T10:29:11Z</time>
      </trkpt>
      <trkpt lat="44.14503" lon="5.3389">
        <ele>1357.04</ele>
        <time>2016-06-19T10:29:12Z</time>
      </trkpt>
      <trkpt lat="44.14486" lon="5.33901">
        <ele>1355.6</ele>
        <time>2016-06-19T10:29:13Z</time>
      </trkpt>
      <trkpt lat="44.14415" lon="5.33936">
        <ele>1351.75</ele>
        <time>2016-06-19T10:29:17Z</time>
      </trkpt>
      <trkpt lat="44.14397" lon="5.3394">
        <ele>1350.79</ele>
        <time>2016-06-19T10:29:18Z</time>
      </trkpt>
      <trkpt lat="44.14379" lon="5.33941">
        <ele>1349.35</ele>
        <time>2016-06-19T10:29:19Z</time>
      </trkpt>
      <trkpt lat="44.14345" lon="5.33943">
        <ele>1346.94</ele>
        <time>2016-06-19T10:29:21Z</time>
      </trkpt>
      <trkpt lat="44.14329" lon="5.33947">
        <ele>1345.5</ele>
        <time>2016-06-19T10:29:22Z</time>
      </trkpt>
      <trkpt lat="44.14314" lon="5.33954">
        <ele>1345.02</ele>
        <time>2016-06-19T10:29:23Z</time>
      </trkpt>
      <trkpt lat="44.14299" lon="5.33963">
        <ele>1344.06</ele>
        <time>2016-06-19T10:29:24Z</time>
      </trkpt>
      <trkpt lat="44.14285" lon="5.33974">
        <ele>1343.58</ele>
        <time>2016-06-19T10:29:25Z</time>
      </trkpt>
      <trkpt lat="44.14272" lon="5.33987">
        <ele>1341.66</ele>
        <time>2016-06-19T10:29:26Z</time>
      </trkpt>
      <trkpt lat="44.1426" lon="5.34004">
        <ele>1339.25</ele>
        <time>2016-06-19T10:29:27Z</time>
      </trkpt>
      <trkpt lat="44.14251" lon="5.34026">
        <ele>1336.85</ele>
        <time>2016-06-19T10:29:28Z</time>
      </trkpt>
      <trkpt lat="44.14244" lon="5.34049">
        <ele>1335.41</ele>
        <time>2016-06-19T10:29:29Z</time>
      </trkpt>
      <trkpt lat="44.14238" lon="5.34072">
        <ele>1335.89</ele>
        <time>2016-06-19T10:29:30Z</time>
      </trkpt>
      <trkpt lat="44.14231" lon="5.34094">
        <ele>1335.89</ele>
        <time>2016-06-19T10:29:31Z</time>
      </trkpt>
      <trkpt lat="44.14222" lon="5.3414">
        <ele>1336.85</ele>
        <time>2016-06-19T10:29:33Z</time>
      </trkpt>
      <trkpt lat="44.1422" lon="5.34164">
        <ele>1336.37</ele>
        <time>2016-06-19T10:29:34Z</time>
      </trkpt>
      <trkpt lat="44.14208" lon="5.34251">
        <ele>1335.89</ele>
        <time>2016-06-19T10:29:38Z</time>
      </trkpt>
      <trkpt lat="44.14202" lon="5.3427">
        <ele>1335.89</ele>
        <time>2016-06-19T10:29:39Z</time>
      </trkpt>
      <trkpt lat="44.14169" lon="5.34344">
        <ele>1334.93</ele>
        <time>2016-06-19T10:29:43Z</time>
      </trkpt>
      <trkpt lat="44.14158" lon="5.34359">
        <ele>1334.93</ele>
        <time>2016-06-19T10:29:44Z</time>
      </trkpt>
      <trkpt lat="44.14116" lon="5.34417">
        <ele>1333.97</ele>
        <time>2016-06-19T10:29:49Z</time>
      </trkpt>
      <trkpt lat="44.14111" lon="5.34426">
        <ele>1333.97</ele>
        <time>2016-06-19T10:29:50Z</time>
      </trkpt>
      <trkpt lat="44.14109" lon="5.34434">
        <ele>1333.97</ele>
        <time>2016-06-19T10:29:51Z</time>
      </trkpt>
      <trkpt lat="44.14108" lon="5.34444">
        <ele>1333.01</ele>
        <time>2016-06-19T10:29:52Z</time>
      </trkpt>
      <trkpt lat="44.14111" lon="5.34455">
        <ele>1332.04</ele>
        <time>2016-06-19T10:29:53Z</time>
      </trkpt>
      <trkpt lat="44.14118" lon="5.34467">
        <ele>1331.08</ele>
        <time>2016-06-19T10:29:54Z</time>
      </trkpt>
      <trkpt lat="44.14127" lon="5.34478">
        <ele>1331.08</ele>
        <time>2016-06-19T10:29:55Z</time>
      </trkpt>
      <trkpt lat="44.1414" lon="5.34487">
        <ele>1330.6</ele>
        <time>2016-06-19T10:29:56Z</time>
      </trkpt>
      <trkpt lat="44.14156" lon="5.34496">
        <ele>1329.64</ele>
        <time>2016-06-19T10:29:57Z</time>
      </trkpt>
      <trkpt lat="44.14172" lon="5.34505">
        <ele>1329.16</ele>
        <time>2016-06-19T10:29:58Z</time>
      </trkpt>
      <trkpt lat="44.14189" lon="5.34513">
        <ele>1328.68</ele>
        <time>2016-06-19T10:29:59Z</time>
      </trkpt>
      <trkpt lat="44.14241" lon="5.34531">
        <ele>1326.76</ele>
        <time>2016-06-19T10:30:02Z</time>
      </trkpt>
      <trkpt lat="44.14259" lon="5.34533">
        <ele>1327.24</ele>
        <time>2016-06-19T10:30:03Z</time>
      </trkpt>
      <trkpt lat="44.14276" lon="5.34533">
        <ele>1327.24</ele>
        <time>2016-06-19T10:30:04Z</time>
      </trkpt>
      <trkpt lat="44.14395" lon="5.34493">
        <ele>1325.31</ele>
        <time>2016-06-19T10:30:11Z</time>
      </trkpt>
      <trkpt lat="44.14503" lon="5.34399">
        <ele>1321.47</ele>
        <time>2016-06-19T10:30:18Z</time>
      </trkpt>
      <trkpt lat="44.14542" lon="5.34393">
        <ele>1318.59</ele>
        <time>2016-06-19T10:30:21Z</time>
      </trkpt>
      <trkpt lat="44.14552" lon="5.34411">
        <ele>1318.59</ele>
        <time>2016-06-19T10:30:22Z</time>
      </trkpt>
      <trkpt lat="44.14561" lon="5.34429">
        <ele>1319.07</ele>
        <time>2016-06-19T10:30:23Z</time>
      </trkpt>
      <trkpt lat="44.14572" lon="5.3445">
        <ele>1317.62</ele>
        <time>2016-06-19T10:30:24Z</time>
      </trkpt>
      <trkpt lat="44.14585" lon="5.34468">
        <ele>1317.14</ele>
        <time>2016-06-19T10:30:25Z</time>
      </trkpt>
      <trkpt lat="44.14599" lon="5.34484">
        <ele>1316.66</ele>
        <time>2016-06-19T10:30:26Z</time>
      </trkpt>
      <trkpt lat="44.14614" lon="5.34496">
        <ele>1315.7</ele>
        <time>2016-06-19T10:30:27Z</time>
      </trkpt>
      <trkpt lat="44.14631" lon="5.34504">
        <ele>1314.74</ele>
        <time>2016-06-19T10:30:28Z</time>
      </trkpt>
      <trkpt lat="44.14649" lon="5.3451">
        <ele>1313.78</ele>
        <time>2016-06-19T10:30:29Z</time>
      </trkpt>
      <trkpt lat="44.14669" lon="5.34514">
        <ele>1313.78</ele>
        <time>2016-06-19T10:30:30Z</time>
      </trkpt>
      <trkpt lat="44.14689" lon="5.34517">
        <ele>1313.3</ele>
        <time>2016-06-19T10:30:31Z</time>
      </trkpt>
      <trkpt lat="44.14831" lon="5.34515">
        <ele>1309.45</ele>
        <time>2016-06-19T10:30:37Z</time>
      </trkpt>
      <trkpt lat="44.14907" lon="5.34501">
        <ele>1306.57</ele>
        <time>2016-06-19T10:30:41Z</time>
      </trkpt>
      <trkpt lat="44.14922" lon="5.34492">
        <ele>1305.61</ele>
        <time>2016-06-19T10:30:42Z</time>
      </trkpt>
      <trkpt lat="44.14934" lon="5.34481">
        <ele>1305.13</ele>
        <time>2016-06-19T10:30:43Z</time>
      </trkpt>
      <trkpt lat="44.14957" lon="5.34474">
        <ele>1303.69</ele>
        <time>2016-06-19T10:30:45Z</time>
      </trkpt>
      <trkpt lat="44.14968" lon="5.34487">
        <ele>1302.72</ele>
        <time>2016-06-19T10:30:46Z</time>
      </trkpt>
      <trkpt lat="44.14981" lon="5.34501">
        <ele>1301.76</ele>
        <time>2016-06-19T10:30:47Z</time>
      </trkpt>
      <trkpt lat="44.15015" lon="5.34524">
        <ele>1300.32</ele>
        <time>2016-06-19T10:30:49Z</time>
      </trkpt>
      <trkpt lat="44.15035" lon="5.34531">
        <ele>1299.36</ele>
        <time>2016-06-19T10:30:50Z</time>
      </trkpt>
      <trkpt lat="44.15055" lon="5.34537">
        <ele>1299.36</ele>
        <time>2016-06-19T10:30:51Z</time>
      </trkpt>
      <trkpt lat="44.15145" lon="5.34539">
        <ele>1296.96</ele>
        <time>2016-06-19T10:30:56Z</time>
      </trkpt>
      <trkpt lat="44.15159" lon="5.34531">
        <ele>1296.96</ele>
        <time>2016-06-19T10:30:57Z</time>
      </trkpt>
      <trkpt lat="44.1517" lon="5.3452">
        <ele>1296.96</ele>
        <time>2016-06-19T10:30:58Z</time>
      </trkpt>
      <trkpt lat="44.15179" lon="5.34506">
        <ele>1296.48</ele>
        <time>2016-06-19T10:30:59Z</time>
      </trkpt>
      <trkpt lat="44.15188" lon="5.34495">
        <ele>1296.48</ele>
        <time>2016-06-19T10:31:00Z</time>
      </trkpt>
      <trkpt lat="44.15197" lon="5.34486">
        <ele>1296.96</ele>
        <time>2016-06-19T10:31:01Z</time>
      </trkpt>
      <trkpt lat="44.15207" lon="5.34485">
        <ele>1295.99</ele>
        <time>2016-06-19T10:31:02Z</time>
      </trkpt>
      <trkpt lat="44.1522" lon="5.34489">
        <ele>1295.99</ele>
        <time>2016-06-19T10:31:03Z</time>
      </trkpt>
      <trkpt lat="44.1523" lon="5.34507">
        <ele>1294.55</ele>
        <time>2016-06-19T10:31:04Z</time>
      </trkpt>
      <trkpt lat="44.15239" lon="5.34526">
        <ele>1294.55</ele>
        <time>2016-06-19T10:31:05Z</time>
      </trkpt>
      <trkpt lat="44.1525" lon="5.34545">
        <ele>1294.07</ele>
        <time>2016-06-19T10:31:06Z</time>
      </trkpt>
      <trkpt lat="44.15264" lon="5.34562">
        <ele>1293.59</ele>
        <time>2016-06-19T10:31:07Z</time>
      </trkpt>
      <trkpt lat="44.15281" lon="5.34574">
        <ele>1293.11</ele>
        <time>2016-06-19T10:31:08Z</time>
      </trkpt>
      <trkpt lat="44.15299" lon="5.34584">
        <ele>1293.11</ele>
        <time>2016-06-19T10:31:09Z</time>
      </trkpt>
      <trkpt lat="44.15319" lon="5.34589">
        <ele>1292.15</ele>
        <time>2016-06-19T10:31:10Z</time>
      </trkpt>
      <trkpt lat="44.15339" lon="5.34593">
        <ele>1292.15</ele>
        <time>2016-06-19T10:31:11Z</time>
      </trkpt>
      <trkpt lat="44.15375" lon="5.34595">
        <ele>1292.15</ele>
        <time>2016-06-19T10:31:13Z</time>
      </trkpt>
      <trkpt lat="44.15391" lon="5.34592">
        <ele>1292.15</ele>
        <time>2016-06-19T10:31:14Z</time>
      </trkpt>
      <trkpt lat="44.15405" lon="5.34587">
        <ele>1292.15</ele>
        <time>2016-06-19T10:31:15Z</time>
      </trkpt>
      <trkpt lat="44.15417" lon="5.3458">
        <ele>1291.19</ele>
        <time>2016-06-19T10:31:16Z</time>
      </trkpt>
      <trkpt lat="44.15429" lon="5.34572">
        <ele>1290.23</ele>
        <time>2016-06-19T10:31:17Z</time>
      </trkpt>
      <trkpt lat="44.15439" lon="5.34563">
        <ele>1289.75</ele>
        <time>2016-06-19T10:31:18Z</time>
      </trkpt>
      <trkpt lat="44.15448" lon="5.34552">
        <ele>1289.27</ele>
        <time>2016-06-19T10:31:19Z</time>
      </trkpt>
      <trkpt lat="44.15455" lon="5.34541">
        <ele>1289.27</ele>
        <time>2016-06-19T10:31:20Z</time>
      </trkpt>
      <trkpt lat="44.15461" lon="5.3453">
        <ele>1288.78</ele>
        <time>2016-06-19T10:31:21Z</time>
      </trkpt>
      <trkpt lat="44.15468" lon="5.34517">
        <ele>1288.3</ele>
        <time>2016-06-19T10:31:22Z</time>
      </trkpt>
      <trkpt lat="44.15473" lon="5.34505">
        <ele>1287.82</ele>
        <time>2016-06-19T10:31:23Z</time>
      </trkpt>
      <trkpt lat="44.15477" lon="5.34493">
        <ele>1287.82</ele>
        <time>2016-06-19T10:31:24Z</time>
      </trkpt>
      <trkpt lat="44.15487" lon="5.34462">
        <ele>1286.38</ele>
        <time>2016-06-19T10:31:27Z</time>
      </trkpt>
      <trkpt lat="44.15491" lon="5.34454">
        <ele>1286.38</ele>
        <time>2016-06-19T10:31:28Z</time>
      </trkpt>
      <trkpt lat="44.15495" lon="5.3445">
        <ele>1285.9</ele>
        <time>2016-06-19T10:31:29Z</time>
      </trkpt>
      <trkpt lat="44.15501" lon="5.34451">
        <ele>1285.42</ele>
        <time>2016-06-19T10:31:30Z</time>
      </trkpt>
      <trkpt lat="44.15508" lon="5.34456">
        <ele>1284.94</ele>
        <time>2016-06-19T10:31:31Z</time>
      </trkpt>
      <trkpt lat="44.15514" lon="5.34467">
        <ele>1285.42</ele>
        <time>2016-06-19T10:31:32Z</time>
      </trkpt>
      <trkpt lat="44.15519" lon="5.34479">
        <ele>1284.94</ele>
        <time>2016-06-19T10:31:33Z</time>
      </trkpt>
      <trkpt lat="44.15525" lon="5.34491">
        <ele>1284.46</ele>
        <time>2016-06-19T10:31:34Z</time>
      </trkpt>
      <trkpt lat="44.15549" lon="5.34553">
        <ele>1282.06</ele>
        <time>2016-06-19T10:31:39Z</time>
      </trkpt>
      <trkpt lat="44.15556" lon="5.34565">
        <ele>1281.57</ele>
        <time>2016-06-19T10:31:40Z</time>
      </trkpt>
      <trkpt lat="44.15567" lon="5.34578">
        <ele>1280.61</ele>
        <time>2016-06-19T10:31:41Z</time>
      </trkpt>
      <trkpt lat="44.15611" lon="5.34631">
        <ele>1278.69</ele>
        <time>2016-06-19T10:31:44Z</time>
      </trkpt>
      <trkpt lat="44.15623" lon="5.34654">
        <ele>1277.25</ele>
        <time>2016-06-19T10:31:45Z</time>
      </trkpt>
      <trkpt lat="44.15635" lon="5.34675">
        <ele>1276.29</ele>
        <time>2016-06-19T10:31:46Z</time>
      </trkpt>
      <trkpt lat="44.15649" lon="5.34694">
        <ele>1275.81</ele>
        <time>2016-06-19T10:31:47Z</time>
      </trkpt>
      <trkpt lat="44.15664" lon="5.34712">
        <ele>1275.33</ele>
        <time>2016-06-19T10:31:48Z</time>
      </trkpt>
      <trkpt lat="44.1568" lon="5.34727">
        <ele>1274.36</ele>
        <time>2016-06-19T10:31:49Z</time>
      </trkpt>
      <trkpt lat="44.15698" lon="5.34738">
        <ele>1273.4</ele>
        <time>2016-06-19T10:31:50Z</time>
      </trkpt>
      <trkpt lat="44.15716" lon="5.34745">
        <ele>1272.44</ele>
        <time>2016-06-19T10:31:51Z</time>
      </trkpt>
      <trkpt lat="44.15733" lon="5.34748">
        <ele>1271</ele>
        <time>2016-06-19T10:31:52Z</time>
      </trkpt>
      <trkpt lat="44.15748" lon="5.34751">
        <ele>1270.04</ele>
        <time>2016-06-19T10:31:53Z</time>
      </trkpt>
      <trkpt lat="44.15767" lon="5.34761">
        <ele>1267.64</ele>
        <time>2016-06-19T10:31:55Z</time>
      </trkpt>
      <trkpt lat="44.15773" lon="5.34771">
        <ele>1266.67</ele>
        <time>2016-06-19T10:31:56Z</time>
      </trkpt>
      <trkpt lat="44.15773" lon="5.34787">
        <ele>1265.71</ele>
        <time>2016-06-19T10:31:57Z</time>
      </trkpt>
      <trkpt lat="44.15752" lon="5.3481">
        <ele>1264.75</ele>
        <time>2016-06-19T10:31:59Z</time>
      </trkpt>
      <trkpt lat="44.15739" lon="5.34817">
        <ele>1263.79</ele>
        <time>2016-06-19T10:32:00Z</time>
      </trkpt>
      <trkpt lat="44.15722" lon="5.34825">
        <ele>1263.31</ele>
        <time>2016-06-19T10:32:01Z</time>
      </trkpt>
      <trkpt lat="44.15709" lon="5.34835">
        <ele>1263.31</ele>
        <time>2016-06-19T10:32:02Z</time>
      </trkpt>
      <trkpt lat="44.15697" lon="5.34846">
        <ele>1262.83</ele>
        <time>2016-06-19T10:32:03Z</time>
      </trkpt>
      <trkpt lat="44.15683" lon="5.3487">
        <ele>1261.39</ele>
        <time>2016-06-19T10:32:05Z</time>
      </trkpt>
      <trkpt lat="44.1569" lon="5.3489">
        <ele>1261.87</ele>
        <time>2016-06-19T10:32:06Z</time>
      </trkpt>
      <trkpt lat="44.15697" lon="5.34906">
        <ele>1261.87</ele>
        <time>2016-06-19T10:32:07Z</time>
      </trkpt>
      <trkpt lat="44.15703" lon="5.34921">
        <ele>1260.91</ele>
        <time>2016-06-19T10:32:08Z</time>
      </trkpt>
      <trkpt lat="44.15711" lon="5.34935">
        <ele>1260.91</ele>
        <time>2016-06-19T10:32:09Z</time>
      </trkpt>
      <trkpt lat="44.15719" lon="5.3495">
        <ele>1260.91</ele>
        <time>2016-06-19T10:32:10Z</time>
      </trkpt>
      <trkpt lat="44.15723" lon="5.34962">
        <ele>1260.91</ele>
        <time>2016-06-19T10:32:11Z</time>
      </trkpt>
      <trkpt lat="44.15719" lon="5.34974">
        <ele>1260.43</ele>
        <time>2016-06-19T10:32:12Z</time>
      </trkpt>
      <trkpt lat="44.15705" lon="5.34977">
        <ele>1259.46</ele>
        <time>2016-06-19T10:32:13Z</time>
      </trkpt>
      <trkpt lat="44.15689" lon="5.34979">
        <ele>1258.98</ele>
        <time>2016-06-19T10:32:14Z</time>
      </trkpt>
      <trkpt lat="44.15672" lon="5.34976">
        <ele>1258.5</ele>
        <time>2016-06-19T10:32:15Z</time>
      </trkpt>
      <trkpt lat="44.15656" lon="5.34971">
        <ele>1258.02</ele>
        <time>2016-06-19T10:32:16Z</time>
      </trkpt>
      <trkpt lat="44.1564" lon="5.34959">
        <ele>1258.02</ele>
        <time>2016-06-19T10:32:17Z</time>
      </trkpt>
      <trkpt lat="44.15623" lon="5.34951">
        <ele>1258.5</ele>
        <time>2016-06-19T10:32:18Z</time>
      </trkpt>
      <trkpt lat="44.15572" lon="5.34937">
        <ele>1258.5</ele>
        <time>2016-06-19T10:32:21Z</time>
      </trkpt>
      <trkpt lat="44.15552" lon="5.34941">
        <ele>1258.98</ele>
        <time>2016-06-19T10:32:22Z</time>
      </trkpt>
      <trkpt lat="44.15533" lon="5.3495">
        <ele>1259.46</ele>
        <time>2016-06-19T10:32:23Z</time>
      </trkpt>
      <trkpt lat="44.15514" lon="5.34963">
        <ele>1258.98</ele>
        <time>2016-06-19T10:32:24Z</time>
      </trkpt>
      <trkpt lat="44.15496" lon="5.34975">
        <ele>1259.46</ele>
        <time>2016-06-19T10:32:25Z</time>
      </trkpt>
      <trkpt lat="44.15442" lon="5.34999">
        <ele>1260.91</ele>
        <time>2016-06-19T10:32:28Z</time>
      </trkpt>
      <trkpt lat="44.15425" lon="5.35">
        <ele>1260.91</ele>
        <time>2016-06-19T10:32:29Z</time>
      </trkpt>
      <trkpt lat="44.15406" lon="5.34998">
        <ele>1260.91</ele>
        <time>2016-06-19T10:32:30Z</time>
      </trkpt>
      <trkpt lat="44.15387" lon="5.34996">
        <ele>1260.91</ele>
        <time>2016-06-19T10:32:31Z</time>
      </trkpt>
      <trkpt lat="44.15368" lon="5.34997">
        <ele>1260.43</ele>
        <time>2016-06-19T10:32:32Z</time>
      </trkpt>
      <trkpt lat="44.1535" lon="5.34999">
        <ele>1259.46</ele>
        <time>2016-06-19T10:32:33Z</time>
      </trkpt>
      <trkpt lat="44.15333" lon="5.35004">
        <ele>1258.98</ele>
        <time>2016-06-19T10:32:34Z</time>
      </trkpt>
      <trkpt lat="44.15317" lon="5.35012">
        <ele>1257.54</ele>
        <time>2016-06-19T10:32:35Z</time>
      </trkpt>
      <trkpt lat="44.15301" lon="5.35025">
        <ele>1255.62</ele>
        <time>2016-06-19T10:32:36Z</time>
      </trkpt>
      <trkpt lat="44.15289" lon="5.3504">
        <ele>1254.18</ele>
        <time>2016-06-19T10:32:37Z</time>
      </trkpt>
      <trkpt lat="44.1528" lon="5.3506">
        <ele>1252.25</ele>
        <time>2016-06-19T10:32:38Z</time>
      </trkpt>
      <trkpt lat="44.15275" lon="5.35082">
        <ele>1250.33</ele>
        <time>2016-06-19T10:32:39Z</time>
      </trkpt>
      <trkpt lat="44.15273" lon="5.35108">
        <ele>1248.41</ele>
        <time>2016-06-19T10:32:40Z</time>
      </trkpt>
      <trkpt lat="44.15273" lon="5.35136">
        <ele>1247.45</ele>
        <time>2016-06-19T10:32:41Z</time>
      </trkpt>
      <trkpt lat="44.15274" lon="5.35165">
        <ele>1246.01</ele>
        <time>2016-06-19T10:32:42Z</time>
      </trkpt>
      <trkpt lat="44.15274" lon="5.35191">
        <ele>1244.56</ele>
        <time>2016-06-19T10:32:43Z</time>
      </trkpt>
      <trkpt lat="44.15271" lon="5.35217">
        <ele>1243.6</ele>
        <time>2016-06-19T10:32:44Z</time>
      </trkpt>
      <trkpt lat="44.15265" lon="5.35245">
        <ele>1242.64</ele>
        <time>2016-06-19T10:32:45Z</time>
      </trkpt>
      <trkpt lat="44.15257" lon="5.35272">
        <ele>1241.68</ele>
        <time>2016-06-19T10:32:46Z</time>
      </trkpt>
      <trkpt lat="44.15246" lon="5.35296">
        <ele>1240.24</ele>
        <time>2016-06-19T10:32:47Z</time>
      </trkpt>
      <trkpt lat="44.15237" lon="5.3532">
        <ele>1238.8</ele>
        <time>2016-06-19T10:32:48Z</time>
      </trkpt>
      <trkpt lat="44.1523" lon="5.35345">
        <ele>1237.83</ele>
        <time>2016-06-19T10:32:49Z</time>
      </trkpt>
      <trkpt lat="44.15224" lon="5.35369">
        <ele>1236.39</ele>
        <time>2016-06-19T10:32:50Z</time>
      </trkpt>
      <trkpt lat="44.15221" lon="5.35392">
        <ele>1234.95</ele>
        <time>2016-06-19T10:32:51Z</time>
      </trkpt>
      <trkpt lat="44.15219" lon="5.35413">
        <ele>1233.99</ele>
        <time>2016-06-19T10:32:52Z</time>
      </trkpt>
      <trkpt lat="44.15219" lon="5.3543">
        <ele>1232.07</ele>
        <time>2016-06-19T10:32:53Z</time>
      </trkpt>
      <trkpt lat="44.15219" lon="5.35445">
        <ele>1230.62</ele>
        <time>2016-06-19T10:32:54Z</time>
      </trkpt>
      <trkpt lat="44.15216" lon="5.35456">
        <ele>1229.18</ele>
        <time>2016-06-19T10:32:55Z</time>
      </trkpt>
      <trkpt lat="44.15206" lon="5.35464">
        <ele>1227.74</ele>
        <time>2016-06-19T10:32:56Z</time>
      </trkpt>
      <trkpt lat="44.15195" lon="5.35471">
        <ele>1226.3</ele>
        <time>2016-06-19T10:32:57Z</time>
      </trkpt>
      <trkpt lat="44.15179" lon="5.3548">
        <ele>1225.82</ele>
        <time>2016-06-19T10:32:58Z</time>
      </trkpt>
      <trkpt lat="44.1516" lon="5.3549">
        <ele>1225.34</ele>
        <time>2016-06-19T10:32:59Z</time>
      </trkpt>
      <trkpt lat="44.15145" lon="5.35503">
        <ele>1225.34</ele>
        <time>2016-06-19T10:33:00Z</time>
      </trkpt>
      <trkpt lat="44.15123" lon="5.35533">
        <ele>1222.45</ele>
        <time>2016-06-19T10:33:02Z</time>
      </trkpt>
      <trkpt lat="44.15117" lon="5.35547">
        <ele>1221.49</ele>
        <time>2016-06-19T10:33:03Z</time>
      </trkpt>
      <trkpt lat="44.1511" lon="5.35557">
        <ele>1219.57</ele>
        <time>2016-06-19T10:33:04Z</time>
      </trkpt>
      <trkpt lat="44.15102" lon="5.35559">
        <ele>1217.65</ele>
        <time>2016-06-19T10:33:05Z</time>
      </trkpt>
      <trkpt lat="44.15092" lon="5.35553">
        <ele>1216.21</ele>
        <time>2016-06-19T10:33:06Z</time>
      </trkpt>
      <trkpt lat="44.15082" lon="5.35542">
        <ele>1214.76</ele>
        <time>2016-06-19T10:33:07Z</time>
      </trkpt>
      <trkpt lat="44.15072" lon="5.35529">
        <ele>1213.8</ele>
        <time>2016-06-19T10:33:08Z</time>
      </trkpt>
      <trkpt lat="44.1506" lon="5.35515">
        <ele>1213.32</ele>
        <time>2016-06-19T10:33:09Z</time>
      </trkpt>
      <trkpt lat="44.15046" lon="5.35503">
        <ele>1211.88</ele>
        <time>2016-06-19T10:33:10Z</time>
      </trkpt>
      <trkpt lat="44.15029" lon="5.35497">
        <ele>1212.36</ele>
        <time>2016-06-19T10:33:11Z</time>
      </trkpt>
      <trkpt lat="44.15011" lon="5.35495">
        <ele>1212.84</ele>
        <time>2016-06-19T10:33:12Z</time>
      </trkpt>
      <trkpt lat="44.14993" lon="5.35501">
        <ele>1213.32</ele>
        <time>2016-06-19T10:33:13Z</time>
      </trkpt>
      <trkpt lat="44.14976" lon="5.35512">
        <ele>1212.36</ele>
        <time>2016-06-19T10:33:14Z</time>
      </trkpt>
      <trkpt lat="44.14961" lon="5.35523">
        <ele>1209.48</ele>
        <time>2016-06-19T10:33:15Z</time>
      </trkpt>
      <trkpt lat="44.14945" lon="5.35538">
        <ele>1205.15</ele>
        <time>2016-06-19T10:33:16Z</time>
      </trkpt>
      <trkpt lat="44.14931" lon="5.35558">
        <ele>1202.75</ele>
        <time>2016-06-19T10:33:17Z</time>
      </trkpt>
      <trkpt lat="44.14917" lon="5.35576">
        <ele>1200.82</ele>
        <time>2016-06-19T10:33:18Z</time>
      </trkpt>
      <trkpt lat="44.14905" lon="5.35598">
        <ele>1198.9</ele>
        <time>2016-06-19T10:33:19Z</time>
      </trkpt>
      <trkpt lat="44.14893" lon="5.35622">
        <ele>1197.46</ele>
        <time>2016-06-19T10:33:20Z</time>
      </trkpt>
      <trkpt lat="44.14883" lon="5.35647">
        <ele>1196.5</ele>
        <time>2016-06-19T10:33:21Z</time>
      </trkpt>
      <trkpt lat="44.14877" lon="5.35675">
        <ele>1195.06</ele>
        <time>2016-06-19T10:33:22Z</time>
      </trkpt>
      <trkpt lat="44.1487" lon="5.35701">
        <ele>1194.58</ele>
        <time>2016-06-19T10:33:23Z</time>
      </trkpt>
      <trkpt lat="44.14867" lon="5.35727">
        <ele>1194.09</ele>
        <time>2016-06-19T10:33:24Z</time>
      </trkpt>
      <trkpt lat="44.14868" lon="5.35751">
        <ele>1193.61</ele>
        <time>2016-06-19T10:33:25Z</time>
      </trkpt>
      <trkpt lat="44.1487" lon="5.35779">
        <ele>1192.17</ele>
        <time>2016-06-19T10:33:26Z</time>
      </trkpt>
      <trkpt lat="44.14876" lon="5.35806">
        <ele>1190.73</ele>
        <time>2016-06-19T10:33:27Z</time>
      </trkpt>
      <trkpt lat="44.14883" lon="5.3583">
        <ele>1189.29</ele>
        <time>2016-06-19T10:33:28Z</time>
      </trkpt>
      <trkpt lat="44.14889" lon="5.35852">
        <ele>1188.33</ele>
        <time>2016-06-19T10:33:29Z</time>
      </trkpt>
      <trkpt lat="44.14903" lon="5.35889">
        <ele>1187.37</ele>
        <time>2016-06-19T10:33:31Z</time>
      </trkpt>
      <trkpt lat="44.14914" lon="5.359">
        <ele>1186.4</ele>
        <time>2016-06-19T10:33:32Z</time>
      </trkpt>
      <trkpt lat="44.14927" lon="5.35909">
        <ele>1185.44</ele>
        <time>2016-06-19T10:33:33Z</time>
      </trkpt>
      <trkpt lat="44.14948" lon="5.35927">
        <ele>1184</ele>
        <time>2016-06-19T10:33:35Z</time>
      </trkpt>
      <trkpt lat="44.14954" lon="5.35937">
        <ele>1183.04</ele>
        <time>2016-06-19T10:33:36Z</time>
      </trkpt>
      <trkpt lat="44.14955" lon="5.35949">
        <ele>1182.08</ele>
        <time>2016-06-19T10:33:37Z</time>
      </trkpt>
      <trkpt lat="44.14949" lon="5.35963">
        <ele>1182.56</ele>
        <time>2016-06-19T10:33:38Z</time>
      </trkpt>
      <trkpt lat="44.14927" lon="5.35969">
        <ele>1181.12</ele>
        <time>2016-06-19T10:33:40Z</time>
      </trkpt>
      <trkpt lat="44.14907" lon="5.35962">
        <ele>1179.67</ele>
        <time>2016-06-19T10:33:41Z</time>
      </trkpt>
      <trkpt lat="44.14887" lon="5.35953">
        <ele>1178.23</ele>
        <time>2016-06-19T10:33:42Z</time>
      </trkpt>
      <trkpt lat="44.14864" lon="5.35944">
        <ele>1177.75</ele>
        <time>2016-06-19T10:33:43Z</time>
      </trkpt>
      <trkpt lat="44.14842" lon="5.35935">
        <ele>1176.31</ele>
        <time>2016-06-19T10:33:44Z</time>
      </trkpt>
      <trkpt lat="44.14754" lon="5.35909">
        <ele>1170.06</ele>
        <time>2016-06-19T10:33:48Z</time>
      </trkpt>
      <trkpt lat="44.14733" lon="5.35911">
        <ele>1169.58</ele>
        <time>2016-06-19T10:33:49Z</time>
      </trkpt>
      <trkpt lat="44.14712" lon="5.35917">
        <ele>1168.14</ele>
        <time>2016-06-19T10:33:50Z</time>
      </trkpt>
      <trkpt lat="44.14693" lon="5.35927">
        <ele>1166.7</ele>
        <time>2016-06-19T10:33:51Z</time>
      </trkpt>
      <trkpt lat="44.14674" lon="5.35939">
        <ele>1164.29</ele>
        <time>2016-06-19T10:33:52Z</time>
      </trkpt>
      <trkpt lat="44.14657" lon="5.35955">
        <ele>1162.85</ele>
        <time>2016-06-19T10:33:53Z</time>
      </trkpt>
      <trkpt lat="44.14641" lon="5.35974">
        <ele>1160.45</ele>
        <time>2016-06-19T10:33:54Z</time>
      </trkpt>
      <trkpt lat="44.14628" lon="5.35997">
        <ele>1158.05</ele>
        <time>2016-06-19T10:33:55Z</time>
      </trkpt>
      <trkpt lat="44.14618" lon="5.36022">
        <ele>1156.12</ele>
        <time>2016-06-19T10:33:56Z</time>
      </trkpt>
      <trkpt lat="44.1461" lon="5.3605">
        <ele>1153.72</ele>
        <time>2016-06-19T10:33:57Z</time>
      </trkpt>
      <trkpt lat="44.14605" lon="5.36078">
        <ele>1152.28</ele>
        <time>2016-06-19T10:33:58Z</time>
      </trkpt>
      <trkpt lat="44.146" lon="5.36108">
        <ele>1150.84</ele>
        <time>2016-06-19T10:33:59Z</time>
      </trkpt>
      <trkpt lat="44.14597" lon="5.36138">
        <ele>1149.39</ele>
        <time>2016-06-19T10:34:00Z</time>
      </trkpt>
      <trkpt lat="44.14595" lon="5.3617">
        <ele>1148.91</ele>
        <time>2016-06-19T10:34:01Z</time>
      </trkpt>
      <trkpt lat="44.14598" lon="5.362">
        <ele>1148.43</ele>
        <time>2016-06-19T10:34:02Z</time>
      </trkpt>
      <trkpt lat="44.146" lon="5.36229">
        <ele>1147.95</ele>
        <time>2016-06-19T10:34:03Z</time>
      </trkpt>
      <trkpt lat="44.14602" lon="5.3628">
        <ele>1146.03</ele>
        <time>2016-06-19T10:34:05Z</time>
      </trkpt>
      <trkpt lat="44.14599" lon="5.36301">
        <ele>1145.07</ele>
        <time>2016-06-19T10:34:06Z</time>
      </trkpt>
      <trkpt lat="44.14591" lon="5.36317">
        <ele>1144.11</ele>
        <time>2016-06-19T10:34:07Z</time>
      </trkpt>
      <trkpt lat="44.1458" lon="5.36333">
        <ele>1142.66</ele>
        <time>2016-06-19T10:34:08Z</time>
      </trkpt>
      <trkpt lat="44.14568" lon="5.36346">
        <ele>1141.7</ele>
        <time>2016-06-19T10:34:09Z</time>
      </trkpt>
      <trkpt lat="44.14556" lon="5.36359">
        <ele>1140.74</ele>
        <time>2016-06-19T10:34:10Z</time>
      </trkpt>
      <trkpt lat="44.14543" lon="5.3637">
        <ele>1140.26</ele>
        <time>2016-06-19T10:34:11Z</time>
      </trkpt>
      <trkpt lat="44.14533" lon="5.36381">
        <ele>1139.78</ele>
        <time>2016-06-19T10:34:12Z</time>
      </trkpt>
      <trkpt lat="44.1451" lon="5.36413">
        <ele>1138.34</ele>
        <time>2016-06-19T10:34:15Z</time>
      </trkpt>
      <trkpt lat="44.14506" lon="5.36426">
        <ele>1137.86</ele>
        <time>2016-06-19T10:34:16Z</time>
      </trkpt>
      <trkpt lat="44.14504" lon="5.36441">
        <ele>1137.86</ele>
        <time>2016-06-19T10:34:17Z</time>
      </trkpt>
      <trkpt lat="44.14504" lon="5.36457">
        <ele>1137.38</ele>
        <time>2016-06-19T10:34:18Z</time>
      </trkpt>
      <trkpt lat="44.14507" lon="5.36472">
        <ele>1135.94</ele>
        <time>2016-06-19T10:34:19Z</time>
      </trkpt>
      <trkpt lat="44.14511" lon="5.36485">
        <ele>1135.45</ele>
        <time>2016-06-19T10:34:20Z</time>
      </trkpt>
      <trkpt lat="44.14516" lon="5.36499">
        <ele>1135.45</ele>
        <time>2016-06-19T10:34:21Z</time>
      </trkpt>
      <trkpt lat="44.14523" lon="5.36514">
        <ele>1135.45</ele>
        <time>2016-06-19T10:34:22Z</time>
      </trkpt>
      <trkpt lat="44.14577" lon="5.36628">
        <ele>1133.05</ele>
        <time>2016-06-19T10:34:29Z</time>
      </trkpt>
      <trkpt lat="44.14581" lon="5.36641">
        <ele>1132.57</ele>
        <time>2016-06-19T10:34:30Z</time>
      </trkpt>
      <trkpt lat="44.14562" lon="5.36668">
        <ele>1130.17</ele>
        <time>2016-06-19T10:34:33Z</time>
      </trkpt>
      <trkpt lat="44.14544" lon="5.36665">
        <ele>1129.69</ele>
        <time>2016-06-19T10:34:34Z</time>
      </trkpt>
      <trkpt lat="44.14526" lon="5.3666">
        <ele>1128.24</ele>
        <time>2016-06-19T10:34:35Z</time>
      </trkpt>
      <trkpt lat="44.14508" lon="5.36656">
        <ele>1127.28</ele>
        <time>2016-06-19T10:34:36Z</time>
      </trkpt>
      <trkpt lat="44.1443" lon="5.36655">
        <ele>1122.96</ele>
        <time>2016-06-19T10:34:40Z</time>
      </trkpt>
      <trkpt lat="44.1441" lon="5.36661">
        <ele>1122</ele>
        <time>2016-06-19T10:34:41Z</time>
      </trkpt>
      <trkpt lat="44.14389" lon="5.36669">
        <ele>1121.03</ele>
        <time>2016-06-19T10:34:42Z</time>
      </trkpt>
      <trkpt lat="44.1437" lon="5.36681">
        <ele>1120.07</ele>
        <time>2016-06-19T10:34:43Z</time>
      </trkpt>
      <trkpt lat="44.14352" lon="5.36694">
        <ele>1118.63</ele>
        <time>2016-06-19T10:34:44Z</time>
      </trkpt>
      <trkpt lat="44.14335" lon="5.36709">
        <ele>1117.67</ele>
        <time>2016-06-19T10:34:45Z</time>
      </trkpt>
      <trkpt lat="44.14319" lon="5.36727">
        <ele>1116.23</ele>
        <time>2016-06-19T10:34:46Z</time>
      </trkpt>
      <trkpt lat="44.14304" lon="5.36747">
        <ele>1114.79</ele>
        <time>2016-06-19T10:34:47Z</time>
      </trkpt>
      <trkpt lat="44.14291" lon="5.36769">
        <ele>1112.38</ele>
        <time>2016-06-19T10:34:48Z</time>
      </trkpt>
      <trkpt lat="44.14281" lon="5.36793">
        <ele>1110.46</ele>
        <time>2016-06-19T10:34:49Z</time>
      </trkpt>
      <trkpt lat="44.14277" lon="5.36822">
        <ele>1109.98</ele>
        <time>2016-06-19T10:34:50Z</time>
      </trkpt>
      <trkpt lat="44.14271" lon="5.36849">
        <ele>1109.02</ele>
        <time>2016-06-19T10:34:51Z</time>
      </trkpt>
      <trkpt lat="44.14269" lon="5.36879">
        <ele>1108.54</ele>
        <time>2016-06-19T10:34:52Z</time>
      </trkpt>
      <trkpt lat="44.14268" lon="5.36909">
        <ele>1107.58</ele>
        <time>2016-06-19T10:34:53Z</time>
      </trkpt>
      <trkpt lat="44.14267" lon="5.36938">
        <ele>1106.13</ele>
        <time>2016-06-19T10:34:54Z</time>
      </trkpt>
      <trkpt lat="44.14261" lon="5.37014">
        <ele>1103.25</ele>
        <time>2016-06-19T10:34:57Z</time>
      </trkpt>
      <trkpt lat="44.14257" lon="5.37034">
        <ele>1102.29</ele>
        <time>2016-06-19T10:34:58Z</time>
      </trkpt>
      <trkpt lat="44.14251" lon="5.37051">
        <ele>1101.33</ele>
        <time>2016-06-19T10:34:59Z</time>
      </trkpt>
      <trkpt lat="44.14242" lon="5.37064">
        <ele>1100.85</ele>
        <time>2016-06-19T10:35:00Z</time>
      </trkpt>
      <trkpt lat="44.14227" lon="5.37068">
        <ele>1099.89</ele>
        <time>2016-06-19T10:35:01Z</time>
      </trkpt>
      <trkpt lat="44.14214" lon="5.37069">
        <ele>1097.96</ele>
        <time>2016-06-19T10:35:02Z</time>
      </trkpt>
      <trkpt lat="44.14204" lon="5.3706">
        <ele>1097</ele>
        <time>2016-06-19T10:35:03Z</time>
      </trkpt>
      <trkpt lat="44.14197" lon="5.37045">
        <ele>1096.52</ele>
        <time>2016-06-19T10:35:04Z</time>
      </trkpt>
      <trkpt lat="44.14191" lon="5.37016">
        <ele>1097.48</ele>
        <time>2016-06-19T10:35:05Z</time>
      </trkpt>
      <trkpt lat="44.14185" lon="5.36993">
        <ele>1097.48</ele>
        <time>2016-06-19T10:35:06Z</time>
      </trkpt>
      <trkpt lat="44.14178" lon="5.36969">
        <ele>1097</ele>
        <time>2016-06-19T10:35:07Z</time>
      </trkpt>
      <trkpt lat="44.14146" lon="5.36902">
        <ele>1095.08</ele>
        <time>2016-06-19T10:35:10Z</time>
      </trkpt>
      <trkpt lat="44.14133" lon="5.36882">
        <ele>1095.08</ele>
        <time>2016-06-19T10:35:11Z</time>
      </trkpt>
      <trkpt lat="44.14119" lon="5.36865">
        <ele>1094.12</ele>
        <time>2016-06-19T10:35:12Z</time>
      </trkpt>
      <trkpt lat="44.14105" lon="5.36851">
        <ele>1093.64</ele>
        <time>2016-06-19T10:35:13Z</time>
      </trkpt>
      <trkpt lat="44.14089" lon="5.36837">
        <ele>1092.2</ele>
        <time>2016-06-19T10:35:14Z</time>
      </trkpt>
      <trkpt lat="44.13995" lon="5.36786">
        <ele>1089.31</ele>
        <time>2016-06-19T10:35:19Z</time>
      </trkpt>
      <trkpt lat="44.13974" lon="5.36782">
        <ele>1087.87</ele>
        <time>2016-06-19T10:35:20Z</time>
      </trkpt>
      <trkpt lat="44.13954" lon="5.3678">
        <ele>1085.95</ele>
        <time>2016-06-19T10:35:21Z</time>
      </trkpt>
      <trkpt lat="44.13893" lon="5.3678">
        <ele>1083.06</ele>
        <time>2016-06-19T10:35:24Z</time>
      </trkpt>
      <trkpt lat="44.13873" lon="5.36789">
        <ele>1081.62</ele>
        <time>2016-06-19T10:35:25Z</time>
      </trkpt>
      <trkpt lat="44.13854" lon="5.36799">
        <ele>1080.18</ele>
        <time>2016-06-19T10:35:26Z</time>
      </trkpt>
      <trkpt lat="44.13836" lon="5.36811">
        <ele>1078.74</ele>
        <time>2016-06-19T10:35:27Z</time>
      </trkpt>
      <trkpt lat="44.1382" lon="5.36824">
        <ele>1076.81</ele>
        <time>2016-06-19T10:35:28Z</time>
      </trkpt>
      <trkpt lat="44.13804" lon="5.3684">
        <ele>1075.37</ele>
        <time>2016-06-19T10:35:29Z</time>
      </trkpt>
      <trkpt lat="44.13791" lon="5.36857">
        <ele>1073.45</ele>
        <time>2016-06-19T10:35:30Z</time>
      </trkpt>
      <trkpt lat="44.13778" lon="5.36876">
        <ele>1072.01</ele>
        <time>2016-06-19T10:35:31Z</time>
      </trkpt>
      <trkpt lat="44.1373" lon="5.36923">
        <ele>1068.16</ele>
        <time>2016-06-19T10:35:34Z</time>
      </trkpt>
      <trkpt lat="44.13711" lon="5.36933">
        <ele>1066.72</ele>
        <time>2016-06-19T10:35:35Z</time>
      </trkpt>
      <trkpt lat="44.1369" lon="5.36939">
        <ele>1065.28</ele>
        <time>2016-06-19T10:35:36Z</time>
      </trkpt>
      <trkpt lat="44.13587" lon="5.36972">
        <ele>1055.67</ele>
        <time>2016-06-19T10:35:41Z</time>
      </trkpt>
      <trkpt lat="44.13567" lon="5.36985">
        <ele>1054.22</ele>
        <time>2016-06-19T10:35:42Z</time>
      </trkpt>
      <trkpt lat="44.13445" lon="5.37072">
        <ele>1044.61</ele>
        <time>2016-06-19T10:35:49Z</time>
      </trkpt>
      <trkpt lat="44.13436" lon="5.37086">
        <ele>1043.17</ele>
        <time>2016-06-19T10:35:50Z</time>
      </trkpt>
      <trkpt lat="44.13431" lon="5.37103">
        <ele>1042.21</ele>
        <time>2016-06-19T10:35:51Z</time>
      </trkpt>
      <trkpt lat="44.13431" lon="5.37122">
        <ele>1041.25</ele>
        <time>2016-06-19T10:35:52Z</time>
      </trkpt>
      <trkpt lat="44.13436" lon="5.37139">
        <ele>1040.28</ele>
        <time>2016-06-19T10:35:53Z</time>
      </trkpt>
      <trkpt lat="44.1344" lon="5.37155">
        <ele>1038.36</ele>
        <time>2016-06-19T10:35:54Z</time>
      </trkpt>
      <trkpt lat="44.13454" lon="5.3717">
        <ele>1036.92</ele>
        <time>2016-06-19T10:35:55Z</time>
      </trkpt>
      <trkpt lat="44.13469" lon="5.37188">
        <ele>1036.44</ele>
        <time>2016-06-19T10:35:56Z</time>
      </trkpt>
      <trkpt lat="44.13483" lon="5.37204">
        <ele>1036.44</ele>
        <time>2016-06-19T10:35:57Z</time>
      </trkpt>
      <trkpt lat="44.13498" lon="5.3722">
        <ele>1035.96</ele>
        <time>2016-06-19T10:35:58Z</time>
      </trkpt>
      <trkpt lat="44.13576" lon="5.37313">
        <ele>1030.67</ele>
        <time>2016-06-19T10:36:04Z</time>
      </trkpt>
      <trkpt lat="44.1359" lon="5.37325">
        <ele>1029.71</ele>
        <time>2016-06-19T10:36:05Z</time>
      </trkpt>
      <trkpt lat="44.13606" lon="5.37334">
        <ele>1028.75</ele>
        <time>2016-06-19T10:36:06Z</time>
      </trkpt>
      <trkpt lat="44.13641" lon="5.37355">
        <ele>1025.86</ele>
        <time>2016-06-19T10:36:09Z</time>
      </trkpt>
      <trkpt lat="44.13646" lon="5.37365">
        <ele>1023.94</ele>
        <time>2016-06-19T10:36:10Z</time>
      </trkpt>
      <trkpt lat="44.13646" lon="5.3738">
        <ele>1022.98</ele>
        <time>2016-06-19T10:36:11Z</time>
      </trkpt>
      <trkpt lat="44.13641" lon="5.37392">
        <ele>1021.06</ele>
        <time>2016-06-19T10:36:12Z</time>
      </trkpt>
      <trkpt lat="44.13627" lon="5.37398">
        <ele>1019.13</ele>
        <time>2016-06-19T10:36:13Z</time>
      </trkpt>
      <trkpt lat="44.1361" lon="5.37401">
        <ele>1018.65</ele>
        <time>2016-06-19T10:36:14Z</time>
      </trkpt>
      <trkpt lat="44.13591" lon="5.37404">
        <ele>1016.73</ele>
        <time>2016-06-19T10:36:15Z</time>
      </trkpt>
      <trkpt lat="44.13486" lon="5.37431">
        <ele>1010.96</ele>
        <time>2016-06-19T10:36:19Z</time>
      </trkpt>
      <trkpt lat="44.13389" lon="5.37452">
        <ele>1005.68</ele>
        <time>2016-06-19T10:36:23Z</time>
      </trkpt>
      <trkpt lat="44.13368" lon="5.3745">
        <ele>1004.23</ele>
        <time>2016-06-19T10:36:24Z</time>
      </trkpt>
      <trkpt lat="44.13344" lon="5.37444">
        <ele>1002.79</ele>
        <time>2016-06-19T10:36:25Z</time>
      </trkpt>
      <trkpt lat="44.13206" lon="5.37384">
        <ele>994.14</ele>
        <time>2016-06-19T10:36:30Z</time>
      </trkpt>
      <trkpt lat="44.13074" lon="5.37319">
        <ele>985.97</ele>
        <time>2016-06-19T10:36:36Z</time>
      </trkpt>
      <trkpt lat="44.13018" lon="5.3731">
        <ele>982.6</ele>
        <time>2016-06-19T10:36:39Z</time>
      </trkpt>
      <trkpt lat="44.12999" lon="5.37316">
        <ele>981.16</ele>
        <time>2016-06-19T10:36:40Z</time>
      </trkpt>
      <trkpt lat="44.12978" lon="5.37328">
        <ele>979.72</ele>
        <time>2016-06-19T10:36:41Z</time>
      </trkpt>
      <trkpt lat="44.12848" lon="5.37357">
        <ele>972.03</ele>
        <time>2016-06-19T10:36:46Z</time>
      </trkpt>
      <trkpt lat="44.127" lon="5.37316">
        <ele>962.9</ele>
        <time>2016-06-19T10:36:51Z</time>
      </trkpt>
      <trkpt lat="44.1256" lon="5.373">
        <ele>955.21</ele>
        <time>2016-06-19T10:36:56Z</time>
      </trkpt>
      <trkpt lat="44.12409" lon="5.37325">
        <ele>945.59</ele>
        <time>2016-06-19T10:37:02Z</time>
      </trkpt>
      <trkpt lat="44.12314" lon="5.37421">
        <ele>935.02</ele>
        <time>2016-06-19T10:37:07Z</time>
      </trkpt>
      <trkpt lat="44.12201" lon="5.37567">
        <ele>926.85</ele>
        <time>2016-06-19T10:37:12Z</time>
      </trkpt>
      <trkpt lat="44.12144" lon="5.37698">
        <ele>920.6</ele>
        <time>2016-06-19T10:37:16Z</time>
      </trkpt>
      <trkpt lat="44.12136" lon="5.37736">
        <ele>919.16</ele>
        <time>2016-06-19T10:37:17Z</time>
      </trkpt>
      <trkpt lat="44.12092" lon="5.37888">
        <ele>911.47</ele>
        <time>2016-06-19T10:37:22Z</time>
      </trkpt>
      <trkpt lat="44.12057" lon="5.37935">
        <ele>908.58</ele>
        <time>2016-06-19T10:37:24Z</time>
      </trkpt>
      <trkpt lat="44.12036" lon="5.37957">
        <ele>906.66</ele>
        <time>2016-06-19T10:37:25Z</time>
      </trkpt>
      <trkpt lat="44.11907" lon="5.38152">
        <ele>895.12</ele>
        <time>2016-06-19T10:37:33Z</time>
      </trkpt>
      <trkpt lat="44.11896" lon="5.38197">
        <ele>893.68</ele>
        <time>2016-06-19T10:37:35Z</time>
      </trkpt>
      <trkpt lat="44.11863" lon="5.38273">
        <ele>889.84</ele>
        <time>2016-06-19T10:37:39Z</time>
      </trkpt>
      <trkpt lat="44.11844" lon="5.3829">
        <ele>887.91</ele>
        <time>2016-06-19T10:37:40Z</time>
      </trkpt>
      <trkpt lat="44.1182" lon="5.38309">
        <ele>885.99</ele>
        <time>2016-06-19T10:37:41Z</time>
      </trkpt>
      <trkpt lat="44.11799" lon="5.38328">
        <ele>885.51</ele>
        <time>2016-06-19T10:37:42Z</time>
      </trkpt>
      <trkpt lat="44.1178" lon="5.38345">
        <ele>884.55</ele>
        <time>2016-06-19T10:37:43Z</time>
      </trkpt>
      <trkpt lat="44.11733" lon="5.38392">
        <ele>880.22</ele>
        <time>2016-06-19T10:37:46Z</time>
      </trkpt>
      <trkpt lat="44.11723" lon="5.38412">
        <ele>879.74</ele>
        <time>2016-06-19T10:37:47Z</time>
      </trkpt>
      <trkpt lat="44.11717" lon="5.38434">
        <ele>879.26</ele>
        <time>2016-06-19T10:37:48Z</time>
      </trkpt>
      <trkpt lat="44.11711" lon="5.38456">
        <ele>878.3</ele>
        <time>2016-06-19T10:37:49Z</time>
      </trkpt>
      <trkpt lat="44.11711" lon="5.38479">
        <ele>876.38</ele>
        <time>2016-06-19T10:37:50Z</time>
      </trkpt>
      <trkpt lat="44.11714" lon="5.38502">
        <ele>874.94</ele>
        <time>2016-06-19T10:37:51Z</time>
      </trkpt>
      <trkpt lat="44.11722" lon="5.38527">
        <ele>874.46</ele>
        <time>2016-06-19T10:37:52Z</time>
      </trkpt>
      <trkpt lat="44.11732" lon="5.38549">
        <ele>873.98</ele>
        <time>2016-06-19T10:37:53Z</time>
      </trkpt>
      <trkpt lat="44.1174" lon="5.38568">
        <ele>873.5</ele>
        <time>2016-06-19T10:37:54Z</time>
      </trkpt>
      <trkpt lat="44.11752" lon="5.38585">
        <ele>872.53</ele>
        <time>2016-06-19T10:37:55Z</time>
      </trkpt>
      <trkpt lat="44.11763" lon="5.38598">
        <ele>871.57</ele>
        <time>2016-06-19T10:37:56Z</time>
      </trkpt>
      <trkpt lat="44.11772" lon="5.3861">
        <ele>870.61</ele>
        <time>2016-06-19T10:37:57Z</time>
      </trkpt>
      <trkpt lat="44.11776" lon="5.3862">
        <ele>868.69</ele>
        <time>2016-06-19T10:37:58Z</time>
      </trkpt>
      <trkpt lat="44.11774" lon="5.38633">
        <ele>867.73</ele>
        <time>2016-06-19T10:37:59Z</time>
      </trkpt>
      <trkpt lat="44.11764" lon="5.38644">
        <ele>867.25</ele>
        <time>2016-06-19T10:38:00Z</time>
      </trkpt>
      <trkpt lat="44.11748" lon="5.38657">
        <ele>867.25</ele>
        <time>2016-06-19T10:38:01Z</time>
      </trkpt>
      <trkpt lat="44.11732" lon="5.38671">
        <ele>866.29</ele>
        <time>2016-06-19T10:38:02Z</time>
      </trkpt>
      <trkpt lat="44.11712" lon="5.38687">
        <ele>865.32</ele>
        <time>2016-06-19T10:38:03Z</time>
      </trkpt>
      <trkpt lat="44.1169" lon="5.387">
        <ele>863.4</ele>
        <time>2016-06-19T10:38:04Z</time>
      </trkpt>
      <trkpt lat="44.11669" lon="5.38713">
        <ele>861.96</ele>
        <time>2016-06-19T10:38:05Z</time>
      </trkpt>
      <trkpt lat="44.11591" lon="5.38765">
        <ele>857.63</ele>
        <time>2016-06-19T10:38:09Z</time>
      </trkpt>
      <trkpt lat="44.11575" lon="5.38785">
        <ele>856.67</ele>
        <time>2016-06-19T10:38:10Z</time>
      </trkpt>
      <trkpt lat="44.11562" lon="5.38808">
        <ele>856.19</ele>
        <time>2016-06-19T10:38:11Z</time>
      </trkpt>
      <trkpt lat="44.1155" lon="5.38831">
        <ele>855.23</ele>
        <time>2016-06-19T10:38:12Z</time>
      </trkpt>
      <trkpt lat="44.11539" lon="5.38854">
        <ele>854.75</ele>
        <time>2016-06-19T10:38:13Z</time>
      </trkpt>
      <trkpt lat="44.11518" lon="5.38891">
        <ele>853.31</ele>
        <time>2016-06-19T10:38:15Z</time>
      </trkpt>
      <trkpt lat="44.11506" lon="5.38899">
        <ele>852.35</ele>
        <time>2016-06-19T10:38:16Z</time>
      </trkpt>
      <trkpt lat="44.1149" lon="5.38902">
        <ele>850.9</ele>
        <time>2016-06-19T10:38:17Z</time>
      </trkpt>
      <trkpt lat="44.11475" lon="5.38896">
        <ele>849.94</ele>
        <time>2016-06-19T10:38:18Z</time>
      </trkpt>
      <trkpt lat="44.11459" lon="5.38888">
        <ele>850.42</ele>
        <time>2016-06-19T10:38:19Z</time>
      </trkpt>
      <trkpt lat="44.11444" lon="5.38884">
        <ele>850.42</ele>
        <time>2016-06-19T10:38:20Z</time>
      </trkpt>
      <trkpt lat="44.11427" lon="5.38888">
        <ele>850.42</ele>
        <time>2016-06-19T10:38:21Z</time>
      </trkpt>
      <trkpt lat="44.1141" lon="5.38899">
        <ele>849.46</ele>
        <time>2016-06-19T10:38:22Z</time>
      </trkpt>
      <trkpt lat="44.11392" lon="5.38912">
        <ele>848.98</ele>
        <time>2016-06-19T10:38:23Z</time>
      </trkpt>
      <trkpt lat="44.11375" lon="5.38924">
        <ele>848.5</ele>
        <time>2016-06-19T10:38:24Z</time>
      </trkpt>
      <trkpt lat="44.11358" lon="5.38934">
        <ele>848.02</ele>
        <time>2016-06-19T10:38:25Z</time>
      </trkpt>
      <trkpt lat="44.11342" lon="5.38937">
        <ele>847.54</ele>
        <time>2016-06-19T10:38:26Z</time>
      </trkpt>
      <trkpt lat="44.11325" lon="5.38933">
        <ele>846.58</ele>
        <time>2016-06-19T10:38:27Z</time>
      </trkpt>
      <trkpt lat="44.11309" lon="5.38921">
        <ele>846.1</ele>
        <time>2016-06-19T10:38:28Z</time>
      </trkpt>
      <trkpt lat="44.11292" lon="5.38907">
        <ele>845.62</ele>
        <time>2016-06-19T10:38:29Z</time>
      </trkpt>
      <trkpt lat="44.11277" lon="5.38891">
        <ele>845.14</ele>
        <time>2016-06-19T10:38:30Z</time>
      </trkpt>
      <trkpt lat="44.11263" lon="5.38878">
        <ele>844.66</ele>
        <time>2016-06-19T10:38:31Z</time>
      </trkpt>
      <trkpt lat="44.11247" lon="5.38871">
        <ele>843.69</ele>
        <time>2016-06-19T10:38:32Z</time>
      </trkpt>
      <trkpt lat="44.11227" lon="5.3887">
        <ele>843.21</ele>
        <time>2016-06-19T10:38:33Z</time>
      </trkpt>
      <trkpt lat="44.11204" lon="5.38872">
        <ele>842.25</ele>
        <time>2016-06-19T10:38:34Z</time>
      </trkpt>
      <trkpt lat="44.11179" lon="5.38873">
        <ele>841.29</ele>
        <time>2016-06-19T10:38:35Z</time>
      </trkpt>
      <trkpt lat="44.11085" lon="5.38875">
        <ele>837.93</ele>
        <time>2016-06-19T10:38:39Z</time>
      </trkpt>
      <trkpt lat="44.11065" lon="5.38884">
        <ele>836.96</ele>
        <time>2016-06-19T10:38:40Z</time>
      </trkpt>
      <trkpt lat="44.11046" lon="5.38896">
        <ele>836</ele>
        <time>2016-06-19T10:38:41Z</time>
      </trkpt>
      <trkpt lat="44.11029" lon="5.38912">
        <ele>835.52</ele>
        <time>2016-06-19T10:38:42Z</time>
      </trkpt>
      <trkpt lat="44.11013" lon="5.3893">
        <ele>834.56</ele>
        <time>2016-06-19T10:38:43Z</time>
      </trkpt>
      <trkpt lat="44.10999" lon="5.38948">
        <ele>833.12</ele>
        <time>2016-06-19T10:38:44Z</time>
      </trkpt>
      <trkpt lat="44.10987" lon="5.38967">
        <ele>832.64</ele>
        <time>2016-06-19T10:38:45Z</time>
      </trkpt>
      <trkpt lat="44.10979" lon="5.38986">
        <ele>831.68</ele>
        <time>2016-06-19T10:38:46Z</time>
      </trkpt>
      <trkpt lat="44.10973" lon="5.39005">
        <ele>830.72</ele>
        <time>2016-06-19T10:38:47Z</time>
      </trkpt>
      <trkpt lat="44.10969" lon="5.39026">
        <ele>830.24</ele>
        <time>2016-06-19T10:38:48Z</time>
      </trkpt>
      <trkpt lat="44.10967" lon="5.39047">
        <ele>829.76</ele>
        <time>2016-06-19T10:38:49Z</time>
      </trkpt>
      <trkpt lat="44.10967" lon="5.39068">
        <ele>828.79</ele>
        <time>2016-06-19T10:38:50Z</time>
      </trkpt>
      <trkpt lat="44.10969" lon="5.39087">
        <ele>827.83</ele>
        <time>2016-06-19T10:38:51Z</time>
      </trkpt>
      <trkpt lat="44.10978" lon="5.39104">
        <ele>826.87</ele>
        <time>2016-06-19T10:38:52Z</time>
      </trkpt>
      <trkpt lat="44.10987" lon="5.3912">
        <ele>825.91</ele>
        <time>2016-06-19T10:38:53Z</time>
      </trkpt>
      <trkpt lat="44.11002" lon="5.39134">
        <ele>824.95</ele>
        <time>2016-06-19T10:38:54Z</time>
      </trkpt>
      <trkpt lat="44.11018" lon="5.39147">
        <ele>823.99</ele>
        <time>2016-06-19T10:38:55Z</time>
      </trkpt>
      <trkpt lat="44.11036" lon="5.39162">
        <ele>823.03</ele>
        <time>2016-06-19T10:38:56Z</time>
      </trkpt>
      <trkpt lat="44.11169" lon="5.39244">
        <ele>813.89</ele>
        <time>2016-06-19T10:39:03Z</time>
      </trkpt>
      <trkpt lat="44.11211" lon="5.39264">
        <ele>811.01</ele>
        <time>2016-06-19T10:39:06Z</time>
      </trkpt>
      <trkpt lat="44.11217" lon="5.39275">
        <ele>810.05</ele>
        <time>2016-06-19T10:39:07Z</time>
      </trkpt>
      <trkpt lat="44.11215" lon="5.39288">
        <ele>808.13</ele>
        <time>2016-06-19T10:39:08Z</time>
      </trkpt>
      <trkpt lat="44.11209" lon="5.39303">
        <ele>806.68</ele>
        <time>2016-06-19T10:39:09Z</time>
      </trkpt>
      <trkpt lat="44.11203" lon="5.39317">
        <ele>805.24</ele>
        <time>2016-06-19T10:39:10Z</time>
      </trkpt>
      <trkpt lat="44.11194" lon="5.39331">
        <ele>803.8</ele>
        <time>2016-06-19T10:39:11Z</time>
      </trkpt>
      <trkpt lat="44.11187" lon="5.39347">
        <ele>803.32</ele>
        <time>2016-06-19T10:39:12Z</time>
      </trkpt>
      <trkpt lat="44.11182" lon="5.39363">
        <ele>802.36</ele>
        <time>2016-06-19T10:39:13Z</time>
      </trkpt>
      <trkpt lat="44.11182" lon="5.39378">
        <ele>801.88</ele>
        <time>2016-06-19T10:39:14Z</time>
      </trkpt>
      <trkpt lat="44.11188" lon="5.39387">
        <ele>800.44</ele>
        <time>2016-06-19T10:39:15Z</time>
      </trkpt>
      <trkpt lat="44.11201" lon="5.39394">
        <ele>800.44</ele>
        <time>2016-06-19T10:39:16Z</time>
      </trkpt>
      <trkpt lat="44.11216" lon="5.39402">
        <ele>799.95</ele>
        <time>2016-06-19T10:39:17Z</time>
      </trkpt>
      <trkpt lat="44.11234" lon="5.39411">
        <ele>799.95</ele>
        <time>2016-06-19T10:39:18Z</time>
      </trkpt>
      <trkpt lat="44.11256" lon="5.3942">
        <ele>799.47</ele>
        <time>2016-06-19T10:39:19Z</time>
      </trkpt>
      <trkpt lat="44.11275" lon="5.3943">
        <ele>798.99</ele>
        <time>2016-06-19T10:39:20Z</time>
      </trkpt>
      <trkpt lat="44.11341" lon="5.39468">
        <ele>797.07</ele>
        <time>2016-06-19T10:39:25Z</time>
      </trkpt>
      <trkpt lat="44.11349" lon="5.39474">
        <ele>796.11</ele>
        <time>2016-06-19T10:39:26Z</time>
      </trkpt>
      <trkpt lat="44.11356" lon="5.39479">
        <ele>796.11</ele>
        <time>2016-06-19T10:39:27Z</time>
      </trkpt>
      <trkpt lat="44.11362" lon="5.39486">
        <ele>795.63</ele>
        <time>2016-06-19T10:39:28Z</time>
      </trkpt>
      <trkpt lat="44.11368" lon="5.39493">
        <ele>795.15</ele>
        <time>2016-06-19T10:39:29Z</time>
      </trkpt>
      <trkpt lat="44.11372" lon="5.395">
        <ele>794.67</ele>
        <time>2016-06-19T10:39:30Z</time>
      </trkpt>
      <trkpt lat="44.11377" lon="5.39507">
        <ele>794.19</ele>
        <time>2016-06-19T10:39:31Z</time>
      </trkpt>
      <trkpt lat="44.11416" lon="5.39593">
        <ele>790.82</ele>
        <time>2016-06-19T10:39:40Z</time>
      </trkpt>
      <trkpt lat="44.11444" lon="5.3967">
        <ele>786.98</ele>
        <time>2016-06-19T10:39:47Z</time>
      </trkpt>
      <trkpt lat="44.11446" lon="5.39679">
        <ele>786.5</ele>
        <time>2016-06-19T10:39:48Z</time>
      </trkpt>
      <trkpt lat="44.11446" lon="5.39688">
        <ele>786.02</ele>
        <time>2016-06-19T10:39:49Z</time>
      </trkpt>
      <trkpt lat="44.11444" lon="5.39696">
        <ele>785.53</ele>
        <time>2016-06-19T10:39:50Z</time>
      </trkpt>
      <trkpt lat="44.11442" lon="5.39703">
        <ele>785.05</ele>
        <time>2016-06-19T10:39:51Z</time>
      </trkpt>
      <trkpt lat="44.11437" lon="5.39709">
        <ele>784.57</ele>
        <time>2016-06-19T10:39:52Z</time>
      </trkpt>
      <trkpt lat="44.11432" lon="5.39714">
        <ele>784.09</ele>
        <time>2016-06-19T10:39:53Z</time>
      </trkpt>
      <trkpt lat="44.11427" lon="5.39717">
        <ele>783.61</ele>
        <time>2016-06-19T10:39:54Z</time>
      </trkpt>
      <trkpt lat="44.11421" lon="5.3972">
        <ele>783.13</ele>
        <time>2016-06-19T10:39:55Z</time>
      </trkpt>
      <trkpt lat="44.11414" lon="5.39723">
        <ele>783.13</ele>
        <time>2016-06-19T10:39:56Z</time>
      </trkpt>
      <trkpt lat="44.11377" lon="5.39733">
        <ele>780.73</ele>
        <time>2016-06-19T10:40:01Z</time>
      </trkpt>
      <trkpt lat="44.11368" lon="5.39733">
        <ele>779.77</ele>
        <time>2016-06-19T10:40:02Z</time>
      </trkpt>
      <trkpt lat="44.11298" lon="5.39738">
        <ele>775.92</ele>
        <time>2016-06-19T10:40:07Z</time>
      </trkpt>
      <trkpt lat="44.11181" lon="5.39752">
        <ele>768.23</ele>
        <time>2016-06-19T10:40:12Z</time>
      </trkpt>
      <trkpt lat="44.11157" lon="5.39763">
        <ele>766.31</ele>
        <time>2016-06-19T10:40:13Z</time>
      </trkpt>
      <trkpt lat="44.11134" lon="5.39781">
        <ele>764.87</ele>
        <time>2016-06-19T10:40:14Z</time>
      </trkpt>
      <trkpt lat="44.11111" lon="5.39802">
        <ele>763.42</ele>
        <time>2016-06-19T10:40:15Z</time>
      </trkpt>
      <trkpt lat="44.11087" lon="5.39823">
        <ele>761.5</ele>
        <time>2016-06-19T10:40:16Z</time>
      </trkpt>
      <trkpt lat="44.10911" lon="5.39945">
        <ele>749.49</ele>
        <time>2016-06-19T10:40:23Z</time>
      </trkpt>
      <trkpt lat="44.10892" lon="5.39968">
        <ele>747.56</ele>
        <time>2016-06-19T10:40:24Z</time>
      </trkpt>
      <trkpt lat="44.10874" lon="5.39994">
        <ele>745.64</ele>
        <time>2016-06-19T10:40:25Z</time>
      </trkpt>
      <trkpt lat="44.10807" lon="5.40082">
        <ele>739.39</ele>
        <time>2016-06-19T10:40:30Z</time>
      </trkpt>
      <trkpt lat="44.10794" lon="5.40082">
        <ele>736.03</ele>
        <time>2016-06-19T10:40:31Z</time>
      </trkpt>
      <trkpt lat="44.10777" lon="5.40078">
        <ele>734.58</ele>
        <time>2016-06-19T10:40:32Z</time>
      </trkpt>
      <trkpt lat="44.10759" lon="5.40069">
        <ele>733.62</ele>
        <time>2016-06-19T10:40:33Z</time>
      </trkpt>
      <trkpt lat="44.10737" lon="5.4006">
        <ele>732.18</ele>
        <time>2016-06-19T10:40:34Z</time>
      </trkpt>
      <trkpt lat="44.10713" lon="5.4005">
        <ele>730.74</ele>
        <time>2016-06-19T10:40:35Z</time>
      </trkpt>
      <trkpt lat="44.10689" lon="5.40034">
        <ele>729.78</ele>
        <time>2016-06-19T10:40:36Z</time>
      </trkpt>
      <trkpt lat="44.10665" lon="5.40016">
        <ele>729.78</ele>
        <time>2016-06-19T10:40:37Z</time>
      </trkpt>
      <trkpt lat="44.1064" lon="5.39996">
        <ele>727.86</ele>
        <time>2016-06-19T10:40:38Z</time>
      </trkpt>
      <trkpt lat="44.10499" lon="5.39912">
        <ele>721.61</ele>
        <time>2016-06-19T10:40:44Z</time>
      </trkpt>
      <trkpt lat="44.1048" lon="5.39913">
        <ele>721.13</ele>
        <time>2016-06-19T10:40:45Z</time>
      </trkpt>
      <trkpt lat="44.10461" lon="5.39919">
        <ele>720.65</ele>
        <time>2016-06-19T10:40:46Z</time>
      </trkpt>
      <trkpt lat="44.10443" lon="5.39931">
        <ele>720.65</ele>
        <time>2016-06-19T10:40:47Z</time>
      </trkpt>
      <trkpt lat="44.10427" lon="5.39947">
        <ele>719.68</ele>
        <time>2016-06-19T10:40:48Z</time>
      </trkpt>
      <trkpt lat="44.10412" lon="5.39967">
        <ele>719.68</ele>
        <time>2016-06-19T10:40:49Z</time>
      </trkpt>
      <trkpt lat="44.10396" lon="5.39989">
        <ele>718.72</ele>
        <time>2016-06-19T10:40:50Z</time>
      </trkpt>
      <trkpt lat="44.1038" lon="5.40011">
        <ele>718.24</ele>
        <time>2016-06-19T10:40:51Z</time>
      </trkpt>
      <trkpt lat="44.10363" lon="5.40032">
        <ele>718.24</ele>
        <time>2016-06-19T10:40:52Z</time>
      </trkpt>
      <trkpt lat="44.10343" lon="5.4005">
        <ele>717.76</ele>
        <time>2016-06-19T10:40:53Z</time>
      </trkpt>
      <trkpt lat="44.1032" lon="5.40066">
        <ele>717.28</ele>
        <time>2016-06-19T10:40:54Z</time>
      </trkpt>
      <trkpt lat="44.10294" lon="5.40081">
        <ele>717.28</ele>
        <time>2016-06-19T10:40:55Z</time>
      </trkpt>
      <trkpt lat="44.10072" lon="5.40204">
        <ele>717.76</ele>
        <time>2016-06-19T10:41:03Z</time>
      </trkpt>
      <trkpt lat="44.09973" lon="5.40252">
        <ele>717.76</ele>
        <time>2016-06-19T10:41:08Z</time>
      </trkpt>
      <trkpt lat="44.09939" lon="5.40264">
        <ele>717.76</ele>
        <time>2016-06-19T10:41:11Z</time>
      </trkpt>
      <trkpt lat="44.09923" lon="5.40277">
        <ele>717.76</ele>
        <time>2016-06-19T10:41:13Z</time>
      </trkpt>
      <trkpt lat="44.09916" lon="5.40286">
        <ele>717.28</ele>
        <time>2016-06-19T10:41:14Z</time>
      </trkpt>
      <trkpt lat="44.0991" lon="5.40302">
        <ele>716.8</ele>
        <time>2016-06-19T10:41:15Z</time>
      </trkpt>
      <trkpt lat="44.09848" lon="5.40407">
        <ele>712.95</ele>
        <time>2016-06-19T10:41:20Z</time>
      </trkpt>
      <trkpt lat="44.09741" lon="5.40551">
        <ele>702.86</ele>
        <time>2016-06-19T10:41:26Z</time>
      </trkpt>
      <trkpt lat="44.09716" lon="5.40608">
        <ele>699.5</ele>
        <time>2016-06-19T10:41:29Z</time>
      </trkpt>
      <trkpt lat="44.09718" lon="5.40629">
        <ele>698.05</ele>
        <time>2016-06-19T10:41:30Z</time>
      </trkpt>
      <trkpt lat="44.09724" lon="5.40648">
        <ele>697.09</ele>
        <time>2016-06-19T10:41:31Z</time>
      </trkpt>
      <trkpt lat="44.09734" lon="5.40663">
        <ele>696.61</ele>
        <time>2016-06-19T10:41:32Z</time>
      </trkpt>
      <trkpt lat="44.09745" lon="5.40675">
        <ele>694.69</ele>
        <time>2016-06-19T10:41:33Z</time>
      </trkpt>
      <trkpt lat="44.09759" lon="5.40688">
        <ele>693.25</ele>
        <time>2016-06-19T10:41:34Z</time>
      </trkpt>
      <trkpt lat="44.09778" lon="5.40703">
        <ele>693.73</ele>
        <time>2016-06-19T10:41:35Z</time>
      </trkpt>
      <trkpt lat="44.09798" lon="5.40721">
        <ele>694.21</ele>
        <time>2016-06-19T10:41:36Z</time>
      </trkpt>
      <trkpt lat="44.09818" lon="5.4074">
        <ele>696.13</ele>
        <time>2016-06-19T10:41:37Z</time>
      </trkpt>
      <trkpt lat="44.09934" lon="5.40866">
        <ele>709.59</ele>
        <time>2016-06-19T10:41:43Z</time>
      </trkpt>
      <trkpt lat="44.09969" lon="5.40899">
        <ele>713.92</ele>
        <time>2016-06-19T10:41:46Z</time>
      </trkpt>
      <trkpt lat="44.0997" lon="5.40919">
        <ele>715.84</ele>
        <time>2016-06-19T10:41:48Z</time>
      </trkpt>
      <trkpt lat="44.09959" lon="5.40921">
        <ele>716.32</ele>
        <time>2016-06-19T10:41:49Z</time>
      </trkpt>
      <trkpt lat="44.09946" lon="5.4092">
        <ele>717.28</ele>
        <time>2016-06-19T10:41:50Z</time>
      </trkpt>
      <trkpt lat="44.09931" lon="5.40914">
        <ele>718.24</ele>
        <time>2016-06-19T10:41:51Z</time>
      </trkpt>
      <trkpt lat="44.09912" lon="5.40907">
        <ele>719.2</ele>
        <time>2016-06-19T10:41:52Z</time>
      </trkpt>
      <trkpt lat="44.09891" lon="5.40899">
        <ele>721.13</ele>
        <time>2016-06-19T10:41:53Z</time>
      </trkpt>
      <trkpt lat="44.09737" lon="5.40837">
        <ele>732.66</ele>
        <time>2016-06-19T10:41:59Z</time>
      </trkpt>
      <trkpt lat="44.09639" lon="5.40805">
        <ele>740.83</ele>
        <time>2016-06-19T10:42:03Z</time>
      </trkpt>
      <trkpt lat="44.09613" lon="5.40806">
        <ele>742.76</ele>
        <time>2016-06-19T10:42:04Z</time>
      </trkpt>
      <trkpt lat="44.09471" lon="5.40814">
        <ele>753.81</ele>
        <time>2016-06-19T10:42:10Z</time>
      </trkpt>
      <trkpt lat="44.09377" lon="5.40817">
        <ele>761.5</ele>
        <time>2016-06-19T10:42:16Z</time>
      </trkpt>
      <trkpt lat="44.09369" lon="5.40816">
        <ele>762.46</ele>
        <time>2016-06-19T10:42:17Z</time>
      </trkpt>
      <trkpt lat="44.09369" lon="5.40814">
        <ele>761.98</ele>
        <time>2016-06-19T10:42:21Z</time>
      </trkpt>
      <trkpt lat="44.09362" lon="5.40817">
        <ele>762.46</ele>
        <time>2016-06-19T10:42:25Z</time>
      </trkpt>
      <trkpt lat="44.09287" lon="5.40823">
        <ele>767.75</ele>
        <time>2016-06-19T10:42:37Z</time>
      </trkpt>
      <trkpt lat="44.09262" lon="5.40825">
        <ele>771.11</ele>
        <time>2016-06-19T10:42:41Z</time>
      </trkpt>
      <trkpt lat="44.09256" lon="5.40825">
        <ele>771.6</ele>
        <time>2016-06-19T10:42:42Z</time>
      </trkpt>
      <trkpt lat="44.09222" lon="5.40828">
        <ele>770.15</ele>
        <time>2016-06-19T10:42:51Z</time>
      </trkpt>
      <trkpt lat="44.09225" lon="5.4083">
        <ele>768.71</ele>
        <time>2016-06-19T10:43:27Z</time>
      </trkpt>
      <trkpt lat="44.0922" lon="5.40837">
        <ele>767.27</ele>
        <time>2016-06-19T10:45:07Z</time>
      </trkpt>
      <trkpt lat="44.09218" lon="5.40842">
        <ele>767.27</ele>
        <time>2016-06-19T10:45:08Z</time>
      </trkpt>
      <trkpt lat="44.09215" lon="5.40849">
        <ele>767.27</ele>
        <time>2016-06-19T10:45:09Z</time>
      </trkpt>
      <trkpt lat="44.09213" lon="5.40862">
        <ele>767.27</ele>
        <time>2016-06-19T10:45:11Z</time>
      </trkpt>
      <trkpt lat="44.09211" lon="5.40897">
        <ele>766.31</ele>
        <time>2016-06-19T10:45:17Z</time>
      </trkpt>
      <trkpt lat="44.09197" lon="5.40928">
        <ele>768.23</ele>
        <time>2016-06-19T10:45:26Z</time>
      </trkpt>
      <trkpt lat="44.09182" lon="5.40944">
        <ele>771.11</ele>
        <time>2016-06-19T10:45:31Z</time>
      </trkpt>
      <trkpt lat="44.09177" lon="5.40946">
        <ele>771.6</ele>
        <time>2016-06-19T10:45:32Z</time>
      </trkpt>
      <trkpt lat="44.09172" lon="5.40948">
        <ele>772.56</ele>
        <time>2016-06-19T10:45:33Z</time>
      </trkpt>
      <trkpt lat="44.09166" lon="5.40948">
        <ele>773.52</ele>
        <time>2016-06-19T10:45:34Z</time>
      </trkpt>
      <trkpt lat="44.09159" lon="5.40948">
        <ele>775.44</ele>
        <time>2016-06-19T10:45:35Z</time>
      </trkpt>
      <trkpt lat="44.09153" lon="5.4095">
        <ele>774.96</ele>
        <time>2016-06-19T10:45:36Z</time>
      </trkpt>
      <trkpt lat="44.09146" lon="5.40954">
        <ele>774</ele>
        <time>2016-06-19T10:45:37Z</time>
      </trkpt>
      <trkpt lat="44.0914" lon="5.4096">
        <ele>773.52</ele>
        <time>2016-06-19T10:45:38Z</time>
      </trkpt>
      <trkpt lat="44.09065" lon="5.41028">
        <ele>767.27</ele>
        <time>2016-06-19T10:45:49Z</time>
      </trkpt>
      <trkpt lat="44.09022" lon="5.41074">
        <ele>764.87</ele>
        <time>2016-06-19T10:45:54Z</time>
      </trkpt>
      <trkpt lat="44.09016" lon="5.41086">
        <ele>764.39</ele>
        <time>2016-06-19T10:45:55Z</time>
      </trkpt>
      <trkpt lat="44.09012" lon="5.41099">
        <ele>763.9</ele>
        <time>2016-06-19T10:45:56Z</time>
      </trkpt>
      <trkpt lat="44.09009" lon="5.41111">
        <ele>763.42</ele>
        <time>2016-06-19T10:45:57Z</time>
      </trkpt>
      <trkpt lat="44.09007" lon="5.41125">
        <ele>763.42</ele>
        <time>2016-06-19T10:45:58Z</time>
      </trkpt>
      <trkpt lat="44.09005" lon="5.41137">
        <ele>762.94</ele>
        <time>2016-06-19T10:45:59Z</time>
      </trkpt>
      <trkpt lat="44.09001" lon="5.41149">
        <ele>761.98</ele>
        <time>2016-06-19T10:46:00Z</time>
      </trkpt>
      <trkpt lat="44.08995" lon="5.41159">
        <ele>761.5</ele>
        <time>2016-06-19T10:46:01Z</time>
      </trkpt>
      <trkpt lat="44.08988" lon="5.41167">
        <ele>760.54</ele>
        <time>2016-06-19T10:46:02Z</time>
      </trkpt>
      <trkpt lat="44.08979" lon="5.41172">
        <ele>759.58</ele>
        <time>2016-06-19T10:46:03Z</time>
      </trkpt>
      <trkpt lat="44.08969" lon="5.41175">
        <ele>759.1</ele>
        <time>2016-06-19T10:46:04Z</time>
      </trkpt>
      <trkpt lat="44.08957" lon="5.41171">
        <ele>758.14</ele>
        <time>2016-06-19T10:46:05Z</time>
      </trkpt>
      <trkpt lat="44.08946" lon="5.41168">
        <ele>757.18</ele>
        <time>2016-06-19T10:46:06Z</time>
      </trkpt>
      <trkpt lat="44.08936" lon="5.41163">
        <ele>757.18</ele>
        <time>2016-06-19T10:46:07Z</time>
      </trkpt>
      <trkpt lat="44.08925" lon="5.41158">
        <ele>756.69</ele>
        <time>2016-06-19T10:46:08Z</time>
      </trkpt>
      <trkpt lat="44.08915" lon="5.41154">
        <ele>756.21</ele>
        <time>2016-06-19T10:46:09Z</time>
      </trkpt>
      <trkpt lat="44.08904" lon="5.41152">
        <ele>755.73</ele>
        <time>2016-06-19T10:46:10Z</time>
      </trkpt>
      <trkpt lat="44.08894" lon="5.41153">
        <ele>755.25</ele>
        <time>2016-06-19T10:46:11Z</time>
      </trkpt>
      <trkpt lat="44.08883" lon="5.4116">
        <ele>754.77</ele>
        <time>2016-06-19T10:46:12Z</time>
      </trkpt>
      <trkpt lat="44.08875" lon="5.41168">
        <ele>753.81</ele>
        <time>2016-06-19T10:46:13Z</time>
      </trkpt>
      <trkpt lat="44.08868" lon="5.4118">
        <ele>752.85</ele>
        <time>2016-06-19T10:46:14Z</time>
      </trkpt>
      <trkpt lat="44.08865" lon="5.41192">
        <ele>751.89</ele>
        <time>2016-06-19T10:46:15Z</time>
      </trkpt>
      <trkpt lat="44.08864" lon="5.41207">
        <ele>750.93</ele>
        <time>2016-06-19T10:46:16Z</time>
      </trkpt>
      <trkpt lat="44.08863" lon="5.41222">
        <ele>749.97</ele>
        <time>2016-06-19T10:46:17Z</time>
      </trkpt>
      <trkpt lat="44.08859" lon="5.41302">
        <ele>747.08</ele>
        <time>2016-06-19T10:46:23Z</time>
      </trkpt>
      <trkpt lat="44.08857" lon="5.41307">
        <ele>746.6</ele>
        <time>2016-06-19T10:46:24Z</time>
      </trkpt>
      <trkpt lat="44.08852" lon="5.41305">
        <ele>746.6</ele>
        <time>2016-06-19T10:46:25Z</time>
      </trkpt>
      <trkpt lat="44.08849" lon="5.41301">
        <ele>745.16</ele>
        <time>2016-06-19T10:46:26Z</time>
      </trkpt>
      <trkpt lat="44.08847" lon="5.41289">
        <ele>744.2</ele>
        <time>2016-06-19T10:46:27Z</time>
      </trkpt>
      <trkpt lat="44.08847" lon="5.41274">
        <ele>743.24</ele>
        <time>2016-06-19T10:46:28Z</time>
      </trkpt>
      <trkpt lat="44.08848" lon="5.41257">
        <ele>742.76</ele>
        <time>2016-06-19T10:46:29Z</time>
      </trkpt>
      <trkpt lat="44.08861" lon="5.41122">
        <ele>737.47</ele>
        <time>2016-06-19T10:46:36Z</time>
      </trkpt>
      <trkpt lat="44.08867" lon="5.41107">
        <ele>736.99</ele>
        <time>2016-06-19T10:46:37Z</time>
      </trkpt>
      <trkpt lat="44.08876" lon="5.41094">
        <ele>736.51</ele>
        <time>2016-06-19T10:46:38Z</time>
      </trkpt>
      <trkpt lat="44.08888" lon="5.41086">
        <ele>736.03</ele>
        <time>2016-06-19T10:46:39Z</time>
      </trkpt>
      <trkpt lat="44.08902" lon="5.4108">
        <ele>735.07</ele>
        <time>2016-06-19T10:46:40Z</time>
      </trkpt>
      <trkpt lat="44.08914" lon="5.41072">
        <ele>734.58</ele>
        <time>2016-06-19T10:46:41Z</time>
      </trkpt>
      <trkpt lat="44.08927" lon="5.41061">
        <ele>733.62</ele>
        <time>2016-06-19T10:46:42Z</time>
      </trkpt>
      <trkpt lat="44.08937" lon="5.41046">
        <ele>732.66</ele>
        <time>2016-06-19T10:46:43Z</time>
      </trkpt>
      <trkpt lat="44.08944" lon="5.41025">
        <ele>731.7</ele>
        <time>2016-06-19T10:46:44Z</time>
      </trkpt>
      <trkpt lat="44.0895" lon="5.41003">
        <ele>730.74</ele>
        <time>2016-06-19T10:46:45Z</time>
      </trkpt>
      <trkpt lat="44.08955" lon="5.40982">
        <ele>729.3</ele>
        <time>2016-06-19T10:46:46Z</time>
      </trkpt>
      <trkpt lat="44.08983" lon="5.40875">
        <ele>724.01</ele>
        <time>2016-06-19T10:46:51Z</time>
      </trkpt>
      <trkpt lat="44.08985" lon="5.40854">
        <ele>722.57</ele>
        <time>2016-06-19T10:46:52Z</time>
      </trkpt>
      <trkpt lat="44.08984" lon="5.40833">
        <ele>722.09</ele>
        <time>2016-06-19T10:46:53Z</time>
      </trkpt>
      <trkpt lat="44.08981" lon="5.40726">
        <ele>716.8</ele>
        <time>2016-06-19T10:47:00Z</time>
      </trkpt>
      <trkpt lat="44.08983" lon="5.40719">
        <ele>716.32</ele>
        <time>2016-06-19T10:47:01Z</time>
      </trkpt>
      <trkpt lat="44.08985" lon="5.40712">
        <ele>716.32</ele>
        <time>2016-06-19T10:47:02Z</time>
      </trkpt>
      <trkpt lat="44.08989" lon="5.40701">
        <ele>715.36</ele>
        <time>2016-06-19T10:47:09Z</time>
      </trkpt>
      <trkpt lat="44.08988" lon="5.40706">
        <ele>718.72</ele>
        <time>2016-06-19T10:48:36Z</time>
      </trkpt>
      <trkpt lat="44.08988" lon="5.40699">
        <ele>719.2</ele>
        <time>2016-06-19T10:48:51Z</time>
      </trkpt>
      <trkpt lat="44.08987" lon="5.40697">
        <ele>719.2</ele>
        <time>2016-06-19T10:48:52Z</time>
      </trkpt>
      <trkpt lat="44.08985" lon="5.40697">
        <ele>718.72</ele>
        <time>2016-06-19T10:48:53Z</time>
      </trkpt>
      <trkpt lat="44.08984" lon="5.40698">
        <ele>718.72</ele>
        <time>2016-06-19T10:48:54Z</time>
      </trkpt>
      <trkpt lat="44.08977" lon="5.40706">
        <ele>717.28</ele>
        <time>2016-06-19T10:49:00Z</time>
      </trkpt>
      <trkpt lat="44.08974" lon="5.40713">
        <ele>717.28</ele>
        <time>2016-06-19T10:49:01Z</time>
      </trkpt>
      <trkpt lat="44.08972" lon="5.40723">
        <ele>717.28</ele>
        <time>2016-06-19T10:49:02Z</time>
      </trkpt>
      <trkpt lat="44.08972" lon="5.40736">
        <ele>718.24</ele>
        <time>2016-06-19T10:49:03Z</time>
      </trkpt>
      <trkpt lat="44.08973" lon="5.40749">
        <ele>718.72</ele>
        <time>2016-06-19T10:49:04Z</time>
      </trkpt>
      <trkpt lat="44.08974" lon="5.40762">
        <ele>718.72</ele>
        <time>2016-06-19T10:49:05Z</time>
      </trkpt>
      <trkpt lat="44.0898" lon="5.40868">
        <ele>722.57</ele>
        <time>2016-06-19T10:49:12Z</time>
      </trkpt>
      <trkpt lat="44.08978" lon="5.40886">
        <ele>723.05</ele>
        <time>2016-06-19T10:49:13Z</time>
      </trkpt>
      <trkpt lat="44.08975" lon="5.40904">
        <ele>724.01</ele>
        <time>2016-06-19T10:49:14Z</time>
      </trkpt>
      <trkpt lat="44.08934" lon="5.41049">
        <ele>730.74</ele>
        <time>2016-06-19T10:49:22Z</time>
      </trkpt>
      <trkpt lat="44.08927" lon="5.41064">
        <ele>731.7</ele>
        <time>2016-06-19T10:49:23Z</time>
      </trkpt>
      <trkpt lat="44.08918" lon="5.41077">
        <ele>732.18</ele>
        <time>2016-06-19T10:49:24Z</time>
      </trkpt>
      <trkpt lat="44.08906" lon="5.41086">
        <ele>732.66</ele>
        <time>2016-06-19T10:49:25Z</time>
      </trkpt>
      <trkpt lat="44.08893" lon="5.41093">
        <ele>733.62</ele>
        <time>2016-06-19T10:49:26Z</time>
      </trkpt>
      <trkpt lat="44.08881" lon="5.41101">
        <ele>734.58</ele>
        <time>2016-06-19T10:49:27Z</time>
      </trkpt>
      <trkpt lat="44.0887" lon="5.41111">
        <ele>735.55</ele>
        <time>2016-06-19T10:49:28Z</time>
      </trkpt>
      <trkpt lat="44.08861" lon="5.41123">
        <ele>736.03</ele>
        <time>2016-06-19T10:49:29Z</time>
      </trkpt>
      <trkpt lat="44.08855" lon="5.41137">
        <ele>736.51</ele>
        <time>2016-06-19T10:49:30Z</time>
      </trkpt>
      <trkpt lat="44.08851" lon="5.41152">
        <ele>737.47</ele>
        <time>2016-06-19T10:49:31Z</time>
      </trkpt>
      <trkpt lat="44.0885" lon="5.41172">
        <ele>737.95</ele>
        <time>2016-06-19T10:49:32Z</time>
      </trkpt>
      <trkpt lat="44.08849" lon="5.41192">
        <ele>738.91</ele>
        <time>2016-06-19T10:49:33Z</time>
      </trkpt>
      <trkpt lat="44.08841" lon="5.413">
        <ele>745.16</ele>
        <time>2016-06-19T10:49:39Z</time>
      </trkpt>
      <trkpt lat="44.08843" lon="5.41312">
        <ele>746.12</ele>
        <time>2016-06-19T10:49:40Z</time>
      </trkpt>
      <trkpt lat="44.08847" lon="5.41319">
        <ele>747.08</ele>
        <time>2016-06-19T10:49:41Z</time>
      </trkpt>
      <trkpt lat="44.08851" lon="5.41318">
        <ele>748.52</ele>
        <time>2016-06-19T10:49:42Z</time>
      </trkpt>
      <trkpt lat="44.08857" lon="5.41316">
        <ele>749.97</ele>
        <time>2016-06-19T10:49:43Z</time>
      </trkpt>
      <trkpt lat="44.0886" lon="5.41307">
        <ele>750.45</ele>
        <time>2016-06-19T10:49:44Z</time>
      </trkpt>
      <trkpt lat="44.08862" lon="5.41294">
        <ele>750.45</ele>
        <time>2016-06-19T10:49:45Z</time>
      </trkpt>
      <trkpt lat="44.08863" lon="5.41279">
        <ele>750.45</ele>
        <time>2016-06-19T10:49:46Z</time>
      </trkpt>
      <trkpt lat="44.08864" lon="5.41263">
        <ele>750.93</ele>
        <time>2016-06-19T10:49:47Z</time>
      </trkpt>
      <trkpt lat="44.08872" lon="5.41184">
        <ele>754.29</ele>
        <time>2016-06-19T10:49:52Z</time>
      </trkpt>
      <trkpt lat="44.08876" lon="5.41171">
        <ele>755.25</ele>
        <time>2016-06-19T10:49:53Z</time>
      </trkpt>
      <trkpt lat="44.08883" lon="5.41159">
        <ele>755.73</ele>
        <time>2016-06-19T10:49:54Z</time>
      </trkpt>
      <trkpt lat="44.08893" lon="5.41152">
        <ele>756.21</ele>
        <time>2016-06-19T10:49:55Z</time>
      </trkpt>
      <trkpt lat="44.08906" lon="5.41152">
        <ele>757.66</ele>
        <time>2016-06-19T10:49:56Z</time>
      </trkpt>
      <trkpt lat="44.0892" lon="5.41152">
        <ele>758.62</ele>
        <time>2016-06-19T10:49:57Z</time>
      </trkpt>
      <trkpt lat="44.08934" lon="5.41155">
        <ele>760.06</ele>
        <time>2016-06-19T10:49:58Z</time>
      </trkpt>
      <trkpt lat="44.08947" lon="5.41161">
        <ele>761.5</ele>
        <time>2016-06-19T10:49:59Z</time>
      </trkpt>
      <trkpt lat="44.0896" lon="5.41166">
        <ele>761.98</ele>
        <time>2016-06-19T10:50:00Z</time>
      </trkpt>
      <trkpt lat="44.08985" lon="5.41166">
        <ele>762.46</ele>
        <time>2016-06-19T10:50:02Z</time>
      </trkpt>
      <trkpt lat="44.08996" lon="5.41161">
        <ele>762.46</ele>
        <time>2016-06-19T10:50:03Z</time>
      </trkpt>
      <trkpt lat="44.09006" lon="5.41151">
        <ele>762.94</ele>
        <time>2016-06-19T10:50:04Z</time>
      </trkpt>
      <trkpt lat="44.09012" lon="5.41137">
        <ele>763.9</ele>
        <time>2016-06-19T10:50:05Z</time>
      </trkpt>
      <trkpt lat="44.09014" lon="5.41122">
        <ele>764.39</ele>
        <time>2016-06-19T10:50:06Z</time>
      </trkpt>
      <trkpt lat="44.09016" lon="5.41108">
        <ele>764.39</ele>
        <time>2016-06-19T10:50:07Z</time>
      </trkpt>
      <trkpt lat="44.09022" lon="5.41083">
        <ele>764.39</ele>
        <time>2016-06-19T10:50:09Z</time>
      </trkpt>
      <trkpt lat="44.09028" lon="5.41072">
        <ele>764.87</ele>
        <time>2016-06-19T10:50:10Z</time>
      </trkpt>
      <trkpt lat="44.09034" lon="5.41061">
        <ele>764.87</ele>
        <time>2016-06-19T10:50:11Z</time>
      </trkpt>
      <trkpt lat="44.09043" lon="5.41051">
        <ele>764.87</ele>
        <time>2016-06-19T10:50:12Z</time>
      </trkpt>
      <trkpt lat="44.09051" lon="5.41042">
        <ele>765.83</ele>
        <time>2016-06-19T10:50:13Z</time>
      </trkpt>
      <trkpt lat="44.09124" lon="5.40975">
        <ele>769.19</ele>
        <time>2016-06-19T10:50:22Z</time>
      </trkpt>
      <trkpt lat="44.09156" lon="5.40949">
        <ele>770.15</ele>
        <time>2016-06-19T10:50:26Z</time>
      </trkpt>
      <trkpt lat="44.09165" lon="5.40946">
        <ele>771.6</ele>
        <time>2016-06-19T10:50:27Z</time>
      </trkpt>
      <trkpt lat="44.09184" lon="5.40946">
        <ele>773.04</ele>
        <time>2016-06-19T10:50:30Z</time>
      </trkpt>
      <trkpt lat="44.09189" lon="5.40948">
        <ele>773.52</ele>
        <time>2016-06-19T10:50:31Z</time>
      </trkpt>
      <trkpt lat="44.09193" lon="5.40954">
        <ele>773.04</ele>
        <time>2016-06-19T10:50:32Z</time>
      </trkpt>
      <trkpt lat="44.09198" lon="5.40962">
        <ele>773.52</ele>
        <time>2016-06-19T10:50:33Z</time>
      </trkpt>
      <trkpt lat="44.09202" lon="5.40971">
        <ele>774</ele>
        <time>2016-06-19T10:50:34Z</time>
      </trkpt>
      <trkpt lat="44.09242" lon="5.41039">
        <ele>776.4</ele>
        <time>2016-06-19T10:50:42Z</time>
      </trkpt>
      <trkpt lat="44.09247" lon="5.41047">
        <ele>776.4</ele>
        <time>2016-06-19T10:50:43Z</time>
      </trkpt>
      <trkpt lat="44.09318" lon="5.41161">
        <ele>780.73</ele>
        <time>2016-06-19T10:50:56Z</time>
      </trkpt>
      <trkpt lat="44.09342" lon="5.41199">
        <ele>783.13</ele>
        <time>2016-06-19T10:51:00Z</time>
      </trkpt>
      <trkpt lat="44.0935" lon="5.41199">
        <ele>783.61</ele>
        <time>2016-06-19T10:51:01Z</time>
      </trkpt>
      <trkpt lat="44.09358" lon="5.4119">
        <ele>783.61</ele>
        <time>2016-06-19T10:51:02Z</time>
      </trkpt>
      <trkpt lat="44.09367" lon="5.41183">
        <ele>783.61</ele>
        <time>2016-06-19T10:51:03Z</time>
      </trkpt>
      <trkpt lat="44.09375" lon="5.41171">
        <ele>784.09</ele>
        <time>2016-06-19T10:51:04Z</time>
      </trkpt>
      <trkpt lat="44.09382" lon="5.41156">
        <ele>785.05</ele>
        <time>2016-06-19T10:51:05Z</time>
      </trkpt>
      <trkpt lat="44.09387" lon="5.41142">
        <ele>786.02</ele>
        <time>2016-06-19T10:51:06Z</time>
      </trkpt>
      <trkpt lat="44.09422" lon="5.41056">
        <ele>790.34</ele>
        <time>2016-06-19T10:51:12Z</time>
      </trkpt>
      <trkpt lat="44.09431" lon="5.41046">
        <ele>791.78</ele>
        <time>2016-06-19T10:51:13Z</time>
      </trkpt>
      <trkpt lat="44.09442" lon="5.4104">
        <ele>791.78</ele>
        <time>2016-06-19T10:51:14Z</time>
      </trkpt>
      <trkpt lat="44.09455" lon="5.41043">
        <ele>791.78</ele>
        <time>2016-06-19T10:51:15Z</time>
      </trkpt>
      <trkpt lat="44.09468" lon="5.41043">
        <ele>792.26</ele>
        <time>2016-06-19T10:51:16Z</time>
      </trkpt>
      <trkpt lat="44.09481" lon="5.41044">
        <ele>794.19</ele>
        <time>2016-06-19T10:51:17Z</time>
      </trkpt>
      <trkpt lat="44.09495" lon="5.41052">
        <ele>795.63</ele>
        <time>2016-06-19T10:51:18Z</time>
      </trkpt>
      <trkpt lat="44.09507" lon="5.41065">
        <ele>796.11</ele>
        <time>2016-06-19T10:51:19Z</time>
      </trkpt>
      <trkpt lat="44.09517" lon="5.41079">
        <ele>796.59</ele>
        <time>2016-06-19T10:51:20Z</time>
      </trkpt>
      <trkpt lat="44.09524" lon="5.41096">
        <ele>797.55</ele>
        <time>2016-06-19T10:51:21Z</time>
      </trkpt>
      <trkpt lat="44.09529" lon="5.41113">
        <ele>798.03</ele>
        <time>2016-06-19T10:51:22Z</time>
      </trkpt>
      <trkpt lat="44.09533" lon="5.41132">
        <ele>798.99</ele>
        <time>2016-06-19T10:51:23Z</time>
      </trkpt>
      <trkpt lat="44.09537" lon="5.4115">
        <ele>799.95</ele>
        <time>2016-06-19T10:51:24Z</time>
      </trkpt>
      <trkpt lat="44.09557" lon="5.41215">
        <ele>801.4</ele>
        <time>2016-06-19T10:51:28Z</time>
      </trkpt>
      <trkpt lat="44.09565" lon="5.4123">
        <ele>800.92</ele>
        <time>2016-06-19T10:51:29Z</time>
      </trkpt>
      <trkpt lat="44.09573" lon="5.41244">
        <ele>800.92</ele>
        <time>2016-06-19T10:51:30Z</time>
      </trkpt>
      <trkpt lat="44.09621" lon="5.41318">
        <ele>801.4</ele>
        <time>2016-06-19T10:51:36Z</time>
      </trkpt>
      <trkpt lat="44.09624" lon="5.41331">
        <ele>801.4</ele>
        <time>2016-06-19T10:51:37Z</time>
      </trkpt>
      <trkpt lat="44.09627" lon="5.41343">
        <ele>801.4</ele>
        <time>2016-06-19T10:51:38Z</time>
      </trkpt>
      <trkpt lat="44.09631" lon="5.41351">
        <ele>801.4</ele>
        <time>2016-06-19T10:51:39Z</time>
      </trkpt>
      <trkpt lat="44.09639" lon="5.41353">
        <ele>801.88</ele>
        <time>2016-06-19T10:51:40Z</time>
      </trkpt>
      <trkpt lat="44.09646" lon="5.41349">
        <ele>801.88</ele>
        <time>2016-06-19T10:51:41Z</time>
      </trkpt>
      <trkpt lat="44.09651" lon="5.4134">
        <ele>801.4</ele>
        <time>2016-06-19T10:51:42Z</time>
      </trkpt>
      <trkpt lat="44.09656" lon="5.4133">
        <ele>801.4</ele>
        <time>2016-06-19T10:51:43Z</time>
      </trkpt>
      <trkpt lat="44.09661" lon="5.41321">
        <ele>801.4</ele>
        <time>2016-06-19T10:51:44Z</time>
      </trkpt>
      <trkpt lat="44.09664" lon="5.41311">
        <ele>801.4</ele>
        <time>2016-06-19T10:51:45Z</time>
      </trkpt>
      <trkpt lat="44.09664" lon="5.41301">
        <ele>801.4</ele>
        <time>2016-06-19T10:51:46Z</time>
      </trkpt>
      <trkpt lat="44.09663" lon="5.41292">
        <ele>800.92</ele>
        <time>2016-06-19T10:51:47Z</time>
      </trkpt>
      <trkpt lat="44.0966" lon="5.41284">
        <ele>800.92</ele>
        <time>2016-06-19T10:51:48Z</time>
      </trkpt>
      <trkpt lat="44.09655" lon="5.41281">
        <ele>800.92</ele>
        <time>2016-06-19T10:51:49Z</time>
      </trkpt>
      <trkpt lat="44.0965" lon="5.41281">
        <ele>800.44</ele>
        <time>2016-06-19T10:51:50Z</time>
      </trkpt>
      <trkpt lat="44.09646" lon="5.41284">
        <ele>800.44</ele>
        <time>2016-06-19T10:51:51Z</time>
      </trkpt>
      <trkpt lat="44.09643" lon="5.41286">
        <ele>800.44</ele>
        <time>2016-06-19T10:51:52Z</time>
      </trkpt>
      <trkpt lat="44.09641" lon="5.41288">
        <ele>799.95</ele>
        <time>2016-06-19T10:51:53Z</time>
      </trkpt>
      <trkpt lat="44.09638" lon="5.4129">
        <ele>801.88</ele>
        <time>2016-06-19T10:52:04Z</time>
      </trkpt>
      <trkpt lat="44.09633" lon="5.41288">
        <ele>776.88</ele>
        <time>2016-06-19T10:52:35Z</time>
      </trkpt>
      <trkpt lat="44.09634" lon="5.41291">
        <ele>778.32</ele>
        <time>2016-06-19T10:54:16Z</time>
      </trkpt>
      <trkpt lat="44.09628" lon="5.41293">
        <ele>783.13</ele>
        <time>2016-06-19T10:54:19Z</time>
      </trkpt>
      <trkpt lat="44.09626" lon="5.41291">
        <ele>785.05</ele>
        <time>2016-06-19T10:54:20Z</time>
      </trkpt>
      <trkpt lat="44.09626" lon="5.41287">
        <ele>786.02</ele>
        <time>2016-06-19T10:54:21Z</time>
      </trkpt>
      <trkpt lat="44.09627" lon="5.41284">
        <ele>787.46</ele>
        <time>2016-06-19T10:54:22Z</time>
      </trkpt>
      <trkpt lat="44.09629" lon="5.41282">
        <ele>788.9</ele>
        <time>2016-06-19T10:54:23Z</time>
      </trkpt>
      <trkpt lat="44.09631" lon="5.41281">
        <ele>789.86</ele>
        <time>2016-06-19T10:54:24Z</time>
      </trkpt>
      <trkpt lat="44.09634" lon="5.41279">
        <ele>790.82</ele>
        <time>2016-06-19T10:54:25Z</time>
      </trkpt>
      <trkpt lat="44.09636" lon="5.41277">
        <ele>791.3</ele>
        <time>2016-06-19T10:54:26Z</time>
      </trkpt>
      <trkpt lat="44.09645" lon="5.41271">
        <ele>795.63</ele>
        <time>2016-06-19T10:54:37Z</time>
      </trkpt>
      <trkpt lat="44.09646" lon="5.41269">
        <ele>804.28</ele>
        <time>2016-06-19T10:55:51Z</time>
      </trkpt>
      <trkpt lat="44.09645" lon="5.4127">
        <ele>806.2</ele>
        <time>2016-06-19T10:57:55Z</time>
      </trkpt>
      <trkpt lat="44.09645" lon="5.41271">
        <ele>800.92</ele>
        <time>2016-06-19T11:01:50Z</time>
      </trkpt>
      <trkpt lat="44.09647" lon="5.41271">
        <ele>800.92</ele>
        <time>2016-06-19T11:09:53Z</time>
      </trkpt>
      <trkpt lat="44.09653" lon="5.41271">
        <ele>801.4</ele>
        <time>2016-06-19T11:12:53Z</time>
      </trkpt>
      <trkpt lat="44.09656" lon="5.41274">
        <ele>801.4</ele>
        <time>2016-06-19T11:12:54Z</time>
      </trkpt>
      <trkpt lat="44.09657" lon="5.41279">
        <ele>801.4</ele>
        <time>2016-06-19T11:12:55Z</time>
      </trkpt>
      <trkpt lat="44.09657" lon="5.41285">
        <ele>801.4</ele>
        <time>2016-06-19T11:12:56Z</time>
      </trkpt>
      <trkpt lat="44.09656" lon="5.4129">
        <ele>800.92</ele>
        <time>2016-06-19T11:12:57Z</time>
      </trkpt>
      <trkpt lat="44.09657" lon="5.41304">
        <ele>801.4</ele>
        <time>2016-06-19T11:13:05Z</time>
      </trkpt>
      <trkpt lat="44.09656" lon="5.41313">
        <ele>802.36</ele>
        <time>2016-06-19T11:15:09Z</time>
      </trkpt>
      <trkpt lat="44.09654" lon="5.41316">
        <ele>802.36</ele>
        <time>2016-06-19T11:15:10Z</time>
      </trkpt>
      <trkpt lat="44.09651" lon="5.41317">
        <ele>801.88</ele>
        <time>2016-06-19T11:15:11Z</time>
      </trkpt>
      <trkpt lat="44.09646" lon="5.41316">
        <ele>801.88</ele>
        <time>2016-06-19T11:15:12Z</time>
      </trkpt>
      <trkpt lat="44.09641" lon="5.41315">
        <ele>801.88</ele>
        <time>2016-06-19T11:15:13Z</time>
      </trkpt>
      <trkpt lat="44.09628" lon="5.41311">
        <ele>801.88</ele>
        <time>2016-06-19T11:15:15Z</time>
      </trkpt>
      <trkpt lat="44.09621" lon="5.41307">
        <ele>801.4</ele>
        <time>2016-06-19T11:15:16Z</time>
      </trkpt>
      <trkpt lat="44.09614" lon="5.413">
        <ele>801.4</ele>
        <time>2016-06-19T11:15:17Z</time>
      </trkpt>
      <trkpt lat="44.09607" lon="5.4129">
        <ele>801.4</ele>
        <time>2016-06-19T11:15:18Z</time>
      </trkpt>
      <trkpt lat="44.09599" lon="5.41279">
        <ele>800.92</ele>
        <time>2016-06-19T11:15:19Z</time>
      </trkpt>
      <trkpt lat="44.09549" lon="5.41193">
        <ele>799.95</ele>
        <time>2016-06-19T11:15:26Z</time>
      </trkpt>
      <trkpt lat="44.09545" lon="5.41178">
        <ele>799.95</ele>
        <time>2016-06-19T11:15:27Z</time>
      </trkpt>
      <trkpt lat="44.09541" lon="5.41161">
        <ele>799.47</ele>
        <time>2016-06-19T11:15:28Z</time>
      </trkpt>
      <trkpt lat="44.09527" lon="5.41095">
        <ele>798.03</ele>
        <time>2016-06-19T11:15:32Z</time>
      </trkpt>
      <trkpt lat="44.09521" lon="5.4108">
        <ele>797.55</ele>
        <time>2016-06-19T11:15:33Z</time>
      </trkpt>
      <trkpt lat="44.09514" lon="5.41067">
        <ele>796.59</ele>
        <time>2016-06-19T11:15:34Z</time>
      </trkpt>
      <trkpt lat="44.09505" lon="5.41055">
        <ele>796.11</ele>
        <time>2016-06-19T11:15:35Z</time>
      </trkpt>
      <trkpt lat="44.09494" lon="5.41047">
        <ele>795.15</ele>
        <time>2016-06-19T11:15:36Z</time>
      </trkpt>
      <trkpt lat="44.09481" lon="5.4104">
        <ele>794.67</ele>
        <time>2016-06-19T11:15:37Z</time>
      </trkpt>
      <trkpt lat="44.09468" lon="5.41037">
        <ele>795.15</ele>
        <time>2016-06-19T11:15:38Z</time>
      </trkpt>
      <trkpt lat="44.09455" lon="5.41036">
        <ele>794.19</ele>
        <time>2016-06-19T11:15:39Z</time>
      </trkpt>
      <trkpt lat="44.09442" lon="5.41037">
        <ele>793.22</ele>
        <time>2016-06-19T11:15:40Z</time>
      </trkpt>
      <trkpt lat="44.09431" lon="5.41043">
        <ele>792.26</ele>
        <time>2016-06-19T11:15:41Z</time>
      </trkpt>
      <trkpt lat="44.09419" lon="5.41056">
        <ele>791.78</ele>
        <time>2016-06-19T11:15:42Z</time>
      </trkpt>
      <trkpt lat="44.09411" lon="5.41071">
        <ele>791.3</ele>
        <time>2016-06-19T11:15:43Z</time>
      </trkpt>
      <trkpt lat="44.09404" lon="5.41087">
        <ele>790.82</ele>
        <time>2016-06-19T11:15:44Z</time>
      </trkpt>
      <trkpt lat="44.09398" lon="5.41105">
        <ele>789.86</ele>
        <time>2016-06-19T11:15:45Z</time>
      </trkpt>
      <trkpt lat="44.09392" lon="5.41123">
        <ele>788.9</ele>
        <time>2016-06-19T11:15:46Z</time>
      </trkpt>
      <trkpt lat="44.09359" lon="5.41198">
        <ele>784.57</ele>
        <time>2016-06-19T11:15:51Z</time>
      </trkpt>
      <trkpt lat="44.09348" lon="5.41199">
        <ele>783.61</ele>
        <time>2016-06-19T11:15:52Z</time>
      </trkpt>
      <trkpt lat="44.09336" lon="5.41195">
        <ele>782.65</ele>
        <time>2016-06-19T11:15:53Z</time>
      </trkpt>
      <trkpt lat="44.09323" lon="5.41187">
        <ele>780.25</ele>
        <time>2016-06-19T11:15:54Z</time>
      </trkpt>
      <trkpt lat="44.09314" lon="5.41175">
        <ele>779.77</ele>
        <time>2016-06-19T11:15:55Z</time>
      </trkpt>
      <trkpt lat="44.09308" lon="5.4116">
        <ele>778.81</ele>
        <time>2016-06-19T11:15:56Z</time>
      </trkpt>
      <trkpt lat="44.093" lon="5.41146">
        <ele>777.84</ele>
        <time>2016-06-19T11:15:57Z</time>
      </trkpt>
      <trkpt lat="44.09295" lon="5.41131">
        <ele>778.32</ele>
        <time>2016-06-19T11:15:58Z</time>
      </trkpt>
      <trkpt lat="44.09224" lon="5.41013">
        <ele>772.56</ele>
        <time>2016-06-19T11:16:09Z</time>
      </trkpt>
      <trkpt lat="44.09183" lon="5.40945">
        <ele>774.48</ele>
        <time>2016-06-19T11:16:18Z</time>
      </trkpt>
      <trkpt lat="44.09179" lon="5.40942">
        <ele>774</ele>
        <time>2016-06-19T11:16:27Z</time>
      </trkpt>
      <trkpt lat="44.09173" lon="5.40943">
        <ele>774.96</ele>
        <time>2016-06-19T11:16:29Z</time>
      </trkpt>
      <trkpt lat="44.09169" lon="5.40944">
        <ele>775.44</ele>
        <time>2016-06-19T11:16:30Z</time>
      </trkpt>
      <trkpt lat="44.09162" lon="5.40946">
        <ele>773.52</ele>
        <time>2016-06-19T11:16:31Z</time>
      </trkpt>
      <trkpt lat="44.09153" lon="5.40952">
        <ele>772.08</ele>
        <time>2016-06-19T11:16:32Z</time>
      </trkpt>
      <trkpt lat="44.09143" lon="5.4096">
        <ele>770.63</ele>
        <time>2016-06-19T11:16:33Z</time>
      </trkpt>
      <trkpt lat="44.09133" lon="5.40967">
        <ele>769.19</ele>
        <time>2016-06-19T11:16:34Z</time>
      </trkpt>
      <trkpt lat="44.09124" lon="5.40975">
        <ele>768.23</ele>
        <time>2016-06-19T11:16:35Z</time>
      </trkpt>
      <trkpt lat="44.09027" lon="5.41064">
        <ele>762.94</ele>
        <time>2016-06-19T11:16:45Z</time>
      </trkpt>
      <trkpt lat="44.09019" lon="5.41076">
        <ele>762.46</ele>
        <time>2016-06-19T11:16:46Z</time>
      </trkpt>
      <trkpt lat="44.09013" lon="5.41088">
        <ele>761.98</ele>
        <time>2016-06-19T11:16:47Z</time>
      </trkpt>
      <trkpt lat="44.09008" lon="5.41101">
        <ele>761.02</ele>
        <time>2016-06-19T11:16:48Z</time>
      </trkpt>
      <trkpt lat="44.09004" lon="5.41114">
        <ele>760.54</ele>
        <time>2016-06-19T11:16:49Z</time>
      </trkpt>
      <trkpt lat="44.09002" lon="5.41127">
        <ele>759.58</ele>
        <time>2016-06-19T11:16:50Z</time>
      </trkpt>
      <trkpt lat="44.08999" lon="5.41141">
        <ele>758.62</ele>
        <time>2016-06-19T11:16:51Z</time>
      </trkpt>
      <trkpt lat="44.08993" lon="5.41155">
        <ele>758.62</ele>
        <time>2016-06-19T11:16:52Z</time>
      </trkpt>
      <trkpt lat="44.08985" lon="5.41167">
        <ele>758.14</ele>
        <time>2016-06-19T11:16:53Z</time>
      </trkpt>
      <trkpt lat="44.08974" lon="5.41171">
        <ele>757.66</ele>
        <time>2016-06-19T11:16:54Z</time>
      </trkpt>
      <trkpt lat="44.08959" lon="5.41174">
        <ele>757.18</ele>
        <time>2016-06-19T11:16:55Z</time>
      </trkpt>
      <trkpt lat="44.08946" lon="5.41175">
        <ele>756.69</ele>
        <time>2016-06-19T11:16:56Z</time>
      </trkpt>
      <trkpt lat="44.08933" lon="5.4117">
        <ele>757.66</ele>
        <time>2016-06-19T11:16:57Z</time>
      </trkpt>
      <trkpt lat="44.08921" lon="5.41162">
        <ele>757.66</ele>
        <time>2016-06-19T11:16:58Z</time>
      </trkpt>
      <trkpt lat="44.08908" lon="5.41158">
        <ele>757.18</ele>
        <time>2016-06-19T11:16:59Z</time>
      </trkpt>
      <trkpt lat="44.08885" lon="5.41156">
        <ele>755.73</ele>
        <time>2016-06-19T11:17:01Z</time>
      </trkpt>
      <trkpt lat="44.08876" lon="5.41169">
        <ele>753.81</ele>
        <time>2016-06-19T11:17:02Z</time>
      </trkpt>
      <trkpt lat="44.08869" lon="5.41184">
        <ele>752.85</ele>
        <time>2016-06-19T11:17:03Z</time>
      </trkpt>
      <trkpt lat="44.08865" lon="5.412">
        <ele>751.41</ele>
        <time>2016-06-19T11:17:04Z</time>
      </trkpt>
      <trkpt lat="44.08864" lon="5.4122">
        <ele>749.97</ele>
        <time>2016-06-19T11:17:05Z</time>
      </trkpt>
      <trkpt lat="44.08863" lon="5.41239">
        <ele>749</ele>
        <time>2016-06-19T11:17:06Z</time>
      </trkpt>
      <trkpt lat="44.08859" lon="5.41307">
        <ele>746.12</ele>
        <time>2016-06-19T11:17:11Z</time>
      </trkpt>
      <trkpt lat="44.08855" lon="5.4131">
        <ele>746.12</ele>
        <time>2016-06-19T11:17:12Z</time>
      </trkpt>
      <trkpt lat="44.0885" lon="5.41304">
        <ele>744.2</ele>
        <time>2016-06-19T11:17:13Z</time>
      </trkpt>
      <trkpt lat="44.08846" lon="5.41294">
        <ele>742.76</ele>
        <time>2016-06-19T11:17:14Z</time>
      </trkpt>
      <trkpt lat="44.08847" lon="5.41279">
        <ele>742.76</ele>
        <time>2016-06-19T11:17:15Z</time>
      </trkpt>
      <trkpt lat="44.08848" lon="5.41263">
        <ele>742.28</ele>
        <time>2016-06-19T11:17:16Z</time>
      </trkpt>
      <trkpt lat="44.08849" lon="5.41245">
        <ele>741.31</ele>
        <time>2016-06-19T11:17:17Z</time>
      </trkpt>
      <trkpt lat="44.08859" lon="5.41131">
        <ele>736.51</ele>
        <time>2016-06-19T11:17:23Z</time>
      </trkpt>
      <trkpt lat="44.08863" lon="5.41116">
        <ele>736.03</ele>
        <time>2016-06-19T11:17:24Z</time>
      </trkpt>
      <trkpt lat="44.08871" lon="5.41103">
        <ele>735.07</ele>
        <time>2016-06-19T11:17:25Z</time>
      </trkpt>
      <trkpt lat="44.08882" lon="5.41094">
        <ele>734.1</ele>
        <time>2016-06-19T11:17:26Z</time>
      </trkpt>
      <trkpt lat="44.08894" lon="5.41086">
        <ele>733.62</ele>
        <time>2016-06-19T11:17:27Z</time>
      </trkpt>
      <trkpt lat="44.08907" lon="5.4108">
        <ele>732.66</ele>
        <time>2016-06-19T11:17:28Z</time>
      </trkpt>
      <trkpt lat="44.08919" lon="5.41072">
        <ele>732.18</ele>
        <time>2016-06-19T11:17:29Z</time>
      </trkpt>
      <trkpt lat="44.0893" lon="5.4106">
        <ele>730.74</ele>
        <time>2016-06-19T11:17:30Z</time>
      </trkpt>
      <trkpt lat="44.08938" lon="5.41043">
        <ele>730.26</ele>
        <time>2016-06-19T11:17:31Z</time>
      </trkpt>
      <trkpt lat="44.08944" lon="5.41024">
        <ele>729.3</ele>
        <time>2016-06-19T11:17:32Z</time>
      </trkpt>
      <trkpt lat="44.0895" lon="5.41005">
        <ele>727.86</ele>
        <time>2016-06-19T11:17:33Z</time>
      </trkpt>
      <trkpt lat="44.08955" lon="5.40984">
        <ele>726.89</ele>
        <time>2016-06-19T11:17:34Z</time>
      </trkpt>
      <trkpt lat="44.08983" lon="5.40881">
        <ele>721.61</ele>
        <time>2016-06-19T11:17:39Z</time>
      </trkpt>
      <trkpt lat="44.08985" lon="5.40859">
        <ele>720.65</ele>
        <time>2016-06-19T11:17:40Z</time>
      </trkpt>
      <trkpt lat="44.08985" lon="5.40838">
        <ele>719.68</ele>
        <time>2016-06-19T11:17:41Z</time>
      </trkpt>
      <trkpt lat="44.08981" lon="5.4071">
        <ele>713.92</ele>
        <time>2016-06-19T11:17:47Z</time>
      </trkpt>
      <trkpt lat="44.08984" lon="5.40691">
        <ele>712.95</ele>
        <time>2016-06-19T11:17:48Z</time>
      </trkpt>
      <trkpt lat="44.0899" lon="5.40673">
        <ele>711.99</ele>
        <time>2016-06-19T11:17:49Z</time>
      </trkpt>
      <trkpt lat="44.08998" lon="5.40657">
        <ele>711.03</ele>
        <time>2016-06-19T11:17:50Z</time>
      </trkpt>
      <trkpt lat="44.0901" lon="5.40644">
        <ele>709.59</ele>
        <time>2016-06-19T11:17:51Z</time>
      </trkpt>
      <trkpt lat="44.09022" lon="5.40633">
        <ele>708.63</ele>
        <time>2016-06-19T11:17:52Z</time>
      </trkpt>
      <trkpt lat="44.09035" lon="5.40622">
        <ele>707.67</ele>
        <time>2016-06-19T11:17:53Z</time>
      </trkpt>
      <trkpt lat="44.09056" lon="5.40597">
        <ele>705.75</ele>
        <time>2016-06-19T11:17:55Z</time>
      </trkpt>
      <trkpt lat="44.09064" lon="5.4058">
        <ele>704.78</ele>
        <time>2016-06-19T11:17:56Z</time>
      </trkpt>
      <trkpt lat="44.09071" lon="5.4056">
        <ele>703.82</ele>
        <time>2016-06-19T11:17:57Z</time>
      </trkpt>
      <trkpt lat="44.09076" lon="5.40538">
        <ele>702.86</ele>
        <time>2016-06-19T11:17:58Z</time>
      </trkpt>
      <trkpt lat="44.09081" lon="5.40515">
        <ele>701.9</ele>
        <time>2016-06-19T11:17:59Z</time>
      </trkpt>
      <trkpt lat="44.0914" lon="5.40353">
        <ele>697.09</ele>
        <time>2016-06-19T11:18:06Z</time>
      </trkpt>
      <trkpt lat="44.09263" lon="5.40075">
        <ele>693.25</ele>
        <time>2016-06-19T11:18:19Z</time>
      </trkpt>
      <trkpt lat="44.09318" lon="5.3995">
        <ele>689.88</ele>
        <time>2016-06-19T11:18:26Z</time>
      </trkpt>
      <trkpt lat="44.09326" lon="5.39939">
        <ele>689.88</ele>
        <time>2016-06-19T11:18:27Z</time>
      </trkpt>
      <trkpt lat="44.09336" lon="5.3993">
        <ele>689.88</ele>
        <time>2016-06-19T11:18:28Z</time>
      </trkpt>
      <trkpt lat="44.09347" lon="5.39921">
        <ele>689.4</ele>
        <time>2016-06-19T11:18:29Z</time>
      </trkpt>
      <trkpt lat="44.09358" lon="5.39913">
        <ele>688.92</ele>
        <time>2016-06-19T11:18:30Z</time>
      </trkpt>
      <trkpt lat="44.09365" lon="5.39897">
        <ele>688.44</ele>
        <time>2016-06-19T11:18:31Z</time>
      </trkpt>
      <trkpt lat="44.09369" lon="5.39877">
        <ele>688.44</ele>
        <time>2016-06-19T11:18:32Z</time>
      </trkpt>
      <trkpt lat="44.09371" lon="5.39855">
        <ele>687.96</ele>
        <time>2016-06-19T11:18:33Z</time>
      </trkpt>
      <trkpt lat="44.09373" lon="5.39832">
        <ele>687.96</ele>
        <time>2016-06-19T11:18:34Z</time>
      </trkpt>
      <trkpt lat="44.09383" lon="5.39566">
        <ele>687</ele>
        <time>2016-06-19T11:18:46Z</time>
      </trkpt>
      <trkpt lat="44.09376" lon="5.3933">
        <ele>683.63</ele>
        <time>2016-06-19T11:18:54Z</time>
      </trkpt>
      <trkpt lat="44.09351" lon="5.39019">
        <ele>682.67</ele>
        <time>2016-06-19T11:19:03Z</time>
      </trkpt>
      <trkpt lat="44.0932" lon="5.38653">
        <ele>682.67</ele>
        <time>2016-06-19T11:19:14Z</time>
      </trkpt>
      <trkpt lat="44.09311" lon="5.38581">
        <ele>683.15</ele>
        <time>2016-06-19T11:19:19Z</time>
      </trkpt>
      <trkpt lat="44.09307" lon="5.38569">
        <ele>683.15</ele>
        <time>2016-06-19T11:19:25Z</time>
      </trkpt>
      <trkpt lat="44.09303" lon="5.38569">
        <ele>683.15</ele>
        <time>2016-06-19T11:19:26Z</time>
      </trkpt>
      <trkpt lat="44.09291" lon="5.38569">
        <ele>683.15</ele>
        <time>2016-06-19T11:19:28Z</time>
      </trkpt>
      <trkpt lat="44.09284" lon="5.38562">
        <ele>683.15</ele>
        <time>2016-06-19T11:19:29Z</time>
      </trkpt>
      <trkpt lat="44.09276" lon="5.38553">
        <ele>682.67</ele>
        <time>2016-06-19T11:19:30Z</time>
      </trkpt>
      <trkpt lat="44.09269" lon="5.3854">
        <ele>682.19</ele>
        <time>2016-06-19T11:19:31Z</time>
      </trkpt>
      <trkpt lat="44.0926" lon="5.38524">
        <ele>681.71</ele>
        <time>2016-06-19T11:19:32Z</time>
      </trkpt>
      <trkpt lat="44.09192" lon="5.38395">
        <ele>677.87</ele>
        <time>2016-06-19T11:19:38Z</time>
      </trkpt>
      <trkpt lat="44.09134" lon="5.38292">
        <ele>675.94</ele>
        <time>2016-06-19T11:19:42Z</time>
      </trkpt>
      <trkpt lat="44.09115" lon="5.38269">
        <ele>675.46</ele>
        <time>2016-06-19T11:19:43Z</time>
      </trkpt>
      <trkpt lat="44.08936" lon="5.38079">
        <ele>673.06</ele>
        <time>2016-06-19T11:19:52Z</time>
      </trkpt>
      <trkpt lat="44.08912" lon="5.38066">
        <ele>673.06</ele>
        <time>2016-06-19T11:19:53Z</time>
      </trkpt>
      <trkpt lat="44.08888" lon="5.38054">
        <ele>673.06</ele>
        <time>2016-06-19T11:19:54Z</time>
      </trkpt>
      <trkpt lat="44.08719" lon="5.37952">
        <ele>672.58</ele>
        <time>2016-06-19T11:20:01Z</time>
      </trkpt>
      <trkpt lat="44.08591" lon="5.37851">
        <ele>672.58</ele>
        <time>2016-06-19T11:20:07Z</time>
      </trkpt>
      <trkpt lat="44.08503" lon="5.37758">
        <ele>672.1</ele>
        <time>2016-06-19T11:20:12Z</time>
      </trkpt>
      <trkpt lat="44.08483" lon="5.37746">
        <ele>672.1</ele>
        <time>2016-06-19T11:20:13Z</time>
      </trkpt>
      <trkpt lat="44.0835" lon="5.37644">
        <ele>669.7</ele>
        <time>2016-06-19T11:20:19Z</time>
      </trkpt>
      <trkpt lat="44.08191" lon="5.37475">
        <ele>665.37</ele>
        <time>2016-06-19T11:20:27Z</time>
      </trkpt>
      <trkpt lat="44.08173" lon="5.37454">
        <ele>664.89</ele>
        <time>2016-06-19T11:20:28Z</time>
      </trkpt>
      <trkpt lat="44.08096" lon="5.37383">
        <ele>661.52</ele>
        <time>2016-06-19T11:20:32Z</time>
      </trkpt>
      <trkpt lat="44.08075" lon="5.37374">
        <ele>661.04</ele>
        <time>2016-06-19T11:20:33Z</time>
      </trkpt>
      <trkpt lat="44.07893" lon="5.37291">
        <ele>658.16</ele>
        <time>2016-06-19T11:20:41Z</time>
      </trkpt>
      <trkpt lat="44.07697" lon="5.3716">
        <ele>653.35</ele>
        <time>2016-06-19T11:20:51Z</time>
      </trkpt>
      <trkpt lat="44.07566" lon="5.37075">
        <ele>649.51</ele>
        <time>2016-06-19T11:20:57Z</time>
      </trkpt>
      <trkpt lat="44.07545" lon="5.37058">
        <ele>648.55</ele>
        <time>2016-06-19T11:20:58Z</time>
      </trkpt>
      <trkpt lat="44.07527" lon="5.37036">
        <ele>648.07</ele>
        <time>2016-06-19T11:20:59Z</time>
      </trkpt>
      <trkpt lat="44.07509" lon="5.37011">
        <ele>647.59</ele>
        <time>2016-06-19T11:21:00Z</time>
      </trkpt>
      <trkpt lat="44.07494" lon="5.36983">
        <ele>647.1</ele>
        <time>2016-06-19T11:21:01Z</time>
      </trkpt>
      <trkpt lat="44.07481" lon="5.36956">
        <ele>646.62</ele>
        <time>2016-06-19T11:21:02Z</time>
      </trkpt>
      <trkpt lat="44.07353" lon="5.3676">
        <ele>644.7</ele>
        <time>2016-06-19T11:21:10Z</time>
      </trkpt>
      <trkpt lat="44.07159" lon="5.36529">
        <ele>641.34</ele>
        <time>2016-06-19T11:21:21Z</time>
      </trkpt>
      <trkpt lat="44.07105" lon="5.36461">
        <ele>640.86</ele>
        <time>2016-06-19T11:21:26Z</time>
      </trkpt>
      <trkpt lat="44.07031" lon="5.36364">
        <ele>639.41</ele>
        <time>2016-06-19T11:21:33Z</time>
      </trkpt>
      <trkpt lat="44.06928" lon="5.36238">
        <ele>638.93</ele>
        <time>2016-06-19T11:21:42Z</time>
      </trkpt>
      <trkpt lat="44.06882" lon="5.36199">
        <ele>639.41</ele>
        <time>2016-06-19T11:21:48Z</time>
      </trkpt>
      <trkpt lat="44.06781" lon="5.36094">
        <ele>638.45</ele>
        <time>2016-06-19T11:21:57Z</time>
      </trkpt>
      <trkpt lat="44.06746" lon="5.36057">
        <ele>640.38</ele>
        <time>2016-06-19T11:22:01Z</time>
      </trkpt>
      <trkpt lat="44.0674" lon="5.36046">
        <ele>641.82</ele>
        <time>2016-06-19T11:22:02Z</time>
      </trkpt>
      <trkpt lat="44.06736" lon="5.36036">
        <ele>643.74</ele>
        <time>2016-06-19T11:22:04Z</time>
      </trkpt>
      <trkpt lat="44.06735" lon="5.36035">
        <ele>643.74</ele>
        <time>2016-06-19T11:22:05Z</time>
      </trkpt>
      <trkpt lat="44.06734" lon="5.36034">
        <ele>643.26</ele>
        <time>2016-06-19T11:22:06Z</time>
      </trkpt>
      <trkpt lat="44.06734" lon="5.36032">
        <ele>643.26</ele>
        <time>2016-06-19T11:22:07Z</time>
      </trkpt>
      <trkpt lat="44.06732" lon="5.36028">
        <ele>643.26</ele>
        <time>2016-06-19T11:22:08Z</time>
      </trkpt>
      <trkpt lat="44.06729" lon="5.36022">
        <ele>643.26</ele>
        <time>2016-06-19T11:22:09Z</time>
      </trkpt>
      <trkpt lat="44.06724" lon="5.36015">
        <ele>643.26</ele>
        <time>2016-06-19T11:22:10Z</time>
      </trkpt>
      <trkpt lat="44.06661" lon="5.35923">
        <ele>645.66</ele>
        <time>2016-06-19T11:22:18Z</time>
      </trkpt>
      <trkpt lat="44.06618" lon="5.3586">
        <ele>648.55</ele>
        <time>2016-06-19T11:22:24Z</time>
      </trkpt>
      <trkpt lat="44.06541" lon="5.35783">
        <ele>651.43</ele>
        <time>2016-06-19T11:22:33Z</time>
      </trkpt>
      <trkpt lat="44.0652" lon="5.35764">
        <ele>652.39</ele>
        <time>2016-06-19T11:22:40Z</time>
      </trkpt>
      <trkpt lat="44.06518" lon="5.35763">
        <ele>652.87</ele>
        <time>2016-06-19T11:22:41Z</time>
      </trkpt>
      <trkpt lat="44.06514" lon="5.35762">
        <ele>652.39</ele>
        <time>2016-06-19T11:22:42Z</time>
      </trkpt>
      <trkpt lat="44.0651" lon="5.35761">
        <ele>652.39</ele>
        <time>2016-06-19T11:22:43Z</time>
      </trkpt>
      <trkpt lat="44.06458" lon="5.35755">
        <ele>650.47</ele>
        <time>2016-06-19T11:22:50Z</time>
      </trkpt>
      <trkpt lat="44.06449" lon="5.35757">
        <ele>650.47</ele>
        <time>2016-06-19T11:22:51Z</time>
      </trkpt>
      <trkpt lat="44.0644" lon="5.3576">
        <ele>649.51</ele>
        <time>2016-06-19T11:22:52Z</time>
      </trkpt>
      <trkpt lat="44.06403" lon="5.35772">
        <ele>647.1</ele>
        <time>2016-06-19T11:22:56Z</time>
      </trkpt>
      <trkpt lat="44.06393" lon="5.35773">
        <ele>646.62</ele>
        <time>2016-06-19T11:22:57Z</time>
      </trkpt>
      <trkpt lat="44.0635" lon="5.35771">
        <ele>643.26</ele>
        <time>2016-06-19T11:23:01Z</time>
      </trkpt>
      <trkpt lat="44.0634" lon="5.35773">
        <ele>642.78</ele>
        <time>2016-06-19T11:23:02Z</time>
      </trkpt>
      <trkpt lat="44.06329" lon="5.35776">
        <ele>642.3</ele>
        <time>2016-06-19T11:23:03Z</time>
      </trkpt>
      <trkpt lat="44.06216" lon="5.35823">
        <ele>635.57</ele>
        <time>2016-06-19T11:23:14Z</time>
      </trkpt>
      <trkpt lat="44.06206" lon="5.35821">
        <ele>634.61</ele>
        <time>2016-06-19T11:23:15Z</time>
      </trkpt>
      <trkpt lat="44.06196" lon="5.35818">
        <ele>634.61</ele>
        <time>2016-06-19T11:23:16Z</time>
      </trkpt>
      <trkpt lat="44.06145" lon="5.35802">
        <ele>633.17</ele>
        <time>2016-06-19T11:23:21Z</time>
      </trkpt>
      <trkpt lat="44.06114" lon="5.35798">
        <ele>632.2</ele>
        <time>2016-06-19T11:23:24Z</time>
      </trkpt>
      <trkpt lat="44.06105" lon="5.35793">
        <ele>631.72</ele>
        <time>2016-06-19T11:23:25Z</time>
      </trkpt>
      <trkpt lat="44.06096" lon="5.35786">
        <ele>631.72</ele>
        <time>2016-06-19T11:23:26Z</time>
      </trkpt>
      <trkpt lat="44.06057" lon="5.35755">
        <ele>630.76</ele>
        <time>2016-06-19T11:23:30Z</time>
      </trkpt>
      <trkpt lat="44.06047" lon="5.3575">
        <ele>630.76</ele>
        <time>2016-06-19T11:23:31Z</time>
      </trkpt>
      <trkpt lat="44.06025" lon="5.35741">
        <ele>630.76</ele>
        <time>2016-06-19T11:23:33Z</time>
      </trkpt>
      <trkpt lat="44.06015" lon="5.35734">
        <ele>630.28</ele>
        <time>2016-06-19T11:23:34Z</time>
      </trkpt>
      <trkpt lat="44.06006" lon="5.35725">
        <ele>630.28</ele>
        <time>2016-06-19T11:23:35Z</time>
      </trkpt>
      <trkpt lat="44.05978" lon="5.35699">
        <ele>629.8</ele>
        <time>2016-06-19T11:23:38Z</time>
      </trkpt>
      <trkpt lat="44.05968" lon="5.35693">
        <ele>629.8</ele>
        <time>2016-06-19T11:23:39Z</time>
      </trkpt>
      <trkpt lat="44.05958" lon="5.35687">
        <ele>629.8</ele>
        <time>2016-06-19T11:23:40Z</time>
      </trkpt>
      <trkpt lat="44.05947" lon="5.35683">
        <ele>629.8</ele>
        <time>2016-06-19T11:23:41Z</time>
      </trkpt>
      <trkpt lat="44.05937" lon="5.3568">
        <ele>629.8</ele>
        <time>2016-06-19T11:23:42Z</time>
      </trkpt>
      <trkpt lat="44.05863" lon="5.35648">
        <ele>629.32</ele>
        <time>2016-06-19T11:23:51Z</time>
      </trkpt>
      <trkpt lat="44.05808" lon="5.35604">
        <ele>628.36</ele>
        <time>2016-06-19T11:24:01Z</time>
      </trkpt>
      <trkpt lat="44.05786" lon="5.35582">
        <ele>627.88</ele>
        <time>2016-06-19T11:24:11Z</time>
      </trkpt>
      <trkpt lat="44.05773" lon="5.35565">
        <ele>627.88</ele>
        <time>2016-06-19T11:24:21Z</time>
      </trkpt>
      <trkpt lat="44.05763" lon="5.35569">
        <ele>628.36</ele>
        <time>2016-06-19T11:24:51Z</time>
      </trkpt>
      <trkpt lat="44.05765" lon="5.35583">
        <ele>628.36</ele>
        <time>2016-06-19T11:24:57Z</time>
      </trkpt>
      <trkpt lat="44.05768" lon="5.35595">
        <ele>627.88</ele>
        <time>2016-06-19T11:25:06Z</time>
      </trkpt>
      <trkpt lat="44.05769" lon="5.35596">
        <ele>629.32</ele>
        <time>2016-06-19T11:25:29Z</time>
      </trkpt>
      <trkpt lat="44.05776" lon="5.356">
        <ele>634.13</ele>
        <time>2016-06-19T12:35:55Z</time>
      </trkpt>
      <trkpt lat="44.05773" lon="5.35598">
        <ele>631.24</ele>
        <time>2016-06-19T12:37:40Z</time>
      </trkpt>
      <trkpt lat="44.05768" lon="5.35606">
        <ele>630.76</ele>
        <time>2016-06-19T12:37:44Z</time>
      </trkpt>
      <trkpt lat="44.05768" lon="5.3561">
        <ele>630.76</ele>
        <time>2016-06-19T12:37:46Z</time>
      </trkpt>
      <trkpt lat="44.05779" lon="5.35618">
        <ele>629.32</ele>
        <time>2016-06-19T12:37:56Z</time>
      </trkpt>
      <trkpt lat="44.05794" lon="5.35625">
        <ele>629.8</ele>
        <time>2016-06-19T12:38:16Z</time>
      </trkpt>
      <trkpt lat="44.05805" lon="5.35609">
        <ele>628.84</ele>
        <time>2016-06-19T12:38:24Z</time>
      </trkpt>
      <trkpt lat="44.05818" lon="5.3561">
        <ele>629.32</ele>
        <time>2016-06-19T12:38:29Z</time>
      </trkpt>
      <trkpt lat="44.0586" lon="5.35644">
        <ele>629.32</ele>
        <time>2016-06-19T12:38:42Z</time>
      </trkpt>
      <trkpt lat="44.059" lon="5.35666">
        <ele>629.8</ele>
        <time>2016-06-19T12:38:50Z</time>
      </trkpt>
      <trkpt lat="44.05971" lon="5.35692">
        <ele>630.28</ele>
        <time>2016-06-19T12:38:58Z</time>
      </trkpt>
      <trkpt lat="44.0598" lon="5.35698">
        <ele>630.28</ele>
        <time>2016-06-19T12:38:59Z</time>
      </trkpt>
      <trkpt lat="44.05988" lon="5.35704">
        <ele>629.8</ele>
        <time>2016-06-19T12:39:00Z</time>
      </trkpt>
      <trkpt lat="44.0603" lon="5.35741">
        <ele>629.8</ele>
        <time>2016-06-19T12:39:05Z</time>
      </trkpt>
      <trkpt lat="44.06039" lon="5.35746">
        <ele>629.8</ele>
        <time>2016-06-19T12:39:06Z</time>
      </trkpt>
      <trkpt lat="44.06074" lon="5.35762">
        <ele>630.28</ele>
        <time>2016-06-19T12:39:10Z</time>
      </trkpt>
      <trkpt lat="44.06083" lon="5.35768">
        <ele>630.28</ele>
        <time>2016-06-19T12:39:11Z</time>
      </trkpt>
      <trkpt lat="44.06116" lon="5.35796">
        <ele>630.76</ele>
        <time>2016-06-19T12:39:15Z</time>
      </trkpt>
      <trkpt lat="44.06125" lon="5.358">
        <ele>630.76</ele>
        <time>2016-06-19T12:39:16Z</time>
      </trkpt>
      <trkpt lat="44.06134" lon="5.35801">
        <ele>631.24</ele>
        <time>2016-06-19T12:39:17Z</time>
      </trkpt>
      <trkpt lat="44.06221" lon="5.35822">
        <ele>634.13</ele>
        <time>2016-06-19T12:39:26Z</time>
      </trkpt>
      <trkpt lat="44.0623" lon="5.35822">
        <ele>634.61</ele>
        <time>2016-06-19T12:39:27Z</time>
      </trkpt>
      <trkpt lat="44.0624" lon="5.35821">
        <ele>635.09</ele>
        <time>2016-06-19T12:39:28Z</time>
      </trkpt>
      <trkpt lat="44.0625" lon="5.35818">
        <ele>635.57</ele>
        <time>2016-06-19T12:39:29Z</time>
      </trkpt>
      <trkpt lat="44.06259" lon="5.35814">
        <ele>636.53</ele>
        <time>2016-06-19T12:39:30Z</time>
      </trkpt>
      <trkpt lat="44.0627" lon="5.35809">
        <ele>637.49</ele>
        <time>2016-06-19T12:39:31Z</time>
      </trkpt>
      <trkpt lat="44.06354" lon="5.35775">
        <ele>645.18</ele>
        <time>2016-06-19T12:39:39Z</time>
      </trkpt>
      <trkpt lat="44.06363" lon="5.35773">
        <ele>646.14</ele>
        <time>2016-06-19T12:39:40Z</time>
      </trkpt>
      <trkpt lat="44.06374" lon="5.35773">
        <ele>647.1</ele>
        <time>2016-06-19T12:39:41Z</time>
      </trkpt>
      <trkpt lat="44.06386" lon="5.35774">
        <ele>648.07</ele>
        <time>2016-06-19T12:39:42Z</time>
      </trkpt>
      <trkpt lat="44.06398" lon="5.35775">
        <ele>648.55</ele>
        <time>2016-06-19T12:39:43Z</time>
      </trkpt>
      <trkpt lat="44.0642" lon="5.35773">
        <ele>650.95</ele>
        <time>2016-06-19T12:39:45Z</time>
      </trkpt>
      <trkpt lat="44.06432" lon="5.3577">
        <ele>651.91</ele>
        <time>2016-06-19T12:39:46Z</time>
      </trkpt>
      <trkpt lat="44.06463" lon="5.35758">
        <ele>654.31</ele>
        <time>2016-06-19T12:39:49Z</time>
      </trkpt>
      <trkpt lat="44.06474" lon="5.35757">
        <ele>654.8</ele>
        <time>2016-06-19T12:39:50Z</time>
      </trkpt>
      <trkpt lat="44.06483" lon="5.35758">
        <ele>655.76</ele>
        <time>2016-06-19T12:39:51Z</time>
      </trkpt>
      <trkpt lat="44.06493" lon="5.3576">
        <ele>656.24</ele>
        <time>2016-06-19T12:39:52Z</time>
      </trkpt>
      <trkpt lat="44.06503" lon="5.35762">
        <ele>657.68</ele>
        <time>2016-06-19T12:39:53Z</time>
      </trkpt>
      <trkpt lat="44.06519" lon="5.35766">
        <ele>660.08</ele>
        <time>2016-06-19T12:39:55Z</time>
      </trkpt>
      <trkpt lat="44.06524" lon="5.3577">
        <ele>660.56</ele>
        <time>2016-06-19T12:39:56Z</time>
      </trkpt>
      <trkpt lat="44.06526" lon="5.35772">
        <ele>659.6</ele>
        <time>2016-06-19T12:39:57Z</time>
      </trkpt>
      <trkpt lat="44.06527" lon="5.35772">
        <ele>658.64</ele>
        <time>2016-06-19T12:39:58Z</time>
      </trkpt>
      <trkpt lat="44.06527" lon="5.35771">
        <ele>658.16</ele>
        <time>2016-06-19T12:39:59Z</time>
      </trkpt>
      <trkpt lat="44.06525" lon="5.3577">
        <ele>657.68</ele>
        <time>2016-06-19T12:40:09Z</time>
      </trkpt>
      <trkpt lat="44.06524" lon="5.35768">
        <ele>657.68</ele>
        <time>2016-06-19T12:40:10Z</time>
      </trkpt>
      <trkpt lat="44.06522" lon="5.35764">
        <ele>657.2</ele>
        <time>2016-06-19T12:40:11Z</time>
      </trkpt>
      <trkpt lat="44.06519" lon="5.3576">
        <ele>657.2</ele>
        <time>2016-06-19T12:40:12Z</time>
      </trkpt>
      <trkpt lat="44.06514" lon="5.35756">
        <ele>658.16</ele>
        <time>2016-06-19T12:40:13Z</time>
      </trkpt>
      <trkpt lat="44.0651" lon="5.35751">
        <ele>658.64</ele>
        <time>2016-06-19T12:40:14Z</time>
      </trkpt>
      <trkpt lat="44.06504" lon="5.35746">
        <ele>658.16</ele>
        <time>2016-06-19T12:40:15Z</time>
      </trkpt>
      <trkpt lat="44.06497" lon="5.35741">
        <ele>658.16</ele>
        <time>2016-06-19T12:40:16Z</time>
      </trkpt>
      <trkpt lat="44.0644" lon="5.35694">
        <ele>659.6</ele>
        <time>2016-06-19T12:40:23Z</time>
      </trkpt>
      <trkpt lat="44.06428" lon="5.35689">
        <ele>659.12</ele>
        <time>2016-06-19T12:40:24Z</time>
      </trkpt>
      <trkpt lat="44.06415" lon="5.35686">
        <ele>658.64</ele>
        <time>2016-06-19T12:40:25Z</time>
      </trkpt>
      <trkpt lat="44.06403" lon="5.35684">
        <ele>659.12</ele>
        <time>2016-06-19T12:40:26Z</time>
      </trkpt>
      <trkpt lat="44.0639" lon="5.35682">
        <ele>659.12</ele>
        <time>2016-06-19T12:40:27Z</time>
      </trkpt>
      <trkpt lat="44.06276" lon="5.35673">
        <ele>667.29</ele>
        <time>2016-06-19T12:40:35Z</time>
      </trkpt>
      <trkpt lat="44.06224" lon="5.35661">
        <ele>668.25</ele>
        <time>2016-06-19T12:40:38Z</time>
      </trkpt>
      <trkpt lat="44.06205" lon="5.35648">
        <ele>668.73</ele>
        <time>2016-06-19T12:40:39Z</time>
      </trkpt>
      <trkpt lat="44.06188" lon="5.35633">
        <ele>668.73</ele>
        <time>2016-06-19T12:40:40Z</time>
      </trkpt>
      <trkpt lat="44.06174" lon="5.35615">
        <ele>669.22</ele>
        <time>2016-06-19T12:40:41Z</time>
      </trkpt>
      <trkpt lat="44.06158" lon="5.35597">
        <ele>670.18</ele>
        <time>2016-06-19T12:40:42Z</time>
      </trkpt>
      <trkpt lat="44.06096" lon="5.35524">
        <ele>673.06</ele>
        <time>2016-06-19T12:40:46Z</time>
      </trkpt>
      <trkpt lat="44.06078" lon="5.3551">
        <ele>673.06</ele>
        <time>2016-06-19T12:40:47Z</time>
      </trkpt>
      <trkpt lat="44.05992" lon="5.35445">
        <ele>676.42</ele>
        <time>2016-06-19T12:40:52Z</time>
      </trkpt>
      <trkpt lat="44.05978" lon="5.35428">
        <ele>676.91</ele>
        <time>2016-06-19T12:40:53Z</time>
      </trkpt>
      <trkpt lat="44.05964" lon="5.35409">
        <ele>677.87</ele>
        <time>2016-06-19T12:40:54Z</time>
      </trkpt>
      <trkpt lat="44.05912" lon="5.35338">
        <ele>681.23</ele>
        <time>2016-06-19T12:40:58Z</time>
      </trkpt>
      <trkpt lat="44.05897" lon="5.35329">
        <ele>682.19</ele>
        <time>2016-06-19T12:40:59Z</time>
      </trkpt>
      <trkpt lat="44.0588" lon="5.35323">
        <ele>682.67</ele>
        <time>2016-06-19T12:41:00Z</time>
      </trkpt>
      <trkpt lat="44.05861" lon="5.35321">
        <ele>683.63</ele>
        <time>2016-06-19T12:41:01Z</time>
      </trkpt>
      <trkpt lat="44.05844" lon="5.3532">
        <ele>684.12</ele>
        <time>2016-06-19T12:41:02Z</time>
      </trkpt>
      <trkpt lat="44.058" lon="5.35313">
        <ele>685.08</ele>
        <time>2016-06-19T12:41:05Z</time>
      </trkpt>
      <trkpt lat="44.05787" lon="5.35307">
        <ele>685.56</ele>
        <time>2016-06-19T12:41:06Z</time>
      </trkpt>
      <trkpt lat="44.05775" lon="5.35298">
        <ele>686.04</ele>
        <time>2016-06-19T12:41:07Z</time>
      </trkpt>
      <trkpt lat="44.05753" lon="5.35281">
        <ele>687</ele>
        <time>2016-06-19T12:41:09Z</time>
      </trkpt>
      <trkpt lat="44.05742" lon="5.35278">
        <ele>687.48</ele>
        <time>2016-06-19T12:41:10Z</time>
      </trkpt>
      <trkpt lat="44.05731" lon="5.35277">
        <ele>687.48</ele>
        <time>2016-06-19T12:41:11Z</time>
      </trkpt>
      <trkpt lat="44.0572" lon="5.35278">
        <ele>687.96</ele>
        <time>2016-06-19T12:41:12Z</time>
      </trkpt>
      <trkpt lat="44.05709" lon="5.3528">
        <ele>688.92</ele>
        <time>2016-06-19T12:41:13Z</time>
      </trkpt>
      <trkpt lat="44.05678" lon="5.35284">
        <ele>689.88</ele>
        <time>2016-06-19T12:41:16Z</time>
      </trkpt>
      <trkpt lat="44.05667" lon="5.35282">
        <ele>690.36</ele>
        <time>2016-06-19T12:41:17Z</time>
      </trkpt>
      <trkpt lat="44.05657" lon="5.35277">
        <ele>690.84</ele>
        <time>2016-06-19T12:41:18Z</time>
      </trkpt>
      <trkpt lat="44.05648" lon="5.3527">
        <ele>691.33</ele>
        <time>2016-06-19T12:41:19Z</time>
      </trkpt>
      <trkpt lat="44.05639" lon="5.35263">
        <ele>691.81</ele>
        <time>2016-06-19T12:41:20Z</time>
      </trkpt>
      <trkpt lat="44.0563" lon="5.35254">
        <ele>691.81</ele>
        <time>2016-06-19T12:41:21Z</time>
      </trkpt>
      <trkpt lat="44.05591" lon="5.35197">
        <ele>693.73</ele>
        <time>2016-06-19T12:41:26Z</time>
      </trkpt>
      <trkpt lat="44.05586" lon="5.35183">
        <ele>694.21</ele>
        <time>2016-06-19T12:41:27Z</time>
      </trkpt>
      <trkpt lat="44.05583" lon="5.35168">
        <ele>694.21</ele>
        <time>2016-06-19T12:41:28Z</time>
      </trkpt>
      <trkpt lat="44.05575" lon="5.35136">
        <ele>694.21</ele>
        <time>2016-06-19T12:41:30Z</time>
      </trkpt>
      <trkpt lat="44.05568" lon="5.35123">
        <ele>694.69</ele>
        <time>2016-06-19T12:41:31Z</time>
      </trkpt>
      <trkpt lat="44.05557" lon="5.35115">
        <ele>695.17</ele>
        <time>2016-06-19T12:41:32Z</time>
      </trkpt>
      <trkpt lat="44.05543" lon="5.35111">
        <ele>695.65</ele>
        <time>2016-06-19T12:41:33Z</time>
      </trkpt>
      <trkpt lat="44.05528" lon="5.35106">
        <ele>696.61</ele>
        <time>2016-06-19T12:41:34Z</time>
      </trkpt>
      <trkpt lat="44.05513" lon="5.351">
        <ele>697.09</ele>
        <time>2016-06-19T12:41:35Z</time>
      </trkpt>
      <trkpt lat="44.05499" lon="5.35091">
        <ele>698.05</ele>
        <time>2016-06-19T12:41:36Z</time>
      </trkpt>
      <trkpt lat="44.05484" lon="5.35079">
        <ele>698.53</ele>
        <time>2016-06-19T12:41:37Z</time>
      </trkpt>
      <trkpt lat="44.05471" lon="5.35064">
        <ele>698.53</ele>
        <time>2016-06-19T12:41:38Z</time>
      </trkpt>
      <trkpt lat="44.05459" lon="5.35048">
        <ele>699.02</ele>
        <time>2016-06-19T12:41:39Z</time>
      </trkpt>
      <trkpt lat="44.05448" lon="5.35033">
        <ele>699.02</ele>
        <time>2016-06-19T12:41:40Z</time>
      </trkpt>
      <trkpt lat="44.05426" lon="5.35005">
        <ele>699.98</ele>
        <time>2016-06-19T12:41:42Z</time>
      </trkpt>
      <trkpt lat="44.05414" lon="5.34994">
        <ele>700.46</ele>
        <time>2016-06-19T12:41:43Z</time>
      </trkpt>
      <trkpt lat="44.05378" lon="5.34962">
        <ele>700.94</ele>
        <time>2016-06-19T12:41:46Z</time>
      </trkpt>
      <trkpt lat="44.05368" lon="5.34948">
        <ele>701.42</ele>
        <time>2016-06-19T12:41:47Z</time>
      </trkpt>
      <trkpt lat="44.05359" lon="5.3493">
        <ele>701.9</ele>
        <time>2016-06-19T12:41:48Z</time>
      </trkpt>
      <trkpt lat="44.05351" lon="5.34909">
        <ele>702.38</ele>
        <time>2016-06-19T12:41:49Z</time>
      </trkpt>
      <trkpt lat="44.05345" lon="5.34887">
        <ele>702.38</ele>
        <time>2016-06-19T12:41:50Z</time>
      </trkpt>
      <trkpt lat="44.05313" lon="5.34751">
        <ele>705.75</ele>
        <time>2016-06-19T12:41:56Z</time>
      </trkpt>
      <trkpt lat="44.05306" lon="5.34732">
        <ele>706.23</ele>
        <time>2016-06-19T12:41:57Z</time>
      </trkpt>
      <trkpt lat="44.05295" lon="5.34719">
        <ele>706.23</ele>
        <time>2016-06-19T12:41:58Z</time>
      </trkpt>
      <trkpt lat="44.05282" lon="5.34709">
        <ele>706.71</ele>
        <time>2016-06-19T12:41:59Z</time>
      </trkpt>
      <trkpt lat="44.05266" lon="5.34702">
        <ele>707.19</ele>
        <time>2016-06-19T12:42:00Z</time>
      </trkpt>
      <trkpt lat="44.0525" lon="5.34694">
        <ele>708.15</ele>
        <time>2016-06-19T12:42:01Z</time>
      </trkpt>
      <trkpt lat="44.05194" lon="5.34658">
        <ele>710.55</ele>
        <time>2016-06-19T12:42:05Z</time>
      </trkpt>
      <trkpt lat="44.05183" lon="5.34644">
        <ele>711.03</ele>
        <time>2016-06-19T12:42:06Z</time>
      </trkpt>
      <trkpt lat="44.05173" lon="5.34628">
        <ele>711.99</ele>
        <time>2016-06-19T12:42:07Z</time>
      </trkpt>
      <trkpt lat="44.0517" lon="5.34606">
        <ele>712.95</ele>
        <time>2016-06-19T12:42:08Z</time>
      </trkpt>
      <trkpt lat="44.05169" lon="5.34581">
        <ele>713.92</ele>
        <time>2016-06-19T12:42:09Z</time>
      </trkpt>
      <trkpt lat="44.05171" lon="5.34557">
        <ele>714.4</ele>
        <time>2016-06-19T12:42:10Z</time>
      </trkpt>
      <trkpt lat="44.05176" lon="5.34537">
        <ele>715.36</ele>
        <time>2016-06-19T12:42:11Z</time>
      </trkpt>
      <trkpt lat="44.05191" lon="5.3452">
        <ele>717.76</ele>
        <time>2016-06-19T12:42:12Z</time>
      </trkpt>
      <trkpt lat="44.05202" lon="5.34505">
        <ele>718.72</ele>
        <time>2016-06-19T12:42:13Z</time>
      </trkpt>
      <trkpt lat="44.05209" lon="5.3449">
        <ele>719.2</ele>
        <time>2016-06-19T12:42:14Z</time>
      </trkpt>
      <trkpt lat="44.05212" lon="5.34472">
        <ele>719.68</ele>
        <time>2016-06-19T12:42:15Z</time>
      </trkpt>
      <trkpt lat="44.05209" lon="5.34455">
        <ele>719.68</ele>
        <time>2016-06-19T12:42:16Z</time>
      </trkpt>
      <trkpt lat="44.05202" lon="5.34441">
        <ele>720.16</ele>
        <time>2016-06-19T12:42:17Z</time>
      </trkpt>
      <trkpt lat="44.05191" lon="5.3443">
        <ele>720.16</ele>
        <time>2016-06-19T12:42:18Z</time>
      </trkpt>
      <trkpt lat="44.05176" lon="5.3442">
        <ele>719.2</ele>
        <time>2016-06-19T12:42:19Z</time>
      </trkpt>
      <trkpt lat="44.05158" lon="5.34413">
        <ele>720.65</ele>
        <time>2016-06-19T12:42:20Z</time>
      </trkpt>
      <trkpt lat="44.05138" lon="5.34411">
        <ele>722.09</ele>
        <time>2016-06-19T12:42:21Z</time>
      </trkpt>
      <trkpt lat="44.0512" lon="5.34411">
        <ele>723.05</ele>
        <time>2016-06-19T12:42:22Z</time>
      </trkpt>
      <trkpt lat="44.05103" lon="5.34408">
        <ele>724.01</ele>
        <time>2016-06-19T12:42:23Z</time>
      </trkpt>
      <trkpt lat="44.05087" lon="5.34401">
        <ele>724.01</ele>
        <time>2016-06-19T12:42:24Z</time>
      </trkpt>
      <trkpt lat="44.05072" lon="5.3439">
        <ele>724.01</ele>
        <time>2016-06-19T12:42:25Z</time>
      </trkpt>
      <trkpt lat="44.05059" lon="5.34374">
        <ele>724.01</ele>
        <time>2016-06-19T12:42:26Z</time>
      </trkpt>
      <trkpt lat="44.0505" lon="5.34356">
        <ele>724.49</ele>
        <time>2016-06-19T12:42:27Z</time>
      </trkpt>
      <trkpt lat="44.05041" lon="5.34337">
        <ele>725.45</ele>
        <time>2016-06-19T12:42:28Z</time>
      </trkpt>
      <trkpt lat="44.05032" lon="5.34322">
        <ele>725.93</ele>
        <time>2016-06-19T12:42:29Z</time>
      </trkpt>
      <trkpt lat="44.0502" lon="5.34313">
        <ele>725.93</ele>
        <time>2016-06-19T12:42:30Z</time>
      </trkpt>
      <trkpt lat="44.05006" lon="5.34308">
        <ele>726.41</ele>
        <time>2016-06-19T12:42:31Z</time>
      </trkpt>
      <trkpt lat="44.04994" lon="5.34304">
        <ele>726.89</ele>
        <time>2016-06-19T12:42:32Z</time>
      </trkpt>
      <trkpt lat="44.04983" lon="5.34298">
        <ele>727.37</ele>
        <time>2016-06-19T12:42:33Z</time>
      </trkpt>
      <trkpt lat="44.04972" lon="5.34287">
        <ele>728.34</ele>
        <time>2016-06-19T12:42:34Z</time>
      </trkpt>
      <trkpt lat="44.0496" lon="5.34272">
        <ele>728.34</ele>
        <time>2016-06-19T12:42:35Z</time>
      </trkpt>
      <trkpt lat="44.04947" lon="5.34256">
        <ele>728.82</ele>
        <time>2016-06-19T12:42:36Z</time>
      </trkpt>
      <trkpt lat="44.04908" lon="5.34211">
        <ele>730.74</ele>
        <time>2016-06-19T12:42:39Z</time>
      </trkpt>
      <trkpt lat="44.04892" lon="5.34206">
        <ele>730.74</ele>
        <time>2016-06-19T12:42:40Z</time>
      </trkpt>
      <trkpt lat="44.04873" lon="5.34204">
        <ele>731.22</ele>
        <time>2016-06-19T12:42:41Z</time>
      </trkpt>
      <trkpt lat="44.04802" lon="5.34196">
        <ele>733.62</ele>
        <time>2016-06-19T12:42:45Z</time>
      </trkpt>
      <trkpt lat="44.04785" lon="5.34187">
        <ele>734.58</ele>
        <time>2016-06-19T12:42:46Z</time>
      </trkpt>
      <trkpt lat="44.04768" lon="5.34177">
        <ele>735.55</ele>
        <time>2016-06-19T12:42:47Z</time>
      </trkpt>
      <trkpt lat="44.04704" lon="5.34126">
        <ele>737.95</ele>
        <time>2016-06-19T12:42:51Z</time>
      </trkpt>
      <trkpt lat="44.04694" lon="5.3411">
        <ele>738.43</ele>
        <time>2016-06-19T12:42:52Z</time>
      </trkpt>
      <trkpt lat="44.04688" lon="5.34093">
        <ele>739.39</ele>
        <time>2016-06-19T12:42:53Z</time>
      </trkpt>
      <trkpt lat="44.04687" lon="5.34076">
        <ele>740.35</ele>
        <time>2016-06-19T12:42:54Z</time>
      </trkpt>
      <trkpt lat="44.04689" lon="5.34062">
        <ele>740.83</ele>
        <time>2016-06-19T12:42:55Z</time>
      </trkpt>
      <trkpt lat="44.04696" lon="5.34047">
        <ele>740.83</ele>
        <time>2016-06-19T12:42:56Z</time>
      </trkpt>
      <trkpt lat="44.04708" lon="5.3403">
        <ele>742.28</ele>
        <time>2016-06-19T12:42:57Z</time>
      </trkpt>
      <trkpt lat="44.04722" lon="5.34015">
        <ele>742.76</ele>
        <time>2016-06-19T12:42:58Z</time>
      </trkpt>
      <trkpt lat="44.04734" lon="5.34">
        <ele>743.72</ele>
        <time>2016-06-19T12:42:59Z</time>
      </trkpt>
      <trkpt lat="44.04753" lon="5.33971">
        <ele>744.2</ele>
        <time>2016-06-19T12:43:01Z</time>
      </trkpt>
      <trkpt lat="44.0476" lon="5.33956">
        <ele>744.2</ele>
        <time>2016-06-19T12:43:02Z</time>
      </trkpt>
      <trkpt lat="44.04764" lon="5.3394">
        <ele>744.2</ele>
        <time>2016-06-19T12:43:03Z</time>
      </trkpt>
      <trkpt lat="44.04764" lon="5.33924">
        <ele>744.68</ele>
        <time>2016-06-19T12:43:04Z</time>
      </trkpt>
      <trkpt lat="44.04762" lon="5.33908">
        <ele>744.68</ele>
        <time>2016-06-19T12:43:05Z</time>
      </trkpt>
      <trkpt lat="44.04757" lon="5.33893">
        <ele>744.68</ele>
        <time>2016-06-19T12:43:06Z</time>
      </trkpt>
      <trkpt lat="44.04752" lon="5.33878">
        <ele>744.68</ele>
        <time>2016-06-19T12:43:07Z</time>
      </trkpt>
      <trkpt lat="44.04718" lon="5.33735">
        <ele>743.24</ele>
        <time>2016-06-19T12:43:16Z</time>
      </trkpt>
      <trkpt lat="44.04712" lon="5.33714">
        <ele>742.76</ele>
        <time>2016-06-19T12:43:17Z</time>
      </trkpt>
      <trkpt lat="44.04702" lon="5.33691">
        <ele>742.28</ele>
        <time>2016-06-19T12:43:18Z</time>
      </trkpt>
      <trkpt lat="44.04692" lon="5.33668">
        <ele>741.79</ele>
        <time>2016-06-19T12:43:19Z</time>
      </trkpt>
      <trkpt lat="44.04608" lon="5.33521">
        <ele>740.83</ele>
        <time>2016-06-19T12:43:27Z</time>
      </trkpt>
      <trkpt lat="44.04589" lon="5.33494">
        <ele>740.83</ele>
        <time>2016-06-19T12:43:29Z</time>
      </trkpt>
      <trkpt lat="44.04583" lon="5.33479">
        <ele>740.83</ele>
        <time>2016-06-19T12:43:30Z</time>
      </trkpt>
      <trkpt lat="44.04581" lon="5.33462">
        <ele>741.31</ele>
        <time>2016-06-19T12:43:31Z</time>
      </trkpt>
      <trkpt lat="44.04583" lon="5.33446">
        <ele>741.79</ele>
        <time>2016-06-19T12:43:32Z</time>
      </trkpt>
      <trkpt lat="44.04593" lon="5.33432">
        <ele>742.28</ele>
        <time>2016-06-19T12:43:33Z</time>
      </trkpt>
      <trkpt lat="44.04603" lon="5.33417">
        <ele>742.28</ele>
        <time>2016-06-19T12:43:34Z</time>
      </trkpt>
      <trkpt lat="44.04616" lon="5.33402">
        <ele>742.28</ele>
        <time>2016-06-19T12:43:35Z</time>
      </trkpt>
      <trkpt lat="44.04625" lon="5.33385">
        <ele>742.28</ele>
        <time>2016-06-19T12:43:36Z</time>
      </trkpt>
      <trkpt lat="44.04632" lon="5.33366">
        <ele>742.28</ele>
        <time>2016-06-19T12:43:37Z</time>
      </trkpt>
      <trkpt lat="44.04634" lon="5.33343">
        <ele>742.28</ele>
        <time>2016-06-19T12:43:38Z</time>
      </trkpt>
      <trkpt lat="44.04635" lon="5.33321">
        <ele>741.79</ele>
        <time>2016-06-19T12:43:39Z</time>
      </trkpt>
      <trkpt lat="44.04631" lon="5.33299">
        <ele>741.31</ele>
        <time>2016-06-19T12:43:40Z</time>
      </trkpt>
      <trkpt lat="44.04628" lon="5.33278">
        <ele>740.83</ele>
        <time>2016-06-19T12:43:41Z</time>
      </trkpt>
      <trkpt lat="44.04623" lon="5.3326">
        <ele>740.83</ele>
        <time>2016-06-19T12:43:42Z</time>
      </trkpt>
      <trkpt lat="44.04609" lon="5.332">
        <ele>740.83</ele>
        <time>2016-06-19T12:43:46Z</time>
      </trkpt>
      <trkpt lat="44.04609" lon="5.33188">
        <ele>740.83</ele>
        <time>2016-06-19T12:43:47Z</time>
      </trkpt>
      <trkpt lat="44.04611" lon="5.33177">
        <ele>741.31</ele>
        <time>2016-06-19T12:43:48Z</time>
      </trkpt>
      <trkpt lat="44.04616" lon="5.33167">
        <ele>741.79</ele>
        <time>2016-06-19T12:43:49Z</time>
      </trkpt>
      <trkpt lat="44.04626" lon="5.33163">
        <ele>742.76</ele>
        <time>2016-06-19T12:43:50Z</time>
      </trkpt>
      <trkpt lat="44.04635" lon="5.33159">
        <ele>742.76</ele>
        <time>2016-06-19T12:43:51Z</time>
      </trkpt>
      <trkpt lat="44.04644" lon="5.33154">
        <ele>743.24</ele>
        <time>2016-06-19T12:43:52Z</time>
      </trkpt>
      <trkpt lat="44.04653" lon="5.3315">
        <ele>743.24</ele>
        <time>2016-06-19T12:43:53Z</time>
      </trkpt>
      <trkpt lat="44.0467" lon="5.33142">
        <ele>743.24</ele>
        <time>2016-06-19T12:43:55Z</time>
      </trkpt>
      <trkpt lat="44.04679" lon="5.33141">
        <ele>743.24</ele>
        <time>2016-06-19T12:43:56Z</time>
      </trkpt>
      <trkpt lat="44.04689" lon="5.33143">
        <ele>742.76</ele>
        <time>2016-06-19T12:43:57Z</time>
      </trkpt>
      <trkpt lat="44.04698" lon="5.33147">
        <ele>742.28</ele>
        <time>2016-06-19T12:43:58Z</time>
      </trkpt>
      <trkpt lat="44.04706" lon="5.33153">
        <ele>740.35</ele>
        <time>2016-06-19T12:43:59Z</time>
      </trkpt>
      <trkpt lat="44.04714" lon="5.33159">
        <ele>739.39</ele>
        <time>2016-06-19T12:44:00Z</time>
      </trkpt>
      <trkpt lat="44.04721" lon="5.33169">
        <ele>738.43</ele>
        <time>2016-06-19T12:44:01Z</time>
      </trkpt>
      <trkpt lat="44.04727" lon="5.33179">
        <ele>737.95</ele>
        <time>2016-06-19T12:44:02Z</time>
      </trkpt>
      <trkpt lat="44.04733" lon="5.3319">
        <ele>737.47</ele>
        <time>2016-06-19T12:44:03Z</time>
      </trkpt>
      <trkpt lat="44.0474" lon="5.332">
        <ele>736.99</ele>
        <time>2016-06-19T12:44:04Z</time>
      </trkpt>
      <trkpt lat="44.04747" lon="5.3321">
        <ele>736.51</ele>
        <time>2016-06-19T12:44:05Z</time>
      </trkpt>
      <trkpt lat="44.04753" lon="5.33222">
        <ele>736.51</ele>
        <time>2016-06-19T12:44:06Z</time>
      </trkpt>
      <trkpt lat="44.04757" lon="5.33235">
        <ele>736.03</ele>
        <time>2016-06-19T12:44:07Z</time>
      </trkpt>
      <trkpt lat="44.04761" lon="5.33249">
        <ele>735.55</ele>
        <time>2016-06-19T12:44:08Z</time>
      </trkpt>
      <trkpt lat="44.0485" lon="5.3339">
        <ele>731.22</ele>
        <time>2016-06-19T12:44:19Z</time>
      </trkpt>
      <trkpt lat="44.04858" lon="5.33405">
        <ele>730.74</ele>
        <time>2016-06-19T12:44:20Z</time>
      </trkpt>
      <trkpt lat="44.04873" lon="5.33429">
        <ele>730.26</ele>
        <time>2016-06-19T12:44:22Z</time>
      </trkpt>
      <trkpt lat="44.04881" lon="5.33436">
        <ele>729.3</ele>
        <time>2016-06-19T12:44:23Z</time>
      </trkpt>
      <trkpt lat="44.04888" lon="5.33437">
        <ele>728.82</ele>
        <time>2016-06-19T12:44:24Z</time>
      </trkpt>
      <trkpt lat="44.04896" lon="5.33429">
        <ele>728.34</ele>
        <time>2016-06-19T12:44:25Z</time>
      </trkpt>
      <trkpt lat="44.04902" lon="5.33415">
        <ele>728.34</ele>
        <time>2016-06-19T12:44:26Z</time>
      </trkpt>
      <trkpt lat="44.04908" lon="5.33401">
        <ele>727.37</ele>
        <time>2016-06-19T12:44:27Z</time>
      </trkpt>
      <trkpt lat="44.04909" lon="5.33386">
        <ele>726.41</ele>
        <time>2016-06-19T12:44:28Z</time>
      </trkpt>
      <trkpt lat="44.04907" lon="5.33369">
        <ele>725.45</ele>
        <time>2016-06-19T12:44:29Z</time>
      </trkpt>
      <trkpt lat="44.04906" lon="5.33353">
        <ele>724.97</ele>
        <time>2016-06-19T12:44:30Z</time>
      </trkpt>
      <trkpt lat="44.04907" lon="5.33337">
        <ele>724.49</ele>
        <time>2016-06-19T12:44:31Z</time>
      </trkpt>
      <trkpt lat="44.04912" lon="5.33325">
        <ele>724.01</ele>
        <time>2016-06-19T12:44:32Z</time>
      </trkpt>
      <trkpt lat="44.04918" lon="5.33317">
        <ele>724.01</ele>
        <time>2016-06-19T12:44:33Z</time>
      </trkpt>
      <trkpt lat="44.04925" lon="5.33311">
        <ele>722.57</ele>
        <time>2016-06-19T12:44:34Z</time>
      </trkpt>
      <trkpt lat="44.04932" lon="5.33303">
        <ele>722.09</ele>
        <time>2016-06-19T12:44:35Z</time>
      </trkpt>
      <trkpt lat="44.05032" lon="5.33285">
        <ele>724.97</ele>
        <time>2016-06-19T12:44:45Z</time>
      </trkpt>
      <trkpt lat="44.05092" lon="5.3325">
        <ele>720.65</ele>
        <time>2016-06-19T12:44:50Z</time>
      </trkpt>
      <trkpt lat="44.05105" lon="5.33243">
        <ele>721.13</ele>
        <time>2016-06-19T12:44:51Z</time>
      </trkpt>
      <trkpt lat="44.05118" lon="5.3324">
        <ele>720.65</ele>
        <time>2016-06-19T12:44:52Z</time>
      </trkpt>
      <trkpt lat="44.05144" lon="5.3324">
        <ele>717.28</ele>
        <time>2016-06-19T12:44:54Z</time>
      </trkpt>
      <trkpt lat="44.05154" lon="5.33235">
        <ele>714.88</ele>
        <time>2016-06-19T12:44:55Z</time>
      </trkpt>
      <trkpt lat="44.05161" lon="5.33221">
        <ele>713.44</ele>
        <time>2016-06-19T12:44:56Z</time>
      </trkpt>
      <trkpt lat="44.05165" lon="5.33204">
        <ele>712.47</ele>
        <time>2016-06-19T12:44:57Z</time>
      </trkpt>
      <trkpt lat="44.05168" lon="5.33185">
        <ele>711.99</ele>
        <time>2016-06-19T12:44:58Z</time>
      </trkpt>
      <trkpt lat="44.05171" lon="5.33167">
        <ele>711.51</ele>
        <time>2016-06-19T12:44:59Z</time>
      </trkpt>
      <trkpt lat="44.05175" lon="5.33151">
        <ele>710.55</ele>
        <time>2016-06-19T12:45:00Z</time>
      </trkpt>
      <trkpt lat="44.05183" lon="5.33138">
        <ele>709.59</ele>
        <time>2016-06-19T12:45:01Z</time>
      </trkpt>
      <trkpt lat="44.05192" lon="5.33125">
        <ele>708.63</ele>
        <time>2016-06-19T12:45:02Z</time>
      </trkpt>
      <trkpt lat="44.05204" lon="5.33116">
        <ele>708.15</ele>
        <time>2016-06-19T12:45:03Z</time>
      </trkpt>
      <trkpt lat="44.05219" lon="5.33108">
        <ele>707.67</ele>
        <time>2016-06-19T12:45:04Z</time>
      </trkpt>
      <trkpt lat="44.05232" lon="5.33099">
        <ele>707.19</ele>
        <time>2016-06-19T12:45:05Z</time>
      </trkpt>
      <trkpt lat="44.05279" lon="5.33061">
        <ele>705.75</ele>
        <time>2016-06-19T12:45:09Z</time>
      </trkpt>
      <trkpt lat="44.05287" lon="5.33048">
        <ele>705.26</ele>
        <time>2016-06-19T12:45:10Z</time>
      </trkpt>
      <trkpt lat="44.05291" lon="5.33032">
        <ele>704.78</ele>
        <time>2016-06-19T12:45:11Z</time>
      </trkpt>
      <trkpt lat="44.05293" lon="5.33015">
        <ele>704.78</ele>
        <time>2016-06-19T12:45:12Z</time>
      </trkpt>
      <trkpt lat="44.05294" lon="5.32998">
        <ele>704.3</ele>
        <time>2016-06-19T12:45:13Z</time>
      </trkpt>
      <trkpt lat="44.05298" lon="5.32982">
        <ele>703.34</ele>
        <time>2016-06-19T12:45:14Z</time>
      </trkpt>
      <trkpt lat="44.05302" lon="5.3297">
        <ele>703.34</ele>
        <time>2016-06-19T12:45:15Z</time>
      </trkpt>
      <trkpt lat="44.05312" lon="5.32963">
        <ele>703.34</ele>
        <time>2016-06-19T12:45:16Z</time>
      </trkpt>
      <trkpt lat="44.05324" lon="5.32957">
        <ele>703.34</ele>
        <time>2016-06-19T12:45:17Z</time>
      </trkpt>
      <trkpt lat="44.05337" lon="5.32955">
        <ele>703.34</ele>
        <time>2016-06-19T12:45:18Z</time>
      </trkpt>
      <trkpt lat="44.05354" lon="5.32955">
        <ele>702.86</ele>
        <time>2016-06-19T12:45:19Z</time>
      </trkpt>
      <trkpt lat="44.05369" lon="5.32953">
        <ele>702.38</ele>
        <time>2016-06-19T12:45:20Z</time>
      </trkpt>
      <trkpt lat="44.05384" lon="5.32948">
        <ele>702.86</ele>
        <time>2016-06-19T12:45:21Z</time>
      </trkpt>
      <trkpt lat="44.05397" lon="5.32938">
        <ele>702.86</ele>
        <time>2016-06-19T12:45:22Z</time>
      </trkpt>
      <trkpt lat="44.05407" lon="5.32926">
        <ele>702.86</ele>
        <time>2016-06-19T12:45:23Z</time>
      </trkpt>
      <trkpt lat="44.05416" lon="5.32914">
        <ele>702.38</ele>
        <time>2016-06-19T12:45:24Z</time>
      </trkpt>
      <trkpt lat="44.05424" lon="5.32905">
        <ele>704.78</ele>
        <time>2016-06-19T12:45:25Z</time>
      </trkpt>
      <trkpt lat="44.05435" lon="5.32902">
        <ele>705.75</ele>
        <time>2016-06-19T12:45:26Z</time>
      </trkpt>
      <trkpt lat="44.05449" lon="5.32904">
        <ele>705.26</ele>
        <time>2016-06-19T12:45:27Z</time>
      </trkpt>
      <trkpt lat="44.05461" lon="5.32907">
        <ele>705.26</ele>
        <time>2016-06-19T12:45:28Z</time>
      </trkpt>
      <trkpt lat="44.05472" lon="5.32907">
        <ele>705.26</ele>
        <time>2016-06-19T12:45:29Z</time>
      </trkpt>
      <trkpt lat="44.05483" lon="5.329">
        <ele>703.82</ele>
        <time>2016-06-19T12:45:30Z</time>
      </trkpt>
      <trkpt lat="44.05491" lon="5.32888">
        <ele>703.82</ele>
        <time>2016-06-19T12:45:31Z</time>
      </trkpt>
      <trkpt lat="44.05499" lon="5.32873">
        <ele>703.82</ele>
        <time>2016-06-19T12:45:32Z</time>
      </trkpt>
      <trkpt lat="44.05507" lon="5.3286">
        <ele>703.34</ele>
        <time>2016-06-19T12:45:33Z</time>
      </trkpt>
      <trkpt lat="44.05518" lon="5.32849">
        <ele>702.86</ele>
        <time>2016-06-19T12:45:34Z</time>
      </trkpt>
      <trkpt lat="44.05531" lon="5.32844">
        <ele>702.86</ele>
        <time>2016-06-19T12:45:35Z</time>
      </trkpt>
      <trkpt lat="44.05544" lon="5.32842">
        <ele>702.38</ele>
        <time>2016-06-19T12:45:36Z</time>
      </trkpt>
      <trkpt lat="44.0556" lon="5.32841">
        <ele>701.9</ele>
        <time>2016-06-19T12:45:37Z</time>
      </trkpt>
      <trkpt lat="44.05575" lon="5.32839">
        <ele>701.42</ele>
        <time>2016-06-19T12:45:38Z</time>
      </trkpt>
      <trkpt lat="44.0559" lon="5.32834">
        <ele>700.46</ele>
        <time>2016-06-19T12:45:39Z</time>
      </trkpt>
      <trkpt lat="44.05605" lon="5.32826">
        <ele>699.98</ele>
        <time>2016-06-19T12:45:40Z</time>
      </trkpt>
      <trkpt lat="44.05619" lon="5.32816">
        <ele>699.5</ele>
        <time>2016-06-19T12:45:41Z</time>
      </trkpt>
      <trkpt lat="44.05633" lon="5.32806">
        <ele>698.53</ele>
        <time>2016-06-19T12:45:42Z</time>
      </trkpt>
      <trkpt lat="44.05659" lon="5.32784">
        <ele>697.09</ele>
        <time>2016-06-19T12:45:44Z</time>
      </trkpt>
      <trkpt lat="44.05667" lon="5.3277">
        <ele>696.13</ele>
        <time>2016-06-19T12:45:45Z</time>
      </trkpt>
      <trkpt lat="44.05671" lon="5.32752">
        <ele>695.65</ele>
        <time>2016-06-19T12:45:46Z</time>
      </trkpt>
      <trkpt lat="44.05672" lon="5.32736">
        <ele>694.69</ele>
        <time>2016-06-19T12:45:47Z</time>
      </trkpt>
      <trkpt lat="44.05673" lon="5.32721">
        <ele>694.21</ele>
        <time>2016-06-19T12:45:48Z</time>
      </trkpt>
      <trkpt lat="44.05676" lon="5.32706">
        <ele>693.73</ele>
        <time>2016-06-19T12:45:49Z</time>
      </trkpt>
      <trkpt lat="44.05697" lon="5.32649">
        <ele>693.25</ele>
        <time>2016-06-19T12:45:53Z</time>
      </trkpt>
      <trkpt lat="44.05702" lon="5.32636">
        <ele>692.77</ele>
        <time>2016-06-19T12:45:54Z</time>
      </trkpt>
      <trkpt lat="44.05705" lon="5.3262">
        <ele>692.77</ele>
        <time>2016-06-19T12:45:55Z</time>
      </trkpt>
      <trkpt lat="44.05708" lon="5.32605">
        <ele>691.81</ele>
        <time>2016-06-19T12:45:56Z</time>
      </trkpt>
      <trkpt lat="44.05712" lon="5.32589">
        <ele>690.36</ele>
        <time>2016-06-19T12:45:57Z</time>
      </trkpt>
      <trkpt lat="44.05719" lon="5.32575">
        <ele>689.4</ele>
        <time>2016-06-19T12:45:58Z</time>
      </trkpt>
      <trkpt lat="44.0573" lon="5.32566">
        <ele>688.92</ele>
        <time>2016-06-19T12:45:59Z</time>
      </trkpt>
      <trkpt lat="44.05743" lon="5.32557">
        <ele>687.96</ele>
        <time>2016-06-19T12:46:00Z</time>
      </trkpt>
      <trkpt lat="44.05754" lon="5.32546">
        <ele>687.48</ele>
        <time>2016-06-19T12:46:01Z</time>
      </trkpt>
      <trkpt lat="44.05765" lon="5.32533">
        <ele>687</ele>
        <time>2016-06-19T12:46:02Z</time>
      </trkpt>
      <trkpt lat="44.05772" lon="5.32516">
        <ele>686.52</ele>
        <time>2016-06-19T12:46:03Z</time>
      </trkpt>
      <trkpt lat="44.0578" lon="5.325">
        <ele>686.04</ele>
        <time>2016-06-19T12:46:04Z</time>
      </trkpt>
      <trkpt lat="44.05788" lon="5.32485">
        <ele>685.56</ele>
        <time>2016-06-19T12:46:05Z</time>
      </trkpt>
      <trkpt lat="44.05798" lon="5.32471">
        <ele>684.6</ele>
        <time>2016-06-19T12:46:06Z</time>
      </trkpt>
      <trkpt lat="44.05809" lon="5.32458">
        <ele>684.12</ele>
        <time>2016-06-19T12:46:07Z</time>
      </trkpt>
      <trkpt lat="44.05821" lon="5.32446">
        <ele>683.63</ele>
        <time>2016-06-19T12:46:08Z</time>
      </trkpt>
      <trkpt lat="44.05835" lon="5.32435">
        <ele>683.63</ele>
        <time>2016-06-19T12:46:09Z</time>
      </trkpt>
      <trkpt lat="44.0593" lon="5.32351">
        <ele>680.27</ele>
        <time>2016-06-19T12:46:16Z</time>
      </trkpt>
      <trkpt lat="44.05939" lon="5.32334">
        <ele>680.75</ele>
        <time>2016-06-19T12:46:17Z</time>
      </trkpt>
      <trkpt lat="44.05948" lon="5.32315">
        <ele>680.27</ele>
        <time>2016-06-19T12:46:18Z</time>
      </trkpt>
      <trkpt lat="44.05955" lon="5.32296">
        <ele>680.27</ele>
        <time>2016-06-19T12:46:19Z</time>
      </trkpt>
      <trkpt lat="44.05962" lon="5.32277">
        <ele>680.27</ele>
        <time>2016-06-19T12:46:20Z</time>
      </trkpt>
      <trkpt lat="44.05972" lon="5.32239">
        <ele>680.27</ele>
        <time>2016-06-19T12:46:22Z</time>
      </trkpt>
      <trkpt lat="44.05975" lon="5.3222">
        <ele>679.79</ele>
        <time>2016-06-19T12:46:23Z</time>
      </trkpt>
      <trkpt lat="44.05975" lon="5.32202">
        <ele>679.79</ele>
        <time>2016-06-19T12:46:24Z</time>
      </trkpt>
      <trkpt lat="44.05974" lon="5.32184">
        <ele>679.31</ele>
        <time>2016-06-19T12:46:25Z</time>
      </trkpt>
      <trkpt lat="44.0597" lon="5.32168">
        <ele>678.83</ele>
        <time>2016-06-19T12:46:26Z</time>
      </trkpt>
      <trkpt lat="44.05966" lon="5.32152">
        <ele>678.35</ele>
        <time>2016-06-19T12:46:27Z</time>
      </trkpt>
      <trkpt lat="44.05964" lon="5.32136">
        <ele>677.39</ele>
        <time>2016-06-19T12:46:28Z</time>
      </trkpt>
      <trkpt lat="44.05964" lon="5.3212">
        <ele>677.39</ele>
        <time>2016-06-19T12:46:29Z</time>
      </trkpt>
      <trkpt lat="44.0597" lon="5.32109">
        <ele>677.39</ele>
        <time>2016-06-19T12:46:30Z</time>
      </trkpt>
      <trkpt lat="44.05982" lon="5.32102">
        <ele>677.39</ele>
        <time>2016-06-19T12:46:31Z</time>
      </trkpt>
      <trkpt lat="44.05996" lon="5.32095">
        <ele>676.91</ele>
        <time>2016-06-19T12:46:32Z</time>
      </trkpt>
      <trkpt lat="44.06013" lon="5.3209">
        <ele>676.42</ele>
        <time>2016-06-19T12:46:33Z</time>
      </trkpt>
      <trkpt lat="44.06031" lon="5.32086">
        <ele>675.94</ele>
        <time>2016-06-19T12:46:34Z</time>
      </trkpt>
      <trkpt lat="44.06046" lon="5.3208">
        <ele>675.46</ele>
        <time>2016-06-19T12:46:35Z</time>
      </trkpt>
      <trkpt lat="44.06061" lon="5.32076">
        <ele>674.98</ele>
        <time>2016-06-19T12:46:36Z</time>
      </trkpt>
      <trkpt lat="44.06075" lon="5.32077">
        <ele>674.5</ele>
        <time>2016-06-19T12:46:37Z</time>
      </trkpt>
      <trkpt lat="44.06089" lon="5.32079">
        <ele>674.02</ele>
        <time>2016-06-19T12:46:38Z</time>
      </trkpt>
      <trkpt lat="44.06103" lon="5.32082">
        <ele>673.54</ele>
        <time>2016-06-19T12:46:39Z</time>
      </trkpt>
      <trkpt lat="44.06116" lon="5.32081">
        <ele>673.06</ele>
        <time>2016-06-19T12:46:40Z</time>
      </trkpt>
      <trkpt lat="44.06132" lon="5.32072">
        <ele>673.06</ele>
        <time>2016-06-19T12:46:41Z</time>
      </trkpt>
      <trkpt lat="44.0615" lon="5.32061">
        <ele>672.1</ele>
        <time>2016-06-19T12:46:42Z</time>
      </trkpt>
      <trkpt lat="44.06279" lon="5.31993">
        <ele>665.85</ele>
        <time>2016-06-19T12:46:49Z</time>
      </trkpt>
      <trkpt lat="44.06297" lon="5.31991">
        <ele>664.89</ele>
        <time>2016-06-19T12:46:50Z</time>
      </trkpt>
      <trkpt lat="44.06315" lon="5.3199">
        <ele>664.41</ele>
        <time>2016-06-19T12:46:51Z</time>
      </trkpt>
      <trkpt lat="44.06333" lon="5.31993">
        <ele>663.93</ele>
        <time>2016-06-19T12:46:52Z</time>
      </trkpt>
      <trkpt lat="44.06352" lon="5.31996">
        <ele>662.97</ele>
        <time>2016-06-19T12:46:53Z</time>
      </trkpt>
      <trkpt lat="44.06403" lon="5.31997">
        <ele>660.08</ele>
        <time>2016-06-19T12:46:56Z</time>
      </trkpt>
      <trkpt lat="44.06418" lon="5.31992">
        <ele>659.6</ele>
        <time>2016-06-19T12:46:57Z</time>
      </trkpt>
      <trkpt lat="44.06432" lon="5.31988">
        <ele>659.12</ele>
        <time>2016-06-19T12:46:58Z</time>
      </trkpt>
      <trkpt lat="44.06445" lon="5.3199">
        <ele>658.16</ele>
        <time>2016-06-19T12:46:59Z</time>
      </trkpt>
      <trkpt lat="44.06458" lon="5.31997">
        <ele>657.2</ele>
        <time>2016-06-19T12:47:00Z</time>
      </trkpt>
      <trkpt lat="44.06467" lon="5.32032">
        <ele>656.24</ele>
        <time>2016-06-19T12:47:02Z</time>
      </trkpt>
      <trkpt lat="44.06464" lon="5.32052">
        <ele>655.76</ele>
        <time>2016-06-19T12:47:03Z</time>
      </trkpt>
      <trkpt lat="44.06459" lon="5.32072">
        <ele>655.76</ele>
        <time>2016-06-19T12:47:04Z</time>
      </trkpt>
      <trkpt lat="44.06449" lon="5.32091">
        <ele>654.8</ele>
        <time>2016-06-19T12:47:05Z</time>
      </trkpt>
      <trkpt lat="44.06436" lon="5.3211">
        <ele>653.83</ele>
        <time>2016-06-19T12:47:06Z</time>
      </trkpt>
      <trkpt lat="44.06421" lon="5.32127">
        <ele>652.87</ele>
        <time>2016-06-19T12:47:07Z</time>
      </trkpt>
      <trkpt lat="44.06407" lon="5.32141">
        <ele>652.39</ele>
        <time>2016-06-19T12:47:08Z</time>
      </trkpt>
      <trkpt lat="44.06392" lon="5.32152">
        <ele>651.43</ele>
        <time>2016-06-19T12:47:09Z</time>
      </trkpt>
      <trkpt lat="44.0638" lon="5.32162">
        <ele>650.95</ele>
        <time>2016-06-19T12:47:10Z</time>
      </trkpt>
      <trkpt lat="44.06361" lon="5.32185">
        <ele>650.47</ele>
        <time>2016-06-19T12:47:12Z</time>
      </trkpt>
      <trkpt lat="44.06354" lon="5.32198">
        <ele>649.51</ele>
        <time>2016-06-19T12:47:13Z</time>
      </trkpt>
      <trkpt lat="44.06352" lon="5.3221">
        <ele>647.59</ele>
        <time>2016-06-19T12:47:14Z</time>
      </trkpt>
      <trkpt lat="44.06354" lon="5.32221">
        <ele>646.14</ele>
        <time>2016-06-19T12:47:15Z</time>
      </trkpt>
      <trkpt lat="44.06362" lon="5.32232">
        <ele>644.22</ele>
        <time>2016-06-19T12:47:16Z</time>
      </trkpt>
      <trkpt lat="44.06373" lon="5.32243">
        <ele>643.26</ele>
        <time>2016-06-19T12:47:17Z</time>
      </trkpt>
      <trkpt lat="44.06384" lon="5.32255">
        <ele>642.78</ele>
        <time>2016-06-19T12:47:18Z</time>
      </trkpt>
      <trkpt lat="44.06394" lon="5.32267">
        <ele>643.26</ele>
        <time>2016-06-19T12:47:19Z</time>
      </trkpt>
      <trkpt lat="44.06422" lon="5.32305">
        <ele>645.66</ele>
        <time>2016-06-19T12:47:23Z</time>
      </trkpt>
      <trkpt lat="44.06443" lon="5.32348">
        <ele>644.7</ele>
        <time>2016-06-19T12:47:32Z</time>
      </trkpt>
      <trkpt lat="44.06446" lon="5.32347">
        <ele>647.59</ele>
        <time>2016-06-19T12:48:04Z</time>
      </trkpt>
      <trkpt lat="44.06445" lon="5.32353">
        <ele>645.66</ele>
        <time>2016-06-19T12:49:20Z</time>
      </trkpt>
      <trkpt lat="44.06462" lon="5.32399">
        <ele>645.18</ele>
        <time>2016-06-19T12:49:24Z</time>
      </trkpt>
      <trkpt lat="44.0647" lon="5.32411">
        <ele>644.7</ele>
        <time>2016-06-19T12:49:25Z</time>
      </trkpt>
      <trkpt lat="44.06481" lon="5.3242">
        <ele>644.7</ele>
        <time>2016-06-19T12:49:26Z</time>
      </trkpt>
      <trkpt lat="44.06495" lon="5.32429">
        <ele>644.22</ele>
        <time>2016-06-19T12:49:27Z</time>
      </trkpt>
      <trkpt lat="44.06512" lon="5.3244">
        <ele>643.74</ele>
        <time>2016-06-19T12:49:28Z</time>
      </trkpt>
      <trkpt lat="44.06619" lon="5.32505">
        <ele>639.41</ele>
        <time>2016-06-19T12:49:33Z</time>
      </trkpt>
      <trkpt lat="44.0672" lon="5.32542">
        <ele>635.09</ele>
        <time>2016-06-19T12:49:39Z</time>
      </trkpt>
      <trkpt lat="44.0673" lon="5.32535">
        <ele>634.13</ele>
        <time>2016-06-19T12:49:40Z</time>
      </trkpt>
      <trkpt lat="44.06741" lon="5.32519">
        <ele>632.68</ele>
        <time>2016-06-19T12:49:41Z</time>
      </trkpt>
      <trkpt lat="44.06741" lon="5.32502">
        <ele>631.24</ele>
        <time>2016-06-19T12:49:42Z</time>
      </trkpt>
      <trkpt lat="44.06737" lon="5.32484">
        <ele>630.28</ele>
        <time>2016-06-19T12:49:43Z</time>
      </trkpt>
      <trkpt lat="44.0673" lon="5.32468">
        <ele>628.84</ele>
        <time>2016-06-19T12:49:44Z</time>
      </trkpt>
      <trkpt lat="44.06718" lon="5.32453">
        <ele>627.88</ele>
        <time>2016-06-19T12:49:45Z</time>
      </trkpt>
      <trkpt lat="44.06704" lon="5.32437">
        <ele>626.92</ele>
        <time>2016-06-19T12:49:46Z</time>
      </trkpt>
      <trkpt lat="44.06687" lon="5.32417">
        <ele>626.44</ele>
        <time>2016-06-19T12:49:47Z</time>
      </trkpt>
      <trkpt lat="44.06671" lon="5.32396">
        <ele>624.51</ele>
        <time>2016-06-19T12:49:48Z</time>
      </trkpt>
      <trkpt lat="44.06605" lon="5.32313">
        <ele>620.19</ele>
        <time>2016-06-19T12:49:53Z</time>
      </trkpt>
      <trkpt lat="44.06586" lon="5.32292">
        <ele>619.23</ele>
        <time>2016-06-19T12:49:55Z</time>
      </trkpt>
      <trkpt lat="44.06582" lon="5.32275">
        <ele>618.26</ele>
        <time>2016-06-19T12:49:56Z</time>
      </trkpt>
      <trkpt lat="44.06578" lon="5.32258">
        <ele>618.26</ele>
        <time>2016-06-19T12:49:57Z</time>
      </trkpt>
      <trkpt lat="44.06581" lon="5.32243">
        <ele>619.23</ele>
        <time>2016-06-19T12:49:58Z</time>
      </trkpt>
      <trkpt lat="44.06587" lon="5.32226">
        <ele>619.71</ele>
        <time>2016-06-19T12:49:59Z</time>
      </trkpt>
      <trkpt lat="44.06593" lon="5.32209">
        <ele>620.67</ele>
        <time>2016-06-19T12:50:00Z</time>
      </trkpt>
      <trkpt lat="44.06603" lon="5.32192">
        <ele>623.55</ele>
        <time>2016-06-19T12:50:01Z</time>
      </trkpt>
      <trkpt lat="44.06616" lon="5.32176">
        <ele>625.47</ele>
        <time>2016-06-19T12:50:02Z</time>
      </trkpt>
      <trkpt lat="44.0663" lon="5.32164">
        <ele>627.4</ele>
        <time>2016-06-19T12:50:03Z</time>
      </trkpt>
      <trkpt lat="44.06645" lon="5.32154">
        <ele>629.32</ele>
        <time>2016-06-19T12:50:04Z</time>
      </trkpt>
      <trkpt lat="44.06659" lon="5.32157">
        <ele>628.84</ele>
        <time>2016-06-19T12:50:05Z</time>
      </trkpt>
      <trkpt lat="44.06675" lon="5.32166">
        <ele>628.84</ele>
        <time>2016-06-19T12:50:06Z</time>
      </trkpt>
      <trkpt lat="44.06691" lon="5.32173">
        <ele>628.84</ele>
        <time>2016-06-19T12:50:07Z</time>
      </trkpt>
      <trkpt lat="44.06708" lon="5.3218">
        <ele>628.84</ele>
        <time>2016-06-19T12:50:08Z</time>
      </trkpt>
      <trkpt lat="44.06726" lon="5.32183">
        <ele>628.36</ele>
        <time>2016-06-19T12:50:09Z</time>
      </trkpt>
      <trkpt lat="44.06743" lon="5.32183">
        <ele>628.36</ele>
        <time>2016-06-19T12:50:10Z</time>
      </trkpt>
      <trkpt lat="44.06761" lon="5.32179">
        <ele>628.84</ele>
        <time>2016-06-19T12:50:11Z</time>
      </trkpt>
      <trkpt lat="44.06777" lon="5.32171">
        <ele>628.84</ele>
        <time>2016-06-19T12:50:12Z</time>
      </trkpt>
      <trkpt lat="44.06792" lon="5.32161">
        <ele>628.84</ele>
        <time>2016-06-19T12:50:13Z</time>
      </trkpt>
      <trkpt lat="44.06805" lon="5.32151">
        <ele>628.84</ele>
        <time>2016-06-19T12:50:14Z</time>
      </trkpt>
      <trkpt lat="44.06812" lon="5.32137">
        <ele>628.36</ele>
        <time>2016-06-19T12:50:15Z</time>
      </trkpt>
      <trkpt lat="44.06815" lon="5.3212">
        <ele>628.36</ele>
        <time>2016-06-19T12:50:16Z</time>
      </trkpt>
      <trkpt lat="44.06813" lon="5.32103">
        <ele>628.84</ele>
        <time>2016-06-19T12:50:17Z</time>
      </trkpt>
      <trkpt lat="44.06806" lon="5.32089">
        <ele>629.32</ele>
        <time>2016-06-19T12:50:18Z</time>
      </trkpt>
      <trkpt lat="44.06798" lon="5.3207">
        <ele>632.2</ele>
        <time>2016-06-19T12:50:19Z</time>
      </trkpt>
      <trkpt lat="44.06789" lon="5.32056">
        <ele>629.32</ele>
        <time>2016-06-19T12:50:20Z</time>
      </trkpt>
      <trkpt lat="44.0678" lon="5.32049">
        <ele>624.03</ele>
        <time>2016-06-19T12:50:21Z</time>
      </trkpt>
      <trkpt lat="44.06769" lon="5.32047">
        <ele>620.67</ele>
        <time>2016-06-19T12:50:22Z</time>
      </trkpt>
      <trkpt lat="44.06758" lon="5.32043">
        <ele>620.19</ele>
        <time>2016-06-19T12:50:23Z</time>
      </trkpt>
      <trkpt lat="44.06748" lon="5.3203">
        <ele>618.26</ele>
        <time>2016-06-19T12:50:24Z</time>
      </trkpt>
      <trkpt lat="44.06739" lon="5.32011">
        <ele>617.3</ele>
        <time>2016-06-19T12:50:25Z</time>
      </trkpt>
      <trkpt lat="44.06732" lon="5.3199">
        <ele>616.34</ele>
        <time>2016-06-19T12:50:26Z</time>
      </trkpt>
      <trkpt lat="44.06722" lon="5.31943">
        <ele>614.9</ele>
        <time>2016-06-19T12:50:28Z</time>
      </trkpt>
      <trkpt lat="44.06719" lon="5.31915">
        <ele>613.46</ele>
        <time>2016-06-19T12:50:29Z</time>
      </trkpt>
      <trkpt lat="44.06718" lon="5.31888">
        <ele>612.5</ele>
        <time>2016-06-19T12:50:30Z</time>
      </trkpt>
      <trkpt lat="44.06719" lon="5.31862">
        <ele>611.06</ele>
        <time>2016-06-19T12:50:31Z</time>
      </trkpt>
      <trkpt lat="44.0672" lon="5.31837">
        <ele>610.09</ele>
        <time>2016-06-19T12:50:32Z</time>
      </trkpt>
      <trkpt lat="44.06735" lon="5.31791">
        <ele>608.65</ele>
        <time>2016-06-19T12:50:34Z</time>
      </trkpt>
      <trkpt lat="44.06742" lon="5.31764">
        <ele>608.17</ele>
        <time>2016-06-19T12:50:35Z</time>
      </trkpt>
      <trkpt lat="44.06746" lon="5.31737">
        <ele>607.21</ele>
        <time>2016-06-19T12:50:36Z</time>
      </trkpt>
      <trkpt lat="44.0675" lon="5.31711">
        <ele>607.21</ele>
        <time>2016-06-19T12:50:37Z</time>
      </trkpt>
      <trkpt lat="44.06755" lon="5.31687">
        <ele>606.25</ele>
        <time>2016-06-19T12:50:38Z</time>
      </trkpt>
      <trkpt lat="44.06758" lon="5.31664">
        <ele>604.81</ele>
        <time>2016-06-19T12:50:39Z</time>
      </trkpt>
      <trkpt lat="44.06758" lon="5.31642">
        <ele>602.88</ele>
        <time>2016-06-19T12:50:40Z</time>
      </trkpt>
      <trkpt lat="44.06752" lon="5.31624">
        <ele>601.44</ele>
        <time>2016-06-19T12:50:41Z</time>
      </trkpt>
      <trkpt lat="44.06745" lon="5.31606">
        <ele>600</ele>
        <time>2016-06-19T12:50:42Z</time>
      </trkpt>
      <trkpt lat="44.06739" lon="5.31587">
        <ele>599.52</ele>
        <time>2016-06-19T12:50:43Z</time>
      </trkpt>
      <trkpt lat="44.06725" lon="5.31548">
        <ele>598.08</ele>
        <time>2016-06-19T12:50:45Z</time>
      </trkpt>
      <trkpt lat="44.06716" lon="5.31529">
        <ele>597.12</ele>
        <time>2016-06-19T12:50:46Z</time>
      </trkpt>
      <trkpt lat="44.06702" lon="5.31516">
        <ele>595.67</ele>
        <time>2016-06-19T12:50:47Z</time>
      </trkpt>
      <trkpt lat="44.06686" lon="5.31508">
        <ele>595.19</ele>
        <time>2016-06-19T12:50:48Z</time>
      </trkpt>
      <trkpt lat="44.06672" lon="5.31503">
        <ele>594.23</ele>
        <time>2016-06-19T12:50:49Z</time>
      </trkpt>
      <trkpt lat="44.06658" lon="5.31499">
        <ele>594.23</ele>
        <time>2016-06-19T12:50:50Z</time>
      </trkpt>
      <trkpt lat="44.06645" lon="5.31491">
        <ele>594.23</ele>
        <time>2016-06-19T12:50:51Z</time>
      </trkpt>
      <trkpt lat="44.06635" lon="5.3148">
        <ele>593.75</ele>
        <time>2016-06-19T12:50:52Z</time>
      </trkpt>
      <trkpt lat="44.06624" lon="5.3147">
        <ele>593.27</ele>
        <time>2016-06-19T12:50:53Z</time>
      </trkpt>
      <trkpt lat="44.06609" lon="5.31465">
        <ele>593.27</ele>
        <time>2016-06-19T12:50:54Z</time>
      </trkpt>
      <trkpt lat="44.06595" lon="5.31462">
        <ele>593.27</ele>
        <time>2016-06-19T12:50:55Z</time>
      </trkpt>
      <trkpt lat="44.06582" lon="5.31468">
        <ele>591.83</ele>
        <time>2016-06-19T12:50:56Z</time>
      </trkpt>
      <trkpt lat="44.06572" lon="5.3148">
        <ele>591.83</ele>
        <time>2016-06-19T12:50:57Z</time>
      </trkpt>
      <trkpt lat="44.0656" lon="5.31493">
        <ele>592.79</ele>
        <time>2016-06-19T12:50:58Z</time>
      </trkpt>
      <trkpt lat="44.06546" lon="5.31506">
        <ele>592.31</ele>
        <time>2016-06-19T12:50:59Z</time>
      </trkpt>
      <trkpt lat="44.06516" lon="5.31517">
        <ele>591.35</ele>
        <time>2016-06-19T12:51:01Z</time>
      </trkpt>
      <trkpt lat="44.06499" lon="5.31516">
        <ele>591.83</ele>
        <time>2016-06-19T12:51:02Z</time>
      </trkpt>
      <trkpt lat="44.06481" lon="5.31513">
        <ele>591.35</ele>
        <time>2016-06-19T12:51:03Z</time>
      </trkpt>
      <trkpt lat="44.06465" lon="5.31513">
        <ele>590.87</ele>
        <time>2016-06-19T12:51:04Z</time>
      </trkpt>
      <trkpt lat="44.0645" lon="5.31518">
        <ele>590.39</ele>
        <time>2016-06-19T12:51:05Z</time>
      </trkpt>
      <trkpt lat="44.06436" lon="5.31527">
        <ele>590.39</ele>
        <time>2016-06-19T12:51:06Z</time>
      </trkpt>
      <trkpt lat="44.06423" lon="5.31535">
        <ele>589.43</ele>
        <time>2016-06-19T12:51:07Z</time>
      </trkpt>
      <trkpt lat="44.0641" lon="5.31541">
        <ele>588.95</ele>
        <time>2016-06-19T12:51:08Z</time>
      </trkpt>
      <trkpt lat="44.06398" lon="5.31539">
        <ele>587.98</ele>
        <time>2016-06-19T12:51:09Z</time>
      </trkpt>
      <trkpt lat="44.06385" lon="5.31531">
        <ele>587.5</ele>
        <time>2016-06-19T12:51:10Z</time>
      </trkpt>
      <trkpt lat="44.06371" lon="5.31518">
        <ele>587.02</ele>
        <time>2016-06-19T12:51:11Z</time>
      </trkpt>
      <trkpt lat="44.0636" lon="5.31501">
        <ele>586.54</ele>
        <time>2016-06-19T12:51:12Z</time>
      </trkpt>
      <trkpt lat="44.06352" lon="5.3149">
        <ele>586.54</ele>
        <time>2016-06-19T12:51:13Z</time>
      </trkpt>
      <trkpt lat="44.06348" lon="5.31472">
        <ele>587.02</ele>
        <time>2016-06-19T12:51:14Z</time>
      </trkpt>
      <trkpt lat="44.06345" lon="5.31458">
        <ele>587.02</ele>
        <time>2016-06-19T12:51:15Z</time>
      </trkpt>
      <trkpt lat="44.06345" lon="5.31446">
        <ele>587.5</ele>
        <time>2016-06-19T12:51:16Z</time>
      </trkpt>
      <trkpt lat="44.06349" lon="5.31431">
        <ele>586.06</ele>
        <time>2016-06-19T12:51:17Z</time>
      </trkpt>
      <trkpt lat="44.06358" lon="5.31421">
        <ele>584.62</ele>
        <time>2016-06-19T12:51:18Z</time>
      </trkpt>
      <trkpt lat="44.0637" lon="5.3141">
        <ele>584.62</ele>
        <time>2016-06-19T12:51:19Z</time>
      </trkpt>
      <trkpt lat="44.06386" lon="5.31401">
        <ele>584.14</ele>
        <time>2016-06-19T12:51:20Z</time>
      </trkpt>
      <trkpt lat="44.06402" lon="5.31393">
        <ele>583.18</ele>
        <time>2016-06-19T12:51:21Z</time>
      </trkpt>
      <trkpt lat="44.0642" lon="5.31385">
        <ele>583.18</ele>
        <time>2016-06-19T12:51:22Z</time>
      </trkpt>
      <trkpt lat="44.06441" lon="5.31377">
        <ele>582.7</ele>
        <time>2016-06-19T12:51:23Z</time>
      </trkpt>
      <trkpt lat="44.0646" lon="5.31368">
        <ele>580.77</ele>
        <time>2016-06-19T12:51:24Z</time>
      </trkpt>
      <trkpt lat="44.0648" lon="5.31354">
        <ele>580.29</ele>
        <time>2016-06-19T12:51:25Z</time>
      </trkpt>
      <trkpt lat="44.06499" lon="5.31337">
        <ele>579.81</ele>
        <time>2016-06-19T12:51:26Z</time>
      </trkpt>
      <trkpt lat="44.06518" lon="5.31317">
        <ele>579.33</ele>
        <time>2016-06-19T12:51:27Z</time>
      </trkpt>
      <trkpt lat="44.06534" lon="5.31293">
        <ele>579.33</ele>
        <time>2016-06-19T12:51:28Z</time>
      </trkpt>
      <trkpt lat="44.06549" lon="5.31267">
        <ele>578.85</ele>
        <time>2016-06-19T12:51:29Z</time>
      </trkpt>
      <trkpt lat="44.06561" lon="5.3124">
        <ele>579.33</ele>
        <time>2016-06-19T12:51:30Z</time>
      </trkpt>
      <trkpt lat="44.06573" lon="5.31214">
        <ele>578.85</ele>
        <time>2016-06-19T12:51:31Z</time>
      </trkpt>
      <trkpt lat="44.06601" lon="5.31155">
        <ele>577.89</ele>
        <time>2016-06-19T12:51:34Z</time>
      </trkpt>
      <trkpt lat="44.0661" lon="5.31142">
        <ele>577.89</ele>
        <time>2016-06-19T12:51:35Z</time>
      </trkpt>
      <trkpt lat="44.0662" lon="5.31133">
        <ele>577.41</ele>
        <time>2016-06-19T12:51:36Z</time>
      </trkpt>
      <trkpt lat="44.06629" lon="5.31128">
        <ele>577.41</ele>
        <time>2016-06-19T12:51:37Z</time>
      </trkpt>
      <trkpt lat="44.0664" lon="5.31124">
        <ele>576.93</ele>
        <time>2016-06-19T12:51:38Z</time>
      </trkpt>
      <trkpt lat="44.06653" lon="5.31122">
        <ele>576.93</ele>
        <time>2016-06-19T12:51:39Z</time>
      </trkpt>
      <trkpt lat="44.06665" lon="5.3112">
        <ele>576.45</ele>
        <time>2016-06-19T12:51:40Z</time>
      </trkpt>
      <trkpt lat="44.06758" lon="5.31102">
        <ele>575.49</ele>
        <time>2016-06-19T12:51:47Z</time>
      </trkpt>
      <trkpt lat="44.06763" lon="5.31088">
        <ele>574.53</ele>
        <time>2016-06-19T12:51:48Z</time>
      </trkpt>
      <trkpt lat="44.06762" lon="5.3107">
        <ele>574.04</ele>
        <time>2016-06-19T12:51:49Z</time>
      </trkpt>
      <trkpt lat="44.06756" lon="5.3105">
        <ele>573.08</ele>
        <time>2016-06-19T12:51:50Z</time>
      </trkpt>
      <trkpt lat="44.06745" lon="5.31032">
        <ele>572.6</ele>
        <time>2016-06-19T12:51:51Z</time>
      </trkpt>
      <trkpt lat="44.06732" lon="5.31014">
        <ele>572.12</ele>
        <time>2016-06-19T12:51:52Z</time>
      </trkpt>
      <trkpt lat="44.06715" lon="5.30996">
        <ele>572.12</ele>
        <time>2016-06-19T12:51:53Z</time>
      </trkpt>
      <trkpt lat="44.06696" lon="5.3098">
        <ele>571.16</ele>
        <time>2016-06-19T12:51:54Z</time>
      </trkpt>
      <trkpt lat="44.0668" lon="5.30966">
        <ele>570.68</ele>
        <time>2016-06-19T12:51:55Z</time>
      </trkpt>
      <trkpt lat="44.06665" lon="5.3095">
        <ele>570.68</ele>
        <time>2016-06-19T12:51:56Z</time>
      </trkpt>
      <trkpt lat="44.06653" lon="5.30933">
        <ele>570.2</ele>
        <time>2016-06-19T12:51:57Z</time>
      </trkpt>
      <trkpt lat="44.06644" lon="5.30915">
        <ele>569.72</ele>
        <time>2016-06-19T12:51:58Z</time>
      </trkpt>
      <trkpt lat="44.06635" lon="5.30899">
        <ele>570.2</ele>
        <time>2016-06-19T12:51:59Z</time>
      </trkpt>
      <trkpt lat="44.0663" lon="5.30885">
        <ele>569.24</ele>
        <time>2016-06-19T12:52:00Z</time>
      </trkpt>
      <trkpt lat="44.06626" lon="5.30871">
        <ele>569.72</ele>
        <time>2016-06-19T12:52:01Z</time>
      </trkpt>
      <trkpt lat="44.06631" lon="5.30855">
        <ele>568.76</ele>
        <time>2016-06-19T12:52:02Z</time>
      </trkpt>
      <trkpt lat="44.06637" lon="5.30839">
        <ele>567.8</ele>
        <time>2016-06-19T12:52:03Z</time>
      </trkpt>
      <trkpt lat="44.06646" lon="5.30823">
        <ele>566.83</ele>
        <time>2016-06-19T12:52:04Z</time>
      </trkpt>
      <trkpt lat="44.06657" lon="5.30806">
        <ele>566.83</ele>
        <time>2016-06-19T12:52:05Z</time>
      </trkpt>
      <trkpt lat="44.06669" lon="5.3079">
        <ele>566.35</ele>
        <time>2016-06-19T12:52:06Z</time>
      </trkpt>
      <trkpt lat="44.06682" lon="5.30774">
        <ele>565.39</ele>
        <time>2016-06-19T12:52:07Z</time>
      </trkpt>
      <trkpt lat="44.06695" lon="5.30758">
        <ele>564.91</ele>
        <time>2016-06-19T12:52:08Z</time>
      </trkpt>
      <trkpt lat="44.06736" lon="5.30717">
        <ele>563.95</ele>
        <time>2016-06-19T12:52:11Z</time>
      </trkpt>
      <trkpt lat="44.06753" lon="5.30707">
        <ele>563.47</ele>
        <time>2016-06-19T12:52:12Z</time>
      </trkpt>
      <trkpt lat="44.0677" lon="5.30698">
        <ele>562.99</ele>
        <time>2016-06-19T12:52:13Z</time>
      </trkpt>
      <trkpt lat="44.0683" lon="5.30668">
        <ele>560.11</ele>
        <time>2016-06-19T12:52:17Z</time>
      </trkpt>
      <trkpt lat="44.06841" lon="5.30655">
        <ele>559.14</ele>
        <time>2016-06-19T12:52:18Z</time>
      </trkpt>
      <trkpt lat="44.06851" lon="5.30641">
        <ele>557.7</ele>
        <time>2016-06-19T12:52:19Z</time>
      </trkpt>
      <trkpt lat="44.06861" lon="5.30629">
        <ele>557.22</ele>
        <time>2016-06-19T12:52:20Z</time>
      </trkpt>
      <trkpt lat="44.06873" lon="5.30619">
        <ele>557.22</ele>
        <time>2016-06-19T12:52:21Z</time>
      </trkpt>
      <trkpt lat="44.06886" lon="5.3061">
        <ele>557.22</ele>
        <time>2016-06-19T12:52:22Z</time>
      </trkpt>
      <trkpt lat="44.069" lon="5.30603">
        <ele>556.74</ele>
        <time>2016-06-19T12:52:23Z</time>
      </trkpt>
      <trkpt lat="44.06948" lon="5.30568">
        <ele>555.78</ele>
        <time>2016-06-19T12:52:27Z</time>
      </trkpt>
      <trkpt lat="44.06955" lon="5.30554">
        <ele>555.78</ele>
        <time>2016-06-19T12:52:28Z</time>
      </trkpt>
      <trkpt lat="44.06957" lon="5.30538">
        <ele>555.78</ele>
        <time>2016-06-19T12:52:29Z</time>
      </trkpt>
      <trkpt lat="44.06952" lon="5.30523">
        <ele>555.3</ele>
        <time>2016-06-19T12:52:30Z</time>
      </trkpt>
      <trkpt lat="44.06941" lon="5.30511">
        <ele>555.3</ele>
        <time>2016-06-19T12:52:31Z</time>
      </trkpt>
      <trkpt lat="44.06925" lon="5.30502">
        <ele>554.82</ele>
        <time>2016-06-19T12:52:32Z</time>
      </trkpt>
      <trkpt lat="44.06906" lon="5.30499">
        <ele>554.34</ele>
        <time>2016-06-19T12:52:33Z</time>
      </trkpt>
      <trkpt lat="44.06887" lon="5.30498">
        <ele>553.86</ele>
        <time>2016-06-19T12:52:34Z</time>
      </trkpt>
      <trkpt lat="44.06869" lon="5.30495">
        <ele>552.9</ele>
        <time>2016-06-19T12:52:35Z</time>
      </trkpt>
      <trkpt lat="44.06853" lon="5.3049">
        <ele>552.41</ele>
        <time>2016-06-19T12:52:36Z</time>
      </trkpt>
      <trkpt lat="44.06838" lon="5.30485">
        <ele>551.93</ele>
        <time>2016-06-19T12:52:37Z</time>
      </trkpt>
      <trkpt lat="44.06822" lon="5.30481">
        <ele>551.93</ele>
        <time>2016-06-19T12:52:38Z</time>
      </trkpt>
      <trkpt lat="44.06807" lon="5.3048">
        <ele>551.45</ele>
        <time>2016-06-19T12:52:39Z</time>
      </trkpt>
      <trkpt lat="44.06792" lon="5.30481">
        <ele>551.93</ele>
        <time>2016-06-19T12:52:40Z</time>
      </trkpt>
      <trkpt lat="44.06779" lon="5.30484">
        <ele>551.45</ele>
        <time>2016-06-19T12:52:41Z</time>
      </trkpt>
      <trkpt lat="44.06765" lon="5.30487">
        <ele>550.49</ele>
        <time>2016-06-19T12:52:42Z</time>
      </trkpt>
      <trkpt lat="44.06737" lon="5.30489">
        <ele>550.01</ele>
        <time>2016-06-19T12:52:44Z</time>
      </trkpt>
      <trkpt lat="44.06722" lon="5.30484">
        <ele>550.01</ele>
        <time>2016-06-19T12:52:45Z</time>
      </trkpt>
      <trkpt lat="44.06706" lon="5.30478">
        <ele>549.05</ele>
        <time>2016-06-19T12:52:46Z</time>
      </trkpt>
      <trkpt lat="44.06674" lon="5.30469">
        <ele>549.05</ele>
        <time>2016-06-19T12:52:48Z</time>
      </trkpt>
      <trkpt lat="44.06658" lon="5.3047">
        <ele>549.05</ele>
        <time>2016-06-19T12:52:49Z</time>
      </trkpt>
      <trkpt lat="44.06612" lon="5.30473">
        <ele>548.09</ele>
        <time>2016-06-19T12:52:52Z</time>
      </trkpt>
      <trkpt lat="44.066" lon="5.30467">
        <ele>547.13</ele>
        <time>2016-06-19T12:52:53Z</time>
      </trkpt>
      <trkpt lat="44.06588" lon="5.30455">
        <ele>546.65</ele>
        <time>2016-06-19T12:52:54Z</time>
      </trkpt>
      <trkpt lat="44.06575" lon="5.30442">
        <ele>546.65</ele>
        <time>2016-06-19T12:52:55Z</time>
      </trkpt>
      <trkpt lat="44.06563" lon="5.30424">
        <ele>545.69</ele>
        <time>2016-06-19T12:52:56Z</time>
      </trkpt>
      <trkpt lat="44.06552" lon="5.30404">
        <ele>545.2</ele>
        <time>2016-06-19T12:52:57Z</time>
      </trkpt>
      <trkpt lat="44.06542" lon="5.30383">
        <ele>543.76</ele>
        <time>2016-06-19T12:52:58Z</time>
      </trkpt>
      <trkpt lat="44.06532" lon="5.30364">
        <ele>542.32</ele>
        <time>2016-06-19T12:52:59Z</time>
      </trkpt>
      <trkpt lat="44.06519" lon="5.30346">
        <ele>543.28</ele>
        <time>2016-06-19T12:53:00Z</time>
      </trkpt>
      <trkpt lat="44.06505" lon="5.3033">
        <ele>542.8</ele>
        <time>2016-06-19T12:53:01Z</time>
      </trkpt>
      <trkpt lat="44.0649" lon="5.30316">
        <ele>542.32</ele>
        <time>2016-06-19T12:53:02Z</time>
      </trkpt>
      <trkpt lat="44.06475" lon="5.30303">
        <ele>541.84</ele>
        <time>2016-06-19T12:53:03Z</time>
      </trkpt>
      <trkpt lat="44.0639" lon="5.30217">
        <ele>537.51</ele>
        <time>2016-06-19T12:53:09Z</time>
      </trkpt>
      <trkpt lat="44.06375" lon="5.30206">
        <ele>536.55</ele>
        <time>2016-06-19T12:53:10Z</time>
      </trkpt>
      <trkpt lat="44.06358" lon="5.30199">
        <ele>536.07</ele>
        <time>2016-06-19T12:53:11Z</time>
      </trkpt>
      <trkpt lat="44.0634" lon="5.30192">
        <ele>534.63</ele>
        <time>2016-06-19T12:53:12Z</time>
      </trkpt>
      <trkpt lat="44.06322" lon="5.30187">
        <ele>534.15</ele>
        <time>2016-06-19T12:53:13Z</time>
      </trkpt>
      <trkpt lat="44.06303" lon="5.30183">
        <ele>533.67</ele>
        <time>2016-06-19T12:53:14Z</time>
      </trkpt>
      <trkpt lat="44.0616" lon="5.30169">
        <ele>532.23</ele>
        <time>2016-06-19T12:53:21Z</time>
      </trkpt>
      <trkpt lat="44.0609" lon="5.30165">
        <ele>531.27</ele>
        <time>2016-06-19T12:53:25Z</time>
      </trkpt>
      <trkpt lat="44.06074" lon="5.30157">
        <ele>530.79</ele>
        <time>2016-06-19T12:53:26Z</time>
      </trkpt>
      <trkpt lat="44.05967" lon="5.30082">
        <ele>529.34</ele>
        <time>2016-06-19T12:53:34Z</time>
      </trkpt>
      <trkpt lat="44.05959" lon="5.30072">
        <ele>529.34</ele>
        <time>2016-06-19T12:53:35Z</time>
      </trkpt>
      <trkpt lat="44.05952" lon="5.30059">
        <ele>529.34</ele>
        <time>2016-06-19T12:53:36Z</time>
      </trkpt>
      <trkpt lat="44.05948" lon="5.30044">
        <ele>528.86</ele>
        <time>2016-06-19T12:53:37Z</time>
      </trkpt>
      <trkpt lat="44.05944" lon="5.30029">
        <ele>528.86</ele>
        <time>2016-06-19T12:53:38Z</time>
      </trkpt>
      <trkpt lat="44.05893" lon="5.2993">
        <ele>526.46</ele>
        <time>2016-06-19T12:53:44Z</time>
      </trkpt>
      <trkpt lat="44.05844" lon="5.29866">
        <ele>525.5</ele>
        <time>2016-06-19T12:53:48Z</time>
      </trkpt>
      <trkpt lat="44.05827" lon="5.29854">
        <ele>525.02</ele>
        <time>2016-06-19T12:53:49Z</time>
      </trkpt>
      <trkpt lat="44.05721" lon="5.29802">
        <ele>525.02</ele>
        <time>2016-06-19T12:53:55Z</time>
      </trkpt>
      <trkpt lat="44.05706" lon="5.29797">
        <ele>525.02</ele>
        <time>2016-06-19T12:53:56Z</time>
      </trkpt>
      <trkpt lat="44.05694" lon="5.29788">
        <ele>524.54</ele>
        <time>2016-06-19T12:53:57Z</time>
      </trkpt>
      <trkpt lat="44.05687" lon="5.29774">
        <ele>525.02</ele>
        <time>2016-06-19T12:53:58Z</time>
      </trkpt>
      <trkpt lat="44.05683" lon="5.29754">
        <ele>525.02</ele>
        <time>2016-06-19T12:53:59Z</time>
      </trkpt>
      <trkpt lat="44.05679" lon="5.29732">
        <ele>525.02</ele>
        <time>2016-06-19T12:54:00Z</time>
      </trkpt>
      <trkpt lat="44.05678" lon="5.29706">
        <ele>525.02</ele>
        <time>2016-06-19T12:54:01Z</time>
      </trkpt>
      <trkpt lat="44.05676" lon="5.29683">
        <ele>524.54</ele>
        <time>2016-06-19T12:54:02Z</time>
      </trkpt>
      <trkpt lat="44.05671" lon="5.29661">
        <ele>524.54</ele>
        <time>2016-06-19T12:54:03Z</time>
      </trkpt>
      <trkpt lat="44.05665" lon="5.29641">
        <ele>524.06</ele>
        <time>2016-06-19T12:54:04Z</time>
      </trkpt>
      <trkpt lat="44.05657" lon="5.29622">
        <ele>524.06</ele>
        <time>2016-06-19T12:54:05Z</time>
      </trkpt>
      <trkpt lat="44.05632" lon="5.29581">
        <ele>523.09</ele>
        <time>2016-06-19T12:54:08Z</time>
      </trkpt>
      <trkpt lat="44.05623" lon="5.29572">
        <ele>523.09</ele>
        <time>2016-06-19T12:54:09Z</time>
      </trkpt>
      <trkpt lat="44.05614" lon="5.29566">
        <ele>522.61</ele>
        <time>2016-06-19T12:54:10Z</time>
      </trkpt>
      <trkpt lat="44.05604" lon="5.29559">
        <ele>522.61</ele>
        <time>2016-06-19T12:54:11Z</time>
      </trkpt>
      <trkpt lat="44.05594" lon="5.29551">
        <ele>522.13</ele>
        <time>2016-06-19T12:54:12Z</time>
      </trkpt>
      <trkpt lat="44.05583" lon="5.29539">
        <ele>522.13</ele>
        <time>2016-06-19T12:54:13Z</time>
      </trkpt>
      <trkpt lat="44.05575" lon="5.29525">
        <ele>521.65</ele>
        <time>2016-06-19T12:54:14Z</time>
      </trkpt>
      <trkpt lat="44.05568" lon="5.29508">
        <ele>521.65</ele>
        <time>2016-06-19T12:54:15Z</time>
      </trkpt>
      <trkpt lat="44.05563" lon="5.29489">
        <ele>521.65</ele>
        <time>2016-06-19T12:54:16Z</time>
      </trkpt>
      <trkpt lat="44.05556" lon="5.29471">
        <ele>521.17</ele>
        <time>2016-06-19T12:54:17Z</time>
      </trkpt>
      <trkpt lat="44.05544" lon="5.2946">
        <ele>521.65</ele>
        <time>2016-06-19T12:54:18Z</time>
      </trkpt>
      <trkpt lat="44.05533" lon="5.2945">
        <ele>520.69</ele>
        <time>2016-06-19T12:54:19Z</time>
      </trkpt>
      <trkpt lat="44.05523" lon="5.2944">
        <ele>520.21</ele>
        <time>2016-06-19T12:54:20Z</time>
      </trkpt>
      <trkpt lat="44.05518" lon="5.29427">
        <ele>520.21</ele>
        <time>2016-06-19T12:54:21Z</time>
      </trkpt>
      <trkpt lat="44.05513" lon="5.29409">
        <ele>520.21</ele>
        <time>2016-06-19T12:54:22Z</time>
      </trkpt>
      <trkpt lat="44.05508" lon="5.29389">
        <ele>520.21</ele>
        <time>2016-06-19T12:54:23Z</time>
      </trkpt>
      <trkpt lat="44.05504" lon="5.29364">
        <ele>519.73</ele>
        <time>2016-06-19T12:54:24Z</time>
      </trkpt>
      <trkpt lat="44.05498" lon="5.29337">
        <ele>519.25</ele>
        <time>2016-06-19T12:54:25Z</time>
      </trkpt>
      <trkpt lat="44.0548" lon="5.29285">
        <ele>518.29</ele>
        <time>2016-06-19T12:54:27Z</time>
      </trkpt>
      <trkpt lat="44.05469" lon="5.29261">
        <ele>517.81</ele>
        <time>2016-06-19T12:54:28Z</time>
      </trkpt>
      <trkpt lat="44.05438" lon="5.29194">
        <ele>517.33</ele>
        <time>2016-06-19T12:54:31Z</time>
      </trkpt>
      <trkpt lat="44.05432" lon="5.29173">
        <ele>516.85</ele>
        <time>2016-06-19T12:54:32Z</time>
      </trkpt>
      <trkpt lat="44.05415" lon="5.29114">
        <ele>515.4</ele>
        <time>2016-06-19T12:54:35Z</time>
      </trkpt>
      <trkpt lat="44.05406" lon="5.29101">
        <ele>514.92</ele>
        <time>2016-06-19T12:54:36Z</time>
      </trkpt>
      <trkpt lat="44.05394" lon="5.29092">
        <ele>514.44</ele>
        <time>2016-06-19T12:54:37Z</time>
      </trkpt>
      <trkpt lat="44.05381" lon="5.29086">
        <ele>513.96</ele>
        <time>2016-06-19T12:54:38Z</time>
      </trkpt>
      <trkpt lat="44.05369" lon="5.29084">
        <ele>513.48</ele>
        <time>2016-06-19T12:54:39Z</time>
      </trkpt>
      <trkpt lat="44.05357" lon="5.29079">
        <ele>513.48</ele>
        <time>2016-06-19T12:54:40Z</time>
      </trkpt>
      <trkpt lat="44.05348" lon="5.29072">
        <ele>513.48</ele>
        <time>2016-06-19T12:54:41Z</time>
      </trkpt>
      <trkpt lat="44.0534" lon="5.29061">
        <ele>513.48</ele>
        <time>2016-06-19T12:54:42Z</time>
      </trkpt>
      <trkpt lat="44.05337" lon="5.29044">
        <ele>513.48</ele>
        <time>2016-06-19T12:54:43Z</time>
      </trkpt>
      <trkpt lat="44.05337" lon="5.29024">
        <ele>513.48</ele>
        <time>2016-06-19T12:54:44Z</time>
      </trkpt>
      <trkpt lat="44.05339" lon="5.29002">
        <ele>513</ele>
        <time>2016-06-19T12:54:45Z</time>
      </trkpt>
      <trkpt lat="44.05342" lon="5.28981">
        <ele>513</ele>
        <time>2016-06-19T12:54:46Z</time>
      </trkpt>
      <trkpt lat="44.05345" lon="5.28959">
        <ele>513</ele>
        <time>2016-06-19T12:54:47Z</time>
      </trkpt>
      <trkpt lat="44.0535" lon="5.2889">
        <ele>512.04</ele>
        <time>2016-06-19T12:54:50Z</time>
      </trkpt>
      <trkpt lat="44.05348" lon="5.28865">
        <ele>511.56</ele>
        <time>2016-06-19T12:54:51Z</time>
      </trkpt>
      <trkpt lat="44.05344" lon="5.2884">
        <ele>511.56</ele>
        <time>2016-06-19T12:54:52Z</time>
      </trkpt>
      <trkpt lat="44.05331" lon="5.28773">
        <ele>511.08</ele>
        <time>2016-06-19T12:54:55Z</time>
      </trkpt>
      <trkpt lat="44.0532" lon="5.28755">
        <ele>510.6</ele>
        <time>2016-06-19T12:54:56Z</time>
      </trkpt>
      <trkpt lat="44.05308" lon="5.28738">
        <ele>510.6</ele>
        <time>2016-06-19T12:54:57Z</time>
      </trkpt>
      <trkpt lat="44.05294" lon="5.28721">
        <ele>509.64</ele>
        <time>2016-06-19T12:54:58Z</time>
      </trkpt>
      <trkpt lat="44.05279" lon="5.28706">
        <ele>509.16</ele>
        <time>2016-06-19T12:54:59Z</time>
      </trkpt>
      <trkpt lat="44.05263" lon="5.28692">
        <ele>508.67</ele>
        <time>2016-06-19T12:55:00Z</time>
      </trkpt>
      <trkpt lat="44.05244" lon="5.28683">
        <ele>509.64</ele>
        <time>2016-06-19T12:55:01Z</time>
      </trkpt>
      <trkpt lat="44.05224" lon="5.28678">
        <ele>509.16</ele>
        <time>2016-06-19T12:55:02Z</time>
      </trkpt>
      <trkpt lat="44.052" lon="5.28674">
        <ele>509.64</ele>
        <time>2016-06-19T12:55:03Z</time>
      </trkpt>
      <trkpt lat="44.05177" lon="5.28669">
        <ele>510.12</ele>
        <time>2016-06-19T12:55:04Z</time>
      </trkpt>
      <trkpt lat="44.05004" lon="5.28611">
        <ele>506.75</ele>
        <time>2016-06-19T12:55:12Z</time>
      </trkpt>
      <trkpt lat="44.0489" lon="5.28556">
        <ele>504.35</ele>
        <time>2016-06-19T12:55:19Z</time>
      </trkpt>
      <trkpt lat="44.04882" lon="5.28538">
        <ele>503.87</ele>
        <time>2016-06-19T12:55:20Z</time>
      </trkpt>
      <trkpt lat="44.04878" lon="5.28519">
        <ele>504.35</ele>
        <time>2016-06-19T12:55:21Z</time>
      </trkpt>
      <trkpt lat="44.04879" lon="5.28497">
        <ele>503.39</ele>
        <time>2016-06-19T12:55:22Z</time>
      </trkpt>
      <trkpt lat="44.04884" lon="5.28475">
        <ele>502.91</ele>
        <time>2016-06-19T12:55:23Z</time>
      </trkpt>
      <trkpt lat="44.04892" lon="5.28451">
        <ele>502.91</ele>
        <time>2016-06-19T12:55:24Z</time>
      </trkpt>
      <trkpt lat="44.04901" lon="5.28426">
        <ele>502.43</ele>
        <time>2016-06-19T12:55:25Z</time>
      </trkpt>
      <trkpt lat="44.04909" lon="5.28401">
        <ele>501.95</ele>
        <time>2016-06-19T12:55:26Z</time>
      </trkpt>
      <trkpt lat="44.04962" lon="5.28201">
        <ele>500.98</ele>
        <time>2016-06-19T12:55:34Z</time>
      </trkpt>
      <trkpt lat="44.04967" lon="5.2814">
        <ele>500.02</ele>
        <time>2016-06-19T12:55:37Z</time>
      </trkpt>
      <trkpt lat="44.04962" lon="5.28118">
        <ele>499.54</ele>
        <time>2016-06-19T12:55:38Z</time>
      </trkpt>
      <trkpt lat="44.04953" lon="5.28094">
        <ele>498.58</ele>
        <time>2016-06-19T12:55:39Z</time>
      </trkpt>
      <trkpt lat="44.04944" lon="5.2807">
        <ele>498.1</ele>
        <time>2016-06-19T12:55:40Z</time>
      </trkpt>
      <trkpt lat="44.04936" lon="5.28046">
        <ele>497.62</ele>
        <time>2016-06-19T12:55:41Z</time>
      </trkpt>
      <trkpt lat="44.0492" lon="5.28004">
        <ele>497.14</ele>
        <time>2016-06-19T12:55:43Z</time>
      </trkpt>
      <trkpt lat="44.04908" lon="5.27986">
        <ele>496.66</ele>
        <time>2016-06-19T12:55:44Z</time>
      </trkpt>
      <trkpt lat="44.04894" lon="5.27969">
        <ele>496.66</ele>
        <time>2016-06-19T12:55:45Z</time>
      </trkpt>
      <trkpt lat="44.04767" lon="5.27846">
        <ele>494.74</ele>
        <time>2016-06-19T12:55:53Z</time>
      </trkpt>
      <trkpt lat="44.04726" lon="5.2781">
        <ele>494.26</ele>
        <time>2016-06-19T12:55:56Z</time>
      </trkpt>
      <trkpt lat="44.04716" lon="5.27795">
        <ele>494.26</ele>
        <time>2016-06-19T12:55:57Z</time>
      </trkpt>
      <trkpt lat="44.04709" lon="5.27777">
        <ele>494.26</ele>
        <time>2016-06-19T12:55:58Z</time>
      </trkpt>
      <trkpt lat="44.04708" lon="5.27759">
        <ele>494.26</ele>
        <time>2016-06-19T12:55:59Z</time>
      </trkpt>
      <trkpt lat="44.04708" lon="5.2774">
        <ele>494.26</ele>
        <time>2016-06-19T12:56:00Z</time>
      </trkpt>
      <trkpt lat="44.0471" lon="5.27722">
        <ele>494.26</ele>
        <time>2016-06-19T12:56:01Z</time>
      </trkpt>
      <trkpt lat="44.04711" lon="5.27701">
        <ele>493.77</ele>
        <time>2016-06-19T12:56:02Z</time>
      </trkpt>
      <trkpt lat="44.04715" lon="5.27589">
        <ele>492.81</ele>
        <time>2016-06-19T12:56:07Z</time>
      </trkpt>
      <trkpt lat="44.04718" lon="5.27569">
        <ele>492.81</ele>
        <time>2016-06-19T12:56:08Z</time>
      </trkpt>
      <trkpt lat="44.04723" lon="5.27551">
        <ele>492.81</ele>
        <time>2016-06-19T12:56:09Z</time>
      </trkpt>
      <trkpt lat="44.04732" lon="5.27521">
        <ele>491.37</ele>
        <time>2016-06-19T12:56:11Z</time>
      </trkpt>
      <trkpt lat="44.0473" lon="5.27508">
        <ele>490.89</ele>
        <time>2016-06-19T12:56:12Z</time>
      </trkpt>
      <trkpt lat="44.04725" lon="5.27497">
        <ele>490.41</ele>
        <time>2016-06-19T12:56:13Z</time>
      </trkpt>
      <trkpt lat="44.04715" lon="5.27491">
        <ele>489.93</ele>
        <time>2016-06-19T12:56:14Z</time>
      </trkpt>
      <trkpt lat="44.04703" lon="5.2749">
        <ele>488.97</ele>
        <time>2016-06-19T12:56:15Z</time>
      </trkpt>
      <trkpt lat="44.0469" lon="5.27502">
        <ele>488.97</ele>
        <time>2016-06-19T12:56:16Z</time>
      </trkpt>
      <trkpt lat="44.04674" lon="5.27514">
        <ele>488.49</ele>
        <time>2016-06-19T12:56:17Z</time>
      </trkpt>
      <trkpt lat="44.04608" lon="5.27571">
        <ele>489.45</ele>
        <time>2016-06-19T12:56:22Z</time>
      </trkpt>
      <trkpt lat="44.04577" lon="5.276">
        <ele>489.45</ele>
        <time>2016-06-19T12:56:25Z</time>
      </trkpt>
      <trkpt lat="44.04564" lon="5.276">
        <ele>489.45</ele>
        <time>2016-06-19T12:56:26Z</time>
      </trkpt>
      <trkpt lat="44.04551" lon="5.27598">
        <ele>489.45</ele>
        <time>2016-06-19T12:56:27Z</time>
      </trkpt>
      <trkpt lat="44.04538" lon="5.27591">
        <ele>488.97</ele>
        <time>2016-06-19T12:56:28Z</time>
      </trkpt>
      <trkpt lat="44.04526" lon="5.27579">
        <ele>488.49</ele>
        <time>2016-06-19T12:56:29Z</time>
      </trkpt>
      <trkpt lat="44.04514" lon="5.27564">
        <ele>488.49</ele>
        <time>2016-06-19T12:56:30Z</time>
      </trkpt>
      <trkpt lat="44.04501" lon="5.27547">
        <ele>488.49</ele>
        <time>2016-06-19T12:56:31Z</time>
      </trkpt>
      <trkpt lat="44.04418" lon="5.27406">
        <ele>487.53</ele>
        <time>2016-06-19T12:56:38Z</time>
      </trkpt>
      <trkpt lat="44.04386" lon="5.27353">
        <ele>487.53</ele>
        <time>2016-06-19T12:56:41Z</time>
      </trkpt>
      <trkpt lat="44.04295" lon="5.27219">
        <ele>487.05</ele>
        <time>2016-06-19T12:56:48Z</time>
      </trkpt>
      <trkpt lat="44.04269" lon="5.27176">
        <ele>486.56</ele>
        <time>2016-06-19T12:56:50Z</time>
      </trkpt>
      <trkpt lat="44.04254" lon="5.27159">
        <ele>486.56</ele>
        <time>2016-06-19T12:56:51Z</time>
      </trkpt>
      <trkpt lat="44.04186" lon="5.27078">
        <ele>486.56</ele>
        <time>2016-06-19T12:56:56Z</time>
      </trkpt>
      <trkpt lat="44.04178" lon="5.27059">
        <ele>486.08</ele>
        <time>2016-06-19T12:56:57Z</time>
      </trkpt>
      <trkpt lat="44.04173" lon="5.27038">
        <ele>485.6</ele>
        <time>2016-06-19T12:56:58Z</time>
      </trkpt>
      <trkpt lat="44.04173" lon="5.27014">
        <ele>485.12</ele>
        <time>2016-06-19T12:56:59Z</time>
      </trkpt>
      <trkpt lat="44.04176" lon="5.26992">
        <ele>484.64</ele>
        <time>2016-06-19T12:57:00Z</time>
      </trkpt>
      <trkpt lat="44.04183" lon="5.26971">
        <ele>484.64</ele>
        <time>2016-06-19T12:57:01Z</time>
      </trkpt>
      <trkpt lat="44.04192" lon="5.26952">
        <ele>484.16</ele>
        <time>2016-06-19T12:57:02Z</time>
      </trkpt>
      <trkpt lat="44.04202" lon="5.26937">
        <ele>484.16</ele>
        <time>2016-06-19T12:57:03Z</time>
      </trkpt>
      <trkpt lat="44.04212" lon="5.26921">
        <ele>484.16</ele>
        <time>2016-06-19T12:57:04Z</time>
      </trkpt>
      <trkpt lat="44.04228" lon="5.26892">
        <ele>484.16</ele>
        <time>2016-06-19T12:57:06Z</time>
      </trkpt>
      <trkpt lat="44.0423" lon="5.26877">
        <ele>484.16</ele>
        <time>2016-06-19T12:57:07Z</time>
      </trkpt>
      <trkpt lat="44.04228" lon="5.26861">
        <ele>483.2</ele>
        <time>2016-06-19T12:57:08Z</time>
      </trkpt>
      <trkpt lat="44.04222" lon="5.26847">
        <ele>482.24</ele>
        <time>2016-06-19T12:57:09Z</time>
      </trkpt>
      <trkpt lat="44.0421" lon="5.26836">
        <ele>481.76</ele>
        <time>2016-06-19T12:57:10Z</time>
      </trkpt>
      <trkpt lat="44.04194" lon="5.26826">
        <ele>481.28</ele>
        <time>2016-06-19T12:57:11Z</time>
      </trkpt>
      <trkpt lat="44.04178" lon="5.26819">
        <ele>480.8</ele>
        <time>2016-06-19T12:57:12Z</time>
      </trkpt>
      <trkpt lat="44.04162" lon="5.26813">
        <ele>481.28</ele>
        <time>2016-06-19T12:57:13Z</time>
      </trkpt>
      <trkpt lat="44.04059" lon="5.26776">
        <ele>480.32</ele>
        <time>2016-06-19T12:57:19Z</time>
      </trkpt>
      <trkpt lat="44.04041" lon="5.26779">
        <ele>479.84</ele>
        <time>2016-06-19T12:57:20Z</time>
      </trkpt>
      <trkpt lat="44.04022" lon="5.26781">
        <ele>479.35</ele>
        <time>2016-06-19T12:57:21Z</time>
      </trkpt>
      <trkpt lat="44.04004" lon="5.26781">
        <ele>478.87</ele>
        <time>2016-06-19T12:57:22Z</time>
      </trkpt>
      <trkpt lat="44.03986" lon="5.26778">
        <ele>478.87</ele>
        <time>2016-06-19T12:57:23Z</time>
      </trkpt>
      <trkpt lat="44.03969" lon="5.2677">
        <ele>478.87</ele>
        <time>2016-06-19T12:57:24Z</time>
      </trkpt>
      <trkpt lat="44.03953" lon="5.2676">
        <ele>478.39</ele>
        <time>2016-06-19T12:57:25Z</time>
      </trkpt>
      <trkpt lat="44.03939" lon="5.26749">
        <ele>477.91</ele>
        <time>2016-06-19T12:57:26Z</time>
      </trkpt>
      <trkpt lat="44.03924" lon="5.26729">
        <ele>476.95</ele>
        <time>2016-06-19T12:57:27Z</time>
      </trkpt>
      <trkpt lat="44.03908" lon="5.26708">
        <ele>476.47</ele>
        <time>2016-06-19T12:57:28Z</time>
      </trkpt>
      <trkpt lat="44.03891" lon="5.26684">
        <ele>476.47</ele>
        <time>2016-06-19T12:57:29Z</time>
      </trkpt>
      <trkpt lat="44.0382" lon="5.26601">
        <ele>475.03</ele>
        <time>2016-06-19T12:57:33Z</time>
      </trkpt>
      <trkpt lat="44.03802" lon="5.26589">
        <ele>474.55</ele>
        <time>2016-06-19T12:57:34Z</time>
      </trkpt>
      <trkpt lat="44.03782" lon="5.26578">
        <ele>474.07</ele>
        <time>2016-06-19T12:57:35Z</time>
      </trkpt>
      <trkpt lat="44.03643" lon="5.26522">
        <ele>472.14</ele>
        <time>2016-06-19T12:57:42Z</time>
      </trkpt>
      <trkpt lat="44.03608" lon="5.26508">
        <ele>472.14</ele>
        <time>2016-06-19T12:57:44Z</time>
      </trkpt>
      <trkpt lat="44.03593" lon="5.26498">
        <ele>472.14</ele>
        <time>2016-06-19T12:57:45Z</time>
      </trkpt>
      <trkpt lat="44.03579" lon="5.26485">
        <ele>472.14</ele>
        <time>2016-06-19T12:57:46Z</time>
      </trkpt>
      <trkpt lat="44.03566" lon="5.26469">
        <ele>471.66</ele>
        <time>2016-06-19T12:57:47Z</time>
      </trkpt>
      <trkpt lat="44.03555" lon="5.26449">
        <ele>471.66</ele>
        <time>2016-06-19T12:57:48Z</time>
      </trkpt>
      <trkpt lat="44.03545" lon="5.26426">
        <ele>471.66</ele>
        <time>2016-06-19T12:57:49Z</time>
      </trkpt>
      <trkpt lat="44.03535" lon="5.26402">
        <ele>471.18</ele>
        <time>2016-06-19T12:57:50Z</time>
      </trkpt>
      <trkpt lat="44.03487" lon="5.26297">
        <ele>470.22</ele>
        <time>2016-06-19T12:57:55Z</time>
      </trkpt>
      <trkpt lat="44.03482" lon="5.26278">
        <ele>469.74</ele>
        <time>2016-06-19T12:57:56Z</time>
      </trkpt>
      <trkpt lat="44.03484" lon="5.26255">
        <ele>469.26</ele>
        <time>2016-06-19T12:57:57Z</time>
      </trkpt>
      <trkpt lat="44.0349" lon="5.26235">
        <ele>468.78</ele>
        <time>2016-06-19T12:57:58Z</time>
      </trkpt>
      <trkpt lat="44.03498" lon="5.26216">
        <ele>468.78</ele>
        <time>2016-06-19T12:57:59Z</time>
      </trkpt>
      <trkpt lat="44.03508" lon="5.26195">
        <ele>468.3</ele>
        <time>2016-06-19T12:58:00Z</time>
      </trkpt>
      <trkpt lat="44.03518" lon="5.26171">
        <ele>467.34</ele>
        <time>2016-06-19T12:58:01Z</time>
      </trkpt>
      <trkpt lat="44.03531" lon="5.26112">
        <ele>466.86</ele>
        <time>2016-06-19T12:58:03Z</time>
      </trkpt>
      <trkpt lat="44.03535" lon="5.2608">
        <ele>466.38</ele>
        <time>2016-06-19T12:58:04Z</time>
      </trkpt>
      <trkpt lat="44.03537" lon="5.26047">
        <ele>465.9</ele>
        <time>2016-06-19T12:58:05Z</time>
      </trkpt>
      <trkpt lat="44.03536" lon="5.26016">
        <ele>465.9</ele>
        <time>2016-06-19T12:58:06Z</time>
      </trkpt>
      <trkpt lat="44.03534" lon="5.25986">
        <ele>465.9</ele>
        <time>2016-06-19T12:58:07Z</time>
      </trkpt>
      <trkpt lat="44.03531" lon="5.25958">
        <ele>465.9</ele>
        <time>2016-06-19T12:58:08Z</time>
      </trkpt>
      <trkpt lat="44.03527" lon="5.25906">
        <ele>465.42</ele>
        <time>2016-06-19T12:58:10Z</time>
      </trkpt>
      <trkpt lat="44.03528" lon="5.25885">
        <ele>464.93</ele>
        <time>2016-06-19T12:58:11Z</time>
      </trkpt>
      <trkpt lat="44.03533" lon="5.25867">
        <ele>464.45</ele>
        <time>2016-06-19T12:58:12Z</time>
      </trkpt>
      <trkpt lat="44.03543" lon="5.25849">
        <ele>464.93</ele>
        <time>2016-06-19T12:58:13Z</time>
      </trkpt>
      <trkpt lat="44.03556" lon="5.25831">
        <ele>464.93</ele>
        <time>2016-06-19T12:58:14Z</time>
      </trkpt>
      <trkpt lat="44.03572" lon="5.25813">
        <ele>464.45</ele>
        <time>2016-06-19T12:58:15Z</time>
      </trkpt>
      <trkpt lat="44.03588" lon="5.25793">
        <ele>464.45</ele>
        <time>2016-06-19T12:58:16Z</time>
      </trkpt>
      <trkpt lat="44.03709" lon="5.25638">
        <ele>459.65</ele>
        <time>2016-06-19T12:58:24Z</time>
      </trkpt>
      <trkpt lat="44.03726" lon="5.25625">
        <ele>459.17</ele>
        <time>2016-06-19T12:58:25Z</time>
      </trkpt>
      <trkpt lat="44.03744" lon="5.25614">
        <ele>458.69</ele>
        <time>2016-06-19T12:58:26Z</time>
      </trkpt>
      <trkpt lat="44.03762" lon="5.25605">
        <ele>457.72</ele>
        <time>2016-06-19T12:58:27Z</time>
      </trkpt>
      <trkpt lat="44.0378" lon="5.25598">
        <ele>457.24</ele>
        <time>2016-06-19T12:58:28Z</time>
      </trkpt>
      <trkpt lat="44.03799" lon="5.25597">
        <ele>457.24</ele>
        <time>2016-06-19T12:58:29Z</time>
      </trkpt>
      <trkpt lat="44.03816" lon="5.25599">
        <ele>456.28</ele>
        <time>2016-06-19T12:58:30Z</time>
      </trkpt>
      <trkpt lat="44.03835" lon="5.25602">
        <ele>455.8</ele>
        <time>2016-06-19T12:58:31Z</time>
      </trkpt>
      <trkpt lat="44.03851" lon="5.25608">
        <ele>454.84</ele>
        <time>2016-06-19T12:58:32Z</time>
      </trkpt>
      <trkpt lat="44.03866" lon="5.25611">
        <ele>454.84</ele>
        <time>2016-06-19T12:58:33Z</time>
      </trkpt>
      <trkpt lat="44.03881" lon="5.25612">
        <ele>454.36</ele>
        <time>2016-06-19T12:58:34Z</time>
      </trkpt>
      <trkpt lat="44.03897" lon="5.25605">
        <ele>453.88</ele>
        <time>2016-06-19T12:58:35Z</time>
      </trkpt>
      <trkpt lat="44.03914" lon="5.25595">
        <ele>453.4</ele>
        <time>2016-06-19T12:58:36Z</time>
      </trkpt>
      <trkpt lat="44.03932" lon="5.25584">
        <ele>452.44</ele>
        <time>2016-06-19T12:58:37Z</time>
      </trkpt>
      <trkpt lat="44.04046" lon="5.25555">
        <ele>449.55</ele>
        <time>2016-06-19T12:58:43Z</time>
      </trkpt>
      <trkpt lat="44.0408" lon="5.25555">
        <ele>448.59</ele>
        <time>2016-06-19T12:58:45Z</time>
      </trkpt>
      <trkpt lat="44.04095" lon="5.2556">
        <ele>448.11</ele>
        <time>2016-06-19T12:58:46Z</time>
      </trkpt>
      <trkpt lat="44.04112" lon="5.25568">
        <ele>447.63</ele>
        <time>2016-06-19T12:58:47Z</time>
      </trkpt>
      <trkpt lat="44.04127" lon="5.25578">
        <ele>447.15</ele>
        <time>2016-06-19T12:58:48Z</time>
      </trkpt>
      <trkpt lat="44.04142" lon="5.25588">
        <ele>446.67</ele>
        <time>2016-06-19T12:58:49Z</time>
      </trkpt>
      <trkpt lat="44.04196" lon="5.25621">
        <ele>443.79</ele>
        <time>2016-06-19T12:58:53Z</time>
      </trkpt>
      <trkpt lat="44.04207" lon="5.25616">
        <ele>442.82</ele>
        <time>2016-06-19T12:58:54Z</time>
      </trkpt>
      <trkpt lat="44.04213" lon="5.25606">
        <ele>441.38</ele>
        <time>2016-06-19T12:58:55Z</time>
      </trkpt>
      <trkpt lat="44.04217" lon="5.2559">
        <ele>440.9</ele>
        <time>2016-06-19T12:58:56Z</time>
      </trkpt>
      <trkpt lat="44.0422" lon="5.25575">
        <ele>439.94</ele>
        <time>2016-06-19T12:58:57Z</time>
      </trkpt>
      <trkpt lat="44.04223" lon="5.25555">
        <ele>441.38</ele>
        <time>2016-06-19T12:58:58Z</time>
      </trkpt>
      <trkpt lat="44.04229" lon="5.25536">
        <ele>440.42</ele>
        <time>2016-06-19T12:58:59Z</time>
      </trkpt>
      <trkpt lat="44.04238" lon="5.25523">
        <ele>440.42</ele>
        <time>2016-06-19T12:59:00Z</time>
      </trkpt>
      <trkpt lat="44.04252" lon="5.25514">
        <ele>439.94</ele>
        <time>2016-06-19T12:59:01Z</time>
      </trkpt>
      <trkpt lat="44.04266" lon="5.25506">
        <ele>439.94</ele>
        <time>2016-06-19T12:59:02Z</time>
      </trkpt>
      <trkpt lat="44.04283" lon="5.255">
        <ele>439.46</ele>
        <time>2016-06-19T12:59:03Z</time>
      </trkpt>
      <trkpt lat="44.04301" lon="5.25497">
        <ele>438.98</ele>
        <time>2016-06-19T12:59:04Z</time>
      </trkpt>
      <trkpt lat="44.04318" lon="5.25496">
        <ele>438.5</ele>
        <time>2016-06-19T12:59:05Z</time>
      </trkpt>
      <trkpt lat="44.04334" lon="5.25499">
        <ele>438.5</ele>
        <time>2016-06-19T12:59:06Z</time>
      </trkpt>
      <trkpt lat="44.04349" lon="5.25505">
        <ele>438.02</ele>
        <time>2016-06-19T12:59:07Z</time>
      </trkpt>
      <trkpt lat="44.04364" lon="5.25512">
        <ele>437.54</ele>
        <time>2016-06-19T12:59:08Z</time>
      </trkpt>
      <trkpt lat="44.04379" lon="5.25519">
        <ele>437.06</ele>
        <time>2016-06-19T12:59:09Z</time>
      </trkpt>
      <trkpt lat="44.04394" lon="5.25524">
        <ele>436.58</ele>
        <time>2016-06-19T12:59:10Z</time>
      </trkpt>
      <trkpt lat="44.0441" lon="5.25525">
        <ele>436.1</ele>
        <time>2016-06-19T12:59:11Z</time>
      </trkpt>
      <trkpt lat="44.04426" lon="5.25524">
        <ele>435.13</ele>
        <time>2016-06-19T12:59:12Z</time>
      </trkpt>
      <trkpt lat="44.0444" lon="5.25521">
        <ele>434.65</ele>
        <time>2016-06-19T12:59:13Z</time>
      </trkpt>
      <trkpt lat="44.04453" lon="5.25514">
        <ele>434.17</ele>
        <time>2016-06-19T12:59:14Z</time>
      </trkpt>
      <trkpt lat="44.04462" lon="5.255">
        <ele>433.21</ele>
        <time>2016-06-19T12:59:15Z</time>
      </trkpt>
      <trkpt lat="44.04469" lon="5.25482">
        <ele>432.25</ele>
        <time>2016-06-19T12:59:16Z</time>
      </trkpt>
      <trkpt lat="44.04473" lon="5.25459">
        <ele>431.29</ele>
        <time>2016-06-19T12:59:17Z</time>
      </trkpt>
      <trkpt lat="44.04472" lon="5.25437">
        <ele>430.81</ele>
        <time>2016-06-19T12:59:18Z</time>
      </trkpt>
      <trkpt lat="44.04466" lon="5.25415">
        <ele>430.33</ele>
        <time>2016-06-19T12:59:19Z</time>
      </trkpt>
      <trkpt lat="44.04457" lon="5.25394">
        <ele>428.89</ele>
        <time>2016-06-19T12:59:20Z</time>
      </trkpt>
      <trkpt lat="44.04443" lon="5.25373">
        <ele>428.4</ele>
        <time>2016-06-19T12:59:21Z</time>
      </trkpt>
      <trkpt lat="44.04429" lon="5.25352">
        <ele>427.44</ele>
        <time>2016-06-19T12:59:22Z</time>
      </trkpt>
      <trkpt lat="44.04412" lon="5.25331">
        <ele>428.4</ele>
        <time>2016-06-19T12:59:23Z</time>
      </trkpt>
      <trkpt lat="44.04396" lon="5.25311">
        <ele>429.37</ele>
        <time>2016-06-19T12:59:24Z</time>
      </trkpt>
      <trkpt lat="44.04331" lon="5.25248">
        <ele>430.33</ele>
        <time>2016-06-19T12:59:29Z</time>
      </trkpt>
      <trkpt lat="44.04303" lon="5.25223">
        <ele>431.29</ele>
        <time>2016-06-19T12:59:32Z</time>
      </trkpt>
      <trkpt lat="44.04294" lon="5.2521">
        <ele>431.29</ele>
        <time>2016-06-19T12:59:33Z</time>
      </trkpt>
      <trkpt lat="44.04285" lon="5.25189">
        <ele>431.77</ele>
        <time>2016-06-19T12:59:34Z</time>
      </trkpt>
      <trkpt lat="44.04262" lon="5.25145">
        <ele>432.73</ele>
        <time>2016-06-19T12:59:36Z</time>
      </trkpt>
      <trkpt lat="44.04247" lon="5.25125">
        <ele>433.21</ele>
        <time>2016-06-19T12:59:37Z</time>
      </trkpt>
      <trkpt lat="44.04234" lon="5.25105">
        <ele>433.21</ele>
        <time>2016-06-19T12:59:38Z</time>
      </trkpt>
      <trkpt lat="44.04222" lon="5.25084">
        <ele>433.69</ele>
        <time>2016-06-19T12:59:39Z</time>
      </trkpt>
      <trkpt lat="44.04209" lon="5.25062">
        <ele>434.17</ele>
        <time>2016-06-19T12:59:40Z</time>
      </trkpt>
      <trkpt lat="44.04105" lon="5.24931">
        <ele>435.13</ele>
        <time>2016-06-19T12:59:45Z</time>
      </trkpt>
      <trkpt lat="44.03999" lon="5.24802">
        <ele>438.02</ele>
        <time>2016-06-19T12:59:51Z</time>
      </trkpt>
      <trkpt lat="44.03991" lon="5.24765">
        <ele>439.46</ele>
        <time>2016-06-19T12:59:53Z</time>
      </trkpt>
      <trkpt lat="44.03995" lon="5.24744">
        <ele>439.46</ele>
        <time>2016-06-19T12:59:54Z</time>
      </trkpt>
      <trkpt lat="44.03995" lon="5.24723">
        <ele>438.5</ele>
        <time>2016-06-19T12:59:55Z</time>
      </trkpt>
      <trkpt lat="44.04006" lon="5.24704">
        <ele>437.06</ele>
        <time>2016-06-19T12:59:56Z</time>
      </trkpt>
      <trkpt lat="44.04029" lon="5.24692">
        <ele>438.02</ele>
        <time>2016-06-19T12:59:57Z</time>
      </trkpt>
      <trkpt lat="44.04047" lon="5.24683">
        <ele>439.46</ele>
        <time>2016-06-19T12:59:58Z</time>
      </trkpt>
      <trkpt lat="44.04067" lon="5.24678">
        <ele>438.02</ele>
        <time>2016-06-19T12:59:59Z</time>
      </trkpt>
      <trkpt lat="44.04094" lon="5.24679">
        <ele>437.06</ele>
        <time>2016-06-19T13:00:00Z</time>
      </trkpt>
      <trkpt lat="44.04119" lon="5.2468">
        <ele>436.1</ele>
        <time>2016-06-19T13:00:01Z</time>
      </trkpt>
      <trkpt lat="44.0414" lon="5.24679">
        <ele>434.65</ele>
        <time>2016-06-19T13:00:02Z</time>
      </trkpt>
      <trkpt lat="44.04161" lon="5.24677">
        <ele>433.69</ele>
        <time>2016-06-19T13:00:03Z</time>
      </trkpt>
      <trkpt lat="44.04182" lon="5.24671">
        <ele>432.73</ele>
        <time>2016-06-19T13:00:04Z</time>
      </trkpt>
      <trkpt lat="44.04288" lon="5.24606">
        <ele>427.92</ele>
        <time>2016-06-19T13:00:10Z</time>
      </trkpt>
      <trkpt lat="44.0431" lon="5.24593">
        <ele>426</ele>
        <time>2016-06-19T13:00:12Z</time>
      </trkpt>
      <trkpt lat="44.04319" lon="5.24594">
        <ele>425.04</ele>
        <time>2016-06-19T13:00:13Z</time>
      </trkpt>
      <trkpt lat="44.04329" lon="5.246">
        <ele>424.56</ele>
        <time>2016-06-19T13:00:14Z</time>
      </trkpt>
      <trkpt lat="44.04336" lon="5.2461">
        <ele>424.08</ele>
        <time>2016-06-19T13:00:15Z</time>
      </trkpt>
      <trkpt lat="44.04342" lon="5.24627">
        <ele>423.12</ele>
        <time>2016-06-19T13:00:16Z</time>
      </trkpt>
      <trkpt lat="44.04347" lon="5.24645">
        <ele>422.64</ele>
        <time>2016-06-19T13:00:17Z</time>
      </trkpt>
      <trkpt lat="44.04352" lon="5.24662">
        <ele>422.16</ele>
        <time>2016-06-19T13:00:18Z</time>
      </trkpt>
      <trkpt lat="44.04358" lon="5.24676">
        <ele>421.68</ele>
        <time>2016-06-19T13:00:19Z</time>
      </trkpt>
      <trkpt lat="44.04367" lon="5.24686">
        <ele>421.19</ele>
        <time>2016-06-19T13:00:20Z</time>
      </trkpt>
      <trkpt lat="44.04379" lon="5.24693">
        <ele>420.71</ele>
        <time>2016-06-19T13:00:21Z</time>
      </trkpt>
      <trkpt lat="44.0439" lon="5.24695">
        <ele>419.75</ele>
        <time>2016-06-19T13:00:22Z</time>
      </trkpt>
      <trkpt lat="44.04401" lon="5.24692">
        <ele>419.27</ele>
        <time>2016-06-19T13:00:23Z</time>
      </trkpt>
      <trkpt lat="44.04414" lon="5.24685">
        <ele>418.31</ele>
        <time>2016-06-19T13:00:24Z</time>
      </trkpt>
      <trkpt lat="44.04424" lon="5.24673">
        <ele>417.35</ele>
        <time>2016-06-19T13:00:25Z</time>
      </trkpt>
      <trkpt lat="44.04432" lon="5.24658">
        <ele>416.39</ele>
        <time>2016-06-19T13:00:26Z</time>
      </trkpt>
      <trkpt lat="44.04439" lon="5.24644">
        <ele>416.39</ele>
        <time>2016-06-19T13:00:27Z</time>
      </trkpt>
      <trkpt lat="44.04446" lon="5.24631">
        <ele>416.39</ele>
        <time>2016-06-19T13:00:28Z</time>
      </trkpt>
      <trkpt lat="44.04459" lon="5.24608">
        <ele>415.91</ele>
        <time>2016-06-19T13:00:30Z</time>
      </trkpt>
      <trkpt lat="44.04467" lon="5.24598">
        <ele>415.43</ele>
        <time>2016-06-19T13:00:31Z</time>
      </trkpt>
      <trkpt lat="44.04478" lon="5.2459">
        <ele>414.95</ele>
        <time>2016-06-19T13:00:32Z</time>
      </trkpt>
      <trkpt lat="44.04491" lon="5.24582">
        <ele>414.47</ele>
        <time>2016-06-19T13:00:33Z</time>
      </trkpt>
      <trkpt lat="44.04503" lon="5.24575">
        <ele>414.47</ele>
        <time>2016-06-19T13:00:34Z</time>
      </trkpt>
      <trkpt lat="44.04559" lon="5.24551">
        <ele>412.06</ele>
        <time>2016-06-19T13:00:39Z</time>
      </trkpt>
      <trkpt lat="44.04571" lon="5.24551">
        <ele>411.58</ele>
        <time>2016-06-19T13:00:40Z</time>
      </trkpt>
      <trkpt lat="44.04585" lon="5.24554">
        <ele>410.62</ele>
        <time>2016-06-19T13:00:41Z</time>
      </trkpt>
      <trkpt lat="44.04602" lon="5.24562">
        <ele>410.14</ele>
        <time>2016-06-19T13:00:42Z</time>
      </trkpt>
      <trkpt lat="44.04621" lon="5.24571">
        <ele>409.66</ele>
        <time>2016-06-19T13:00:43Z</time>
      </trkpt>
      <trkpt lat="44.04719" lon="5.24621">
        <ele>405.33</ele>
        <time>2016-06-19T13:00:48Z</time>
      </trkpt>
      <trkpt lat="44.04731" lon="5.24624">
        <ele>404.85</ele>
        <time>2016-06-19T13:00:49Z</time>
      </trkpt>
      <trkpt lat="44.04742" lon="5.24621">
        <ele>404.37</ele>
        <time>2016-06-19T13:00:50Z</time>
      </trkpt>
      <trkpt lat="44.04754" lon="5.24616">
        <ele>403.89</ele>
        <time>2016-06-19T13:00:51Z</time>
      </trkpt>
      <trkpt lat="44.04788" lon="5.24607">
        <ele>402.45</ele>
        <time>2016-06-19T13:00:53Z</time>
      </trkpt>
      <trkpt lat="44.04807" lon="5.24604">
        <ele>401.97</ele>
        <time>2016-06-19T13:00:54Z</time>
      </trkpt>
      <trkpt lat="44.04826" lon="5.24603">
        <ele>401.01</ele>
        <time>2016-06-19T13:00:55Z</time>
      </trkpt>
      <trkpt lat="44.04844" lon="5.24605">
        <ele>400.53</ele>
        <time>2016-06-19T13:00:56Z</time>
      </trkpt>
      <trkpt lat="44.04863" lon="5.2461">
        <ele>400.05</ele>
        <time>2016-06-19T13:00:57Z</time>
      </trkpt>
      <trkpt lat="44.04882" lon="5.24616">
        <ele>399.08</ele>
        <time>2016-06-19T13:00:58Z</time>
      </trkpt>
      <trkpt lat="44.04902" lon="5.24619">
        <ele>398.6</ele>
        <time>2016-06-19T13:00:59Z</time>
      </trkpt>
      <trkpt lat="44.04923" lon="5.24618">
        <ele>397.64</ele>
        <time>2016-06-19T13:01:00Z</time>
      </trkpt>
      <trkpt lat="44.04944" lon="5.24615">
        <ele>397.16</ele>
        <time>2016-06-19T13:01:01Z</time>
      </trkpt>
      <trkpt lat="44.0507" lon="5.246">
        <ele>392.84</ele>
        <time>2016-06-19T13:01:07Z</time>
      </trkpt>
      <trkpt lat="44.05091" lon="5.24603">
        <ele>391.87</ele>
        <time>2016-06-19T13:01:08Z</time>
      </trkpt>
      <trkpt lat="44.05184" lon="5.24623">
        <ele>387.07</ele>
        <time>2016-06-19T13:01:14Z</time>
      </trkpt>
      <trkpt lat="44.05188" lon="5.2465">
        <ele>384.66</ele>
        <time>2016-06-19T13:01:16Z</time>
      </trkpt>
      <trkpt lat="44.05184" lon="5.24672">
        <ele>385.15</ele>
        <time>2016-06-19T13:01:17Z</time>
      </trkpt>
      <trkpt lat="44.05174" lon="5.24681">
        <ele>384.18</ele>
        <time>2016-06-19T13:01:18Z</time>
      </trkpt>
      <trkpt lat="44.05164" lon="5.24686">
        <ele>382.74</ele>
        <time>2016-06-19T13:01:19Z</time>
      </trkpt>
      <trkpt lat="44.05153" lon="5.24687">
        <ele>381.78</ele>
        <time>2016-06-19T13:01:20Z</time>
      </trkpt>
      <trkpt lat="44.05139" lon="5.24686">
        <ele>380.82</ele>
        <time>2016-06-19T13:01:21Z</time>
      </trkpt>
      <trkpt lat="44.05124" lon="5.24688">
        <ele>380.34</ele>
        <time>2016-06-19T13:01:22Z</time>
      </trkpt>
      <trkpt lat="44.05112" lon="5.24696">
        <ele>379.38</ele>
        <time>2016-06-19T13:01:23Z</time>
      </trkpt>
      <trkpt lat="44.05105" lon="5.24708">
        <ele>378.42</ele>
        <time>2016-06-19T13:01:24Z</time>
      </trkpt>
      <trkpt lat="44.05097" lon="5.24725">
        <ele>377.45</ele>
        <time>2016-06-19T13:01:25Z</time>
      </trkpt>
      <trkpt lat="44.05094" lon="5.2474">
        <ele>376.97</ele>
        <time>2016-06-19T13:01:26Z</time>
      </trkpt>
      <trkpt lat="44.05107" lon="5.2476">
        <ele>377.45</ele>
        <time>2016-06-19T13:01:27Z</time>
      </trkpt>
      <trkpt lat="44.05118" lon="5.24775">
        <ele>376.97</ele>
        <time>2016-06-19T13:01:28Z</time>
      </trkpt>
      <trkpt lat="44.05125" lon="5.24786">
        <ele>376.01</ele>
        <time>2016-06-19T13:01:29Z</time>
      </trkpt>
      <trkpt lat="44.05137" lon="5.24793">
        <ele>375.53</ele>
        <time>2016-06-19T13:01:30Z</time>
      </trkpt>
      <trkpt lat="44.05151" lon="5.24794">
        <ele>375.05</ele>
        <time>2016-06-19T13:01:31Z</time>
      </trkpt>
      <trkpt lat="44.05174" lon="5.24788">
        <ele>376.01</ele>
        <time>2016-06-19T13:01:32Z</time>
      </trkpt>
      <trkpt lat="44.05188" lon="5.24783">
        <ele>375.53</ele>
        <time>2016-06-19T13:01:33Z</time>
      </trkpt>
      <trkpt lat="44.05202" lon="5.2478">
        <ele>375.05</ele>
        <time>2016-06-19T13:01:34Z</time>
      </trkpt>
      <trkpt lat="44.05215" lon="5.2478">
        <ele>375.05</ele>
        <time>2016-06-19T13:01:35Z</time>
      </trkpt>
      <trkpt lat="44.05299" lon="5.24782">
        <ele>373.61</ele>
        <time>2016-06-19T13:01:43Z</time>
      </trkpt>
      <trkpt lat="44.05308" lon="5.24783">
        <ele>373.13</ele>
        <time>2016-06-19T13:01:44Z</time>
      </trkpt>
      <trkpt lat="44.05319" lon="5.24782">
        <ele>372.65</ele>
        <time>2016-06-19T13:01:45Z</time>
      </trkpt>
      <trkpt lat="44.05329" lon="5.24774">
        <ele>372.17</ele>
        <time>2016-06-19T13:01:46Z</time>
      </trkpt>
      <trkpt lat="44.0534" lon="5.24761">
        <ele>372.17</ele>
        <time>2016-06-19T13:01:47Z</time>
      </trkpt>
      <trkpt lat="44.05355" lon="5.24747">
        <ele>371.69</ele>
        <time>2016-06-19T13:01:48Z</time>
      </trkpt>
      <trkpt lat="44.05403" lon="5.24712">
        <ele>369.28</ele>
        <time>2016-06-19T13:01:51Z</time>
      </trkpt>
      <trkpt lat="44.0542" lon="5.24705">
        <ele>368.32</ele>
        <time>2016-06-19T13:01:52Z</time>
      </trkpt>
      <trkpt lat="44.05437" lon="5.24703">
        <ele>367.84</ele>
        <time>2016-06-19T13:01:53Z</time>
      </trkpt>
      <trkpt lat="44.05454" lon="5.24707">
        <ele>367.36</ele>
        <time>2016-06-19T13:01:54Z</time>
      </trkpt>
      <trkpt lat="44.0547" lon="5.24717">
        <ele>367.36</ele>
        <time>2016-06-19T13:01:55Z</time>
      </trkpt>
      <trkpt lat="44.05482" lon="5.24725">
        <ele>366.4</ele>
        <time>2016-06-19T13:01:56Z</time>
      </trkpt>
      <trkpt lat="44.05495" lon="5.24728">
        <ele>365.92</ele>
        <time>2016-06-19T13:01:57Z</time>
      </trkpt>
      <trkpt lat="44.05509" lon="5.24725">
        <ele>364.96</ele>
        <time>2016-06-19T13:01:58Z</time>
      </trkpt>
      <trkpt lat="44.05522" lon="5.2472">
        <ele>364.96</ele>
        <time>2016-06-19T13:01:59Z</time>
      </trkpt>
      <trkpt lat="44.05535" lon="5.24713">
        <ele>364.48</ele>
        <time>2016-06-19T13:02:00Z</time>
      </trkpt>
      <trkpt lat="44.05548" lon="5.2471">
        <ele>364.48</ele>
        <time>2016-06-19T13:02:01Z</time>
      </trkpt>
      <trkpt lat="44.056" lon="5.24707">
        <ele>362.07</ele>
        <time>2016-06-19T13:02:04Z</time>
      </trkpt>
      <trkpt lat="44.05619" lon="5.2471">
        <ele>361.59</ele>
        <time>2016-06-19T13:02:05Z</time>
      </trkpt>
      <trkpt lat="44.05637" lon="5.24716">
        <ele>360.63</ele>
        <time>2016-06-19T13:02:06Z</time>
      </trkpt>
      <trkpt lat="44.05654" lon="5.24726">
        <ele>359.67</ele>
        <time>2016-06-19T13:02:07Z</time>
      </trkpt>
      <trkpt lat="44.05672" lon="5.2474">
        <ele>358.71</ele>
        <time>2016-06-19T13:02:08Z</time>
      </trkpt>
      <trkpt lat="44.05688" lon="5.24755">
        <ele>357.75</ele>
        <time>2016-06-19T13:02:09Z</time>
      </trkpt>
      <trkpt lat="44.05705" lon="5.24774">
        <ele>357.27</ele>
        <time>2016-06-19T13:02:10Z</time>
      </trkpt>
      <trkpt lat="44.05722" lon="5.24795">
        <ele>356.31</ele>
        <time>2016-06-19T13:02:11Z</time>
      </trkpt>
      <trkpt lat="44.05795" lon="5.24878">
        <ele>350.06</ele>
        <time>2016-06-19T13:02:17Z</time>
      </trkpt>
      <trkpt lat="44.05808" lon="5.24872">
        <ele>349.1</ele>
        <time>2016-06-19T13:02:18Z</time>
      </trkpt>
      <trkpt lat="44.05819" lon="5.24859">
        <ele>348.13</ele>
        <time>2016-06-19T13:02:19Z</time>
      </trkpt>
      <trkpt lat="44.05821" lon="5.24838">
        <ele>351.02</ele>
        <time>2016-06-19T13:02:20Z</time>
      </trkpt>
      <trkpt lat="44.05819" lon="5.24815">
        <ele>351.98</ele>
        <time>2016-06-19T13:02:21Z</time>
      </trkpt>
      <trkpt lat="44.05814" lon="5.24797">
        <ele>351.5</ele>
        <time>2016-06-19T13:02:22Z</time>
      </trkpt>
      <trkpt lat="44.05804" lon="5.24782">
        <ele>351.02</ele>
        <time>2016-06-19T13:02:23Z</time>
      </trkpt>
      <trkpt lat="44.05786" lon="5.24772">
        <ele>349.58</ele>
        <time>2016-06-19T13:02:24Z</time>
      </trkpt>
      <trkpt lat="44.05769" lon="5.24764">
        <ele>348.13</ele>
        <time>2016-06-19T13:02:25Z</time>
      </trkpt>
      <trkpt lat="44.05753" lon="5.24759">
        <ele>347.65</ele>
        <time>2016-06-19T13:02:26Z</time>
      </trkpt>
      <trkpt lat="44.05738" lon="5.24754">
        <ele>346.69</ele>
        <time>2016-06-19T13:02:27Z</time>
      </trkpt>
      <trkpt lat="44.05726" lon="5.24745">
        <ele>345.73</ele>
        <time>2016-06-19T13:02:28Z</time>
      </trkpt>
      <trkpt lat="44.05716" lon="5.24729">
        <ele>344.77</ele>
        <time>2016-06-19T13:02:29Z</time>
      </trkpt>
      <trkpt lat="44.05706" lon="5.24708">
        <ele>344.29</ele>
        <time>2016-06-19T13:02:30Z</time>
      </trkpt>
      <trkpt lat="44.05635" lon="5.24575">
        <ele>340.44</ele>
        <time>2016-06-19T13:02:35Z</time>
      </trkpt>
      <trkpt lat="44.05547" lon="5.24414">
        <ele>333.23</ele>
        <time>2016-06-19T13:02:41Z</time>
      </trkpt>
      <trkpt lat="44.0553" lon="5.24396">
        <ele>331.31</ele>
        <time>2016-06-19T13:02:42Z</time>
      </trkpt>
      <trkpt lat="44.05497" lon="5.24372">
        <ele>329.39</ele>
        <time>2016-06-19T13:02:44Z</time>
      </trkpt>
      <trkpt lat="44.05484" lon="5.24357">
        <ele>328.43</ele>
        <time>2016-06-19T13:02:45Z</time>
      </trkpt>
      <trkpt lat="44.05473" lon="5.24334">
        <ele>327.47</ele>
        <time>2016-06-19T13:02:46Z</time>
      </trkpt>
      <trkpt lat="44.05463" lon="5.24308">
        <ele>326.5</ele>
        <time>2016-06-19T13:02:47Z</time>
      </trkpt>
      <trkpt lat="44.05454" lon="5.2428">
        <ele>325.54</ele>
        <time>2016-06-19T13:02:48Z</time>
      </trkpt>
      <trkpt lat="44.05424" lon="5.24205">
        <ele>323.62</ele>
        <time>2016-06-19T13:02:51Z</time>
      </trkpt>
      <trkpt lat="44.0541" lon="5.24189">
        <ele>322.18</ele>
        <time>2016-06-19T13:02:52Z</time>
      </trkpt>
      <trkpt lat="44.05393" lon="5.24174">
        <ele>321.7</ele>
        <time>2016-06-19T13:02:53Z</time>
      </trkpt>
      <trkpt lat="44.05378" lon="5.24158">
        <ele>321.7</ele>
        <time>2016-06-19T13:02:54Z</time>
      </trkpt>
      <trkpt lat="44.05364" lon="5.24142">
        <ele>321.22</ele>
        <time>2016-06-19T13:02:55Z</time>
      </trkpt>
      <trkpt lat="44.05353" lon="5.24123">
        <ele>320.74</ele>
        <time>2016-06-19T13:02:56Z</time>
      </trkpt>
      <trkpt lat="44.05346" lon="5.24105">
        <ele>320.74</ele>
        <time>2016-06-19T13:02:57Z</time>
      </trkpt>
      <trkpt lat="44.05343" lon="5.24091">
        <ele>320.26</ele>
        <time>2016-06-19T13:02:58Z</time>
      </trkpt>
      <trkpt lat="44.05345" lon="5.24079">
        <ele>319.78</ele>
        <time>2016-06-19T13:02:59Z</time>
      </trkpt>
      <trkpt lat="44.05354" lon="5.24067">
        <ele>319.78</ele>
        <time>2016-06-19T13:03:00Z</time>
      </trkpt>
      <trkpt lat="44.05381" lon="5.24005">
        <ele>318.33</ele>
        <time>2016-06-19T13:03:03Z</time>
      </trkpt>
      <trkpt lat="44.05387" lon="5.23981">
        <ele>317.85</ele>
        <time>2016-06-19T13:03:04Z</time>
      </trkpt>
      <trkpt lat="44.05391" lon="5.23957">
        <ele>317.37</ele>
        <time>2016-06-19T13:03:05Z</time>
      </trkpt>
      <trkpt lat="44.05392" lon="5.23935">
        <ele>316.41</ele>
        <time>2016-06-19T13:03:06Z</time>
      </trkpt>
      <trkpt lat="44.05391" lon="5.23914">
        <ele>315.93</ele>
        <time>2016-06-19T13:03:07Z</time>
      </trkpt>
      <trkpt lat="44.05389" lon="5.23894">
        <ele>315.93</ele>
        <time>2016-06-19T13:03:08Z</time>
      </trkpt>
      <trkpt lat="44.05387" lon="5.23876">
        <ele>315.45</ele>
        <time>2016-06-19T13:03:09Z</time>
      </trkpt>
      <trkpt lat="44.05387" lon="5.23862">
        <ele>314.49</ele>
        <time>2016-06-19T13:03:10Z</time>
      </trkpt>
      <trkpt lat="44.05392" lon="5.23846">
        <ele>314.01</ele>
        <time>2016-06-19T13:03:11Z</time>
      </trkpt>
      <trkpt lat="44.054" lon="5.23832">
        <ele>313.53</ele>
        <time>2016-06-19T13:03:12Z</time>
      </trkpt>
      <trkpt lat="44.05413" lon="5.23819">
        <ele>313.05</ele>
        <time>2016-06-19T13:03:13Z</time>
      </trkpt>
      <trkpt lat="44.05427" lon="5.23807">
        <ele>312.57</ele>
        <time>2016-06-19T13:03:14Z</time>
      </trkpt>
      <trkpt lat="44.05439" lon="5.23794">
        <ele>312.09</ele>
        <time>2016-06-19T13:03:15Z</time>
      </trkpt>
      <trkpt lat="44.0545" lon="5.23781">
        <ele>311.12</ele>
        <time>2016-06-19T13:03:16Z</time>
      </trkpt>
      <trkpt lat="44.0546" lon="5.23767">
        <ele>311.12</ele>
        <time>2016-06-19T13:03:17Z</time>
      </trkpt>
      <trkpt lat="44.05481" lon="5.23744">
        <ele>310.16</ele>
        <time>2016-06-19T13:03:19Z</time>
      </trkpt>
      <trkpt lat="44.05492" lon="5.23737">
        <ele>310.16</ele>
        <time>2016-06-19T13:03:20Z</time>
      </trkpt>
      <trkpt lat="44.05504" lon="5.23734">
        <ele>309.68</ele>
        <time>2016-06-19T13:03:21Z</time>
      </trkpt>
      <trkpt lat="44.05516" lon="5.23733">
        <ele>309.68</ele>
        <time>2016-06-19T13:03:22Z</time>
      </trkpt>
      <trkpt lat="44.05527" lon="5.23734">
        <ele>308.72</ele>
        <time>2016-06-19T13:03:23Z</time>
      </trkpt>
      <trkpt lat="44.05538" lon="5.23733">
        <ele>308.72</ele>
        <time>2016-06-19T13:03:24Z</time>
      </trkpt>
      <trkpt lat="44.05549" lon="5.23731">
        <ele>308.24</ele>
        <time>2016-06-19T13:03:25Z</time>
      </trkpt>
      <trkpt lat="44.05652" lon="5.23692">
        <ele>306.32</ele>
        <time>2016-06-19T13:03:35Z</time>
      </trkpt>
      <trkpt lat="44.05658" lon="5.23691">
        <ele>306.32</ele>
        <time>2016-06-19T13:03:36Z</time>
      </trkpt>
      <trkpt lat="44.05662" lon="5.23693">
        <ele>306.8</ele>
        <time>2016-06-19T13:03:37Z</time>
      </trkpt>
      <trkpt lat="44.05668" lon="5.23698">
        <ele>309.2</ele>
        <time>2016-06-19T13:03:45Z</time>
      </trkpt>
      <trkpt lat="44.05672" lon="5.237">
        <ele>310.64</ele>
        <time>2016-06-19T13:03:57Z</time>
      </trkpt>
      <trkpt lat="44.05674" lon="5.23698">
        <ele>310.64</ele>
        <time>2016-06-19T13:03:58Z</time>
      </trkpt>
      <trkpt lat="44.05676" lon="5.23696">
        <ele>310.64</ele>
        <time>2016-06-19T13:03:59Z</time>
      </trkpt>
      <trkpt lat="44.05679" lon="5.23693">
        <ele>310.16</ele>
        <time>2016-06-19T13:04:00Z</time>
      </trkpt>
      <trkpt lat="44.05681" lon="5.2369">
        <ele>310.16</ele>
        <time>2016-06-19T13:04:01Z</time>
      </trkpt>
      <trkpt lat="44.05682" lon="5.23685">
        <ele>309.2</ele>
        <time>2016-06-19T13:04:11Z</time>
      </trkpt>
      <trkpt lat="44.05682" lon="5.23689">
        <ele>304.39</ele>
        <time>2016-06-19T13:06:23Z</time>
      </trkpt>
      <trkpt lat="44.05685" lon="5.23679">
        <ele>309.68</ele>
        <time>2016-06-19T13:10:23Z</time>
      </trkpt>
      <trkpt lat="44.05686" lon="5.23679">
        <ele>309.68</ele>
        <time>2016-06-19T13:11:43Z</time>
      </trkpt>
      <trkpt lat="44.05686" lon="5.23679">
        <ele>310.64</ele>
        <time>2016-06-19T13:12:04Z</time>
      </trkpt>
      <trkpt lat="44.0569" lon="5.23669">
        <ele>310.16</ele>
        <time>2016-06-19T13:12:07Z</time>
      </trkpt>
      <trkpt lat="44.05693" lon="5.23663">
        <ele>310.16</ele>
        <time>2016-06-19T13:12:08Z</time>
      </trkpt>
      <trkpt lat="44.05697" lon="5.23657">
        <ele>309.68</ele>
        <time>2016-06-19T13:12:09Z</time>
      </trkpt>
      <trkpt lat="44.0575" lon="5.23572">
        <ele>307.28</ele>
        <time>2016-06-19T13:12:22Z</time>
      </trkpt>
      <trkpt lat="44.05792" lon="5.23504">
        <ele>305.84</ele>
        <time>2016-06-19T13:12:31Z</time>
      </trkpt>
      <trkpt lat="44.05798" lon="5.23499">
        <ele>305.84</ele>
        <time>2016-06-19T13:12:32Z</time>
      </trkpt>
      <trkpt lat="44.05803" lon="5.23498">
        <ele>306.32</ele>
        <time>2016-06-19T13:12:33Z</time>
      </trkpt>
      <trkpt lat="44.05809" lon="5.23499">
        <ele>306.8</ele>
        <time>2016-06-19T13:12:34Z</time>
      </trkpt>
      <trkpt lat="44.05814" lon="5.23499">
        <ele>307.28</ele>
        <time>2016-06-19T13:12:35Z</time>
      </trkpt>
      <trkpt lat="44.05823" lon="5.23498">
        <ele>307.28</ele>
        <time>2016-06-19T13:12:37Z</time>
      </trkpt>
      <trkpt lat="44.05827" lon="5.23498">
        <ele>307.76</ele>
        <time>2016-06-19T13:12:38Z</time>
      </trkpt>
      <trkpt lat="44.05847" lon="5.23492">
        <ele>314.01</ele>
        <time>2016-06-19T13:12:43Z</time>
      </trkpt>
      <trkpt lat="44.05851" lon="5.23489">
        <ele>314.49</ele>
        <time>2016-06-19T13:12:44Z</time>
      </trkpt>
      <trkpt lat="44.05854" lon="5.23485">
        <ele>315.45</ele>
        <time>2016-06-19T13:12:45Z</time>
      </trkpt>
      <trkpt lat="44.05859" lon="5.23481">
        <ele>314.01</ele>
        <time>2016-06-19T13:12:46Z</time>
      </trkpt>
      <trkpt lat="44.05862" lon="5.23476">
        <ele>313.53</ele>
        <time>2016-06-19T13:12:47Z</time>
      </trkpt>
      <trkpt lat="44.0587" lon="5.23465">
        <ele>312.09</ele>
        <time>2016-06-19T13:12:49Z</time>
      </trkpt>
      <trkpt lat="44.05874" lon="5.23458">
        <ele>311.6</ele>
        <time>2016-06-19T13:12:50Z</time>
      </trkpt>
      <trkpt lat="44.05879" lon="5.23444">
        <ele>309.68</ele>
        <time>2016-06-19T13:12:52Z</time>
      </trkpt>
      <trkpt lat="44.05883" lon="5.23423">
        <ele>307.28</ele>
        <time>2016-06-19T13:12:55Z</time>
      </trkpt>
      <trkpt lat="44.05885" lon="5.23416">
        <ele>306.8</ele>
        <time>2016-06-19T13:12:56Z</time>
      </trkpt>
      <trkpt lat="44.05887" lon="5.23408">
        <ele>306.8</ele>
        <time>2016-06-19T13:12:57Z</time>
      </trkpt>
      <trkpt lat="44.05888" lon="5.23401">
        <ele>306.8</ele>
        <time>2016-06-19T13:12:58Z</time>
      </trkpt>
      <trkpt lat="44.05887" lon="5.23394">
        <ele>306.8</ele>
        <time>2016-06-19T13:12:59Z</time>
      </trkpt>
      <trkpt lat="44.05885" lon="5.2338">
        <ele>306.8</ele>
        <time>2016-06-19T13:13:01Z</time>
      </trkpt>
      <trkpt lat="44.05882" lon="5.23372">
        <ele>307.28</ele>
        <time>2016-06-19T13:13:02Z</time>
      </trkpt>
      <trkpt lat="44.05858" lon="5.2332">
        <ele>304.39</ele>
        <time>2016-06-19T13:13:13Z</time>
      </trkpt>
      <trkpt lat="44.05851" lon="5.23313">
        <ele>305.36</ele>
        <time>2016-06-19T13:13:15Z</time>
      </trkpt>
      <trkpt lat="44.05846" lon="5.23309">
        <ele>306.32</ele>
        <time>2016-06-19T13:13:16Z</time>
      </trkpt>
      <trkpt lat="44.0584" lon="5.23306">
        <ele>306.32</ele>
        <time>2016-06-19T13:13:17Z</time>
      </trkpt>
      <trkpt lat="44.05835" lon="5.23305">
        <ele>306.32</ele>
        <time>2016-06-19T13:13:18Z</time>
      </trkpt>
      <trkpt lat="44.05828" lon="5.23305">
        <ele>306.8</ele>
        <time>2016-06-19T13:13:19Z</time>
      </trkpt>
      <trkpt lat="44.05821" lon="5.23306">
        <ele>307.28</ele>
        <time>2016-06-19T13:13:20Z</time>
      </trkpt>
      <trkpt lat="44.05815" lon="5.23308">
        <ele>308.24</ele>
        <time>2016-06-19T13:13:21Z</time>
      </trkpt>
      <trkpt lat="44.05809" lon="5.23307">
        <ele>310.64</ele>
        <time>2016-06-19T13:13:22Z</time>
      </trkpt>
      <trkpt lat="44.05804" lon="5.23305">
        <ele>310.64</ele>
        <time>2016-06-19T13:13:23Z</time>
      </trkpt>
      <trkpt lat="44.05804" lon="5.23298">
        <ele>311.12</ele>
        <time>2016-06-19T13:13:24Z</time>
      </trkpt>
      <trkpt lat="44.05801" lon="5.23289">
        <ele>310.16</ele>
        <time>2016-06-19T13:13:25Z</time>
      </trkpt>
      <trkpt lat="44.058" lon="5.23278">
        <ele>308.72</ele>
        <time>2016-06-19T13:13:26Z</time>
      </trkpt>
      <trkpt lat="44.05781" lon="5.23172">
        <ele>299.59</ele>
        <time>2016-06-19T13:13:34Z</time>
      </trkpt>
      <trkpt lat="44.05753" lon="5.2304">
        <ele>291.9</ele>
        <time>2016-06-19T13:13:44Z</time>
      </trkpt>
      <trkpt lat="44.05734" lon="5.22894">
        <ele>289.01</ele>
        <time>2016-06-19T13:13:55Z</time>
      </trkpt>
      <trkpt lat="44.0573" lon="5.22817">
        <ele>286.61</ele>
        <time>2016-06-19T13:14:03Z</time>
      </trkpt>
      <trkpt lat="44.05724" lon="5.2273">
        <ele>284.69</ele>
        <time>2016-06-19T13:14:10Z</time>
      </trkpt>
      <trkpt lat="44.05725" lon="5.2272">
        <ele>284.69</ele>
        <time>2016-06-19T13:14:11Z</time>
      </trkpt>
      <trkpt lat="44.05725" lon="5.22712">
        <ele>284.69</ele>
        <time>2016-06-19T13:14:12Z</time>
      </trkpt>
      <trkpt lat="44.05725" lon="5.22704">
        <ele>284.69</ele>
        <time>2016-06-19T13:14:13Z</time>
      </trkpt>
      <trkpt lat="44.05722" lon="5.22696">
        <ele>284.21</ele>
        <time>2016-06-19T13:14:14Z</time>
      </trkpt>
      <trkpt lat="44.0572" lon="5.22688">
        <ele>284.21</ele>
        <time>2016-06-19T13:14:15Z</time>
      </trkpt>
      <trkpt lat="44.05719" lon="5.22676">
        <ele>283.73</ele>
        <time>2016-06-19T13:14:16Z</time>
      </trkpt>
      <trkpt lat="44.05718" lon="5.22663">
        <ele>283.73</ele>
        <time>2016-06-19T13:14:17Z</time>
      </trkpt>
      <trkpt lat="44.05717" lon="5.22649">
        <ele>283.73</ele>
        <time>2016-06-19T13:14:18Z</time>
      </trkpt>
      <trkpt lat="44.05705" lon="5.22485">
        <ele>281.32</ele>
        <time>2016-06-19T13:14:28Z</time>
      </trkpt>
      <trkpt lat="44.05695" lon="5.22446">
        <ele>280.84</ele>
        <time>2016-06-19T13:14:30Z</time>
      </trkpt>
      <trkpt lat="44.05684" lon="5.22428">
        <ele>279.4</ele>
        <time>2016-06-19T13:14:31Z</time>
      </trkpt>
      <trkpt lat="44.0567" lon="5.22409">
        <ele>279.4</ele>
        <time>2016-06-19T13:14:32Z</time>
      </trkpt>
      <trkpt lat="44.0558" lon="5.22295">
        <ele>277.48</ele>
        <time>2016-06-19T13:14:37Z</time>
      </trkpt>
      <trkpt lat="44.05461" lon="5.22172">
        <ele>274.59</ele>
        <time>2016-06-19T13:14:43Z</time>
      </trkpt>
      <trkpt lat="44.05325" lon="5.22027">
        <ele>270.75</ele>
        <time>2016-06-19T13:14:49Z</time>
      </trkpt>
      <trkpt lat="44.05226" lon="5.21913">
        <ele>268.35</ele>
        <time>2016-06-19T13:14:54Z</time>
      </trkpt>
      <trkpt lat="44.05211" lon="5.21886">
        <ele>267.38</ele>
        <time>2016-06-19T13:14:55Z</time>
      </trkpt>
      <trkpt lat="44.05143" lon="5.2174">
        <ele>264.02</ele>
        <time>2016-06-19T13:15:00Z</time>
      </trkpt>
      <trkpt lat="44.05138" lon="5.21705">
        <ele>263.06</ele>
        <time>2016-06-19T13:15:01Z</time>
      </trkpt>
      <trkpt lat="44.05138" lon="5.21673">
        <ele>262.1</ele>
        <time>2016-06-19T13:15:02Z</time>
      </trkpt>
      <trkpt lat="44.05143" lon="5.21643">
        <ele>260.65</ele>
        <time>2016-06-19T13:15:03Z</time>
      </trkpt>
      <trkpt lat="44.05153" lon="5.21615">
        <ele>259.69</ele>
        <time>2016-06-19T13:15:04Z</time>
      </trkpt>
      <trkpt lat="44.05168" lon="5.21589">
        <ele>260.65</ele>
        <time>2016-06-19T13:15:05Z</time>
      </trkpt>
      <trkpt lat="44.05182" lon="5.21564">
        <ele>260.65</ele>
        <time>2016-06-19T13:15:06Z</time>
      </trkpt>
      <trkpt lat="44.05215" lon="5.21493">
        <ele>260.17</ele>
        <time>2016-06-19T13:15:09Z</time>
      </trkpt>
      <trkpt lat="44.05218" lon="5.21468">
        <ele>260.17</ele>
        <time>2016-06-19T13:15:10Z</time>
      </trkpt>
      <trkpt lat="44.05216" lon="5.21441">
        <ele>259.69</ele>
        <time>2016-06-19T13:15:11Z</time>
      </trkpt>
      <trkpt lat="44.05213" lon="5.21412">
        <ele>259.21</ele>
        <time>2016-06-19T13:15:12Z</time>
      </trkpt>
      <trkpt lat="44.05207" lon="5.2138">
        <ele>259.21</ele>
        <time>2016-06-19T13:15:13Z</time>
      </trkpt>
      <trkpt lat="44.05201" lon="5.21347">
        <ele>259.69</ele>
        <time>2016-06-19T13:15:14Z</time>
      </trkpt>
      <trkpt lat="44.05182" lon="5.21198">
        <ele>260.17</ele>
        <time>2016-06-19T13:15:19Z</time>
      </trkpt>
      <trkpt lat="44.05187" lon="5.21168">
        <ele>260.17</ele>
        <time>2016-06-19T13:15:20Z</time>
      </trkpt>
      <trkpt lat="44.05195" lon="5.21136">
        <ele>259.69</ele>
        <time>2016-06-19T13:15:21Z</time>
      </trkpt>
      <trkpt lat="44.05267" lon="5.20815">
        <ele>254.41</ele>
        <time>2016-06-19T13:15:31Z</time>
      </trkpt>
      <trkpt lat="44.0526" lon="5.20598">
        <ele>250.08</ele>
        <time>2016-06-19T13:15:37Z</time>
      </trkpt>
      <trkpt lat="44.05247" lon="5.20242">
        <ele>239.51</ele>
        <time>2016-06-19T13:15:46Z</time>
      </trkpt>
      <trkpt lat="44.05254" lon="5.20023">
        <ele>232.3</ele>
        <time>2016-06-19T13:15:53Z</time>
      </trkpt>
      <trkpt lat="44.05266" lon="5.19995">
        <ele>231.33</ele>
        <time>2016-06-19T13:15:54Z</time>
      </trkpt>
      <trkpt lat="44.05281" lon="5.19969">
        <ele>230.37</ele>
        <time>2016-06-19T13:15:55Z</time>
      </trkpt>
      <trkpt lat="44.05298" lon="5.19944">
        <ele>228.93</ele>
        <time>2016-06-19T13:15:56Z</time>
      </trkpt>
      <trkpt lat="44.05315" lon="5.19918">
        <ele>227.01</ele>
        <time>2016-06-19T13:15:57Z</time>
      </trkpt>
      <trkpt lat="44.05487" lon="5.19659">
        <ele>224.61</ele>
        <time>2016-06-19T13:16:07Z</time>
      </trkpt>
      <trkpt lat="44.056" lon="5.19463">
        <ele>223.64</ele>
        <time>2016-06-19T13:16:14Z</time>
      </trkpt>
      <trkpt lat="44.05764" lon="5.19168">
        <ele>219.8</ele>
        <time>2016-06-19T13:16:25Z</time>
      </trkpt>
      <trkpt lat="44.0584" lon="5.19006">
        <ele>215.95</ele>
        <time>2016-06-19T13:16:31Z</time>
      </trkpt>
      <trkpt lat="44.05862" lon="5.18958">
        <ele>215.47</ele>
        <time>2016-06-19T13:16:33Z</time>
      </trkpt>
      <trkpt lat="44.05875" lon="5.18942">
        <ele>215.47</ele>
        <time>2016-06-19T13:16:34Z</time>
      </trkpt>
      <trkpt lat="44.0589" lon="5.18929">
        <ele>215.47</ele>
        <time>2016-06-19T13:16:35Z</time>
      </trkpt>
      <trkpt lat="44.05963" lon="5.18853">
        <ele>216.91</ele>
        <time>2016-06-19T13:16:42Z</time>
      </trkpt>
      <trkpt lat="44.05988" lon="5.18814">
        <ele>216.91</ele>
        <time>2016-06-19T13:16:45Z</time>
      </trkpt>
      <trkpt lat="44.05994" lon="5.18797">
        <ele>216.91</ele>
        <time>2016-06-19T13:16:46Z</time>
      </trkpt>
      <trkpt lat="44.05999" lon="5.18778">
        <ele>216.91</ele>
        <time>2016-06-19T13:16:47Z</time>
      </trkpt>
      <trkpt lat="44.06002" lon="5.18759">
        <ele>216.43</ele>
        <time>2016-06-19T13:16:48Z</time>
      </trkpt>
      <trkpt lat="44.06004" lon="5.18737">
        <ele>215.95</ele>
        <time>2016-06-19T13:16:49Z</time>
      </trkpt>
      <trkpt lat="44.06004" lon="5.18715">
        <ele>215.95</ele>
        <time>2016-06-19T13:16:50Z</time>
      </trkpt>
      <trkpt lat="44.06004" lon="5.18693">
        <ele>215.47</ele>
        <time>2016-06-19T13:16:51Z</time>
      </trkpt>
      <trkpt lat="44.06005" lon="5.18388">
        <ele>212.59</ele>
        <time>2016-06-19T13:17:06Z</time>
      </trkpt>
      <trkpt lat="44.05996" lon="5.18264">
        <ele>211.63</ele>
        <time>2016-06-19T13:17:15Z</time>
      </trkpt>
      <trkpt lat="44.05995" lon="5.18238">
        <ele>212.11</ele>
        <time>2016-06-19T13:17:18Z</time>
      </trkpt>
      <trkpt lat="44.05997" lon="5.18231">
        <ele>212.11</ele>
        <time>2016-06-19T13:17:19Z</time>
      </trkpt>
      <trkpt lat="44.06002" lon="5.18216">
        <ele>212.59</ele>
        <time>2016-06-19T13:17:21Z</time>
      </trkpt>
      <trkpt lat="44.06001" lon="5.18206">
        <ele>212.59</ele>
        <time>2016-06-19T13:17:22Z</time>
      </trkpt>
      <trkpt lat="44.05998" lon="5.18195">
        <ele>212.59</ele>
        <time>2016-06-19T13:17:23Z</time>
      </trkpt>
      <trkpt lat="44.05994" lon="5.18183">
        <ele>212.11</ele>
        <time>2016-06-19T13:17:24Z</time>
      </trkpt>
      <trkpt lat="44.0599" lon="5.18169">
        <ele>212.59</ele>
        <time>2016-06-19T13:17:25Z</time>
      </trkpt>
      <trkpt lat="44.05987" lon="5.18155">
        <ele>212.59</ele>
        <time>2016-06-19T13:17:26Z</time>
      </trkpt>
      <trkpt lat="44.05973" lon="5.18021">
        <ele>212.59</ele>
        <time>2016-06-19T13:17:34Z</time>
      </trkpt>
      <trkpt lat="44.05956" lon="5.17843">
        <ele>208.74</ele>
        <time>2016-06-19T13:17:44Z</time>
      </trkpt>
      <trkpt lat="44.05956" lon="5.1764">
        <ele>205.38</ele>
        <time>2016-06-19T13:17:54Z</time>
      </trkpt>
      <trkpt lat="44.05954" lon="5.17621">
        <ele>204.9</ele>
        <time>2016-06-19T13:17:55Z</time>
      </trkpt>
      <trkpt lat="44.05949" lon="5.17603">
        <ele>205.38</ele>
        <time>2016-06-19T13:17:56Z</time>
      </trkpt>
      <trkpt lat="44.05944" lon="5.17586">
        <ele>206.82</ele>
        <time>2016-06-19T13:17:57Z</time>
      </trkpt>
      <trkpt lat="44.05939" lon="5.17569">
        <ele>206.82</ele>
        <time>2016-06-19T13:17:58Z</time>
      </trkpt>
      <trkpt lat="44.05935" lon="5.17552">
        <ele>206.34</ele>
        <time>2016-06-19T13:17:59Z</time>
      </trkpt>
      <trkpt lat="44.05932" lon="5.17535">
        <ele>206.34</ele>
        <time>2016-06-19T13:18:00Z</time>
      </trkpt>
      <trkpt lat="44.05933" lon="5.17517">
        <ele>205.38</ele>
        <time>2016-06-19T13:18:01Z</time>
      </trkpt>
      <trkpt lat="44.05939" lon="5.17498">
        <ele>205.38</ele>
        <time>2016-06-19T13:18:02Z</time>
      </trkpt>
      <trkpt lat="44.05943" lon="5.1748">
        <ele>204.9</ele>
        <time>2016-06-19T13:18:03Z</time>
      </trkpt>
      <trkpt lat="44.05945" lon="5.17461">
        <ele>204.42</ele>
        <time>2016-06-19T13:18:04Z</time>
      </trkpt>
      <trkpt lat="44.05945" lon="5.17443">
        <ele>203.94</ele>
        <time>2016-06-19T13:18:05Z</time>
      </trkpt>
      <trkpt lat="44.05944" lon="5.17424">
        <ele>203.46</ele>
        <time>2016-06-19T13:18:06Z</time>
      </trkpt>
      <trkpt lat="44.05942" lon="5.17403">
        <ele>203.46</ele>
        <time>2016-06-19T13:18:07Z</time>
      </trkpt>
      <trkpt lat="44.0594" lon="5.17383">
        <ele>202.98</ele>
        <time>2016-06-19T13:18:08Z</time>
      </trkpt>
      <trkpt lat="44.05913" lon="5.17189">
        <ele>200.09</ele>
        <time>2016-06-19T13:18:15Z</time>
      </trkpt>
      <trkpt lat="44.05886" lon="5.16932">
        <ele>198.17</ele>
        <time>2016-06-19T13:18:21Z</time>
      </trkpt>
      <trkpt lat="44.05863" lon="5.16795">
        <ele>197.69</ele>
        <time>2016-06-19T13:18:25Z</time>
      </trkpt>
      <trkpt lat="44.05851" lon="5.16763">
        <ele>197.69</ele>
        <time>2016-06-19T13:18:26Z</time>
      </trkpt>
      <trkpt lat="44.05839" lon="5.16733">
        <ele>197.21</ele>
        <time>2016-06-19T13:18:27Z</time>
      </trkpt>
      <trkpt lat="44.05753" lon="5.16584">
        <ele>193.84</ele>
        <time>2016-06-19T13:18:33Z</time>
      </trkpt>
      <trkpt lat="44.05731" lon="5.16563">
        <ele>192.4</ele>
        <time>2016-06-19T13:18:34Z</time>
      </trkpt>
      <trkpt lat="44.05705" lon="5.16544">
        <ele>192.4</ele>
        <time>2016-06-19T13:18:35Z</time>
      </trkpt>
      <trkpt lat="44.05543" lon="5.16412">
        <ele>190.48</ele>
        <time>2016-06-19T13:18:42Z</time>
      </trkpt>
      <trkpt lat="44.05519" lon="5.16404">
        <ele>190.48</ele>
        <time>2016-06-19T13:18:43Z</time>
      </trkpt>
      <trkpt lat="44.05492" lon="5.16399">
        <ele>190</ele>
        <time>2016-06-19T13:18:44Z</time>
      </trkpt>
      <trkpt lat="44.05466" lon="5.16396">
        <ele>189.04</ele>
        <time>2016-06-19T13:18:45Z</time>
      </trkpt>
      <trkpt lat="44.05439" lon="5.16395">
        <ele>188.08</ele>
        <time>2016-06-19T13:18:46Z</time>
      </trkpt>
      <trkpt lat="44.05411" lon="5.16396">
        <ele>187.59</ele>
        <time>2016-06-19T13:18:47Z</time>
      </trkpt>
      <trkpt lat="44.05384" lon="5.16397">
        <ele>187.11</ele>
        <time>2016-06-19T13:18:48Z</time>
      </trkpt>
      <trkpt lat="44.05254" lon="5.16422">
        <ele>182.31</ele>
        <time>2016-06-19T13:18:54Z</time>
      </trkpt>
      <trkpt lat="44.05235" lon="5.16437">
        <ele>182.79</ele>
        <time>2016-06-19T13:18:55Z</time>
      </trkpt>
      <trkpt lat="44.0518" lon="5.16465">
        <ele>183.27</ele>
        <time>2016-06-19T13:18:58Z</time>
      </trkpt>
      <trkpt lat="44.0516" lon="5.16461">
        <ele>184.23</ele>
        <time>2016-06-19T13:18:59Z</time>
      </trkpt>
      <trkpt lat="44.05144" lon="5.16442">
        <ele>182.31</ele>
        <time>2016-06-19T13:19:00Z</time>
      </trkpt>
      <trkpt lat="44.05131" lon="5.16421">
        <ele>181.35</ele>
        <time>2016-06-19T13:19:01Z</time>
      </trkpt>
      <trkpt lat="44.05122" lon="5.16391">
        <ele>181.35</ele>
        <time>2016-06-19T13:19:02Z</time>
      </trkpt>
      <trkpt lat="44.05114" lon="5.16362">
        <ele>180.87</ele>
        <time>2016-06-19T13:19:03Z</time>
      </trkpt>
      <trkpt lat="44.05109" lon="5.1633">
        <ele>180.87</ele>
        <time>2016-06-19T13:19:04Z</time>
      </trkpt>
      <trkpt lat="44.05103" lon="5.16299">
        <ele>181.83</ele>
        <time>2016-06-19T13:19:05Z</time>
      </trkpt>
      <trkpt lat="44.05093" lon="5.16134">
        <ele>181.83</ele>
        <time>2016-06-19T13:19:11Z</time>
      </trkpt>
      <trkpt lat="44.05098" lon="5.16002">
        <ele>181.83</ele>
        <time>2016-06-19T13:19:18Z</time>
      </trkpt>
      <trkpt lat="44.05098" lon="5.15993">
        <ele>182.31</ele>
        <time>2016-06-19T13:19:19Z</time>
      </trkpt>
      <trkpt lat="44.05096" lon="5.15987">
        <ele>181.83</ele>
        <time>2016-06-19T13:19:20Z</time>
      </trkpt>
      <trkpt lat="44.05093" lon="5.15982">
        <ele>181.35</ele>
        <time>2016-06-19T13:19:21Z</time>
      </trkpt>
      <trkpt lat="44.05083" lon="5.15969">
        <ele>180.87</ele>
        <time>2016-06-19T13:19:23Z</time>
      </trkpt>
      <trkpt lat="44.05079" lon="5.15961">
        <ele>180.87</ele>
        <time>2016-06-19T13:19:24Z</time>
      </trkpt>
      <trkpt lat="44.05037" lon="5.15836">
        <ele>180.87</ele>
        <time>2016-06-19T13:19:34Z</time>
      </trkpt>
      <trkpt lat="44.04996" lon="5.15707">
        <ele>181.83</ele>
        <time>2016-06-19T13:19:40Z</time>
      </trkpt>
      <trkpt lat="44.0494" lon="5.15542">
        <ele>183.75</ele>
        <time>2016-06-19T13:19:46Z</time>
      </trkpt>
      <trkpt lat="44.04928" lon="5.15518">
        <ele>184.23</ele>
        <time>2016-06-19T13:19:47Z</time>
      </trkpt>
      <trkpt lat="44.04911" lon="5.15499">
        <ele>184.23</ele>
        <time>2016-06-19T13:19:48Z</time>
      </trkpt>
      <trkpt lat="44.04894" lon="5.1548">
        <ele>184.71</ele>
        <time>2016-06-19T13:19:49Z</time>
      </trkpt>
      <trkpt lat="44.04877" lon="5.15464">
        <ele>184.71</ele>
        <time>2016-06-19T13:19:50Z</time>
      </trkpt>
      <trkpt lat="44.04814" lon="5.15415">
        <ele>187.11</ele>
        <time>2016-06-19T13:19:54Z</time>
      </trkpt>
      <trkpt lat="44.04795" lon="5.15417">
        <ele>188.56</ele>
        <time>2016-06-19T13:19:55Z</time>
      </trkpt>
      <trkpt lat="44.04777" lon="5.1542">
        <ele>189.04</ele>
        <time>2016-06-19T13:19:56Z</time>
      </trkpt>
      <trkpt lat="44.04745" lon="5.15418">
        <ele>189.52</ele>
        <time>2016-06-19T13:19:58Z</time>
      </trkpt>
      <trkpt lat="44.0473" lon="5.15408">
        <ele>190</ele>
        <time>2016-06-19T13:19:59Z</time>
      </trkpt>
      <trkpt lat="44.04715" lon="5.15393">
        <ele>190</ele>
        <time>2016-06-19T13:20:00Z</time>
      </trkpt>
      <trkpt lat="44.047" lon="5.15373">
        <ele>190</ele>
        <time>2016-06-19T13:20:01Z</time>
      </trkpt>
      <trkpt lat="44.04685" lon="5.15353">
        <ele>190</ele>
        <time>2016-06-19T13:20:02Z</time>
      </trkpt>
      <trkpt lat="44.04596" lon="5.15243">
        <ele>190.48</ele>
        <time>2016-06-19T13:20:08Z</time>
      </trkpt>
      <trkpt lat="44.04581" lon="5.15231">
        <ele>190.48</ele>
        <time>2016-06-19T13:20:09Z</time>
      </trkpt>
      <trkpt lat="44.04564" lon="5.15222">
        <ele>190.96</ele>
        <time>2016-06-19T13:20:10Z</time>
      </trkpt>
      <trkpt lat="44.0448" lon="5.15168">
        <ele>192.88</ele>
        <time>2016-06-19T13:20:17Z</time>
      </trkpt>
      <trkpt lat="44.04478" lon="5.15166">
        <ele>193.36</ele>
        <time>2016-06-19T13:20:22Z</time>
      </trkpt>
      <trkpt lat="44.0445" lon="5.15138">
        <ele>194.32</ele>
        <time>2016-06-19T13:20:56Z</time>
      </trkpt>
      <trkpt lat="44.04396" lon="5.15089">
        <ele>194.32</ele>
        <time>2016-06-19T13:21:00Z</time>
      </trkpt>
      <trkpt lat="44.04377" lon="5.15077">
        <ele>194.32</ele>
        <time>2016-06-19T13:21:01Z</time>
      </trkpt>
      <trkpt lat="44.04354" lon="5.15069">
        <ele>194.8</ele>
        <time>2016-06-19T13:21:02Z</time>
      </trkpt>
      <trkpt lat="44.0433" lon="5.15063">
        <ele>194.8</ele>
        <time>2016-06-19T13:21:03Z</time>
      </trkpt>
      <trkpt lat="44.04304" lon="5.15058">
        <ele>194.8</ele>
        <time>2016-06-19T13:21:04Z</time>
      </trkpt>
      <trkpt lat="44.04088" lon="5.15007">
        <ele>197.21</ele>
        <time>2016-06-19T13:21:12Z</time>
      </trkpt>
      <trkpt lat="44.03947" lon="5.1495">
        <ele>199.61</ele>
        <time>2016-06-19T13:21:18Z</time>
      </trkpt>
      <trkpt lat="44.03845" lon="5.14939">
        <ele>201.53</ele>
        <time>2016-06-19T13:21:22Z</time>
      </trkpt>
      <trkpt lat="44.03819" lon="5.14942">
        <ele>202.49</ele>
        <time>2016-06-19T13:21:23Z</time>
      </trkpt>
      <trkpt lat="44.03747" lon="5.14953">
        <ele>205.38</ele>
        <time>2016-06-19T13:21:26Z</time>
      </trkpt>
      <trkpt lat="44.03724" lon="5.14952">
        <ele>205.86</ele>
        <time>2016-06-19T13:21:27Z</time>
      </trkpt>
      <trkpt lat="44.0364" lon="5.14954">
        <ele>208.74</ele>
        <time>2016-06-19T13:21:31Z</time>
      </trkpt>
      <trkpt lat="44.03619" lon="5.14963">
        <ele>210.19</ele>
        <time>2016-06-19T13:21:32Z</time>
      </trkpt>
      <trkpt lat="44.03558" lon="5.1498">
        <ele>213.07</ele>
        <time>2016-06-19T13:21:35Z</time>
      </trkpt>
      <trkpt lat="44.03534" lon="5.1498">
        <ele>213.55</ele>
        <time>2016-06-19T13:21:36Z</time>
      </trkpt>
      <trkpt lat="44.034" lon="5.14974">
        <ele>215.47</ele>
        <time>2016-06-19T13:21:42Z</time>
      </trkpt>
      <trkpt lat="44.03381" lon="5.14982">
        <ele>215.47</ele>
        <time>2016-06-19T13:21:43Z</time>
      </trkpt>
      <trkpt lat="44.03363" lon="5.14991">
        <ele>215.47</ele>
        <time>2016-06-19T13:21:44Z</time>
      </trkpt>
      <trkpt lat="44.03218" lon="5.15084">
        <ele>217.88</ele>
        <time>2016-06-19T13:21:52Z</time>
      </trkpt>
      <trkpt lat="44.03067" lon="5.15167">
        <ele>214.99</ele>
        <time>2016-06-19T13:21:59Z</time>
      </trkpt>
      <trkpt lat="44.02849" lon="5.15293">
        <ele>212.59</ele>
        <time>2016-06-19T13:22:08Z</time>
      </trkpt>
      <trkpt lat="44.0272" lon="5.1535">
        <ele>213.55</ele>
        <time>2016-06-19T13:22:14Z</time>
      </trkpt>
      <trkpt lat="44.027" lon="5.15362">
        <ele>213.55</ele>
        <time>2016-06-19T13:22:15Z</time>
      </trkpt>
      <trkpt lat="44.02681" lon="5.15377">
        <ele>213.07</ele>
        <time>2016-06-19T13:22:16Z</time>
      </trkpt>
      <trkpt lat="44.02588" lon="5.15476">
        <ele>210.19</ele>
        <time>2016-06-19T13:22:22Z</time>
      </trkpt>
      <trkpt lat="44.02583" lon="5.15496">
        <ele>209.22</ele>
        <time>2016-06-19T13:22:23Z</time>
      </trkpt>
      <trkpt lat="44.02547" lon="5.15603">
        <ele>207.3</ele>
        <time>2016-06-19T13:22:29Z</time>
      </trkpt>
      <trkpt lat="44.0254" lon="5.15616">
        <ele>206.82</ele>
        <time>2016-06-19T13:22:30Z</time>
      </trkpt>
      <trkpt lat="44.02533" lon="5.15627">
        <ele>207.3</ele>
        <time>2016-06-19T13:22:31Z</time>
      </trkpt>
      <trkpt lat="44.02528" lon="5.15634">
        <ele>206.82</ele>
        <time>2016-06-19T13:22:32Z</time>
      </trkpt>
      <trkpt lat="44.02523" lon="5.15639">
        <ele>206.82</ele>
        <time>2016-06-19T13:22:33Z</time>
      </trkpt>
      <trkpt lat="44.02518" lon="5.1564">
        <ele>206.34</ele>
        <time>2016-06-19T13:22:34Z</time>
      </trkpt>
      <trkpt lat="44.02515" lon="5.15638">
        <ele>205.86</ele>
        <time>2016-06-19T13:22:35Z</time>
      </trkpt>
      <trkpt lat="44.02511" lon="5.15632">
        <ele>205.86</ele>
        <time>2016-06-19T13:22:36Z</time>
      </trkpt>
      <trkpt lat="44.02508" lon="5.15625">
        <ele>205.86</ele>
        <time>2016-06-19T13:22:37Z</time>
      </trkpt>
      <trkpt lat="44.02503" lon="5.15617">
        <ele>205.86</ele>
        <time>2016-06-19T13:22:38Z</time>
      </trkpt>
      <trkpt lat="44.02457" lon="5.15544">
        <ele>202.01</ele>
        <time>2016-06-19T13:22:44Z</time>
      </trkpt>
      <trkpt lat="44.02392" lon="5.15452">
        <ele>201.05</ele>
        <time>2016-06-19T13:22:50Z</time>
      </trkpt>
      <trkpt lat="44.02381" lon="5.15434">
        <ele>200.57</ele>
        <time>2016-06-19T13:22:51Z</time>
      </trkpt>
      <trkpt lat="44.02372" lon="5.15414">
        <ele>200.57</ele>
        <time>2016-06-19T13:22:52Z</time>
      </trkpt>
      <trkpt lat="44.02343" lon="5.15359">
        <ele>200.57</ele>
        <time>2016-06-19T13:22:55Z</time>
      </trkpt>
      <trkpt lat="44.02333" lon="5.15345">
        <ele>201.05</ele>
        <time>2016-06-19T13:22:56Z</time>
      </trkpt>
      <trkpt lat="44.02322" lon="5.15333">
        <ele>201.53</ele>
        <time>2016-06-19T13:22:57Z</time>
      </trkpt>
      <trkpt lat="44.02312" lon="5.15324">
        <ele>202.01</ele>
        <time>2016-06-19T13:22:58Z</time>
      </trkpt>
      <trkpt lat="44.02304" lon="5.15316">
        <ele>202.01</ele>
        <time>2016-06-19T13:22:59Z</time>
      </trkpt>
      <trkpt lat="44.02297" lon="5.15307">
        <ele>202.01</ele>
        <time>2016-06-19T13:23:00Z</time>
      </trkpt>
      <trkpt lat="44.02294" lon="5.15295">
        <ele>202.01</ele>
        <time>2016-06-19T13:23:01Z</time>
      </trkpt>
      <trkpt lat="44.02294" lon="5.1528">
        <ele>202.01</ele>
        <time>2016-06-19T13:23:02Z</time>
      </trkpt>
      <trkpt lat="44.02298" lon="5.15261">
        <ele>202.01</ele>
        <time>2016-06-19T13:23:03Z</time>
      </trkpt>
      <trkpt lat="44.02303" lon="5.15242">
        <ele>202.01</ele>
        <time>2016-06-19T13:23:04Z</time>
      </trkpt>
      <trkpt lat="44.02309" lon="5.1522">
        <ele>202.01</ele>
        <time>2016-06-19T13:23:05Z</time>
      </trkpt>
      <trkpt lat="44.02334" lon="5.15012">
        <ele>202.01</ele>
        <time>2016-06-19T13:23:14Z</time>
      </trkpt>
      <trkpt lat="44.02333" lon="5.14969">
        <ele>201.53</ele>
        <time>2016-06-19T13:23:17Z</time>
      </trkpt>
      <trkpt lat="44.0233" lon="5.14961">
        <ele>201.53</ele>
        <time>2016-06-19T13:23:18Z</time>
      </trkpt>
      <trkpt lat="44.02326" lon="5.14955">
        <ele>201.53</ele>
        <time>2016-06-19T13:23:19Z</time>
      </trkpt>
      <trkpt lat="44.0232" lon="5.1495">
        <ele>202.01</ele>
        <time>2016-06-19T13:23:20Z</time>
      </trkpt>
      <trkpt lat="44.02313" lon="5.14942">
        <ele>202.01</ele>
        <time>2016-06-19T13:23:21Z</time>
      </trkpt>
      <trkpt lat="44.02242" lon="5.14855">
        <ele>203.94</ele>
        <time>2016-06-19T13:23:28Z</time>
      </trkpt>
      <trkpt lat="44.02227" lon="5.14843">
        <ele>204.42</ele>
        <time>2016-06-19T13:23:29Z</time>
      </trkpt>
      <trkpt lat="44.02098" lon="5.14757">
        <ele>205.86</ele>
        <time>2016-06-19T13:23:36Z</time>
      </trkpt>
      <trkpt lat="44.01897" lon="5.14597">
        <ele>204.9</ele>
        <time>2016-06-19T13:23:46Z</time>
      </trkpt>
      <trkpt lat="44.01798" lon="5.14512">
        <ele>202.49</ele>
        <time>2016-06-19T13:23:51Z</time>
      </trkpt>
      <trkpt lat="44.01775" lon="5.14503">
        <ele>202.98</ele>
        <time>2016-06-19T13:23:52Z</time>
      </trkpt>
      <trkpt lat="44.01751" lon="5.14497">
        <ele>202.98</ele>
        <time>2016-06-19T13:23:53Z</time>
      </trkpt>
      <trkpt lat="44.01726" lon="5.14494">
        <ele>202.49</ele>
        <time>2016-06-19T13:23:54Z</time>
      </trkpt>
      <trkpt lat="44.01701" lon="5.14491">
        <ele>202.98</ele>
        <time>2016-06-19T13:23:55Z</time>
      </trkpt>
      <trkpt lat="44.01575" lon="5.14486">
        <ele>202.49</ele>
        <time>2016-06-19T13:24:01Z</time>
      </trkpt>
      <trkpt lat="44.01432" lon="5.14473">
        <ele>197.69</ele>
        <time>2016-06-19T13:24:08Z</time>
      </trkpt>
      <trkpt lat="44.01143" lon="5.14386">
        <ele>180.87</ele>
        <time>2016-06-19T13:24:21Z</time>
      </trkpt>
      <trkpt lat="44.01013" lon="5.14363">
        <ele>175.58</ele>
        <time>2016-06-19T13:24:28Z</time>
      </trkpt>
      <trkpt lat="44.00953" lon="5.14366">
        <ele>173.66</ele>
        <time>2016-06-19T13:24:33Z</time>
      </trkpt>
      <trkpt lat="44.00948" lon="5.14365">
        <ele>173.17</ele>
        <time>2016-06-19T13:24:34Z</time>
      </trkpt>
      <trkpt lat="44.00945" lon="5.14363">
        <ele>172.69</ele>
        <time>2016-06-19T13:24:35Z</time>
      </trkpt>
      <trkpt lat="44.00944" lon="5.14361">
        <ele>173.17</ele>
        <time>2016-06-19T13:24:36Z</time>
      </trkpt>
      <trkpt lat="44.00946" lon="5.1436">
        <ele>170.29</ele>
        <time>2016-06-19T13:24:50Z</time>
      </trkpt>
      <trkpt lat="44.00935" lon="5.14362">
        <ele>170.29</ele>
        <time>2016-06-19T13:25:16Z</time>
      </trkpt>
      <trkpt lat="44.00915" lon="5.14369">
        <ele>170.77</ele>
        <time>2016-06-19T13:25:18Z</time>
      </trkpt>
      <trkpt lat="44.00903" lon="5.14371">
        <ele>170.77</ele>
        <time>2016-06-19T13:25:19Z</time>
      </trkpt>
      <trkpt lat="44.00889" lon="5.14372">
        <ele>170.77</ele>
        <time>2016-06-19T13:25:20Z</time>
      </trkpt>
      <trkpt lat="44.00757" lon="5.1438">
        <ele>170.77</ele>
        <time>2016-06-19T13:25:28Z</time>
      </trkpt>
      <trkpt lat="44.00688" lon="5.14378">
        <ele>170.77</ele>
        <time>2016-06-19T13:25:32Z</time>
      </trkpt>
      <trkpt lat="44.0067" lon="5.14374">
        <ele>170.77</ele>
        <time>2016-06-19T13:25:33Z</time>
      </trkpt>
      <trkpt lat="44.00602" lon="5.14351">
        <ele>171.25</ele>
        <time>2016-06-19T13:25:37Z</time>
      </trkpt>
      <trkpt lat="44.00583" lon="5.1435">
        <ele>171.25</ele>
        <time>2016-06-19T13:25:38Z</time>
      </trkpt>
      <trkpt lat="44.00563" lon="5.14353">
        <ele>171.25</ele>
        <time>2016-06-19T13:25:39Z</time>
      </trkpt>
      <trkpt lat="44.00543" lon="5.14357">
        <ele>171.73</ele>
        <time>2016-06-19T13:25:40Z</time>
      </trkpt>
      <trkpt lat="44.00524" lon="5.14363">
        <ele>171.73</ele>
        <time>2016-06-19T13:25:41Z</time>
      </trkpt>
      <trkpt lat="44.00391" lon="5.14396">
        <ele>174.14</ele>
        <time>2016-06-19T13:25:49Z</time>
      </trkpt>
      <trkpt lat="44.0025" lon="5.14432">
        <ele>178.46</ele>
        <time>2016-06-19T13:26:00Z</time>
      </trkpt>
      <trkpt lat="44.00174" lon="5.14448">
        <ele>181.83</ele>
        <time>2016-06-19T13:26:08Z</time>
      </trkpt>
      <trkpt lat="44.00064" lon="5.14446">
        <ele>183.27</ele>
        <time>2016-06-19T13:26:20Z</time>
      </trkpt>
      <trkpt lat="44.00024" lon="5.14447">
        <ele>183.27</ele>
        <time>2016-06-19T13:26:26Z</time>
      </trkpt>
      <trkpt lat="44.00013" lon="5.14452">
        <ele>183.75</ele>
        <time>2016-06-19T13:26:27Z</time>
      </trkpt>
      <trkpt lat="44.00002" lon="5.14458">
        <ele>184.23</ele>
        <time>2016-06-19T13:26:28Z</time>
      </trkpt>
      <trkpt lat="43.99991" lon="5.14467">
        <ele>185.19</ele>
        <time>2016-06-19T13:26:29Z</time>
      </trkpt>
      <trkpt lat="43.99981" lon="5.14478">
        <ele>186.63</ele>
        <time>2016-06-19T13:26:30Z</time>
      </trkpt>
      <trkpt lat="43.99971" lon="5.1449">
        <ele>187.59</ele>
        <time>2016-06-19T13:26:31Z</time>
      </trkpt>
      <trkpt lat="43.99961" lon="5.14504">
        <ele>188.56</ele>
        <time>2016-06-19T13:26:32Z</time>
      </trkpt>
      <trkpt lat="43.99952" lon="5.14519">
        <ele>189.52</ele>
        <time>2016-06-19T13:26:33Z</time>
      </trkpt>
      <trkpt lat="43.9986" lon="5.14669">
        <ele>196.73</ele>
        <time>2016-06-19T13:26:41Z</time>
      </trkpt>
      <trkpt lat="43.99728" lon="5.14923">
        <ele>210.19</ele>
        <time>2016-06-19T13:26:52Z</time>
      </trkpt>
      <trkpt lat="43.99641" lon="5.15231">
        <ele>223.64</ele>
        <time>2016-06-19T13:27:03Z</time>
      </trkpt>
      <trkpt lat="43.99627" lon="5.15254">
        <ele>224.61</ele>
        <time>2016-06-19T13:27:04Z</time>
      </trkpt>
      <trkpt lat="43.99551" lon="5.15398">
        <ele>232.78</ele>
        <time>2016-06-19T13:27:09Z</time>
      </trkpt>
      <trkpt lat="43.99491" lon="5.15514">
        <ele>238.54</ele>
        <time>2016-06-19T13:27:14Z</time>
      </trkpt>
      <trkpt lat="43.99488" lon="5.15537">
        <ele>239.51</ele>
        <time>2016-06-19T13:27:15Z</time>
      </trkpt>
      <trkpt lat="43.99487" lon="5.15561">
        <ele>239.99</ele>
        <time>2016-06-19T13:27:16Z</time>
      </trkpt>
      <trkpt lat="43.99493" lon="5.15586">
        <ele>240.95</ele>
        <time>2016-06-19T13:27:17Z</time>
      </trkpt>
      <trkpt lat="43.99499" lon="5.15611">
        <ele>241.91</ele>
        <time>2016-06-19T13:27:18Z</time>
      </trkpt>
      <trkpt lat="43.99506" lon="5.15634">
        <ele>242.39</ele>
        <time>2016-06-19T13:27:19Z</time>
      </trkpt>
      <trkpt lat="43.99511" lon="5.15659">
        <ele>242.87</ele>
        <time>2016-06-19T13:27:20Z</time>
      </trkpt>
      <trkpt lat="43.99514" lon="5.15687">
        <ele>243.35</ele>
        <time>2016-06-19T13:27:21Z</time>
      </trkpt>
      <trkpt lat="43.99514" lon="5.15715">
        <ele>244.31</ele>
        <time>2016-06-19T13:27:22Z</time>
      </trkpt>
      <trkpt lat="43.99512" lon="5.15744">
        <ele>245.27</ele>
        <time>2016-06-19T13:27:23Z</time>
      </trkpt>
      <trkpt lat="43.99505" lon="5.15825">
        <ele>248.64</ele>
        <time>2016-06-19T13:27:26Z</time>
      </trkpt>
      <trkpt lat="43.99499" lon="5.1585">
        <ele>249.12</ele>
        <time>2016-06-19T13:27:27Z</time>
      </trkpt>
      <trkpt lat="43.9949" lon="5.15871">
        <ele>249.6</ele>
        <time>2016-06-19T13:27:28Z</time>
      </trkpt>
      <trkpt lat="43.99479" lon="5.15888">
        <ele>251.04</ele>
        <time>2016-06-19T13:27:29Z</time>
      </trkpt>
      <trkpt lat="43.99463" lon="5.15897">
        <ele>251.04</ele>
        <time>2016-06-19T13:27:30Z</time>
      </trkpt>
      <trkpt lat="43.99445" lon="5.15908">
        <ele>251.52</ele>
        <time>2016-06-19T13:27:31Z</time>
      </trkpt>
      <trkpt lat="43.99424" lon="5.15916">
        <ele>252.96</ele>
        <time>2016-06-19T13:27:32Z</time>
      </trkpt>
      <trkpt lat="43.99401" lon="5.15921">
        <ele>253.44</ele>
        <time>2016-06-19T13:27:33Z</time>
      </trkpt>
      <trkpt lat="43.99375" lon="5.15926">
        <ele>254.41</ele>
        <time>2016-06-19T13:27:34Z</time>
      </trkpt>
      <trkpt lat="43.99349" lon="5.15932">
        <ele>255.37</ele>
        <time>2016-06-19T13:27:35Z</time>
      </trkpt>
      <trkpt lat="43.99225" lon="5.15967">
        <ele>261.62</ele>
        <time>2016-06-19T13:27:41Z</time>
      </trkpt>
      <trkpt lat="43.9921" lon="5.15986">
        <ele>263.54</ele>
        <time>2016-06-19T13:27:43Z</time>
      </trkpt>
      <trkpt lat="43.99213" lon="5.16015">
        <ele>265.46</ele>
        <time>2016-06-19T13:27:45Z</time>
      </trkpt>
      <trkpt lat="43.99218" lon="5.16035">
        <ele>265.94</ele>
        <time>2016-06-19T13:27:46Z</time>
      </trkpt>
      <trkpt lat="43.99219" lon="5.16056">
        <ele>265.94</ele>
        <time>2016-06-19T13:27:47Z</time>
      </trkpt>
      <trkpt lat="43.99217" lon="5.16077">
        <ele>265.94</ele>
        <time>2016-06-19T13:27:48Z</time>
      </trkpt>
      <trkpt lat="43.99206" lon="5.16092">
        <ele>266.9</ele>
        <time>2016-06-19T13:27:49Z</time>
      </trkpt>
      <trkpt lat="43.99192" lon="5.16107">
        <ele>267.38</ele>
        <time>2016-06-19T13:27:50Z</time>
      </trkpt>
      <trkpt lat="43.99177" lon="5.1612">
        <ele>267.86</ele>
        <time>2016-06-19T13:27:51Z</time>
      </trkpt>
      <trkpt lat="43.99161" lon="5.16134">
        <ele>268.83</ele>
        <time>2016-06-19T13:27:52Z</time>
      </trkpt>
      <trkpt lat="43.99133" lon="5.16162">
        <ele>270.27</ele>
        <time>2016-06-19T13:27:54Z</time>
      </trkpt>
      <trkpt lat="43.99123" lon="5.16179">
        <ele>271.23</ele>
        <time>2016-06-19T13:27:55Z</time>
      </trkpt>
      <trkpt lat="43.99118" lon="5.16199">
        <ele>272.19</ele>
        <time>2016-06-19T13:27:56Z</time>
      </trkpt>
      <trkpt lat="43.99118" lon="5.16222">
        <ele>274.11</ele>
        <time>2016-06-19T13:27:57Z</time>
      </trkpt>
      <trkpt lat="43.99117" lon="5.16243">
        <ele>274.11</ele>
        <time>2016-06-19T13:27:58Z</time>
      </trkpt>
      <trkpt lat="43.99118" lon="5.16266">
        <ele>274.11</ele>
        <time>2016-06-19T13:27:59Z</time>
      </trkpt>
      <trkpt lat="43.99121" lon="5.16286">
        <ele>274.11</ele>
        <time>2016-06-19T13:28:00Z</time>
      </trkpt>
      <trkpt lat="43.99121" lon="5.16307">
        <ele>274.11</ele>
        <time>2016-06-19T13:28:01Z</time>
      </trkpt>
      <trkpt lat="43.99116" lon="5.16324">
        <ele>274.59</ele>
        <time>2016-06-19T13:28:02Z</time>
      </trkpt>
      <trkpt lat="43.99109" lon="5.16342">
        <ele>275.07</ele>
        <time>2016-06-19T13:28:03Z</time>
      </trkpt>
      <trkpt lat="43.99099" lon="5.1636">
        <ele>275.56</ele>
        <time>2016-06-19T13:28:04Z</time>
      </trkpt>
      <trkpt lat="43.99086" lon="5.16377">
        <ele>276.52</ele>
        <time>2016-06-19T13:28:05Z</time>
      </trkpt>
      <trkpt lat="43.99072" lon="5.16392">
        <ele>277</ele>
        <time>2016-06-19T13:28:06Z</time>
      </trkpt>
      <trkpt lat="43.99057" lon="5.164">
        <ele>277.48</ele>
        <time>2016-06-19T13:28:07Z</time>
      </trkpt>
      <trkpt lat="43.99043" lon="5.16407">
        <ele>278.44</ele>
        <time>2016-06-19T13:28:08Z</time>
      </trkpt>
      <trkpt lat="43.99032" lon="5.16415">
        <ele>279.4</ele>
        <time>2016-06-19T13:28:09Z</time>
      </trkpt>
      <trkpt lat="43.99026" lon="5.16426">
        <ele>280.36</ele>
        <time>2016-06-19T13:28:10Z</time>
      </trkpt>
      <trkpt lat="43.99022" lon="5.16439">
        <ele>280.36</ele>
        <time>2016-06-19T13:28:11Z</time>
      </trkpt>
      <trkpt lat="43.9902" lon="5.16455">
        <ele>281.32</ele>
        <time>2016-06-19T13:28:12Z</time>
      </trkpt>
      <trkpt lat="43.9904" lon="5.16482">
        <ele>282.77</ele>
        <time>2016-06-19T13:28:14Z</time>
      </trkpt>
      <trkpt lat="43.99056" lon="5.16493">
        <ele>282.77</ele>
        <time>2016-06-19T13:28:15Z</time>
      </trkpt>
      <trkpt lat="43.99075" lon="5.16504">
        <ele>283.25</ele>
        <time>2016-06-19T13:28:16Z</time>
      </trkpt>
      <trkpt lat="43.99092" lon="5.16511">
        <ele>283.73</ele>
        <time>2016-06-19T13:28:17Z</time>
      </trkpt>
      <trkpt lat="43.99111" lon="5.16513">
        <ele>284.69</ele>
        <time>2016-06-19T13:28:18Z</time>
      </trkpt>
      <trkpt lat="43.9913" lon="5.1651">
        <ele>284.69</ele>
        <time>2016-06-19T13:28:19Z</time>
      </trkpt>
      <trkpt lat="43.99148" lon="5.16504">
        <ele>286.13</ele>
        <time>2016-06-19T13:28:20Z</time>
      </trkpt>
      <trkpt lat="43.99164" lon="5.16498">
        <ele>287.09</ele>
        <time>2016-06-19T13:28:21Z</time>
      </trkpt>
      <trkpt lat="43.99177" lon="5.16494">
        <ele>287.57</ele>
        <time>2016-06-19T13:28:22Z</time>
      </trkpt>
      <trkpt lat="43.99189" lon="5.16493">
        <ele>288.53</ele>
        <time>2016-06-19T13:28:23Z</time>
      </trkpt>
      <trkpt lat="43.99199" lon="5.16498">
        <ele>289.01</ele>
        <time>2016-06-19T13:28:24Z</time>
      </trkpt>
      <trkpt lat="43.99207" lon="5.16507">
        <ele>288.53</ele>
        <time>2016-06-19T13:28:25Z</time>
      </trkpt>
      <trkpt lat="43.99207" lon="5.16526">
        <ele>289.49</ele>
        <time>2016-06-19T13:28:26Z</time>
      </trkpt>
      <trkpt lat="43.99204" lon="5.16543">
        <ele>289.97</ele>
        <time>2016-06-19T13:28:27Z</time>
      </trkpt>
      <trkpt lat="43.99195" lon="5.16555">
        <ele>290.94</ele>
        <time>2016-06-19T13:28:28Z</time>
      </trkpt>
      <trkpt lat="43.99186" lon="5.16565">
        <ele>290.46</ele>
        <time>2016-06-19T13:28:29Z</time>
      </trkpt>
      <trkpt lat="43.99172" lon="5.16576">
        <ele>290.94</ele>
        <time>2016-06-19T13:28:30Z</time>
      </trkpt>
      <trkpt lat="43.99154" lon="5.16589">
        <ele>293.34</ele>
        <time>2016-06-19T13:28:31Z</time>
      </trkpt>
      <trkpt lat="43.99136" lon="5.16602">
        <ele>294.78</ele>
        <time>2016-06-19T13:28:32Z</time>
      </trkpt>
      <trkpt lat="43.99069" lon="5.16675">
        <ele>302.47</ele>
        <time>2016-06-19T13:28:38Z</time>
      </trkpt>
      <trkpt lat="43.9899" lon="5.16797">
        <ele>310.64</ele>
        <time>2016-06-19T13:28:47Z</time>
      </trkpt>
      <trkpt lat="43.98909" lon="5.16946">
        <ele>315.45</ele>
        <time>2016-06-19T13:28:53Z</time>
      </trkpt>
      <trkpt lat="43.98777" lon="5.17148">
        <ele>323.62</ele>
        <time>2016-06-19T13:29:01Z</time>
      </trkpt>
      <trkpt lat="43.98533" lon="5.17456">
        <ele>339.48</ele>
        <time>2016-06-19T13:29:14Z</time>
      </trkpt>
      <trkpt lat="43.98466" lon="5.17541">
        <ele>344.77</ele>
        <time>2016-06-19T13:29:19Z</time>
      </trkpt>
      <trkpt lat="43.9846" lon="5.17556">
        <ele>345.73</ele>
        <time>2016-06-19T13:29:20Z</time>
      </trkpt>
      <trkpt lat="43.9846" lon="5.17571">
        <ele>346.69</ele>
        <time>2016-06-19T13:29:21Z</time>
      </trkpt>
      <trkpt lat="43.98471" lon="5.17585">
        <ele>347.17</ele>
        <time>2016-06-19T13:29:22Z</time>
      </trkpt>
      <trkpt lat="43.98482" lon="5.17602">
        <ele>347.65</ele>
        <time>2016-06-19T13:29:23Z</time>
      </trkpt>
      <trkpt lat="43.98497" lon="5.1762">
        <ele>348.62</ele>
        <time>2016-06-19T13:29:24Z</time>
      </trkpt>
      <trkpt lat="43.98514" lon="5.17638">
        <ele>349.58</ele>
        <time>2016-06-19T13:29:25Z</time>
      </trkpt>
      <trkpt lat="43.98531" lon="5.17657">
        <ele>350.54</ele>
        <time>2016-06-19T13:29:26Z</time>
      </trkpt>
      <trkpt lat="43.98617" lon="5.1776">
        <ele>355.83</ele>
        <time>2016-06-19T13:29:32Z</time>
      </trkpt>
      <trkpt lat="43.98624" lon="5.1778">
        <ele>356.31</ele>
        <time>2016-06-19T13:29:33Z</time>
      </trkpt>
      <trkpt lat="43.9863" lon="5.17802">
        <ele>356.79</ele>
        <time>2016-06-19T13:29:34Z</time>
      </trkpt>
      <trkpt lat="43.98634" lon="5.17827">
        <ele>357.27</ele>
        <time>2016-06-19T13:29:35Z</time>
      </trkpt>
      <trkpt lat="43.98635" lon="5.17853">
        <ele>357.75</ele>
        <time>2016-06-19T13:29:36Z</time>
      </trkpt>
      <trkpt lat="43.98632" lon="5.17879">
        <ele>358.23</ele>
        <time>2016-06-19T13:29:37Z</time>
      </trkpt>
      <trkpt lat="43.98629" lon="5.17904">
        <ele>358.71</ele>
        <time>2016-06-19T13:29:38Z</time>
      </trkpt>
      <trkpt lat="43.98625" lon="5.17929">
        <ele>359.19</ele>
        <time>2016-06-19T13:29:39Z</time>
      </trkpt>
      <trkpt lat="43.98615" lon="5.17975">
        <ele>360.63</ele>
        <time>2016-06-19T13:29:41Z</time>
      </trkpt>
      <trkpt lat="43.98606" lon="5.17994">
        <ele>361.59</ele>
        <time>2016-06-19T13:29:42Z</time>
      </trkpt>
      <trkpt lat="43.98592" lon="5.18005">
        <ele>362.07</ele>
        <time>2016-06-19T13:29:43Z</time>
      </trkpt>
      <trkpt lat="43.98576" lon="5.18011">
        <ele>362.55</ele>
        <time>2016-06-19T13:29:44Z</time>
      </trkpt>
      <trkpt lat="43.9856" lon="5.18015">
        <ele>363.52</ele>
        <time>2016-06-19T13:29:45Z</time>
      </trkpt>
      <trkpt lat="43.98544" lon="5.18018">
        <ele>364.96</ele>
        <time>2016-06-19T13:29:46Z</time>
      </trkpt>
      <trkpt lat="43.98527" lon="5.18018">
        <ele>366.88</ele>
        <time>2016-06-19T13:29:47Z</time>
      </trkpt>
      <trkpt lat="43.98509" lon="5.18016">
        <ele>366.4</ele>
        <time>2016-06-19T13:29:48Z</time>
      </trkpt>
      <trkpt lat="43.98492" lon="5.18014">
        <ele>366.4</ele>
        <time>2016-06-19T13:29:49Z</time>
      </trkpt>
      <trkpt lat="43.98453" lon="5.18019">
        <ele>367.84</ele>
        <time>2016-06-19T13:29:52Z</time>
      </trkpt>
      <trkpt lat="43.98444" lon="5.18028">
        <ele>367.84</ele>
        <time>2016-06-19T13:29:53Z</time>
      </trkpt>
      <trkpt lat="43.98437" lon="5.18041">
        <ele>368.8</ele>
        <time>2016-06-19T13:29:54Z</time>
      </trkpt>
      <trkpt lat="43.98393" lon="5.18082">
        <ele>371.69</ele>
        <time>2016-06-19T13:29:59Z</time>
      </trkpt>
      <trkpt lat="43.98385" lon="5.18083">
        <ele>371.21</ele>
        <time>2016-06-19T13:30:00Z</time>
      </trkpt>
      <trkpt lat="43.98378" lon="5.18076">
        <ele>370.73</ele>
        <time>2016-06-19T13:30:01Z</time>
      </trkpt>
      <trkpt lat="43.98371" lon="5.18068">
        <ele>371.21</ele>
        <time>2016-06-19T13:30:02Z</time>
      </trkpt>
      <trkpt lat="43.98364" lon="5.18059">
        <ele>371.21</ele>
        <time>2016-06-19T13:30:03Z</time>
      </trkpt>
      <trkpt lat="43.98356" lon="5.18051">
        <ele>371.21</ele>
        <time>2016-06-19T13:30:04Z</time>
      </trkpt>
      <trkpt lat="43.98348" lon="5.18046">
        <ele>371.69</ele>
        <time>2016-06-19T13:30:05Z</time>
      </trkpt>
      <trkpt lat="43.9834" lon="5.18044">
        <ele>371.69</ele>
        <time>2016-06-19T13:30:06Z</time>
      </trkpt>
      <trkpt lat="43.9833" lon="5.18048">
        <ele>371.69</ele>
        <time>2016-06-19T13:30:07Z</time>
      </trkpt>
      <trkpt lat="43.98319" lon="5.18053">
        <ele>371.69</ele>
        <time>2016-06-19T13:30:08Z</time>
      </trkpt>
      <trkpt lat="43.98306" lon="5.18058">
        <ele>373.13</ele>
        <time>2016-06-19T13:30:09Z</time>
      </trkpt>
      <trkpt lat="43.98293" lon="5.18059">
        <ele>373.61</ele>
        <time>2016-06-19T13:30:10Z</time>
      </trkpt>
      <trkpt lat="43.98281" lon="5.18055">
        <ele>374.09</ele>
        <time>2016-06-19T13:30:11Z</time>
      </trkpt>
      <trkpt lat="43.98271" lon="5.18043">
        <ele>375.53</ele>
        <time>2016-06-19T13:30:12Z</time>
      </trkpt>
      <trkpt lat="43.98262" lon="5.18029">
        <ele>376.01</ele>
        <time>2016-06-19T13:30:13Z</time>
      </trkpt>
      <trkpt lat="43.98253" lon="5.18014">
        <ele>377.94</ele>
        <time>2016-06-19T13:30:14Z</time>
      </trkpt>
      <trkpt lat="43.98226" lon="5.17978">
        <ele>380.82</ele>
        <time>2016-06-19T13:30:17Z</time>
      </trkpt>
      <trkpt lat="43.98215" lon="5.17975">
        <ele>381.78</ele>
        <time>2016-06-19T13:30:18Z</time>
      </trkpt>
      <trkpt lat="43.98202" lon="5.17978">
        <ele>382.74</ele>
        <time>2016-06-19T13:30:19Z</time>
      </trkpt>
      <trkpt lat="43.98188" lon="5.17985">
        <ele>383.7</ele>
        <time>2016-06-19T13:30:20Z</time>
      </trkpt>
      <trkpt lat="43.98172" lon="5.17992">
        <ele>384.66</ele>
        <time>2016-06-19T13:30:21Z</time>
      </trkpt>
      <trkpt lat="43.98155" lon="5.17997">
        <ele>385.63</ele>
        <time>2016-06-19T13:30:22Z</time>
      </trkpt>
      <trkpt lat="43.98138" lon="5.17993">
        <ele>386.59</ele>
        <time>2016-06-19T13:30:23Z</time>
      </trkpt>
      <trkpt lat="43.98122" lon="5.17986">
        <ele>387.07</ele>
        <time>2016-06-19T13:30:24Z</time>
      </trkpt>
      <trkpt lat="43.98106" lon="5.17973">
        <ele>388.03</ele>
        <time>2016-06-19T13:30:25Z</time>
      </trkpt>
      <trkpt lat="43.98095" lon="5.17956">
        <ele>389.47</ele>
        <time>2016-06-19T13:30:26Z</time>
      </trkpt>
      <trkpt lat="43.98086" lon="5.17935">
        <ele>390.91</ele>
        <time>2016-06-19T13:30:27Z</time>
      </trkpt>
      <trkpt lat="43.98079" lon="5.17916">
        <ele>392.36</ele>
        <time>2016-06-19T13:30:28Z</time>
      </trkpt>
      <trkpt lat="43.98074" lon="5.17901">
        <ele>393.8</ele>
        <time>2016-06-19T13:30:29Z</time>
      </trkpt>
      <trkpt lat="43.98067" lon="5.17891">
        <ele>395.24</ele>
        <time>2016-06-19T13:30:30Z</time>
      </trkpt>
      <trkpt lat="43.98056" lon="5.17887">
        <ele>396.2</ele>
        <time>2016-06-19T13:30:31Z</time>
      </trkpt>
      <trkpt lat="43.98043" lon="5.17886">
        <ele>397.64</ele>
        <time>2016-06-19T13:30:32Z</time>
      </trkpt>
      <trkpt lat="43.9803" lon="5.17887">
        <ele>399.57</ele>
        <time>2016-06-19T13:30:33Z</time>
      </trkpt>
      <trkpt lat="43.98016" lon="5.17892">
        <ele>401.01</ele>
        <time>2016-06-19T13:30:34Z</time>
      </trkpt>
      <trkpt lat="43.98004" lon="5.17903">
        <ele>401.01</ele>
        <time>2016-06-19T13:30:35Z</time>
      </trkpt>
      <trkpt lat="43.97994" lon="5.17918">
        <ele>401.49</ele>
        <time>2016-06-19T13:30:36Z</time>
      </trkpt>
      <trkpt lat="43.97984" lon="5.17933">
        <ele>402.45</ele>
        <time>2016-06-19T13:30:37Z</time>
      </trkpt>
      <trkpt lat="43.97922" lon="5.18005">
        <ele>409.18</ele>
        <time>2016-06-19T13:30:43Z</time>
      </trkpt>
      <trkpt lat="43.97917" lon="5.18017">
        <ele>409.66</ele>
        <time>2016-06-19T13:30:44Z</time>
      </trkpt>
      <trkpt lat="43.97923" lon="5.18028">
        <ele>410.14</ele>
        <time>2016-06-19T13:30:45Z</time>
      </trkpt>
      <trkpt lat="43.97929" lon="5.18042">
        <ele>411.1</ele>
        <time>2016-06-19T13:30:46Z</time>
      </trkpt>
      <trkpt lat="43.97938" lon="5.18055">
        <ele>412.06</ele>
        <time>2016-06-19T13:30:47Z</time>
      </trkpt>
      <trkpt lat="43.97946" lon="5.18071">
        <ele>412.54</ele>
        <time>2016-06-19T13:30:48Z</time>
      </trkpt>
      <trkpt lat="43.97951" lon="5.18089">
        <ele>413.02</ele>
        <time>2016-06-19T13:30:49Z</time>
      </trkpt>
      <trkpt lat="43.97953" lon="5.1811">
        <ele>413.02</ele>
        <time>2016-06-19T13:30:50Z</time>
      </trkpt>
      <trkpt lat="43.97954" lon="5.1813">
        <ele>412.54</ele>
        <time>2016-06-19T13:30:51Z</time>
      </trkpt>
      <trkpt lat="43.97954" lon="5.1815">
        <ele>412.54</ele>
        <time>2016-06-19T13:30:52Z</time>
      </trkpt>
      <trkpt lat="43.9795" lon="5.18167">
        <ele>411.58</ele>
        <time>2016-06-19T13:30:53Z</time>
      </trkpt>
      <trkpt lat="43.97939" lon="5.1818">
        <ele>410.62</ele>
        <time>2016-06-19T13:30:54Z</time>
      </trkpt>
      <trkpt lat="43.97924" lon="5.18193">
        <ele>409.66</ele>
        <time>2016-06-19T13:30:55Z</time>
      </trkpt>
      <trkpt lat="43.97905" lon="5.18205">
        <ele>409.66</ele>
        <time>2016-06-19T13:30:56Z</time>
      </trkpt>
      <trkpt lat="43.97886" lon="5.18214">
        <ele>409.18</ele>
        <time>2016-06-19T13:30:57Z</time>
      </trkpt>
      <trkpt lat="43.97865" lon="5.18217">
        <ele>407.26</ele>
        <time>2016-06-19T13:30:58Z</time>
      </trkpt>
      <trkpt lat="43.97842" lon="5.18216">
        <ele>405.81</ele>
        <time>2016-06-19T13:30:59Z</time>
      </trkpt>
      <trkpt lat="43.97818" lon="5.18213">
        <ele>405.81</ele>
        <time>2016-06-19T13:31:00Z</time>
      </trkpt>
      <trkpt lat="43.97796" lon="5.18211">
        <ele>405.33</ele>
        <time>2016-06-19T13:31:01Z</time>
      </trkpt>
      <trkpt lat="43.97742" lon="5.18193">
        <ele>404.37</ele>
        <time>2016-06-19T13:31:04Z</time>
      </trkpt>
      <trkpt lat="43.97729" lon="5.18183">
        <ele>404.37</ele>
        <time>2016-06-19T13:31:05Z</time>
      </trkpt>
      <trkpt lat="43.97716" lon="5.18168">
        <ele>405.81</ele>
        <time>2016-06-19T13:31:06Z</time>
      </trkpt>
      <trkpt lat="43.97705" lon="5.18157">
        <ele>405.81</ele>
        <time>2016-06-19T13:31:07Z</time>
      </trkpt>
      <trkpt lat="43.97695" lon="5.18146">
        <ele>407.74</ele>
        <time>2016-06-19T13:31:08Z</time>
      </trkpt>
      <trkpt lat="43.97673" lon="5.18128">
        <ele>408.7</ele>
        <time>2016-06-19T13:31:10Z</time>
      </trkpt>
      <trkpt lat="43.9766" lon="5.18123">
        <ele>409.18</ele>
        <time>2016-06-19T13:31:11Z</time>
      </trkpt>
      <trkpt lat="43.97623" lon="5.18113">
        <ele>410.14</ele>
        <time>2016-06-19T13:31:14Z</time>
      </trkpt>
      <trkpt lat="43.97612" lon="5.18114">
        <ele>409.66</ele>
        <time>2016-06-19T13:31:15Z</time>
      </trkpt>
      <trkpt lat="43.97604" lon="5.18126">
        <ele>409.18</ele>
        <time>2016-06-19T13:31:16Z</time>
      </trkpt>
      <trkpt lat="43.976" lon="5.18147">
        <ele>408.22</ele>
        <time>2016-06-19T13:31:17Z</time>
      </trkpt>
      <trkpt lat="43.97595" lon="5.18168">
        <ele>408.7</ele>
        <time>2016-06-19T13:31:18Z</time>
      </trkpt>
      <trkpt lat="43.97598" lon="5.18187">
        <ele>409.18</ele>
        <time>2016-06-19T13:31:19Z</time>
      </trkpt>
      <trkpt lat="43.97599" lon="5.18203">
        <ele>409.66</ele>
        <time>2016-06-19T13:31:20Z</time>
      </trkpt>
      <trkpt lat="43.97596" lon="5.18217">
        <ele>409.66</ele>
        <time>2016-06-19T13:31:21Z</time>
      </trkpt>
      <trkpt lat="43.97587" lon="5.18229">
        <ele>411.58</ele>
        <time>2016-06-19T13:31:22Z</time>
      </trkpt>
      <trkpt lat="43.97575" lon="5.18241">
        <ele>413.02</ele>
        <time>2016-06-19T13:31:23Z</time>
      </trkpt>
      <trkpt lat="43.9756" lon="5.18251">
        <ele>413.98</ele>
        <time>2016-06-19T13:31:24Z</time>
      </trkpt>
      <trkpt lat="43.97536" lon="5.18258">
        <ele>415.91</ele>
        <time>2016-06-19T13:31:25Z</time>
      </trkpt>
      <trkpt lat="43.97513" lon="5.18261">
        <ele>417.83</ele>
        <time>2016-06-19T13:31:26Z</time>
      </trkpt>
      <trkpt lat="43.9749" lon="5.18264">
        <ele>418.79</ele>
        <time>2016-06-19T13:31:27Z</time>
      </trkpt>
      <trkpt lat="43.97467" lon="5.18268">
        <ele>420.71</ele>
        <time>2016-06-19T13:31:28Z</time>
      </trkpt>
      <trkpt lat="43.97375" lon="5.18312">
        <ele>426.48</ele>
        <time>2016-06-19T13:31:32Z</time>
      </trkpt>
      <trkpt lat="43.97292" lon="5.18356">
        <ele>438.5</ele>
        <time>2016-06-19T13:31:37Z</time>
      </trkpt>
      <trkpt lat="43.97278" lon="5.18353">
        <ele>442.34</ele>
        <time>2016-06-19T13:31:38Z</time>
      </trkpt>
      <trkpt lat="43.97262" lon="5.18347">
        <ele>444.75</ele>
        <time>2016-06-19T13:31:39Z</time>
      </trkpt>
      <trkpt lat="43.97245" lon="5.18345">
        <ele>445.71</ele>
        <time>2016-06-19T13:31:40Z</time>
      </trkpt>
      <trkpt lat="43.97227" lon="5.18346">
        <ele>448.11</ele>
        <time>2016-06-19T13:31:41Z</time>
      </trkpt>
      <trkpt lat="43.97187" lon="5.18358">
        <ele>452.44</ele>
        <time>2016-06-19T13:31:43Z</time>
      </trkpt>
      <trkpt lat="43.97167" lon="5.18367">
        <ele>455.32</ele>
        <time>2016-06-19T13:31:44Z</time>
      </trkpt>
      <trkpt lat="43.97117" lon="5.18393">
        <ele>459.17</ele>
        <time>2016-06-19T13:31:47Z</time>
      </trkpt>
      <trkpt lat="43.97104" lon="5.18411">
        <ele>461.09</ele>
        <time>2016-06-19T13:31:48Z</time>
      </trkpt>
      <trkpt lat="43.97092" lon="5.18431">
        <ele>464.45</ele>
        <time>2016-06-19T13:31:49Z</time>
      </trkpt>
      <trkpt lat="43.97086" lon="5.18455">
        <ele>465.42</ele>
        <time>2016-06-19T13:31:50Z</time>
      </trkpt>
      <trkpt lat="43.97078" lon="5.18481">
        <ele>466.86</ele>
        <time>2016-06-19T13:31:51Z</time>
      </trkpt>
      <trkpt lat="43.97073" lon="5.18509">
        <ele>467.34</ele>
        <time>2016-06-19T13:31:52Z</time>
      </trkpt>
      <trkpt lat="43.97069" lon="5.18536">
        <ele>469.26</ele>
        <time>2016-06-19T13:31:53Z</time>
      </trkpt>
      <trkpt lat="43.97065" lon="5.18559">
        <ele>471.18</ele>
        <time>2016-06-19T13:31:54Z</time>
      </trkpt>
      <trkpt lat="43.97051" lon="5.1859">
        <ele>474.55</ele>
        <time>2016-06-19T13:31:56Z</time>
      </trkpt>
      <trkpt lat="43.97038" lon="5.18597">
        <ele>476.47</ele>
        <time>2016-06-19T13:31:57Z</time>
      </trkpt>
      <trkpt lat="43.97023" lon="5.18598">
        <ele>477.43</ele>
        <time>2016-06-19T13:31:58Z</time>
      </trkpt>
      <trkpt lat="43.97006" lon="5.186">
        <ele>477.91</ele>
        <time>2016-06-19T13:31:59Z</time>
      </trkpt>
      <trkpt lat="43.96987" lon="5.18593">
        <ele>481.28</ele>
        <time>2016-06-19T13:32:00Z</time>
      </trkpt>
      <trkpt lat="43.96969" lon="5.1859">
        <ele>482.72</ele>
        <time>2016-06-19T13:32:01Z</time>
      </trkpt>
      <trkpt lat="43.96953" lon="5.18589">
        <ele>485.6</ele>
        <time>2016-06-19T13:32:02Z</time>
      </trkpt>
      <trkpt lat="43.9694" lon="5.1859">
        <ele>487.53</ele>
        <time>2016-06-19T13:32:03Z</time>
      </trkpt>
      <trkpt lat="43.96931" lon="5.18599">
        <ele>488.49</ele>
        <time>2016-06-19T13:32:04Z</time>
      </trkpt>
      <trkpt lat="43.96925" lon="5.18613">
        <ele>489.45</ele>
        <time>2016-06-19T13:32:05Z</time>
      </trkpt>
      <trkpt lat="43.96919" lon="5.18629">
        <ele>490.41</ele>
        <time>2016-06-19T13:32:06Z</time>
      </trkpt>
      <trkpt lat="43.96906" lon="5.18654">
        <ele>492.33</ele>
        <time>2016-06-19T13:32:08Z</time>
      </trkpt>
      <trkpt lat="43.96896" lon="5.18658">
        <ele>492.81</ele>
        <time>2016-06-19T13:32:09Z</time>
      </trkpt>
      <trkpt lat="43.96884" lon="5.1866">
        <ele>493.77</ele>
        <time>2016-06-19T13:32:10Z</time>
      </trkpt>
      <trkpt lat="43.96872" lon="5.18665">
        <ele>494.74</ele>
        <time>2016-06-19T13:32:11Z</time>
      </trkpt>
      <trkpt lat="43.96863" lon="5.18671">
        <ele>495.7</ele>
        <time>2016-06-19T13:32:12Z</time>
      </trkpt>
      <trkpt lat="43.96858" lon="5.18683">
        <ele>495.7</ele>
        <time>2016-06-19T13:32:13Z</time>
      </trkpt>
      <trkpt lat="43.96859" lon="5.18697">
        <ele>495.7</ele>
        <time>2016-06-19T13:32:14Z</time>
      </trkpt>
      <trkpt lat="43.96862" lon="5.18713">
        <ele>495.22</ele>
        <time>2016-06-19T13:32:15Z</time>
      </trkpt>
      <trkpt lat="43.96866" lon="5.18731">
        <ele>496.66</ele>
        <time>2016-06-19T13:32:16Z</time>
      </trkpt>
      <trkpt lat="43.96864" lon="5.18746">
        <ele>498.1</ele>
        <time>2016-06-19T13:32:17Z</time>
      </trkpt>
      <trkpt lat="43.96857" lon="5.18761">
        <ele>499.54</ele>
        <time>2016-06-19T13:32:18Z</time>
      </trkpt>
      <trkpt lat="43.96846" lon="5.18777">
        <ele>501.46</ele>
        <time>2016-06-19T13:32:19Z</time>
      </trkpt>
      <trkpt lat="43.96832" lon="5.18795">
        <ele>502.43</ele>
        <time>2016-06-19T13:32:20Z</time>
      </trkpt>
      <trkpt lat="43.96817" lon="5.18814">
        <ele>503.39</ele>
        <time>2016-06-19T13:32:21Z</time>
      </trkpt>
      <trkpt lat="43.96729" lon="5.18916">
        <ele>509.16</ele>
        <time>2016-06-19T13:32:26Z</time>
      </trkpt>
      <trkpt lat="43.96651" lon="5.1896">
        <ele>514.44</ele>
        <time>2016-06-19T13:32:31Z</time>
      </trkpt>
      <trkpt lat="43.96636" lon="5.18957">
        <ele>515.4</ele>
        <time>2016-06-19T13:32:32Z</time>
      </trkpt>
      <trkpt lat="43.9662" lon="5.1895">
        <ele>515.4</ele>
        <time>2016-06-19T13:32:33Z</time>
      </trkpt>
      <trkpt lat="43.96601" lon="5.18942">
        <ele>515.88</ele>
        <time>2016-06-19T13:32:34Z</time>
      </trkpt>
      <trkpt lat="43.96579" lon="5.1894">
        <ele>515.88</ele>
        <time>2016-06-19T13:32:35Z</time>
      </trkpt>
      <trkpt lat="43.96442" lon="5.18946">
        <ele>517.81</ele>
        <time>2016-06-19T13:32:41Z</time>
      </trkpt>
      <trkpt lat="43.9637" lon="5.18949">
        <ele>520.21</ele>
        <time>2016-06-19T13:32:46Z</time>
      </trkpt>
      <trkpt lat="43.96244" lon="5.18957">
        <ele>523.58</ele>
        <time>2016-06-19T13:32:53Z</time>
      </trkpt>
      <trkpt lat="43.9605" lon="5.18979">
        <ele>529.82</ele>
        <time>2016-06-19T13:33:00Z</time>
      </trkpt>
      <trkpt lat="43.9588" lon="5.18998">
        <ele>534.15</ele>
        <time>2016-06-19T13:33:07Z</time>
      </trkpt>
      <trkpt lat="43.95831" lon="5.1899">
        <ele>536.07</ele>
        <time>2016-06-19T13:33:10Z</time>
      </trkpt>
      <trkpt lat="43.9582" lon="5.18997">
        <ele>537.03</ele>
        <time>2016-06-19T13:33:11Z</time>
      </trkpt>
      <trkpt lat="43.95812" lon="5.19012">
        <ele>536.55</ele>
        <time>2016-06-19T13:33:12Z</time>
      </trkpt>
      <trkpt lat="43.95807" lon="5.19033">
        <ele>538.48</ele>
        <time>2016-06-19T13:33:13Z</time>
      </trkpt>
      <trkpt lat="43.95806" lon="5.19057">
        <ele>539.92</ele>
        <time>2016-06-19T13:33:14Z</time>
      </trkpt>
      <trkpt lat="43.95803" lon="5.19079">
        <ele>540.4</ele>
        <time>2016-06-19T13:33:15Z</time>
      </trkpt>
      <trkpt lat="43.95801" lon="5.19101">
        <ele>541.36</ele>
        <time>2016-06-19T13:33:16Z</time>
      </trkpt>
      <trkpt lat="43.95795" lon="5.19138">
        <ele>543.28</ele>
        <time>2016-06-19T13:33:18Z</time>
      </trkpt>
      <trkpt lat="43.95789" lon="5.19152">
        <ele>544.24</ele>
        <time>2016-06-19T13:33:19Z</time>
      </trkpt>
      <trkpt lat="43.95781" lon="5.19163">
        <ele>544.72</ele>
        <time>2016-06-19T13:33:20Z</time>
      </trkpt>
      <trkpt lat="43.95773" lon="5.19172">
        <ele>545.2</ele>
        <time>2016-06-19T13:33:21Z</time>
      </trkpt>
      <trkpt lat="43.95764" lon="5.19182">
        <ele>546.17</ele>
        <time>2016-06-19T13:33:22Z</time>
      </trkpt>
      <trkpt lat="43.9573" lon="5.19225">
        <ele>548.57</ele>
        <time>2016-06-19T13:33:26Z</time>
      </trkpt>
      <trkpt lat="43.95724" lon="5.19242">
        <ele>549.05</ele>
        <time>2016-06-19T13:33:27Z</time>
      </trkpt>
      <trkpt lat="43.95681" lon="5.19349">
        <ele>550.97</ele>
        <time>2016-06-19T13:33:31Z</time>
      </trkpt>
      <trkpt lat="43.95659" lon="5.19396">
        <ele>551.93</ele>
        <time>2016-06-19T13:33:33Z</time>
      </trkpt>
      <trkpt lat="43.95646" lon="5.19416">
        <ele>553.38</ele>
        <time>2016-06-19T13:33:34Z</time>
      </trkpt>
      <trkpt lat="43.95629" lon="5.19428">
        <ele>552.9</ele>
        <time>2016-06-19T13:33:35Z</time>
      </trkpt>
      <trkpt lat="43.95606" lon="5.19441">
        <ele>553.86</ele>
        <time>2016-06-19T13:33:36Z</time>
      </trkpt>
      <trkpt lat="43.95582" lon="5.1945">
        <ele>554.82</ele>
        <time>2016-06-19T13:33:37Z</time>
      </trkpt>
      <trkpt lat="43.95557" lon="5.19459">
        <ele>554.82</ele>
        <time>2016-06-19T13:33:38Z</time>
      </trkpt>
      <trkpt lat="43.95354" lon="5.19509">
        <ele>562.51</ele>
        <time>2016-06-19T13:33:46Z</time>
      </trkpt>
      <trkpt lat="43.9531" lon="5.19515">
        <ele>564.43</ele>
        <time>2016-06-19T13:33:48Z</time>
      </trkpt>
      <trkpt lat="43.95288" lon="5.19523">
        <ele>565.39</ele>
        <time>2016-06-19T13:33:49Z</time>
      </trkpt>
      <trkpt lat="43.95267" lon="5.19533">
        <ele>565.87</ele>
        <time>2016-06-19T13:33:50Z</time>
      </trkpt>
      <trkpt lat="43.95132" lon="5.19574">
        <ele>573.56</ele>
        <time>2016-06-19T13:33:56Z</time>
      </trkpt>
      <trkpt lat="43.9505" lon="5.19588">
        <ele>577.89</ele>
        <time>2016-06-19T13:34:01Z</time>
      </trkpt>
      <trkpt lat="43.95034" lon="5.19589">
        <ele>579.33</ele>
        <time>2016-06-19T13:34:03Z</time>
      </trkpt>
      <trkpt lat="43.9503" lon="5.19588">
        <ele>579.81</ele>
        <time>2016-06-19T13:34:04Z</time>
      </trkpt>
      <trkpt lat="43.95026" lon="5.19588">
        <ele>580.29</ele>
        <time>2016-06-19T13:34:05Z</time>
      </trkpt>
      <trkpt lat="43.95023" lon="5.19588">
        <ele>580.29</ele>
        <time>2016-06-19T13:34:06Z</time>
      </trkpt>
      <trkpt lat="43.95021" lon="5.19589">
        <ele>580.77</ele>
        <time>2016-06-19T13:34:07Z</time>
      </trkpt>
      <trkpt lat="43.95024" lon="5.1959">
        <ele>583.66</ele>
        <time>2016-06-19T13:34:21Z</time>
      </trkpt>
      <trkpt lat="43.9502" lon="5.19594">
        <ele>584.62</ele>
        <time>2016-06-19T13:35:21Z</time>
      </trkpt>
      <trkpt lat="43.95014" lon="5.19595">
        <ele>584.62</ele>
        <time>2016-06-19T13:35:22Z</time>
      </trkpt>
      <trkpt lat="43.95006" lon="5.19596">
        <ele>584.14</ele>
        <time>2016-06-19T13:35:23Z</time>
      </trkpt>
      <trkpt lat="43.94998" lon="5.19596">
        <ele>583.66</ele>
        <time>2016-06-19T13:35:24Z</time>
      </trkpt>
      <trkpt lat="43.9499" lon="5.19595">
        <ele>583.18</ele>
        <time>2016-06-19T13:35:25Z</time>
      </trkpt>
      <trkpt lat="43.94894" lon="5.19574">
        <ele>576.45</ele>
        <time>2016-06-19T13:35:33Z</time>
      </trkpt>
      <trkpt lat="43.94763" lon="5.19513">
        <ele>564.91</ele>
        <time>2016-06-19T13:35:42Z</time>
      </trkpt>
      <trkpt lat="43.94683" lon="5.19474">
        <ele>556.26</ele>
        <time>2016-06-19T13:35:47Z</time>
      </trkpt>
      <trkpt lat="43.9467" lon="5.1946">
        <ele>554.34</ele>
        <time>2016-06-19T13:35:48Z</time>
      </trkpt>
      <trkpt lat="43.94658" lon="5.19445">
        <ele>551.93</ele>
        <time>2016-06-19T13:35:49Z</time>
      </trkpt>
      <trkpt lat="43.94645" lon="5.19431">
        <ele>550.49</ele>
        <time>2016-06-19T13:35:50Z</time>
      </trkpt>
      <trkpt lat="43.94631" lon="5.19419">
        <ele>549.05</ele>
        <time>2016-06-19T13:35:51Z</time>
      </trkpt>
      <trkpt lat="43.94616" lon="5.19411">
        <ele>547.61</ele>
        <time>2016-06-19T13:35:52Z</time>
      </trkpt>
      <trkpt lat="43.94599" lon="5.19406">
        <ele>546.65</ele>
        <time>2016-06-19T13:35:53Z</time>
      </trkpt>
      <trkpt lat="43.94583" lon="5.19402">
        <ele>545.2</ele>
        <time>2016-06-19T13:35:54Z</time>
      </trkpt>
      <trkpt lat="43.94567" lon="5.19397">
        <ele>543.76</ele>
        <time>2016-06-19T13:35:55Z</time>
      </trkpt>
      <trkpt lat="43.94551" lon="5.1939">
        <ele>541.84</ele>
        <time>2016-06-19T13:35:56Z</time>
      </trkpt>
      <trkpt lat="43.94535" lon="5.1938">
        <ele>539.92</ele>
        <time>2016-06-19T13:35:57Z</time>
      </trkpt>
      <trkpt lat="43.94519" lon="5.19368">
        <ele>537.99</ele>
        <time>2016-06-19T13:35:58Z</time>
      </trkpt>
      <trkpt lat="43.94341" lon="5.19231">
        <ele>517.81</ele>
        <time>2016-06-19T13:36:09Z</time>
      </trkpt>
      <trkpt lat="43.94181" lon="5.19166">
        <ele>501.95</ele>
        <time>2016-06-19T13:36:18Z</time>
      </trkpt>
      <trkpt lat="43.94166" lon="5.19153">
        <ele>500.02</ele>
        <time>2016-06-19T13:36:19Z</time>
      </trkpt>
      <trkpt lat="43.94151" lon="5.19138">
        <ele>498.1</ele>
        <time>2016-06-19T13:36:20Z</time>
      </trkpt>
      <trkpt lat="43.94091" lon="5.19092">
        <ele>490.41</ele>
        <time>2016-06-19T13:36:24Z</time>
      </trkpt>
      <trkpt lat="43.94073" lon="5.19094">
        <ele>488.97</ele>
        <time>2016-06-19T13:36:25Z</time>
      </trkpt>
      <trkpt lat="43.94056" lon="5.19095">
        <ele>487.53</ele>
        <time>2016-06-19T13:36:26Z</time>
      </trkpt>
      <trkpt lat="43.94039" lon="5.19097">
        <ele>485.6</ele>
        <time>2016-06-19T13:36:27Z</time>
      </trkpt>
      <trkpt lat="43.94021" lon="5.19095">
        <ele>483.68</ele>
        <time>2016-06-19T13:36:28Z</time>
      </trkpt>
      <trkpt lat="43.94003" lon="5.19089">
        <ele>481.28</ele>
        <time>2016-06-19T13:36:29Z</time>
      </trkpt>
      <trkpt lat="43.93986" lon="5.1908">
        <ele>479.35</ele>
        <time>2016-06-19T13:36:30Z</time>
      </trkpt>
      <trkpt lat="43.9397" lon="5.19067">
        <ele>477.43</ele>
        <time>2016-06-19T13:36:31Z</time>
      </trkpt>
      <trkpt lat="43.93954" lon="5.19053">
        <ele>475.51</ele>
        <time>2016-06-19T13:36:32Z</time>
      </trkpt>
      <trkpt lat="43.93848" lon="5.18976">
        <ele>462.05</ele>
        <time>2016-06-19T13:36:39Z</time>
      </trkpt>
      <trkpt lat="43.93833" lon="5.18971">
        <ele>460.61</ele>
        <time>2016-06-19T13:36:40Z</time>
      </trkpt>
      <trkpt lat="43.93715" lon="5.18944">
        <ele>447.15</ele>
        <time>2016-06-19T13:36:48Z</time>
      </trkpt>
      <trkpt lat="43.93705" lon="5.18937">
        <ele>445.23</ele>
        <time>2016-06-19T13:36:49Z</time>
      </trkpt>
      <trkpt lat="43.93699" lon="5.18926">
        <ele>443.79</ele>
        <time>2016-06-19T13:36:50Z</time>
      </trkpt>
      <trkpt lat="43.93694" lon="5.1891">
        <ele>441.86</ele>
        <time>2016-06-19T13:36:51Z</time>
      </trkpt>
      <trkpt lat="43.93689" lon="5.18893">
        <ele>439.94</ele>
        <time>2016-06-19T13:36:52Z</time>
      </trkpt>
      <trkpt lat="43.93685" lon="5.18873">
        <ele>438.5</ele>
        <time>2016-06-19T13:36:53Z</time>
      </trkpt>
      <trkpt lat="43.93685" lon="5.18852">
        <ele>437.06</ele>
        <time>2016-06-19T13:36:54Z</time>
      </trkpt>
      <trkpt lat="43.93688" lon="5.18833">
        <ele>435.61</ele>
        <time>2016-06-19T13:36:55Z</time>
      </trkpt>
      <trkpt lat="43.9369" lon="5.18815">
        <ele>434.17</ele>
        <time>2016-06-19T13:36:56Z</time>
      </trkpt>
      <trkpt lat="43.93692" lon="5.18785">
        <ele>431.29</ele>
        <time>2016-06-19T13:36:58Z</time>
      </trkpt>
      <trkpt lat="43.9369" lon="5.18773">
        <ele>429.85</ele>
        <time>2016-06-19T13:36:59Z</time>
      </trkpt>
      <trkpt lat="43.93683" lon="5.18764">
        <ele>429.37</ele>
        <time>2016-06-19T13:37:00Z</time>
      </trkpt>
      <trkpt lat="43.93674" lon="5.18762">
        <ele>427.92</ele>
        <time>2016-06-19T13:37:01Z</time>
      </trkpt>
      <trkpt lat="43.93662" lon="5.18762">
        <ele>427.44</ele>
        <time>2016-06-19T13:37:02Z</time>
      </trkpt>
      <trkpt lat="43.9365" lon="5.18765">
        <ele>426.96</ele>
        <time>2016-06-19T13:37:03Z</time>
      </trkpt>
      <trkpt lat="43.9364" lon="5.18769">
        <ele>426.48</ele>
        <time>2016-06-19T13:37:04Z</time>
      </trkpt>
      <trkpt lat="43.93628" lon="5.1878">
        <ele>426</ele>
        <time>2016-06-19T13:37:05Z</time>
      </trkpt>
      <trkpt lat="43.93618" lon="5.1879">
        <ele>425.04</ele>
        <time>2016-06-19T13:37:06Z</time>
      </trkpt>
      <trkpt lat="43.93607" lon="5.18801">
        <ele>424.56</ele>
        <time>2016-06-19T13:37:07Z</time>
      </trkpt>
      <trkpt lat="43.93573" lon="5.18826">
        <ele>422.16</ele>
        <time>2016-06-19T13:37:10Z</time>
      </trkpt>
      <trkpt lat="43.9356" lon="5.18831">
        <ele>421.19</ele>
        <time>2016-06-19T13:37:11Z</time>
      </trkpt>
      <trkpt lat="43.93546" lon="5.18835">
        <ele>419.75</ele>
        <time>2016-06-19T13:37:12Z</time>
      </trkpt>
      <trkpt lat="43.93475" lon="5.18843">
        <ele>413.02</ele>
        <time>2016-06-19T13:37:17Z</time>
      </trkpt>
      <trkpt lat="43.9346" lon="5.1884">
        <ele>411.58</ele>
        <time>2016-06-19T13:37:18Z</time>
      </trkpt>
      <trkpt lat="43.93357" lon="5.18781">
        <ele>402.93</ele>
        <time>2016-06-19T13:37:25Z</time>
      </trkpt>
      <trkpt lat="43.93345" lon="5.18765">
        <ele>401.01</ele>
        <time>2016-06-19T13:37:26Z</time>
      </trkpt>
      <trkpt lat="43.93311" lon="5.1872">
        <ele>399.57</ele>
        <time>2016-06-19T13:37:29Z</time>
      </trkpt>
      <trkpt lat="43.93302" lon="5.18712">
        <ele>398.6</ele>
        <time>2016-06-19T13:37:30Z</time>
      </trkpt>
      <trkpt lat="43.93293" lon="5.18712">
        <ele>397.16</ele>
        <time>2016-06-19T13:37:31Z</time>
      </trkpt>
      <trkpt lat="43.93285" lon="5.18717">
        <ele>397.16</ele>
        <time>2016-06-19T13:37:32Z</time>
      </trkpt>
      <trkpt lat="43.93278" lon="5.18723">
        <ele>396.68</ele>
        <time>2016-06-19T13:37:33Z</time>
      </trkpt>
      <trkpt lat="43.93274" lon="5.18734">
        <ele>396.68</ele>
        <time>2016-06-19T13:37:34Z</time>
      </trkpt>
      <trkpt lat="43.93271" lon="5.18746">
        <ele>396.2</ele>
        <time>2016-06-19T13:37:35Z</time>
      </trkpt>
      <trkpt lat="43.9327" lon="5.1876">
        <ele>395.72</ele>
        <time>2016-06-19T13:37:36Z</time>
      </trkpt>
      <trkpt lat="43.93272" lon="5.18772">
        <ele>395.24</ele>
        <time>2016-06-19T13:37:37Z</time>
      </trkpt>
      <trkpt lat="43.93279" lon="5.18783">
        <ele>394.76</ele>
        <time>2016-06-19T13:37:38Z</time>
      </trkpt>
      <trkpt lat="43.93288" lon="5.18791">
        <ele>393.8</ele>
        <time>2016-06-19T13:37:39Z</time>
      </trkpt>
      <trkpt lat="43.93298" lon="5.18797">
        <ele>392.84</ele>
        <time>2016-06-19T13:37:40Z</time>
      </trkpt>
      <trkpt lat="43.93309" lon="5.18804">
        <ele>392.36</ele>
        <time>2016-06-19T13:37:41Z</time>
      </trkpt>
      <trkpt lat="43.9332" lon="5.1881">
        <ele>392.36</ele>
        <time>2016-06-19T13:37:42Z</time>
      </trkpt>
      <trkpt lat="43.93404" lon="5.18861">
        <ele>391.39</ele>
        <time>2016-06-19T13:37:52Z</time>
      </trkpt>
      <trkpt lat="43.93412" lon="5.18869">
        <ele>391.87</ele>
        <time>2016-06-19T13:37:55Z</time>
      </trkpt>
      <trkpt lat="43.93403" lon="5.18878">
        <ele>391.87</ele>
        <time>2016-06-19T13:38:01Z</time>
      </trkpt>
      <trkpt lat="43.93354" lon="5.18877">
        <ele>389.95</ele>
        <time>2016-06-19T13:38:12Z</time>
      </trkpt>
      <trkpt lat="43.93348" lon="5.18879">
        <ele>389.47</ele>
        <time>2016-06-19T13:38:13Z</time>
      </trkpt>
      <trkpt lat="43.93343" lon="5.18881">
        <ele>389.47</ele>
        <time>2016-06-19T13:38:14Z</time>
      </trkpt>
      <trkpt lat="43.93299" lon="5.18899">
        <ele>383.7</ele>
        <time>2016-06-19T13:38:26Z</time>
      </trkpt>
      <trkpt lat="43.93286" lon="5.18904">
        <ele>379.38</ele>
        <time>2016-06-19T13:38:35Z</time>
      </trkpt>
      <trkpt lat="43.93252" lon="5.18916">
        <ele>391.39</ele>
        <time>2016-06-19T13:58:51Z</time>
      </trkpt>
      <trkpt lat="43.93268" lon="5.18911">
        <ele>389.47</ele>
        <time>2016-06-19T13:58:59Z</time>
      </trkpt>
      <trkpt lat="43.93271" lon="5.18906">
        <ele>381.3</ele>
        <time>2016-06-19T13:59:15Z</time>
      </trkpt>
      <trkpt lat="43.93275" lon="5.18904">
        <ele>382.26</ele>
        <time>2016-06-19T13:59:34Z</time>
      </trkpt>
      <trkpt lat="43.93299" lon="5.18898">
        <ele>379.38</ele>
        <time>2016-06-19T13:59:44Z</time>
      </trkpt>
      <trkpt lat="43.93313" lon="5.1889">
        <ele>378.9</ele>
        <time>2016-06-19T13:59:54Z</time>
      </trkpt>
      <trkpt lat="43.93341" lon="5.18877">
        <ele>381.78</ele>
        <time>2016-06-19T14:00:03Z</time>
      </trkpt>
      <trkpt lat="43.93345" lon="5.18876">
        <ele>381.78</ele>
        <time>2016-06-19T14:00:04Z</time>
      </trkpt>
      <trkpt lat="43.93403" lon="5.18872">
        <ele>386.59</ele>
        <time>2016-06-19T14:00:17Z</time>
      </trkpt>
      <trkpt lat="43.93405" lon="5.18869">
        <ele>387.07</ele>
        <time>2016-06-19T14:00:18Z</time>
      </trkpt>
      <trkpt lat="43.93406" lon="5.18865">
        <ele>387.07</ele>
        <time>2016-06-19T14:00:19Z</time>
      </trkpt>
      <trkpt lat="43.93405" lon="5.18857">
        <ele>387.55</ele>
        <time>2016-06-19T14:00:21Z</time>
      </trkpt>
      <trkpt lat="43.93402" lon="5.18854">
        <ele>387.55</ele>
        <time>2016-06-19T14:00:22Z</time>
      </trkpt>
      <trkpt lat="43.93397" lon="5.1885">
        <ele>387.55</ele>
        <time>2016-06-19T14:00:23Z</time>
      </trkpt>
      <trkpt lat="43.93324" lon="5.18805">
        <ele>388.51</ele>
        <time>2016-06-19T14:00:33Z</time>
      </trkpt>
      <trkpt lat="43.93289" lon="5.18783">
        <ele>390.43</ele>
        <time>2016-06-19T14:00:37Z</time>
      </trkpt>
      <trkpt lat="43.93282" lon="5.18776">
        <ele>390.91</ele>
        <time>2016-06-19T14:00:38Z</time>
      </trkpt>
      <trkpt lat="43.93276" lon="5.18766">
        <ele>391.39</ele>
        <time>2016-06-19T14:00:39Z</time>
      </trkpt>
      <trkpt lat="43.93271" lon="5.18756">
        <ele>391.39</ele>
        <time>2016-06-19T14:00:40Z</time>
      </trkpt>
      <trkpt lat="43.93271" lon="5.18742">
        <ele>391.87</ele>
        <time>2016-06-19T14:00:41Z</time>
      </trkpt>
      <trkpt lat="43.93274" lon="5.18731">
        <ele>392.36</ele>
        <time>2016-06-19T14:00:42Z</time>
      </trkpt>
      <trkpt lat="43.93279" lon="5.18721">
        <ele>392.84</ele>
        <time>2016-06-19T14:00:43Z</time>
      </trkpt>
      <trkpt lat="43.93287" lon="5.18714">
        <ele>393.8</ele>
        <time>2016-06-19T14:00:44Z</time>
      </trkpt>
      <trkpt lat="43.93298" lon="5.18713">
        <ele>394.76</ele>
        <time>2016-06-19T14:00:45Z</time>
      </trkpt>
      <trkpt lat="43.93309" lon="5.18717">
        <ele>395.72</ele>
        <time>2016-06-19T14:00:46Z</time>
      </trkpt>
      <trkpt lat="43.93319" lon="5.18722">
        <ele>395.72</ele>
        <time>2016-06-19T14:00:47Z</time>
      </trkpt>
      <trkpt lat="43.93328" lon="5.1873">
        <ele>396.2</ele>
        <time>2016-06-19T14:00:48Z</time>
      </trkpt>
      <trkpt lat="43.93338" lon="5.18739">
        <ele>396.68</ele>
        <time>2016-06-19T14:00:49Z</time>
      </trkpt>
      <trkpt lat="43.93346" lon="5.18751">
        <ele>398.12</ele>
        <time>2016-06-19T14:00:50Z</time>
      </trkpt>
      <trkpt lat="43.93354" lon="5.18762">
        <ele>398.6</ele>
        <time>2016-06-19T14:00:51Z</time>
      </trkpt>
      <trkpt lat="43.93399" lon="5.18811">
        <ele>404.85</ele>
        <time>2016-06-19T14:00:56Z</time>
      </trkpt>
      <trkpt lat="43.9341" lon="5.18818">
        <ele>405.81</ele>
        <time>2016-06-19T14:00:57Z</time>
      </trkpt>
      <trkpt lat="43.93423" lon="5.18824">
        <ele>406.77</ele>
        <time>2016-06-19T14:00:58Z</time>
      </trkpt>
      <trkpt lat="43.93492" lon="5.18846">
        <ele>412.54</ele>
        <time>2016-06-19T14:01:03Z</time>
      </trkpt>
      <trkpt lat="43.93506" lon="5.18846">
        <ele>413.98</ele>
        <time>2016-06-19T14:01:04Z</time>
      </trkpt>
      <trkpt lat="43.9352" lon="5.18844">
        <ele>415.43</ele>
        <time>2016-06-19T14:01:05Z</time>
      </trkpt>
      <trkpt lat="43.936" lon="5.18812">
        <ele>423.12</ele>
        <time>2016-06-19T14:01:11Z</time>
      </trkpt>
      <trkpt lat="43.93612" lon="5.18802">
        <ele>424.08</ele>
        <time>2016-06-19T14:01:12Z</time>
      </trkpt>
      <trkpt lat="43.93645" lon="5.18773">
        <ele>427.92</ele>
        <time>2016-06-19T14:01:15Z</time>
      </trkpt>
      <trkpt lat="43.93656" lon="5.18768">
        <ele>429.85</ele>
        <time>2016-06-19T14:01:16Z</time>
      </trkpt>
      <trkpt lat="43.93667" lon="5.18766">
        <ele>431.77</ele>
        <time>2016-06-19T14:01:17Z</time>
      </trkpt>
      <trkpt lat="43.93678" lon="5.18766">
        <ele>433.21</ele>
        <time>2016-06-19T14:01:18Z</time>
      </trkpt>
      <trkpt lat="43.93686" lon="5.18775">
        <ele>434.65</ele>
        <time>2016-06-19T14:01:19Z</time>
      </trkpt>
      <trkpt lat="43.93692" lon="5.18787">
        <ele>435.13</ele>
        <time>2016-06-19T14:01:20Z</time>
      </trkpt>
      <trkpt lat="43.93697" lon="5.18799">
        <ele>436.1</ele>
        <time>2016-06-19T14:01:21Z</time>
      </trkpt>
      <trkpt lat="43.93698" lon="5.18814">
        <ele>437.06</ele>
        <time>2016-06-19T14:01:22Z</time>
      </trkpt>
      <trkpt lat="43.93696" lon="5.1883">
        <ele>438.98</ele>
        <time>2016-06-19T14:01:23Z</time>
      </trkpt>
      <trkpt lat="43.93694" lon="5.18845">
        <ele>439.94</ele>
        <time>2016-06-19T14:01:24Z</time>
      </trkpt>
      <trkpt lat="43.93692" lon="5.18861">
        <ele>441.38</ele>
        <time>2016-06-19T14:01:25Z</time>
      </trkpt>
      <trkpt lat="43.93691" lon="5.18877">
        <ele>442.82</ele>
        <time>2016-06-19T14:01:26Z</time>
      </trkpt>
      <trkpt lat="43.93692" lon="5.18894">
        <ele>444.27</ele>
        <time>2016-06-19T14:01:27Z</time>
      </trkpt>
      <trkpt lat="43.93695" lon="5.18909">
        <ele>444.75</ele>
        <time>2016-06-19T14:01:28Z</time>
      </trkpt>
      <trkpt lat="43.937" lon="5.18925">
        <ele>446.19</ele>
        <time>2016-06-19T14:01:29Z</time>
      </trkpt>
      <trkpt lat="43.93707" lon="5.18939">
        <ele>447.15</ele>
        <time>2016-06-19T14:01:30Z</time>
      </trkpt>
      <trkpt lat="43.93715" lon="5.1895">
        <ele>448.59</ele>
        <time>2016-06-19T14:01:31Z</time>
      </trkpt>
      <trkpt lat="43.93726" lon="5.18956">
        <ele>449.55</ele>
        <time>2016-06-19T14:01:32Z</time>
      </trkpt>
      <trkpt lat="43.93737" lon="5.18959">
        <ele>451</ele>
        <time>2016-06-19T14:01:33Z</time>
      </trkpt>
      <trkpt lat="43.93748" lon="5.18961">
        <ele>451.48</ele>
        <time>2016-06-19T14:01:34Z</time>
      </trkpt>
      <trkpt lat="43.93759" lon="5.18962">
        <ele>452.44</ele>
        <time>2016-06-19T14:01:35Z</time>
      </trkpt>
      <trkpt lat="43.93869" lon="5.18988">
        <ele>462.53</ele>
        <time>2016-06-19T14:01:44Z</time>
      </trkpt>
      <trkpt lat="43.93881" lon="5.18995">
        <ele>463.97</ele>
        <time>2016-06-19T14:01:45Z</time>
      </trkpt>
      <trkpt lat="43.93893" lon="5.19004">
        <ele>464.93</ele>
        <time>2016-06-19T14:01:46Z</time>
      </trkpt>
      <trkpt lat="43.94027" lon="5.19101">
        <ele>480.8</ele>
        <time>2016-06-19T14:01:56Z</time>
      </trkpt>
      <trkpt lat="43.94041" lon="5.19104">
        <ele>482.24</ele>
        <time>2016-06-19T14:01:57Z</time>
      </trkpt>
      <trkpt lat="43.94056" lon="5.19103">
        <ele>483.68</ele>
        <time>2016-06-19T14:01:58Z</time>
      </trkpt>
      <trkpt lat="43.94072" lon="5.19101">
        <ele>485.12</ele>
        <time>2016-06-19T14:01:59Z</time>
      </trkpt>
      <trkpt lat="43.94088" lon="5.19099">
        <ele>487.05</ele>
        <time>2016-06-19T14:02:00Z</time>
      </trkpt>
      <trkpt lat="43.94103" lon="5.19101">
        <ele>488.49</ele>
        <time>2016-06-19T14:02:01Z</time>
      </trkpt>
      <trkpt lat="43.94119" lon="5.19107">
        <ele>490.41</ele>
        <time>2016-06-19T14:02:02Z</time>
      </trkpt>
      <trkpt lat="43.94133" lon="5.19118">
        <ele>491.85</ele>
        <time>2016-06-19T14:02:03Z</time>
      </trkpt>
      <trkpt lat="43.94146" lon="5.19131">
        <ele>493.29</ele>
        <time>2016-06-19T14:02:04Z</time>
      </trkpt>
      <trkpt lat="43.94158" lon="5.19144">
        <ele>494.74</ele>
        <time>2016-06-19T14:02:05Z</time>
      </trkpt>
      <trkpt lat="43.9417" lon="5.19157">
        <ele>496.66</ele>
        <time>2016-06-19T14:02:06Z</time>
      </trkpt>
      <trkpt lat="43.94208" lon="5.19186">
        <ele>500.98</ele>
        <time>2016-06-19T14:02:09Z</time>
      </trkpt>
      <trkpt lat="43.94223" lon="5.19193">
        <ele>502.43</ele>
        <time>2016-06-19T14:02:10Z</time>
      </trkpt>
      <trkpt lat="43.94357" lon="5.19242">
        <ele>514.44</ele>
        <time>2016-06-19T14:02:19Z</time>
      </trkpt>
      <trkpt lat="43.94489" lon="5.19341">
        <ele>528.86</ele>
        <time>2016-06-19T14:02:28Z</time>
      </trkpt>
      <trkpt lat="43.94594" lon="5.19412">
        <ele>538.96</ele>
        <time>2016-06-19T14:02:36Z</time>
      </trkpt>
      <trkpt lat="43.94638" lon="5.19426">
        <ele>542.8</ele>
        <time>2016-06-19T14:02:39Z</time>
      </trkpt>
      <trkpt lat="43.94652" lon="5.19435">
        <ele>544.24</ele>
        <time>2016-06-19T14:02:40Z</time>
      </trkpt>
      <trkpt lat="43.94665" lon="5.19446">
        <ele>545.69</ele>
        <time>2016-06-19T14:02:41Z</time>
      </trkpt>
      <trkpt lat="43.94676" lon="5.1946">
        <ele>547.13</ele>
        <time>2016-06-19T14:02:42Z</time>
      </trkpt>
      <trkpt lat="43.94686" lon="5.19474">
        <ele>548.57</ele>
        <time>2016-06-19T14:02:43Z</time>
      </trkpt>
      <trkpt lat="43.94698" lon="5.19485">
        <ele>550.01</ele>
        <time>2016-06-19T14:02:44Z</time>
      </trkpt>
      <trkpt lat="43.94712" lon="5.19494">
        <ele>551.45</ele>
        <time>2016-06-19T14:02:45Z</time>
      </trkpt>
      <trkpt lat="43.94726" lon="5.19501">
        <ele>552.41</ele>
        <time>2016-06-19T14:02:46Z</time>
      </trkpt>
      <trkpt lat="43.94741" lon="5.19507">
        <ele>553.38</ele>
        <time>2016-06-19T14:02:47Z</time>
      </trkpt>
      <trkpt lat="43.94882" lon="5.19569">
        <ele>565.87</ele>
        <time>2016-06-19T14:02:56Z</time>
      </trkpt>
      <trkpt lat="43.9497" lon="5.19593">
        <ele>573.56</ele>
        <time>2016-06-19T14:03:03Z</time>
      </trkpt>
      <trkpt lat="43.95015" lon="5.19597">
        <ele>578.37</ele>
        <time>2016-06-19T14:03:10Z</time>
      </trkpt>
      <trkpt lat="43.95031" lon="5.19598">
        <ele>579.33</ele>
        <time>2016-06-19T14:03:15Z</time>
      </trkpt>
      <trkpt lat="43.95032" lon="5.19602">
        <ele>578.85</ele>
        <time>2016-06-19T14:03:16Z</time>
      </trkpt>
      <trkpt lat="43.95034" lon="5.19608">
        <ele>578.85</ele>
        <time>2016-06-19T14:03:17Z</time>
      </trkpt>
      <trkpt lat="43.95043" lon="5.1967">
        <ele>579.81</ele>
        <time>2016-06-19T14:03:25Z</time>
      </trkpt>
      <trkpt lat="43.95043" lon="5.19676">
        <ele>579.81</ele>
        <time>2016-06-19T14:03:26Z</time>
      </trkpt>
      <trkpt lat="43.95043" lon="5.19681">
        <ele>580.29</ele>
        <time>2016-06-19T14:03:27Z</time>
      </trkpt>
      <trkpt lat="43.95044" lon="5.19685">
        <ele>580.29</ele>
        <time>2016-06-19T14:03:28Z</time>
      </trkpt>
      <trkpt lat="43.95045" lon="5.19687">
        <ele>580.29</ele>
        <time>2016-06-19T14:03:29Z</time>
      </trkpt>
      <trkpt lat="43.95046" lon="5.19689">
        <ele>580.77</ele>
        <time>2016-06-19T14:03:30Z</time>
      </trkpt>
      <trkpt lat="43.9505" lon="5.19696">
        <ele>581.25</ele>
        <time>2016-06-19T14:03:38Z</time>
      </trkpt>
      <trkpt lat="43.95052" lon="5.19703">
        <ele>581.25</ele>
        <time>2016-06-19T14:03:39Z</time>
      </trkpt>
      <trkpt lat="43.95075" lon="5.19795">
        <ele>586.06</ele>
        <time>2016-06-19T14:03:46Z</time>
      </trkpt>
      <trkpt lat="43.951" lon="5.19877">
        <ele>588.46</ele>
        <time>2016-06-19T14:03:51Z</time>
      </trkpt>
      <trkpt lat="43.95107" lon="5.19891">
        <ele>588.95</ele>
        <time>2016-06-19T14:03:52Z</time>
      </trkpt>
      <trkpt lat="43.95116" lon="5.19904">
        <ele>589.43</ele>
        <time>2016-06-19T14:03:53Z</time>
      </trkpt>
      <trkpt lat="43.95125" lon="5.19917">
        <ele>589.43</ele>
        <time>2016-06-19T14:03:54Z</time>
      </trkpt>
      <trkpt lat="43.95132" lon="5.19931">
        <ele>589.43</ele>
        <time>2016-06-19T14:03:55Z</time>
      </trkpt>
      <trkpt lat="43.95137" lon="5.19946">
        <ele>588.95</ele>
        <time>2016-06-19T14:03:56Z</time>
      </trkpt>
      <trkpt lat="43.95141" lon="5.19962">
        <ele>588.46</ele>
        <time>2016-06-19T14:03:57Z</time>
      </trkpt>
      <trkpt lat="43.95145" lon="5.19979">
        <ele>587.98</ele>
        <time>2016-06-19T14:03:58Z</time>
      </trkpt>
      <trkpt lat="43.95154" lon="5.20011">
        <ele>586.54</ele>
        <time>2016-06-19T14:04:00Z</time>
      </trkpt>
      <trkpt lat="43.95161" lon="5.20025">
        <ele>586.06</ele>
        <time>2016-06-19T14:04:01Z</time>
      </trkpt>
      <trkpt lat="43.95168" lon="5.20038">
        <ele>585.58</ele>
        <time>2016-06-19T14:04:02Z</time>
      </trkpt>
      <trkpt lat="43.95176" lon="5.20048">
        <ele>585.1</ele>
        <time>2016-06-19T14:04:03Z</time>
      </trkpt>
      <trkpt lat="43.95185" lon="5.20055">
        <ele>584.62</ele>
        <time>2016-06-19T14:04:04Z</time>
      </trkpt>
      <trkpt lat="43.95193" lon="5.20061">
        <ele>584.62</ele>
        <time>2016-06-19T14:04:05Z</time>
      </trkpt>
      <trkpt lat="43.95222" lon="5.20087">
        <ele>586.06</ele>
        <time>2016-06-19T14:04:09Z</time>
      </trkpt>
      <trkpt lat="43.95228" lon="5.20096">
        <ele>587.02</ele>
        <time>2016-06-19T14:04:10Z</time>
      </trkpt>
      <trkpt lat="43.95234" lon="5.20105">
        <ele>587.98</ele>
        <time>2016-06-19T14:04:11Z</time>
      </trkpt>
      <trkpt lat="43.95238" lon="5.20115">
        <ele>588.46</ele>
        <time>2016-06-19T14:04:12Z</time>
      </trkpt>
      <trkpt lat="43.95241" lon="5.20126">
        <ele>589.43</ele>
        <time>2016-06-19T14:04:13Z</time>
      </trkpt>
      <trkpt lat="43.95243" lon="5.20138">
        <ele>589.91</ele>
        <time>2016-06-19T14:04:14Z</time>
      </trkpt>
      <trkpt lat="43.95245" lon="5.2015">
        <ele>590.39</ele>
        <time>2016-06-19T14:04:15Z</time>
      </trkpt>
      <trkpt lat="43.95246" lon="5.20163">
        <ele>590.39</ele>
        <time>2016-06-19T14:04:16Z</time>
      </trkpt>
      <trkpt lat="43.95246" lon="5.20177">
        <ele>590.39</ele>
        <time>2016-06-19T14:04:17Z</time>
      </trkpt>
      <trkpt lat="43.95246" lon="5.20192">
        <ele>590.87</ele>
        <time>2016-06-19T14:04:18Z</time>
      </trkpt>
      <trkpt lat="43.95247" lon="5.20234">
        <ele>590.39</ele>
        <time>2016-06-19T14:04:21Z</time>
      </trkpt>
      <trkpt lat="43.95249" lon="5.20248">
        <ele>589.91</ele>
        <time>2016-06-19T14:04:22Z</time>
      </trkpt>
      <trkpt lat="43.95252" lon="5.20261">
        <ele>589.43</ele>
        <time>2016-06-19T14:04:23Z</time>
      </trkpt>
      <trkpt lat="43.95255" lon="5.20273">
        <ele>589.43</ele>
        <time>2016-06-19T14:04:24Z</time>
      </trkpt>
      <trkpt lat="43.9526" lon="5.20285">
        <ele>588.95</ele>
        <time>2016-06-19T14:04:25Z</time>
      </trkpt>
      <trkpt lat="43.95266" lon="5.20297">
        <ele>588.46</ele>
        <time>2016-06-19T14:04:26Z</time>
      </trkpt>
      <trkpt lat="43.95273" lon="5.20309">
        <ele>587.98</ele>
        <time>2016-06-19T14:04:27Z</time>
      </trkpt>
      <trkpt lat="43.95282" lon="5.20322">
        <ele>587.98</ele>
        <time>2016-06-19T14:04:28Z</time>
      </trkpt>
      <trkpt lat="43.95338" lon="5.20415">
        <ele>583.66</ele>
        <time>2016-06-19T14:04:36Z</time>
      </trkpt>
      <trkpt lat="43.95342" lon="5.20426">
        <ele>582.7</ele>
        <time>2016-06-19T14:04:37Z</time>
      </trkpt>
      <trkpt lat="43.95357" lon="5.2047">
        <ele>578.37</ele>
        <time>2016-06-19T14:04:41Z</time>
      </trkpt>
      <trkpt lat="43.95363" lon="5.20482">
        <ele>576.93</ele>
        <time>2016-06-19T14:04:42Z</time>
      </trkpt>
      <trkpt lat="43.95371" lon="5.20494">
        <ele>575.49</ele>
        <time>2016-06-19T14:04:43Z</time>
      </trkpt>
      <trkpt lat="43.95379" lon="5.20506">
        <ele>574.53</ele>
        <time>2016-06-19T14:04:44Z</time>
      </trkpt>
      <trkpt lat="43.95389" lon="5.20517">
        <ele>573.56</ele>
        <time>2016-06-19T14:04:45Z</time>
      </trkpt>
      <trkpt lat="43.954" lon="5.20527">
        <ele>573.08</ele>
        <time>2016-06-19T14:04:46Z</time>
      </trkpt>
      <trkpt lat="43.95413" lon="5.20535">
        <ele>572.12</ele>
        <time>2016-06-19T14:04:47Z</time>
      </trkpt>
      <trkpt lat="43.95428" lon="5.20544">
        <ele>571.64</ele>
        <time>2016-06-19T14:04:48Z</time>
      </trkpt>
      <trkpt lat="43.9551" lon="5.20608">
        <ele>571.64</ele>
        <time>2016-06-19T14:04:54Z</time>
      </trkpt>
      <trkpt lat="43.95514" lon="5.20625">
        <ele>571.64</ele>
        <time>2016-06-19T14:04:55Z</time>
      </trkpt>
      <trkpt lat="43.95517" lon="5.2064">
        <ele>571.64</ele>
        <time>2016-06-19T14:04:56Z</time>
      </trkpt>
      <trkpt lat="43.95516" lon="5.20655">
        <ele>571.16</ele>
        <time>2016-06-19T14:04:57Z</time>
      </trkpt>
      <trkpt lat="43.95508" lon="5.20667">
        <ele>571.16</ele>
        <time>2016-06-19T14:04:58Z</time>
      </trkpt>
      <trkpt lat="43.95498" lon="5.20677">
        <ele>571.16</ele>
        <time>2016-06-19T14:04:59Z</time>
      </trkpt>
      <trkpt lat="43.95486" lon="5.20687">
        <ele>571.16</ele>
        <time>2016-06-19T14:05:00Z</time>
      </trkpt>
      <trkpt lat="43.95471" lon="5.20698">
        <ele>571.64</ele>
        <time>2016-06-19T14:05:01Z</time>
      </trkpt>
      <trkpt lat="43.95429" lon="5.20741">
        <ele>572.6</ele>
        <time>2016-06-19T14:05:04Z</time>
      </trkpt>
      <trkpt lat="43.95417" lon="5.20758">
        <ele>572.12</ele>
        <time>2016-06-19T14:05:05Z</time>
      </trkpt>
      <trkpt lat="43.95373" lon="5.20824">
        <ele>569.24</ele>
        <time>2016-06-19T14:05:09Z</time>
      </trkpt>
      <trkpt lat="43.95359" lon="5.20834">
        <ele>568.76</ele>
        <time>2016-06-19T14:05:10Z</time>
      </trkpt>
      <trkpt lat="43.95345" lon="5.20841">
        <ele>568.28</ele>
        <time>2016-06-19T14:05:11Z</time>
      </trkpt>
      <trkpt lat="43.9533" lon="5.20845">
        <ele>567.8</ele>
        <time>2016-06-19T14:05:12Z</time>
      </trkpt>
      <trkpt lat="43.95315" lon="5.20849">
        <ele>568.28</ele>
        <time>2016-06-19T14:05:13Z</time>
      </trkpt>
      <trkpt lat="43.95191" lon="5.20902">
        <ele>566.83</ele>
        <time>2016-06-19T14:05:22Z</time>
      </trkpt>
      <trkpt lat="43.95056" lon="5.20951">
        <ele>560.11</ele>
        <time>2016-06-19T14:05:32Z</time>
      </trkpt>
      <trkpt lat="43.94977" lon="5.20992">
        <ele>550.97</ele>
        <time>2016-06-19T14:05:38Z</time>
      </trkpt>
      <trkpt lat="43.94965" lon="5.21001">
        <ele>550.01</ele>
        <time>2016-06-19T14:05:39Z</time>
      </trkpt>
      <trkpt lat="43.94955" lon="5.21013">
        <ele>548.57</ele>
        <time>2016-06-19T14:05:40Z</time>
      </trkpt>
      <trkpt lat="43.94945" lon="5.21027">
        <ele>547.61</ele>
        <time>2016-06-19T14:05:41Z</time>
      </trkpt>
      <trkpt lat="43.94934" lon="5.21041">
        <ele>547.13</ele>
        <time>2016-06-19T14:05:42Z</time>
      </trkpt>
      <trkpt lat="43.94924" lon="5.21052">
        <ele>546.65</ele>
        <time>2016-06-19T14:05:43Z</time>
      </trkpt>
      <trkpt lat="43.94912" lon="5.21057">
        <ele>545.69</ele>
        <time>2016-06-19T14:05:44Z</time>
      </trkpt>
      <trkpt lat="43.94898" lon="5.21057">
        <ele>543.76</ele>
        <time>2016-06-19T14:05:45Z</time>
      </trkpt>
      <trkpt lat="43.94886" lon="5.21049">
        <ele>541.84</ele>
        <time>2016-06-19T14:05:46Z</time>
      </trkpt>
      <trkpt lat="43.94874" lon="5.21041">
        <ele>540.88</ele>
        <time>2016-06-19T14:05:47Z</time>
      </trkpt>
      <trkpt lat="43.94862" lon="5.21035">
        <ele>539.44</ele>
        <time>2016-06-19T14:05:48Z</time>
      </trkpt>
      <trkpt lat="43.94849" lon="5.21031">
        <ele>538.96</ele>
        <time>2016-06-19T14:05:49Z</time>
      </trkpt>
      <trkpt lat="43.94826" lon="5.21038">
        <ele>536.07</ele>
        <time>2016-06-19T14:05:51Z</time>
      </trkpt>
      <trkpt lat="43.94815" lon="5.21048">
        <ele>535.11</ele>
        <time>2016-06-19T14:05:52Z</time>
      </trkpt>
      <trkpt lat="43.94804" lon="5.21062">
        <ele>534.15</ele>
        <time>2016-06-19T14:05:53Z</time>
      </trkpt>
      <trkpt lat="43.94707" lon="5.21138">
        <ele>532.71</ele>
        <time>2016-06-19T14:06:00Z</time>
      </trkpt>
      <trkpt lat="43.9464" lon="5.21159">
        <ele>530.79</ele>
        <time>2016-06-19T14:06:05Z</time>
      </trkpt>
      <trkpt lat="43.94628" lon="5.21169">
        <ele>531.75</ele>
        <time>2016-06-19T14:06:06Z</time>
      </trkpt>
      <trkpt lat="43.94617" lon="5.21179">
        <ele>531.27</ele>
        <time>2016-06-19T14:06:07Z</time>
      </trkpt>
      <trkpt lat="43.94481" lon="5.21304">
        <ele>521.17</ele>
        <time>2016-06-19T14:06:18Z</time>
      </trkpt>
      <trkpt lat="43.94437" lon="5.21342">
        <ele>519.25</ele>
        <time>2016-06-19T14:06:24Z</time>
      </trkpt>
      <trkpt lat="43.94438" lon="5.21341">
        <ele>519.25</ele>
        <time>2016-06-19T14:06:32Z</time>
      </trkpt>
      <trkpt lat="43.94437" lon="5.2134">
        <ele>519.73</ele>
        <time>2016-06-19T14:06:38Z</time>
      </trkpt>
      <trkpt lat="43.94434" lon="5.21337">
        <ele>520.21</ele>
        <time>2016-06-19T14:06:39Z</time>
      </trkpt>
      <trkpt lat="43.94428" lon="5.21332">
        <ele>520.69</ele>
        <time>2016-06-19T14:06:40Z</time>
      </trkpt>
      <trkpt lat="43.94422" lon="5.21325">
        <ele>521.17</ele>
        <time>2016-06-19T14:06:41Z</time>
      </trkpt>
      <trkpt lat="43.94415" lon="5.21317">
        <ele>521.65</ele>
        <time>2016-06-19T14:06:42Z</time>
      </trkpt>
      <trkpt lat="43.94336" lon="5.21228">
        <ele>524.06</ele>
        <time>2016-06-19T14:06:50Z</time>
      </trkpt>
      <trkpt lat="43.94209" lon="5.21085">
        <ele>521.17</ele>
        <time>2016-06-19T14:06:59Z</time>
      </trkpt>
      <trkpt lat="43.94098" lon="5.20967">
        <ele>519.73</ele>
        <time>2016-06-19T14:07:06Z</time>
      </trkpt>
      <trkpt lat="43.94079" lon="5.20955">
        <ele>519.25</ele>
        <time>2016-06-19T14:07:07Z</time>
      </trkpt>
      <trkpt lat="43.94058" lon="5.20948">
        <ele>519.25</ele>
        <time>2016-06-19T14:07:08Z</time>
      </trkpt>
      <trkpt lat="43.94036" lon="5.20945">
        <ele>519.25</ele>
        <time>2016-06-19T14:07:09Z</time>
      </trkpt>
      <trkpt lat="43.94014" lon="5.20945">
        <ele>519.25</ele>
        <time>2016-06-19T14:07:10Z</time>
      </trkpt>
      <trkpt lat="43.93992" lon="5.20948">
        <ele>519.73</ele>
        <time>2016-06-19T14:07:11Z</time>
      </trkpt>
      <trkpt lat="43.9397" lon="5.20952">
        <ele>519.73</ele>
        <time>2016-06-19T14:07:12Z</time>
      </trkpt>
      <trkpt lat="43.93767" lon="5.20982">
        <ele>516.85</ele>
        <time>2016-06-19T14:07:21Z</time>
      </trkpt>
      <trkpt lat="43.93748" lon="5.2099">
        <ele>516.85</ele>
        <time>2016-06-19T14:07:22Z</time>
      </trkpt>
      <trkpt lat="43.93728" lon="5.21">
        <ele>515.88</ele>
        <time>2016-06-19T14:07:23Z</time>
      </trkpt>
      <trkpt lat="43.93709" lon="5.21013">
        <ele>514.92</ele>
        <time>2016-06-19T14:07:24Z</time>
      </trkpt>
      <trkpt lat="43.93691" lon="5.21027">
        <ele>513.96</ele>
        <time>2016-06-19T14:07:25Z</time>
      </trkpt>
      <trkpt lat="43.93674" lon="5.21043">
        <ele>513.48</ele>
        <time>2016-06-19T14:07:26Z</time>
      </trkpt>
      <trkpt lat="43.9366" lon="5.21061">
        <ele>512.52</ele>
        <time>2016-06-19T14:07:27Z</time>
      </trkpt>
      <trkpt lat="43.93622" lon="5.21104">
        <ele>510.12</ele>
        <time>2016-06-19T14:07:30Z</time>
      </trkpt>
      <trkpt lat="43.93609" lon="5.21107">
        <ele>509.64</ele>
        <time>2016-06-19T14:07:31Z</time>
      </trkpt>
      <trkpt lat="43.93597" lon="5.21101">
        <ele>508.67</ele>
        <time>2016-06-19T14:07:32Z</time>
      </trkpt>
      <trkpt lat="43.93581" lon="5.21096">
        <ele>507.71</ele>
        <time>2016-06-19T14:07:33Z</time>
      </trkpt>
      <trkpt lat="43.93564" lon="5.21094">
        <ele>506.75</ele>
        <time>2016-06-19T14:07:34Z</time>
      </trkpt>
      <trkpt lat="43.93545" lon="5.21097">
        <ele>505.79</ele>
        <time>2016-06-19T14:07:35Z</time>
      </trkpt>
      <trkpt lat="43.93526" lon="5.21102">
        <ele>504.35</ele>
        <time>2016-06-19T14:07:36Z</time>
      </trkpt>
      <trkpt lat="43.93505" lon="5.21108">
        <ele>502.43</ele>
        <time>2016-06-19T14:07:37Z</time>
      </trkpt>
      <trkpt lat="43.9334" lon="5.21191">
        <ele>489.45</ele>
        <time>2016-06-19T14:07:45Z</time>
      </trkpt>
      <trkpt lat="43.93239" lon="5.21233">
        <ele>481.28</ele>
        <time>2016-06-19T14:07:50Z</time>
      </trkpt>
      <trkpt lat="43.93218" lon="5.21234">
        <ele>480.32</ele>
        <time>2016-06-19T14:07:51Z</time>
      </trkpt>
      <trkpt lat="43.93198" lon="5.21232">
        <ele>478.87</ele>
        <time>2016-06-19T14:07:52Z</time>
      </trkpt>
      <trkpt lat="43.9318" lon="5.21228">
        <ele>477.91</ele>
        <time>2016-06-19T14:07:53Z</time>
      </trkpt>
      <trkpt lat="43.93164" lon="5.21224">
        <ele>477.43</ele>
        <time>2016-06-19T14:07:54Z</time>
      </trkpt>
      <trkpt lat="43.93151" lon="5.21218">
        <ele>475.99</ele>
        <time>2016-06-19T14:07:55Z</time>
      </trkpt>
      <trkpt lat="43.93141" lon="5.21208">
        <ele>475.03</ele>
        <time>2016-06-19T14:07:56Z</time>
      </trkpt>
      <trkpt lat="43.93132" lon="5.21191">
        <ele>474.55</ele>
        <time>2016-06-19T14:07:57Z</time>
      </trkpt>
      <trkpt lat="43.93128" lon="5.21171">
        <ele>474.07</ele>
        <time>2016-06-19T14:07:58Z</time>
      </trkpt>
      <trkpt lat="43.93124" lon="5.21152">
        <ele>472.63</ele>
        <time>2016-06-19T14:07:59Z</time>
      </trkpt>
      <trkpt lat="43.93117" lon="5.21137">
        <ele>472.14</ele>
        <time>2016-06-19T14:08:00Z</time>
      </trkpt>
      <trkpt lat="43.93109" lon="5.21129">
        <ele>470.7</ele>
        <time>2016-06-19T14:08:01Z</time>
      </trkpt>
      <trkpt lat="43.93098" lon="5.21129">
        <ele>469.26</ele>
        <time>2016-06-19T14:08:02Z</time>
      </trkpt>
      <trkpt lat="43.93089" lon="5.21132">
        <ele>468.78</ele>
        <time>2016-06-19T14:08:03Z</time>
      </trkpt>
      <trkpt lat="43.93079" lon="5.21138">
        <ele>468.3</ele>
        <time>2016-06-19T14:08:04Z</time>
      </trkpt>
      <trkpt lat="43.93068" lon="5.21143">
        <ele>467.82</ele>
        <time>2016-06-19T14:08:05Z</time>
      </trkpt>
      <trkpt lat="43.93055" lon="5.21146">
        <ele>467.34</ele>
        <time>2016-06-19T14:08:06Z</time>
      </trkpt>
      <trkpt lat="43.93041" lon="5.21143">
        <ele>467.82</ele>
        <time>2016-06-19T14:08:07Z</time>
      </trkpt>
      <trkpt lat="43.93028" lon="5.21131">
        <ele>467.34</ele>
        <time>2016-06-19T14:08:08Z</time>
      </trkpt>
      <trkpt lat="43.93016" lon="5.21117">
        <ele>466.86</ele>
        <time>2016-06-19T14:08:09Z</time>
      </trkpt>
      <trkpt lat="43.93005" lon="5.21102">
        <ele>466.38</ele>
        <time>2016-06-19T14:08:10Z</time>
      </trkpt>
      <trkpt lat="43.92994" lon="5.21088">
        <ele>466.38</ele>
        <time>2016-06-19T14:08:11Z</time>
      </trkpt>
      <trkpt lat="43.92982" lon="5.21076">
        <ele>465.9</ele>
        <time>2016-06-19T14:08:12Z</time>
      </trkpt>
      <trkpt lat="43.92903" lon="5.20999">
        <ele>463.01</ele>
        <time>2016-06-19T14:08:18Z</time>
      </trkpt>
      <trkpt lat="43.92894" lon="5.20982">
        <ele>462.05</ele>
        <time>2016-06-19T14:08:19Z</time>
      </trkpt>
      <trkpt lat="43.92885" lon="5.20964">
        <ele>461.09</ele>
        <time>2016-06-19T14:08:20Z</time>
      </trkpt>
      <trkpt lat="43.92855" lon="5.20877">
        <ele>458.69</ele>
        <time>2016-06-19T14:08:26Z</time>
      </trkpt>
      <trkpt lat="43.92815" lon="5.2082">
        <ele>458.21</ele>
        <time>2016-06-19T14:08:34Z</time>
      </trkpt>
      <trkpt lat="43.92779" lon="5.20802">
        <ele>457.24</ele>
        <time>2016-06-19T14:08:38Z</time>
      </trkpt>
      <trkpt lat="43.92734" lon="5.20787">
        <ele>457.24</ele>
        <time>2016-06-19T14:08:41Z</time>
      </trkpt>
      <trkpt lat="43.92721" lon="5.20777">
        <ele>456.76</ele>
        <time>2016-06-19T14:08:42Z</time>
      </trkpt>
      <trkpt lat="43.9271" lon="5.20762">
        <ele>456.28</ele>
        <time>2016-06-19T14:08:43Z</time>
      </trkpt>
      <trkpt lat="43.92702" lon="5.20742">
        <ele>456.28</ele>
        <time>2016-06-19T14:08:44Z</time>
      </trkpt>
      <trkpt lat="43.92693" lon="5.20723">
        <ele>455.8</ele>
        <time>2016-06-19T14:08:45Z</time>
      </trkpt>
      <trkpt lat="43.92685" lon="5.20705">
        <ele>454.84</ele>
        <time>2016-06-19T14:08:46Z</time>
      </trkpt>
      <trkpt lat="43.92597" lon="5.20506">
        <ele>447.63</ele>
        <time>2016-06-19T14:08:58Z</time>
      </trkpt>
      <trkpt lat="43.92584" lon="5.2048">
        <ele>446.67</ele>
        <time>2016-06-19T14:09:00Z</time>
      </trkpt>
      <trkpt lat="43.92577" lon="5.2047">
        <ele>445.71</ele>
        <time>2016-06-19T14:09:01Z</time>
      </trkpt>
      <trkpt lat="43.92568" lon="5.20461">
        <ele>444.75</ele>
        <time>2016-06-19T14:09:02Z</time>
      </trkpt>
      <trkpt lat="43.92559" lon="5.20455">
        <ele>444.75</ele>
        <time>2016-06-19T14:09:03Z</time>
      </trkpt>
      <trkpt lat="43.92548" lon="5.2045">
        <ele>444.27</ele>
        <time>2016-06-19T14:09:04Z</time>
      </trkpt>
      <trkpt lat="43.92537" lon="5.20445">
        <ele>443.79</ele>
        <time>2016-06-19T14:09:05Z</time>
      </trkpt>
      <trkpt lat="43.92419" lon="5.204">
        <ele>442.34</ele>
        <time>2016-06-19T14:09:14Z</time>
      </trkpt>
      <trkpt lat="43.92377" lon="5.20387">
        <ele>441.86</ele>
        <time>2016-06-19T14:09:18Z</time>
      </trkpt>
      <trkpt lat="43.92365" lon="5.20387">
        <ele>441.38</ele>
        <time>2016-06-19T14:09:19Z</time>
      </trkpt>
      <trkpt lat="43.92268" lon="5.20396">
        <ele>438.02</ele>
        <time>2016-06-19T14:09:26Z</time>
      </trkpt>
      <trkpt lat="43.92255" lon="5.20395">
        <ele>437.54</ele>
        <time>2016-06-19T14:09:27Z</time>
      </trkpt>
      <trkpt lat="43.92244" lon="5.20393">
        <ele>436.58</ele>
        <time>2016-06-19T14:09:28Z</time>
      </trkpt>
      <trkpt lat="43.92232" lon="5.2039">
        <ele>435.61</ele>
        <time>2016-06-19T14:09:29Z</time>
      </trkpt>
      <trkpt lat="43.92221" lon="5.20385">
        <ele>435.13</ele>
        <time>2016-06-19T14:09:30Z</time>
      </trkpt>
      <trkpt lat="43.92211" lon="5.20378">
        <ele>434.65</ele>
        <time>2016-06-19T14:09:31Z</time>
      </trkpt>
      <trkpt lat="43.92201" lon="5.20371">
        <ele>433.69</ele>
        <time>2016-06-19T14:09:32Z</time>
      </trkpt>
      <trkpt lat="43.92091" lon="5.20289">
        <ele>426.96</ele>
        <time>2016-06-19T14:09:43Z</time>
      </trkpt>
      <trkpt lat="43.91997" lon="5.20248">
        <ele>421.19</ele>
        <time>2016-06-19T14:09:52Z</time>
      </trkpt>
      <trkpt lat="43.91986" lon="5.20247">
        <ele>420.71</ele>
        <time>2016-06-19T14:09:53Z</time>
      </trkpt>
      <trkpt lat="43.91879" lon="5.2025">
        <ele>412.54</ele>
        <time>2016-06-19T14:10:05Z</time>
      </trkpt>
      <trkpt lat="43.91871" lon="5.20247">
        <ele>412.06</ele>
        <time>2016-06-19T14:10:06Z</time>
      </trkpt>
      <trkpt lat="43.91863" lon="5.20242">
        <ele>411.58</ele>
        <time>2016-06-19T14:10:07Z</time>
      </trkpt>
      <trkpt lat="43.91855" lon="5.20236">
        <ele>411.1</ele>
        <time>2016-06-19T14:10:08Z</time>
      </trkpt>
      <trkpt lat="43.91847" lon="5.2023">
        <ele>410.62</ele>
        <time>2016-06-19T14:10:09Z</time>
      </trkpt>
      <trkpt lat="43.91734" lon="5.20169">
        <ele>401.49</ele>
        <time>2016-06-19T14:10:22Z</time>
      </trkpt>
      <trkpt lat="43.91649" lon="5.20145">
        <ele>394.76</ele>
        <time>2016-06-19T14:10:32Z</time>
      </trkpt>
      <trkpt lat="43.91576" lon="5.20118">
        <ele>388.03</ele>
        <time>2016-06-19T14:10:47Z</time>
      </trkpt>
      <trkpt lat="43.91534" lon="5.20106">
        <ele>385.15</ele>
        <time>2016-06-19T14:10:54Z</time>
      </trkpt>
      <trkpt lat="43.91526" lon="5.20102">
        <ele>385.15</ele>
        <time>2016-06-19T14:10:55Z</time>
      </trkpt>
      <trkpt lat="43.91446" lon="5.20062">
        <ele>378.9</ele>
        <time>2016-06-19T14:11:07Z</time>
      </trkpt>
      <trkpt lat="43.91409" lon="5.20058">
        <ele>376.49</ele>
        <time>2016-06-19T14:11:19Z</time>
      </trkpt>
      <trkpt lat="43.91329" lon="5.20062">
        <ele>372.65</ele>
        <time>2016-06-19T14:11:35Z</time>
      </trkpt>
      <trkpt lat="43.91324" lon="5.2006">
        <ele>372.17</ele>
        <time>2016-06-19T14:11:36Z</time>
      </trkpt>
      <trkpt lat="43.91317" lon="5.20058">
        <ele>371.69</ele>
        <time>2016-06-19T14:11:37Z</time>
      </trkpt>
      <trkpt lat="43.91311" lon="5.20056">
        <ele>371.21</ele>
        <time>2016-06-19T14:11:38Z</time>
      </trkpt>
      <trkpt lat="43.91306" lon="5.20053">
        <ele>370.73</ele>
        <time>2016-06-19T14:11:39Z</time>
      </trkpt>
      <trkpt lat="43.913" lon="5.20049">
        <ele>370.24</ele>
        <time>2016-06-19T14:11:40Z</time>
      </trkpt>
      <trkpt lat="43.91221" lon="5.19997">
        <ele>360.63</ele>
        <time>2016-06-19T14:11:55Z</time>
      </trkpt>
      <trkpt lat="43.9116" lon="5.19984">
        <ele>359.19</ele>
        <time>2016-06-19T14:12:07Z</time>
      </trkpt>
      <trkpt lat="43.9114" lon="5.1997">
        <ele>354.86</ele>
        <time>2016-06-19T14:12:18Z</time>
      </trkpt>
      <trkpt lat="43.91142" lon="5.19931">
        <ele>351.98</ele>
        <time>2016-06-19T14:12:28Z</time>
      </trkpt>
      <trkpt lat="43.91146" lon="5.19921">
        <ele>351.02</ele>
        <time>2016-06-19T14:12:30Z</time>
      </trkpt>
      <trkpt lat="43.91161" lon="5.19884">
        <ele>348.13</ele>
        <time>2016-06-19T14:12:36Z</time>
      </trkpt>
      <trkpt lat="43.91164" lon="5.19878">
        <ele>347.65</ele>
        <time>2016-06-19T14:12:37Z</time>
      </trkpt>
      <trkpt lat="43.91171" lon="5.19867">
        <ele>347.17</ele>
        <time>2016-06-19T14:12:39Z</time>
      </trkpt>
      <trkpt lat="43.91185" lon="5.19848">
        <ele>346.21</ele>
        <time>2016-06-19T14:12:43Z</time>
      </trkpt>
      <trkpt lat="43.91219" lon="5.19802">
        <ele>345.73</ele>
        <time>2016-06-19T14:12:55Z</time>
      </trkpt>
      <trkpt lat="43.9124" lon="5.19793">
        <ele>345.73</ele>
        <time>2016-06-19T14:13:05Z</time>
      </trkpt>
      <trkpt lat="43.91301" lon="5.19777">
        <ele>348.13</ele>
        <time>2016-06-19T14:13:16Z</time>
      </trkpt>
      <trkpt lat="43.91374" lon="5.19746">
        <ele>347.65</ele>
        <time>2016-06-19T14:13:26Z</time>
      </trkpt>
      <trkpt lat="43.9138" lon="5.19742">
        <ele>347.65</ele>
        <time>2016-06-19T14:13:27Z</time>
      </trkpt>
      <trkpt lat="43.91384" lon="5.19737">
        <ele>348.13</ele>
        <time>2016-06-19T14:13:28Z</time>
      </trkpt>
      <trkpt lat="43.91387" lon="5.19731">
        <ele>348.13</ele>
        <time>2016-06-19T14:13:29Z</time>
      </trkpt>
      <trkpt lat="43.91389" lon="5.19724">
        <ele>348.13</ele>
        <time>2016-06-19T14:13:30Z</time>
      </trkpt>
      <trkpt lat="43.9139" lon="5.19716">
        <ele>348.62</ele>
        <time>2016-06-19T14:13:31Z</time>
      </trkpt>
      <trkpt lat="43.91388" lon="5.19707">
        <ele>349.1</ele>
        <time>2016-06-19T14:13:32Z</time>
      </trkpt>
      <trkpt lat="43.91384" lon="5.19701">
        <ele>349.1</ele>
        <time>2016-06-19T14:13:33Z</time>
      </trkpt>
      <trkpt lat="43.91378" lon="5.19695">
        <ele>348.62</ele>
        <time>2016-06-19T14:13:34Z</time>
      </trkpt>
      <trkpt lat="43.91372" lon="5.19691">
        <ele>348.62</ele>
        <time>2016-06-19T14:13:35Z</time>
      </trkpt>
      <trkpt lat="43.91366" lon="5.19687">
        <ele>348.62</ele>
        <time>2016-06-19T14:13:36Z</time>
      </trkpt>
      <trkpt lat="43.91281" lon="5.19661">
        <ele>349.58</ele>
        <time>2016-06-19T14:13:48Z</time>
      </trkpt>
      <trkpt lat="43.91234" lon="5.19647">
        <ele>350.54</ele>
        <time>2016-06-19T14:13:56Z</time>
      </trkpt>
      <trkpt lat="43.9123" lon="5.19646">
        <ele>351.02</ele>
        <time>2016-06-19T14:13:57Z</time>
      </trkpt>
      <trkpt lat="43.91226" lon="5.19645">
        <ele>351.02</ele>
        <time>2016-06-19T14:13:58Z</time>
      </trkpt>
      <trkpt lat="43.91192" lon="5.19643">
        <ele>350.06</ele>
        <time>2016-06-19T14:14:09Z</time>
      </trkpt>
      <trkpt lat="43.9115" lon="5.19658">
        <ele>348.13</ele>
        <time>2016-06-19T14:14:20Z</time>
      </trkpt>
      <trkpt lat="43.91073" lon="5.1969">
        <ele>343.33</ele>
        <time>2016-06-19T14:14:33Z</time>
      </trkpt>
      <trkpt lat="43.90992" lon="5.19725">
        <ele>340.92</ele>
        <time>2016-06-19T14:14:45Z</time>
      </trkpt>
      <trkpt lat="43.90891" lon="5.19762">
        <ele>336.12</ele>
        <time>2016-06-19T14:14:58Z</time>
      </trkpt>
      <trkpt lat="43.90827" lon="5.19774">
        <ele>332.27</ele>
        <time>2016-06-19T14:15:07Z</time>
      </trkpt>
      <trkpt lat="43.90822" lon="5.19773">
        <ele>331.79</ele>
        <time>2016-06-19T14:15:08Z</time>
      </trkpt>
      <trkpt lat="43.90816" lon="5.1977">
        <ele>331.79</ele>
        <time>2016-06-19T14:15:09Z</time>
      </trkpt>
      <trkpt lat="43.90794" lon="5.19754">
        <ele>328.91</ele>
        <time>2016-06-19T14:15:17Z</time>
      </trkpt>
      <trkpt lat="43.90737" lon="5.19718">
        <ele>325.06</ele>
        <time>2016-06-19T14:15:32Z</time>
      </trkpt>
      <trkpt lat="43.90731" lon="5.19716">
        <ele>324.58</ele>
        <time>2016-06-19T14:15:33Z</time>
      </trkpt>
      <trkpt lat="43.90725" lon="5.19715">
        <ele>324.58</ele>
        <time>2016-06-19T14:15:34Z</time>
      </trkpt>
      <trkpt lat="43.90719" lon="5.19714">
        <ele>324.1</ele>
        <time>2016-06-19T14:15:35Z</time>
      </trkpt>
      <trkpt lat="43.90712" lon="5.19714">
        <ele>323.62</ele>
        <time>2016-06-19T14:15:36Z</time>
      </trkpt>
      <trkpt lat="43.90705" lon="5.19714">
        <ele>323.62</ele>
        <time>2016-06-19T14:15:37Z</time>
      </trkpt>
      <trkpt lat="43.90698" lon="5.19716">
        <ele>323.14</ele>
        <time>2016-06-19T14:15:38Z</time>
      </trkpt>
      <trkpt lat="43.90691" lon="5.19718">
        <ele>322.66</ele>
        <time>2016-06-19T14:15:39Z</time>
      </trkpt>
      <trkpt lat="43.90591" lon="5.19741">
        <ele>317.37</ele>
        <time>2016-06-19T14:15:52Z</time>
      </trkpt>
      <trkpt lat="43.90582" lon="5.1974">
        <ele>316.89</ele>
        <time>2016-06-19T14:15:53Z</time>
      </trkpt>
      <trkpt lat="43.90573" lon="5.19737">
        <ele>316.41</ele>
        <time>2016-06-19T14:15:54Z</time>
      </trkpt>
      <trkpt lat="43.9046" lon="5.19681">
        <ele>309.68</ele>
        <time>2016-06-19T14:16:08Z</time>
      </trkpt>
      <trkpt lat="43.90456" lon="5.19677">
        <ele>309.2</ele>
        <time>2016-06-19T14:16:09Z</time>
      </trkpt>
      <trkpt lat="43.90452" lon="5.19672">
        <ele>309.2</ele>
        <time>2016-06-19T14:16:10Z</time>
      </trkpt>
      <trkpt lat="43.90448" lon="5.19665">
        <ele>308.72</ele>
        <time>2016-06-19T14:16:11Z</time>
      </trkpt>
      <trkpt lat="43.90445" lon="5.19657">
        <ele>308.24</ele>
        <time>2016-06-19T14:16:12Z</time>
      </trkpt>
      <trkpt lat="43.90444" lon="5.19647">
        <ele>307.76</ele>
        <time>2016-06-19T14:16:13Z</time>
      </trkpt>
      <trkpt lat="43.90444" lon="5.19637">
        <ele>306.8</ele>
        <time>2016-06-19T14:16:14Z</time>
      </trkpt>
      <trkpt lat="43.90446" lon="5.19627">
        <ele>306.32</ele>
        <time>2016-06-19T14:16:15Z</time>
      </trkpt>
      <trkpt lat="43.90449" lon="5.19617">
        <ele>305.36</ele>
        <time>2016-06-19T14:16:16Z</time>
      </trkpt>
      <trkpt lat="43.90454" lon="5.19607">
        <ele>304.88</ele>
        <time>2016-06-19T14:16:17Z</time>
      </trkpt>
      <trkpt lat="43.90459" lon="5.19599">
        <ele>303.91</ele>
        <time>2016-06-19T14:16:18Z</time>
      </trkpt>
      <trkpt lat="43.90465" lon="5.1959">
        <ele>303.43</ele>
        <time>2016-06-19T14:16:19Z</time>
      </trkpt>
      <trkpt lat="43.90471" lon="5.19582">
        <ele>302.95</ele>
        <time>2016-06-19T14:16:20Z</time>
      </trkpt>
      <trkpt lat="43.9051" lon="5.19527">
        <ele>300.07</ele>
        <time>2016-06-19T14:16:27Z</time>
      </trkpt>
      <trkpt lat="43.90514" lon="5.19516">
        <ele>299.59</ele>
        <time>2016-06-19T14:16:28Z</time>
      </trkpt>
      <trkpt lat="43.90517" lon="5.19505">
        <ele>299.11</ele>
        <time>2016-06-19T14:16:29Z</time>
      </trkpt>
      <trkpt lat="43.90517" lon="5.19492">
        <ele>299.11</ele>
        <time>2016-06-19T14:16:30Z</time>
      </trkpt>
      <trkpt lat="43.90515" lon="5.1948">
        <ele>298.63</ele>
        <time>2016-06-19T14:16:31Z</time>
      </trkpt>
      <trkpt lat="43.90511" lon="5.19469">
        <ele>298.15</ele>
        <time>2016-06-19T14:16:32Z</time>
      </trkpt>
      <trkpt lat="43.90504" lon="5.1946">
        <ele>297.67</ele>
        <time>2016-06-19T14:16:33Z</time>
      </trkpt>
      <trkpt lat="43.90496" lon="5.19455">
        <ele>297.18</ele>
        <time>2016-06-19T14:16:34Z</time>
      </trkpt>
      <trkpt lat="43.90488" lon="5.19452">
        <ele>296.7</ele>
        <time>2016-06-19T14:16:35Z</time>
      </trkpt>
      <trkpt lat="43.9048" lon="5.19452">
        <ele>296.7</ele>
        <time>2016-06-19T14:16:36Z</time>
      </trkpt>
      <trkpt lat="43.90472" lon="5.19455">
        <ele>296.7</ele>
        <time>2016-06-19T14:16:37Z</time>
      </trkpt>
      <trkpt lat="43.90464" lon="5.19458">
        <ele>296.22</ele>
        <time>2016-06-19T14:16:38Z</time>
      </trkpt>
      <trkpt lat="43.90456" lon="5.19462">
        <ele>295.74</ele>
        <time>2016-06-19T14:16:39Z</time>
      </trkpt>
      <trkpt lat="43.90398" lon="5.19478">
        <ele>291.9</ele>
        <time>2016-06-19T14:16:46Z</time>
      </trkpt>
      <trkpt lat="43.90311" lon="5.19476">
        <ele>289.01</ele>
        <time>2016-06-19T14:16:57Z</time>
      </trkpt>
      <trkpt lat="43.90304" lon="5.19473">
        <ele>288.53</ele>
        <time>2016-06-19T14:16:58Z</time>
      </trkpt>
      <trkpt lat="43.90296" lon="5.19468">
        <ele>288.05</ele>
        <time>2016-06-19T14:16:59Z</time>
      </trkpt>
      <trkpt lat="43.90289" lon="5.19463">
        <ele>287.57</ele>
        <time>2016-06-19T14:17:00Z</time>
      </trkpt>
      <trkpt lat="43.90281" lon="5.19456">
        <ele>287.09</ele>
        <time>2016-06-19T14:17:01Z</time>
      </trkpt>
      <trkpt lat="43.90266" lon="5.19445">
        <ele>286.13</ele>
        <time>2016-06-19T14:17:03Z</time>
      </trkpt>
      <trkpt lat="43.90258" lon="5.1944">
        <ele>285.65</ele>
        <time>2016-06-19T14:17:04Z</time>
      </trkpt>
      <trkpt lat="43.90249" lon="5.19437">
        <ele>285.17</ele>
        <time>2016-06-19T14:17:05Z</time>
      </trkpt>
      <trkpt lat="43.90241" lon="5.19434">
        <ele>284.69</ele>
        <time>2016-06-19T14:17:06Z</time>
      </trkpt>
      <trkpt lat="43.90232" lon="5.19432">
        <ele>284.21</ele>
        <time>2016-06-19T14:17:07Z</time>
      </trkpt>
      <trkpt lat="43.90176" lon="5.19421">
        <ele>280.36</ele>
        <time>2016-06-19T14:17:17Z</time>
      </trkpt>
      <trkpt lat="43.90162" lon="5.19401">
        <ele>278.44</ele>
        <time>2016-06-19T14:17:23Z</time>
      </trkpt>
      <trkpt lat="43.9016" lon="5.19392">
        <ele>277.96</ele>
        <time>2016-06-19T14:17:24Z</time>
      </trkpt>
      <trkpt lat="43.90155" lon="5.19368">
        <ele>277</ele>
        <time>2016-06-19T14:17:26Z</time>
      </trkpt>
      <trkpt lat="43.9015" lon="5.19356">
        <ele>277</ele>
        <time>2016-06-19T14:17:27Z</time>
      </trkpt>
      <trkpt lat="43.90143" lon="5.19344">
        <ele>276.52</ele>
        <time>2016-06-19T14:17:28Z</time>
      </trkpt>
      <trkpt lat="43.90133" lon="5.19331">
        <ele>275.56</ele>
        <time>2016-06-19T14:17:29Z</time>
      </trkpt>
      <trkpt lat="43.90121" lon="5.19323">
        <ele>275.56</ele>
        <time>2016-06-19T14:17:30Z</time>
      </trkpt>
      <trkpt lat="43.90106" lon="5.19322">
        <ele>274.59</ele>
        <time>2016-06-19T14:17:31Z</time>
      </trkpt>
      <trkpt lat="43.90091" lon="5.19319">
        <ele>274.11</ele>
        <time>2016-06-19T14:17:32Z</time>
      </trkpt>
      <trkpt lat="43.90077" lon="5.19315">
        <ele>273.15</ele>
        <time>2016-06-19T14:17:33Z</time>
      </trkpt>
      <trkpt lat="43.90063" lon="5.19307">
        <ele>272.19</ele>
        <time>2016-06-19T14:17:34Z</time>
      </trkpt>
      <trkpt lat="43.9005" lon="5.19294">
        <ele>271.71</ele>
        <time>2016-06-19T14:17:35Z</time>
      </trkpt>
      <trkpt lat="43.90037" lon="5.19279">
        <ele>271.23</ele>
        <time>2016-06-19T14:17:36Z</time>
      </trkpt>
      <trkpt lat="43.90023" lon="5.19264">
        <ele>269.79</ele>
        <time>2016-06-19T14:17:37Z</time>
      </trkpt>
      <trkpt lat="43.89988" lon="5.19235">
        <ele>267.86</ele>
        <time>2016-06-19T14:17:39Z</time>
      </trkpt>
      <trkpt lat="43.89966" lon="5.19225">
        <ele>266.9</ele>
        <time>2016-06-19T14:17:40Z</time>
      </trkpt>
      <trkpt lat="43.89854" lon="5.19133">
        <ele>258.73</ele>
        <time>2016-06-19T14:17:46Z</time>
      </trkpt>
      <trkpt lat="43.89841" lon="5.19113">
        <ele>257.29</ele>
        <time>2016-06-19T14:17:47Z</time>
      </trkpt>
      <trkpt lat="43.8983" lon="5.1909">
        <ele>256.33</ele>
        <time>2016-06-19T14:17:48Z</time>
      </trkpt>
      <trkpt lat="43.89809" lon="5.19049">
        <ele>253.93</ele>
        <time>2016-06-19T14:17:50Z</time>
      </trkpt>
      <trkpt lat="43.89797" lon="5.19034">
        <ele>252.48</ele>
        <time>2016-06-19T14:17:51Z</time>
      </trkpt>
      <trkpt lat="43.8978" lon="5.19024">
        <ele>251.04</ele>
        <time>2016-06-19T14:17:52Z</time>
      </trkpt>
      <trkpt lat="43.89761" lon="5.19016">
        <ele>249.6</ele>
        <time>2016-06-19T14:17:53Z</time>
      </trkpt>
      <trkpt lat="43.8974" lon="5.19013">
        <ele>248.64</ele>
        <time>2016-06-19T14:17:54Z</time>
      </trkpt>
      <trkpt lat="43.89718" lon="5.19011">
        <ele>247.68</ele>
        <time>2016-06-19T14:17:55Z</time>
      </trkpt>
      <trkpt lat="43.89697" lon="5.19008">
        <ele>246.72</ele>
        <time>2016-06-19T14:17:56Z</time>
      </trkpt>
      <trkpt lat="43.89525" lon="5.18945">
        <ele>235.18</ele>
        <time>2016-06-19T14:18:04Z</time>
      </trkpt>
      <trkpt lat="43.8931" lon="5.18805">
        <ele>214.99</ele>
        <time>2016-06-19T14:18:15Z</time>
      </trkpt>
      <trkpt lat="43.89175" lon="5.18666">
        <ele>201.53</ele>
        <time>2016-06-19T14:18:22Z</time>
      </trkpt>
      <trkpt lat="43.89122" lon="5.18596">
        <ele>194.8</ele>
        <time>2016-06-19T14:18:25Z</time>
      </trkpt>
      <trkpt lat="43.89106" lon="5.18568">
        <ele>192.88</ele>
        <time>2016-06-19T14:18:26Z</time>
      </trkpt>
      <trkpt lat="43.89092" lon="5.18539">
        <ele>190.96</ele>
        <time>2016-06-19T14:18:27Z</time>
      </trkpt>
      <trkpt lat="43.88979" lon="5.18287">
        <ele>180.87</ele>
        <time>2016-06-19T14:18:36Z</time>
      </trkpt>
      <trkpt lat="43.88929" lon="5.18208">
        <ele>177.98</ele>
        <time>2016-06-19T14:18:39Z</time>
      </trkpt>
      <trkpt lat="43.88909" lon="5.18186">
        <ele>177.5</ele>
        <time>2016-06-19T14:18:40Z</time>
      </trkpt>
      <trkpt lat="43.8885" lon="5.18122">
        <ele>175.1</ele>
        <time>2016-06-19T14:18:43Z</time>
      </trkpt>
      <trkpt lat="43.88834" lon="5.18097">
        <ele>174.62</ele>
        <time>2016-06-19T14:18:44Z</time>
      </trkpt>
      <trkpt lat="43.8882" lon="5.18071">
        <ele>173.66</ele>
        <time>2016-06-19T14:18:45Z</time>
      </trkpt>
      <trkpt lat="43.88808" lon="5.18045">
        <ele>173.17</ele>
        <time>2016-06-19T14:18:46Z</time>
      </trkpt>
      <trkpt lat="43.88798" lon="5.18019">
        <ele>172.69</ele>
        <time>2016-06-19T14:18:47Z</time>
      </trkpt>
      <trkpt lat="43.88789" lon="5.17993">
        <ele>172.21</ele>
        <time>2016-06-19T14:18:48Z</time>
      </trkpt>
      <trkpt lat="43.88725" lon="5.17799">
        <ele>168.85</ele>
        <time>2016-06-19T14:18:57Z</time>
      </trkpt>
      <trkpt lat="43.88659" lon="5.17599">
        <ele>164.52</ele>
        <time>2016-06-19T14:19:09Z</time>
      </trkpt>
      <trkpt lat="43.88585" lon="5.17355">
        <ele>160.68</ele>
        <time>2016-06-19T14:19:24Z</time>
      </trkpt>
      <trkpt lat="43.88525" lon="5.17105">
        <ele>154.91</ele>
        <time>2016-06-19T14:19:39Z</time>
      </trkpt>
      <trkpt lat="43.88482" lon="5.16916">
        <ele>152.03</ele>
        <time>2016-06-19T14:19:51Z</time>
      </trkpt>
      <trkpt lat="43.88418" lon="5.16657">
        <ele>150.1</ele>
        <time>2016-06-19T14:20:07Z</time>
      </trkpt>
      <trkpt lat="43.88413" lon="5.16644">
        <ele>149.62</ele>
        <time>2016-06-19T14:20:08Z</time>
      </trkpt>
      <trkpt lat="43.88406" lon="5.16631">
        <ele>149.62</ele>
        <time>2016-06-19T14:20:09Z</time>
      </trkpt>
      <trkpt lat="43.88397" lon="5.1662">
        <ele>149.14</ele>
        <time>2016-06-19T14:20:10Z</time>
      </trkpt>
      <trkpt lat="43.88387" lon="5.1661">
        <ele>149.14</ele>
        <time>2016-06-19T14:20:11Z</time>
      </trkpt>
      <trkpt lat="43.88376" lon="5.16602">
        <ele>148.66</ele>
        <time>2016-06-19T14:20:12Z</time>
      </trkpt>
      <trkpt lat="43.88364" lon="5.16595">
        <ele>148.18</ele>
        <time>2016-06-19T14:20:13Z</time>
      </trkpt>
      <trkpt lat="43.88352" lon="5.16587">
        <ele>147.7</ele>
        <time>2016-06-19T14:20:14Z</time>
      </trkpt>
      <trkpt lat="43.88288" lon="5.16542">
        <ele>146.74</ele>
        <time>2016-06-19T14:20:19Z</time>
      </trkpt>
      <trkpt lat="43.88276" lon="5.16528">
        <ele>146.26</ele>
        <time>2016-06-19T14:20:20Z</time>
      </trkpt>
      <trkpt lat="43.88265" lon="5.16512">
        <ele>145.78</ele>
        <time>2016-06-19T14:20:21Z</time>
      </trkpt>
      <trkpt lat="43.88254" lon="5.16494">
        <ele>145.78</ele>
        <time>2016-06-19T14:20:22Z</time>
      </trkpt>
      <trkpt lat="43.88243" lon="5.16475">
        <ele>145.3</ele>
        <time>2016-06-19T14:20:23Z</time>
      </trkpt>
      <trkpt lat="43.8817" lon="5.16334">
        <ele>142.41</ele>
        <time>2016-06-19T14:20:31Z</time>
      </trkpt>
      <trkpt lat="43.88096" lon="5.16138">
        <ele>140.01</ele>
        <time>2016-06-19T14:20:42Z</time>
      </trkpt>
      <trkpt lat="43.88059" lon="5.16076">
        <ele>139.05</ele>
        <time>2016-06-19T14:20:47Z</time>
      </trkpt>
      <trkpt lat="43.88054" lon="5.16062">
        <ele>139.05</ele>
        <time>2016-06-19T14:20:48Z</time>
      </trkpt>
      <trkpt lat="43.8805" lon="5.16046">
        <ele>138.57</ele>
        <time>2016-06-19T14:20:49Z</time>
      </trkpt>
      <trkpt lat="43.87998" lon="5.15871">
        <ele>135.68</ele>
        <time>2016-06-19T14:20:59Z</time>
      </trkpt>
      <trkpt lat="43.87972" lon="5.15732">
        <ele>135.2</ele>
        <time>2016-06-19T14:21:06Z</time>
      </trkpt>
      <trkpt lat="43.87966" lon="5.15709">
        <ele>134.72</ele>
        <time>2016-06-19T14:21:07Z</time>
      </trkpt>
      <trkpt lat="43.87957" lon="5.15682">
        <ele>134.24</ele>
        <time>2016-06-19T14:21:08Z</time>
      </trkpt>
      <trkpt lat="43.87882" lon="5.15491">
        <ele>132.8</ele>
        <time>2016-06-19T14:21:15Z</time>
      </trkpt>
      <trkpt lat="43.87855" lon="5.1542">
        <ele>131.36</ele>
        <time>2016-06-19T14:21:18Z</time>
      </trkpt>
      <trkpt lat="43.87851" lon="5.15394">
        <ele>131.36</ele>
        <time>2016-06-19T14:21:19Z</time>
      </trkpt>
      <trkpt lat="43.87816" lon="5.15174">
        <ele>127.99</ele>
        <time>2016-06-19T14:21:27Z</time>
      </trkpt>
      <trkpt lat="43.8774" lon="5.14998">
        <ele>126.07</ele>
        <time>2016-06-19T14:21:34Z</time>
      </trkpt>
      <trkpt lat="43.87664" lon="5.14867">
        <ele>124.63</ele>
        <time>2016-06-19T14:21:41Z</time>
      </trkpt>
      <trkpt lat="43.87631" lon="5.14816">
        <ele>124.63</ele>
        <time>2016-06-19T14:21:46Z</time>
      </trkpt>
      <trkpt lat="43.87625" lon="5.14817">
        <ele>124.63</ele>
        <time>2016-06-19T14:21:47Z</time>
      </trkpt>
      <trkpt lat="43.87617" lon="5.14821">
        <ele>124.15</ele>
        <time>2016-06-19T14:21:48Z</time>
      </trkpt>
      <trkpt lat="43.87607" lon="5.14825">
        <ele>123.67</ele>
        <time>2016-06-19T14:21:49Z</time>
      </trkpt>
      <trkpt lat="43.87596" lon="5.14828">
        <ele>123.67</ele>
        <time>2016-06-19T14:21:50Z</time>
      </trkpt>
      <trkpt lat="43.87583" lon="5.14831">
        <ele>123.19</ele>
        <time>2016-06-19T14:21:51Z</time>
      </trkpt>
      <trkpt lat="43.87438" lon="5.14842">
        <ele>122.71</ele>
        <time>2016-06-19T14:22:01Z</time>
      </trkpt>
      <trkpt lat="43.87262" lon="5.14807">
        <ele>119.82</ele>
        <time>2016-06-19T14:22:11Z</time>
      </trkpt>
      <trkpt lat="43.87169" lon="5.14793">
        <ele>118.38</ele>
        <time>2016-06-19T14:22:18Z</time>
      </trkpt>
      <trkpt lat="43.8712" lon="5.14769">
        <ele>116.94</ele>
        <time>2016-06-19T14:22:25Z</time>
      </trkpt>
      <trkpt lat="43.87113" lon="5.14761">
        <ele>116.94</ele>
        <time>2016-06-19T14:22:26Z</time>
      </trkpt>
      <trkpt lat="43.87106" lon="5.14752">
        <ele>116.94</ele>
        <time>2016-06-19T14:22:27Z</time>
      </trkpt>
      <trkpt lat="43.87027" lon="5.14629">
        <ele>115.5</ele>
        <time>2016-06-19T14:22:39Z</time>
      </trkpt>
      <trkpt lat="43.86902" lon="5.14433">
        <ele>112.13</ele>
        <time>2016-06-19T14:22:56Z</time>
      </trkpt>
      <trkpt lat="43.8686" lon="5.1437">
        <ele>111.17</ele>
        <time>2016-06-19T14:23:05Z</time>
      </trkpt>
      <trkpt lat="43.86859" lon="5.1437">
        <ele>111.65</ele>
        <time>2016-06-19T14:23:16Z</time>
      </trkpt>
      <trkpt lat="43.86841" lon="5.14346">
        <ele>112.61</ele>
        <time>2016-06-19T14:23:50Z</time>
      </trkpt>
      <trkpt lat="43.8677" lon="5.14252">
        <ele>110.69</ele>
        <time>2016-06-19T14:23:59Z</time>
      </trkpt>
      <trkpt lat="43.86706" lon="5.14164">
        <ele>109.73</ele>
        <time>2016-06-19T14:24:08Z</time>
      </trkpt>
      <trkpt lat="43.86588" lon="5.14006">
        <ele>106.84</ele>
        <time>2016-06-19T14:24:20Z</time>
      </trkpt>
      <trkpt lat="43.8647" lon="5.13856">
        <ele>106.36</ele>
        <time>2016-06-19T14:24:30Z</time>
      </trkpt>
      <trkpt lat="43.86317" lon="5.13649">
        <ele>105.88</ele>
        <time>2016-06-19T14:24:39Z</time>
      </trkpt>
      <trkpt lat="43.86128" lon="5.13441">
        <ele>106.36</ele>
        <time>2016-06-19T14:24:49Z</time>
      </trkpt>
      <trkpt lat="43.85979" lon="5.13374">
        <ele>106.36</ele>
        <time>2016-06-19T14:24:55Z</time>
      </trkpt>
      <trkpt lat="43.85705" lon="5.13249">
        <ele>109.73</ele>
        <time>2016-06-19T14:25:06Z</time>
      </trkpt>
      <trkpt lat="43.85557" lon="5.13115">
        <ele>110.21</ele>
        <time>2016-06-19T14:25:13Z</time>
      </trkpt>
      <trkpt lat="43.85248" lon="5.12843">
        <ele>113.57</ele>
        <time>2016-06-19T14:25:28Z</time>
      </trkpt>
      <trkpt lat="43.85155" lon="5.12717">
        <ele>115.01</ele>
        <time>2016-06-19T14:25:34Z</time>
      </trkpt>
      <trkpt lat="43.85059" lon="5.12482">
        <ele>118.38</ele>
        <time>2016-06-19T14:25:43Z</time>
      </trkpt>
      <trkpt lat="43.84993" lon="5.1227">
        <ele>118.38</ele>
        <time>2016-06-19T14:25:52Z</time>
      </trkpt>
      <trkpt lat="43.84979" lon="5.12168">
        <ele>118.86</ele>
        <time>2016-06-19T14:25:58Z</time>
      </trkpt>
      <trkpt lat="43.84971" lon="5.12059">
        <ele>119.34</ele>
        <time>2016-06-19T14:26:06Z</time>
      </trkpt>
      <trkpt lat="43.84946" lon="5.11859">
        <ele>120.3</ele>
        <time>2016-06-19T14:26:18Z</time>
      </trkpt>
      <trkpt lat="43.84918" lon="5.11657">
        <ele>122.22</ele>
        <time>2016-06-19T14:26:31Z</time>
      </trkpt>
      <trkpt lat="43.84892" lon="5.11479">
        <ele>125.59</ele>
        <time>2016-06-19T14:26:43Z</time>
      </trkpt>
      <trkpt lat="43.84865" lon="5.11296">
        <ele>127.03</ele>
        <time>2016-06-19T14:26:56Z</time>
      </trkpt>
      <trkpt lat="43.8486" lon="5.11261">
        <ele>126.55</ele>
        <time>2016-06-19T14:27:03Z</time>
      </trkpt>
      <trkpt lat="43.84859" lon="5.11245">
        <ele>127.03</ele>
        <time>2016-06-19T14:27:08Z</time>
      </trkpt>
      <trkpt lat="43.8486" lon="5.11238">
        <ele>126.55</ele>
        <time>2016-06-19T14:27:09Z</time>
      </trkpt>
      <trkpt lat="43.84861" lon="5.11232">
        <ele>126.55</ele>
        <time>2016-06-19T14:27:10Z</time>
      </trkpt>
      <trkpt lat="43.8486" lon="5.11227">
        <ele>126.55</ele>
        <time>2016-06-19T14:27:11Z</time>
      </trkpt>
      <trkpt lat="43.84859" lon="5.11224">
        <ele>126.55</ele>
        <time>2016-06-19T14:27:12Z</time>
      </trkpt>
      <trkpt lat="43.84858" lon="5.11223">
        <ele>126.55</ele>
        <time>2016-06-19T14:27:13Z</time>
      </trkpt>
      <trkpt lat="43.84857" lon="5.11224">
        <ele>127.51</ele>
        <time>2016-06-19T14:27:28Z</time>
      </trkpt>
      <trkpt lat="43.84856" lon="5.11224">
        <ele>124.15</ele>
        <time>2016-06-19T14:30:05Z</time>
      </trkpt>
      <trkpt lat="43.84853" lon="5.11218">
        <ele>124.15</ele>
        <time>2016-06-19T14:30:12Z</time>
      </trkpt>
      <trkpt lat="43.84852" lon="5.1121">
        <ele>124.15</ele>
        <time>2016-06-19T14:30:13Z</time>
      </trkpt>
      <trkpt lat="43.84852" lon="5.11199">
        <ele>124.15</ele>
        <time>2016-06-19T14:30:14Z</time>
      </trkpt>
      <trkpt lat="43.8483" lon="5.11088">
        <ele>123.67</ele>
        <time>2016-06-19T14:30:22Z</time>
      </trkpt>
      <trkpt lat="43.84794" lon="5.10944">
        <ele>122.22</ele>
        <time>2016-06-19T14:30:32Z</time>
      </trkpt>
      <trkpt lat="43.84767" lon="5.10829">
        <ele>121.74</ele>
        <time>2016-06-19T14:30:43Z</time>
      </trkpt>
      <trkpt lat="43.84748" lon="5.1075">
        <ele>121.74</ele>
        <time>2016-06-19T14:30:55Z</time>
      </trkpt>
      <trkpt lat="43.84744" lon="5.10734">
        <ele>122.22</ele>
        <time>2016-06-19T14:30:57Z</time>
      </trkpt>
      <trkpt lat="43.84739" lon="5.10717">
        <ele>121.74</ele>
        <time>2016-06-19T14:30:59Z</time>
      </trkpt>
      <trkpt lat="43.84736" lon="5.10706">
        <ele>122.22</ele>
        <time>2016-06-19T14:31:00Z</time>
      </trkpt>
      <trkpt lat="43.8471" lon="5.1059">
        <ele>120.78</ele>
        <time>2016-06-19T14:31:10Z</time>
      </trkpt>
      <trkpt lat="43.84668" lon="5.1036">
        <ele>115.5</ele>
        <time>2016-06-19T14:31:26Z</time>
      </trkpt>
      <trkpt lat="43.84664" lon="5.1031">
        <ele>114.53</ele>
        <time>2016-06-19T14:31:30Z</time>
      </trkpt>
      <trkpt lat="43.84662" lon="5.10297">
        <ele>114.05</ele>
        <time>2016-06-19T14:31:31Z</time>
      </trkpt>
      <trkpt lat="43.84636" lon="5.10154">
        <ele>111.17</ele>
        <time>2016-06-19T14:31:39Z</time>
      </trkpt>
      <trkpt lat="43.84612" lon="5.10004">
        <ele>109.73</ele>
        <time>2016-06-19T14:31:45Z</time>
      </trkpt>
      <trkpt lat="43.84554" lon="5.09666">
        <ele>112.61</ele>
        <time>2016-06-19T14:31:57Z</time>
      </trkpt>
      <trkpt lat="43.8448" lon="5.09452">
        <ele>108.29</ele>
        <time>2016-06-19T14:32:05Z</time>
      </trkpt>
      <trkpt lat="43.84465" lon="5.09394">
        <ele>106.84</ele>
        <time>2016-06-19T14:32:07Z</time>
      </trkpt>
      <trkpt lat="43.8446" lon="5.09365">
        <ele>106.36</ele>
        <time>2016-06-19T14:32:08Z</time>
      </trkpt>
      <trkpt lat="43.84457" lon="5.09336">
        <ele>105.88</ele>
        <time>2016-06-19T14:32:09Z</time>
      </trkpt>
      <trkpt lat="43.84455" lon="5.09307">
        <ele>105.4</ele>
        <time>2016-06-19T14:32:10Z</time>
      </trkpt>
      <trkpt lat="43.84455" lon="5.09279">
        <ele>104.92</ele>
        <time>2016-06-19T14:32:11Z</time>
      </trkpt>
      <trkpt lat="43.84455" lon="5.0925">
        <ele>103.96</ele>
        <time>2016-06-19T14:32:12Z</time>
      </trkpt>
      <trkpt lat="43.84488" lon="5.08971">
        <ele>99.15</ele>
        <time>2016-06-19T14:32:22Z</time>
      </trkpt>
      <trkpt lat="43.84514" lon="5.088">
        <ele>97.23</ele>
        <time>2016-06-19T14:32:30Z</time>
      </trkpt>
      <trkpt lat="43.84524" lon="5.08711">
        <ele>96.75</ele>
        <time>2016-06-19T14:32:37Z</time>
      </trkpt>
      <trkpt lat="43.84525" lon="5.08691">
        <ele>96.27</ele>
        <time>2016-06-19T14:32:39Z</time>
      </trkpt>
      <trkpt lat="43.84527" lon="5.08682">
        <ele>96.27</ele>
        <time>2016-06-19T14:32:40Z</time>
      </trkpt>
      <trkpt lat="43.84532" lon="5.08665">
        <ele>95.79</ele>
        <time>2016-06-19T14:32:42Z</time>
      </trkpt>
      <trkpt lat="43.84532" lon="5.08656">
        <ele>95.79</ele>
        <time>2016-06-19T14:32:43Z</time>
      </trkpt>
      <trkpt lat="43.84529" lon="5.08648">
        <ele>95.79</ele>
        <time>2016-06-19T14:32:44Z</time>
      </trkpt>
      <trkpt lat="43.84521" lon="5.08628">
        <ele>95.31</ele>
        <time>2016-06-19T14:32:46Z</time>
      </trkpt>
      <trkpt lat="43.84518" lon="5.08616">
        <ele>94.83</ele>
        <time>2016-06-19T14:32:47Z</time>
      </trkpt>
      <trkpt lat="43.84488" lon="5.08496">
        <ele>93.39</ele>
        <time>2016-06-19T14:32:54Z</time>
      </trkpt>
      <trkpt lat="43.84427" lon="5.08245">
        <ele>90.5</ele>
        <time>2016-06-19T14:33:04Z</time>
      </trkpt>
      <trkpt lat="43.84394" lon="5.08094">
        <ele>89.54</ele>
        <time>2016-06-19T14:33:11Z</time>
      </trkpt>
      <trkpt lat="43.8438" lon="5.08034">
        <ele>89.54</ele>
        <time>2016-06-19T14:33:17Z</time>
      </trkpt>
      <trkpt lat="43.84376" lon="5.08006">
        <ele>89.54</ele>
        <time>2016-06-19T14:33:20Z</time>
      </trkpt>
      <trkpt lat="43.84376" lon="5.07997">
        <ele>89.06</ele>
        <time>2016-06-19T14:33:21Z</time>
      </trkpt>
      <trkpt lat="43.84376" lon="5.07976">
        <ele>89.06</ele>
        <time>2016-06-19T14:33:23Z</time>
      </trkpt>
      <trkpt lat="43.84374" lon="5.07966">
        <ele>89.06</ele>
        <time>2016-06-19T14:33:24Z</time>
      </trkpt>
      <trkpt lat="43.84347" lon="5.07867">
        <ele>88.1</ele>
        <time>2016-06-19T14:33:30Z</time>
      </trkpt>
      <trkpt lat="43.84317" lon="5.07653">
        <ele>85.21</ele>
        <time>2016-06-19T14:33:38Z</time>
      </trkpt>
      <trkpt lat="43.843" lon="5.07364">
        <ele>84.73</ele>
        <time>2016-06-19T14:33:47Z</time>
      </trkpt>
      <trkpt lat="43.84263" lon="5.07149">
        <ele>84.73</ele>
        <time>2016-06-19T14:33:54Z</time>
      </trkpt>
      <trkpt lat="43.84193" lon="5.06907">
        <ele>84.73</ele>
        <time>2016-06-19T14:34:03Z</time>
      </trkpt>
      <trkpt lat="43.84155" lon="5.06684">
        <ele>84.73</ele>
        <time>2016-06-19T14:34:10Z</time>
      </trkpt>
      <trkpt lat="43.8408" lon="5.06374">
        <ele>84.25</ele>
        <time>2016-06-19T14:34:20Z</time>
      </trkpt>
      <trkpt lat="43.84009" lon="5.06017">
        <ele>82.33</ele>
        <time>2016-06-19T14:34:31Z</time>
      </trkpt>
      <trkpt lat="43.83972" lon="5.05675">
        <ele>80.89</ele>
        <time>2016-06-19T14:34:41Z</time>
      </trkpt>
      <trkpt lat="43.83947" lon="5.05447">
        <ele>79.93</ele>
        <time>2016-06-19T14:34:49Z</time>
      </trkpt>
      <trkpt lat="43.83948" lon="5.0539">
        <ele>79.93</ele>
        <time>2016-06-19T14:34:52Z</time>
      </trkpt>
      <trkpt lat="43.83951" lon="5.05377">
        <ele>79.93</ele>
        <time>2016-06-19T14:34:53Z</time>
      </trkpt>
      <trkpt lat="43.83952" lon="5.05366">
        <ele>79.93</ele>
        <time>2016-06-19T14:34:54Z</time>
      </trkpt>
      <trkpt lat="43.8395" lon="5.05354">
        <ele>79.93</ele>
        <time>2016-06-19T14:34:55Z</time>
      </trkpt>
      <trkpt lat="43.83946" lon="5.0534">
        <ele>79.45</ele>
        <time>2016-06-19T14:34:56Z</time>
      </trkpt>
      <trkpt lat="43.83941" lon="5.05321">
        <ele>79.45</ele>
        <time>2016-06-19T14:34:57Z</time>
      </trkpt>
      <trkpt lat="43.83937" lon="5.05297">
        <ele>79.93</ele>
        <time>2016-06-19T14:34:58Z</time>
      </trkpt>
      <trkpt lat="43.83934" lon="5.05272">
        <ele>79.45</ele>
        <time>2016-06-19T14:34:59Z</time>
      </trkpt>
      <trkpt lat="43.83894" lon="5.04958">
        <ele>78.97</ele>
        <time>2016-06-19T14:35:12Z</time>
      </trkpt>
      <trkpt lat="43.83883" lon="5.04879">
        <ele>79.45</ele>
        <time>2016-06-19T14:35:18Z</time>
      </trkpt>
      <trkpt lat="43.83882" lon="5.04875">
        <ele>79.45</ele>
        <time>2016-06-19T14:35:24Z</time>
      </trkpt>
      <trkpt lat="43.83876" lon="5.04823">
        <ele>78.48</ele>
        <time>2016-06-19T14:35:47Z</time>
      </trkpt>
      <trkpt lat="43.83846" lon="5.04653">
        <ele>78.48</ele>
        <time>2016-06-19T14:35:57Z</time>
      </trkpt>
      <trkpt lat="43.83829" lon="5.04605">
        <ele>78.97</ele>
        <time>2016-06-19T14:36:04Z</time>
      </trkpt>
      <trkpt lat="43.83815" lon="5.04559">
        <ele>78.97</ele>
        <time>2016-06-19T14:36:13Z</time>
      </trkpt>
      <trkpt lat="43.83769" lon="5.04412">
        <ele>78</ele>
        <time>2016-06-19T14:36:22Z</time>
      </trkpt>
      <trkpt lat="43.83756" lon="5.04366">
        <ele>78</ele>
        <time>2016-06-19T14:36:26Z</time>
      </trkpt>
      <trkpt lat="43.83756" lon="5.04358">
        <ele>78.48</ele>
        <time>2016-06-19T14:36:27Z</time>
      </trkpt>
      <trkpt lat="43.83757" lon="5.04355">
        <ele>78.48</ele>
        <time>2016-06-19T14:36:28Z</time>
      </trkpt>
      <trkpt lat="43.83762" lon="5.04348">
        <ele>79.45</ele>
        <time>2016-06-19T14:36:33Z</time>
      </trkpt>
      <trkpt lat="43.83766" lon="5.04342">
        <ele>79.45</ele>
        <time>2016-06-19T14:36:34Z</time>
      </trkpt>
      <trkpt lat="43.8377" lon="5.04334">
        <ele>79.45</ele>
        <time>2016-06-19T14:36:35Z</time>
      </trkpt>
      <trkpt lat="43.83773" lon="5.04325">
        <ele>78.97</ele>
        <time>2016-06-19T14:36:36Z</time>
      </trkpt>
      <trkpt lat="43.83773" lon="5.04316">
        <ele>78.97</ele>
        <time>2016-06-19T14:36:37Z</time>
      </trkpt>
      <trkpt lat="43.83772" lon="5.0431">
        <ele>78.97</ele>
        <time>2016-06-19T14:36:38Z</time>
      </trkpt>
      <trkpt lat="43.8377" lon="5.04306">
        <ele>78.48</ele>
        <time>2016-06-19T14:36:39Z</time>
      </trkpt>
      <trkpt lat="43.83767" lon="5.04305">
        <ele>78.48</ele>
        <time>2016-06-19T14:36:40Z</time>
      </trkpt>
      <trkpt lat="43.83764" lon="5.04305">
        <ele>78.48</ele>
        <time>2016-06-19T14:36:41Z</time>
      </trkpt>
      <trkpt lat="43.83759" lon="5.04306">
        <ele>78.48</ele>
        <time>2016-06-19T14:36:42Z</time>
      </trkpt>
      <trkpt lat="43.83754" lon="5.04309">
        <ele>78</ele>
        <time>2016-06-19T14:36:43Z</time>
      </trkpt>
      <trkpt lat="43.8375" lon="5.04321">
        <ele>78</ele>
        <time>2016-06-19T14:36:44Z</time>
      </trkpt>
      <trkpt lat="43.8375" lon="5.04332">
        <ele>78</ele>
        <time>2016-06-19T14:36:45Z</time>
      </trkpt>
      <trkpt lat="43.83755" lon="5.04339">
        <ele>78</ele>
        <time>2016-06-19T14:36:46Z</time>
      </trkpt>
      <trkpt lat="43.83761" lon="5.04343">
        <ele>78</ele>
        <time>2016-06-19T14:36:47Z</time>
      </trkpt>
      <trkpt lat="43.83768" lon="5.0434">
        <ele>77.52</ele>
        <time>2016-06-19T14:36:48Z</time>
      </trkpt>
      <trkpt lat="43.83775" lon="5.04333">
        <ele>78</ele>
        <time>2016-06-19T14:36:49Z</time>
      </trkpt>
      <trkpt lat="43.83778" lon="5.04326">
        <ele>76.56</ele>
        <time>2016-06-19T14:36:50Z</time>
      </trkpt>
      <trkpt lat="43.83777" lon="5.04317">
        <ele>76.56</ele>
        <time>2016-06-19T14:36:51Z</time>
      </trkpt>
      <trkpt lat="43.83774" lon="5.04306">
        <ele>77.52</ele>
        <time>2016-06-19T14:36:52Z</time>
      </trkpt>
      <trkpt lat="43.83769" lon="5.04297">
        <ele>78</ele>
        <time>2016-06-19T14:36:53Z</time>
      </trkpt>
      <trkpt lat="43.83768" lon="5.04292">
        <ele>77.52</ele>
        <time>2016-06-19T14:36:54Z</time>
      </trkpt>
      <trkpt lat="43.83761" lon="5.04283">
        <ele>77.52</ele>
        <time>2016-06-19T14:36:55Z</time>
      </trkpt>
      <trkpt lat="43.83756" lon="5.04277">
        <ele>78.48</ele>
        <time>2016-06-19T14:36:56Z</time>
      </trkpt>
      <trkpt lat="43.83748" lon="5.04267">
        <ele>78.48</ele>
        <time>2016-06-19T14:36:57Z</time>
      </trkpt>
      <trkpt lat="43.83743" lon="5.04259">
        <ele>78.97</ele>
        <time>2016-06-19T14:36:58Z</time>
      </trkpt>
      <trkpt lat="43.83738" lon="5.04251">
        <ele>79.45</ele>
        <time>2016-06-19T14:36:59Z</time>
      </trkpt>
      <trkpt lat="43.83718" lon="5.04222">
        <ele>80.41</ele>
        <time>2016-06-19T14:37:03Z</time>
      </trkpt>
      <trkpt lat="43.83712" lon="5.04216">
        <ele>80.41</ele>
        <time>2016-06-19T14:37:04Z</time>
      </trkpt>
      <trkpt lat="43.83707" lon="5.04208">
        <ele>80.41</ele>
        <time>2016-06-19T14:37:05Z</time>
      </trkpt>
      <trkpt lat="43.83703" lon="5.04199">
        <ele>80.41</ele>
        <time>2016-06-19T14:37:06Z</time>
      </trkpt>
      <trkpt lat="43.837" lon="5.04188">
        <ele>80.41</ele>
        <time>2016-06-19T14:37:07Z</time>
      </trkpt>
      <trkpt lat="43.83662" lon="5.04088">
        <ele>82.33</ele>
        <time>2016-06-19T14:37:18Z</time>
      </trkpt>
      <trkpt lat="43.8366" lon="5.0408">
        <ele>82.81</ele>
        <time>2016-06-19T14:37:19Z</time>
      </trkpt>
      <trkpt lat="43.83657" lon="5.04074">
        <ele>82.33</ele>
        <time>2016-06-19T14:37:20Z</time>
      </trkpt>
      <trkpt lat="43.83651" lon="5.04069">
        <ele>82.33</ele>
        <time>2016-06-19T14:37:21Z</time>
      </trkpt>
      <trkpt lat="43.83644" lon="5.04065">
        <ele>81.85</ele>
        <time>2016-06-19T14:37:22Z</time>
      </trkpt>
      <trkpt lat="43.83637" lon="5.04064">
        <ele>81.37</ele>
        <time>2016-06-19T14:37:23Z</time>
      </trkpt>
      <trkpt lat="43.83628" lon="5.04063">
        <ele>81.37</ele>
        <time>2016-06-19T14:37:24Z</time>
      </trkpt>
      <trkpt lat="43.8362" lon="5.04064">
        <ele>80.89</ele>
        <time>2016-06-19T14:37:25Z</time>
      </trkpt>
      <trkpt lat="43.8354" lon="5.04068">
        <ele>86.18</ele>
        <time>2016-06-19T14:37:35Z</time>
      </trkpt>
      <trkpt lat="43.83534" lon="5.04063">
        <ele>86.66</ele>
        <time>2016-06-19T14:37:36Z</time>
      </trkpt>
      <trkpt lat="43.8353" lon="5.04056">
        <ele>86.66</ele>
        <time>2016-06-19T14:37:37Z</time>
      </trkpt>
      <trkpt lat="43.83528" lon="5.04047">
        <ele>86.66</ele>
        <time>2016-06-19T14:37:38Z</time>
      </trkpt>
      <trkpt lat="43.83526" lon="5.04036">
        <ele>85.69</ele>
        <time>2016-06-19T14:37:39Z</time>
      </trkpt>
      <trkpt lat="43.83524" lon="5.04024">
        <ele>85.21</ele>
        <time>2016-06-19T14:37:40Z</time>
      </trkpt>
      <trkpt lat="43.83509" lon="5.03953">
        <ele>78.97</ele>
        <time>2016-06-19T14:37:47Z</time>
      </trkpt>
      <trkpt lat="43.83508" lon="5.03944">
        <ele>78.97</ele>
        <time>2016-06-19T14:37:48Z</time>
      </trkpt>
      <trkpt lat="43.8349" lon="5.03819">
        <ele>77.52</ele>
        <time>2016-06-19T14:38:00Z</time>
      </trkpt>
      <trkpt lat="43.83478" lon="5.03773">
        <ele>80.89</ele>
        <time>2016-06-19T14:38:05Z</time>
      </trkpt>
      <trkpt lat="43.83472" lon="5.03738">
        <ele>81.85</ele>
        <time>2016-06-19T14:38:08Z</time>
      </trkpt>
      <trkpt lat="43.83473" lon="5.03726">
        <ele>80.89</ele>
        <time>2016-06-19T14:38:09Z</time>
      </trkpt>
      <trkpt lat="43.83474" lon="5.03715">
        <ele>79.93</ele>
        <time>2016-06-19T14:38:10Z</time>
      </trkpt>
      <trkpt lat="43.83481" lon="5.03655">
        <ele>78.97</ele>
        <time>2016-06-19T14:38:18Z</time>
      </trkpt>
      <trkpt lat="43.83483" lon="5.03636">
        <ele>78.48</ele>
        <time>2016-06-19T14:38:20Z</time>
      </trkpt>
      <trkpt lat="43.83489" lon="5.03574">
        <ele>77.04</ele>
        <time>2016-06-19T14:38:25Z</time>
      </trkpt>
      <trkpt lat="43.83496" lon="5.03526">
        <ele>76.56</ele>
        <time>2016-06-19T14:38:33Z</time>
      </trkpt>
      <trkpt lat="43.83493" lon="5.03524">
        <ele>77.52</ele>
        <time>2016-06-19T14:38:42Z</time>
      </trkpt>
      <trkpt lat="43.83491" lon="5.03521">
        <ele>77.52</ele>
        <time>2016-06-19T14:38:43Z</time>
      </trkpt>
      <trkpt lat="43.83487" lon="5.03518">
        <ele>77.52</ele>
        <time>2016-06-19T14:38:44Z</time>
      </trkpt>
      <trkpt lat="43.83481" lon="5.03515">
        <ele>77.52</ele>
        <time>2016-06-19T14:38:45Z</time>
      </trkpt>
      <trkpt lat="43.83475" lon="5.03514">
        <ele>77.52</ele>
        <time>2016-06-19T14:38:46Z</time>
      </trkpt>
      <trkpt lat="43.83417" lon="5.03502">
        <ele>77.04</ele>
        <time>2016-06-19T14:38:53Z</time>
      </trkpt>
      <trkpt lat="43.83412" lon="5.03507">
        <ele>76.56</ele>
        <time>2016-06-19T14:38:54Z</time>
      </trkpt>
      <trkpt lat="43.83409" lon="5.03515">
        <ele>76.08</ele>
        <time>2016-06-19T14:38:55Z</time>
      </trkpt>
      <trkpt lat="43.83408" lon="5.03523">
        <ele>76.08</ele>
        <time>2016-06-19T14:38:56Z</time>
      </trkpt>
      <trkpt lat="43.83408" lon="5.03532">
        <ele>75.6</ele>
        <time>2016-06-19T14:38:57Z</time>
      </trkpt>
      <trkpt lat="43.83404" lon="5.03558">
        <ele>75.6</ele>
        <time>2016-06-19T14:39:02Z</time>
      </trkpt>
      <trkpt lat="43.83401" lon="5.03561">
        <ele>75.6</ele>
        <time>2016-06-19T14:39:03Z</time>
      </trkpt>
      <trkpt lat="43.83396" lon="5.03564">
        <ele>76.08</ele>
        <time>2016-06-19T14:39:04Z</time>
      </trkpt>
      <trkpt lat="43.83388" lon="5.03563">
        <ele>76.08</ele>
        <time>2016-06-19T14:39:05Z</time>
      </trkpt>
      <trkpt lat="43.83378" lon="5.03561">
        <ele>76.56</ele>
        <time>2016-06-19T14:39:06Z</time>
      </trkpt>
      <trkpt lat="43.83368" lon="5.03559">
        <ele>76.56</ele>
        <time>2016-06-19T14:39:07Z</time>
      </trkpt>
      <trkpt lat="43.83246" lon="5.03542">
        <ele>76.56</ele>
        <time>2016-06-19T14:39:19Z</time>
      </trkpt>
      <trkpt lat="43.83238" lon="5.03541">
        <ele>77.04</ele>
        <time>2016-06-19T14:39:20Z</time>
      </trkpt>
      <trkpt lat="43.8323" lon="5.0354">
        <ele>76.56</ele>
        <time>2016-06-19T14:39:21Z</time>
      </trkpt>
      <trkpt lat="43.83222" lon="5.03535">
        <ele>76.56</ele>
        <time>2016-06-19T14:39:22Z</time>
      </trkpt>
      <trkpt lat="43.83215" lon="5.03529">
        <ele>76.08</ele>
        <time>2016-06-19T14:39:23Z</time>
      </trkpt>
      <trkpt lat="43.83209" lon="5.0352">
        <ele>76.08</ele>
        <time>2016-06-19T14:39:24Z</time>
      </trkpt>
      <trkpt lat="43.83204" lon="5.0351">
        <ele>75.6</ele>
        <time>2016-06-19T14:39:25Z</time>
      </trkpt>
      <trkpt lat="43.83198" lon="5.03501">
        <ele>75.6</ele>
        <time>2016-06-19T14:39:26Z</time>
      </trkpt>
      <trkpt lat="43.83175" lon="5.03468">
        <ele>73.2</ele>
        <time>2016-06-19T14:39:33Z</time>
      </trkpt>
      <trkpt lat="43.83172" lon="5.03468">
        <ele>73.2</ele>
        <time>2016-06-19T14:39:34Z</time>
      </trkpt>
      <trkpt lat="43.83169" lon="5.0347">
        <ele>73.2</ele>
        <time>2016-06-19T14:39:35Z</time>
      </trkpt>
      <trkpt lat="43.83165" lon="5.03473">
        <ele>73.2</ele>
        <time>2016-06-19T14:39:36Z</time>
      </trkpt>
      <trkpt lat="43.8316" lon="5.03476">
        <ele>73.2</ele>
        <time>2016-06-19T14:39:37Z</time>
      </trkpt>
      <trkpt lat="43.83087" lon="5.03526">
        <ele>75.12</ele>
        <time>2016-06-19T14:39:48Z</time>
      </trkpt>
      <trkpt lat="43.82987" lon="5.03594">
        <ele>76.56</ele>
        <time>2016-06-19T14:40:01Z</time>
      </trkpt>
      <trkpt lat="43.8298" lon="5.03597">
        <ele>77.04</ele>
        <time>2016-06-19T14:40:02Z</time>
      </trkpt>
      <trkpt lat="43.82972" lon="5.03598">
        <ele>77.52</ele>
        <time>2016-06-19T14:40:03Z</time>
      </trkpt>
      <trkpt lat="43.82965" lon="5.03591">
        <ele>77.52</ele>
        <time>2016-06-19T14:40:04Z</time>
      </trkpt>
      <trkpt lat="43.82958" lon="5.03583">
        <ele>77.52</ele>
        <time>2016-06-19T14:40:05Z</time>
      </trkpt>
      <trkpt lat="43.82952" lon="5.03572">
        <ele>77.52</ele>
        <time>2016-06-19T14:40:06Z</time>
      </trkpt>
      <trkpt lat="43.82946" lon="5.03561">
        <ele>77.04</ele>
        <time>2016-06-19T14:40:07Z</time>
      </trkpt>
      <trkpt lat="43.82911" lon="5.03497">
        <ele>78</ele>
        <time>2016-06-19T14:40:16Z</time>
      </trkpt>
      <trkpt lat="43.82909" lon="5.03495">
        <ele>77.04</ele>
        <time>2016-06-19T14:40:26Z</time>
      </trkpt>
      <trkpt lat="43.82908" lon="5.03498">
        <ele>77.52</ele>
        <time>2016-06-19T14:41:27Z</time>
      </trkpt>
      <trkpt lat="43.82901" lon="5.03488">
        <ele>76.56</ele>
        <time>2016-06-19T14:42:33Z</time>
      </trkpt>
      <trkpt lat="43.82874" lon="5.0344">
        <ele>77.52</ele>
        <time>2016-06-19T14:42:38Z</time>
      </trkpt>
      <trkpt lat="43.82866" lon="5.03432">
        <ele>77.52</ele>
        <time>2016-06-19T14:42:39Z</time>
      </trkpt>
      <trkpt lat="43.82858" lon="5.03425">
        <ele>77.52</ele>
        <time>2016-06-19T14:42:40Z</time>
      </trkpt>
      <trkpt lat="43.8285" lon="5.03419">
        <ele>77.52</ele>
        <time>2016-06-19T14:42:41Z</time>
      </trkpt>
      <trkpt lat="43.82842" lon="5.03414">
        <ele>77.52</ele>
        <time>2016-06-19T14:42:42Z</time>
      </trkpt>
      <trkpt lat="43.82835" lon="5.03411">
        <ele>77.52</ele>
        <time>2016-06-19T14:42:43Z</time>
      </trkpt>
      <trkpt lat="43.82823" lon="5.03403">
        <ele>77.04</ele>
        <time>2016-06-19T14:42:46Z</time>
      </trkpt>
      <trkpt lat="43.82819" lon="5.03397">
        <ele>77.52</ele>
        <time>2016-06-19T14:42:47Z</time>
      </trkpt>
      <trkpt lat="43.82811" lon="5.03384">
        <ele>77.52</ele>
        <time>2016-06-19T14:42:49Z</time>
      </trkpt>
      <trkpt lat="43.82805" lon="5.0338">
        <ele>78</ele>
        <time>2016-06-19T14:42:50Z</time>
      </trkpt>
      <trkpt lat="43.82797" lon="5.03377">
        <ele>78</ele>
        <time>2016-06-19T14:42:51Z</time>
      </trkpt>
      <trkpt lat="43.82789" lon="5.03377">
        <ele>78</ele>
        <time>2016-06-19T14:42:52Z</time>
      </trkpt>
      <trkpt lat="43.8278" lon="5.03375">
        <ele>78</ele>
        <time>2016-06-19T14:42:53Z</time>
      </trkpt>
      <trkpt lat="43.82772" lon="5.0337">
        <ele>78</ele>
        <time>2016-06-19T14:42:54Z</time>
      </trkpt>
      <trkpt lat="43.82767" lon="5.03359">
        <ele>78</ele>
        <time>2016-06-19T14:42:55Z</time>
      </trkpt>
      <trkpt lat="43.82765" lon="5.03341">
        <ele>78</ele>
        <time>2016-06-19T14:42:56Z</time>
      </trkpt>
      <trkpt lat="43.82765" lon="5.03324">
        <ele>78</ele>
        <time>2016-06-19T14:42:57Z</time>
      </trkpt>
      <trkpt lat="43.82767" lon="5.03305">
        <ele>78.97</ele>
        <time>2016-06-19T14:42:58Z</time>
      </trkpt>
      <trkpt lat="43.82768" lon="5.03287">
        <ele>79.45</ele>
        <time>2016-06-19T14:42:59Z</time>
      </trkpt>
      <trkpt lat="43.82768" lon="5.03256">
        <ele>80.41</ele>
        <time>2016-06-19T14:43:01Z</time>
      </trkpt>
      <trkpt lat="43.82765" lon="5.03242">
        <ele>80.89</ele>
        <time>2016-06-19T14:43:02Z</time>
      </trkpt>
      <trkpt lat="43.82758" lon="5.03229">
        <ele>80.89</ele>
        <time>2016-06-19T14:43:03Z</time>
      </trkpt>
      <trkpt lat="43.82668" lon="5.03074">
        <ele>82.33</ele>
        <time>2016-06-19T14:43:14Z</time>
      </trkpt>
      <trkpt lat="43.82563" lon="5.02889">
        <ele>81.37</ele>
        <time>2016-06-19T14:43:28Z</time>
      </trkpt>
      <trkpt lat="43.82547" lon="5.02865">
        <ele>81.85</ele>
        <time>2016-06-19T14:43:30Z</time>
      </trkpt>
      <trkpt lat="43.82537" lon="5.02854">
        <ele>81.85</ele>
        <time>2016-06-19T14:43:31Z</time>
      </trkpt>
      <trkpt lat="43.82526" lon="5.02846">
        <ele>81.85</ele>
        <time>2016-06-19T14:43:32Z</time>
      </trkpt>
      <trkpt lat="43.82515" lon="5.02839">
        <ele>81.85</ele>
        <time>2016-06-19T14:43:33Z</time>
      </trkpt>
      <trkpt lat="43.82504" lon="5.02835">
        <ele>81.85</ele>
        <time>2016-06-19T14:43:34Z</time>
      </trkpt>
      <trkpt lat="43.82492" lon="5.02832">
        <ele>81.85</ele>
        <time>2016-06-19T14:43:35Z</time>
      </trkpt>
      <trkpt lat="43.8248" lon="5.0283">
        <ele>82.33</ele>
        <time>2016-06-19T14:43:36Z</time>
      </trkpt>
      <trkpt lat="43.82469" lon="5.0283">
        <ele>82.33</ele>
        <time>2016-06-19T14:43:37Z</time>
      </trkpt>
      <trkpt lat="43.82458" lon="5.02831">
        <ele>82.33</ele>
        <time>2016-06-19T14:43:38Z</time>
      </trkpt>
      <trkpt lat="43.82448" lon="5.02833">
        <ele>82.33</ele>
        <time>2016-06-19T14:43:39Z</time>
      </trkpt>
      <trkpt lat="43.82437" lon="5.02837">
        <ele>82.81</ele>
        <time>2016-06-19T14:43:40Z</time>
      </trkpt>
      <trkpt lat="43.82426" lon="5.02842">
        <ele>83.29</ele>
        <time>2016-06-19T14:43:41Z</time>
      </trkpt>
      <trkpt lat="43.82415" lon="5.02847">
        <ele>83.77</ele>
        <time>2016-06-19T14:43:42Z</time>
      </trkpt>
      <trkpt lat="43.82357" lon="5.02876">
        <ele>86.66</ele>
        <time>2016-06-19T14:43:47Z</time>
      </trkpt>
      <trkpt lat="43.82343" lon="5.02881">
        <ele>87.14</ele>
        <time>2016-06-19T14:43:48Z</time>
      </trkpt>
      <trkpt lat="43.82329" lon="5.02878">
        <ele>87.62</ele>
        <time>2016-06-19T14:43:49Z</time>
      </trkpt>
      <trkpt lat="43.82317" lon="5.02869">
        <ele>88.1</ele>
        <time>2016-06-19T14:43:50Z</time>
      </trkpt>
      <trkpt lat="43.82308" lon="5.02854">
        <ele>88.58</ele>
        <time>2016-06-19T14:43:51Z</time>
      </trkpt>
      <trkpt lat="43.82302" lon="5.02839">
        <ele>89.06</ele>
        <time>2016-06-19T14:43:52Z</time>
      </trkpt>
      <trkpt lat="43.82297" lon="5.02822">
        <ele>89.54</ele>
        <time>2016-06-19T14:43:53Z</time>
      </trkpt>
      <trkpt lat="43.82293" lon="5.02804">
        <ele>89.54</ele>
        <time>2016-06-19T14:43:54Z</time>
      </trkpt>
      <trkpt lat="43.82263" lon="5.02676">
        <ele>88.58</ele>
        <time>2016-06-19T14:43:59Z</time>
      </trkpt>
      <trkpt lat="43.82185" lon="5.02307">
        <ele>78.97</ele>
        <time>2016-06-19T14:44:12Z</time>
      </trkpt>
      <trkpt lat="43.82162" lon="5.02192">
        <ele>78</ele>
        <time>2016-06-19T14:44:18Z</time>
      </trkpt>
      <trkpt lat="43.82166" lon="5.0218">
        <ele>77.52</ele>
        <time>2016-06-19T14:44:19Z</time>
      </trkpt>
      <trkpt lat="43.82171" lon="5.0217">
        <ele>77.04</ele>
        <time>2016-06-19T14:44:20Z</time>
      </trkpt>
      <trkpt lat="43.82173" lon="5.02158">
        <ele>77.04</ele>
        <time>2016-06-19T14:44:21Z</time>
      </trkpt>
      <trkpt lat="43.82172" lon="5.02146">
        <ele>77.04</ele>
        <time>2016-06-19T14:44:22Z</time>
      </trkpt>
      <trkpt lat="43.82168" lon="5.02136">
        <ele>77.04</ele>
        <time>2016-06-19T14:44:23Z</time>
      </trkpt>
      <trkpt lat="43.8216" lon="5.02128">
        <ele>76.56</ele>
        <time>2016-06-19T14:44:24Z</time>
      </trkpt>
      <trkpt lat="43.82149" lon="5.02124">
        <ele>76.56</ele>
        <time>2016-06-19T14:44:25Z</time>
      </trkpt>
      <trkpt lat="43.82137" lon="5.02117">
        <ele>76.56</ele>
        <time>2016-06-19T14:44:26Z</time>
      </trkpt>
      <trkpt lat="43.82124" lon="5.02104">
        <ele>76.56</ele>
        <time>2016-06-19T14:44:27Z</time>
      </trkpt>
      <trkpt lat="43.82112" lon="5.02086">
        <ele>76.56</ele>
        <time>2016-06-19T14:44:28Z</time>
      </trkpt>
      <trkpt lat="43.82099" lon="5.02065">
        <ele>76.56</ele>
        <time>2016-06-19T14:44:29Z</time>
      </trkpt>
      <trkpt lat="43.81999" lon="5.01884">
        <ele>76.56</ele>
        <time>2016-06-19T14:44:36Z</time>
      </trkpt>
      <trkpt lat="43.81897" lon="5.01656">
        <ele>77.04</ele>
        <time>2016-06-19T14:44:45Z</time>
      </trkpt>
      <trkpt lat="43.81861" lon="5.01585">
        <ele>77.04</ele>
        <time>2016-06-19T14:44:49Z</time>
      </trkpt>
      <trkpt lat="43.81856" lon="5.01567">
        <ele>77.04</ele>
        <time>2016-06-19T14:44:50Z</time>
      </trkpt>
      <trkpt lat="43.8185" lon="5.01549">
        <ele>77.04</ele>
        <time>2016-06-19T14:44:51Z</time>
      </trkpt>
      <trkpt lat="43.81842" lon="5.0153">
        <ele>77.04</ele>
        <time>2016-06-19T14:44:52Z</time>
      </trkpt>
      <trkpt lat="43.81833" lon="5.01511">
        <ele>76.56</ele>
        <time>2016-06-19T14:44:53Z</time>
      </trkpt>
      <trkpt lat="43.81783" lon="5.01379">
        <ele>76.08</ele>
        <time>2016-06-19T14:45:00Z</time>
      </trkpt>
      <trkpt lat="43.81784" lon="5.01365">
        <ele>75.6</ele>
        <time>2016-06-19T14:45:01Z</time>
      </trkpt>
      <trkpt lat="43.81783" lon="5.01353">
        <ele>76.08</ele>
        <time>2016-06-19T14:45:02Z</time>
      </trkpt>
      <trkpt lat="43.8178" lon="5.01349">
        <ele>75.6</ele>
        <time>2016-06-19T14:45:03Z</time>
      </trkpt>
      <trkpt lat="43.81771" lon="5.01346">
        <ele>75.12</ele>
        <time>2016-06-19T14:45:04Z</time>
      </trkpt>
      <trkpt lat="43.8176" lon="5.0134">
        <ele>75.6</ele>
        <time>2016-06-19T14:45:05Z</time>
      </trkpt>
      <trkpt lat="43.81747" lon="5.0133">
        <ele>75.6</ele>
        <time>2016-06-19T14:45:06Z</time>
      </trkpt>
      <trkpt lat="43.81735" lon="5.01316">
        <ele>75.6</ele>
        <time>2016-06-19T14:45:07Z</time>
      </trkpt>
      <trkpt lat="43.81723" lon="5.01298">
        <ele>75.6</ele>
        <time>2016-06-19T14:45:08Z</time>
      </trkpt>
      <trkpt lat="43.81712" lon="5.0128">
        <ele>75.6</ele>
        <time>2016-06-19T14:45:09Z</time>
      </trkpt>
      <trkpt lat="43.81598" lon="5.01083">
        <ele>77.52</ele>
        <time>2016-06-19T14:45:18Z</time>
      </trkpt>
      <trkpt lat="43.81459" lon="5.00837">
        <ele>78.97</ele>
        <time>2016-06-19T14:45:28Z</time>
      </trkpt>
      <trkpt lat="43.81424" lon="5.00764">
        <ele>78.48</ele>
        <time>2016-06-19T14:45:33Z</time>
      </trkpt>
      <trkpt lat="43.81369" lon="5.00656">
        <ele>78.48</ele>
        <time>2016-06-19T14:45:40Z</time>
      </trkpt>
      <trkpt lat="43.81236" lon="5.00416">
        <ele>77.52</ele>
        <time>2016-06-19T14:45:56Z</time>
      </trkpt>
      <trkpt lat="43.81145" lon="5.00248">
        <ele>77.04</ele>
        <time>2016-06-19T14:46:09Z</time>
      </trkpt>
      <trkpt lat="43.81045" lon="5.00068">
        <ele>76.08</ele>
        <time>2016-06-19T14:46:20Z</time>
      </trkpt>
      <trkpt lat="43.80942" lon="4.99888">
        <ele>75.6</ele>
        <time>2016-06-19T14:46:33Z</time>
      </trkpt>
      <trkpt lat="43.8089" lon="4.99796">
        <ele>76.08</ele>
        <time>2016-06-19T14:46:44Z</time>
      </trkpt>
      <trkpt lat="43.80843" lon="4.99714">
        <ele>76.08</ele>
        <time>2016-06-19T14:46:54Z</time>
      </trkpt>
      <trkpt lat="43.80794" lon="4.99629">
        <ele>75.6</ele>
        <time>2016-06-19T14:47:01Z</time>
      </trkpt>
      <trkpt lat="43.80763" lon="4.99574">
        <ele>74.16</ele>
        <time>2016-06-19T14:47:09Z</time>
      </trkpt>
      <trkpt lat="43.80762" lon="4.99571">
        <ele>73.2</ele>
        <time>2016-06-19T14:47:20Z</time>
      </trkpt>
      <trkpt lat="43.8075" lon="4.9955">
        <ele>73.2</ele>
        <time>2016-06-19T14:47:45Z</time>
      </trkpt>
      <trkpt lat="43.80747" lon="4.99541">
        <ele>73.2</ele>
        <time>2016-06-19T14:47:46Z</time>
      </trkpt>
      <trkpt lat="43.80743" lon="4.99531">
        <ele>73.2</ele>
        <time>2016-06-19T14:47:47Z</time>
      </trkpt>
      <trkpt lat="43.80738" lon="4.99521">
        <ele>73.2</ele>
        <time>2016-06-19T14:47:48Z</time>
      </trkpt>
      <trkpt lat="43.80732" lon="4.99511">
        <ele>73.2</ele>
        <time>2016-06-19T14:47:49Z</time>
      </trkpt>
      <trkpt lat="43.80725" lon="4.99501">
        <ele>72.72</ele>
        <time>2016-06-19T14:47:50Z</time>
      </trkpt>
      <trkpt lat="43.80679" lon="4.99418">
        <ele>72.72</ele>
        <time>2016-06-19T14:47:58Z</time>
      </trkpt>
      <trkpt lat="43.80607" lon="4.99285">
        <ele>71.27</ele>
        <time>2016-06-19T14:48:07Z</time>
      </trkpt>
      <trkpt lat="43.80552" lon="4.9918">
        <ele>72.24</ele>
        <time>2016-06-19T14:48:15Z</time>
      </trkpt>
      <trkpt lat="43.80441" lon="4.98974">
        <ele>71.27</ele>
        <time>2016-06-19T14:48:25Z</time>
      </trkpt>
      <trkpt lat="43.80332" lon="4.98773">
        <ele>71.27</ele>
        <time>2016-06-19T14:48:35Z</time>
      </trkpt>
      <trkpt lat="43.80218" lon="4.98564">
        <ele>71.76</ele>
        <time>2016-06-19T14:48:43Z</time>
      </trkpt>
      <trkpt lat="43.80014" lon="4.98192">
        <ele>73.2</ele>
        <time>2016-06-19T14:48:56Z</time>
      </trkpt>
      <trkpt lat="43.79781" lon="4.97757">
        <ele>71.76</ele>
        <time>2016-06-19T14:49:11Z</time>
      </trkpt>
      <trkpt lat="43.79543" lon="4.97317">
        <ele>67.43</ele>
        <time>2016-06-19T14:49:26Z</time>
      </trkpt>
      <trkpt lat="43.79281" lon="4.96829">
        <ele>64.55</ele>
        <time>2016-06-19T14:49:42Z</time>
      </trkpt>
      <trkpt lat="43.79044" lon="4.96388">
        <ele>62.62</ele>
        <time>2016-06-19T14:49:57Z</time>
      </trkpt>
      <trkpt lat="43.79015" lon="4.96314">
        <ele>62.62</ele>
        <time>2016-06-19T14:50:01Z</time>
      </trkpt>
      <trkpt lat="43.79013" lon="4.96298">
        <ele>63.1</ele>
        <time>2016-06-19T14:50:02Z</time>
      </trkpt>
      <trkpt lat="43.79009" lon="4.96284">
        <ele>63.1</ele>
        <time>2016-06-19T14:50:03Z</time>
      </trkpt>
      <trkpt lat="43.79003" lon="4.96276">
        <ele>63.1</ele>
        <time>2016-06-19T14:50:04Z</time>
      </trkpt>
      <trkpt lat="43.78993" lon="4.96268">
        <ele>63.1</ele>
        <time>2016-06-19T14:50:05Z</time>
      </trkpt>
      <trkpt lat="43.78982" lon="4.96258">
        <ele>63.1</ele>
        <time>2016-06-19T14:50:06Z</time>
      </trkpt>
      <trkpt lat="43.78972" lon="4.96242">
        <ele>62.62</ele>
        <time>2016-06-19T14:50:07Z</time>
      </trkpt>
      <trkpt lat="43.78964" lon="4.96223">
        <ele>62.62</ele>
        <time>2016-06-19T14:50:08Z</time>
      </trkpt>
      <trkpt lat="43.78957" lon="4.96201">
        <ele>62.62</ele>
        <time>2016-06-19T14:50:09Z</time>
      </trkpt>
      <trkpt lat="43.7895" lon="4.96178">
        <ele>62.62</ele>
        <time>2016-06-19T14:50:10Z</time>
      </trkpt>
      <trkpt lat="43.78945" lon="4.96153">
        <ele>62.62</ele>
        <time>2016-06-19T14:50:11Z</time>
      </trkpt>
      <trkpt lat="43.78879" lon="4.95835">
        <ele>62.14</ele>
        <time>2016-06-19T14:50:23Z</time>
      </trkpt>
      <trkpt lat="43.78844" lon="4.95553">
        <ele>62.14</ele>
        <time>2016-06-19T14:50:34Z</time>
      </trkpt>
      <trkpt lat="43.78834" lon="4.95411">
        <ele>63.58</ele>
        <time>2016-06-19T14:50:42Z</time>
      </trkpt>
      <trkpt lat="43.78838" lon="4.95372">
        <ele>64.07</ele>
        <time>2016-06-19T14:50:48Z</time>
      </trkpt>
      <trkpt lat="43.78836" lon="4.95367">
        <ele>64.07</ele>
        <time>2016-06-19T14:50:49Z</time>
      </trkpt>
      <trkpt lat="43.78835" lon="4.95362">
        <ele>64.07</ele>
        <time>2016-06-19T14:50:50Z</time>
      </trkpt>
      <trkpt lat="43.78831" lon="4.95355">
        <ele>63.58</ele>
        <time>2016-06-19T14:50:51Z</time>
      </trkpt>
      <trkpt lat="43.78827" lon="4.95345">
        <ele>63.1</ele>
        <time>2016-06-19T14:50:52Z</time>
      </trkpt>
      <trkpt lat="43.78823" lon="4.95333">
        <ele>63.1</ele>
        <time>2016-06-19T14:50:53Z</time>
      </trkpt>
      <trkpt lat="43.78819" lon="4.9532">
        <ele>62.62</ele>
        <time>2016-06-19T14:50:54Z</time>
      </trkpt>
      <trkpt lat="43.78816" lon="4.95306">
        <ele>62.62</ele>
        <time>2016-06-19T14:50:55Z</time>
      </trkpt>
      <trkpt lat="43.78793" lon="4.9515">
        <ele>63.1</ele>
        <time>2016-06-19T14:51:04Z</time>
      </trkpt>
      <trkpt lat="43.78764" lon="4.94915">
        <ele>63.58</ele>
        <time>2016-06-19T14:51:15Z</time>
      </trkpt>
      <trkpt lat="43.78714" lon="4.94518">
        <ele>63.1</ele>
        <time>2016-06-19T14:51:31Z</time>
      </trkpt>
      <trkpt lat="43.78673" lon="4.94199">
        <ele>61.66</ele>
        <time>2016-06-19T14:51:42Z</time>
      </trkpt>
      <trkpt lat="43.78639" lon="4.9392">
        <ele>61.66</ele>
        <time>2016-06-19T14:51:49Z</time>
      </trkpt>
      <trkpt lat="43.78597" lon="4.93573">
        <ele>60.7</ele>
        <time>2016-06-19T14:51:59Z</time>
      </trkpt>
      <trkpt lat="43.78549" lon="4.93198">
        <ele>61.66</ele>
        <time>2016-06-19T14:52:10Z</time>
      </trkpt>
      <trkpt lat="43.78534" lon="4.92921">
        <ele>62.14</ele>
        <time>2016-06-19T14:52:18Z</time>
      </trkpt>
      <trkpt lat="43.78528" lon="4.92608">
        <ele>63.58</ele>
        <time>2016-06-19T14:52:28Z</time>
      </trkpt>
      <trkpt lat="43.78523" lon="4.92365">
        <ele>64.55</ele>
        <time>2016-06-19T14:52:37Z</time>
      </trkpt>
      <trkpt lat="43.78516" lon="4.92046">
        <ele>63.58</ele>
        <time>2016-06-19T14:52:47Z</time>
      </trkpt>
      <trkpt lat="43.78508" lon="4.91556">
        <ele>64.55</ele>
        <time>2016-06-19T14:53:01Z</time>
      </trkpt>
      <trkpt lat="43.78489" lon="4.91087">
        <ele>67.91</ele>
        <time>2016-06-19T14:53:15Z</time>
      </trkpt>
      <trkpt lat="43.78443" lon="4.90851">
        <ele>67.91</ele>
        <time>2016-06-19T14:53:22Z</time>
      </trkpt>
      <trkpt lat="43.78442" lon="4.9056">
        <ele>67.43</ele>
        <time>2016-06-19T14:53:30Z</time>
      </trkpt>
      <trkpt lat="43.78444" lon="4.9014">
        <ele>65.51</ele>
        <time>2016-06-19T14:53:42Z</time>
      </trkpt>
      <trkpt lat="43.78445" lon="4.89684">
        <ele>64.07</ele>
        <time>2016-06-19T14:53:55Z</time>
      </trkpt>
      <trkpt lat="43.78447" lon="4.89237">
        <ele>65.03</ele>
        <time>2016-06-19T14:54:08Z</time>
      </trkpt>
      <trkpt lat="43.78447" lon="4.88859">
        <ele>62.14</ele>
        <time>2016-06-19T14:54:19Z</time>
      </trkpt>
      <trkpt lat="43.78448" lon="4.88498">
        <ele>65.51</ele>
        <time>2016-06-19T14:54:30Z</time>
      </trkpt>
      <trkpt lat="43.78447" lon="4.8823">
        <ele>67.91</ele>
        <time>2016-06-19T14:54:40Z</time>
      </trkpt>
      <trkpt lat="43.78448" lon="4.8795">
        <ele>68.39</ele>
        <time>2016-06-19T14:54:51Z</time>
      </trkpt>
      <trkpt lat="43.78449" lon="4.87725">
        <ele>66.47</ele>
        <time>2016-06-19T14:54:57Z</time>
      </trkpt>
      <trkpt lat="43.7845" lon="4.87494">
        <ele>68.87</ele>
        <time>2016-06-19T14:55:04Z</time>
      </trkpt>
      <trkpt lat="43.78472" lon="4.87264">
        <ele>70.31</ele>
        <time>2016-06-19T14:55:12Z</time>
      </trkpt>
      <trkpt lat="43.78504" lon="4.86979">
        <ele>70.79</ele>
        <time>2016-06-19T14:55:22Z</time>
      </trkpt>
      <trkpt lat="43.78547" lon="4.86555">
        <ele>70.79</ele>
        <time>2016-06-19T14:55:37Z</time>
      </trkpt>
      <trkpt lat="43.78576" lon="4.86287">
        <ele>73.2</ele>
        <time>2016-06-19T14:55:47Z</time>
      </trkpt>
      <trkpt lat="43.78598" lon="4.86077">
        <ele>73.2</ele>
        <time>2016-06-19T14:55:57Z</time>
      </trkpt>
      <trkpt lat="43.78628" lon="4.85778">
        <ele>69.83</ele>
        <time>2016-06-19T14:56:09Z</time>
      </trkpt>
      <trkpt lat="43.78668" lon="4.85496">
        <ele>69.83</ele>
        <time>2016-06-19T14:56:20Z</time>
      </trkpt>
      <trkpt lat="43.78708" lon="4.85303">
        <ele>69.83</ele>
        <time>2016-06-19T14:56:30Z</time>
      </trkpt>
      <trkpt lat="43.78721" lon="4.85245">
        <ele>69.83</ele>
        <time>2016-06-19T14:56:35Z</time>
      </trkpt>
      <trkpt lat="43.78722" lon="4.85237">
        <ele>69.83</ele>
        <time>2016-06-19T14:56:36Z</time>
      </trkpt>
      <trkpt lat="43.78721" lon="4.85229">
        <ele>69.83</ele>
        <time>2016-06-19T14:56:37Z</time>
      </trkpt>
      <trkpt lat="43.78717" lon="4.85223">
        <ele>69.83</ele>
        <time>2016-06-19T14:56:38Z</time>
      </trkpt>
      <trkpt lat="43.78713" lon="4.85217">
        <ele>69.83</ele>
        <time>2016-06-19T14:56:39Z</time>
      </trkpt>
      <trkpt lat="43.78709" lon="4.8521">
        <ele>69.35</ele>
        <time>2016-06-19T14:56:40Z</time>
      </trkpt>
      <trkpt lat="43.78705" lon="4.85202">
        <ele>69.35</ele>
        <time>2016-06-19T14:56:41Z</time>
      </trkpt>
      <trkpt lat="43.78703" lon="4.85193">
        <ele>69.35</ele>
        <time>2016-06-19T14:56:42Z</time>
      </trkpt>
      <trkpt lat="43.78701" lon="4.85183">
        <ele>69.35</ele>
        <time>2016-06-19T14:56:43Z</time>
      </trkpt>
      <trkpt lat="43.787" lon="4.85158">
        <ele>70.31</ele>
        <time>2016-06-19T14:56:45Z</time>
      </trkpt>
      <trkpt lat="43.78711" lon="4.85026">
        <ele>66.95</ele>
        <time>2016-06-19T14:56:53Z</time>
      </trkpt>
      <trkpt lat="43.78734" lon="4.84802">
        <ele>66.95</ele>
        <time>2016-06-19T14:57:05Z</time>
      </trkpt>
      <trkpt lat="43.78765" lon="4.84503">
        <ele>63.58</ele>
        <time>2016-06-19T14:57:19Z</time>
      </trkpt>
      <trkpt lat="43.78792" lon="4.84249">
        <ele>64.55</ele>
        <time>2016-06-19T14:57:31Z</time>
      </trkpt>
      <trkpt lat="43.78803" lon="4.84138">
        <ele>65.51</ele>
        <time>2016-06-19T14:57:40Z</time>
      </trkpt>
      <trkpt lat="43.78809" lon="4.84088">
        <ele>64.55</ele>
        <time>2016-06-19T14:57:45Z</time>
      </trkpt>
      <trkpt lat="43.78811" lon="4.84075">
        <ele>63.58</ele>
        <time>2016-06-19T14:57:46Z</time>
      </trkpt>
      <trkpt lat="43.78823" lon="4.83968">
        <ele>62.62</ele>
        <time>2016-06-19T14:57:55Z</time>
      </trkpt>
      <trkpt lat="43.78827" lon="4.83933">
        <ele>61.66</ele>
        <time>2016-06-19T14:57:59Z</time>
      </trkpt>
      <trkpt lat="43.78832" lon="4.83894">
        <ele>60.7</ele>
        <time>2016-06-19T14:58:03Z</time>
      </trkpt>
      <trkpt lat="43.78845" lon="4.83772">
        <ele>59.74</ele>
        <time>2016-06-19T14:58:15Z</time>
      </trkpt>
      <trkpt lat="43.78846" lon="4.83764">
        <ele>60.22</ele>
        <time>2016-06-19T14:58:16Z</time>
      </trkpt>
      <trkpt lat="43.78846" lon="4.83757">
        <ele>60.7</ele>
        <time>2016-06-19T14:58:17Z</time>
      </trkpt>
      <trkpt lat="43.78847" lon="4.83749">
        <ele>61.18</ele>
        <time>2016-06-19T14:58:18Z</time>
      </trkpt>
      <trkpt lat="43.78854" lon="4.8369">
        <ele>59.26</ele>
        <time>2016-06-19T14:58:25Z</time>
      </trkpt>
      <trkpt lat="43.78861" lon="4.83643">
        <ele>59.74</ele>
        <time>2016-06-19T14:58:30Z</time>
      </trkpt>
      <trkpt lat="43.78864" lon="4.83634">
        <ele>60.22</ele>
        <time>2016-06-19T14:58:31Z</time>
      </trkpt>
      <trkpt lat="43.78876" lon="4.835">
        <ele>61.18</ele>
        <time>2016-06-19T14:58:47Z</time>
      </trkpt>
      <trkpt lat="43.78881" lon="4.83462">
        <ele>59.74</ele>
        <time>2016-06-19T14:58:53Z</time>
      </trkpt>
      <trkpt lat="43.78882" lon="4.83454">
        <ele>59.74</ele>
        <time>2016-06-19T14:58:54Z</time>
      </trkpt>
      <trkpt lat="43.78899" lon="4.83373">
        <ele>60.7</ele>
        <time>2016-06-19T14:59:07Z</time>
      </trkpt>
      <trkpt lat="43.78905" lon="4.83358">
        <ele>64.07</ele>
        <time>2016-06-19T14:59:21Z</time>
      </trkpt>
      <trkpt lat="43.78907" lon="4.8336">
        <ele>63.1</ele>
        <time>2016-06-19T14:59:33Z</time>
      </trkpt>
      <trkpt lat="43.78918" lon="4.83355">
        <ele>64.55</ele>
        <time>2016-06-19T14:59:45Z</time>
      </trkpt>
      <trkpt lat="43.78923" lon="4.83354">
        <ele>64.07</ele>
        <time>2016-06-19T14:59:46Z</time>
      </trkpt>
      <trkpt lat="43.78985" lon="4.8334">
        <ele>67.91</ele>
        <time>2016-06-19T14:59:58Z</time>
      </trkpt>
      <trkpt lat="43.78999" lon="4.83338">
        <ele>66.95</ele>
        <time>2016-06-19T15:00:00Z</time>
      </trkpt>
      <trkpt lat="43.79006" lon="4.83335">
        <ele>65.99</ele>
        <time>2016-06-19T15:00:01Z</time>
      </trkpt>
      <trkpt lat="43.79013" lon="4.83333">
        <ele>65.51</ele>
        <time>2016-06-19T15:00:02Z</time>
      </trkpt>
      <trkpt lat="43.79018" lon="4.83329">
        <ele>64.55</ele>
        <time>2016-06-19T15:00:03Z</time>
      </trkpt>
      <trkpt lat="43.79022" lon="4.83324">
        <ele>64.07</ele>
        <time>2016-06-19T15:00:04Z</time>
      </trkpt>
      <trkpt lat="43.79024" lon="4.83317">
        <ele>64.07</ele>
        <time>2016-06-19T15:00:05Z</time>
      </trkpt>
      <trkpt lat="43.79026" lon="4.83308">
        <ele>63.1</ele>
        <time>2016-06-19T15:00:06Z</time>
      </trkpt>
      <trkpt lat="43.7903" lon="4.83286">
        <ele>60.7</ele>
        <time>2016-06-19T15:00:09Z</time>
      </trkpt>
      <trkpt lat="43.79032" lon="4.83279">
        <ele>60.22</ele>
        <time>2016-06-19T15:00:10Z</time>
      </trkpt>
      <trkpt lat="43.79046" lon="4.83245">
        <ele>57.34</ele>
        <time>2016-06-19T15:00:15Z</time>
      </trkpt>
      <trkpt lat="43.79047" lon="4.83227">
        <ele>54.93</ele>
        <time>2016-06-19T15:00:21Z</time>
      </trkpt>
      <trkpt lat="43.79045" lon="4.83222">
        <ele>53.01</ele>
        <time>2016-06-19T15:00:23Z</time>
      </trkpt>
      <trkpt lat="43.79045" lon="4.83219">
        <ele>52.05</ele>
        <time>2016-06-19T15:00:24Z</time>
      </trkpt>
      <trkpt lat="43.79042" lon="4.8316">
        <ele>43.88</ele>
        <time>2016-06-19T15:00:35Z</time>
      </trkpt>
      <trkpt lat="43.78798" lon="4.83017">
        <ele>68.87</ele>
        <time>2016-06-19T15:56:25Z</time>
      </trkpt>
      <trkpt lat="43.78798" lon="4.83019">
        <ele>70.31</ele>
        <time>2016-06-19T15:57:22Z</time>
      </trkpt>
      <trkpt lat="43.78797" lon="4.83016">
        <ele>72.72</ele>
        <time>2016-06-19T15:59:29Z</time>
      </trkpt>
      <trkpt lat="43.78797" lon="4.83013">
        <ele>69.35</ele>
        <time>2016-06-19T16:00:23Z</time>
      </trkpt>
      <trkpt lat="43.788" lon="4.83009">
        <ele>68.87</ele>
        <time>2016-06-19T16:00:29Z</time>
      </trkpt>
      <trkpt lat="43.78805" lon="4.83018">
        <ele>63.1</ele>
        <time>2016-06-19T16:00:43Z</time>
      </trkpt>
      <trkpt lat="43.78805" lon="4.83019">
        <ele>61.66</ele>
        <time>2016-06-19T16:00:45Z</time>
      </trkpt>
      <trkpt lat="43.78794" lon="4.83022">
        <ele>67.43</ele>
        <time>2016-06-19T16:00:56Z</time>
      </trkpt>
      <trkpt lat="43.78793" lon="4.8302">
        <ele>66.95</ele>
        <time>2016-06-19T16:01:27Z</time>
      </trkpt>
      <trkpt lat="43.78791" lon="4.83018">
        <ele>66.47</ele>
        <time>2016-06-19T16:01:58Z</time>
      </trkpt>
      <trkpt lat="43.78775" lon="4.83027">
        <ele>67.91</ele>
        <time>2016-06-19T16:02:10Z</time>
      </trkpt>
      <trkpt lat="43.78775" lon="4.83028">
        <ele>68.39</ele>
        <time>2016-06-19T16:02:15Z</time>
      </trkpt>
      <trkpt lat="43.78756" lon="4.83066">
        <ele>69.35</ele>
        <time>2016-06-19T16:02:24Z</time>
      </trkpt>
      <trkpt lat="43.7875" lon="4.83104">
        <ele>69.83</ele>
        <time>2016-06-19T16:02:29Z</time>
      </trkpt>
      <trkpt lat="43.78749" lon="4.83119">
        <ele>70.31</ele>
        <time>2016-06-19T16:02:31Z</time>
      </trkpt>
      <trkpt lat="43.78756" lon="4.83197">
        <ele>71.76</ele>
        <time>2016-06-19T16:02:41Z</time>
      </trkpt>
      <trkpt lat="43.78758" lon="4.83203">
        <ele>71.27</ele>
        <time>2016-06-19T16:02:42Z</time>
      </trkpt>
      <trkpt lat="43.78761" lon="4.83208">
        <ele>70.79</ele>
        <time>2016-06-19T16:02:43Z</time>
      </trkpt>
      <trkpt lat="43.78764" lon="4.83213">
        <ele>70.31</ele>
        <time>2016-06-19T16:02:44Z</time>
      </trkpt>
      <trkpt lat="43.78768" lon="4.83218">
        <ele>69.83</ele>
        <time>2016-06-19T16:02:45Z</time>
      </trkpt>
      <trkpt lat="43.78779" lon="4.83234">
        <ele>72.72</ele>
        <time>2016-06-19T16:02:53Z</time>
      </trkpt>
      <trkpt lat="43.7879" lon="4.83251">
        <ele>66.95</ele>
        <time>2016-06-19T16:03:00Z</time>
      </trkpt>
      <trkpt lat="43.78798" lon="4.83262">
        <ele>67.43</ele>
        <time>2016-06-19T16:03:03Z</time>
      </trkpt>
      <trkpt lat="43.78801" lon="4.83267">
        <ele>67.43</ele>
        <time>2016-06-19T16:03:04Z</time>
      </trkpt>
      <trkpt lat="43.78807" lon="4.83277">
        <ele>66.95</ele>
        <time>2016-06-19T16:03:06Z</time>
      </trkpt>
      <trkpt lat="43.78823" lon="4.83292">
        <ele>65.51</ele>
        <time>2016-06-19T16:03:13Z</time>
      </trkpt>
      <trkpt lat="43.78846" lon="4.83311">
        <ele>65.99</ele>
        <time>2016-06-19T16:03:19Z</time>
      </trkpt>
      <trkpt lat="43.78871" lon="4.8333">
        <ele>66.47</ele>
        <time>2016-06-19T16:03:25Z</time>
      </trkpt>
      <trkpt lat="43.78875" lon="4.83333">
        <ele>65.99</ele>
        <time>2016-06-19T16:03:26Z</time>
      </trkpt>
      <trkpt lat="43.78879" lon="4.83336">
        <ele>68.39</ele>
        <time>2016-06-19T16:03:27Z</time>
      </trkpt>
      <trkpt lat="43.78889" lon="4.83342">
        <ele>71.27</ele>
        <time>2016-06-19T16:03:34Z</time>
      </trkpt>
      <trkpt lat="43.78892" lon="4.83346">
        <ele>70.31</ele>
        <time>2016-06-19T16:03:35Z</time>
      </trkpt>
      <trkpt lat="43.78898" lon="4.8335">
        <ele>66.47</ele>
        <time>2016-06-19T16:03:42Z</time>
      </trkpt>
      <trkpt lat="43.78904" lon="4.83353">
        <ele>65.51</ele>
        <time>2016-06-19T16:03:44Z</time>
      </trkpt>
      <trkpt lat="43.78909" lon="4.83353">
        <ele>65.03</ele>
        <time>2016-06-19T16:03:45Z</time>
      </trkpt>
      <trkpt lat="43.78917" lon="4.83353">
        <ele>63.58</ele>
        <time>2016-06-19T16:03:46Z</time>
      </trkpt>
      <trkpt lat="43.79003" lon="4.83342">
        <ele>61.18</ele>
        <time>2016-06-19T16:03:56Z</time>
      </trkpt>
      <trkpt lat="43.79011" lon="4.83339">
        <ele>61.18</ele>
        <time>2016-06-19T16:03:57Z</time>
      </trkpt>
      <trkpt lat="43.79017" lon="4.83334">
        <ele>59.74</ele>
        <time>2016-06-19T16:03:58Z</time>
      </trkpt>
      <trkpt lat="43.79023" lon="4.83326">
        <ele>58.3</ele>
        <time>2016-06-19T16:03:59Z</time>
      </trkpt>
      <trkpt lat="43.79026" lon="4.83315">
        <ele>59.74</ele>
        <time>2016-06-19T16:04:00Z</time>
      </trkpt>
      <trkpt lat="43.79029" lon="4.83301">
        <ele>59.74</ele>
        <time>2016-06-19T16:04:01Z</time>
      </trkpt>
      <trkpt lat="43.79032" lon="4.83289">
        <ele>59.26</ele>
        <time>2016-06-19T16:04:02Z</time>
      </trkpt>
      <trkpt lat="43.79034" lon="4.83276">
        <ele>57.82</ele>
        <time>2016-06-19T16:04:03Z</time>
      </trkpt>
      <trkpt lat="43.79041" lon="4.83234">
        <ele>55.89</ele>
        <time>2016-06-19T16:04:06Z</time>
      </trkpt>
      <trkpt lat="43.7904" lon="4.83221">
        <ele>55.41</ele>
        <time>2016-06-19T16:04:07Z</time>
      </trkpt>
      <trkpt lat="43.79039" lon="4.83207">
        <ele>54.93</ele>
        <time>2016-06-19T16:04:08Z</time>
      </trkpt>
      <trkpt lat="43.79028" lon="4.83058">
        <ele>53.97</ele>
        <time>2016-06-19T16:04:19Z</time>
      </trkpt>
      <trkpt lat="43.79026" lon="4.83046">
        <ele>53.97</ele>
        <time>2016-06-19T16:04:20Z</time>
      </trkpt>
      <trkpt lat="43.7902" lon="4.83037">
        <ele>53.01</ele>
        <time>2016-06-19T16:04:21Z</time>
      </trkpt>
      <trkpt lat="43.79013" lon="4.8303">
        <ele>53.01</ele>
        <time>2016-06-19T16:04:22Z</time>
      </trkpt>
      <trkpt lat="43.79005" lon="4.83025">
        <ele>53.49</ele>
        <time>2016-06-19T16:04:23Z</time>
      </trkpt>
      <trkpt lat="43.78994" lon="4.83026">
        <ele>53.97</ele>
        <time>2016-06-19T16:04:24Z</time>
      </trkpt>
      <trkpt lat="43.78984" lon="4.83026">
        <ele>54.45</ele>
        <time>2016-06-19T16:04:25Z</time>
      </trkpt>
      <trkpt lat="43.7888" lon="4.83011">
        <ele>62.14</ele>
        <time>2016-06-19T16:04:37Z</time>
      </trkpt>
      <trkpt lat="43.78874" lon="4.83008">
        <ele>62.14</ele>
        <time>2016-06-19T16:04:38Z</time>
      </trkpt>
      <trkpt lat="43.7887" lon="4.83005">
        <ele>62.62</ele>
        <time>2016-06-19T16:04:39Z</time>
      </trkpt>
      <trkpt lat="43.78868" lon="4.83003">
        <ele>63.1</ele>
        <time>2016-06-19T16:04:40Z</time>
      </trkpt>
      <trkpt lat="43.78867" lon="4.83">
        <ele>63.1</ele>
        <time>2016-06-19T16:04:41Z</time>
      </trkpt>
      <trkpt lat="43.78866" lon="4.82997">
        <ele>63.1</ele>
        <time>2016-06-19T16:04:42Z</time>
      </trkpt>
      <trkpt lat="43.78865" lon="4.82992">
        <ele>63.58</ele>
        <time>2016-06-19T16:04:43Z</time>
      </trkpt>
      <trkpt lat="43.78865" lon="4.82985">
        <ele>63.58</ele>
        <time>2016-06-19T16:04:44Z</time>
      </trkpt>
      <trkpt lat="43.78866" lon="4.82977">
        <ele>63.1</ele>
        <time>2016-06-19T16:04:45Z</time>
      </trkpt>
      <trkpt lat="43.78867" lon="4.82969">
        <ele>63.1</ele>
        <time>2016-06-19T16:04:46Z</time>
      </trkpt>
      <trkpt lat="43.78883" lon="4.82839">
        <ele>63.1</ele>
        <time>2016-06-19T16:04:59Z</time>
      </trkpt>
      <trkpt lat="43.78905" lon="4.82701">
        <ele>61.18</ele>
        <time>2016-06-19T16:05:11Z</time>
      </trkpt>
      <trkpt lat="43.78953" lon="4.8253">
        <ele>59.74</ele>
        <time>2016-06-19T16:05:23Z</time>
      </trkpt>
      <trkpt lat="43.78993" lon="4.82387">
        <ele>56.86</ele>
        <time>2016-06-19T16:05:33Z</time>
      </trkpt>
      <trkpt lat="43.79062" lon="4.82147">
        <ele>52.05</ele>
        <time>2016-06-19T16:05:46Z</time>
      </trkpt>
      <trkpt lat="43.79139" lon="4.81874">
        <ele>46.76</ele>
        <time>2016-06-19T16:05:59Z</time>
      </trkpt>
      <trkpt lat="43.79255" lon="4.81469">
        <ele>41.95</ele>
        <time>2016-06-19T16:06:17Z</time>
      </trkpt>
      <trkpt lat="43.79328" lon="4.81291">
        <ele>38.59</ele>
        <time>2016-06-19T16:06:25Z</time>
      </trkpt>
      <trkpt lat="43.79401" lon="4.81159">
        <ele>34.74</ele>
        <time>2016-06-19T16:06:33Z</time>
      </trkpt>
      <trkpt lat="43.79407" lon="4.81151">
        <ele>34.26</ele>
        <time>2016-06-19T16:06:34Z</time>
      </trkpt>
      <trkpt lat="43.79413" lon="4.81146">
        <ele>34.26</ele>
        <time>2016-06-19T16:06:35Z</time>
      </trkpt>
      <trkpt lat="43.79418" lon="4.81143">
        <ele>34.26</ele>
        <time>2016-06-19T16:06:36Z</time>
      </trkpt>
      <trkpt lat="43.7943" lon="4.81141">
        <ele>35.23</ele>
        <time>2016-06-19T16:06:43Z</time>
      </trkpt>
      <trkpt lat="43.79433" lon="4.81136">
        <ele>32.82</ele>
        <time>2016-06-19T16:07:24Z</time>
      </trkpt>
      <trkpt lat="43.79436" lon="4.81126">
        <ele>32.34</ele>
        <time>2016-06-19T16:07:25Z</time>
      </trkpt>
      <trkpt lat="43.79438" lon="4.8111">
        <ele>31.86</ele>
        <time>2016-06-19T16:07:26Z</time>
      </trkpt>
      <trkpt lat="43.79443" lon="4.80994">
        <ele>31.38</ele>
        <time>2016-06-19T16:07:31Z</time>
      </trkpt>
      <trkpt lat="43.79491" lon="4.80724">
        <ele>30.42</ele>
        <time>2016-06-19T16:07:41Z</time>
      </trkpt>
      <trkpt lat="43.79557" lon="4.80512">
        <ele>29.46</ele>
        <time>2016-06-19T16:07:49Z</time>
      </trkpt>
      <trkpt lat="43.79665" lon="4.8022">
        <ele>25.61</ele>
        <time>2016-06-19T16:08:00Z</time>
      </trkpt>
      <trkpt lat="43.79724" lon="4.80008">
        <ele>23.69</ele>
        <time>2016-06-19T16:08:09Z</time>
      </trkpt>
      <trkpt lat="43.79744" lon="4.79868">
        <ele>22.73</ele>
        <time>2016-06-19T16:08:15Z</time>
      </trkpt>
      <trkpt lat="43.79742" lon="4.79844">
        <ele>22.25</ele>
        <time>2016-06-19T16:08:16Z</time>
      </trkpt>
      <trkpt lat="43.7974" lon="4.79819">
        <ele>22.73</ele>
        <time>2016-06-19T16:08:17Z</time>
      </trkpt>
      <trkpt lat="43.79736" lon="4.79796">
        <ele>22.73</ele>
        <time>2016-06-19T16:08:18Z</time>
      </trkpt>
      <trkpt lat="43.79731" lon="4.79772">
        <ele>22.73</ele>
        <time>2016-06-19T16:08:19Z</time>
      </trkpt>
      <trkpt lat="43.79688" lon="4.79559">
        <ele>19.84</ele>
        <time>2016-06-19T16:08:28Z</time>
      </trkpt>
      <trkpt lat="43.79655" lon="4.79387">
        <ele>16.96</ele>
        <time>2016-06-19T16:08:38Z</time>
      </trkpt>
      <trkpt lat="43.79645" lon="4.79343">
        <ele>17.44</ele>
        <time>2016-06-19T16:08:44Z</time>
      </trkpt>
      <trkpt lat="43.79628" lon="4.79251">
        <ele>19.36</ele>
        <time>2016-06-19T16:08:51Z</time>
      </trkpt>
      <trkpt lat="43.79595" lon="4.79074">
        <ele>22.73</ele>
        <time>2016-06-19T16:09:00Z</time>
      </trkpt>
      <trkpt lat="43.79548" lon="4.78805">
        <ele>26.57</ele>
        <time>2016-06-19T16:09:12Z</time>
      </trkpt>
      <trkpt lat="43.79497" lon="4.78551">
        <ele>27.05</ele>
        <time>2016-06-19T16:09:22Z</time>
      </trkpt>
      <trkpt lat="43.79441" lon="4.78249">
        <ele>28.98</ele>
        <time>2016-06-19T16:09:32Z</time>
      </trkpt>
      <trkpt lat="43.79388" lon="4.77971">
        <ele>30.42</ele>
        <time>2016-06-19T16:09:40Z</time>
      </trkpt>
      <trkpt lat="43.79336" lon="4.77713">
        <ele>26.57</ele>
        <time>2016-06-19T16:09:47Z</time>
      </trkpt>
      <trkpt lat="43.79261" lon="4.77337">
        <ele>19.84</ele>
        <time>2016-06-19T16:09:58Z</time>
      </trkpt>
      <trkpt lat="43.79187" lon="4.76977">
        <ele>19.84</ele>
        <time>2016-06-19T16:10:09Z</time>
      </trkpt>
      <trkpt lat="43.79134" lon="4.7672">
        <ele>20.32</ele>
        <time>2016-06-19T16:10:18Z</time>
      </trkpt>
      <trkpt lat="43.79061" lon="4.76419">
        <ele>20.81</ele>
        <time>2016-06-19T16:10:31Z</time>
      </trkpt>
      <trkpt lat="43.78975" lon="4.7611">
        <ele>19.36</ele>
        <time>2016-06-19T16:10:46Z</time>
      </trkpt>
      <trkpt lat="43.78955" lon="4.76015">
        <ele>17.92</ele>
        <time>2016-06-19T16:10:53Z</time>
      </trkpt>
      <trkpt lat="43.78956" lon="4.76005">
        <ele>17.44</ele>
        <time>2016-06-19T16:10:54Z</time>
      </trkpt>
      <trkpt lat="43.78956" lon="4.75995">
        <ele>16.96</ele>
        <time>2016-06-19T16:10:55Z</time>
      </trkpt>
      <trkpt lat="43.78955" lon="4.75985">
        <ele>16.96</ele>
        <time>2016-06-19T16:10:56Z</time>
      </trkpt>
      <trkpt lat="43.78951" lon="4.75979">
        <ele>16</ele>
        <time>2016-06-19T16:10:57Z</time>
      </trkpt>
      <trkpt lat="43.78946" lon="4.75974">
        <ele>16</ele>
        <time>2016-06-19T16:10:58Z</time>
      </trkpt>
      <trkpt lat="43.7894" lon="4.75968">
        <ele>15.52</ele>
        <time>2016-06-19T16:10:59Z</time>
      </trkpt>
      <trkpt lat="43.78934" lon="4.7596">
        <ele>15.52</ele>
        <time>2016-06-19T16:11:00Z</time>
      </trkpt>
      <trkpt lat="43.78929" lon="4.7595">
        <ele>15.52</ele>
        <time>2016-06-19T16:11:01Z</time>
      </trkpt>
      <trkpt lat="43.78924" lon="4.75937">
        <ele>15.52</ele>
        <time>2016-06-19T16:11:02Z</time>
      </trkpt>
      <trkpt lat="43.7892" lon="4.75923">
        <ele>15.52</ele>
        <time>2016-06-19T16:11:03Z</time>
      </trkpt>
      <trkpt lat="43.78869" lon="4.75739">
        <ele>16.96</ele>
        <time>2016-06-19T16:11:15Z</time>
      </trkpt>
      <trkpt lat="43.78841" lon="4.75658">
        <ele>17.92</ele>
        <time>2016-06-19T16:11:20Z</time>
      </trkpt>
      <trkpt lat="43.78771" lon="4.75495">
        <ele>19.36</ele>
        <time>2016-06-19T16:11:30Z</time>
      </trkpt>
      <trkpt lat="43.78694" lon="4.75276">
        <ele>19.36</ele>
        <time>2016-06-19T16:11:41Z</time>
      </trkpt>
      <trkpt lat="43.78627" lon="4.75005">
        <ele>18.88</ele>
        <time>2016-06-19T16:11:53Z</time>
      </trkpt>
      <trkpt lat="43.78622" lon="4.74798">
        <ele>19.84</ele>
        <time>2016-06-19T16:12:01Z</time>
      </trkpt>
      <trkpt lat="43.78625" lon="4.74594">
        <ele>20.81</ele>
        <time>2016-06-19T16:12:08Z</time>
      </trkpt>
      <trkpt lat="43.78615" lon="4.74567">
        <ele>20.32</ele>
        <time>2016-06-19T16:12:09Z</time>
      </trkpt>
      <trkpt lat="43.78603" lon="4.7454">
        <ele>20.32</ele>
        <time>2016-06-19T16:12:10Z</time>
      </trkpt>
      <trkpt lat="43.78493" lon="4.74238">
        <ele>17.44</ele>
        <time>2016-06-19T16:12:21Z</time>
      </trkpt>
      <trkpt lat="43.78357" lon="4.73901">
        <ele>16.96</ele>
        <time>2016-06-19T16:12:34Z</time>
      </trkpt>
      <trkpt lat="43.78305" lon="4.73706">
        <ele>14.56</ele>
        <time>2016-06-19T16:12:41Z</time>
      </trkpt>
      <trkpt lat="43.78253" lon="4.7354">
        <ele>13.6</ele>
        <time>2016-06-19T16:12:48Z</time>
      </trkpt>
      <trkpt lat="43.78182" lon="4.734">
        <ele>13.12</ele>
        <time>2016-06-19T16:12:55Z</time>
      </trkpt>
      <trkpt lat="43.78164" lon="4.73256">
        <ele>15.04</ele>
        <time>2016-06-19T16:13:02Z</time>
      </trkpt>
      <trkpt lat="43.78153" lon="4.73117">
        <ele>15.52</ele>
        <time>2016-06-19T16:13:10Z</time>
      </trkpt>
      <trkpt lat="43.78154" lon="4.73082">
        <ele>15.52</ele>
        <time>2016-06-19T16:13:13Z</time>
      </trkpt>
      <trkpt lat="43.78152" lon="4.73074">
        <ele>15.52</ele>
        <time>2016-06-19T16:13:14Z</time>
      </trkpt>
      <trkpt lat="43.78148" lon="4.73066">
        <ele>16</ele>
        <time>2016-06-19T16:13:15Z</time>
      </trkpt>
      <trkpt lat="43.78144" lon="4.73057">
        <ele>16</ele>
        <time>2016-06-19T16:13:16Z</time>
      </trkpt>
      <trkpt lat="43.7814" lon="4.73046">
        <ele>16.48</ele>
        <time>2016-06-19T16:13:17Z</time>
      </trkpt>
      <trkpt lat="43.78136" lon="4.73033">
        <ele>16.48</ele>
        <time>2016-06-19T16:13:18Z</time>
      </trkpt>
      <trkpt lat="43.78133" lon="4.73018">
        <ele>16.96</ele>
        <time>2016-06-19T16:13:19Z</time>
      </trkpt>
      <trkpt lat="43.78114" lon="4.72821">
        <ele>20.81</ele>
        <time>2016-06-19T16:13:31Z</time>
      </trkpt>
      <trkpt lat="43.78121" lon="4.72651">
        <ele>24.17</ele>
        <time>2016-06-19T16:13:42Z</time>
      </trkpt>
      <trkpt lat="43.78121" lon="4.72569">
        <ele>22.73</ele>
        <time>2016-06-19T16:13:49Z</time>
      </trkpt>
      <trkpt lat="43.78119" lon="4.72557">
        <ele>22.73</ele>
        <time>2016-06-19T16:13:50Z</time>
      </trkpt>
      <trkpt lat="43.78084" lon="4.72392">
        <ele>18.88</ele>
        <time>2016-06-19T16:14:03Z</time>
      </trkpt>
      <trkpt lat="43.7804" lon="4.7224">
        <ele>18.88</ele>
        <time>2016-06-19T16:14:15Z</time>
      </trkpt>
      <trkpt lat="43.78031" lon="4.72214">
        <ele>17.92</ele>
        <time>2016-06-19T16:14:17Z</time>
      </trkpt>
      <trkpt lat="43.78025" lon="4.72203">
        <ele>17.92</ele>
        <time>2016-06-19T16:14:18Z</time>
      </trkpt>
      <trkpt lat="43.78016" lon="4.72194">
        <ele>17.92</ele>
        <time>2016-06-19T16:14:19Z</time>
      </trkpt>
      <trkpt lat="43.78007" lon="4.72187">
        <ele>17.44</ele>
        <time>2016-06-19T16:14:20Z</time>
      </trkpt>
      <trkpt lat="43.77999" lon="4.7218">
        <ele>17.44</ele>
        <time>2016-06-19T16:14:21Z</time>
      </trkpt>
      <trkpt lat="43.77972" lon="4.72159">
        <ele>17.44</ele>
        <time>2016-06-19T16:14:27Z</time>
      </trkpt>
      <trkpt lat="43.77906" lon="4.72096">
        <ele>17.44</ele>
        <time>2016-06-19T16:14:36Z</time>
      </trkpt>
      <trkpt lat="43.77899" lon="4.72084">
        <ele>17.44</ele>
        <time>2016-06-19T16:14:37Z</time>
      </trkpt>
      <trkpt lat="43.77892" lon="4.7207">
        <ele>17.44</ele>
        <time>2016-06-19T16:14:38Z</time>
      </trkpt>
      <trkpt lat="43.77886" lon="4.72055">
        <ele>17.92</ele>
        <time>2016-06-19T16:14:39Z</time>
      </trkpt>
      <trkpt lat="43.77881" lon="4.72039">
        <ele>17.92</ele>
        <time>2016-06-19T16:14:40Z</time>
      </trkpt>
      <trkpt lat="43.77877" lon="4.72022">
        <ele>18.4</ele>
        <time>2016-06-19T16:14:41Z</time>
      </trkpt>
      <trkpt lat="43.77874" lon="4.72004">
        <ele>18.4</ele>
        <time>2016-06-19T16:14:42Z</time>
      </trkpt>
      <trkpt lat="43.77872" lon="4.71986">
        <ele>18.88</ele>
        <time>2016-06-19T16:14:43Z</time>
      </trkpt>
      <trkpt lat="43.77859" lon="4.71794">
        <ele>19.84</ele>
        <time>2016-06-19T16:14:51Z</time>
      </trkpt>
      <trkpt lat="43.7782" lon="4.71488">
        <ele>19.84</ele>
        <time>2016-06-19T16:15:00Z</time>
      </trkpt>
      <trkpt lat="43.7777" lon="4.71306">
        <ele>19.84</ele>
        <time>2016-06-19T16:15:05Z</time>
      </trkpt>
      <trkpt lat="43.77603" lon="4.70872">
        <ele>15.04</ele>
        <time>2016-06-19T16:15:17Z</time>
      </trkpt>
      <trkpt lat="43.77464" lon="4.70517">
        <ele>15.04</ele>
        <time>2016-06-19T16:15:27Z</time>
      </trkpt>
      <trkpt lat="43.77315" lon="4.70155">
        <ele>12.15</ele>
        <time>2016-06-19T16:15:38Z</time>
      </trkpt>
      <trkpt lat="43.77185" lon="4.69886">
        <ele>10.71</ele>
        <time>2016-06-19T16:15:47Z</time>
      </trkpt>
      <trkpt lat="43.77097" lon="4.69722">
        <ele>10.23</ele>
        <time>2016-06-19T16:15:53Z</time>
      </trkpt>
      <trkpt lat="43.77075" lon="4.69697">
        <ele>9.75</ele>
        <time>2016-06-19T16:15:54Z</time>
      </trkpt>
      <trkpt lat="43.76896" lon="4.69498">
        <ele>10.71</ele>
        <time>2016-06-19T16:16:03Z</time>
      </trkpt>
      <trkpt lat="43.76813" lon="4.69405">
        <ele>10.23</ele>
        <time>2016-06-19T16:16:09Z</time>
      </trkpt>
      <trkpt lat="43.76773" lon="4.69356">
        <ele>10.23</ele>
        <time>2016-06-19T16:16:14Z</time>
      </trkpt>
      <trkpt lat="43.76769" lon="4.69348">
        <ele>10.23</ele>
        <time>2016-06-19T16:16:15Z</time>
      </trkpt>
      <trkpt lat="43.76768" lon="4.69341">
        <ele>10.71</ele>
        <time>2016-06-19T16:16:16Z</time>
      </trkpt>
      <trkpt lat="43.76768" lon="4.69337">
        <ele>10.71</ele>
        <time>2016-06-19T16:16:17Z</time>
      </trkpt>
      <trkpt lat="43.7677" lon="4.69338">
        <ele>12.15</ele>
        <time>2016-06-19T16:16:28Z</time>
      </trkpt>
      <trkpt lat="43.76776" lon="4.69337">
        <ele>13.12</ele>
        <time>2016-06-19T16:17:08Z</time>
      </trkpt>
      <trkpt lat="43.7678" lon="4.69329">
        <ele>13.12</ele>
        <time>2016-06-19T16:17:09Z</time>
      </trkpt>
      <trkpt lat="43.76822" lon="4.69271">
        <ele>13.12</ele>
        <time>2016-06-19T16:17:14Z</time>
      </trkpt>
      <trkpt lat="43.7683" lon="4.69253">
        <ele>13.12</ele>
        <time>2016-06-19T16:17:15Z</time>
      </trkpt>
      <trkpt lat="43.76836" lon="4.69233">
        <ele>13.12</ele>
        <time>2016-06-19T16:17:16Z</time>
      </trkpt>
      <trkpt lat="43.76857" lon="4.69137">
        <ele>13.6</ele>
        <time>2016-06-19T16:17:22Z</time>
      </trkpt>
      <trkpt lat="43.76861" lon="4.69129">
        <ele>13.12</ele>
        <time>2016-06-19T16:17:23Z</time>
      </trkpt>
      <trkpt lat="43.76866" lon="4.69123">
        <ele>13.12</ele>
        <time>2016-06-19T16:17:24Z</time>
      </trkpt>
      <trkpt lat="43.76872" lon="4.69117">
        <ele>13.6</ele>
        <time>2016-06-19T16:17:25Z</time>
      </trkpt>
      <trkpt lat="43.76876" lon="4.69111">
        <ele>13.6</ele>
        <time>2016-06-19T16:17:26Z</time>
      </trkpt>
      <trkpt lat="43.76878" lon="4.69104">
        <ele>13.6</ele>
        <time>2016-06-19T16:17:27Z</time>
      </trkpt>
      <trkpt lat="43.76876" lon="4.69097">
        <ele>13.6</ele>
        <time>2016-06-19T16:17:28Z</time>
      </trkpt>
      <trkpt lat="43.76871" lon="4.6909">
        <ele>13.12</ele>
        <time>2016-06-19T16:17:29Z</time>
      </trkpt>
      <trkpt lat="43.76863" lon="4.69087">
        <ele>13.12</ele>
        <time>2016-06-19T16:17:30Z</time>
      </trkpt>
      <trkpt lat="43.76853" lon="4.69089">
        <ele>13.12</ele>
        <time>2016-06-19T16:17:31Z</time>
      </trkpt>
      <trkpt lat="43.76842" lon="4.69091">
        <ele>12.63</ele>
        <time>2016-06-19T16:17:32Z</time>
      </trkpt>
      <trkpt lat="43.76829" lon="4.69091">
        <ele>12.63</ele>
        <time>2016-06-19T16:17:33Z</time>
      </trkpt>
      <trkpt lat="43.76814" lon="4.69089">
        <ele>12.63</ele>
        <time>2016-06-19T16:17:34Z</time>
      </trkpt>
      <trkpt lat="43.76799" lon="4.69085">
        <ele>12.63</ele>
        <time>2016-06-19T16:17:35Z</time>
      </trkpt>
      <trkpt lat="43.76638" lon="4.69017">
        <ele>13.12</ele>
        <time>2016-06-19T16:17:44Z</time>
      </trkpt>
      <trkpt lat="43.76468" lon="4.68907">
        <ele>12.15</ele>
        <time>2016-06-19T16:17:52Z</time>
      </trkpt>
      <trkpt lat="43.76102" lon="4.68663">
        <ele>10.71</ele>
        <time>2016-06-19T16:18:09Z</time>
      </trkpt>
      <trkpt lat="43.75638" lon="4.68353">
        <ele>10.71</ele>
        <time>2016-06-19T16:18:32Z</time>
      </trkpt>
      <trkpt lat="43.74844" lon="4.6783">
        <ele>10.23</ele>
        <time>2016-06-19T16:19:15Z</time>
      </trkpt>
      <trkpt lat="43.74524" lon="4.67621">
        <ele>9.75</ele>
        <time>2016-06-19T16:19:33Z</time>
      </trkpt>
      <trkpt lat="43.74335" lon="4.67497">
        <ele>9.27</ele>
        <time>2016-06-19T16:19:43Z</time>
      </trkpt>
      <trkpt lat="43.74111" lon="4.67353">
        <ele>9.27</ele>
        <time>2016-06-19T16:19:55Z</time>
      </trkpt>
      <trkpt lat="43.73925" lon="4.67224">
        <ele>8.31</ele>
        <time>2016-06-19T16:20:03Z</time>
      </trkpt>
      <trkpt lat="43.73713" lon="4.67034">
        <ele>7.83</ele>
        <time>2016-06-19T16:20:12Z</time>
      </trkpt>
      <trkpt lat="43.73504" lon="4.66847">
        <ele>8.31</ele>
        <time>2016-06-19T16:20:21Z</time>
      </trkpt>
      <trkpt lat="43.73239" lon="4.66553">
        <ele>9.27</ele>
        <time>2016-06-19T16:20:32Z</time>
      </trkpt>
      <trkpt lat="43.72987" lon="4.66211">
        <ele>9.27</ele>
        <time>2016-06-19T16:20:44Z</time>
      </trkpt>
      <trkpt lat="43.72846" lon="4.6598">
        <ele>11.67</ele>
        <time>2016-06-19T16:20:52Z</time>
      </trkpt>
      <trkpt lat="43.72756" lon="4.65812">
        <ele>12.15</ele>
        <time>2016-06-19T16:20:59Z</time>
      </trkpt>
      <trkpt lat="43.72676" lon="4.65663">
        <ele>11.67</ele>
        <time>2016-06-19T16:21:04Z</time>
      </trkpt>
      <trkpt lat="43.72473" lon="4.6531">
        <ele>11.67</ele>
        <time>2016-06-19T16:21:16Z</time>
      </trkpt>
      <trkpt lat="43.72354" lon="4.65158">
        <ele>11.67</ele>
        <time>2016-06-19T16:21:23Z</time>
      </trkpt>
      <trkpt lat="43.72136" lon="4.64953">
        <ele>11.19</ele>
        <time>2016-06-19T16:21:35Z</time>
      </trkpt>
      <trkpt lat="43.71973" lon="4.64785">
        <ele>10.71</ele>
        <time>2016-06-19T16:21:44Z</time>
      </trkpt>
      <trkpt lat="43.71785" lon="4.64541">
        <ele>10.23</ele>
        <time>2016-06-19T16:21:54Z</time>
      </trkpt>
      <trkpt lat="43.71561" lon="4.64376">
        <ele>9.27</ele>
        <time>2016-06-19T16:22:04Z</time>
      </trkpt>
      <trkpt lat="43.71391" lon="4.64253">
        <ele>9.27</ele>
        <time>2016-06-19T16:22:13Z</time>
      </trkpt>
      <trkpt lat="43.71158" lon="4.64095">
        <ele>8.79</ele>
        <time>2016-06-19T16:22:26Z</time>
      </trkpt>
      <trkpt lat="43.70981" lon="4.64007">
        <ele>7.83</ele>
        <time>2016-06-19T16:22:37Z</time>
      </trkpt>
      <trkpt lat="43.70911" lon="4.63978">
        <ele>9.27</ele>
        <time>2016-06-19T16:22:42Z</time>
      </trkpt>
      <trkpt lat="43.70901" lon="4.63971">
        <ele>9.75</ele>
        <time>2016-06-19T16:22:43Z</time>
      </trkpt>
      <trkpt lat="43.70893" lon="4.63964">
        <ele>9.75</ele>
        <time>2016-06-19T16:22:44Z</time>
      </trkpt>
      <trkpt lat="43.70886" lon="4.63955">
        <ele>10.23</ele>
        <time>2016-06-19T16:22:45Z</time>
      </trkpt>
      <trkpt lat="43.7088" lon="4.63948">
        <ele>10.71</ele>
        <time>2016-06-19T16:22:46Z</time>
      </trkpt>
      <trkpt lat="43.70874" lon="4.63945">
        <ele>10.71</ele>
        <time>2016-06-19T16:22:47Z</time>
      </trkpt>
      <trkpt lat="43.70867" lon="4.63948">
        <ele>10.71</ele>
        <time>2016-06-19T16:22:48Z</time>
      </trkpt>
      <trkpt lat="43.70862" lon="4.63955">
        <ele>10.23</ele>
        <time>2016-06-19T16:22:49Z</time>
      </trkpt>
      <trkpt lat="43.70859" lon="4.63965">
        <ele>9.75</ele>
        <time>2016-06-19T16:22:50Z</time>
      </trkpt>
      <trkpt lat="43.70862" lon="4.63979">
        <ele>9.75</ele>
        <time>2016-06-19T16:22:51Z</time>
      </trkpt>
      <trkpt lat="43.70864" lon="4.63992">
        <ele>9.75</ele>
        <time>2016-06-19T16:22:52Z</time>
      </trkpt>
      <trkpt lat="43.70868" lon="4.64008">
        <ele>9.75</ele>
        <time>2016-06-19T16:22:53Z</time>
      </trkpt>
      <trkpt lat="43.7087" lon="4.64027">
        <ele>10.23</ele>
        <time>2016-06-19T16:22:54Z</time>
      </trkpt>
      <trkpt lat="43.7087" lon="4.64047">
        <ele>10.23</ele>
        <time>2016-06-19T16:22:55Z</time>
      </trkpt>
      <trkpt lat="43.70869" lon="4.64068">
        <ele>10.23</ele>
        <time>2016-06-19T16:22:56Z</time>
      </trkpt>
      <trkpt lat="43.70854" lon="4.64266">
        <ele>10.71</ele>
        <time>2016-06-19T16:23:04Z</time>
      </trkpt>
      <trkpt lat="43.70822" lon="4.64504">
        <ele>10.23</ele>
        <time>2016-06-19T16:23:11Z</time>
      </trkpt>
      <trkpt lat="43.70747" lon="4.64652">
        <ele>10.71</ele>
        <time>2016-06-19T16:23:16Z</time>
      </trkpt>
      <trkpt lat="43.70637" lon="4.64747">
        <ele>11.19</ele>
        <time>2016-06-19T16:23:21Z</time>
      </trkpt>
      <trkpt lat="43.70516" lon="4.64773">
        <ele>12.15</ele>
        <time>2016-06-19T16:23:26Z</time>
      </trkpt>
      <trkpt lat="43.70355" lon="4.6474">
        <ele>13.12</ele>
        <time>2016-06-19T16:23:33Z</time>
      </trkpt>
      <trkpt lat="43.70034" lon="4.64663">
        <ele>9.27</ele>
        <time>2016-06-19T16:23:48Z</time>
      </trkpt>
      <trkpt lat="43.6989" lon="4.64626">
        <ele>8.31</ele>
        <time>2016-06-19T16:23:57Z</time>
      </trkpt>
      <trkpt lat="43.69865" lon="4.64611">
        <ele>8.79</ele>
        <time>2016-06-19T16:24:02Z</time>
      </trkpt>
      <trkpt lat="43.69862" lon="4.64606">
        <ele>9.27</ele>
        <time>2016-06-19T16:24:03Z</time>
      </trkpt>
      <trkpt lat="43.69859" lon="4.64598">
        <ele>9.27</ele>
        <time>2016-06-19T16:24:04Z</time>
      </trkpt>
      <trkpt lat="43.69854" lon="4.64587">
        <ele>9.27</ele>
        <time>2016-06-19T16:24:05Z</time>
      </trkpt>
      <trkpt lat="43.69848" lon="4.64577">
        <ele>9.75</ele>
        <time>2016-06-19T16:24:06Z</time>
      </trkpt>
      <trkpt lat="43.6984" lon="4.64569">
        <ele>9.75</ele>
        <time>2016-06-19T16:24:07Z</time>
      </trkpt>
      <trkpt lat="43.69829" lon="4.64563">
        <ele>9.75</ele>
        <time>2016-06-19T16:24:08Z</time>
      </trkpt>
      <trkpt lat="43.69818" lon="4.64562">
        <ele>9.75</ele>
        <time>2016-06-19T16:24:09Z</time>
      </trkpt>
      <trkpt lat="43.69807" lon="4.64567">
        <ele>9.75</ele>
        <time>2016-06-19T16:24:10Z</time>
      </trkpt>
      <trkpt lat="43.69797" lon="4.64575">
        <ele>9.75</ele>
        <time>2016-06-19T16:24:11Z</time>
      </trkpt>
      <trkpt lat="43.69786" lon="4.64584">
        <ele>9.27</ele>
        <time>2016-06-19T16:24:12Z</time>
      </trkpt>
      <trkpt lat="43.69773" lon="4.64586">
        <ele>9.27</ele>
        <time>2016-06-19T16:24:13Z</time>
      </trkpt>
      <trkpt lat="43.69761" lon="4.64582">
        <ele>8.79</ele>
        <time>2016-06-19T16:24:14Z</time>
      </trkpt>
      <trkpt lat="43.6975" lon="4.64576">
        <ele>8.79</ele>
        <time>2016-06-19T16:24:15Z</time>
      </trkpt>
      <trkpt lat="43.69739" lon="4.64569">
        <ele>8.79</ele>
        <time>2016-06-19T16:24:16Z</time>
      </trkpt>
      <trkpt lat="43.69726" lon="4.64562">
        <ele>8.79</ele>
        <time>2016-06-19T16:24:17Z</time>
      </trkpt>
      <trkpt lat="43.69712" lon="4.64556">
        <ele>8.79</ele>
        <time>2016-06-19T16:24:18Z</time>
      </trkpt>
      <trkpt lat="43.69602" lon="4.64527">
        <ele>8.31</ele>
        <time>2016-06-19T16:24:24Z</time>
      </trkpt>
      <trkpt lat="43.69396" lon="4.64442">
        <ele>8.31</ele>
        <time>2016-06-19T16:24:33Z</time>
      </trkpt>
      <trkpt lat="43.69238" lon="4.64393">
        <ele>8.31</ele>
        <time>2016-06-19T16:24:40Z</time>
      </trkpt>
      <trkpt lat="43.69153" lon="4.64388">
        <ele>8.79</ele>
        <time>2016-06-19T16:24:44Z</time>
      </trkpt>
      <trkpt lat="43.69112" lon="4.64392">
        <ele>8.79</ele>
        <time>2016-06-19T16:24:47Z</time>
      </trkpt>
      <trkpt lat="43.69102" lon="4.64384">
        <ele>8.79</ele>
        <time>2016-06-19T16:24:48Z</time>
      </trkpt>
      <trkpt lat="43.69093" lon="4.64372">
        <ele>9.27</ele>
        <time>2016-06-19T16:24:49Z</time>
      </trkpt>
      <trkpt lat="43.69083" lon="4.6436">
        <ele>9.27</ele>
        <time>2016-06-19T16:24:50Z</time>
      </trkpt>
      <trkpt lat="43.69072" lon="4.64353">
        <ele>9.27</ele>
        <time>2016-06-19T16:24:51Z</time>
      </trkpt>
      <trkpt lat="43.69059" lon="4.64354">
        <ele>8.79</ele>
        <time>2016-06-19T16:24:52Z</time>
      </trkpt>
      <trkpt lat="43.69047" lon="4.6436">
        <ele>8.31</ele>
        <time>2016-06-19T16:24:53Z</time>
      </trkpt>
      <trkpt lat="43.69036" lon="4.64371">
        <ele>8.31</ele>
        <time>2016-06-19T16:24:54Z</time>
      </trkpt>
      <trkpt lat="43.69025" lon="4.64382">
        <ele>7.83</ele>
        <time>2016-06-19T16:24:55Z</time>
      </trkpt>
      <trkpt lat="43.69014" lon="4.64389">
        <ele>7.83</ele>
        <time>2016-06-19T16:24:56Z</time>
      </trkpt>
      <trkpt lat="43.69001" lon="4.6439">
        <ele>7.35</ele>
        <time>2016-06-19T16:24:57Z</time>
      </trkpt>
      <trkpt lat="43.68988" lon="4.64386">
        <ele>7.83</ele>
        <time>2016-06-19T16:24:58Z</time>
      </trkpt>
      <trkpt lat="43.68961" lon="4.64378">
        <ele>7.83</ele>
        <time>2016-06-19T16:25:00Z</time>
      </trkpt>
      <trkpt lat="43.68946" lon="4.64376">
        <ele>7.83</ele>
        <time>2016-06-19T16:25:01Z</time>
      </trkpt>
      <trkpt lat="43.68835" lon="4.64372">
        <ele>7.83</ele>
        <time>2016-06-19T16:25:07Z</time>
      </trkpt>
      <trkpt lat="43.68637" lon="4.64358">
        <ele>8.31</ele>
        <time>2016-06-19T16:25:15Z</time>
      </trkpt>
      <trkpt lat="43.68372" lon="4.64381">
        <ele>8.31</ele>
        <time>2016-06-19T16:25:25Z</time>
      </trkpt>
      <trkpt lat="43.6816" lon="4.64477">
        <ele>8.31</ele>
        <time>2016-06-19T16:25:33Z</time>
      </trkpt>
      <trkpt lat="43.6798" lon="4.64567">
        <ele>8.79</ele>
        <time>2016-06-19T16:25:41Z</time>
      </trkpt>
      <trkpt lat="43.67898" lon="4.64611">
        <ele>9.27</ele>
        <time>2016-06-19T16:25:47Z</time>
      </trkpt>
      <trkpt lat="43.67859" lon="4.6464">
        <ele>10.23</ele>
        <time>2016-06-19T16:25:52Z</time>
      </trkpt>
      <trkpt lat="43.67854" lon="4.64641">
        <ele>10.23</ele>
        <time>2016-06-19T16:25:53Z</time>
      </trkpt>
      <trkpt lat="43.67848" lon="4.64641">
        <ele>10.23</ele>
        <time>2016-06-19T16:25:54Z</time>
      </trkpt>
      <trkpt lat="43.67841" lon="4.64637">
        <ele>10.23</ele>
        <time>2016-06-19T16:25:55Z</time>
      </trkpt>
      <trkpt lat="43.67834" lon="4.64632">
        <ele>10.23</ele>
        <time>2016-06-19T16:25:56Z</time>
      </trkpt>
      <trkpt lat="43.67826" lon="4.64628">
        <ele>10.71</ele>
        <time>2016-06-19T16:25:57Z</time>
      </trkpt>
      <trkpt lat="43.67817" lon="4.64626">
        <ele>10.71</ele>
        <time>2016-06-19T16:25:58Z</time>
      </trkpt>
      <trkpt lat="43.67807" lon="4.64627">
        <ele>10.71</ele>
        <time>2016-06-19T16:25:59Z</time>
      </trkpt>
      <trkpt lat="43.67799" lon="4.64632">
        <ele>10.71</ele>
        <time>2016-06-19T16:26:00Z</time>
      </trkpt>
      <trkpt lat="43.67791" lon="4.64639">
        <ele>10.71</ele>
        <time>2016-06-19T16:26:01Z</time>
      </trkpt>
      <trkpt lat="43.67784" lon="4.6465">
        <ele>10.23</ele>
        <time>2016-06-19T16:26:02Z</time>
      </trkpt>
      <trkpt lat="43.6778" lon="4.64662">
        <ele>9.75</ele>
        <time>2016-06-19T16:26:03Z</time>
      </trkpt>
      <trkpt lat="43.67778" lon="4.64676">
        <ele>9.75</ele>
        <time>2016-06-19T16:26:04Z</time>
      </trkpt>
      <trkpt lat="43.67776" lon="4.6469">
        <ele>9.75</ele>
        <time>2016-06-19T16:26:05Z</time>
      </trkpt>
      <trkpt lat="43.67771" lon="4.64704">
        <ele>10.23</ele>
        <time>2016-06-19T16:26:06Z</time>
      </trkpt>
      <trkpt lat="43.67764" lon="4.64716">
        <ele>10.23</ele>
        <time>2016-06-19T16:26:07Z</time>
      </trkpt>
      <trkpt lat="43.67755" lon="4.64727">
        <ele>10.23</ele>
        <time>2016-06-19T16:26:08Z</time>
      </trkpt>
      <trkpt lat="43.67744" lon="4.64737">
        <ele>10.23</ele>
        <time>2016-06-19T16:26:09Z</time>
      </trkpt>
      <trkpt lat="43.67731" lon="4.64746">
        <ele>10.23</ele>
        <time>2016-06-19T16:26:10Z</time>
      </trkpt>
      <trkpt lat="43.67621" lon="4.64813">
        <ele>9.75</ele>
        <time>2016-06-19T16:26:16Z</time>
      </trkpt>
      <trkpt lat="43.67447" lon="4.6491">
        <ele>9.27</ele>
        <time>2016-06-19T16:26:23Z</time>
      </trkpt>
      <trkpt lat="43.67205" lon="4.65031">
        <ele>8.79</ele>
        <time>2016-06-19T16:26:33Z</time>
      </trkpt>
      <trkpt lat="43.6702" lon="4.65063">
        <ele>8.79</ele>
        <time>2016-06-19T16:26:40Z</time>
      </trkpt>
      <trkpt lat="43.6677" lon="4.65052">
        <ele>9.27</ele>
        <time>2016-06-19T16:26:49Z</time>
      </trkpt>
      <trkpt lat="43.66623" lon="4.64967">
        <ele>9.27</ele>
        <time>2016-06-19T16:26:55Z</time>
      </trkpt>
      <trkpt lat="43.66542" lon="4.64871">
        <ele>11.19</ele>
        <time>2016-06-19T16:27:00Z</time>
      </trkpt>
      <trkpt lat="43.66534" lon="4.64853">
        <ele>11.67</ele>
        <time>2016-06-19T16:27:01Z</time>
      </trkpt>
      <trkpt lat="43.6653" lon="4.64838">
        <ele>12.63</ele>
        <time>2016-06-19T16:27:02Z</time>
      </trkpt>
      <trkpt lat="43.66529" lon="4.64826">
        <ele>13.12</ele>
        <time>2016-06-19T16:27:03Z</time>
      </trkpt>
      <trkpt lat="43.66528" lon="4.64818">
        <ele>13.12</ele>
        <time>2016-06-19T16:27:04Z</time>
      </trkpt>
      <trkpt lat="43.66529" lon="4.64814">
        <ele>12.63</ele>
        <time>2016-06-19T16:27:05Z</time>
      </trkpt>
      <trkpt lat="43.66529" lon="4.64811">
        <ele>12.63</ele>
        <time>2016-06-19T16:27:06Z</time>
      </trkpt>
      <trkpt lat="43.66534" lon="4.64808">
        <ele>11.19</ele>
        <time>2016-06-19T16:27:18Z</time>
      </trkpt>
      <trkpt lat="43.66538" lon="4.648">
        <ele>11.19</ele>
        <time>2016-06-19T16:27:19Z</time>
      </trkpt>
      <trkpt lat="43.66543" lon="4.64791">
        <ele>11.19</ele>
        <time>2016-06-19T16:27:20Z</time>
      </trkpt>
      <trkpt lat="43.66547" lon="4.6478">
        <ele>10.71</ele>
        <time>2016-06-19T16:27:21Z</time>
      </trkpt>
      <trkpt lat="43.66549" lon="4.64767">
        <ele>10.71</ele>
        <time>2016-06-19T16:27:22Z</time>
      </trkpt>
      <trkpt lat="43.6655" lon="4.64753">
        <ele>10.71</ele>
        <time>2016-06-19T16:27:23Z</time>
      </trkpt>
      <trkpt lat="43.66548" lon="4.64739">
        <ele>10.71</ele>
        <time>2016-06-19T16:27:24Z</time>
      </trkpt>
      <trkpt lat="43.66543" lon="4.64728">
        <ele>10.71</ele>
        <time>2016-06-19T16:27:25Z</time>
      </trkpt>
      <trkpt lat="43.66536" lon="4.64718">
        <ele>10.71</ele>
        <time>2016-06-19T16:27:26Z</time>
      </trkpt>
      <trkpt lat="43.66527" lon="4.6471">
        <ele>10.71</ele>
        <time>2016-06-19T16:27:27Z</time>
      </trkpt>
      <trkpt lat="43.66513" lon="4.64707">
        <ele>10.71</ele>
        <time>2016-06-19T16:27:28Z</time>
      </trkpt>
      <trkpt lat="43.665" lon="4.64706">
        <ele>10.71</ele>
        <time>2016-06-19T16:27:29Z</time>
      </trkpt>
      <trkpt lat="43.66487" lon="4.64703">
        <ele>10.23</ele>
        <time>2016-06-19T16:27:30Z</time>
      </trkpt>
      <trkpt lat="43.66475" lon="4.64693">
        <ele>10.23</ele>
        <time>2016-06-19T16:27:31Z</time>
      </trkpt>
      <trkpt lat="43.66463" lon="4.64679">
        <ele>10.23</ele>
        <time>2016-06-19T16:27:32Z</time>
      </trkpt>
      <trkpt lat="43.66453" lon="4.64662">
        <ele>10.23</ele>
        <time>2016-06-19T16:27:33Z</time>
      </trkpt>
      <trkpt lat="43.66443" lon="4.64642">
        <ele>9.75</ele>
        <time>2016-06-19T16:27:34Z</time>
      </trkpt>
      <trkpt lat="43.66434" lon="4.64619">
        <ele>9.27</ele>
        <time>2016-06-19T16:27:35Z</time>
      </trkpt>
      <trkpt lat="43.66427" lon="4.64594">
        <ele>8.79</ele>
        <time>2016-06-19T16:27:36Z</time>
      </trkpt>
      <trkpt lat="43.6642" lon="4.64568">
        <ele>7.83</ele>
        <time>2016-06-19T16:27:37Z</time>
      </trkpt>
      <trkpt lat="43.66383" lon="4.64337">
        <ele>6.87</ele>
        <time>2016-06-19T16:27:45Z</time>
      </trkpt>
      <trkpt lat="43.66362" lon="4.64121">
        <ele>8.31</ele>
        <time>2016-06-19T16:27:53Z</time>
      </trkpt>
      <trkpt lat="43.66325" lon="4.64029">
        <ele>9.75</ele>
        <time>2016-06-19T16:27:57Z</time>
      </trkpt>
      <trkpt lat="43.66313" lon="4.64011">
        <ele>10.23</ele>
        <time>2016-06-19T16:27:58Z</time>
      </trkpt>
      <trkpt lat="43.663" lon="4.63994">
        <ele>10.71</ele>
        <time>2016-06-19T16:27:59Z</time>
      </trkpt>
      <trkpt lat="43.66239" lon="4.6391">
        <ele>13.12</ele>
        <time>2016-06-19T16:28:04Z</time>
      </trkpt>
      <trkpt lat="43.6623" lon="4.63889">
        <ele>13.12</ele>
        <time>2016-06-19T16:28:05Z</time>
      </trkpt>
      <trkpt lat="43.66222" lon="4.63866">
        <ele>13.12</ele>
        <time>2016-06-19T16:28:06Z</time>
      </trkpt>
      <trkpt lat="43.66216" lon="4.63842">
        <ele>12.63</ele>
        <time>2016-06-19T16:28:07Z</time>
      </trkpt>
      <trkpt lat="43.66213" lon="4.63815">
        <ele>12.63</ele>
        <time>2016-06-19T16:28:08Z</time>
      </trkpt>
      <trkpt lat="43.66213" lon="4.63788">
        <ele>11.19</ele>
        <time>2016-06-19T16:28:09Z</time>
      </trkpt>
      <trkpt lat="43.66216" lon="4.63761">
        <ele>10.23</ele>
        <time>2016-06-19T16:28:10Z</time>
      </trkpt>
      <trkpt lat="43.66221" lon="4.63734">
        <ele>9.75</ele>
        <time>2016-06-19T16:28:11Z</time>
      </trkpt>
      <trkpt lat="43.66229" lon="4.6371">
        <ele>9.75</ele>
        <time>2016-06-19T16:28:12Z</time>
      </trkpt>
      <trkpt lat="43.66238" lon="4.63686">
        <ele>9.75</ele>
        <time>2016-06-19T16:28:13Z</time>
      </trkpt>
      <trkpt lat="43.66249" lon="4.63664">
        <ele>9.27</ele>
        <time>2016-06-19T16:28:14Z</time>
      </trkpt>
      <trkpt lat="43.66407" lon="4.63379">
        <ele>11.67</ele>
        <time>2016-06-19T16:28:27Z</time>
      </trkpt>
      <trkpt lat="43.6665" lon="4.62992">
        <ele>12.63</ele>
        <time>2016-06-19T16:28:45Z</time>
      </trkpt>
      <trkpt lat="43.66857" lon="4.62686">
        <ele>7.83</ele>
        <time>2016-06-19T16:28:59Z</time>
      </trkpt>
      <trkpt lat="43.67109" lon="4.62376">
        <ele>7.83</ele>
        <time>2016-06-19T16:29:15Z</time>
      </trkpt>
      <trkpt lat="43.67324" lon="4.62133">
        <ele>10.23</ele>
        <time>2016-06-19T16:29:28Z</time>
      </trkpt>
      <trkpt lat="43.67553" lon="4.6185">
        <ele>19.36</ele>
        <time>2016-06-19T16:29:43Z</time>
      </trkpt>
      <trkpt lat="43.67722" lon="4.61609">
        <ele>20.32</ele>
        <time>2016-06-19T16:29:55Z</time>
      </trkpt>
      <trkpt lat="43.67804" lon="4.61403">
        <ele>16.96</ele>
        <time>2016-06-19T16:30:04Z</time>
      </trkpt>
      <trkpt lat="43.67828" lon="4.61207">
        <ele>11.67</ele>
        <time>2016-06-19T16:30:12Z</time>
      </trkpt>
      <trkpt lat="43.67849" lon="4.60881">
        <ele>5.91</ele>
        <time>2016-06-19T16:30:23Z</time>
      </trkpt>
      <trkpt lat="43.67907" lon="4.60609">
        <ele>4.94</ele>
        <time>2016-06-19T16:30:32Z</time>
      </trkpt>
      <trkpt lat="43.68012" lon="4.60333">
        <ele>8.31</ele>
        <time>2016-06-19T16:30:42Z</time>
      </trkpt>
      <trkpt lat="43.68156" lon="4.59927">
        <ele>9.27</ele>
        <time>2016-06-19T16:30:56Z</time>
      </trkpt>
      <trkpt lat="43.68265" lon="4.59527">
        <ele>9.75</ele>
        <time>2016-06-19T16:31:09Z</time>
      </trkpt>
      <trkpt lat="43.6832" lon="4.59179">
        <ele>10.23</ele>
        <time>2016-06-19T16:31:20Z</time>
      </trkpt>
      <trkpt lat="43.68331" lon="4.58815">
        <ele>9.75</ele>
        <time>2016-06-19T16:31:31Z</time>
      </trkpt>
      <trkpt lat="43.68327" lon="4.58294">
        <ele>9.27</ele>
        <time>2016-06-19T16:31:46Z</time>
      </trkpt>
      <trkpt lat="43.68319" lon="4.57429">
        <ele>9.75</ele>
        <time>2016-06-19T16:32:10Z</time>
      </trkpt>
      <trkpt lat="43.68314" lon="4.56721">
        <ele>9.27</ele>
        <time>2016-06-19T16:32:29Z</time>
      </trkpt>
      <trkpt lat="43.68312" lon="4.56156">
        <ele>8.79</ele>
        <time>2016-06-19T16:32:45Z</time>
      </trkpt>
      <trkpt lat="43.68317" lon="4.55676">
        <ele>8.79</ele>
        <time>2016-06-19T16:32:59Z</time>
      </trkpt>
      <trkpt lat="43.68364" lon="4.55487">
        <ele>8.31</ele>
        <time>2016-06-19T16:33:05Z</time>
      </trkpt>
      <trkpt lat="43.68449" lon="4.55303">
        <ele>8.31</ele>
        <time>2016-06-19T16:33:12Z</time>
      </trkpt>
      <trkpt lat="43.6847" lon="4.5515">
        <ele>8.31</ele>
        <time>2016-06-19T16:33:17Z</time>
      </trkpt>
      <trkpt lat="43.68449" lon="4.55017">
        <ele>7.83</ele>
        <time>2016-06-19T16:33:21Z</time>
      </trkpt>
      <trkpt lat="43.68437" lon="4.54986">
        <ele>7.83</ele>
        <time>2016-06-19T16:33:22Z</time>
      </trkpt>
      <trkpt lat="43.68423" lon="4.54955">
        <ele>8.31</ele>
        <time>2016-06-19T16:33:23Z</time>
      </trkpt>
      <trkpt lat="43.68406" lon="4.54927">
        <ele>8.31</ele>
        <time>2016-06-19T16:33:24Z</time>
      </trkpt>
      <trkpt lat="43.68389" lon="4.54899">
        <ele>8.31</ele>
        <time>2016-06-19T16:33:25Z</time>
      </trkpt>
      <trkpt lat="43.68317" lon="4.54749">
        <ele>7.83</ele>
        <time>2016-06-19T16:33:30Z</time>
      </trkpt>
      <trkpt lat="43.68309" lon="4.54715">
        <ele>7.35</ele>
        <time>2016-06-19T16:33:31Z</time>
      </trkpt>
      <trkpt lat="43.68304" lon="4.5468">
        <ele>7.83</ele>
        <time>2016-06-19T16:33:32Z</time>
      </trkpt>
      <trkpt lat="43.683" lon="4.54644">
        <ele>7.83</ele>
        <time>2016-06-19T16:33:33Z</time>
      </trkpt>
      <trkpt lat="43.68298" lon="4.54608">
        <ele>7.83</ele>
        <time>2016-06-19T16:33:34Z</time>
      </trkpt>
      <trkpt lat="43.68294" lon="4.54346">
        <ele>7.83</ele>
        <time>2016-06-19T16:33:42Z</time>
      </trkpt>
      <trkpt lat="43.6829" lon="4.53973">
        <ele>7.35</ele>
        <time>2016-06-19T16:33:56Z</time>
      </trkpt>
      <trkpt lat="43.68282" lon="4.53673">
        <ele>6.87</ele>
        <time>2016-06-19T16:34:04Z</time>
      </trkpt>
      <trkpt lat="43.68233" lon="4.5316">
        <ele>7.35</ele>
        <time>2016-06-19T16:34:18Z</time>
      </trkpt>
      <trkpt lat="43.6817" lon="4.52608">
        <ele>7.83</ele>
        <time>2016-06-19T16:34:34Z</time>
      </trkpt>
      <trkpt lat="43.68111" lon="4.52102">
        <ele>7.83</ele>
        <time>2016-06-19T16:34:48Z</time>
      </trkpt>
      <trkpt lat="43.68041" lon="4.51486">
        <ele>7.83</ele>
        <time>2016-06-19T16:35:05Z</time>
      </trkpt>
      <trkpt lat="43.6797" lon="4.50875">
        <ele>7.35</ele>
        <time>2016-06-19T16:35:22Z</time>
      </trkpt>
      <trkpt lat="43.67889" lon="4.50171">
        <ele>7.35</ele>
        <time>2016-06-19T16:35:41Z</time>
      </trkpt>
      <trkpt lat="43.67843" lon="4.49768">
        <ele>6.87</ele>
        <time>2016-06-19T16:35:52Z</time>
      </trkpt>
      <trkpt lat="43.67774" lon="4.49306">
        <ele>7.83</ele>
        <time>2016-06-19T16:36:05Z</time>
      </trkpt>
      <trkpt lat="43.67678" lon="4.49039">
        <ele>7.83</ele>
        <time>2016-06-19T16:36:13Z</time>
      </trkpt>
      <trkpt lat="43.67417" lon="4.48473">
        <ele>8.31</ele>
        <time>2016-06-19T16:36:31Z</time>
      </trkpt>
      <trkpt lat="43.67239" lon="4.48087">
        <ele>7.83</ele>
        <time>2016-06-19T16:36:43Z</time>
      </trkpt>
      <trkpt lat="43.66997" lon="4.47546">
        <ele>7.83</ele>
        <time>2016-06-19T16:37:00Z</time>
      </trkpt>
      <trkpt lat="43.66883" lon="4.47199">
        <ele>7.83</ele>
        <time>2016-06-19T16:37:10Z</time>
      </trkpt>
      <trkpt lat="43.66733" lon="4.4688">
        <ele>8.31</ele>
        <time>2016-06-19T16:37:20Z</time>
      </trkpt>
      <trkpt lat="43.66547" lon="4.46612">
        <ele>8.79</ele>
        <time>2016-06-19T16:37:30Z</time>
      </trkpt>
      <trkpt lat="43.66346" lon="4.46351">
        <ele>10.23</ele>
        <time>2016-06-19T16:37:41Z</time>
      </trkpt>
      <trkpt lat="43.6627" lon="4.46168">
        <ele>9.27</ele>
        <time>2016-06-19T16:37:47Z</time>
      </trkpt>
      <trkpt lat="43.66246" lon="4.45964">
        <ele>9.27</ele>
        <time>2016-06-19T16:37:53Z</time>
      </trkpt>
      <trkpt lat="43.66268" lon="4.45776">
        <ele>8.79</ele>
        <time>2016-06-19T16:37:59Z</time>
      </trkpt>
      <trkpt lat="43.6634" lon="4.45588">
        <ele>9.75</ele>
        <time>2016-06-19T16:38:06Z</time>
      </trkpt>
      <trkpt lat="43.66466" lon="4.45417">
        <ele>14.08</ele>
        <time>2016-06-19T16:38:14Z</time>
      </trkpt>
      <trkpt lat="43.66655" lon="4.45181">
        <ele>14.56</ele>
        <time>2016-06-19T16:38:27Z</time>
      </trkpt>
      <trkpt lat="43.66738" lon="4.45016">
        <ele>8.79</ele>
        <time>2016-06-19T16:38:34Z</time>
      </trkpt>
      <trkpt lat="43.66881" lon="4.44644">
        <ele>6.87</ele>
        <time>2016-06-19T16:38:49Z</time>
      </trkpt>
      <trkpt lat="43.66942" lon="4.44501">
        <ele>6.39</ele>
        <time>2016-06-19T16:38:54Z</time>
      </trkpt>
      <trkpt lat="43.67028" lon="4.44315">
        <ele>6.87</ele>
        <time>2016-06-19T16:39:00Z</time>
      </trkpt>
      <trkpt lat="43.67124" lon="4.44171">
        <ele>6.39</ele>
        <time>2016-06-19T16:39:06Z</time>
      </trkpt>
      <trkpt lat="43.67133" lon="4.44145">
        <ele>6.39</ele>
        <time>2016-06-19T16:39:07Z</time>
      </trkpt>
      <trkpt lat="43.67139" lon="4.44116">
        <ele>6.39</ele>
        <time>2016-06-19T16:39:08Z</time>
      </trkpt>
      <trkpt lat="43.67141" lon="4.44087">
        <ele>6.39</ele>
        <time>2016-06-19T16:39:09Z</time>
      </trkpt>
      <trkpt lat="43.67142" lon="4.44058">
        <ele>6.39</ele>
        <time>2016-06-19T16:39:10Z</time>
      </trkpt>
      <trkpt lat="43.67142" lon="4.4403">
        <ele>6.39</ele>
        <time>2016-06-19T16:39:11Z</time>
      </trkpt>
      <trkpt lat="43.67129" lon="4.43868">
        <ele>5.91</ele>
        <time>2016-06-19T16:39:18Z</time>
      </trkpt>
      <trkpt lat="43.67129" lon="4.43849">
        <ele>5.91</ele>
        <time>2016-06-19T16:39:19Z</time>
      </trkpt>
      <trkpt lat="43.6713" lon="4.4383">
        <ele>5.91</ele>
        <time>2016-06-19T16:39:20Z</time>
      </trkpt>
      <trkpt lat="43.6714" lon="4.43745">
        <ele>5.42</ele>
        <time>2016-06-19T16:39:25Z</time>
      </trkpt>
      <trkpt lat="43.67145" lon="4.43732">
        <ele>5.42</ele>
        <time>2016-06-19T16:39:26Z</time>
      </trkpt>
      <trkpt lat="43.67152" lon="4.43723">
        <ele>5.42</ele>
        <time>2016-06-19T16:39:27Z</time>
      </trkpt>
      <trkpt lat="43.6716" lon="4.43716">
        <ele>5.42</ele>
        <time>2016-06-19T16:39:28Z</time>
      </trkpt>
      <trkpt lat="43.67169" lon="4.43712">
        <ele>5.42</ele>
        <time>2016-06-19T16:39:29Z</time>
      </trkpt>
      <trkpt lat="43.67179" lon="4.43706">
        <ele>4.94</ele>
        <time>2016-06-19T16:39:30Z</time>
      </trkpt>
      <trkpt lat="43.67188" lon="4.43697">
        <ele>4.94</ele>
        <time>2016-06-19T16:39:31Z</time>
      </trkpt>
      <trkpt lat="43.67194" lon="4.43686">
        <ele>4.94</ele>
        <time>2016-06-19T16:39:32Z</time>
      </trkpt>
      <trkpt lat="43.672" lon="4.43676">
        <ele>4.94</ele>
        <time>2016-06-19T16:39:33Z</time>
      </trkpt>
      <trkpt lat="43.67249" lon="4.43578">
        <ele>4.94</ele>
        <time>2016-06-19T16:39:44Z</time>
      </trkpt>
      <trkpt lat="43.67289" lon="4.43496">
        <ele>6.39</ele>
        <time>2016-06-19T16:39:55Z</time>
      </trkpt>
      <trkpt lat="43.67312" lon="4.43448">
        <ele>6.87</ele>
        <time>2016-06-19T16:40:05Z</time>
      </trkpt>
      <trkpt lat="43.67353" lon="4.43364">
        <ele>4.46</ele>
        <time>2016-06-19T16:40:17Z</time>
      </trkpt>
      <trkpt lat="43.67355" lon="4.43356">
        <ele>4.46</ele>
        <time>2016-06-19T16:40:19Z</time>
      </trkpt>
      <trkpt lat="43.67354" lon="4.43351">
        <ele>4.46</ele>
        <time>2016-06-19T16:40:20Z</time>
      </trkpt>
      <trkpt lat="43.67352" lon="4.43347">
        <ele>4.46</ele>
        <time>2016-06-19T16:40:21Z</time>
      </trkpt>
      <trkpt lat="43.67347" lon="4.43343">
        <ele>3.98</ele>
        <time>2016-06-19T16:40:22Z</time>
      </trkpt>
      <trkpt lat="43.67341" lon="4.43338">
        <ele>3.98</ele>
        <time>2016-06-19T16:40:23Z</time>
      </trkpt>
      <trkpt lat="43.67251" lon="4.43258">
        <ele>3.5</ele>
        <time>2016-06-19T16:40:35Z</time>
      </trkpt>
      <trkpt lat="43.67154" lon="4.43165">
        <ele>4.94</ele>
        <time>2016-06-19T16:40:47Z</time>
      </trkpt>
      <trkpt lat="43.67149" lon="4.43153">
        <ele>5.42</ele>
        <time>2016-06-19T16:40:48Z</time>
      </trkpt>
      <trkpt lat="43.67147" lon="4.43138">
        <ele>5.91</ele>
        <time>2016-06-19T16:40:49Z</time>
      </trkpt>
      <trkpt lat="43.67146" lon="4.43123">
        <ele>6.87</ele>
        <time>2016-06-19T16:40:50Z</time>
      </trkpt>
      <trkpt lat="43.67145" lon="4.43109">
        <ele>7.35</ele>
        <time>2016-06-19T16:40:51Z</time>
      </trkpt>
      <trkpt lat="43.67144" lon="4.4308">
        <ele>7.35</ele>
        <time>2016-06-19T16:40:53Z</time>
      </trkpt>
      <trkpt lat="43.67144" lon="4.43066">
        <ele>7.35</ele>
        <time>2016-06-19T16:40:54Z</time>
      </trkpt>
      <trkpt lat="43.67146" lon="4.43054">
        <ele>7.35</ele>
        <time>2016-06-19T16:40:55Z</time>
      </trkpt>
      <trkpt lat="43.67151" lon="4.43045">
        <ele>7.83</ele>
        <time>2016-06-19T16:40:56Z</time>
      </trkpt>
      <trkpt lat="43.67156" lon="4.43037">
        <ele>7.83</ele>
        <time>2016-06-19T16:40:57Z</time>
      </trkpt>
      <trkpt lat="43.67162" lon="4.43031">
        <ele>7.83</ele>
        <time>2016-06-19T16:40:58Z</time>
      </trkpt>
      <trkpt lat="43.67167" lon="4.43025">
        <ele>7.83</ele>
        <time>2016-06-19T16:40:59Z</time>
      </trkpt>
      <trkpt lat="43.67169" lon="4.43018">
        <ele>7.83</ele>
        <time>2016-06-19T16:41:00Z</time>
      </trkpt>
      <trkpt lat="43.67168" lon="4.43009">
        <ele>7.83</ele>
        <time>2016-06-19T16:41:01Z</time>
      </trkpt>
      <trkpt lat="43.67164" lon="4.43001">
        <ele>7.83</ele>
        <time>2016-06-19T16:41:02Z</time>
      </trkpt>
      <trkpt lat="43.6716" lon="4.42991">
        <ele>8.31</ele>
        <time>2016-06-19T16:41:03Z</time>
      </trkpt>
      <trkpt lat="43.67133" lon="4.42868">
        <ele>8.79</ele>
        <time>2016-06-19T16:41:13Z</time>
      </trkpt>
      <trkpt lat="43.67123" lon="4.42643">
        <ele>12.15</ele>
        <time>2016-06-19T16:41:29Z</time>
      </trkpt>
      <trkpt lat="43.67135" lon="4.4248">
        <ele>14.08</ele>
        <time>2016-06-19T16:41:39Z</time>
      </trkpt>
      <trkpt lat="43.67165" lon="4.42331">
        <ele>15.52</ele>
        <time>2016-06-19T16:41:49Z</time>
      </trkpt>
      <trkpt lat="43.67236" lon="4.42215">
        <ele>16.96</ele>
        <time>2016-06-19T16:41:59Z</time>
      </trkpt>
      <trkpt lat="43.67284" lon="4.42173">
        <ele>17.44</ele>
        <time>2016-06-19T16:42:05Z</time>
      </trkpt>
      <trkpt lat="43.67293" lon="4.42168">
        <ele>17.44</ele>
        <time>2016-06-19T16:42:06Z</time>
      </trkpt>
      <trkpt lat="43.67301" lon="4.42164">
        <ele>17.44</ele>
        <time>2016-06-19T16:42:07Z</time>
      </trkpt>
      <trkpt lat="43.67322" lon="4.42156">
        <ele>17.44</ele>
        <time>2016-06-19T16:42:13Z</time>
      </trkpt>
      <trkpt lat="43.67325" lon="4.42148">
        <ele>17.92</ele>
        <time>2016-06-19T16:42:54Z</time>
      </trkpt>
      <trkpt lat="43.67327" lon="4.42138">
        <ele>17.92</ele>
        <time>2016-06-19T16:42:55Z</time>
      </trkpt>
      <trkpt lat="43.67327" lon="4.42126">
        <ele>17.92</ele>
        <time>2016-06-19T16:42:56Z</time>
      </trkpt>
      <trkpt lat="43.67318" lon="4.41988">
        <ele>17.92</ele>
        <time>2016-06-19T16:43:04Z</time>
      </trkpt>
      <trkpt lat="43.67273" lon="4.41727">
        <ele>17.44</ele>
        <time>2016-06-19T16:43:16Z</time>
      </trkpt>
      <trkpt lat="43.67249" lon="4.41518">
        <ele>16.96</ele>
        <time>2016-06-19T16:43:25Z</time>
      </trkpt>
      <trkpt lat="43.67237" lon="4.41282">
        <ele>16.48</ele>
        <time>2016-06-19T16:43:35Z</time>
      </trkpt>
      <trkpt lat="43.67216" lon="4.41052">
        <ele>16</ele>
        <time>2016-06-19T16:43:45Z</time>
      </trkpt>
      <trkpt lat="43.6721" lon="4.41031">
        <ele>16.48</ele>
        <time>2016-06-19T16:43:46Z</time>
      </trkpt>
      <trkpt lat="43.67202" lon="4.41011">
        <ele>16.48</ele>
        <time>2016-06-19T16:43:47Z</time>
      </trkpt>
      <trkpt lat="43.67193" lon="4.40992">
        <ele>16.48</ele>
        <time>2016-06-19T16:43:48Z</time>
      </trkpt>
      <trkpt lat="43.67183" lon="4.40974">
        <ele>16.96</ele>
        <time>2016-06-19T16:43:49Z</time>
      </trkpt>
      <trkpt lat="43.67123" lon="4.40836">
        <ele>17.44</ele>
        <time>2016-06-19T16:43:56Z</time>
      </trkpt>
      <trkpt lat="43.67119" lon="4.40813">
        <ele>17.44</ele>
        <time>2016-06-19T16:43:57Z</time>
      </trkpt>
      <trkpt lat="43.67117" lon="4.40789">
        <ele>17.92</ele>
        <time>2016-06-19T16:43:58Z</time>
      </trkpt>
      <trkpt lat="43.67116" lon="4.40765">
        <ele>18.4</ele>
        <time>2016-06-19T16:43:59Z</time>
      </trkpt>
      <trkpt lat="43.67116" lon="4.40741">
        <ele>18.4</ele>
        <time>2016-06-19T16:44:00Z</time>
      </trkpt>
      <trkpt lat="43.6712" lon="4.40424">
        <ele>19.36</ele>
        <time>2016-06-19T16:44:13Z</time>
      </trkpt>
      <trkpt lat="43.67133" lon="4.40242">
        <ele>19.84</ele>
        <time>2016-06-19T16:44:21Z</time>
      </trkpt>
      <trkpt lat="43.67119" lon="4.4006">
        <ele>19.36</ele>
        <time>2016-06-19T16:44:29Z</time>
      </trkpt>
      <trkpt lat="43.67111" lon="4.39845">
        <ele>18.4</ele>
        <time>2016-06-19T16:44:38Z</time>
      </trkpt>
      <trkpt lat="43.67121" lon="4.39671">
        <ele>18.4</ele>
        <time>2016-06-19T16:44:44Z</time>
      </trkpt>
      <trkpt lat="43.67122" lon="4.39642">
        <ele>18.4</ele>
        <time>2016-06-19T16:44:45Z</time>
      </trkpt>
      <trkpt lat="43.6712" lon="4.39613">
        <ele>17.92</ele>
        <time>2016-06-19T16:44:46Z</time>
      </trkpt>
      <trkpt lat="43.67115" lon="4.39585">
        <ele>17.92</ele>
        <time>2016-06-19T16:44:47Z</time>
      </trkpt>
      <trkpt lat="43.67052" lon="4.39319">
        <ele>16</ele>
        <time>2016-06-19T16:44:56Z</time>
      </trkpt>
      <trkpt lat="43.66977" lon="4.39152">
        <ele>15.52</ele>
        <time>2016-06-19T16:45:02Z</time>
      </trkpt>
      <trkpt lat="43.66888" lon="4.39004">
        <ele>14.08</ele>
        <time>2016-06-19T16:45:08Z</time>
      </trkpt>
      <trkpt lat="43.66878" lon="4.38973">
        <ele>14.08</ele>
        <time>2016-06-19T16:45:09Z</time>
      </trkpt>
      <trkpt lat="43.66872" lon="4.38939">
        <ele>13.6</ele>
        <time>2016-06-19T16:45:10Z</time>
      </trkpt>
      <trkpt lat="43.66867" lon="4.38905">
        <ele>13.6</ele>
        <time>2016-06-19T16:45:11Z</time>
      </trkpt>
      <trkpt lat="43.66865" lon="4.38869">
        <ele>13.12</ele>
        <time>2016-06-19T16:45:12Z</time>
      </trkpt>
      <trkpt lat="43.66864" lon="4.38832">
        <ele>12.15</ele>
        <time>2016-06-19T16:45:13Z</time>
      </trkpt>
      <trkpt lat="43.66857" lon="4.38617">
        <ele>9.75</ele>
        <time>2016-06-19T16:45:20Z</time>
      </trkpt>
      <trkpt lat="43.66859" lon="4.38596">
        <ele>9.75</ele>
        <time>2016-06-19T16:45:21Z</time>
      </trkpt>
      <trkpt lat="43.66866" lon="4.38576">
        <ele>9.27</ele>
        <time>2016-06-19T16:45:22Z</time>
      </trkpt>
      <trkpt lat="43.66878" lon="4.38555">
        <ele>8.79</ele>
        <time>2016-06-19T16:45:23Z</time>
      </trkpt>
      <trkpt lat="43.66895" lon="4.38536">
        <ele>8.79</ele>
        <time>2016-06-19T16:45:24Z</time>
      </trkpt>
      <trkpt lat="43.66912" lon="4.38516">
        <ele>8.31</ele>
        <time>2016-06-19T16:45:25Z</time>
      </trkpt>
      <trkpt lat="43.6699" lon="4.38441">
        <ele>8.31</ele>
        <time>2016-06-19T16:45:30Z</time>
      </trkpt>
      <trkpt lat="43.66999" lon="4.38427">
        <ele>8.31</ele>
        <time>2016-06-19T16:45:31Z</time>
      </trkpt>
      <trkpt lat="43.67002" lon="4.38411">
        <ele>8.31</ele>
        <time>2016-06-19T16:45:32Z</time>
      </trkpt>
      <trkpt lat="43.67002" lon="4.38393">
        <ele>7.83</ele>
        <time>2016-06-19T16:45:33Z</time>
      </trkpt>
      <trkpt lat="43.66996" lon="4.38371">
        <ele>7.83</ele>
        <time>2016-06-19T16:45:34Z</time>
      </trkpt>
      <trkpt lat="43.6699" lon="4.38349">
        <ele>7.83</ele>
        <time>2016-06-19T16:45:35Z</time>
      </trkpt>
      <trkpt lat="43.6698" lon="4.38329">
        <ele>7.83</ele>
        <time>2016-06-19T16:45:36Z</time>
      </trkpt>
      <trkpt lat="43.66966" lon="4.38308">
        <ele>8.79</ele>
        <time>2016-06-19T16:45:37Z</time>
      </trkpt>
      <trkpt lat="43.66947" lon="4.38288">
        <ele>9.27</ele>
        <time>2016-06-19T16:45:38Z</time>
      </trkpt>
      <trkpt lat="43.66928" lon="4.38269">
        <ele>9.27</ele>
        <time>2016-06-19T16:45:39Z</time>
      </trkpt>
      <trkpt lat="43.6691" lon="4.3825">
        <ele>9.27</ele>
        <time>2016-06-19T16:45:40Z</time>
      </trkpt>
      <trkpt lat="43.66875" lon="4.38206">
        <ele>9.75</ele>
        <time>2016-06-19T16:45:42Z</time>
      </trkpt>
      <trkpt lat="43.66859" lon="4.3818">
        <ele>9.75</ele>
        <time>2016-06-19T16:45:43Z</time>
      </trkpt>
      <trkpt lat="43.66694" lon="4.37859">
        <ele>7.35</ele>
        <time>2016-06-19T16:45:55Z</time>
      </trkpt>
      <trkpt lat="43.66687" lon="4.37829">
        <ele>7.35</ele>
        <time>2016-06-19T16:45:56Z</time>
      </trkpt>
      <trkpt lat="43.66685" lon="4.37797">
        <ele>7.35</ele>
        <time>2016-06-19T16:45:57Z</time>
      </trkpt>
      <trkpt lat="43.66684" lon="4.37765">
        <ele>7.35</ele>
        <time>2016-06-19T16:45:58Z</time>
      </trkpt>
      <trkpt lat="43.66684" lon="4.37733">
        <ele>7.35</ele>
        <time>2016-06-19T16:45:59Z</time>
      </trkpt>
      <trkpt lat="43.66675" lon="4.37338">
        <ele>8.79</ele>
        <time>2016-06-19T16:46:12Z</time>
      </trkpt>
      <trkpt lat="43.66664" lon="4.37051">
        <ele>10.71</ele>
        <time>2016-06-19T16:46:22Z</time>
      </trkpt>
      <trkpt lat="43.66657" lon="4.3703">
        <ele>11.19</ele>
        <time>2016-06-19T16:46:23Z</time>
      </trkpt>
      <trkpt lat="43.66647" lon="4.37008">
        <ele>11.19</ele>
        <time>2016-06-19T16:46:24Z</time>
      </trkpt>
      <trkpt lat="43.66632" lon="4.36986">
        <ele>11.19</ele>
        <time>2016-06-19T16:46:25Z</time>
      </trkpt>
      <trkpt lat="43.66617" lon="4.36962">
        <ele>10.71</ele>
        <time>2016-06-19T16:46:26Z</time>
      </trkpt>
      <trkpt lat="43.66478" lon="4.36746">
        <ele>10.23</ele>
        <time>2016-06-19T16:46:34Z</time>
      </trkpt>
      <trkpt lat="43.66253" lon="4.36401">
        <ele>6.87</ele>
        <time>2016-06-19T16:46:47Z</time>
      </trkpt>
      <trkpt lat="43.66119" lon="4.36187">
        <ele>5.91</ele>
        <time>2016-06-19T16:46:55Z</time>
      </trkpt>
      <trkpt lat="43.66106" lon="4.36155">
        <ele>5.91</ele>
        <time>2016-06-19T16:46:56Z</time>
      </trkpt>
      <trkpt lat="43.6593" lon="4.35667">
        <ele>5.42</ele>
        <time>2016-06-19T16:47:11Z</time>
      </trkpt>
      <trkpt lat="43.65683" lon="4.34961">
        <ele>9.75</ele>
        <time>2016-06-19T16:47:32Z</time>
      </trkpt>
      <trkpt lat="43.65526" lon="4.3451">
        <ele>14.56</ele>
        <time>2016-06-19T16:47:46Z</time>
      </trkpt>
      <trkpt lat="43.65321" lon="4.33915">
        <ele>15.04</ele>
        <time>2016-06-19T16:48:05Z</time>
      </trkpt>
      <trkpt lat="43.65204" lon="4.33569">
        <ele>16.96</ele>
        <time>2016-06-19T16:48:17Z</time>
      </trkpt>
      <trkpt lat="43.6511" lon="4.33292">
        <ele>16.48</ele>
        <time>2016-06-19T16:48:27Z</time>
      </trkpt>
      <trkpt lat="43.64989" lon="4.32919">
        <ele>13.12</ele>
        <time>2016-06-19T16:48:37Z</time>
      </trkpt>
      <trkpt lat="43.64877" lon="4.32572">
        <ele>11.19</ele>
        <time>2016-06-19T16:48:47Z</time>
      </trkpt>
      <trkpt lat="43.64859" lon="4.32474">
        <ele>9.75</ele>
        <time>2016-06-19T16:48:50Z</time>
      </trkpt>
      <trkpt lat="43.6486" lon="4.32439">
        <ele>9.75</ele>
        <time>2016-06-19T16:48:51Z</time>
      </trkpt>
      <trkpt lat="43.64865" lon="4.32404">
        <ele>9.27</ele>
        <time>2016-06-19T16:48:52Z</time>
      </trkpt>
      <trkpt lat="43.64872" lon="4.32369">
        <ele>8.79</ele>
        <time>2016-06-19T16:48:53Z</time>
      </trkpt>
      <trkpt lat="43.64879" lon="4.32332">
        <ele>8.31</ele>
        <time>2016-06-19T16:48:54Z</time>
      </trkpt>
      <trkpt lat="43.64898" lon="4.32119">
        <ele>10.23</ele>
        <time>2016-06-19T16:49:00Z</time>
      </trkpt>
      <trkpt lat="43.64901" lon="4.31924">
        <ele>10.71</ele>
        <time>2016-06-19T16:49:06Z</time>
      </trkpt>
      <trkpt lat="43.64907" lon="4.31894">
        <ele>11.19</ele>
        <time>2016-06-19T16:49:07Z</time>
      </trkpt>
      <trkpt lat="43.64916" lon="4.31865">
        <ele>11.67</ele>
        <time>2016-06-19T16:49:08Z</time>
      </trkpt>
      <trkpt lat="43.6502" lon="4.31576">
        <ele>15.52</ele>
        <time>2016-06-19T16:49:17Z</time>
      </trkpt>
      <trkpt lat="43.65124" lon="4.31198">
        <ele>18.88</ele>
        <time>2016-06-19T16:49:28Z</time>
      </trkpt>
      <trkpt lat="43.65214" lon="4.30796">
        <ele>18.88</ele>
        <time>2016-06-19T16:49:40Z</time>
      </trkpt>
      <trkpt lat="43.65239" lon="4.30582">
        <ele>17.92</ele>
        <time>2016-06-19T16:49:48Z</time>
      </trkpt>
      <trkpt lat="43.65273" lon="4.30296">
        <ele>24.17</ele>
        <time>2016-06-19T16:50:01Z</time>
      </trkpt>
      <trkpt lat="43.6531" lon="4.30066">
        <ele>25.61</ele>
        <time>2016-06-19T16:50:10Z</time>
      </trkpt>
      <trkpt lat="43.65349" lon="4.29862">
        <ele>28.02</ele>
        <time>2016-06-19T16:50:19Z</time>
      </trkpt>
      <trkpt lat="43.65377" lon="4.29707">
        <ele>30.42</ele>
        <time>2016-06-19T16:50:30Z</time>
      </trkpt>
      <trkpt lat="43.65423" lon="4.2947">
        <ele>33.3</ele>
        <time>2016-06-19T16:50:43Z</time>
      </trkpt>
      <trkpt lat="43.65488" lon="4.29254">
        <ele>33.78</ele>
        <time>2016-06-19T16:50:53Z</time>
      </trkpt>
      <trkpt lat="43.65544" lon="4.29045">
        <ele>37.15</ele>
        <time>2016-06-19T16:51:02Z</time>
      </trkpt>
      <trkpt lat="43.65562" lon="4.28888">
        <ele>33.78</ele>
        <time>2016-06-19T16:51:10Z</time>
      </trkpt>
      <trkpt lat="43.65564" lon="4.28868">
        <ele>33.3</ele>
        <time>2016-06-19T16:51:11Z</time>
      </trkpt>
      <trkpt lat="43.65568" lon="4.28847">
        <ele>32.82</ele>
        <time>2016-06-19T16:51:12Z</time>
      </trkpt>
      <trkpt lat="43.65575" lon="4.28826">
        <ele>32.34</ele>
        <time>2016-06-19T16:51:13Z</time>
      </trkpt>
      <trkpt lat="43.65584" lon="4.28806">
        <ele>31.86</ele>
        <time>2016-06-19T16:51:14Z</time>
      </trkpt>
      <trkpt lat="43.65594" lon="4.28787">
        <ele>31.86</ele>
        <time>2016-06-19T16:51:15Z</time>
      </trkpt>
      <trkpt lat="43.65708" lon="4.28556">
        <ele>36.19</ele>
        <time>2016-06-19T16:51:28Z</time>
      </trkpt>
      <trkpt lat="43.65739" lon="4.28506">
        <ele>37.63</ele>
        <time>2016-06-19T16:51:31Z</time>
      </trkpt>
      <trkpt lat="43.65752" lon="4.28493">
        <ele>38.11</ele>
        <time>2016-06-19T16:51:32Z</time>
      </trkpt>
      <trkpt lat="43.65767" lon="4.28482">
        <ele>38.59</ele>
        <time>2016-06-19T16:51:33Z</time>
      </trkpt>
      <trkpt lat="43.65783" lon="4.28474">
        <ele>39.07</ele>
        <time>2016-06-19T16:51:34Z</time>
      </trkpt>
      <trkpt lat="43.65799" lon="4.28471">
        <ele>39.55</ele>
        <time>2016-06-19T16:51:35Z</time>
      </trkpt>
      <trkpt lat="43.65815" lon="4.28471">
        <ele>40.03</ele>
        <time>2016-06-19T16:51:36Z</time>
      </trkpt>
      <trkpt lat="43.65832" lon="4.28474">
        <ele>40.51</ele>
        <time>2016-06-19T16:51:37Z</time>
      </trkpt>
      <trkpt lat="43.65849" lon="4.28478">
        <ele>40.99</ele>
        <time>2016-06-19T16:51:38Z</time>
      </trkpt>
      <trkpt lat="43.66094" lon="4.28549">
        <ele>47.24</ele>
        <time>2016-06-19T16:51:52Z</time>
      </trkpt>
      <trkpt lat="43.66113" lon="4.28548">
        <ele>47.24</ele>
        <time>2016-06-19T16:51:53Z</time>
      </trkpt>
      <trkpt lat="43.66132" lon="4.28543">
        <ele>47.72</ele>
        <time>2016-06-19T16:51:54Z</time>
      </trkpt>
      <trkpt lat="43.66303" lon="4.28486">
        <ele>50.61</ele>
        <time>2016-06-19T16:52:04Z</time>
      </trkpt>
      <trkpt lat="43.6644" lon="4.28433">
        <ele>51.57</ele>
        <time>2016-06-19T16:52:10Z</time>
      </trkpt>
      <trkpt lat="43.66639" lon="4.28364">
        <ele>49.16</ele>
        <time>2016-06-19T16:52:17Z</time>
      </trkpt>
      <trkpt lat="43.66832" lon="4.28274">
        <ele>48.2</ele>
        <time>2016-06-19T16:52:24Z</time>
      </trkpt>
      <trkpt lat="43.66877" lon="4.28257">
        <ele>48.68</ele>
        <time>2016-06-19T16:52:26Z</time>
      </trkpt>
      <trkpt lat="43.66901" lon="4.28252">
        <ele>49.65</ele>
        <time>2016-06-19T16:52:27Z</time>
      </trkpt>
      <trkpt lat="43.67058" lon="4.28224">
        <ele>54.45</ele>
        <time>2016-06-19T16:52:33Z</time>
      </trkpt>
      <trkpt lat="43.67239" lon="4.28142">
        <ele>58.78</ele>
        <time>2016-06-19T16:52:41Z</time>
      </trkpt>
      <trkpt lat="43.67672" lon="4.27948">
        <ele>62.62</ele>
        <time>2016-06-19T16:53:01Z</time>
      </trkpt>
      <trkpt lat="43.68005" lon="4.27802">
        <ele>64.07</ele>
        <time>2016-06-19T16:53:16Z</time>
      </trkpt>
      <trkpt lat="43.68038" lon="4.27785">
        <ele>64.07</ele>
        <time>2016-06-19T16:53:18Z</time>
      </trkpt>
      <trkpt lat="43.68052" lon="4.27772">
        <ele>64.07</ele>
        <time>2016-06-19T16:53:19Z</time>
      </trkpt>
      <trkpt lat="43.68061" lon="4.27751">
        <ele>63.58</ele>
        <time>2016-06-19T16:53:20Z</time>
      </trkpt>
      <trkpt lat="43.68069" lon="4.27729">
        <ele>63.58</ele>
        <time>2016-06-19T16:53:21Z</time>
      </trkpt>
      <trkpt lat="43.68076" lon="4.27704">
        <ele>63.1</ele>
        <time>2016-06-19T16:53:22Z</time>
      </trkpt>
      <trkpt lat="43.68082" lon="4.2768">
        <ele>62.14</ele>
        <time>2016-06-19T16:53:23Z</time>
      </trkpt>
      <trkpt lat="43.68099" lon="4.27639">
        <ele>60.7</ele>
        <time>2016-06-19T16:53:25Z</time>
      </trkpt>
      <trkpt lat="43.68112" lon="4.27622">
        <ele>60.22</ele>
        <time>2016-06-19T16:53:26Z</time>
      </trkpt>
      <trkpt lat="43.68128" lon="4.27613">
        <ele>59.26</ele>
        <time>2016-06-19T16:53:27Z</time>
      </trkpt>
      <trkpt lat="43.68145" lon="4.27611">
        <ele>58.78</ele>
        <time>2016-06-19T16:53:28Z</time>
      </trkpt>
      <trkpt lat="43.68164" lon="4.27616">
        <ele>57.82</ele>
        <time>2016-06-19T16:53:29Z</time>
      </trkpt>
      <trkpt lat="43.68179" lon="4.27617">
        <ele>56.86</ele>
        <time>2016-06-19T16:53:30Z</time>
      </trkpt>
      <trkpt lat="43.68199" lon="4.27625">
        <ele>55.41</ele>
        <time>2016-06-19T16:53:31Z</time>
      </trkpt>
      <trkpt lat="43.6822" lon="4.27631">
        <ele>54.45</ele>
        <time>2016-06-19T16:53:32Z</time>
      </trkpt>
      <trkpt lat="43.68242" lon="4.27629">
        <ele>53.01</ele>
        <time>2016-06-19T16:53:33Z</time>
      </trkpt>
      <trkpt lat="43.68262" lon="4.2762">
        <ele>52.05</ele>
        <time>2016-06-19T16:53:34Z</time>
      </trkpt>
      <trkpt lat="43.68281" lon="4.27606">
        <ele>50.61</ele>
        <time>2016-06-19T16:53:35Z</time>
      </trkpt>
      <trkpt lat="43.68297" lon="4.27585">
        <ele>49.65</ele>
        <time>2016-06-19T16:53:36Z</time>
      </trkpt>
      <trkpt lat="43.6831" lon="4.27563">
        <ele>48.68</ele>
        <time>2016-06-19T16:53:37Z</time>
      </trkpt>
      <trkpt lat="43.6832" lon="4.27539">
        <ele>47.72</ele>
        <time>2016-06-19T16:53:38Z</time>
      </trkpt>
      <trkpt lat="43.68328" lon="4.27513">
        <ele>46.76</ele>
        <time>2016-06-19T16:53:39Z</time>
      </trkpt>
      <trkpt lat="43.68332" lon="4.27488">
        <ele>45.8</ele>
        <time>2016-06-19T16:53:40Z</time>
      </trkpt>
      <trkpt lat="43.68337" lon="4.27464">
        <ele>44.84</ele>
        <time>2016-06-19T16:53:41Z</time>
      </trkpt>
      <trkpt lat="43.68348" lon="4.27423">
        <ele>42.92</ele>
        <time>2016-06-19T16:53:43Z</time>
      </trkpt>
      <trkpt lat="43.68357" lon="4.27407">
        <ele>41.95</ele>
        <time>2016-06-19T16:53:44Z</time>
      </trkpt>
      <trkpt lat="43.68369" lon="4.27393">
        <ele>41.47</ele>
        <time>2016-06-19T16:53:45Z</time>
      </trkpt>
      <trkpt lat="43.68384" lon="4.27384">
        <ele>40.99</ele>
        <time>2016-06-19T16:53:46Z</time>
      </trkpt>
      <trkpt lat="43.684" lon="4.27377">
        <ele>40.51</ele>
        <time>2016-06-19T16:53:47Z</time>
      </trkpt>
      <trkpt lat="43.68419" lon="4.27372">
        <ele>40.03</ele>
        <time>2016-06-19T16:53:48Z</time>
      </trkpt>
      <trkpt lat="43.68437" lon="4.27369">
        <ele>39.55</ele>
        <time>2016-06-19T16:53:49Z</time>
      </trkpt>
      <trkpt lat="43.68457" lon="4.27369">
        <ele>39.55</ele>
        <time>2016-06-19T16:53:50Z</time>
      </trkpt>
      <trkpt lat="43.68477" lon="4.2737">
        <ele>39.55</ele>
        <time>2016-06-19T16:53:51Z</time>
      </trkpt>
      <trkpt lat="43.68497" lon="4.27375">
        <ele>39.07</ele>
        <time>2016-06-19T16:53:52Z</time>
      </trkpt>
      <trkpt lat="43.68518" lon="4.27379">
        <ele>39.07</ele>
        <time>2016-06-19T16:53:53Z</time>
      </trkpt>
      <trkpt lat="43.68695" lon="4.2744">
        <ele>40.03</ele>
        <time>2016-06-19T16:54:03Z</time>
      </trkpt>
      <trkpt lat="43.68805" lon="4.27502">
        <ele>40.51</ele>
        <time>2016-06-19T16:54:12Z</time>
      </trkpt>
      <trkpt lat="43.68916" lon="4.27562">
        <ele>39.55</ele>
        <time>2016-06-19T16:54:23Z</time>
      </trkpt>
      <trkpt lat="43.68957" lon="4.27581">
        <ele>38.59</ele>
        <time>2016-06-19T16:54:28Z</time>
      </trkpt>
      <trkpt lat="43.68964" lon="4.27581">
        <ele>38.59</ele>
        <time>2016-06-19T16:54:29Z</time>
      </trkpt>
      <trkpt lat="43.68971" lon="4.27574">
        <ele>38.11</ele>
        <time>2016-06-19T16:54:30Z</time>
      </trkpt>
      <trkpt lat="43.68976" lon="4.27566">
        <ele>37.15</ele>
        <time>2016-06-19T16:54:31Z</time>
      </trkpt>
      <trkpt lat="43.6898" lon="4.27555">
        <ele>36.19</ele>
        <time>2016-06-19T16:54:32Z</time>
      </trkpt>
      <trkpt lat="43.68985" lon="4.27544">
        <ele>35.71</ele>
        <time>2016-06-19T16:54:33Z</time>
      </trkpt>
      <trkpt lat="43.69046" lon="4.27398">
        <ele>30.9</ele>
        <time>2016-06-19T16:54:46Z</time>
      </trkpt>
      <trkpt lat="43.691" lon="4.27263">
        <ele>27.05</ele>
        <time>2016-06-19T16:54:56Z</time>
      </trkpt>
      <trkpt lat="43.69103" lon="4.27246">
        <ele>27.05</ele>
        <time>2016-06-19T16:54:57Z</time>
      </trkpt>
      <trkpt lat="43.69105" lon="4.27229">
        <ele>26.57</ele>
        <time>2016-06-19T16:54:58Z</time>
      </trkpt>
      <trkpt lat="43.69105" lon="4.27022">
        <ele>22.73</ele>
        <time>2016-06-19T16:55:10Z</time>
      </trkpt>
      <trkpt lat="43.69098" lon="4.26959">
        <ele>21.77</ele>
        <time>2016-06-19T16:55:17Z</time>
      </trkpt>
      <trkpt lat="43.69096" lon="4.26951">
        <ele>24.17</ele>
        <time>2016-06-19T16:55:28Z</time>
      </trkpt>
      <trkpt lat="43.69089" lon="4.26915">
        <ele>28.02</ele>
        <time>2016-06-19T16:55:55Z</time>
      </trkpt>
      <trkpt lat="43.69077" lon="4.26808">
        <ele>26.57</ele>
        <time>2016-06-19T16:56:03Z</time>
      </trkpt>
      <trkpt lat="43.69055" lon="4.26633">
        <ele>20.32</ele>
        <time>2016-06-19T16:56:12Z</time>
      </trkpt>
      <trkpt lat="43.69027" lon="4.26368">
        <ele>15.52</ele>
        <time>2016-06-19T16:56:22Z</time>
      </trkpt>
      <trkpt lat="43.69015" lon="4.26128">
        <ele>13.6</ele>
        <time>2016-06-19T16:56:31Z</time>
      </trkpt>
      <trkpt lat="43.6899" lon="4.25752">
        <ele>12.63</ele>
        <time>2016-06-19T16:56:45Z</time>
      </trkpt>
      <trkpt lat="43.68906" lon="4.25413">
        <ele>11.19</ele>
        <time>2016-06-19T16:56:58Z</time>
      </trkpt>
      <trkpt lat="43.68836" lon="4.25172">
        <ele>10.71</ele>
        <time>2016-06-19T16:57:09Z</time>
      </trkpt>
      <trkpt lat="43.68829" lon="4.25145">
        <ele>10.71</ele>
        <time>2016-06-19T16:57:11Z</time>
      </trkpt>
      <trkpt lat="43.68829" lon="4.25134">
        <ele>10.71</ele>
        <time>2016-06-19T16:57:12Z</time>
      </trkpt>
      <trkpt lat="43.6883" lon="4.25124">
        <ele>10.71</ele>
        <time>2016-06-19T16:57:13Z</time>
      </trkpt>
      <trkpt lat="43.6883" lon="4.25113">
        <ele>10.71</ele>
        <time>2016-06-19T16:57:14Z</time>
      </trkpt>
      <trkpt lat="43.68828" lon="4.25102">
        <ele>10.23</ele>
        <time>2016-06-19T16:57:15Z</time>
      </trkpt>
      <trkpt lat="43.68821" lon="4.25095">
        <ele>10.23</ele>
        <time>2016-06-19T16:57:16Z</time>
      </trkpt>
      <trkpt lat="43.68813" lon="4.25086">
        <ele>10.23</ele>
        <time>2016-06-19T16:57:17Z</time>
      </trkpt>
      <trkpt lat="43.68804" lon="4.25073">
        <ele>9.75</ele>
        <time>2016-06-19T16:57:18Z</time>
      </trkpt>
      <trkpt lat="43.68797" lon="4.25056">
        <ele>9.75</ele>
        <time>2016-06-19T16:57:19Z</time>
      </trkpt>
      <trkpt lat="43.6879" lon="4.25037">
        <ele>9.75</ele>
        <time>2016-06-19T16:57:20Z</time>
      </trkpt>
      <trkpt lat="43.68735" lon="4.24852">
        <ele>8.79</ele>
        <time>2016-06-19T16:57:29Z</time>
      </trkpt>
      <trkpt lat="43.68733" lon="4.24829">
        <ele>8.79</ele>
        <time>2016-06-19T16:57:30Z</time>
      </trkpt>
      <trkpt lat="43.68732" lon="4.24806">
        <ele>8.79</ele>
        <time>2016-06-19T16:57:31Z</time>
      </trkpt>
      <trkpt lat="43.68732" lon="4.24783">
        <ele>8.79</ele>
        <time>2016-06-19T16:57:32Z</time>
      </trkpt>
      <trkpt lat="43.68734" lon="4.24759">
        <ele>8.79</ele>
        <time>2016-06-19T16:57:33Z</time>
      </trkpt>
      <trkpt lat="43.68738" lon="4.24734">
        <ele>9.27</ele>
        <time>2016-06-19T16:57:34Z</time>
      </trkpt>
      <trkpt lat="43.68743" lon="4.2471">
        <ele>8.79</ele>
        <time>2016-06-19T16:57:35Z</time>
      </trkpt>
      <trkpt lat="43.6875" lon="4.24687">
        <ele>8.79</ele>
        <time>2016-06-19T16:57:36Z</time>
      </trkpt>
      <trkpt lat="43.68758" lon="4.24664">
        <ele>9.27</ele>
        <time>2016-06-19T16:57:37Z</time>
      </trkpt>
      <trkpt lat="43.68768" lon="4.24643">
        <ele>9.27</ele>
        <time>2016-06-19T16:57:38Z</time>
      </trkpt>
      <trkpt lat="43.68777" lon="4.24623">
        <ele>9.75</ele>
        <time>2016-06-19T16:57:39Z</time>
      </trkpt>
      <trkpt lat="43.68837" lon="4.24428">
        <ele>11.19</ele>
        <time>2016-06-19T16:57:47Z</time>
      </trkpt>
      <trkpt lat="43.68902" lon="4.24122">
        <ele>9.27</ele>
        <time>2016-06-19T16:57:59Z</time>
      </trkpt>
      <trkpt lat="43.68901" lon="4.24096">
        <ele>9.27</ele>
        <time>2016-06-19T16:58:00Z</time>
      </trkpt>
      <trkpt lat="43.68899" lon="4.2407">
        <ele>9.27</ele>
        <time>2016-06-19T16:58:01Z</time>
      </trkpt>
      <trkpt lat="43.68895" lon="4.24045">
        <ele>9.27</ele>
        <time>2016-06-19T16:58:02Z</time>
      </trkpt>
      <trkpt lat="43.6889" lon="4.24021">
        <ele>9.27</ele>
        <time>2016-06-19T16:58:03Z</time>
      </trkpt>
      <trkpt lat="43.68884" lon="4.23997">
        <ele>9.27</ele>
        <time>2016-06-19T16:58:04Z</time>
      </trkpt>
      <trkpt lat="43.68876" lon="4.23974">
        <ele>9.27</ele>
        <time>2016-06-19T16:58:05Z</time>
      </trkpt>
      <trkpt lat="43.68868" lon="4.23951">
        <ele>9.27</ele>
        <time>2016-06-19T16:58:06Z</time>
      </trkpt>
      <trkpt lat="43.6875" lon="4.2362">
        <ele>11.19</ele>
        <time>2016-06-19T16:58:21Z</time>
      </trkpt>
      <trkpt lat="43.68718" lon="4.23398">
        <ele>10.23</ele>
        <time>2016-06-19T16:58:30Z</time>
      </trkpt>
      <trkpt lat="43.68715" lon="4.2327">
        <ele>10.23</ele>
        <time>2016-06-19T16:58:37Z</time>
      </trkpt>
      <trkpt lat="43.68718" lon="4.23257">
        <ele>10.23</ele>
        <time>2016-06-19T16:58:38Z</time>
      </trkpt>
      <trkpt lat="43.68723" lon="4.23244">
        <ele>10.23</ele>
        <time>2016-06-19T16:58:39Z</time>
      </trkpt>
      <trkpt lat="43.68727" lon="4.23232">
        <ele>10.23</ele>
        <time>2016-06-19T16:58:40Z</time>
      </trkpt>
      <trkpt lat="43.68729" lon="4.23219">
        <ele>10.23</ele>
        <time>2016-06-19T16:58:41Z</time>
      </trkpt>
      <trkpt lat="43.68726" lon="4.23208">
        <ele>10.23</ele>
        <time>2016-06-19T16:58:42Z</time>
      </trkpt>
      <trkpt lat="43.68721" lon="4.23195">
        <ele>10.23</ele>
        <time>2016-06-19T16:58:43Z</time>
      </trkpt>
      <trkpt lat="43.68713" lon="4.2318">
        <ele>10.23</ele>
        <time>2016-06-19T16:58:44Z</time>
      </trkpt>
      <trkpt lat="43.68708" lon="4.2316">
        <ele>10.23</ele>
        <time>2016-06-19T16:58:45Z</time>
      </trkpt>
      <trkpt lat="43.68705" lon="4.23139">
        <ele>10.23</ele>
        <time>2016-06-19T16:58:46Z</time>
      </trkpt>
      <trkpt lat="43.68704" lon="4.23116">
        <ele>10.23</ele>
        <time>2016-06-19T16:58:47Z</time>
      </trkpt>
      <trkpt lat="43.68716" lon="4.22895">
        <ele>9.75</ele>
        <time>2016-06-19T16:58:56Z</time>
      </trkpt>
      <trkpt lat="43.68725" lon="4.22609">
        <ele>9.27</ele>
        <time>2016-06-19T16:59:07Z</time>
      </trkpt>
      <trkpt lat="43.68723" lon="4.22514">
        <ele>10.23</ele>
        <time>2016-06-19T16:59:11Z</time>
      </trkpt>
      <trkpt lat="43.68722" lon="4.22337">
        <ele>9.75</ele>
        <time>2016-06-19T16:59:19Z</time>
      </trkpt>
      <trkpt lat="43.68758" lon="4.221">
        <ele>10.71</ele>
        <time>2016-06-19T16:59:29Z</time>
      </trkpt>
      <trkpt lat="43.68771" lon="4.21876">
        <ele>10.23</ele>
        <time>2016-06-19T16:59:38Z</time>
      </trkpt>
      <trkpt lat="43.6879" lon="4.21639">
        <ele>10.23</ele>
        <time>2016-06-19T16:59:50Z</time>
      </trkpt>
      <trkpt lat="43.68794" lon="4.2156">
        <ele>10.71</ele>
        <time>2016-06-19T16:59:57Z</time>
      </trkpt>
      <trkpt lat="43.68795" lon="4.21555">
        <ele>10.23</ele>
        <time>2016-06-19T16:59:58Z</time>
      </trkpt>
      <trkpt lat="43.68797" lon="4.21551">
        <ele>10.23</ele>
        <time>2016-06-19T16:59:59Z</time>
      </trkpt>
      <trkpt lat="43.68801" lon="4.21546">
        <ele>10.23</ele>
        <time>2016-06-19T17:00:00Z</time>
      </trkpt>
      <trkpt lat="43.68806" lon="4.21541">
        <ele>10.23</ele>
        <time>2016-06-19T17:00:01Z</time>
      </trkpt>
      <trkpt lat="43.68812" lon="4.21535">
        <ele>10.23</ele>
        <time>2016-06-19T17:00:02Z</time>
      </trkpt>
      <trkpt lat="43.68817" lon="4.21527">
        <ele>10.23</ele>
        <time>2016-06-19T17:00:03Z</time>
      </trkpt>
      <trkpt lat="43.68821" lon="4.21518">
        <ele>10.23</ele>
        <time>2016-06-19T17:00:04Z</time>
      </trkpt>
      <trkpt lat="43.68824" lon="4.21507">
        <ele>10.23</ele>
        <time>2016-06-19T17:00:05Z</time>
      </trkpt>
      <trkpt lat="43.68824" lon="4.21494">
        <ele>10.23</ele>
        <time>2016-06-19T17:00:06Z</time>
      </trkpt>
      <trkpt lat="43.68821" lon="4.21482">
        <ele>10.23</ele>
        <time>2016-06-19T17:00:07Z</time>
      </trkpt>
      <trkpt lat="43.68816" lon="4.2147">
        <ele>9.75</ele>
        <time>2016-06-19T17:00:08Z</time>
      </trkpt>
      <trkpt lat="43.68809" lon="4.2146">
        <ele>9.27</ele>
        <time>2016-06-19T17:00:09Z</time>
      </trkpt>
      <trkpt lat="43.68801" lon="4.21451">
        <ele>9.27</ele>
        <time>2016-06-19T17:00:10Z</time>
      </trkpt>
      <trkpt lat="43.68794" lon="4.2144">
        <ele>8.79</ele>
        <time>2016-06-19T17:00:11Z</time>
      </trkpt>
      <trkpt lat="43.68793" lon="4.21424">
        <ele>8.79</ele>
        <time>2016-06-19T17:00:12Z</time>
      </trkpt>
      <trkpt lat="43.68795" lon="4.21408">
        <ele>9.27</ele>
        <time>2016-06-19T17:00:13Z</time>
      </trkpt>
      <trkpt lat="43.68799" lon="4.21391">
        <ele>9.27</ele>
        <time>2016-06-19T17:00:14Z</time>
      </trkpt>
      <trkpt lat="43.68804" lon="4.21372">
        <ele>8.31</ele>
        <time>2016-06-19T17:00:15Z</time>
      </trkpt>
      <trkpt lat="43.68834" lon="4.21223">
        <ele>8.31</ele>
        <time>2016-06-19T17:00:22Z</time>
      </trkpt>
      <trkpt lat="43.68833" lon="4.21204">
        <ele>8.31</ele>
        <time>2016-06-19T17:00:23Z</time>
      </trkpt>
      <trkpt lat="43.68827" lon="4.21188">
        <ele>8.31</ele>
        <time>2016-06-19T17:00:24Z</time>
      </trkpt>
      <trkpt lat="43.6882" lon="4.21174">
        <ele>8.31</ele>
        <time>2016-06-19T17:00:25Z</time>
      </trkpt>
      <trkpt lat="43.68811" lon="4.21164">
        <ele>8.31</ele>
        <time>2016-06-19T17:00:26Z</time>
      </trkpt>
      <trkpt lat="43.68801" lon="4.21157">
        <ele>8.31</ele>
        <time>2016-06-19T17:00:27Z</time>
      </trkpt>
      <trkpt lat="43.68791" lon="4.2115">
        <ele>8.31</ele>
        <time>2016-06-19T17:00:28Z</time>
      </trkpt>
      <trkpt lat="43.6878" lon="4.21142">
        <ele>8.31</ele>
        <time>2016-06-19T17:00:29Z</time>
      </trkpt>
      <trkpt lat="43.68709" lon="4.21091">
        <ele>8.79</ele>
        <time>2016-06-19T17:00:36Z</time>
      </trkpt>
      <trkpt lat="43.68701" lon="4.21081">
        <ele>8.79</ele>
        <time>2016-06-19T17:00:37Z</time>
      </trkpt>
      <trkpt lat="43.68695" lon="4.21068">
        <ele>9.27</ele>
        <time>2016-06-19T17:00:38Z</time>
      </trkpt>
      <trkpt lat="43.6869" lon="4.21055">
        <ele>9.75</ele>
        <time>2016-06-19T17:00:39Z</time>
      </trkpt>
      <trkpt lat="43.68686" lon="4.2104">
        <ele>9.75</ele>
        <time>2016-06-19T17:00:40Z</time>
      </trkpt>
      <trkpt lat="43.68683" lon="4.21026">
        <ele>10.23</ele>
        <time>2016-06-19T17:00:41Z</time>
      </trkpt>
      <trkpt lat="43.68657" lon="4.20899">
        <ele>11.19</ele>
        <time>2016-06-19T17:00:52Z</time>
      </trkpt>
      <trkpt lat="43.68629" lon="4.20795">
        <ele>10.71</ele>
        <time>2016-06-19T17:01:00Z</time>
      </trkpt>
      <trkpt lat="43.68623" lon="4.20773">
        <ele>11.19</ele>
        <time>2016-06-19T17:01:02Z</time>
      </trkpt>
      <trkpt lat="43.68621" lon="4.20763">
        <ele>10.71</ele>
        <time>2016-06-19T17:01:03Z</time>
      </trkpt>
      <trkpt lat="43.6862" lon="4.20752">
        <ele>10.71</ele>
        <time>2016-06-19T17:01:04Z</time>
      </trkpt>
      <trkpt lat="43.68617" lon="4.20741">
        <ele>10.71</ele>
        <time>2016-06-19T17:01:05Z</time>
      </trkpt>
      <trkpt lat="43.68613" lon="4.2073">
        <ele>10.71</ele>
        <time>2016-06-19T17:01:06Z</time>
      </trkpt>
      <trkpt lat="43.68609" lon="4.20716">
        <ele>10.71</ele>
        <time>2016-06-19T17:01:07Z</time>
      </trkpt>
      <trkpt lat="43.68606" lon="4.207">
        <ele>10.71</ele>
        <time>2016-06-19T17:01:08Z</time>
      </trkpt>
      <trkpt lat="43.68605" lon="4.20683">
        <ele>10.23</ele>
        <time>2016-06-19T17:01:09Z</time>
      </trkpt>
      <trkpt lat="43.68603" lon="4.20666">
        <ele>10.71</ele>
        <time>2016-06-19T17:01:10Z</time>
      </trkpt>
      <trkpt lat="43.68585" lon="4.20509">
        <ele>11.19</ele>
        <time>2016-06-19T17:01:19Z</time>
      </trkpt>
      <trkpt lat="43.68561" lon="4.20282">
        <ele>8.79</ele>
        <time>2016-06-19T17:01:29Z</time>
      </trkpt>
      <trkpt lat="43.68557" lon="4.20233">
        <ele>8.79</ele>
        <time>2016-06-19T17:01:31Z</time>
      </trkpt>
      <trkpt lat="43.68558" lon="4.20209">
        <ele>8.79</ele>
        <time>2016-06-19T17:01:32Z</time>
      </trkpt>
      <trkpt lat="43.68562" lon="4.20185">
        <ele>8.79</ele>
        <time>2016-06-19T17:01:33Z</time>
      </trkpt>
      <trkpt lat="43.6857" lon="4.20162">
        <ele>8.79</ele>
        <time>2016-06-19T17:01:34Z</time>
      </trkpt>
      <trkpt lat="43.68581" lon="4.2014">
        <ele>8.79</ele>
        <time>2016-06-19T17:01:35Z</time>
      </trkpt>
      <trkpt lat="43.68594" lon="4.20119">
        <ele>9.27</ele>
        <time>2016-06-19T17:01:36Z</time>
      </trkpt>
      <trkpt lat="43.68608" lon="4.20098">
        <ele>9.27</ele>
        <time>2016-06-19T17:01:37Z</time>
      </trkpt>
      <trkpt lat="43.68711" lon="4.19917">
        <ele>9.27</ele>
        <time>2016-06-19T17:01:46Z</time>
      </trkpt>
      <trkpt lat="43.68781" lon="4.19743">
        <ele>9.75</ele>
        <time>2016-06-19T17:01:54Z</time>
      </trkpt>
      <trkpt lat="43.68881" lon="4.19508">
        <ele>9.27</ele>
        <time>2016-06-19T17:02:06Z</time>
      </trkpt>
      <trkpt lat="43.68909" lon="4.19452">
        <ele>9.27</ele>
        <time>2016-06-19T17:02:09Z</time>
      </trkpt>
      <trkpt lat="43.68916" lon="4.19432">
        <ele>9.27</ele>
        <time>2016-06-19T17:02:10Z</time>
      </trkpt>
      <trkpt lat="43.68922" lon="4.1941">
        <ele>9.27</ele>
        <time>2016-06-19T17:02:11Z</time>
      </trkpt>
      <trkpt lat="43.68947" lon="4.19204">
        <ele>9.75</ele>
        <time>2016-06-19T17:02:20Z</time>
      </trkpt>
      <trkpt lat="43.68945" lon="4.19179">
        <ele>9.27</ele>
        <time>2016-06-19T17:02:21Z</time>
      </trkpt>
      <trkpt lat="43.68904" lon="4.18933">
        <ele>8.79</ele>
        <time>2016-06-19T17:02:30Z</time>
      </trkpt>
      <trkpt lat="43.68882" lon="4.18666">
        <ele>9.27</ele>
        <time>2016-06-19T17:02:38Z</time>
      </trkpt>
      <trkpt lat="43.68894" lon="4.18526">
        <ele>10.23</ele>
        <time>2016-06-19T17:02:43Z</time>
      </trkpt>
      <trkpt lat="43.68892" lon="4.18502">
        <ele>10.23</ele>
        <time>2016-06-19T17:02:44Z</time>
      </trkpt>
      <trkpt lat="43.68888" lon="4.18477">
        <ele>9.75</ele>
        <time>2016-06-19T17:02:45Z</time>
      </trkpt>
      <trkpt lat="43.68878" lon="4.18456">
        <ele>9.75</ele>
        <time>2016-06-19T17:02:46Z</time>
      </trkpt>
      <trkpt lat="43.68867" lon="4.18434">
        <ele>10.23</ele>
        <time>2016-06-19T17:02:47Z</time>
      </trkpt>
      <trkpt lat="43.68856" lon="4.18413">
        <ele>10.71</ele>
        <time>2016-06-19T17:02:48Z</time>
      </trkpt>
      <trkpt lat="43.68838" lon="4.18367">
        <ele>11.67</ele>
        <time>2016-06-19T17:02:50Z</time>
      </trkpt>
      <trkpt lat="43.68834" lon="4.18339">
        <ele>12.63</ele>
        <time>2016-06-19T17:02:51Z</time>
      </trkpt>
      <trkpt lat="43.68833" lon="4.18315">
        <ele>13.12</ele>
        <time>2016-06-19T17:02:52Z</time>
      </trkpt>
      <trkpt lat="43.68837" lon="4.18287">
        <ele>13.12</ele>
        <time>2016-06-19T17:02:53Z</time>
      </trkpt>
      <trkpt lat="43.68843" lon="4.1826">
        <ele>13.6</ele>
        <time>2016-06-19T17:02:54Z</time>
      </trkpt>
      <trkpt lat="43.68851" lon="4.18234">
        <ele>13.6</ele>
        <time>2016-06-19T17:02:55Z</time>
      </trkpt>
      <trkpt lat="43.68864" lon="4.18213">
        <ele>13.6</ele>
        <time>2016-06-19T17:02:56Z</time>
      </trkpt>
      <trkpt lat="43.68875" lon="4.18187">
        <ele>14.08</ele>
        <time>2016-06-19T17:02:57Z</time>
      </trkpt>
      <trkpt lat="43.68905" lon="4.18112">
        <ele>13.6</ele>
        <time>2016-06-19T17:03:00Z</time>
      </trkpt>
      <trkpt lat="43.68911" lon="4.18085">
        <ele>13.12</ele>
        <time>2016-06-19T17:03:01Z</time>
      </trkpt>
      <trkpt lat="43.68915" lon="4.18058">
        <ele>12.63</ele>
        <time>2016-06-19T17:03:02Z</time>
      </trkpt>
      <trkpt lat="43.68939" lon="4.17927">
        <ele>12.15</ele>
        <time>2016-06-19T17:03:07Z</time>
      </trkpt>
      <trkpt lat="43.68939" lon="4.179">
        <ele>12.15</ele>
        <time>2016-06-19T17:03:08Z</time>
      </trkpt>
      <trkpt lat="43.68936" lon="4.17873">
        <ele>12.15</ele>
        <time>2016-06-19T17:03:09Z</time>
      </trkpt>
      <trkpt lat="43.68928" lon="4.17845">
        <ele>11.19</ele>
        <time>2016-06-19T17:03:10Z</time>
      </trkpt>
      <trkpt lat="43.68918" lon="4.17816">
        <ele>10.71</ele>
        <time>2016-06-19T17:03:11Z</time>
      </trkpt>
      <trkpt lat="43.68907" lon="4.17786">
        <ele>10.23</ele>
        <time>2016-06-19T17:03:12Z</time>
      </trkpt>
      <trkpt lat="43.6888" lon="4.17692">
        <ele>10.23</ele>
        <time>2016-06-19T17:03:15Z</time>
      </trkpt>
      <trkpt lat="43.68877" lon="4.17659">
        <ele>10.71</ele>
        <time>2016-06-19T17:03:16Z</time>
      </trkpt>
      <trkpt lat="43.68876" lon="4.17625">
        <ele>10.71</ele>
        <time>2016-06-19T17:03:17Z</time>
      </trkpt>
      <trkpt lat="43.68879" lon="4.17592">
        <ele>10.71</ele>
        <time>2016-06-19T17:03:18Z</time>
      </trkpt>
      <trkpt lat="43.68886" lon="4.17559">
        <ele>10.71</ele>
        <time>2016-06-19T17:03:19Z</time>
      </trkpt>
      <trkpt lat="43.68895" lon="4.17528">
        <ele>10.71</ele>
        <time>2016-06-19T17:03:20Z</time>
      </trkpt>
      <trkpt lat="43.68906" lon="4.17498">
        <ele>10.71</ele>
        <time>2016-06-19T17:03:21Z</time>
      </trkpt>
      <trkpt lat="43.68918" lon="4.17469">
        <ele>10.71</ele>
        <time>2016-06-19T17:03:22Z</time>
      </trkpt>
      <trkpt lat="43.69073" lon="4.17087">
        <ele>11.67</ele>
        <time>2016-06-19T17:03:35Z</time>
      </trkpt>
      <trkpt lat="43.69109" lon="4.17015">
        <ele>12.15</ele>
        <time>2016-06-19T17:03:38Z</time>
      </trkpt>
      <trkpt lat="43.69124" lon="4.16995">
        <ele>12.15</ele>
        <time>2016-06-19T17:03:39Z</time>
      </trkpt>
      <trkpt lat="43.69141" lon="4.16978">
        <ele>12.15</ele>
        <time>2016-06-19T17:03:40Z</time>
      </trkpt>
      <trkpt lat="43.6916" lon="4.16963">
        <ele>12.63</ele>
        <time>2016-06-19T17:03:41Z</time>
      </trkpt>
      <trkpt lat="43.69181" lon="4.16951">
        <ele>13.12</ele>
        <time>2016-06-19T17:03:42Z</time>
      </trkpt>
      <trkpt lat="43.69202" lon="4.1694">
        <ele>13.12</ele>
        <time>2016-06-19T17:03:43Z</time>
      </trkpt>
      <trkpt lat="43.69368" lon="4.16866">
        <ele>15.52</ele>
        <time>2016-06-19T17:03:52Z</time>
      </trkpt>
      <trkpt lat="43.69447" lon="4.16831">
        <ele>15.52</ele>
        <time>2016-06-19T17:03:59Z</time>
      </trkpt>
      <trkpt lat="43.69457" lon="4.16823">
        <ele>13.6</ele>
        <time>2016-06-19T17:04:04Z</time>
      </trkpt>
      <trkpt lat="43.69455" lon="4.16825">
        <ele>14.56</ele>
        <time>2016-06-19T17:05:46Z</time>
      </trkpt>
      <trkpt lat="43.69457" lon="4.16817">
        <ele>14.56</ele>
        <time>2016-06-19T17:05:56Z</time>
      </trkpt>
      <trkpt lat="43.69457" lon="4.16809">
        <ele>14.56</ele>
        <time>2016-06-19T17:05:57Z</time>
      </trkpt>
      <trkpt lat="43.69456" lon="4.16797">
        <ele>14.56</ele>
        <time>2016-06-19T17:05:58Z</time>
      </trkpt>
      <trkpt lat="43.69452" lon="4.16783">
        <ele>14.08</ele>
        <time>2016-06-19T17:05:59Z</time>
      </trkpt>
      <trkpt lat="43.69446" lon="4.16767">
        <ele>14.08</ele>
        <time>2016-06-19T17:06:00Z</time>
      </trkpt>
      <trkpt lat="43.69436" lon="4.16748">
        <ele>13.6</ele>
        <time>2016-06-19T17:06:01Z</time>
      </trkpt>
      <trkpt lat="43.69426" lon="4.16729">
        <ele>13.6</ele>
        <time>2016-06-19T17:06:02Z</time>
      </trkpt>
      <trkpt lat="43.69316" lon="4.1649">
        <ele>14.56</ele>
        <time>2016-06-19T17:06:15Z</time>
      </trkpt>
      <trkpt lat="43.69238" lon="4.16313">
        <ele>15.04</ele>
        <time>2016-06-19T17:06:27Z</time>
      </trkpt>
      <trkpt lat="43.69136" lon="4.16174">
        <ele>14.56</ele>
        <time>2016-06-19T17:06:35Z</time>
      </trkpt>
      <trkpt lat="43.68977" lon="4.15938">
        <ele>13.12</ele>
        <time>2016-06-19T17:06:47Z</time>
      </trkpt>
      <trkpt lat="43.68848" lon="4.15743">
        <ele>11.67</ele>
        <time>2016-06-19T17:06:56Z</time>
      </trkpt>
      <trkpt lat="43.68726" lon="4.15564">
        <ele>11.19</ele>
        <time>2016-06-19T17:07:05Z</time>
      </trkpt>
      <trkpt lat="43.68714" lon="4.15553">
        <ele>10.71</ele>
        <time>2016-06-19T17:07:06Z</time>
      </trkpt>
      <trkpt lat="43.68701" lon="4.15544">
        <ele>10.23</ele>
        <time>2016-06-19T17:07:07Z</time>
      </trkpt>
      <trkpt lat="43.68689" lon="4.15538">
        <ele>10.23</ele>
        <time>2016-06-19T17:07:08Z</time>
      </trkpt>
      <trkpt lat="43.68677" lon="4.15534">
        <ele>10.23</ele>
        <time>2016-06-19T17:07:09Z</time>
      </trkpt>
      <trkpt lat="43.68658" lon="4.15524">
        <ele>10.23</ele>
        <time>2016-06-19T17:07:11Z</time>
      </trkpt>
      <trkpt lat="43.68652" lon="4.15519">
        <ele>10.23</ele>
        <time>2016-06-19T17:07:12Z</time>
      </trkpt>
      <trkpt lat="43.68648" lon="4.15515">
        <ele>10.23</ele>
        <time>2016-06-19T17:07:13Z</time>
      </trkpt>
      <trkpt lat="43.68645" lon="4.15511">
        <ele>10.71</ele>
        <time>2016-06-19T17:07:14Z</time>
      </trkpt>
      <trkpt lat="43.68644" lon="4.15509">
        <ele>10.71</ele>
        <time>2016-06-19T17:07:15Z</time>
      </trkpt>
      <trkpt lat="43.68643" lon="4.15507">
        <ele>11.19</ele>
        <time>2016-06-19T17:07:16Z</time>
      </trkpt>
      <trkpt lat="43.68642" lon="4.15495">
        <ele>12.15</ele>
        <time>2016-06-19T17:07:22Z</time>
      </trkpt>
      <trkpt lat="43.68642" lon="4.1547">
        <ele>12.63</ele>
        <time>2016-06-19T17:07:24Z</time>
      </trkpt>
      <trkpt lat="43.68639" lon="4.15455">
        <ele>12.15</ele>
        <time>2016-06-19T17:07:25Z</time>
      </trkpt>
      <trkpt lat="43.68634" lon="4.15442">
        <ele>12.15</ele>
        <time>2016-06-19T17:07:26Z</time>
      </trkpt>
      <trkpt lat="43.68624" lon="4.1543">
        <ele>12.15</ele>
        <time>2016-06-19T17:07:27Z</time>
      </trkpt>
      <trkpt lat="43.68613" lon="4.15423">
        <ele>12.15</ele>
        <time>2016-06-19T17:07:28Z</time>
      </trkpt>
      <trkpt lat="43.68602" lon="4.15414">
        <ele>11.67</ele>
        <time>2016-06-19T17:07:29Z</time>
      </trkpt>
      <trkpt lat="43.68591" lon="4.15401">
        <ele>11.67</ele>
        <time>2016-06-19T17:07:30Z</time>
      </trkpt>
      <trkpt lat="43.68582" lon="4.15384">
        <ele>12.15</ele>
        <time>2016-06-19T17:07:31Z</time>
      </trkpt>
      <trkpt lat="43.68575" lon="4.15364">
        <ele>11.67</ele>
        <time>2016-06-19T17:07:32Z</time>
      </trkpt>
      <trkpt lat="43.68568" lon="4.15343">
        <ele>11.67</ele>
        <time>2016-06-19T17:07:33Z</time>
      </trkpt>
      <trkpt lat="43.68489" lon="4.15211">
        <ele>11.19</ele>
        <time>2016-06-19T17:07:40Z</time>
      </trkpt>
      <trkpt lat="43.68403" lon="4.15109">
        <ele>11.19</ele>
        <time>2016-06-19T17:07:48Z</time>
      </trkpt>
      <trkpt lat="43.6838" lon="4.15083">
        <ele>11.19</ele>
        <time>2016-06-19T17:07:51Z</time>
      </trkpt>
      <trkpt lat="43.68375" lon="4.15076">
        <ele>11.19</ele>
        <time>2016-06-19T17:07:52Z</time>
      </trkpt>
      <trkpt lat="43.68373" lon="4.15071">
        <ele>11.67</ele>
        <time>2016-06-19T17:07:53Z</time>
      </trkpt>
      <trkpt lat="43.68371" lon="4.15066">
        <ele>12.15</ele>
        <time>2016-06-19T17:07:54Z</time>
      </trkpt>
      <trkpt lat="43.6837" lon="4.15059">
        <ele>12.15</ele>
        <time>2016-06-19T17:07:55Z</time>
      </trkpt>
      <trkpt lat="43.68369" lon="4.15049">
        <ele>12.15</ele>
        <time>2016-06-19T17:07:56Z</time>
      </trkpt>
      <trkpt lat="43.68367" lon="4.15037">
        <ele>12.15</ele>
        <time>2016-06-19T17:07:57Z</time>
      </trkpt>
      <trkpt lat="43.68362" lon="4.15026">
        <ele>12.15</ele>
        <time>2016-06-19T17:07:58Z</time>
      </trkpt>
      <trkpt lat="43.68355" lon="4.15017">
        <ele>12.15</ele>
        <time>2016-06-19T17:07:59Z</time>
      </trkpt>
      <trkpt lat="43.68347" lon="4.15011">
        <ele>11.67</ele>
        <time>2016-06-19T17:08:00Z</time>
      </trkpt>
      <trkpt lat="43.68337" lon="4.15003">
        <ele>11.67</ele>
        <time>2016-06-19T17:08:01Z</time>
      </trkpt>
      <trkpt lat="43.68326" lon="4.14992">
        <ele>11.67</ele>
        <time>2016-06-19T17:08:02Z</time>
      </trkpt>
      <trkpt lat="43.68316" lon="4.14975">
        <ele>12.15</ele>
        <time>2016-06-19T17:08:03Z</time>
      </trkpt>
      <trkpt lat="43.68307" lon="4.14956">
        <ele>12.15</ele>
        <time>2016-06-19T17:08:04Z</time>
      </trkpt>
      <trkpt lat="43.68297" lon="4.14937">
        <ele>12.15</ele>
        <time>2016-06-19T17:08:05Z</time>
      </trkpt>
      <trkpt lat="43.682" lon="4.14779">
        <ele>11.67</ele>
        <time>2016-06-19T17:08:13Z</time>
      </trkpt>
      <trkpt lat="43.68133" lon="4.14676">
        <ele>11.67</ele>
        <time>2016-06-19T17:08:20Z</time>
      </trkpt>
      <trkpt lat="43.68131" lon="4.14664">
        <ele>13.6</ele>
        <time>2016-06-19T17:08:24Z</time>
      </trkpt>
      <trkpt lat="43.68131" lon="4.14645">
        <ele>12.63</ele>
        <time>2016-06-19T17:08:26Z</time>
      </trkpt>
      <trkpt lat="43.68126" lon="4.14635">
        <ele>12.63</ele>
        <time>2016-06-19T17:08:27Z</time>
      </trkpt>
      <trkpt lat="43.68119" lon="4.14627">
        <ele>12.63</ele>
        <time>2016-06-19T17:08:28Z</time>
      </trkpt>
      <trkpt lat="43.68109" lon="4.14624">
        <ele>12.15</ele>
        <time>2016-06-19T17:08:29Z</time>
      </trkpt>
      <trkpt lat="43.68098" lon="4.1462">
        <ele>12.15</ele>
        <time>2016-06-19T17:08:30Z</time>
      </trkpt>
      <trkpt lat="43.68088" lon="4.14612">
        <ele>12.15</ele>
        <time>2016-06-19T17:08:31Z</time>
      </trkpt>
      <trkpt lat="43.68079" lon="4.146">
        <ele>12.15</ele>
        <time>2016-06-19T17:08:32Z</time>
      </trkpt>
      <trkpt lat="43.6807" lon="4.14588">
        <ele>11.67</ele>
        <time>2016-06-19T17:08:33Z</time>
      </trkpt>
      <trkpt lat="43.67994" lon="4.14477">
        <ele>11.67</ele>
        <time>2016-06-19T17:08:41Z</time>
      </trkpt>
      <trkpt lat="43.67921" lon="4.14367">
        <ele>11.67</ele>
        <time>2016-06-19T17:08:48Z</time>
      </trkpt>
      <trkpt lat="43.678" lon="4.14186">
        <ele>12.15</ele>
        <time>2016-06-19T17:09:01Z</time>
      </trkpt>
      <trkpt lat="43.67753" lon="4.14114">
        <ele>12.15</ele>
        <time>2016-06-19T17:09:09Z</time>
      </trkpt>
      <trkpt lat="43.67747" lon="4.14104">
        <ele>12.63</ele>
        <time>2016-06-19T17:09:17Z</time>
      </trkpt>
      <trkpt lat="43.67733" lon="4.14083">
        <ele>14.08</ele>
        <time>2016-06-19T17:09:35Z</time>
      </trkpt>
      <trkpt lat="43.67714" lon="4.14054">
        <ele>14.56</ele>
        <time>2016-06-19T17:09:39Z</time>
      </trkpt>
      <trkpt lat="43.67709" lon="4.14047">
        <ele>14.56</ele>
        <time>2016-06-19T17:09:40Z</time>
      </trkpt>
      <trkpt lat="43.67643" lon="4.13957">
        <ele>15.04</ele>
        <time>2016-06-19T17:09:52Z</time>
      </trkpt>
      <trkpt lat="43.67593" lon="4.13876">
        <ele>15.52</ele>
        <time>2016-06-19T17:10:02Z</time>
      </trkpt>
      <trkpt lat="43.67594" lon="4.13882">
        <ele>19.36</ele>
        <time>2016-06-19T17:10:36Z</time>
      </trkpt>
      <trkpt lat="43.6758" lon="4.1386">
        <ele>17.92</ele>
        <time>2016-06-19T17:11:17Z</time>
      </trkpt>
      <trkpt lat="43.67576" lon="4.1385">
        <ele>17.92</ele>
        <time>2016-06-19T17:11:18Z</time>
      </trkpt>
      <trkpt lat="43.67575" lon="4.13837">
        <ele>17.92</ele>
        <time>2016-06-19T17:11:19Z</time>
      </trkpt>
      <trkpt lat="43.67574" lon="4.13824">
        <ele>17.44</ele>
        <time>2016-06-19T17:11:20Z</time>
      </trkpt>
      <trkpt lat="43.67575" lon="4.13813">
        <ele>17.44</ele>
        <time>2016-06-19T17:11:21Z</time>
      </trkpt>
      <trkpt lat="43.67578" lon="4.13802">
        <ele>16.96</ele>
        <time>2016-06-19T17:11:22Z</time>
      </trkpt>
      <trkpt lat="43.67583" lon="4.13794">
        <ele>16.48</ele>
        <time>2016-06-19T17:11:23Z</time>
      </trkpt>
      <trkpt lat="43.67589" lon="4.13787">
        <ele>16.48</ele>
        <time>2016-06-19T17:11:24Z</time>
      </trkpt>
      <trkpt lat="43.67596" lon="4.13781">
        <ele>16.48</ele>
        <time>2016-06-19T17:11:25Z</time>
      </trkpt>
      <trkpt lat="43.67667" lon="4.13719">
        <ele>15.04</ele>
        <time>2016-06-19T17:11:35Z</time>
      </trkpt>
      <trkpt lat="43.67675" lon="4.1371">
        <ele>14.56</ele>
        <time>2016-06-19T17:11:37Z</time>
      </trkpt>
      <trkpt lat="43.67692" lon="4.1368">
        <ele>12.63</ele>
        <time>2016-06-19T17:11:43Z</time>
      </trkpt>
      <trkpt lat="43.67695" lon="4.13672">
        <ele>12.15</ele>
        <time>2016-06-19T17:11:44Z</time>
      </trkpt>
      <trkpt lat="43.67731" lon="4.13575">
        <ele>10.23</ele>
        <time>2016-06-19T17:11:55Z</time>
      </trkpt>
      <trkpt lat="43.67734" lon="4.13566">
        <ele>10.23</ele>
        <time>2016-06-19T17:11:56Z</time>
      </trkpt>
      <trkpt lat="43.67737" lon="4.13557">
        <ele>10.23</ele>
        <time>2016-06-19T17:11:57Z</time>
      </trkpt>
      <trkpt lat="43.67738" lon="4.13547">
        <ele>10.23</ele>
        <time>2016-06-19T17:11:58Z</time>
      </trkpt>
      <trkpt lat="43.67739" lon="4.13537">
        <ele>10.23</ele>
        <time>2016-06-19T17:11:59Z</time>
      </trkpt>
      <trkpt lat="43.6774" lon="4.13528">
        <ele>10.23</ele>
        <time>2016-06-19T17:12:00Z</time>
      </trkpt>
      <trkpt lat="43.67737" lon="4.13476">
        <ele>11.19</ele>
        <time>2016-06-19T17:12:06Z</time>
      </trkpt>
      <trkpt lat="43.67733" lon="4.13467">
        <ele>11.67</ele>
        <time>2016-06-19T17:12:07Z</time>
      </trkpt>
      <trkpt lat="43.67684" lon="4.13365">
        <ele>14.56</ele>
        <time>2016-06-19T17:12:17Z</time>
      </trkpt>
      <trkpt lat="43.67651" lon="4.13303">
        <ele>17.44</ele>
        <time>2016-06-19T17:12:26Z</time>
      </trkpt>
      <trkpt lat="43.67607" lon="4.13225">
        <ele>19.84</ele>
        <time>2016-06-19T17:12:35Z</time>
      </trkpt>
      <trkpt lat="43.67587" lon="4.13194">
        <ele>18.88</ele>
        <time>2016-06-19T17:12:39Z</time>
      </trkpt>
      <trkpt lat="43.67578" lon="4.13178">
        <ele>18.4</ele>
        <time>2016-06-19T17:12:41Z</time>
      </trkpt>
      <trkpt lat="43.67572" lon="4.13172">
        <ele>17.92</ele>
        <time>2016-06-19T17:12:42Z</time>
      </trkpt>
      <trkpt lat="43.67565" lon="4.13166">
        <ele>17.92</ele>
        <time>2016-06-19T17:12:43Z</time>
      </trkpt>
      <trkpt lat="43.6756" lon="4.13158">
        <ele>18.4</ele>
        <time>2016-06-19T17:12:44Z</time>
      </trkpt>
      <trkpt lat="43.67556" lon="4.13147">
        <ele>18.4</ele>
        <time>2016-06-19T17:12:45Z</time>
      </trkpt>
      <trkpt lat="43.67555" lon="4.13133">
        <ele>17.92</ele>
        <time>2016-06-19T17:12:46Z</time>
      </trkpt>
      <trkpt lat="43.67554" lon="4.13117">
        <ele>17.44</ele>
        <time>2016-06-19T17:12:47Z</time>
      </trkpt>
      <trkpt lat="43.67554" lon="4.13099">
        <ele>16.48</ele>
        <time>2016-06-19T17:12:48Z</time>
      </trkpt>
      <trkpt lat="43.67553" lon="4.13014">
        <ele>16.48</ele>
        <time>2016-06-19T17:12:53Z</time>
      </trkpt>
      <trkpt lat="43.67555" lon="4.12999">
        <ele>16.48</ele>
        <time>2016-06-19T17:12:54Z</time>
      </trkpt>
      <trkpt lat="43.67565" lon="4.12946">
        <ele>14.56</ele>
        <time>2016-06-19T17:13:00Z</time>
      </trkpt>
      <trkpt lat="43.67567" lon="4.12933">
        <ele>14.08</ele>
        <time>2016-06-19T17:13:09Z</time>
      </trkpt>
      <trkpt lat="43.67583" lon="4.1285">
        <ele>15.04</ele>
        <time>2016-06-19T17:13:19Z</time>
      </trkpt>
      <trkpt lat="43.67605" lon="4.12741">
        <ele>14.08</ele>
        <time>2016-06-19T17:13:29Z</time>
      </trkpt>
      <trkpt lat="43.67631" lon="4.12614">
        <ele>12.63</ele>
        <time>2016-06-19T17:13:44Z</time>
      </trkpt>
      <trkpt lat="43.6763" lon="4.12616">
        <ele>11.67</ele>
        <time>2016-06-19T17:14:20Z</time>
      </trkpt>
      <trkpt lat="43.67637" lon="4.12581">
        <ele>11.67</ele>
        <time>2016-06-19T17:14:41Z</time>
      </trkpt>
      <trkpt lat="43.67666" lon="4.12438">
        <ele>12.63</ele>
        <time>2016-06-19T17:14:49Z</time>
      </trkpt>
      <trkpt lat="43.67708" lon="4.12189">
        <ele>13.6</ele>
        <time>2016-06-19T17:15:00Z</time>
      </trkpt>
      <trkpt lat="43.67743" lon="4.11958">
        <ele>13.6</ele>
        <time>2016-06-19T17:15:11Z</time>
      </trkpt>
      <trkpt lat="43.67776" lon="4.11759">
        <ele>14.56</ele>
        <time>2016-06-19T17:15:20Z</time>
      </trkpt>
      <trkpt lat="43.67777" lon="4.11742">
        <ele>14.56</ele>
        <time>2016-06-19T17:15:21Z</time>
      </trkpt>
      <trkpt lat="43.67779" lon="4.11726">
        <ele>14.56</ele>
        <time>2016-06-19T17:15:22Z</time>
      </trkpt>
      <trkpt lat="43.67783" lon="4.11712">
        <ele>14.56</ele>
        <time>2016-06-19T17:15:23Z</time>
      </trkpt>
      <trkpt lat="43.67788" lon="4.11701">
        <ele>14.08</ele>
        <time>2016-06-19T17:15:24Z</time>
      </trkpt>
      <trkpt lat="43.67794" lon="4.11689">
        <ele>14.56</ele>
        <time>2016-06-19T17:15:25Z</time>
      </trkpt>
      <trkpt lat="43.67798" lon="4.11675">
        <ele>14.56</ele>
        <time>2016-06-19T17:15:26Z</time>
      </trkpt>
      <trkpt lat="43.678" lon="4.11661">
        <ele>14.08</ele>
        <time>2016-06-19T17:15:27Z</time>
      </trkpt>
      <trkpt lat="43.678" lon="4.11644">
        <ele>14.08</ele>
        <time>2016-06-19T17:15:28Z</time>
      </trkpt>
      <trkpt lat="43.67817" lon="4.11487">
        <ele>14.56</ele>
        <time>2016-06-19T17:15:35Z</time>
      </trkpt>
      <trkpt lat="43.67852" lon="4.11235">
        <ele>16</ele>
        <time>2016-06-19T17:15:44Z</time>
      </trkpt>
      <trkpt lat="43.67906" lon="4.10893">
        <ele>17.44</ele>
        <time>2016-06-19T17:15:56Z</time>
      </trkpt>
      <trkpt lat="43.67957" lon="4.10532">
        <ele>17.44</ele>
        <time>2016-06-19T17:16:08Z</time>
      </trkpt>
      <trkpt lat="43.68013" lon="4.10166">
        <ele>18.88</ele>
        <time>2016-06-19T17:16:21Z</time>
      </trkpt>
      <trkpt lat="43.68033" lon="4.10049">
        <ele>17.92</ele>
        <time>2016-06-19T17:16:27Z</time>
      </trkpt>
      <trkpt lat="43.68037" lon="4.1004">
        <ele>17.44</ele>
        <time>2016-06-19T17:16:28Z</time>
      </trkpt>
      <trkpt lat="43.68043" lon="4.10036">
        <ele>17.44</ele>
        <time>2016-06-19T17:16:29Z</time>
      </trkpt>
      <trkpt lat="43.6805" lon="4.10035">
        <ele>16.96</ele>
        <time>2016-06-19T17:16:30Z</time>
      </trkpt>
      <trkpt lat="43.68057" lon="4.10037">
        <ele>16.96</ele>
        <time>2016-06-19T17:16:31Z</time>
      </trkpt>
      <trkpt lat="43.68062" lon="4.10042">
        <ele>16.48</ele>
        <time>2016-06-19T17:16:32Z</time>
      </trkpt>
      <trkpt lat="43.68067" lon="4.10047">
        <ele>16.48</ele>
        <time>2016-06-19T17:16:33Z</time>
      </trkpt>
      <trkpt lat="43.6807" lon="4.10055">
        <ele>16.48</ele>
        <time>2016-06-19T17:16:34Z</time>
      </trkpt>
      <trkpt lat="43.68073" lon="4.10061">
        <ele>16.48</ele>
        <time>2016-06-19T17:16:35Z</time>
      </trkpt>
      <trkpt lat="43.68077" lon="4.10064">
        <ele>16.48</ele>
        <time>2016-06-19T17:16:36Z</time>
      </trkpt>
      <trkpt lat="43.68083" lon="4.10064">
        <ele>16.48</ele>
        <time>2016-06-19T17:16:37Z</time>
      </trkpt>
      <trkpt lat="43.68088" lon="4.10061">
        <ele>16.48</ele>
        <time>2016-06-19T17:16:38Z</time>
      </trkpt>
      <trkpt lat="43.68092" lon="4.10055">
        <ele>16.48</ele>
        <time>2016-06-19T17:16:39Z</time>
      </trkpt>
      <trkpt lat="43.68093" lon="4.10048">
        <ele>16.48</ele>
        <time>2016-06-19T17:16:40Z</time>
      </trkpt>
      <trkpt lat="43.68092" lon="4.10042">
        <ele>16</ele>
        <time>2016-06-19T17:16:41Z</time>
      </trkpt>
      <trkpt lat="43.68091" lon="4.10037">
        <ele>15.52</ele>
        <time>2016-06-19T17:16:42Z</time>
      </trkpt>
      <trkpt lat="43.68089" lon="4.10035">
        <ele>15.52</ele>
        <time>2016-06-19T17:16:43Z</time>
      </trkpt>
      <trkpt lat="43.68086" lon="4.10034">
        <ele>15.04</ele>
        <time>2016-06-19T17:16:57Z</time>
      </trkpt>
      <trkpt lat="43.68083" lon="4.10039">
        <ele>18.4</ele>
        <time>2016-06-19T17:19:29Z</time>
      </trkpt>
      <trkpt lat="43.68083" lon="4.10041">
        <ele>20.32</ele>
        <time>2016-06-19T17:20:37Z</time>
      </trkpt>
      <trkpt lat="43.68084" lon="4.10036">
        <ele>17.44</ele>
        <time>2016-06-19T17:25:40Z</time>
      </trkpt>
      <trkpt lat="43.68084" lon="4.10036">
        <ele>16.96</ele>
        <time>2016-06-19T17:25:50Z</time>
      </trkpt>
      <trkpt lat="43.6807" lon="4.10033">
        <ele>16.96</ele>
        <time>2016-06-19T17:25:55Z</time>
      </trkpt>
      <trkpt lat="43.68066" lon="4.10031">
        <ele>17.44</ele>
        <time>2016-06-19T17:25:56Z</time>
      </trkpt>
      <trkpt lat="43.68062" lon="4.10026">
        <ele>17.44</ele>
        <time>2016-06-19T17:25:57Z</time>
      </trkpt>
      <trkpt lat="43.6806" lon="4.10019">
        <ele>17.92</ele>
        <time>2016-06-19T17:25:58Z</time>
      </trkpt>
      <trkpt lat="43.68058" lon="4.10011">
        <ele>17.44</ele>
        <time>2016-06-19T17:25:59Z</time>
      </trkpt>
      <trkpt lat="43.68053" lon="4.09981">
        <ele>16.48</ele>
        <time>2016-06-19T17:26:03Z</time>
      </trkpt>
      <trkpt lat="43.68054" lon="4.09975">
        <ele>16.48</ele>
        <time>2016-06-19T17:26:04Z</time>
      </trkpt>
      <trkpt lat="43.68056" lon="4.09971">
        <ele>16.48</ele>
        <time>2016-06-19T17:26:05Z</time>
      </trkpt>
      <trkpt lat="43.68057" lon="4.09967">
        <ele>16.48</ele>
        <time>2016-06-19T17:26:06Z</time>
      </trkpt>
      <trkpt lat="43.68057" lon="4.09964">
        <ele>16.48</ele>
        <time>2016-06-19T17:26:07Z</time>
      </trkpt>
      <trkpt lat="43.68055" lon="4.09962">
        <ele>16.48</ele>
        <time>2016-06-19T17:26:08Z</time>
      </trkpt>
      <trkpt lat="43.68053" lon="4.09963">
        <ele>16.48</ele>
        <time>2016-06-19T17:26:09Z</time>
      </trkpt>
      <trkpt lat="43.68052" lon="4.09966">
        <ele>16</ele>
        <time>2016-06-19T17:26:10Z</time>
      </trkpt>
      <trkpt lat="43.68052" lon="4.09972">
        <ele>16</ele>
        <time>2016-06-19T17:26:11Z</time>
      </trkpt>
      <trkpt lat="43.68054" lon="4.09979">
        <ele>15.52</ele>
        <time>2016-06-19T17:26:12Z</time>
      </trkpt>
      <trkpt lat="43.68062" lon="4.10026">
        <ele>15.52</ele>
        <time>2016-06-19T17:26:17Z</time>
      </trkpt>
      <trkpt lat="43.68068" lon="4.10034">
        <ele>15.52</ele>
        <time>2016-06-19T17:26:18Z</time>
      </trkpt>
      <trkpt lat="43.68075" lon="4.10038">
        <ele>15.52</ele>
        <time>2016-06-19T17:26:19Z</time>
      </trkpt>
      <trkpt lat="43.68081" lon="4.10039">
        <ele>15.52</ele>
        <time>2016-06-19T17:26:20Z</time>
      </trkpt>
      <trkpt lat="43.68087" lon="4.10042">
        <ele>15.52</ele>
        <time>2016-06-19T17:26:21Z</time>
      </trkpt>
      <trkpt lat="43.6809" lon="4.10048">
        <ele>15.52</ele>
        <time>2016-06-19T17:26:22Z</time>
      </trkpt>
      <trkpt lat="43.6809" lon="4.10056">
        <ele>15.52</ele>
        <time>2016-06-19T17:26:23Z</time>
      </trkpt>
      <trkpt lat="43.68085" lon="4.10062">
        <ele>15.52</ele>
        <time>2016-06-19T17:26:24Z</time>
      </trkpt>
      <trkpt lat="43.6808" lon="4.10064">
        <ele>15.52</ele>
        <time>2016-06-19T17:26:25Z</time>
      </trkpt>
      <trkpt lat="43.68076" lon="4.10063">
        <ele>15.04</ele>
        <time>2016-06-19T17:26:26Z</time>
      </trkpt>
      <trkpt lat="43.68073" lon="4.10061">
        <ele>15.04</ele>
        <time>2016-06-19T17:26:27Z</time>
      </trkpt>
      <trkpt lat="43.68071" lon="4.10057">
        <ele>15.52</ele>
        <time>2016-06-19T17:26:28Z</time>
      </trkpt>
      <trkpt lat="43.68068" lon="4.10051">
        <ele>15.04</ele>
        <time>2016-06-19T17:26:29Z</time>
      </trkpt>
      <trkpt lat="43.68065" lon="4.10044">
        <ele>14.56</ele>
        <time>2016-06-19T17:26:30Z</time>
      </trkpt>
      <trkpt lat="43.68061" lon="4.10037">
        <ele>14.08</ele>
        <time>2016-06-19T17:26:31Z</time>
      </trkpt>
      <trkpt lat="43.68057" lon="4.10032">
        <ele>14.08</ele>
        <time>2016-06-19T17:26:32Z</time>
      </trkpt>
      <trkpt lat="43.68051" lon="4.10016">
        <ele>14.08</ele>
        <time>2016-06-19T17:26:39Z</time>
      </trkpt>
      <trkpt lat="43.68046" lon="4.09994">
        <ele>13.6</ele>
        <time>2016-06-19T17:26:41Z</time>
      </trkpt>
      <trkpt lat="43.68045" lon="4.0998">
        <ele>13.6</ele>
        <time>2016-06-19T17:26:42Z</time>
      </trkpt>
      <trkpt lat="43.68045" lon="4.09966">
        <ele>13.6</ele>
        <time>2016-06-19T17:26:43Z</time>
      </trkpt>
      <trkpt lat="43.68051" lon="4.09775">
        <ele>15.52</ele>
        <time>2016-06-19T17:26:54Z</time>
      </trkpt>
      <trkpt lat="43.68014" lon="4.09566">
        <ele>15.52</ele>
        <time>2016-06-19T17:27:05Z</time>
      </trkpt>
      <trkpt lat="43.67971" lon="4.09378">
        <ele>16.48</ele>
        <time>2016-06-19T17:27:17Z</time>
      </trkpt>
      <trkpt lat="43.6795" lon="4.09295">
        <ele>17.92</ele>
        <time>2016-06-19T17:27:26Z</time>
      </trkpt>
      <trkpt lat="43.67924" lon="4.09183">
        <ele>22.73</ele>
        <time>2016-06-19T17:27:37Z</time>
      </trkpt>
      <trkpt lat="43.67891" lon="4.09073">
        <ele>25.13</ele>
        <time>2016-06-19T17:27:50Z</time>
      </trkpt>
      <trkpt lat="43.67883" lon="4.0905">
        <ele>24.17</ele>
        <time>2016-06-19T17:28:03Z</time>
      </trkpt>
      <trkpt lat="43.67868" lon="4.09003">
        <ele>25.13</ele>
        <time>2016-06-19T17:28:11Z</time>
      </trkpt>
      <trkpt lat="43.67835" lon="4.08903">
        <ele>26.09</ele>
        <time>2016-06-19T17:28:19Z</time>
      </trkpt>
      <trkpt lat="43.67772" lon="4.08759">
        <ele>24.65</ele>
        <time>2016-06-19T17:28:29Z</time>
      </trkpt>
      <trkpt lat="43.67685" lon="4.08554">
        <ele>22.25</ele>
        <time>2016-06-19T17:28:42Z</time>
      </trkpt>
      <trkpt lat="43.6765" lon="4.08371">
        <ele>19.84</ele>
        <time>2016-06-19T17:28:51Z</time>
      </trkpt>
      <trkpt lat="43.67608" lon="4.08066">
        <ele>19.36</ele>
        <time>2016-06-19T17:29:04Z</time>
      </trkpt>
      <trkpt lat="43.67577" lon="4.07851">
        <ele>20.32</ele>
        <time>2016-06-19T17:29:15Z</time>
      </trkpt>
      <trkpt lat="43.67574" lon="4.07814">
        <ele>20.32</ele>
        <time>2016-06-19T17:29:18Z</time>
      </trkpt>
      <trkpt lat="43.67575" lon="4.07802">
        <ele>20.32</ele>
        <time>2016-06-19T17:29:19Z</time>
      </trkpt>
      <trkpt lat="43.67577" lon="4.07791">
        <ele>20.32</ele>
        <time>2016-06-19T17:29:20Z</time>
      </trkpt>
      <trkpt lat="43.67577" lon="4.0778">
        <ele>20.32</ele>
        <time>2016-06-19T17:29:21Z</time>
      </trkpt>
      <trkpt lat="43.67575" lon="4.07769">
        <ele>19.84</ele>
        <time>2016-06-19T17:29:22Z</time>
      </trkpt>
      <trkpt lat="43.67571" lon="4.07759">
        <ele>19.84</ele>
        <time>2016-06-19T17:29:23Z</time>
      </trkpt>
      <trkpt lat="43.67565" lon="4.07749">
        <ele>19.84</ele>
        <time>2016-06-19T17:29:24Z</time>
      </trkpt>
      <trkpt lat="43.6756" lon="4.07737">
        <ele>19.84</ele>
        <time>2016-06-19T17:29:25Z</time>
      </trkpt>
      <trkpt lat="43.67556" lon="4.07723">
        <ele>19.84</ele>
        <time>2016-06-19T17:29:26Z</time>
      </trkpt>
      <trkpt lat="43.67553" lon="4.07709">
        <ele>20.32</ele>
        <time>2016-06-19T17:29:27Z</time>
      </trkpt>
      <trkpt lat="43.6753" lon="4.07568">
        <ele>20.32</ele>
        <time>2016-06-19T17:29:37Z</time>
      </trkpt>
      <trkpt lat="43.67502" lon="4.07388">
        <ele>20.32</ele>
        <time>2016-06-19T17:29:46Z</time>
      </trkpt>
      <trkpt lat="43.67472" lon="4.07172">
        <ele>20.32</ele>
        <time>2016-06-19T17:29:55Z</time>
      </trkpt>
      <trkpt lat="43.67452" lon="4.06918">
        <ele>22.25</ele>
        <time>2016-06-19T17:30:06Z</time>
      </trkpt>
      <trkpt lat="43.6747" lon="4.06701">
        <ele>29.46</ele>
        <time>2016-06-19T17:30:16Z</time>
      </trkpt>
      <trkpt lat="43.67504" lon="4.06416">
        <ele>28.5</ele>
        <time>2016-06-19T17:30:28Z</time>
      </trkpt>
      <trkpt lat="43.67533" lon="4.06188">
        <ele>27.53</ele>
        <time>2016-06-19T17:30:35Z</time>
      </trkpt>
      <trkpt lat="43.67562" lon="4.05881">
        <ele>28.98</ele>
        <time>2016-06-19T17:30:46Z</time>
      </trkpt>
      <trkpt lat="43.67569" lon="4.05779">
        <ele>29.46</ele>
        <time>2016-06-19T17:30:52Z</time>
      </trkpt>
      <trkpt lat="43.67574" lon="4.05745">
        <ele>29.94</ele>
        <time>2016-06-19T17:30:56Z</time>
      </trkpt>
      <trkpt lat="43.67577" lon="4.05739">
        <ele>29.46</ele>
        <time>2016-06-19T17:30:57Z</time>
      </trkpt>
      <trkpt lat="43.67581" lon="4.05732">
        <ele>29.46</ele>
        <time>2016-06-19T17:30:58Z</time>
      </trkpt>
      <trkpt lat="43.67586" lon="4.05726">
        <ele>29.46</ele>
        <time>2016-06-19T17:30:59Z</time>
      </trkpt>
      <trkpt lat="43.67591" lon="4.05719">
        <ele>28.98</ele>
        <time>2016-06-19T17:31:00Z</time>
      </trkpt>
      <trkpt lat="43.67594" lon="4.05711">
        <ele>28.98</ele>
        <time>2016-06-19T17:31:01Z</time>
      </trkpt>
      <trkpt lat="43.67595" lon="4.05702">
        <ele>28.98</ele>
        <time>2016-06-19T17:31:02Z</time>
      </trkpt>
      <trkpt lat="43.67595" lon="4.05694">
        <ele>29.46</ele>
        <time>2016-06-19T17:31:03Z</time>
      </trkpt>
      <trkpt lat="43.67593" lon="4.05685">
        <ele>29.46</ele>
        <time>2016-06-19T17:31:04Z</time>
      </trkpt>
      <trkpt lat="43.67589" lon="4.05678">
        <ele>28.98</ele>
        <time>2016-06-19T17:31:05Z</time>
      </trkpt>
      <trkpt lat="43.67583" lon="4.05673">
        <ele>28.98</ele>
        <time>2016-06-19T17:31:06Z</time>
      </trkpt>
      <trkpt lat="43.67577" lon="4.05669">
        <ele>28.98</ele>
        <time>2016-06-19T17:31:07Z</time>
      </trkpt>
      <trkpt lat="43.6757" lon="4.05667">
        <ele>28.98</ele>
        <time>2016-06-19T17:31:08Z</time>
      </trkpt>
      <trkpt lat="43.67563" lon="4.05664">
        <ele>28.5</ele>
        <time>2016-06-19T17:31:09Z</time>
      </trkpt>
      <trkpt lat="43.67556" lon="4.05659">
        <ele>28.5</ele>
        <time>2016-06-19T17:31:10Z</time>
      </trkpt>
      <trkpt lat="43.67549" lon="4.05651">
        <ele>28.5</ele>
        <time>2016-06-19T17:31:11Z</time>
      </trkpt>
      <trkpt lat="43.6754" lon="4.0564">
        <ele>28.5</ele>
        <time>2016-06-19T17:31:12Z</time>
      </trkpt>
      <trkpt lat="43.6753" lon="4.05626">
        <ele>28.5</ele>
        <time>2016-06-19T17:31:13Z</time>
      </trkpt>
      <trkpt lat="43.67519" lon="4.05609">
        <ele>28.5</ele>
        <time>2016-06-19T17:31:14Z</time>
      </trkpt>
      <trkpt lat="43.67508" lon="4.0559">
        <ele>28.98</ele>
        <time>2016-06-19T17:31:15Z</time>
      </trkpt>
      <trkpt lat="43.67417" lon="4.05454">
        <ele>29.46</ele>
        <time>2016-06-19T17:31:21Z</time>
      </trkpt>
      <trkpt lat="43.6716" lon="4.05138">
        <ele>29.46</ele>
        <time>2016-06-19T17:31:34Z</time>
      </trkpt>
      <trkpt lat="43.66971" lon="4.04913">
        <ele>26.57</ele>
        <time>2016-06-19T17:31:43Z</time>
      </trkpt>
      <trkpt lat="43.66738" lon="4.04524">
        <ele>26.09</ele>
        <time>2016-06-19T17:31:56Z</time>
      </trkpt>
      <trkpt lat="43.66636" lon="4.04254">
        <ele>28.02</ele>
        <time>2016-06-19T17:32:04Z</time>
      </trkpt>
      <trkpt lat="43.66562" lon="4.04051">
        <ele>28.5</ele>
        <time>2016-06-19T17:32:11Z</time>
      </trkpt>
      <trkpt lat="43.66529" lon="4.03944">
        <ele>28.98</ele>
        <time>2016-06-19T17:32:17Z</time>
      </trkpt>
      <trkpt lat="43.66527" lon="4.03923">
        <ele>28.98</ele>
        <time>2016-06-19T17:32:19Z</time>
      </trkpt>
      <trkpt lat="43.66527" lon="4.03914">
        <ele>28.98</ele>
        <time>2016-06-19T17:32:20Z</time>
      </trkpt>
      <trkpt lat="43.66529" lon="4.03905">
        <ele>28.5</ele>
        <time>2016-06-19T17:32:21Z</time>
      </trkpt>
      <trkpt lat="43.66533" lon="4.03887">
        <ele>27.53</ele>
        <time>2016-06-19T17:32:23Z</time>
      </trkpt>
      <trkpt lat="43.66531" lon="4.03879">
        <ele>28.02</ele>
        <time>2016-06-19T17:32:24Z</time>
      </trkpt>
      <trkpt lat="43.66527" lon="4.03872">
        <ele>27.53</ele>
        <time>2016-06-19T17:32:25Z</time>
      </trkpt>
      <trkpt lat="43.66521" lon="4.03867">
        <ele>27.05</ele>
        <time>2016-06-19T17:32:26Z</time>
      </trkpt>
      <trkpt lat="43.66513" lon="4.03863">
        <ele>27.05</ele>
        <time>2016-06-19T17:32:27Z</time>
      </trkpt>
      <trkpt lat="43.66506" lon="4.03859">
        <ele>27.05</ele>
        <time>2016-06-19T17:32:28Z</time>
      </trkpt>
      <trkpt lat="43.66499" lon="4.03849">
        <ele>27.05</ele>
        <time>2016-06-19T17:32:29Z</time>
      </trkpt>
      <trkpt lat="43.66491" lon="4.03836">
        <ele>27.05</ele>
        <time>2016-06-19T17:32:30Z</time>
      </trkpt>
      <trkpt lat="43.66485" lon="4.03822">
        <ele>27.05</ele>
        <time>2016-06-19T17:32:31Z</time>
      </trkpt>
      <trkpt lat="43.66478" lon="4.03807">
        <ele>27.05</ele>
        <time>2016-06-19T17:32:32Z</time>
      </trkpt>
      <trkpt lat="43.66415" lon="4.03639">
        <ele>27.05</ele>
        <time>2016-06-19T17:32:41Z</time>
      </trkpt>
      <trkpt lat="43.66357" lon="4.03486">
        <ele>26.57</ele>
        <time>2016-06-19T17:32:50Z</time>
      </trkpt>
      <trkpt lat="43.663" lon="4.03329">
        <ele>25.61</ele>
        <time>2016-06-19T17:32:58Z</time>
      </trkpt>
      <trkpt lat="43.66204" lon="4.03062">
        <ele>25.13</ele>
        <time>2016-06-19T17:33:08Z</time>
      </trkpt>
      <trkpt lat="43.661" lon="4.02738">
        <ele>23.69</ele>
        <time>2016-06-19T17:33:19Z</time>
      </trkpt>
      <trkpt lat="43.66028" lon="4.02258">
        <ele>25.61</ele>
        <time>2016-06-19T17:33:34Z</time>
      </trkpt>
      <trkpt lat="43.66001" lon="4.02078">
        <ele>25.13</ele>
        <time>2016-06-19T17:33:42Z</time>
      </trkpt>
      <trkpt lat="43.65948" lon="4.01779">
        <ele>26.57</ele>
        <time>2016-06-19T17:33:56Z</time>
      </trkpt>
      <trkpt lat="43.65891" lon="4.01592">
        <ele>25.13</ele>
        <time>2016-06-19T17:34:07Z</time>
      </trkpt>
      <trkpt lat="43.65864" lon="4.01494">
        <ele>27.05</ele>
        <time>2016-06-19T17:34:16Z</time>
      </trkpt>
      <trkpt lat="43.65846" lon="4.01379">
        <ele>29.94</ele>
        <time>2016-06-19T17:34:25Z</time>
      </trkpt>
      <trkpt lat="43.65813" lon="4.01261">
        <ele>30.42</ele>
        <time>2016-06-19T17:34:33Z</time>
      </trkpt>
      <trkpt lat="43.65784" lon="4.0115">
        <ele>29.94</ele>
        <time>2016-06-19T17:34:40Z</time>
      </trkpt>
      <trkpt lat="43.65729" lon="4.00952">
        <ele>31.86</ele>
        <time>2016-06-19T17:34:51Z</time>
      </trkpt>
      <trkpt lat="43.65712" lon="4.00888">
        <ele>34.26</ele>
        <time>2016-06-19T17:34:58Z</time>
      </trkpt>
      <trkpt lat="43.65709" lon="4.00885">
        <ele>41.47</ele>
        <time>2016-06-19T17:35:10Z</time>
      </trkpt>
      <trkpt lat="43.65701" lon="4.00846">
        <ele>38.59</ele>
        <time>2016-06-19T17:35:32Z</time>
      </trkpt>
      <trkpt lat="43.65671" lon="4.00743">
        <ele>35.23</ele>
        <time>2016-06-19T17:35:37Z</time>
      </trkpt>
      <trkpt lat="43.65602" lon="4.00491">
        <ele>29.94</ele>
        <time>2016-06-19T17:35:47Z</time>
      </trkpt>
      <trkpt lat="43.65522" lon="4.00191">
        <ele>30.9</ele>
        <time>2016-06-19T17:35:59Z</time>
      </trkpt>
      <trkpt lat="43.65509" lon="4.0013">
        <ele>31.38</ele>
        <time>2016-06-19T17:36:03Z</time>
      </trkpt>
      <trkpt lat="43.65508" lon="4.00117">
        <ele>31.38</ele>
        <time>2016-06-19T17:36:04Z</time>
      </trkpt>
      <trkpt lat="43.65509" lon="4.00104">
        <ele>31.86</ele>
        <time>2016-06-19T17:36:05Z</time>
      </trkpt>
      <trkpt lat="43.65512" lon="4.0009">
        <ele>31.38</ele>
        <time>2016-06-19T17:36:06Z</time>
      </trkpt>
      <trkpt lat="43.65514" lon="4.00076">
        <ele>31.38</ele>
        <time>2016-06-19T17:36:07Z</time>
      </trkpt>
      <trkpt lat="43.65515" lon="4.00062">
        <ele>31.38</ele>
        <time>2016-06-19T17:36:08Z</time>
      </trkpt>
      <trkpt lat="43.65513" lon="4.00048">
        <ele>31.38</ele>
        <time>2016-06-19T17:36:09Z</time>
      </trkpt>
      <trkpt lat="43.65508" lon="4.00034">
        <ele>31.86</ele>
        <time>2016-06-19T17:36:10Z</time>
      </trkpt>
      <trkpt lat="43.655" lon="4.00022">
        <ele>31.86</ele>
        <time>2016-06-19T17:36:11Z</time>
      </trkpt>
      <trkpt lat="43.6549" lon="4.00012">
        <ele>31.86</ele>
        <time>2016-06-19T17:36:12Z</time>
      </trkpt>
      <trkpt lat="43.65479" lon="4.00002">
        <ele>31.86</ele>
        <time>2016-06-19T17:36:13Z</time>
      </trkpt>
      <trkpt lat="43.65461" lon="3.99973">
        <ele>32.34</ele>
        <time>2016-06-19T17:36:15Z</time>
      </trkpt>
      <trkpt lat="43.65458" lon="3.99952">
        <ele>32.82</ele>
        <time>2016-06-19T17:36:16Z</time>
      </trkpt>
      <trkpt lat="43.65456" lon="3.99928">
        <ele>32.82</ele>
        <time>2016-06-19T17:36:17Z</time>
      </trkpt>
      <trkpt lat="43.65453" lon="3.99902">
        <ele>33.3</ele>
        <time>2016-06-19T17:36:18Z</time>
      </trkpt>
      <trkpt lat="43.65419" lon="3.99622">
        <ele>40.51</ele>
        <time>2016-06-19T17:36:28Z</time>
      </trkpt>
      <trkpt lat="43.65416" lon="3.99547">
        <ele>42.92</ele>
        <time>2016-06-19T17:36:33Z</time>
      </trkpt>
      <trkpt lat="43.65418" lon="3.99542">
        <ele>42.92</ele>
        <time>2016-06-19T17:36:34Z</time>
      </trkpt>
      <trkpt lat="43.65422" lon="3.99536">
        <ele>42.92</ele>
        <time>2016-06-19T17:36:35Z</time>
      </trkpt>
      <trkpt lat="43.6543" lon="3.99516">
        <ele>43.4</ele>
        <time>2016-06-19T17:36:37Z</time>
      </trkpt>
      <trkpt lat="43.6543" lon="3.99504">
        <ele>43.4</ele>
        <time>2016-06-19T17:36:38Z</time>
      </trkpt>
      <trkpt lat="43.65427" lon="3.99492">
        <ele>43.4</ele>
        <time>2016-06-19T17:36:39Z</time>
      </trkpt>
      <trkpt lat="43.65419" lon="3.99462">
        <ele>42.44</ele>
        <time>2016-06-19T17:36:41Z</time>
      </trkpt>
      <trkpt lat="43.65419" lon="3.99442">
        <ele>42.44</ele>
        <time>2016-06-19T17:36:42Z</time>
      </trkpt>
      <trkpt lat="43.65421" lon="3.99421">
        <ele>42.44</ele>
        <time>2016-06-19T17:36:43Z</time>
      </trkpt>
      <trkpt lat="43.65456" lon="3.99217">
        <ele>44.84</ele>
        <time>2016-06-19T17:36:52Z</time>
      </trkpt>
      <trkpt lat="43.6548" lon="3.99095">
        <ele>43.88</ele>
        <time>2016-06-19T17:36:57Z</time>
      </trkpt>
      <trkpt lat="43.65486" lon="3.9908">
        <ele>44.36</ele>
        <time>2016-06-19T17:36:58Z</time>
      </trkpt>
      <trkpt lat="43.65494" lon="3.99066">
        <ele>44.36</ele>
        <time>2016-06-19T17:36:59Z</time>
      </trkpt>
      <trkpt lat="43.65503" lon="3.99056">
        <ele>44.36</ele>
        <time>2016-06-19T17:37:00Z</time>
      </trkpt>
      <trkpt lat="43.65513" lon="3.99048">
        <ele>44.84</ele>
        <time>2016-06-19T17:37:01Z</time>
      </trkpt>
      <trkpt lat="43.65523" lon="3.99041">
        <ele>45.32</ele>
        <time>2016-06-19T17:37:02Z</time>
      </trkpt>
      <trkpt lat="43.65529" lon="3.99031">
        <ele>45.32</ele>
        <time>2016-06-19T17:37:03Z</time>
      </trkpt>
      <trkpt lat="43.6553" lon="3.99018">
        <ele>45.8</ele>
        <time>2016-06-19T17:37:04Z</time>
      </trkpt>
      <trkpt lat="43.65528" lon="3.99005">
        <ele>45.32</ele>
        <time>2016-06-19T17:37:05Z</time>
      </trkpt>
      <trkpt lat="43.65521" lon="3.98993">
        <ele>45.32</ele>
        <time>2016-06-19T17:37:06Z</time>
      </trkpt>
      <trkpt lat="43.65514" lon="3.9898">
        <ele>45.32</ele>
        <time>2016-06-19T17:37:07Z</time>
      </trkpt>
      <trkpt lat="43.65507" lon="3.98963">
        <ele>45.32</ele>
        <time>2016-06-19T17:37:08Z</time>
      </trkpt>
      <trkpt lat="43.65502" lon="3.98942">
        <ele>44.84</ele>
        <time>2016-06-19T17:37:09Z</time>
      </trkpt>
      <trkpt lat="43.655" lon="3.98919">
        <ele>43.88</ele>
        <time>2016-06-19T17:37:10Z</time>
      </trkpt>
      <trkpt lat="43.65498" lon="3.98896">
        <ele>43.4</ele>
        <time>2016-06-19T17:37:11Z</time>
      </trkpt>
      <trkpt lat="43.65455" lon="3.98632">
        <ele>38.59</ele>
        <time>2016-06-19T17:37:22Z</time>
      </trkpt>
      <trkpt lat="43.65383" lon="3.98345">
        <ele>37.63</ele>
        <time>2016-06-19T17:37:33Z</time>
      </trkpt>
      <trkpt lat="43.65308" lon="3.98042">
        <ele>38.11</ele>
        <time>2016-06-19T17:37:44Z</time>
      </trkpt>
      <trkpt lat="43.6527" lon="3.97812">
        <ele>38.11</ele>
        <time>2016-06-19T17:37:54Z</time>
      </trkpt>
      <trkpt lat="43.65258" lon="3.97674">
        <ele>39.07</ele>
        <time>2016-06-19T17:38:02Z</time>
      </trkpt>
      <trkpt lat="43.65261" lon="3.97647">
        <ele>39.55</ele>
        <time>2016-06-19T17:38:04Z</time>
      </trkpt>
      <trkpt lat="43.65265" lon="3.97637">
        <ele>39.07</ele>
        <time>2016-06-19T17:38:05Z</time>
      </trkpt>
      <trkpt lat="43.65272" lon="3.97628">
        <ele>39.07</ele>
        <time>2016-06-19T17:38:06Z</time>
      </trkpt>
      <trkpt lat="43.65278" lon="3.97619">
        <ele>39.07</ele>
        <time>2016-06-19T17:38:07Z</time>
      </trkpt>
      <trkpt lat="43.65283" lon="3.97607">
        <ele>39.07</ele>
        <time>2016-06-19T17:38:08Z</time>
      </trkpt>
      <trkpt lat="43.65286" lon="3.97594">
        <ele>39.55</ele>
        <time>2016-06-19T17:38:09Z</time>
      </trkpt>
      <trkpt lat="43.65286" lon="3.9758">
        <ele>39.55</ele>
        <time>2016-06-19T17:38:10Z</time>
      </trkpt>
      <trkpt lat="43.65284" lon="3.97565">
        <ele>39.55</ele>
        <time>2016-06-19T17:38:11Z</time>
      </trkpt>
      <trkpt lat="43.65279" lon="3.97551">
        <ele>39.07</ele>
        <time>2016-06-19T17:38:12Z</time>
      </trkpt>
      <trkpt lat="43.65272" lon="3.97539">
        <ele>39.07</ele>
        <time>2016-06-19T17:38:13Z</time>
      </trkpt>
      <trkpt lat="43.65264" lon="3.97527">
        <ele>38.59</ele>
        <time>2016-06-19T17:38:14Z</time>
      </trkpt>
      <trkpt lat="43.65256" lon="3.97513">
        <ele>38.59</ele>
        <time>2016-06-19T17:38:15Z</time>
      </trkpt>
      <trkpt lat="43.65251" lon="3.97496">
        <ele>38.59</ele>
        <time>2016-06-19T17:38:16Z</time>
      </trkpt>
      <trkpt lat="43.65249" lon="3.97476">
        <ele>38.59</ele>
        <time>2016-06-19T17:38:17Z</time>
      </trkpt>
      <trkpt lat="43.6525" lon="3.97453">
        <ele>38.59</ele>
        <time>2016-06-19T17:38:18Z</time>
      </trkpt>
      <trkpt lat="43.65252" lon="3.97428">
        <ele>38.11</ele>
        <time>2016-06-19T17:38:19Z</time>
      </trkpt>
      <trkpt lat="43.65286" lon="3.97249">
        <ele>39.55</ele>
        <time>2016-06-19T17:38:26Z</time>
      </trkpt>
      <trkpt lat="43.65354" lon="3.97044">
        <ele>40.03</ele>
        <time>2016-06-19T17:38:36Z</time>
      </trkpt>
      <trkpt lat="43.65383" lon="3.96891">
        <ele>40.99</ele>
        <time>2016-06-19T17:38:43Z</time>
      </trkpt>
      <trkpt lat="43.65384" lon="3.96843">
        <ele>41.95</ele>
        <time>2016-06-19T17:38:48Z</time>
      </trkpt>
      <trkpt lat="43.65383" lon="3.96847">
        <ele>43.4</ele>
        <time>2016-06-19T17:39:03Z</time>
      </trkpt>
      <trkpt lat="43.65386" lon="3.96804">
        <ele>43.88</ele>
        <time>2016-06-19T17:39:16Z</time>
      </trkpt>
      <trkpt lat="43.65386" lon="3.96656">
        <ele>45.8</ele>
        <time>2016-06-19T17:39:23Z</time>
      </trkpt>
      <trkpt lat="43.65379" lon="3.96466">
        <ele>48.68</ele>
        <time>2016-06-19T17:39:30Z</time>
      </trkpt>
      <trkpt lat="43.65373" lon="3.96437">
        <ele>49.16</ele>
        <time>2016-06-19T17:39:31Z</time>
      </trkpt>
      <trkpt lat="43.65365" lon="3.96408">
        <ele>49.16</ele>
        <time>2016-06-19T17:39:32Z</time>
      </trkpt>
      <trkpt lat="43.65355" lon="3.9638">
        <ele>49.16</ele>
        <time>2016-06-19T17:39:33Z</time>
      </trkpt>
      <trkpt lat="43.65341" lon="3.96353">
        <ele>48.68</ele>
        <time>2016-06-19T17:39:34Z</time>
      </trkpt>
      <trkpt lat="43.65327" lon="3.96328">
        <ele>48.2</ele>
        <time>2016-06-19T17:39:35Z</time>
      </trkpt>
      <trkpt lat="43.65313" lon="3.96303">
        <ele>48.2</ele>
        <time>2016-06-19T17:39:36Z</time>
      </trkpt>
      <trkpt lat="43.65257" lon="3.962">
        <ele>47.24</ele>
        <time>2016-06-19T17:39:41Z</time>
      </trkpt>
      <trkpt lat="43.65252" lon="3.96182">
        <ele>47.24</ele>
        <time>2016-06-19T17:39:42Z</time>
      </trkpt>
      <trkpt lat="43.65248" lon="3.96165">
        <ele>47.24</ele>
        <time>2016-06-19T17:39:43Z</time>
      </trkpt>
      <trkpt lat="43.65245" lon="3.96151">
        <ele>47.24</ele>
        <time>2016-06-19T17:39:44Z</time>
      </trkpt>
      <trkpt lat="43.65239" lon="3.96142">
        <ele>47.24</ele>
        <time>2016-06-19T17:39:45Z</time>
      </trkpt>
      <trkpt lat="43.6523" lon="3.96138">
        <ele>46.76</ele>
        <time>2016-06-19T17:39:46Z</time>
      </trkpt>
      <trkpt lat="43.6522" lon="3.96131">
        <ele>46.76</ele>
        <time>2016-06-19T17:39:47Z</time>
      </trkpt>
      <trkpt lat="43.65209" lon="3.96119">
        <ele>46.28</ele>
        <time>2016-06-19T17:39:48Z</time>
      </trkpt>
      <trkpt lat="43.65198" lon="3.961">
        <ele>46.28</ele>
        <time>2016-06-19T17:39:49Z</time>
      </trkpt>
      <trkpt lat="43.65115" lon="3.95957">
        <ele>46.28</ele>
        <time>2016-06-19T17:39:55Z</time>
      </trkpt>
      <trkpt lat="43.64943" lon="3.95672">
        <ele>45.8</ele>
        <time>2016-06-19T17:40:05Z</time>
      </trkpt>
      <trkpt lat="43.64711" lon="3.95357">
        <ele>41.95</ele>
        <time>2016-06-19T17:40:17Z</time>
      </trkpt>
      <trkpt lat="43.64577" lon="3.95229">
        <ele>39.55</ele>
        <time>2016-06-19T17:40:24Z</time>
      </trkpt>
      <trkpt lat="43.64427" lon="3.95085">
        <ele>39.07</ele>
        <time>2016-06-19T17:40:34Z</time>
      </trkpt>
      <trkpt lat="43.64416" lon="3.95067">
        <ele>38.59</ele>
        <time>2016-06-19T17:40:35Z</time>
      </trkpt>
      <trkpt lat="43.64406" lon="3.95048">
        <ele>38.59</ele>
        <time>2016-06-19T17:40:36Z</time>
      </trkpt>
      <trkpt lat="43.64397" lon="3.95027">
        <ele>38.59</ele>
        <time>2016-06-19T17:40:37Z</time>
      </trkpt>
      <trkpt lat="43.6439" lon="3.95006">
        <ele>38.59</ele>
        <time>2016-06-19T17:40:38Z</time>
      </trkpt>
      <trkpt lat="43.64383" lon="3.94983">
        <ele>39.07</ele>
        <time>2016-06-19T17:40:39Z</time>
      </trkpt>
      <trkpt lat="43.64327" lon="3.9479">
        <ele>38.11</ele>
        <time>2016-06-19T17:40:46Z</time>
      </trkpt>
      <trkpt lat="43.6428" lon="3.94613">
        <ele>39.07</ele>
        <time>2016-06-19T17:40:53Z</time>
      </trkpt>
      <trkpt lat="43.64242" lon="3.94479">
        <ele>40.99</ele>
        <time>2016-06-19T17:41:01Z</time>
      </trkpt>
      <trkpt lat="43.64202" lon="3.94325">
        <ele>41.95</ele>
        <time>2016-06-19T17:41:12Z</time>
      </trkpt>
      <trkpt lat="43.64199" lon="3.94302">
        <ele>41.95</ele>
        <time>2016-06-19T17:41:14Z</time>
      </trkpt>
      <trkpt lat="43.64195" lon="3.94291">
        <ele>41.95</ele>
        <time>2016-06-19T17:41:15Z</time>
      </trkpt>
      <trkpt lat="43.64181" lon="3.94265">
        <ele>41.47</ele>
        <time>2016-06-19T17:41:17Z</time>
      </trkpt>
      <trkpt lat="43.64176" lon="3.9425">
        <ele>41.47</ele>
        <time>2016-06-19T17:41:18Z</time>
      </trkpt>
      <trkpt lat="43.64119" lon="3.9406">
        <ele>40.03</ele>
        <time>2016-06-19T17:41:29Z</time>
      </trkpt>
      <trkpt lat="43.64047" lon="3.93842">
        <ele>39.55</ele>
        <time>2016-06-19T17:41:42Z</time>
      </trkpt>
      <trkpt lat="43.63986" lon="3.9366">
        <ele>40.99</ele>
        <time>2016-06-19T17:41:51Z</time>
      </trkpt>
      <trkpt lat="43.6392" lon="3.93462">
        <ele>41.95</ele>
        <time>2016-06-19T17:42:01Z</time>
      </trkpt>
      <trkpt lat="43.63906" lon="3.93411">
        <ele>42.44</ele>
        <time>2016-06-19T17:42:05Z</time>
      </trkpt>
      <trkpt lat="43.63907" lon="3.93401">
        <ele>42.44</ele>
        <time>2016-06-19T17:42:06Z</time>
      </trkpt>
      <trkpt lat="43.63908" lon="3.93384">
        <ele>42.44</ele>
        <time>2016-06-19T17:42:08Z</time>
      </trkpt>
      <trkpt lat="43.63904" lon="3.93376">
        <ele>41.95</ele>
        <time>2016-06-19T17:42:09Z</time>
      </trkpt>
      <trkpt lat="43.63894" lon="3.93358">
        <ele>41.95</ele>
        <time>2016-06-19T17:42:11Z</time>
      </trkpt>
      <trkpt lat="43.63889" lon="3.93345">
        <ele>41.95</ele>
        <time>2016-06-19T17:42:12Z</time>
      </trkpt>
      <trkpt lat="43.6385" lon="3.93219">
        <ele>42.44</ele>
        <time>2016-06-19T17:42:21Z</time>
      </trkpt>
      <trkpt lat="43.63848" lon="3.93204">
        <ele>42.44</ele>
        <time>2016-06-19T17:42:22Z</time>
      </trkpt>
      <trkpt lat="43.63847" lon="3.9313">
        <ele>42.92</ele>
        <time>2016-06-19T17:42:28Z</time>
      </trkpt>
      <trkpt lat="43.63851" lon="3.93121">
        <ele>42.92</ele>
        <time>2016-06-19T17:42:29Z</time>
      </trkpt>
      <trkpt lat="43.63859" lon="3.93097">
        <ele>42.92</ele>
        <time>2016-06-19T17:42:31Z</time>
      </trkpt>
      <trkpt lat="43.63859" lon="3.93082">
        <ele>42.92</ele>
        <time>2016-06-19T17:42:32Z</time>
      </trkpt>
      <trkpt lat="43.63856" lon="3.9307">
        <ele>42.44</ele>
        <time>2016-06-19T17:42:33Z</time>
      </trkpt>
      <trkpt lat="43.63848" lon="3.93061">
        <ele>42.44</ele>
        <time>2016-06-19T17:42:34Z</time>
      </trkpt>
      <trkpt lat="43.63838" lon="3.93056">
        <ele>42.44</ele>
        <time>2016-06-19T17:42:35Z</time>
      </trkpt>
      <trkpt lat="43.63826" lon="3.93052">
        <ele>41.95</ele>
        <time>2016-06-19T17:42:36Z</time>
      </trkpt>
      <trkpt lat="43.63813" lon="3.93043">
        <ele>41.95</ele>
        <time>2016-06-19T17:42:37Z</time>
      </trkpt>
      <trkpt lat="43.63801" lon="3.93029">
        <ele>41.95</ele>
        <time>2016-06-19T17:42:38Z</time>
      </trkpt>
      <trkpt lat="43.6379" lon="3.93013">
        <ele>41.95</ele>
        <time>2016-06-19T17:42:39Z</time>
      </trkpt>
      <trkpt lat="43.63778" lon="3.92996">
        <ele>41.95</ele>
        <time>2016-06-19T17:42:40Z</time>
      </trkpt>
      <trkpt lat="43.63757" lon="3.92964">
        <ele>41.95</ele>
        <time>2016-06-19T17:42:42Z</time>
      </trkpt>
      <trkpt lat="43.63749" lon="3.92946">
        <ele>41.95</ele>
        <time>2016-06-19T17:42:43Z</time>
      </trkpt>
      <trkpt lat="43.63742" lon="3.92927">
        <ele>41.95</ele>
        <time>2016-06-19T17:42:44Z</time>
      </trkpt>
      <trkpt lat="43.63667" lon="3.92744">
        <ele>42.92</ele>
        <time>2016-06-19T17:42:54Z</time>
      </trkpt>
      <trkpt lat="43.63646" lon="3.92696">
        <ele>43.88</ele>
        <time>2016-06-19T17:42:58Z</time>
      </trkpt>
      <trkpt lat="43.63645" lon="3.92686">
        <ele>44.36</ele>
        <time>2016-06-19T17:42:59Z</time>
      </trkpt>
      <trkpt lat="43.63646" lon="3.92676">
        <ele>44.84</ele>
        <time>2016-06-19T17:43:00Z</time>
      </trkpt>
      <trkpt lat="43.63647" lon="3.92666">
        <ele>45.32</ele>
        <time>2016-06-19T17:43:01Z</time>
      </trkpt>
      <trkpt lat="43.63646" lon="3.92657">
        <ele>45.32</ele>
        <time>2016-06-19T17:43:02Z</time>
      </trkpt>
      <trkpt lat="43.63643" lon="3.92649">
        <ele>45.32</ele>
        <time>2016-06-19T17:43:03Z</time>
      </trkpt>
      <trkpt lat="43.63638" lon="3.92642">
        <ele>45.32</ele>
        <time>2016-06-19T17:43:04Z</time>
      </trkpt>
      <trkpt lat="43.63631" lon="3.92635">
        <ele>44.84</ele>
        <time>2016-06-19T17:43:05Z</time>
      </trkpt>
      <trkpt lat="43.63624" lon="3.92626">
        <ele>44.84</ele>
        <time>2016-06-19T17:43:06Z</time>
      </trkpt>
      <trkpt lat="43.63618" lon="3.92614">
        <ele>44.84</ele>
        <time>2016-06-19T17:43:07Z</time>
      </trkpt>
      <trkpt lat="43.63566" lon="3.92505">
        <ele>46.76</ele>
        <time>2016-06-19T17:43:16Z</time>
      </trkpt>
      <trkpt lat="43.63491" lon="3.92339">
        <ele>47.24</ele>
        <time>2016-06-19T17:43:29Z</time>
      </trkpt>
      <trkpt lat="43.63421" lon="3.92165">
        <ele>45.8</ele>
        <time>2016-06-19T17:43:41Z</time>
      </trkpt>
      <trkpt lat="43.63414" lon="3.92143">
        <ele>45.8</ele>
        <time>2016-06-19T17:43:43Z</time>
      </trkpt>
      <trkpt lat="43.6341" lon="3.9213">
        <ele>45.8</ele>
        <time>2016-06-19T17:43:44Z</time>
      </trkpt>
      <trkpt lat="43.63404" lon="3.92117">
        <ele>45.32</ele>
        <time>2016-06-19T17:43:45Z</time>
      </trkpt>
      <trkpt lat="43.63398" lon="3.92102">
        <ele>45.8</ele>
        <time>2016-06-19T17:43:46Z</time>
      </trkpt>
      <trkpt lat="43.63392" lon="3.92085">
        <ele>45.32</ele>
        <time>2016-06-19T17:43:47Z</time>
      </trkpt>
      <trkpt lat="43.63388" lon="3.92067">
        <ele>45.32</ele>
        <time>2016-06-19T17:43:48Z</time>
      </trkpt>
      <trkpt lat="43.63359" lon="3.91925">
        <ele>43.88</ele>
        <time>2016-06-19T17:43:57Z</time>
      </trkpt>
      <trkpt lat="43.63356" lon="3.91909">
        <ele>43.4</ele>
        <time>2016-06-19T17:43:58Z</time>
      </trkpt>
      <trkpt lat="43.63312" lon="3.917">
        <ele>40.99</ele>
        <time>2016-06-19T17:44:12Z</time>
      </trkpt>
      <trkpt lat="43.63306" lon="3.91666">
        <ele>40.99</ele>
        <time>2016-06-19T17:44:15Z</time>
      </trkpt>
      <trkpt lat="43.63306" lon="3.91656">
        <ele>40.99</ele>
        <time>2016-06-19T17:44:16Z</time>
      </trkpt>
      <trkpt lat="43.63307" lon="3.91645">
        <ele>40.99</ele>
        <time>2016-06-19T17:44:17Z</time>
      </trkpt>
      <trkpt lat="43.63307" lon="3.91635">
        <ele>40.99</ele>
        <time>2016-06-19T17:44:18Z</time>
      </trkpt>
      <trkpt lat="43.63304" lon="3.91624">
        <ele>40.99</ele>
        <time>2016-06-19T17:44:19Z</time>
      </trkpt>
      <trkpt lat="43.633" lon="3.91614">
        <ele>40.99</ele>
        <time>2016-06-19T17:44:20Z</time>
      </trkpt>
      <trkpt lat="43.63295" lon="3.91603">
        <ele>40.99</ele>
        <time>2016-06-19T17:44:21Z</time>
      </trkpt>
      <trkpt lat="43.6329" lon="3.91589">
        <ele>40.99</ele>
        <time>2016-06-19T17:44:22Z</time>
      </trkpt>
      <trkpt lat="43.63287" lon="3.91575">
        <ele>41.47</ele>
        <time>2016-06-19T17:44:23Z</time>
      </trkpt>
      <trkpt lat="43.63238" lon="3.91326">
        <ele>40.99</ele>
        <time>2016-06-19T17:44:41Z</time>
      </trkpt>
      <trkpt lat="43.63184" lon="3.91058">
        <ele>39.07</ele>
        <time>2016-06-19T17:44:59Z</time>
      </trkpt>
      <trkpt lat="43.63149" lon="3.90886">
        <ele>38.59</ele>
        <time>2016-06-19T17:45:12Z</time>
      </trkpt>
      <trkpt lat="43.63146" lon="3.90853">
        <ele>39.07</ele>
        <time>2016-06-19T17:45:18Z</time>
      </trkpt>
      <trkpt lat="43.63146" lon="3.90845">
        <ele>39.07</ele>
        <time>2016-06-19T17:45:19Z</time>
      </trkpt>
      <trkpt lat="43.63147" lon="3.90828">
        <ele>38.11</ele>
        <time>2016-06-19T17:45:21Z</time>
      </trkpt>
      <trkpt lat="43.63144" lon="3.90819">
        <ele>38.11</ele>
        <time>2016-06-19T17:45:22Z</time>
      </trkpt>
      <trkpt lat="43.6314" lon="3.90809">
        <ele>38.11</ele>
        <time>2016-06-19T17:45:23Z</time>
      </trkpt>
      <trkpt lat="43.63134" lon="3.90795">
        <ele>38.11</ele>
        <time>2016-06-19T17:45:24Z</time>
      </trkpt>
      <trkpt lat="43.63131" lon="3.9078">
        <ele>38.11</ele>
        <time>2016-06-19T17:45:25Z</time>
      </trkpt>
      <trkpt lat="43.63127" lon="3.90764">
        <ele>38.11</ele>
        <time>2016-06-19T17:45:26Z</time>
      </trkpt>
      <trkpt lat="43.63108" lon="3.90672">
        <ele>36.67</ele>
        <time>2016-06-19T17:45:34Z</time>
      </trkpt>
      <trkpt lat="43.63086" lon="3.90568">
        <ele>35.23</ele>
        <time>2016-06-19T17:45:43Z</time>
      </trkpt>
      <trkpt lat="43.63041" lon="3.90346">
        <ele>34.74</ele>
        <time>2016-06-19T17:45:59Z</time>
      </trkpt>
      <trkpt lat="43.63008" lon="3.90177">
        <ele>34.74</ele>
        <time>2016-06-19T17:46:12Z</time>
      </trkpt>
      <trkpt lat="43.62981" lon="3.90021">
        <ele>34.74</ele>
        <time>2016-06-19T17:46:24Z</time>
      </trkpt>
      <trkpt lat="43.62977" lon="3.89987">
        <ele>34.26</ele>
        <time>2016-06-19T17:46:28Z</time>
      </trkpt>
      <trkpt lat="43.62977" lon="3.89978">
        <ele>34.26</ele>
        <time>2016-06-19T17:46:29Z</time>
      </trkpt>
      <trkpt lat="43.6298" lon="3.89959">
        <ele>34.26</ele>
        <time>2016-06-19T17:46:31Z</time>
      </trkpt>
      <trkpt lat="43.62979" lon="3.89949">
        <ele>34.26</ele>
        <time>2016-06-19T17:46:32Z</time>
      </trkpt>
      <trkpt lat="43.62966" lon="3.89896">
        <ele>33.78</ele>
        <time>2016-06-19T17:46:36Z</time>
      </trkpt>
      <trkpt lat="43.62942" lon="3.89811">
        <ele>33.78</ele>
        <time>2016-06-19T17:46:44Z</time>
      </trkpt>
      <trkpt lat="43.6294" lon="3.89804">
        <ele>33.78</ele>
        <time>2016-06-19T17:46:45Z</time>
      </trkpt>
      <trkpt lat="43.62935" lon="3.898">
        <ele>33.3</ele>
        <time>2016-06-19T17:46:46Z</time>
      </trkpt>
      <trkpt lat="43.62931" lon="3.89798">
        <ele>32.82</ele>
        <time>2016-06-19T17:46:47Z</time>
      </trkpt>
      <trkpt lat="43.62926" lon="3.89799">
        <ele>32.34</ele>
        <time>2016-06-19T17:46:48Z</time>
      </trkpt>
      <trkpt lat="43.62922" lon="3.89801">
        <ele>32.34</ele>
        <time>2016-06-19T17:46:49Z</time>
      </trkpt>
      <trkpt lat="43.62919" lon="3.89803">
        <ele>31.86</ele>
        <time>2016-06-19T17:46:50Z</time>
      </trkpt>
      <trkpt lat="43.62917" lon="3.89804">
        <ele>31.86</ele>
        <time>2016-06-19T17:46:51Z</time>
      </trkpt>
      <trkpt lat="43.62916" lon="3.89807">
        <ele>31.86</ele>
        <time>2016-06-19T17:47:06Z</time>
      </trkpt>
      <trkpt lat="43.62891" lon="3.89819">
        <ele>31.86</ele>
        <time>2016-06-19T17:47:13Z</time>
      </trkpt>
      <trkpt lat="43.62883" lon="3.89819">
        <ele>31.86</ele>
        <time>2016-06-19T17:47:14Z</time>
      </trkpt>
      <trkpt lat="43.62873" lon="3.89815">
        <ele>31.86</ele>
        <time>2016-06-19T17:47:15Z</time>
      </trkpt>
      <trkpt lat="43.62864" lon="3.89809">
        <ele>31.86</ele>
        <time>2016-06-19T17:47:16Z</time>
      </trkpt>
      <trkpt lat="43.62857" lon="3.89801">
        <ele>31.86</ele>
        <time>2016-06-19T17:47:17Z</time>
      </trkpt>
      <trkpt lat="43.62835" lon="3.89779">
        <ele>31.86</ele>
        <time>2016-06-19T17:47:23Z</time>
      </trkpt>
      <trkpt lat="43.62835" lon="3.89779">
        <ele>31.86</ele>
        <time>2016-06-19T17:47:39Z</time>
      </trkpt>
      <trkpt lat="43.62824" lon="3.89762">
        <ele>31.38</ele>
        <time>2016-06-19T17:47:50Z</time>
      </trkpt>
      <trkpt lat="43.6282" lon="3.89753">
        <ele>30.9</ele>
        <time>2016-06-19T17:47:51Z</time>
      </trkpt>
      <trkpt lat="43.62818" lon="3.89743">
        <ele>30.9</ele>
        <time>2016-06-19T17:47:52Z</time>
      </trkpt>
      <trkpt lat="43.62811" lon="3.89712">
        <ele>30.42</ele>
        <time>2016-06-19T17:47:56Z</time>
      </trkpt>
      <trkpt lat="43.62811" lon="3.89702">
        <ele>30.42</ele>
        <time>2016-06-19T17:47:57Z</time>
      </trkpt>
      <trkpt lat="43.62812" lon="3.89691">
        <ele>30.9</ele>
        <time>2016-06-19T17:47:58Z</time>
      </trkpt>
      <trkpt lat="43.62814" lon="3.89679">
        <ele>30.9</ele>
        <time>2016-06-19T17:47:59Z</time>
      </trkpt>
      <trkpt lat="43.62818" lon="3.89667">
        <ele>30.9</ele>
        <time>2016-06-19T17:48:00Z</time>
      </trkpt>
      <trkpt lat="43.62824" lon="3.89655">
        <ele>30.42</ele>
        <time>2016-06-19T17:48:01Z</time>
      </trkpt>
      <trkpt lat="43.62831" lon="3.89642">
        <ele>30.42</ele>
        <time>2016-06-19T17:48:02Z</time>
      </trkpt>
      <trkpt lat="43.6284" lon="3.89628">
        <ele>29.94</ele>
        <time>2016-06-19T17:48:03Z</time>
      </trkpt>
      <trkpt lat="43.62877" lon="3.89556">
        <ele>30.42</ele>
        <time>2016-06-19T17:48:08Z</time>
      </trkpt>
      <trkpt lat="43.62882" lon="3.89539">
        <ele>30.9</ele>
        <time>2016-06-19T17:48:09Z</time>
      </trkpt>
      <trkpt lat="43.62885" lon="3.89522">
        <ele>31.38</ele>
        <time>2016-06-19T17:48:10Z</time>
      </trkpt>
      <trkpt lat="43.62886" lon="3.89505">
        <ele>31.38</ele>
        <time>2016-06-19T17:48:11Z</time>
      </trkpt>
      <trkpt lat="43.62886" lon="3.89488">
        <ele>31.86</ele>
        <time>2016-06-19T17:48:12Z</time>
      </trkpt>
      <trkpt lat="43.62883" lon="3.8947">
        <ele>31.86</ele>
        <time>2016-06-19T17:48:13Z</time>
      </trkpt>
      <trkpt lat="43.62879" lon="3.89453">
        <ele>31.38</ele>
        <time>2016-06-19T17:48:14Z</time>
      </trkpt>
      <trkpt lat="43.62872" lon="3.89436">
        <ele>31.38</ele>
        <time>2016-06-19T17:48:15Z</time>
      </trkpt>
      <trkpt lat="43.62865" lon="3.8942">
        <ele>31.38</ele>
        <time>2016-06-19T17:48:16Z</time>
      </trkpt>
      <trkpt lat="43.62857" lon="3.89405">
        <ele>31.38</ele>
        <time>2016-06-19T17:48:17Z</time>
      </trkpt>
      <trkpt lat="43.62754" lon="3.8922">
        <ele>31.38</ele>
        <time>2016-06-19T17:48:29Z</time>
      </trkpt>
      <trkpt lat="43.62707" lon="3.89065">
        <ele>32.82</ele>
        <time>2016-06-19T17:48:39Z</time>
      </trkpt>
      <trkpt lat="43.62699" lon="3.89014">
        <ele>33.3</ele>
        <time>2016-06-19T17:48:45Z</time>
      </trkpt>
      <trkpt lat="43.62699" lon="3.89013">
        <ele>33.78</ele>
        <time>2016-06-19T17:48:56Z</time>
      </trkpt>
      <trkpt lat="43.6269" lon="3.88966">
        <ele>31.86</ele>
        <time>2016-06-19T17:49:22Z</time>
      </trkpt>
      <trkpt lat="43.62655" lon="3.88832">
        <ele>33.3</ele>
        <time>2016-06-19T17:49:28Z</time>
      </trkpt>
      <trkpt lat="43.62628" lon="3.88715">
        <ele>35.71</ele>
        <time>2016-06-19T17:49:33Z</time>
      </trkpt>
      <trkpt lat="43.62627" lon="3.88689">
        <ele>36.19</ele>
        <time>2016-06-19T17:49:34Z</time>
      </trkpt>
      <trkpt lat="43.62627" lon="3.88662">
        <ele>37.15</ele>
        <time>2016-06-19T17:49:35Z</time>
      </trkpt>
      <trkpt lat="43.62628" lon="3.88431">
        <ele>44.36</ele>
        <time>2016-06-19T17:49:44Z</time>
      </trkpt>
      <trkpt lat="43.62611" lon="3.88269">
        <ele>44.36</ele>
        <time>2016-06-19T17:49:53Z</time>
      </trkpt>
      <trkpt lat="43.62583" lon="3.881">
        <ele>47.24</ele>
        <time>2016-06-19T17:50:04Z</time>
      </trkpt>
      <trkpt lat="43.62573" lon="3.88015">
        <ele>50.61</ele>
        <time>2016-06-19T17:50:12Z</time>
      </trkpt>
      <trkpt lat="43.62569" lon="3.87976">
        <ele>52.05</ele>
        <time>2016-06-19T17:50:19Z</time>
      </trkpt>
      <trkpt lat="43.62567" lon="3.87954">
        <ele>53.49</ele>
        <time>2016-06-19T17:50:28Z</time>
      </trkpt>
      <trkpt lat="43.62567" lon="3.87906">
        <ele>53.49</ele>
        <time>2016-06-19T17:50:35Z</time>
      </trkpt>
      <trkpt lat="43.6257" lon="3.8789">
        <ele>53.49</ele>
        <time>2016-06-19T17:50:36Z</time>
      </trkpt>
      <trkpt lat="43.62574" lon="3.87873">
        <ele>53.49</ele>
        <time>2016-06-19T17:50:37Z</time>
      </trkpt>
      <trkpt lat="43.6261" lon="3.87738">
        <ele>52.05</ele>
        <time>2016-06-19T17:50:43Z</time>
      </trkpt>
      <trkpt lat="43.62656" lon="3.87566">
        <ele>49.16</ele>
        <time>2016-06-19T17:50:51Z</time>
      </trkpt>
      <trkpt lat="43.62663" lon="3.87536">
        <ele>49.16</ele>
        <time>2016-06-19T17:50:56Z</time>
      </trkpt>
      <trkpt lat="43.62674" lon="3.87491">
        <ele>52.05</ele>
        <time>2016-06-19T17:51:19Z</time>
      </trkpt>
      <trkpt lat="43.62699" lon="3.87349">
        <ele>49.65</ele>
        <time>2016-06-19T17:51:26Z</time>
      </trkpt>
      <trkpt lat="43.62705" lon="3.87145">
        <ele>50.13</ele>
        <time>2016-06-19T17:51:35Z</time>
      </trkpt>
      <trkpt lat="43.62699" lon="3.87023">
        <ele>52.05</ele>
        <time>2016-06-19T17:51:42Z</time>
      </trkpt>
      <trkpt lat="43.62698" lon="3.86997">
        <ele>53.97</ele>
        <time>2016-06-19T17:51:48Z</time>
      </trkpt>
      <trkpt lat="43.62698" lon="3.86981">
        <ele>52.05</ele>
        <time>2016-06-19T17:52:17Z</time>
      </trkpt>
      <trkpt lat="43.62698" lon="3.86966">
        <ele>52.05</ele>
        <time>2016-06-19T17:52:18Z</time>
      </trkpt>
      <trkpt lat="43.62696" lon="3.8695">
        <ele>51.57</ele>
        <time>2016-06-19T17:52:19Z</time>
      </trkpt>
      <trkpt lat="43.62672" lon="3.86816">
        <ele>48.2</ele>
        <time>2016-06-19T17:52:26Z</time>
      </trkpt>
      <trkpt lat="43.62659" lon="3.86734">
        <ele>47.72</ele>
        <time>2016-06-19T17:52:33Z</time>
      </trkpt>
      <trkpt lat="43.62646" lon="3.86642">
        <ele>47.72</ele>
        <time>2016-06-19T17:52:43Z</time>
      </trkpt>
      <trkpt lat="43.62643" lon="3.86625">
        <ele>48.2</ele>
        <time>2016-06-19T17:52:45Z</time>
      </trkpt>
      <trkpt lat="43.62639" lon="3.86614">
        <ele>48.68</ele>
        <time>2016-06-19T17:52:46Z</time>
      </trkpt>
      <trkpt lat="43.62636" lon="3.86602">
        <ele>48.68</ele>
        <time>2016-06-19T17:52:47Z</time>
      </trkpt>
      <trkpt lat="43.6263" lon="3.86589">
        <ele>48.2</ele>
        <time>2016-06-19T17:52:48Z</time>
      </trkpt>
      <trkpt lat="43.62624" lon="3.86575">
        <ele>47.72</ele>
        <time>2016-06-19T17:52:49Z</time>
      </trkpt>
      <trkpt lat="43.62575" lon="3.86485">
        <ele>47.24</ele>
        <time>2016-06-19T17:52:56Z</time>
      </trkpt>
      <trkpt lat="43.62571" lon="3.8648">
        <ele>47.24</ele>
        <time>2016-06-19T17:52:57Z</time>
      </trkpt>
      <trkpt lat="43.62552" lon="3.86454">
        <ele>47.24</ele>
        <time>2016-06-19T17:53:03Z</time>
      </trkpt>
      <trkpt lat="43.62487" lon="3.86357">
        <ele>47.24</ele>
        <time>2016-06-19T17:53:09Z</time>
      </trkpt>
      <trkpt lat="43.62422" lon="3.86253">
        <ele>42.92</ele>
        <time>2016-06-19T17:53:17Z</time>
      </trkpt>
      <trkpt lat="43.62406" lon="3.8623">
        <ele>42.44</ele>
        <time>2016-06-19T17:53:23Z</time>
      </trkpt>
      <trkpt lat="43.62395" lon="3.86222">
        <ele>42.44</ele>
        <time>2016-06-19T17:54:14Z</time>
      </trkpt>
      <trkpt lat="43.62342" lon="3.8615">
        <ele>42.44</ele>
        <time>2016-06-19T17:54:19Z</time>
      </trkpt>
      <trkpt lat="43.6222" lon="3.85969">
        <ele>40.99</ele>
        <time>2016-06-19T17:54:29Z</time>
      </trkpt>
      <trkpt lat="43.62105" lon="3.85835">
        <ele>39.07</ele>
        <time>2016-06-19T17:54:38Z</time>
      </trkpt>
      <trkpt lat="43.62081" lon="3.85809">
        <ele>39.07</ele>
        <time>2016-06-19T17:54:41Z</time>
      </trkpt>
      <trkpt lat="43.62077" lon="3.85802">
        <ele>39.55</ele>
        <time>2016-06-19T17:54:42Z</time>
      </trkpt>
      <trkpt lat="43.62069" lon="3.85765">
        <ele>41.47</ele>
        <time>2016-06-19T17:54:48Z</time>
      </trkpt>
      <trkpt lat="43.6205" lon="3.85654">
        <ele>41.47</ele>
        <time>2016-06-19T17:54:53Z</time>
      </trkpt>
      <trkpt lat="43.62013" lon="3.85384">
        <ele>44.36</ele>
        <time>2016-06-19T17:55:03Z</time>
      </trkpt>
      <trkpt lat="43.62007" lon="3.85253">
        <ele>47.24</ele>
        <time>2016-06-19T17:55:09Z</time>
      </trkpt>
      <trkpt lat="43.62007" lon="3.85207">
        <ele>47.72</ele>
        <time>2016-06-19T17:55:14Z</time>
      </trkpt>
      <trkpt lat="43.62007" lon="3.85172">
        <ele>48.2</ele>
        <time>2016-06-19T17:55:22Z</time>
      </trkpt>
      <trkpt lat="43.62005" lon="3.85071">
        <ele>52.05</ele>
        <time>2016-06-19T17:55:30Z</time>
      </trkpt>
      <trkpt lat="43.62001" lon="3.85027">
        <ele>52.53</ele>
        <time>2016-06-19T17:55:33Z</time>
      </trkpt>
      <trkpt lat="43.61998" lon="3.85012">
        <ele>53.01</ele>
        <time>2016-06-19T17:55:34Z</time>
      </trkpt>
      <trkpt lat="43.61943" lon="3.84873">
        <ele>61.18</ele>
        <time>2016-06-19T17:55:42Z</time>
      </trkpt>
      <trkpt lat="43.61893" lon="3.84733">
        <ele>62.62</ele>
        <time>2016-06-19T17:55:50Z</time>
      </trkpt>
      <trkpt lat="43.61878" lon="3.84659">
        <ele>60.7</ele>
        <time>2016-06-19T17:55:56Z</time>
      </trkpt>
      <trkpt lat="43.61875" lon="3.84642">
        <ele>61.18</ele>
        <time>2016-06-19T17:56:06Z</time>
      </trkpt>
      <trkpt lat="43.61867" lon="3.84596">
        <ele>60.22</ele>
        <time>2016-06-19T17:56:13Z</time>
      </trkpt>
      <trkpt lat="43.61843" lon="3.8447">
        <ele>63.1</ele>
        <time>2016-06-19T17:56:22Z</time>
      </trkpt>
      <trkpt lat="43.6184" lon="3.84461">
        <ele>64.07</ele>
        <time>2016-06-19T17:56:28Z</time>
      </trkpt>
      <trkpt lat="43.61831" lon="3.84431">
        <ele>65.51</ele>
        <time>2016-06-19T17:56:34Z</time>
      </trkpt>
      <trkpt lat="43.6179" lon="3.84333">
        <ele>71.27</ele>
        <time>2016-06-19T17:56:43Z</time>
      </trkpt>
      <trkpt lat="43.61783" lon="3.84296">
        <ele>73.68</ele>
        <time>2016-06-19T17:56:46Z</time>
      </trkpt>
      <trkpt lat="43.61784" lon="3.84284">
        <ele>74.16</ele>
        <time>2016-06-19T17:56:47Z</time>
      </trkpt>
      <trkpt lat="43.61786" lon="3.84272">
        <ele>75.12</ele>
        <time>2016-06-19T17:56:48Z</time>
      </trkpt>
      <trkpt lat="43.61789" lon="3.8426">
        <ele>75.6</ele>
        <time>2016-06-19T17:56:49Z</time>
      </trkpt>
      <trkpt lat="43.61793" lon="3.84249">
        <ele>76.56</ele>
        <time>2016-06-19T17:56:50Z</time>
      </trkpt>
      <trkpt lat="43.61797" lon="3.84238">
        <ele>77.52</ele>
        <time>2016-06-19T17:56:51Z</time>
      </trkpt>
      <trkpt lat="43.61822" lon="3.84162">
        <ele>83.29</ele>
        <time>2016-06-19T17:56:58Z</time>
      </trkpt>
      <trkpt lat="43.61823" lon="3.84153">
        <ele>83.77</ele>
        <time>2016-06-19T17:56:59Z</time>
      </trkpt>
      <trkpt lat="43.61824" lon="3.84144">
        <ele>83.77</ele>
        <time>2016-06-19T17:57:00Z</time>
      </trkpt>
      <trkpt lat="43.61823" lon="3.84136">
        <ele>83.77</ele>
        <time>2016-06-19T17:57:01Z</time>
      </trkpt>
      <trkpt lat="43.61823" lon="3.84129">
        <ele>83.77</ele>
        <time>2016-06-19T17:57:02Z</time>
      </trkpt>
      <trkpt lat="43.61822" lon="3.84122">
        <ele>84.25</ele>
        <time>2016-06-19T17:57:03Z</time>
      </trkpt>
      <trkpt lat="43.61822" lon="3.84112">
        <ele>84.25</ele>
        <time>2016-06-19T17:57:04Z</time>
      </trkpt>
      <trkpt lat="43.61818" lon="3.84025">
        <ele>86.18</ele>
        <time>2016-06-19T17:57:10Z</time>
      </trkpt>
      <trkpt lat="43.61815" lon="3.84016">
        <ele>86.66</ele>
        <time>2016-06-19T17:57:11Z</time>
      </trkpt>
      <trkpt lat="43.61811" lon="3.84005">
        <ele>87.62</ele>
        <time>2016-06-19T17:57:17Z</time>
      </trkpt>
      <trkpt lat="43.61805" lon="3.83984">
        <ele>86.18</ele>
        <time>2016-06-19T17:57:27Z</time>
      </trkpt>
      <trkpt lat="43.61802" lon="3.83983">
        <ele>88.1</ele>
        <time>2016-06-19T17:57:47Z</time>
      </trkpt>
      <trkpt lat="43.61802" lon="3.83983">
        <ele>87.14</ele>
        <time>2016-06-19T17:58:31Z</time>
      </trkpt>
      <trkpt lat="43.61799" lon="3.83986">
        <ele>85.21</ele>
        <time>2016-06-19T17:58:59Z</time>
      </trkpt>
      <trkpt lat="43.61796" lon="3.83987">
        <ele>85.69</ele>
        <time>2016-06-19T17:59:20Z</time>
      </trkpt>
      <trkpt lat="43.61801" lon="3.83985">
        <ele>87.14</ele>
        <time>2016-06-19T17:59:43Z</time>
      </trkpt>
      <trkpt lat="43.61798" lon="3.83972">
        <ele>86.66</ele>
        <time>2016-06-19T18:00:04Z</time>
      </trkpt>
      <trkpt lat="43.61796" lon="3.83951">
        <ele>86.18</ele>
        <time>2016-06-19T18:00:08Z</time>
      </trkpt>
      <trkpt lat="43.61798" lon="3.83947">
        <ele>86.18</ele>
        <time>2016-06-19T18:00:09Z</time>
      </trkpt>
      <trkpt lat="43.61801" lon="3.83943">
        <ele>86.18</ele>
        <time>2016-06-19T18:00:10Z</time>
      </trkpt>
      <trkpt lat="43.61853" lon="3.83898">
        <ele>88.58</ele>
        <time>2016-06-19T18:00:21Z</time>
      </trkpt>
      <trkpt lat="43.61937" lon="3.83821">
        <ele>94.35</ele>
        <time>2016-06-19T18:00:34Z</time>
      </trkpt>
      <trkpt lat="43.61972" lon="3.83799">
        <ele>93.39</ele>
        <time>2016-06-19T18:00:42Z</time>
      </trkpt>
      <trkpt lat="43.61981" lon="3.83803">
        <ele>92.9</ele>
        <time>2016-06-19T18:00:43Z</time>
      </trkpt>
      <trkpt lat="43.6199" lon="3.83809">
        <ele>91.94</ele>
        <time>2016-06-19T18:00:44Z</time>
      </trkpt>
      <trkpt lat="43.61997" lon="3.83818">
        <ele>91.94</ele>
        <time>2016-06-19T18:00:45Z</time>
      </trkpt>
      <trkpt lat="43.62005" lon="3.83827">
        <ele>91.46</ele>
        <time>2016-06-19T18:00:46Z</time>
      </trkpt>
      <trkpt lat="43.62081" lon="3.83916">
        <ele>89.06</ele>
        <time>2016-06-19T18:00:54Z</time>
      </trkpt>
      <trkpt lat="43.62101" lon="3.83952">
        <ele>85.21</ele>
        <time>2016-06-19T18:00:57Z</time>
      </trkpt>
      <trkpt lat="43.62104" lon="3.83964">
        <ele>83.77</ele>
        <time>2016-06-19T18:00:58Z</time>
      </trkpt>
      <trkpt lat="43.62105" lon="3.83977">
        <ele>82.81</ele>
        <time>2016-06-19T18:00:59Z</time>
      </trkpt>
      <trkpt lat="43.62111" lon="3.84033">
        <ele>75.6</ele>
        <time>2016-06-19T18:01:04Z</time>
      </trkpt>
      <trkpt lat="43.62108" lon="3.8404">
        <ele>74.64</ele>
        <time>2016-06-19T18:01:05Z</time>
      </trkpt>
      <trkpt lat="43.62102" lon="3.84045">
        <ele>73.2</ele>
        <time>2016-06-19T18:01:06Z</time>
      </trkpt>
      <trkpt lat="43.62097" lon="3.84048">
        <ele>72.72</ele>
        <time>2016-06-19T18:01:07Z</time>
      </trkpt>
      <trkpt lat="43.62092" lon="3.84049">
        <ele>72.24</ele>
        <time>2016-06-19T18:01:08Z</time>
      </trkpt>
      <trkpt lat="43.62088" lon="3.84049">
        <ele>72.24</ele>
        <time>2016-06-19T18:01:09Z</time>
      </trkpt>
      <trkpt lat="43.62085" lon="3.84048">
        <ele>72.24</ele>
        <time>2016-06-19T18:01:10Z</time>
      </trkpt>
      <trkpt lat="43.62083" lon="3.84044">
        <ele>72.24</ele>
        <time>2016-06-19T18:01:11Z</time>
      </trkpt>
      <trkpt lat="43.62083" lon="3.84041">
        <ele>72.24</ele>
        <time>2016-06-19T18:01:12Z</time>
      </trkpt>
      <trkpt lat="43.62083" lon="3.84039">
        <ele>72.72</ele>
        <time>2016-06-19T18:01:13Z</time>
      </trkpt>
      <trkpt lat="43.62084" lon="3.84036">
        <ele>71.76</ele>
        <time>2016-06-19T18:01:30Z</time>
      </trkpt>
      <trkpt lat="43.62084" lon="3.84032">
        <ele>70.79</ele>
        <time>2016-06-19T18:01:46Z</time>
      </trkpt>
      <trkpt lat="43.62089" lon="3.84022">
        <ele>71.76</ele>
        <time>2016-06-19T18:01:49Z</time>
      </trkpt>
      <trkpt lat="43.62089" lon="3.84019">
        <ele>72.24</ele>
        <time>2016-06-19T18:01:50Z</time>
      </trkpt>
      <trkpt lat="43.62088" lon="3.84016">
        <ele>74.16</ele>
        <time>2016-06-19T18:02:04Z</time>
      </trkpt>
      <trkpt lat="43.62087" lon="3.84014">
        <ele>73.68</ele>
        <time>2016-06-19T18:02:11Z</time>
      </trkpt>
      <trkpt lat="43.62085" lon="3.84013">
        <ele>73.68</ele>
        <time>2016-06-19T18:02:12Z</time>
      </trkpt>
      <trkpt lat="43.62083" lon="3.84013">
        <ele>74.16</ele>
        <time>2016-06-19T18:02:13Z</time>
      </trkpt>
    </trkseg>
  </trk>
</gpx>